<?xml version="1.0" encoding="utf-8" standalone="yes"?>
<gpx version="1.1" creator="Locus Map, Android"
 xmlns="http://www.topografix.com/GPX/1/1"
 xmlns:xsi="http://www.w3.org/2001/XMLSchema-instance"
 xsi:schemaLocation="http://www.topografix.com/GPX/1/1 http://www.topografix.com/GPX/1/1/gpx.xsd"
 xmlns:gpxx="http://www.garmin.com/xmlschemas/GpxExtensions/v3"
 xmlns:gpxtrkx="http://www.garmin.com/xmlschemas/TrackStatsExtension/v1"
 xmlns:gpxtpx="http://www.garmin.com/xmlschemas/TrackPointExtension/v2"
 xmlns:locus="http://www.locusmap.eu">
	<metadata>
		<desc>File with points/tracks from Locus Map Classic/3.66.2</desc>
		<time>2023-04-16T17:04:07.642Z</time>
	</metadata>
<trk>
<name>Fonteno - Sentiero 568</name>
	<extensions>
		<line xmlns="http://www.topografix.com/GPX/gpx_style/0/2">
			<color>0000FF</color>
			<opacity>0.59</opacity>
			<width>6.0</width>
			<extensions>
				<locus:lsColorBase>#960000FF</locus:lsColorBase>
				<locus:lsWidth>6.0</locus:lsWidth>
				<locus:lsUnits>PIXELS</locus:lsUnits>
			</extensions>
		</line>
		<locus:activity>hiking</locus:activity>
	</extensions>
<trkseg>
<trkpt lat="45.7579940" lon="10.0206630">
	<ele>578.80</ele>
	<time>2023-04-15T06:24:00.000Z</time>
</trkpt>
<trkpt lat="45.7579930" lon="10.0206660">
	<ele>578.80</ele>
	<time>2023-04-15T06:24:04.000Z</time>
</trkpt>
<trkpt lat="45.7579930" lon="10.0206660">
	<ele>578.80</ele>
	<time>2023-04-15T06:24:10.000Z</time>
</trkpt>
<trkpt lat="45.7579930" lon="10.0206660">
	<ele>578.80</ele>
	<time>2023-04-15T06:24:11.000Z</time>
</trkpt>
<trkpt lat="45.7579890" lon="10.0206730">
	<ele>578.80</ele>
	<time>2023-04-15T06:24:17.000Z</time>
</trkpt>
<trkpt lat="45.7579860" lon="10.0206800">
	<ele>578.80</ele>
	<time>2023-04-15T06:24:23.000Z</time>
</trkpt>
<trkpt lat="45.7580040" lon="10.0206910">
	<ele>578.80</ele>
	<time>2023-04-15T06:24:36.000Z</time>
</trkpt>
<trkpt lat="45.7580550" lon="10.0207170">
	<ele>578.80</ele>
	<time>2023-04-15T06:24:42.000Z</time>
</trkpt>
<trkpt lat="45.7581260" lon="10.0207430">
	<ele>578.80</ele>
	<time>2023-04-15T06:24:49.000Z</time>
</trkpt>
<trkpt lat="45.7581740" lon="10.0208120">
	<ele>578.80</ele>
	<time>2023-04-15T06:24:56.000Z</time>
</trkpt>
<trkpt lat="45.7581830" lon="10.0208400">
	<ele>579.00</ele>
	<time>2023-04-15T06:24:58.000Z</time>
</trkpt>
<trkpt lat="45.7581870" lon="10.0208480">
	<ele>579.00</ele>
	<time>2023-04-15T06:24:59.000Z</time>
</trkpt>
<trkpt lat="45.7581940" lon="10.0208530">
	<ele>579.00</ele>
	<time>2023-04-15T06:25:00.000Z</time>
</trkpt>
<trkpt lat="45.7582080" lon="10.0208560">
	<ele>579.20</ele>
	<time>2023-04-15T06:25:02.000Z</time>
</trkpt>
<trkpt lat="45.7582150" lon="10.0208550">
	<ele>579.20</ele>
	<time>2023-04-15T06:25:03.000Z</time>
</trkpt>
<trkpt lat="45.7582270" lon="10.0208450">
	<ele>579.80</ele>
	<time>2023-04-15T06:25:06.000Z</time>
</trkpt>
<trkpt lat="45.7582370" lon="10.0208220">
	<ele>580.40</ele>
	<time>2023-04-15T06:25:09.000Z</time>
</trkpt>
<trkpt lat="45.7582360" lon="10.0208230">
	<ele>580.40</ele>
	<time>2023-04-15T06:25:10.000Z</time>
</trkpt>
<trkpt lat="45.7582400" lon="10.0208220">
	<ele>580.60</ele>
	<time>2023-04-15T06:25:11.000Z</time>
</trkpt>
<trkpt lat="45.7582430" lon="10.0208190">
	<ele>580.80</ele>
	<time>2023-04-15T06:25:14.000Z</time>
</trkpt>
<trkpt lat="45.7582350" lon="10.0207950">
	<ele>580.60</ele>
	<time>2023-04-15T06:25:18.000Z</time>
</trkpt>
<trkpt lat="45.7582300" lon="10.0207490">
	<ele>581.00</ele>
	<time>2023-04-15T06:25:24.000Z</time>
</trkpt>
<trkpt lat="45.7582360" lon="10.0207140">
	<ele>581.80</ele>
	<time>2023-04-15T06:25:27.000Z</time>
</trkpt>
<trkpt lat="45.7582400" lon="10.0206760">
	<ele>582.20</ele>
	<time>2023-04-15T06:25:29.000Z</time>
</trkpt>
<trkpt lat="45.7582490" lon="10.0206160">
	<ele>583.00</ele>
	<time>2023-04-15T06:25:32.000Z</time>
</trkpt>
<trkpt lat="45.7582470" lon="10.0206120">
	<ele>583.20</ele>
	<time>2023-04-15T06:25:33.000Z</time>
</trkpt>
<trkpt lat="45.7582260" lon="10.0205950">
	<ele>584.20</ele>
	<time>2023-04-15T06:25:38.000Z</time>
</trkpt>
<trkpt lat="45.7582280" lon="10.0205830">
	<ele>584.40</ele>
	<time>2023-04-15T06:25:39.000Z</time>
</trkpt>
<trkpt lat="45.7582380" lon="10.0205640">
	<ele>585.40</ele>
	<time>2023-04-15T06:25:43.000Z</time>
</trkpt>
<trkpt lat="45.7582410" lon="10.0205590">
	<ele>585.60</ele>
	<time>2023-04-15T06:25:44.000Z</time>
</trkpt>
<trkpt lat="45.7582510" lon="10.0205260">
	<ele>585.80</ele>
	<time>2023-04-15T06:25:45.000Z</time>
</trkpt>
<trkpt lat="45.7582410" lon="10.0205060">
	<ele>586.40</ele>
	<time>2023-04-15T06:25:48.000Z</time>
</trkpt>
<trkpt lat="45.7582390" lon="10.0205000">
	<ele>586.40</ele>
	<time>2023-04-15T06:25:49.000Z</time>
</trkpt>
<trkpt lat="45.7582370" lon="10.0204960">
	<ele>586.60</ele>
	<time>2023-04-15T06:25:50.000Z</time>
</trkpt>
<trkpt lat="45.7582390" lon="10.0204830">
	<ele>587.00</ele>
	<time>2023-04-15T06:25:52.000Z</time>
</trkpt>
<trkpt lat="45.7582350" lon="10.0204560">
	<ele>587.40</ele>
	<time>2023-04-15T06:25:54.000Z</time>
</trkpt>
<trkpt lat="45.7582390" lon="10.0204400">
	<ele>587.40</ele>
	<time>2023-04-15T06:25:55.000Z</time>
</trkpt>
<trkpt lat="45.7582430" lon="10.0204230">
	<ele>587.80</ele>
	<time>2023-04-15T06:25:56.000Z</time>
</trkpt>
<trkpt lat="45.7582420" lon="10.0204220">
	<ele>588.20</ele>
	<time>2023-04-15T06:25:58.000Z</time>
</trkpt>
<trkpt lat="45.7582650" lon="10.0203980">
	<ele>589.00</ele>
	<time>2023-04-15T06:26:02.000Z</time>
</trkpt>
<trkpt lat="45.7582800" lon="10.0203770">
	<ele>589.00</ele>
	<time>2023-04-15T06:26:03.000Z</time>
</trkpt>
<trkpt lat="45.7582900" lon="10.0203550">
	<ele>589.40</ele>
	<time>2023-04-15T06:26:05.000Z</time>
</trkpt>
<trkpt lat="45.7583310" lon="10.0202890">
	<ele>590.20</ele>
	<time>2023-04-15T06:26:08.000Z</time>
</trkpt>
<trkpt lat="45.7583940" lon="10.0202710">
	<ele>590.80</ele>
	<time>2023-04-15T06:26:12.000Z</time>
</trkpt>
<trkpt lat="45.7583940" lon="10.0202760">
	<ele>591.00</ele>
	<time>2023-04-15T06:26:13.000Z</time>
</trkpt>
<trkpt lat="45.7584050" lon="10.0202730">
	<ele>591.20</ele>
	<time>2023-04-15T06:26:14.000Z</time>
</trkpt>
<trkpt lat="45.7584440" lon="10.0202260">
	<ele>591.60</ele>
	<time>2023-04-15T06:26:16.000Z</time>
</trkpt>
<trkpt lat="45.7584880" lon="10.0201600">
	<ele>592.40</ele>
	<time>2023-04-15T06:26:19.000Z</time>
</trkpt>
<trkpt lat="45.7585080" lon="10.0201140">
	<ele>592.80</ele>
	<time>2023-04-15T06:26:22.000Z</time>
</trkpt>
<trkpt lat="45.7585000" lon="10.0201150">
	<ele>593.00</ele>
	<time>2023-04-15T06:26:23.000Z</time>
</trkpt>
<trkpt lat="45.7584980" lon="10.0200960">
	<ele>593.40</ele>
	<time>2023-04-15T06:26:25.000Z</time>
</trkpt>
<trkpt lat="45.7584840" lon="10.0200950">
	<ele>593.60</ele>
	<time>2023-04-15T06:26:26.000Z</time>
</trkpt>
<trkpt lat="45.7584330" lon="10.0200820">
	<ele>594.40</ele>
	<time>2023-04-15T06:26:30.000Z</time>
</trkpt>
<trkpt lat="45.7583820" lon="10.0200520">
	<ele>595.60</ele>
	<time>2023-04-15T06:26:35.000Z</time>
</trkpt>
<trkpt lat="45.7583650" lon="10.0200550">
	<ele>595.80</ele>
	<time>2023-04-15T06:26:36.000Z</time>
</trkpt>
<trkpt lat="45.7583420" lon="10.0200640">
	<ele>596.00</ele>
	<time>2023-04-15T06:26:37.000Z</time>
</trkpt>
<trkpt lat="45.7582620" lon="10.0200850">
	<ele>597.00</ele>
	<time>2023-04-15T06:26:41.000Z</time>
</trkpt>
<trkpt lat="45.7582380" lon="10.0200660">
	<ele>598.00</ele>
	<time>2023-04-15T06:26:45.000Z</time>
</trkpt>
<trkpt lat="45.7582250" lon="10.0200650">
	<ele>598.20</ele>
	<time>2023-04-15T06:26:46.000Z</time>
</trkpt>
<trkpt lat="45.7581950" lon="10.0200430">
	<ele>599.20</ele>
	<time>2023-04-15T06:26:50.000Z</time>
</trkpt>
<trkpt lat="45.7582010" lon="10.0200090">
	<ele>599.40</ele>
	<time>2023-04-15T06:26:52.000Z</time>
</trkpt>
<trkpt lat="45.7581940" lon="10.0200010">
	<ele>599.40</ele>
	<time>2023-04-15T06:26:53.000Z</time>
</trkpt>
<trkpt lat="45.7581970" lon="10.0199520">
	<ele>599.60</ele>
	<time>2023-04-15T06:26:56.000Z</time>
</trkpt>
<trkpt lat="45.7581910" lon="10.0199050">
	<ele>599.80</ele>
	<time>2023-04-15T06:26:59.000Z</time>
</trkpt>
<trkpt lat="45.7581130" lon="10.0199000">
	<ele>600.00</ele>
	<time>2023-04-15T06:27:03.000Z</time>
</trkpt>
<trkpt lat="45.7581020" lon="10.0198950">
	<ele>600.20</ele>
	<time>2023-04-15T06:27:04.000Z</time>
</trkpt>
<trkpt lat="45.7580650" lon="10.0198360">
	<ele>600.80</ele>
	<time>2023-04-15T06:27:09.000Z</time>
</trkpt>
<trkpt lat="45.7580460" lon="10.0198340">
	<ele>600.80</ele>
	<time>2023-04-15T06:27:10.000Z</time>
</trkpt>
<trkpt lat="45.7579970" lon="10.0197420">
	<ele>601.20</ele>
	<time>2023-04-15T06:27:15.000Z</time>
</trkpt>
<trkpt lat="45.7579470" lon="10.0196990">
	<ele>601.40</ele>
	<time>2023-04-15T06:27:18.000Z</time>
</trkpt>
<trkpt lat="45.7579210" lon="10.0196570">
	<ele>601.60</ele>
	<time>2023-04-15T06:27:21.000Z</time>
</trkpt>
<trkpt lat="45.7579190" lon="10.0195810">
	<ele>602.20</ele>
	<time>2023-04-15T06:27:24.000Z</time>
</trkpt>
<trkpt lat="45.7579480" lon="10.0195140">
	<ele>603.00</ele>
	<time>2023-04-15T06:27:28.000Z</time>
</trkpt>
<trkpt lat="45.7579590" lon="10.0194980">
	<ele>603.00</ele>
	<time>2023-04-15T06:27:29.000Z</time>
</trkpt>
<trkpt lat="45.7579660" lon="10.0194810">
	<ele>603.40</ele>
	<time>2023-04-15T06:27:30.000Z</time>
</trkpt>
<trkpt lat="45.7579560" lon="10.0194820">
	<ele>603.60</ele>
	<time>2023-04-15T06:27:35.000Z</time>
</trkpt>
<trkpt lat="45.7579650" lon="10.0194800">
	<ele>603.40</ele>
	<time>2023-04-15T06:27:39.000Z</time>
</trkpt>
<trkpt lat="45.7579640" lon="10.0194800">
	<ele>603.40</ele>
	<time>2023-04-15T06:27:40.000Z</time>
</trkpt>
<trkpt lat="45.7579640" lon="10.0194810">
	<ele>603.60</ele>
	<time>2023-04-15T06:27:48.000Z</time>
</trkpt>
<trkpt lat="45.7579630" lon="10.0194810">
	<ele>603.40</ele>
	<time>2023-04-15T06:27:51.000Z</time>
</trkpt>
<trkpt lat="45.7579580" lon="10.0195040">
	<ele>602.80</ele>
	<time>2023-04-15T06:27:55.000Z</time>
</trkpt>
<trkpt lat="45.7579490" lon="10.0195200">
	<ele>602.80</ele>
	<time>2023-04-15T06:27:58.000Z</time>
</trkpt>
<trkpt lat="45.7579480" lon="10.0195100">
	<ele>603.40</ele>
	<time>2023-04-15T06:28:01.000Z</time>
</trkpt>
<trkpt lat="45.7579570" lon="10.0194950">
	<ele>603.60</ele>
	<time>2023-04-15T06:28:02.000Z</time>
</trkpt>
<trkpt lat="45.7579620" lon="10.0195130">
	<ele>602.80</ele>
	<time>2023-04-15T06:28:06.000Z</time>
</trkpt>
<trkpt lat="45.7580170" lon="10.0195010">
	<ele>603.60</ele>
	<time>2023-04-15T06:28:12.000Z</time>
</trkpt>
<trkpt lat="45.7580540" lon="10.0195080">
	<ele>604.20</ele>
	<time>2023-04-15T06:28:17.000Z</time>
</trkpt>
<trkpt lat="45.7580550" lon="10.0195140">
	<ele>604.40</ele>
	<time>2023-04-15T06:28:18.000Z</time>
</trkpt>
<trkpt lat="45.7580660" lon="10.0195100">
	<ele>604.40</ele>
	<time>2023-04-15T06:28:20.000Z</time>
</trkpt>
<trkpt lat="45.7581150" lon="10.0194850">
	<ele>605.20</ele>
	<time>2023-04-15T06:28:26.000Z</time>
</trkpt>
<trkpt lat="45.7581230" lon="10.0195040">
	<ele>605.40</ele>
	<time>2023-04-15T06:28:28.000Z</time>
</trkpt>
<trkpt lat="45.7581550" lon="10.0195250">
	<ele>605.60</ele>
	<time>2023-04-15T06:28:31.000Z</time>
</trkpt>
<trkpt lat="45.7582100" lon="10.0195500">
	<ele>606.40</ele>
	<time>2023-04-15T06:28:36.000Z</time>
</trkpt>
<trkpt lat="45.7582300" lon="10.0195600">
	<ele>606.60</ele>
	<time>2023-04-15T06:28:38.000Z</time>
</trkpt>
<trkpt lat="45.7582870" lon="10.0195990">
	<ele>607.40</ele>
	<time>2023-04-15T06:28:44.000Z</time>
</trkpt>
<trkpt lat="45.7582960" lon="10.0196040">
	<ele>607.60</ele>
	<time>2023-04-15T06:28:45.000Z</time>
</trkpt>
<trkpt lat="45.7583220" lon="10.0195940">
	<ele>607.80</ele>
	<time>2023-04-15T06:28:47.000Z</time>
</trkpt>
<trkpt lat="45.7583780" lon="10.0196120">
	<ele>608.60</ele>
	<time>2023-04-15T06:28:52.000Z</time>
</trkpt>
<trkpt lat="45.7583950" lon="10.0196290">
	<ele>608.80</ele>
	<time>2023-04-15T06:28:54.000Z</time>
</trkpt>
<trkpt lat="45.7584790" lon="10.0196420">
	<ele>609.60</ele>
	<time>2023-04-15T06:28:59.000Z</time>
</trkpt>
<trkpt lat="45.7585150" lon="10.0196440">
	<ele>609.80</ele>
	<time>2023-04-15T06:29:02.000Z</time>
</trkpt>
<trkpt lat="45.7585270" lon="10.0196610">
	<ele>610.00</ele>
	<time>2023-04-15T06:29:03.000Z</time>
</trkpt>
<trkpt lat="45.7585550" lon="10.0197220">
	<ele>610.20</ele>
	<time>2023-04-15T06:29:05.000Z</time>
</trkpt>
<trkpt lat="45.7585700" lon="10.0197210">
	<ele>610.60</ele>
	<time>2023-04-15T06:29:07.000Z</time>
</trkpt>
<trkpt lat="45.7585980" lon="10.0197080">
	<ele>611.00</ele>
	<time>2023-04-15T06:29:09.000Z</time>
</trkpt>
<trkpt lat="45.7586010" lon="10.0197270">
	<ele>611.60</ele>
	<time>2023-04-15T06:29:11.000Z</time>
</trkpt>
<trkpt lat="45.7586040" lon="10.0197290">
	<ele>611.80</ele>
	<time>2023-04-15T06:29:12.000Z</time>
</trkpt>
<trkpt lat="45.7586030" lon="10.0197340">
	<ele>612.00</ele>
	<time>2023-04-15T06:29:13.000Z</time>
</trkpt>
<trkpt lat="45.7586120" lon="10.0197270">
	<ele>612.20</ele>
	<time>2023-04-15T06:29:15.000Z</time>
</trkpt>
<trkpt lat="45.7586210" lon="10.0197060">
	<ele>612.60</ele>
	<time>2023-04-15T06:29:17.000Z</time>
</trkpt>
<trkpt lat="45.7586230" lon="10.0197000">
	<ele>612.80</ele>
	<time>2023-04-15T06:29:18.000Z</time>
</trkpt>
<trkpt lat="45.7585950" lon="10.0196930">
	<ele>613.20</ele>
	<time>2023-04-15T06:29:21.000Z</time>
</trkpt>
<trkpt lat="45.7585830" lon="10.0196920">
	<ele>613.20</ele>
	<time>2023-04-15T06:29:22.000Z</time>
</trkpt>
<trkpt lat="45.7585850" lon="10.0196610">
	<ele>613.80</ele>
	<time>2023-04-15T06:29:26.000Z</time>
</trkpt>
<trkpt lat="45.7585910" lon="10.0196520">
	<ele>614.00</ele>
	<time>2023-04-15T06:29:27.000Z</time>
</trkpt>
<trkpt lat="45.7586380" lon="10.0195970">
	<ele>614.40</ele>
	<time>2023-04-15T06:29:30.000Z</time>
</trkpt>
<trkpt lat="45.7586420" lon="10.0195960">
	<ele>614.60</ele>
	<time>2023-04-15T06:29:31.000Z</time>
</trkpt>
<trkpt lat="45.7586520" lon="10.0195850">
	<ele>614.80</ele>
	<time>2023-04-15T06:29:32.000Z</time>
</trkpt>
<trkpt lat="45.7586760" lon="10.0195870">
	<ele>615.00</ele>
	<time>2023-04-15T06:29:34.000Z</time>
</trkpt>
<trkpt lat="45.7587370" lon="10.0195580">
	<ele>615.80</ele>
	<time>2023-04-15T06:29:38.000Z</time>
</trkpt>
<trkpt lat="45.7587550" lon="10.0195490">
	<ele>616.00</ele>
	<time>2023-04-15T06:29:39.000Z</time>
</trkpt>
<trkpt lat="45.7588590" lon="10.0195200">
	<ele>617.20</ele>
	<time>2023-04-15T06:29:47.000Z</time>
</trkpt>
<trkpt lat="45.7588680" lon="10.0195170">
	<ele>617.40</ele>
	<time>2023-04-15T06:29:49.000Z</time>
</trkpt>
<trkpt lat="45.7589090" lon="10.0194900">
	<ele>618.20</ele>
	<time>2023-04-15T06:29:54.000Z</time>
</trkpt>
<trkpt lat="45.7589300" lon="10.0194900">
	<ele>619.00</ele>
	<time>2023-04-15T06:29:57.000Z</time>
</trkpt>
<trkpt lat="45.7589370" lon="10.0194720">
	<ele>619.20</ele>
	<time>2023-04-15T06:29:58.000Z</time>
</trkpt>
<trkpt lat="45.7589460" lon="10.0194720">
	<ele>619.40</ele>
	<time>2023-04-15T06:29:59.000Z</time>
</trkpt>
<trkpt lat="45.7590170" lon="10.0194760">
	<ele>620.40</ele>
	<time>2023-04-15T06:30:05.000Z</time>
</trkpt>
<trkpt lat="45.7590280" lon="10.0194770">
	<ele>620.40</ele>
	<time>2023-04-15T06:30:06.000Z</time>
</trkpt>
<trkpt lat="45.7590410" lon="10.0194890">
	<ele>621.60</ele>
	<time>2023-04-15T06:30:08.000Z</time>
</trkpt>
<trkpt lat="45.7590480" lon="10.0194900">
	<ele>621.80</ele>
	<time>2023-04-15T06:30:09.000Z</time>
</trkpt>
<trkpt lat="45.7590760" lon="10.0194910">
	<ele>622.20</ele>
	<time>2023-04-15T06:30:12.000Z</time>
</trkpt>
<trkpt lat="45.7591070" lon="10.0194540">
	<ele>622.40</ele>
	<time>2023-04-15T06:30:15.000Z</time>
</trkpt>
<trkpt lat="45.7591170" lon="10.0194440">
	<ele>622.60</ele>
	<time>2023-04-15T06:30:16.000Z</time>
</trkpt>
<trkpt lat="45.7591480" lon="10.0194340">
	<ele>623.00</ele>
	<time>2023-04-15T06:30:19.000Z</time>
</trkpt>
<trkpt lat="45.7591540" lon="10.0194320">
	<ele>623.20</ele>
	<time>2023-04-15T06:30:20.000Z</time>
</trkpt>
<trkpt lat="45.7591710" lon="10.0194200">
	<ele>623.80</ele>
	<time>2023-04-15T06:30:22.000Z</time>
</trkpt>
<trkpt lat="45.7592050" lon="10.0194030">
	<ele>624.20</ele>
	<time>2023-04-15T06:30:26.000Z</time>
</trkpt>
<trkpt lat="45.7592560" lon="10.0193460">
	<ele>624.80</ele>
	<time>2023-04-15T06:30:31.000Z</time>
</trkpt>
<trkpt lat="45.7592600" lon="10.0193430">
	<ele>625.00</ele>
	<time>2023-04-15T06:30:32.000Z</time>
</trkpt>
<trkpt lat="45.7592590" lon="10.0193430">
	<ele>625.40</ele>
	<time>2023-04-15T06:30:33.000Z</time>
</trkpt>
<trkpt lat="45.7592860" lon="10.0193000">
	<ele>626.00</ele>
	<time>2023-04-15T06:30:37.000Z</time>
</trkpt>
<trkpt lat="45.7593690" lon="10.0192400">
	<ele>627.00</ele>
	<time>2023-04-15T06:30:44.000Z</time>
</trkpt>
<trkpt lat="45.7593870" lon="10.0192320">
	<ele>627.20</ele>
	<time>2023-04-15T06:30:46.000Z</time>
</trkpt>
<trkpt lat="45.7594080" lon="10.0192020">
	<ele>627.60</ele>
	<time>2023-04-15T06:30:49.000Z</time>
</trkpt>
<trkpt lat="45.7594700" lon="10.0191370">
	<ele>628.00</ele>
	<time>2023-04-15T06:30:54.000Z</time>
</trkpt>
<trkpt lat="45.7594960" lon="10.0191240">
	<ele>628.20</ele>
	<time>2023-04-15T06:30:57.000Z</time>
</trkpt>
<trkpt lat="45.7595170" lon="10.0191280">
	<ele>628.40</ele>
	<time>2023-04-15T06:30:59.000Z</time>
</trkpt>
<trkpt lat="45.7595330" lon="10.0191250">
	<ele>628.60</ele>
	<time>2023-04-15T06:31:01.000Z</time>
</trkpt>
<trkpt lat="45.7595370" lon="10.0191240">
	<ele>628.60</ele>
	<time>2023-04-15T06:31:03.000Z</time>
</trkpt>
<trkpt lat="45.7595480" lon="10.0191250">
	<ele>628.80</ele>
	<time>2023-04-15T06:31:06.000Z</time>
</trkpt>
<trkpt lat="45.7595520" lon="10.0191620">
	<ele>629.00</ele>
	<time>2023-04-15T06:31:10.000Z</time>
</trkpt>
<trkpt lat="45.7595550" lon="10.0191450">
	<ele>629.20</ele>
	<time>2023-04-15T06:31:13.000Z</time>
</trkpt>
<trkpt lat="45.7595550" lon="10.0191440">
	<ele>629.00</ele>
	<time>2023-04-15T06:31:16.000Z</time>
</trkpt>
<trkpt lat="45.7596110" lon="10.0191010">
	<ele>629.40</ele>
	<time>2023-04-15T06:31:25.000Z</time>
</trkpt>
<trkpt lat="45.7596580" lon="10.0190570">
	<ele>629.60</ele>
	<time>2023-04-15T06:31:28.000Z</time>
</trkpt>
<trkpt lat="45.7597130" lon="10.0190100">
	<ele>630.00</ele>
	<time>2023-04-15T06:31:32.000Z</time>
</trkpt>
<trkpt lat="45.7597260" lon="10.0190030">
	<ele>630.20</ele>
	<time>2023-04-15T06:31:33.000Z</time>
</trkpt>
<trkpt lat="45.7597380" lon="10.0189950">
	<ele>630.20</ele>
	<time>2023-04-15T06:31:34.000Z</time>
</trkpt>
<trkpt lat="45.7597810" lon="10.0189840">
	<ele>631.00</ele>
	<time>2023-04-15T06:31:39.000Z</time>
</trkpt>
<trkpt lat="45.7597810" lon="10.0189870">
	<ele>631.20</ele>
	<time>2023-04-15T06:31:40.000Z</time>
</trkpt>
<trkpt lat="45.7597800" lon="10.0189890">
	<ele>631.40</ele>
	<time>2023-04-15T06:31:41.000Z</time>
</trkpt>
<trkpt lat="45.7597840" lon="10.0189980">
	<ele>631.80</ele>
	<time>2023-04-15T06:31:47.000Z</time>
</trkpt>
<trkpt lat="45.7598360" lon="10.0189550">
	<ele>631.60</ele>
	<time>2023-04-15T06:31:53.000Z</time>
</trkpt>
<trkpt lat="45.7598690" lon="10.0189530">
	<ele>632.40</ele>
	<time>2023-04-15T06:31:58.000Z</time>
</trkpt>
<trkpt lat="45.7598950" lon="10.0189330">
	<ele>632.80</ele>
	<time>2023-04-15T06:32:01.000Z</time>
</trkpt>
<trkpt lat="45.7599320" lon="10.0189070">
	<ele>633.40</ele>
	<time>2023-04-15T06:32:04.000Z</time>
</trkpt>
<trkpt lat="45.7599590" lon="10.0188730">
	<ele>634.00</ele>
	<time>2023-04-15T06:32:08.000Z</time>
</trkpt>
<trkpt lat="45.7599760" lon="10.0188460">
	<ele>634.60</ele>
	<time>2023-04-15T06:32:11.000Z</time>
</trkpt>
<trkpt lat="45.7600190" lon="10.0187970">
	<ele>635.20</ele>
	<time>2023-04-15T06:32:16.000Z</time>
</trkpt>
<trkpt lat="45.7600400" lon="10.0187620">
	<ele>635.60</ele>
	<time>2023-04-15T06:32:20.000Z</time>
</trkpt>
<trkpt lat="45.7600600" lon="10.0187350">
	<ele>636.00</ele>
	<time>2023-04-15T06:32:23.000Z</time>
</trkpt>
<trkpt lat="45.7600870" lon="10.0187250">
	<ele>636.60</ele>
	<time>2023-04-15T06:32:27.000Z</time>
</trkpt>
<trkpt lat="45.7601050" lon="10.0187080">
	<ele>637.00</ele>
	<time>2023-04-15T06:32:29.000Z</time>
</trkpt>
<trkpt lat="45.7601330" lon="10.0186480">
	<ele>637.60</ele>
	<time>2023-04-15T06:32:32.000Z</time>
</trkpt>
<trkpt lat="45.7601420" lon="10.0186230">
	<ele>638.00</ele>
	<time>2023-04-15T06:32:34.000Z</time>
</trkpt>
<trkpt lat="45.7601480" lon="10.0186150">
	<ele>638.20</ele>
	<time>2023-04-15T06:32:35.000Z</time>
</trkpt>
<trkpt lat="45.7601750" lon="10.0185790">
	<ele>638.80</ele>
	<time>2023-04-15T06:32:38.000Z</time>
</trkpt>
<trkpt lat="45.7601830" lon="10.0185620">
	<ele>639.00</ele>
	<time>2023-04-15T06:32:39.000Z</time>
</trkpt>
<trkpt lat="45.7601930" lon="10.0185430">
	<ele>639.40</ele>
	<time>2023-04-15T06:32:40.000Z</time>
</trkpt>
<trkpt lat="45.7602130" lon="10.0185070">
	<ele>639.80</ele>
	<time>2023-04-15T06:32:43.000Z</time>
</trkpt>
<trkpt lat="45.7602230" lon="10.0184670">
	<ele>640.40</ele>
	<time>2023-04-15T06:32:47.000Z</time>
</trkpt>
<trkpt lat="45.7602320" lon="10.0184620">
	<ele>640.80</ele>
	<time>2023-04-15T06:32:49.000Z</time>
</trkpt>
<trkpt lat="45.7602890" lon="10.0184340">
	<ele>642.00</ele>
	<time>2023-04-15T06:32:54.000Z</time>
</trkpt>
<trkpt lat="45.7603300" lon="10.0183770">
	<ele>642.40</ele>
	<time>2023-04-15T06:32:59.000Z</time>
</trkpt>
<trkpt lat="45.7603370" lon="10.0183820">
	<ele>642.40</ele>
	<time>2023-04-15T06:33:00.000Z</time>
</trkpt>
<trkpt lat="45.7603890" lon="10.0183800">
	<ele>642.60</ele>
	<time>2023-04-15T06:33:03.000Z</time>
</trkpt>
<trkpt lat="45.7604410" lon="10.0183620">
	<ele>642.60</ele>
	<time>2023-04-15T06:33:06.000Z</time>
</trkpt>
<trkpt lat="45.7604700" lon="10.0184320">
	<ele>642.80</ele>
	<time>2023-04-15T06:33:11.000Z</time>
</trkpt>
<trkpt lat="45.7604830" lon="10.0184490">
	<ele>643.20</ele>
	<time>2023-04-15T06:33:12.000Z</time>
</trkpt>
<trkpt lat="45.7605350" lon="10.0184980">
	<ele>643.60</ele>
	<time>2023-04-15T06:33:16.000Z</time>
</trkpt>
<trkpt lat="45.7605300" lon="10.0185500">
	<ele>644.20</ele>
	<time>2023-04-15T06:33:18.000Z</time>
</trkpt>
<trkpt lat="45.7605280" lon="10.0185690">
	<ele>644.40</ele>
	<time>2023-04-15T06:33:19.000Z</time>
</trkpt>
<trkpt lat="45.7605300" lon="10.0186500">
	<ele>645.40</ele>
	<time>2023-04-15T06:33:25.000Z</time>
</trkpt>
<trkpt lat="45.7605450" lon="10.0186840">
	<ele>645.80</ele>
	<time>2023-04-15T06:33:28.000Z</time>
</trkpt>
<trkpt lat="45.7605550" lon="10.0187540">
	<ele>646.40</ele>
	<time>2023-04-15T06:33:32.000Z</time>
</trkpt>
<trkpt lat="45.7605670" lon="10.0188030">
	<ele>646.80</ele>
	<time>2023-04-15T06:33:36.000Z</time>
</trkpt>
<trkpt lat="45.7605800" lon="10.0188830">
	<ele>647.60</ele>
	<time>2023-04-15T06:33:43.000Z</time>
</trkpt>
<trkpt lat="45.7605920" lon="10.0189540">
	<ele>648.20</ele>
	<time>2023-04-15T06:33:46.000Z</time>
</trkpt>
<trkpt lat="45.7606050" lon="10.0189880">
	<ele>648.60</ele>
	<time>2023-04-15T06:33:48.000Z</time>
</trkpt>
<trkpt lat="45.7606440" lon="10.0190190">
	<ele>649.20</ele>
	<time>2023-04-15T06:33:52.000Z</time>
</trkpt>
<trkpt lat="45.7606570" lon="10.0190260">
	<ele>649.80</ele>
	<time>2023-04-15T06:33:54.000Z</time>
</trkpt>
<trkpt lat="45.7606630" lon="10.0190250">
	<ele>650.00</ele>
	<time>2023-04-15T06:33:55.000Z</time>
</trkpt>
<trkpt lat="45.7607060" lon="10.0190390">
	<ele>650.60</ele>
	<time>2023-04-15T06:33:59.000Z</time>
</trkpt>
<trkpt lat="45.7607140" lon="10.0190480">
	<ele>650.80</ele>
	<time>2023-04-15T06:34:00.000Z</time>
</trkpt>
<trkpt lat="45.7607320" lon="10.0190680">
	<ele>651.20</ele>
	<time>2023-04-15T06:34:02.000Z</time>
</trkpt>
<trkpt lat="45.7607390" lon="10.0190750">
	<ele>651.40</ele>
	<time>2023-04-15T06:34:03.000Z</time>
</trkpt>
<trkpt lat="45.7607480" lon="10.0190990">
	<ele>651.80</ele>
	<time>2023-04-15T06:34:05.000Z</time>
</trkpt>
<trkpt lat="45.7607370" lon="10.0192110">
	<ele>653.00</ele>
	<time>2023-04-15T06:34:11.000Z</time>
</trkpt>
<trkpt lat="45.7607450" lon="10.0192320">
	<ele>653.40</ele>
	<time>2023-04-15T06:34:13.000Z</time>
</trkpt>
<trkpt lat="45.7607740" lon="10.0192990">
	<ele>654.20</ele>
	<time>2023-04-15T06:34:18.000Z</time>
</trkpt>
<trkpt lat="45.7607800" lon="10.0193530">
	<ele>654.60</ele>
	<time>2023-04-15T06:34:21.000Z</time>
</trkpt>
<trkpt lat="45.7608020" lon="10.0194280">
	<ele>655.20</ele>
	<time>2023-04-15T06:34:26.000Z</time>
</trkpt>
<trkpt lat="45.7608160" lon="10.0195050">
	<ele>655.60</ele>
	<time>2023-04-15T06:34:31.000Z</time>
</trkpt>
<trkpt lat="45.7608320" lon="10.0195670">
	<ele>656.20</ele>
	<time>2023-04-15T06:34:35.000Z</time>
</trkpt>
<trkpt lat="45.7608510" lon="10.0197450">
	<ele>656.40</ele>
	<time>2023-04-15T06:34:45.000Z</time>
</trkpt>
<trkpt lat="45.7608550" lon="10.0197690">
	<ele>656.40</ele>
	<time>2023-04-15T06:34:47.000Z</time>
</trkpt>
<trkpt lat="45.7608690" lon="10.0198270">
	<ele>656.60</ele>
	<time>2023-04-15T06:34:51.000Z</time>
</trkpt>
<trkpt lat="45.7609270" lon="10.0199570">
	<ele>656.80</ele>
	<time>2023-04-15T06:34:58.000Z</time>
</trkpt>
<trkpt lat="45.7609640" lon="10.0200540">
	<ele>656.80</ele>
	<time>2023-04-15T06:35:05.000Z</time>
</trkpt>
<trkpt lat="45.7609780" lon="10.0201380">
	<ele>657.00</ele>
	<time>2023-04-15T06:35:10.000Z</time>
</trkpt>
<trkpt lat="45.7609840" lon="10.0201720">
	<ele>657.00</ele>
	<time>2023-04-15T06:35:12.000Z</time>
</trkpt>
<trkpt lat="45.7609960" lon="10.0201990">
	<ele>657.20</ele>
	<time>2023-04-15T06:35:14.000Z</time>
</trkpt>
<trkpt lat="45.7610270" lon="10.0203090">
	<ele>658.40</ele>
	<time>2023-04-15T06:35:21.000Z</time>
</trkpt>
<trkpt lat="45.7610680" lon="10.0203740">
	<ele>659.40</ele>
	<time>2023-04-15T06:35:27.000Z</time>
</trkpt>
<trkpt lat="45.7610680" lon="10.0203880">
	<ele>659.60</ele>
	<time>2023-04-15T06:35:28.000Z</time>
</trkpt>
<trkpt lat="45.7610980" lon="10.0204830">
	<ele>660.60</ele>
	<time>2023-04-15T06:35:34.000Z</time>
</trkpt>
<trkpt lat="45.7611090" lon="10.0205180">
	<ele>661.40</ele>
	<time>2023-04-15T06:35:36.000Z</time>
</trkpt>
<trkpt lat="45.7611150" lon="10.0205310">
	<ele>661.80</ele>
	<time>2023-04-15T06:35:37.000Z</time>
</trkpt>
<trkpt lat="45.7611400" lon="10.0205790">
	<ele>662.60</ele>
	<time>2023-04-15T06:35:41.000Z</time>
</trkpt>
<trkpt lat="45.7611620" lon="10.0206120">
	<ele>662.80</ele>
	<time>2023-04-15T06:35:44.000Z</time>
</trkpt>
<trkpt lat="45.7611690" lon="10.0206230">
	<ele>663.00</ele>
	<time>2023-04-15T06:35:45.000Z</time>
</trkpt>
<trkpt lat="45.7612100" lon="10.0206710">
	<ele>664.00</ele>
	<time>2023-04-15T06:35:50.000Z</time>
</trkpt>
<trkpt lat="45.7612230" lon="10.0206920">
	<ele>665.00</ele>
	<time>2023-04-15T06:35:52.000Z</time>
</trkpt>
<trkpt lat="45.7612380" lon="10.0207110">
	<ele>665.40</ele>
	<time>2023-04-15T06:35:54.000Z</time>
</trkpt>
<trkpt lat="45.7613100" lon="10.0207950">
	<ele>665.80</ele>
	<time>2023-04-15T06:36:04.000Z</time>
</trkpt>
<trkpt lat="45.7613410" lon="10.0208260">
	<ele>666.00</ele>
	<time>2023-04-15T06:36:07.000Z</time>
</trkpt>
<trkpt lat="45.7613680" lon="10.0208530">
	<ele>666.40</ele>
	<time>2023-04-15T06:36:10.000Z</time>
</trkpt>
<trkpt lat="45.7614140" lon="10.0208870">
	<ele>667.00</ele>
	<time>2023-04-15T06:36:15.000Z</time>
</trkpt>
<trkpt lat="45.7614190" lon="10.0208970">
	<ele>667.20</ele>
	<time>2023-04-15T06:36:16.000Z</time>
</trkpt>
<trkpt lat="45.7614520" lon="10.0209660">
	<ele>667.80</ele>
	<time>2023-04-15T06:36:22.000Z</time>
</trkpt>
<trkpt lat="45.7614600" lon="10.0209800">
	<ele>668.00</ele>
	<time>2023-04-15T06:36:24.000Z</time>
</trkpt>
<trkpt lat="45.7614660" lon="10.0209860">
	<ele>668.20</ele>
	<time>2023-04-15T06:36:25.000Z</time>
</trkpt>
<trkpt lat="45.7614720" lon="10.0209940">
	<ele>668.20</ele>
	<time>2023-04-15T06:36:26.000Z</time>
</trkpt>
<trkpt lat="45.7614960" lon="10.0210320">
	<ele>668.60</ele>
	<time>2023-04-15T06:36:30.000Z</time>
</trkpt>
<trkpt lat="45.7615210" lon="10.0210570">
	<ele>669.20</ele>
	<time>2023-04-15T06:36:33.000Z</time>
</trkpt>
<trkpt lat="45.7615530" lon="10.0210900">
	<ele>669.60</ele>
	<time>2023-04-15T06:36:37.000Z</time>
</trkpt>
<trkpt lat="45.7615960" lon="10.0211100">
	<ele>670.40</ele>
	<time>2023-04-15T06:36:42.000Z</time>
</trkpt>
<trkpt lat="45.7616460" lon="10.0211560">
	<ele>671.40</ele>
	<time>2023-04-15T06:36:48.000Z</time>
</trkpt>
<trkpt lat="45.7616700" lon="10.0211720">
	<ele>671.80</ele>
	<time>2023-04-15T06:36:51.000Z</time>
</trkpt>
<trkpt lat="45.7616820" lon="10.0211740">
	<ele>672.00</ele>
	<time>2023-04-15T06:36:52.000Z</time>
</trkpt>
<trkpt lat="45.7617150" lon="10.0211860">
	<ele>672.60</ele>
	<time>2023-04-15T06:36:55.000Z</time>
</trkpt>
<trkpt lat="45.7617390" lon="10.0212190">
	<ele>673.20</ele>
	<time>2023-04-15T06:36:59.000Z</time>
</trkpt>
<trkpt lat="45.7617570" lon="10.0212310">
	<ele>673.60</ele>
	<time>2023-04-15T06:37:01.000Z</time>
</trkpt>
<trkpt lat="45.7617630" lon="10.0212320">
	<ele>673.80</ele>
	<time>2023-04-15T06:37:02.000Z</time>
</trkpt>
<trkpt lat="45.7617860" lon="10.0212300">
	<ele>674.20</ele>
	<time>2023-04-15T06:37:06.000Z</time>
</trkpt>
<trkpt lat="45.7618050" lon="10.0212060">
	<ele>674.80</ele>
	<time>2023-04-15T06:37:09.000Z</time>
</trkpt>
<trkpt lat="45.7617960" lon="10.0211680">
	<ele>675.20</ele>
	<time>2023-04-15T06:37:12.000Z</time>
</trkpt>
<trkpt lat="45.7617830" lon="10.0211150">
	<ele>675.80</ele>
	<time>2023-04-15T06:37:17.000Z</time>
</trkpt>
<trkpt lat="45.7617690" lon="10.0210350">
	<ele>677.00</ele>
	<time>2023-04-15T06:37:23.000Z</time>
</trkpt>
<trkpt lat="45.7617670" lon="10.0210220">
	<ele>677.20</ele>
	<time>2023-04-15T06:37:24.000Z</time>
</trkpt>
<trkpt lat="45.7617560" lon="10.0209680">
	<ele>678.00</ele>
	<time>2023-04-15T06:37:29.000Z</time>
</trkpt>
<trkpt lat="45.7617520" lon="10.0209130">
	<ele>679.20</ele>
	<time>2023-04-15T06:37:33.000Z</time>
</trkpt>
<trkpt lat="45.7617520" lon="10.0208840">
	<ele>679.60</ele>
	<time>2023-04-15T06:37:35.000Z</time>
</trkpt>
<trkpt lat="45.7617510" lon="10.0208640">
	<ele>680.00</ele>
	<time>2023-04-15T06:37:37.000Z</time>
</trkpt>
<trkpt lat="45.7617490" lon="10.0208520">
	<ele>680.20</ele>
	<time>2023-04-15T06:37:38.000Z</time>
</trkpt>
<trkpt lat="45.7617440" lon="10.0207920">
	<ele>681.20</ele>
	<time>2023-04-15T06:37:43.000Z</time>
</trkpt>
<trkpt lat="45.7617240" lon="10.0207280">
	<ele>682.20</ele>
	<time>2023-04-15T06:37:48.000Z</time>
</trkpt>
<trkpt lat="45.7617230" lon="10.0207150">
	<ele>682.20</ele>
	<time>2023-04-15T06:37:49.000Z</time>
</trkpt>
<trkpt lat="45.7617200" lon="10.0206310">
	<ele>683.60</ele>
	<time>2023-04-15T06:37:55.000Z</time>
</trkpt>
<trkpt lat="45.7617220" lon="10.0206160">
	<ele>683.80</ele>
	<time>2023-04-15T06:37:56.000Z</time>
</trkpt>
<trkpt lat="45.7617220" lon="10.0206030">
	<ele>684.00</ele>
	<time>2023-04-15T06:37:57.000Z</time>
</trkpt>
<trkpt lat="45.7617190" lon="10.0205910">
	<ele>684.00</ele>
	<time>2023-04-15T06:37:58.000Z</time>
</trkpt>
<trkpt lat="45.7617090" lon="10.0205520">
	<ele>684.80</ele>
	<time>2023-04-15T06:38:02.000Z</time>
</trkpt>
<trkpt lat="45.7616830" lon="10.0204820">
	<ele>686.00</ele>
	<time>2023-04-15T06:38:08.000Z</time>
</trkpt>
<trkpt lat="45.7616770" lon="10.0203960">
	<ele>686.80</ele>
	<time>2023-04-15T06:38:14.000Z</time>
</trkpt>
<trkpt lat="45.7616770" lon="10.0203790">
	<ele>687.00</ele>
	<time>2023-04-15T06:38:15.000Z</time>
</trkpt>
<trkpt lat="45.7616760" lon="10.0203650">
	<ele>687.40</ele>
	<time>2023-04-15T06:38:18.000Z</time>
</trkpt>
<trkpt lat="45.7616740" lon="10.0203630">
	<ele>687.40</ele>
	<time>2023-04-15T06:38:21.000Z</time>
</trkpt>
<trkpt lat="45.7616710" lon="10.0203660">
	<ele>687.60</ele>
	<time>2023-04-15T06:38:31.000Z</time>
</trkpt>
<trkpt lat="45.7616710" lon="10.0203660">
	<ele>687.80</ele>
	<time>2023-04-15T06:38:35.000Z</time>
</trkpt>
<trkpt lat="45.7616710" lon="10.0203660">
	<ele>687.60</ele>
	<time>2023-04-15T06:38:42.000Z</time>
</trkpt>
<trkpt lat="45.7616640" lon="10.0203660">
	<ele>687.80</ele>
	<time>2023-04-15T06:38:45.000Z</time>
</trkpt>
<trkpt lat="45.7616450" lon="10.0203790">
	<ele>686.80</ele>
	<time>2023-04-15T06:39:12.000Z</time>
</trkpt>
<trkpt lat="45.7616410" lon="10.0203830">
	<ele>686.80</ele>
	<time>2023-04-15T06:39:21.000Z</time>
</trkpt>
<trkpt lat="45.7616390" lon="10.0203850">
	<ele>686.80</ele>
	<time>2023-04-15T06:39:27.000Z</time>
</trkpt>
<trkpt lat="45.7616130" lon="10.0204050">
	<ele>687.00</ele>
	<time>2023-04-15T06:39:59.000Z</time>
</trkpt>
<trkpt lat="45.7616130" lon="10.0204050">
	<ele>687.20</ele>
	<time>2023-04-15T06:40:04.000Z</time>
</trkpt>
<trkpt lat="45.7616200" lon="10.0204050">
	<ele>687.20</ele>
	<time>2023-04-15T06:40:10.000Z</time>
</trkpt>
<trkpt lat="45.7616300" lon="10.0203930">
	<ele>687.00</ele>
	<time>2023-04-15T06:40:16.000Z</time>
</trkpt>
<trkpt lat="45.7616320" lon="10.0203900">
	<ele>687.00</ele>
	<time>2023-04-15T06:40:18.000Z</time>
</trkpt>
<trkpt lat="45.7616350" lon="10.0203800">
	<ele>686.60</ele>
	<time>2023-04-15T06:40:21.000Z</time>
</trkpt>
<trkpt lat="45.7616350" lon="10.0202790">
	<ele>687.20</ele>
	<time>2023-04-15T06:40:25.000Z</time>
</trkpt>
<trkpt lat="45.7616200" lon="10.0201940">
	<ele>687.60</ele>
	<time>2023-04-15T06:40:29.000Z</time>
</trkpt>
<trkpt lat="45.7616150" lon="10.0201550">
	<ele>687.60</ele>
	<time>2023-04-15T06:40:31.000Z</time>
</trkpt>
<trkpt lat="45.7616190" lon="10.0200320">
	<ele>687.80</ele>
	<time>2023-04-15T06:40:38.000Z</time>
</trkpt>
<trkpt lat="45.7616130" lon="10.0199420">
	<ele>688.00</ele>
	<time>2023-04-15T06:40:42.000Z</time>
</trkpt>
<trkpt lat="45.7616180" lon="10.0198510">
	<ele>688.00</ele>
	<time>2023-04-15T06:40:46.000Z</time>
</trkpt>
<trkpt lat="45.7615880" lon="10.0197810">
	<ele>688.20</ele>
	<time>2023-04-15T06:40:51.000Z</time>
</trkpt>
<trkpt lat="45.7615800" lon="10.0197550">
	<ele>688.40</ele>
	<time>2023-04-15T06:40:53.000Z</time>
</trkpt>
<trkpt lat="45.7615860" lon="10.0196780">
	<ele>688.60</ele>
	<time>2023-04-15T06:40:57.000Z</time>
</trkpt>
<trkpt lat="45.7615850" lon="10.0196430">
	<ele>688.60</ele>
	<time>2023-04-15T06:40:59.000Z</time>
</trkpt>
<trkpt lat="45.7615390" lon="10.0194870">
	<ele>689.00</ele>
	<time>2023-04-15T06:41:09.000Z</time>
</trkpt>
<trkpt lat="45.7615310" lon="10.0194680">
	<ele>689.20</ele>
	<time>2023-04-15T06:41:10.000Z</time>
</trkpt>
<trkpt lat="45.7615000" lon="10.0193820">
	<ele>689.60</ele>
	<time>2023-04-15T06:41:16.000Z</time>
</trkpt>
<trkpt lat="45.7614760" lon="10.0193520">
	<ele>690.20</ele>
	<time>2023-04-15T06:41:19.000Z</time>
</trkpt>
<trkpt lat="45.7614650" lon="10.0193380">
	<ele>690.40</ele>
	<time>2023-04-15T06:41:20.000Z</time>
</trkpt>
<trkpt lat="45.7614560" lon="10.0193310">
	<ele>690.40</ele>
	<time>2023-04-15T06:41:21.000Z</time>
</trkpt>
<trkpt lat="45.7614430" lon="10.0193240">
	<ele>690.60</ele>
	<time>2023-04-15T06:41:22.000Z</time>
</trkpt>
<trkpt lat="45.7614160" lon="10.0193070">
	<ele>690.80</ele>
	<time>2023-04-15T06:41:25.000Z</time>
</trkpt>
<trkpt lat="45.7613960" lon="10.0192900">
	<ele>691.00</ele>
	<time>2023-04-15T06:41:27.000Z</time>
</trkpt>
<trkpt lat="45.7613610" lon="10.0192590">
	<ele>691.20</ele>
	<time>2023-04-15T06:41:30.000Z</time>
</trkpt>
<trkpt lat="45.7613430" lon="10.0192140">
	<ele>691.40</ele>
	<time>2023-04-15T06:41:33.000Z</time>
</trkpt>
<trkpt lat="45.7613330" lon="10.0192070">
	<ele>691.60</ele>
	<time>2023-04-15T06:41:34.000Z</time>
</trkpt>
<trkpt lat="45.7613120" lon="10.0191510">
	<ele>692.20</ele>
	<time>2023-04-15T06:41:39.000Z</time>
</trkpt>
<trkpt lat="45.7613130" lon="10.0191400">
	<ele>692.20</ele>
	<time>2023-04-15T06:41:40.000Z</time>
</trkpt>
<trkpt lat="45.7613160" lon="10.0191270">
	<ele>692.40</ele>
	<time>2023-04-15T06:41:41.000Z</time>
</trkpt>
<trkpt lat="45.7613180" lon="10.0190920">
	<ele>692.60</ele>
	<time>2023-04-15T06:41:43.000Z</time>
</trkpt>
<trkpt lat="45.7613310" lon="10.0190500">
	<ele>693.20</ele>
	<time>2023-04-15T06:41:46.000Z</time>
</trkpt>
<trkpt lat="45.7613470" lon="10.0190250">
	<ele>693.40</ele>
	<time>2023-04-15T06:41:48.000Z</time>
</trkpt>
<trkpt lat="45.7613600" lon="10.0189740">
	<ele>694.00</ele>
	<time>2023-04-15T06:41:51.000Z</time>
</trkpt>
<trkpt lat="45.7613620" lon="10.0189710">
	<ele>694.20</ele>
	<time>2023-04-15T06:41:53.000Z</time>
</trkpt>
<trkpt lat="45.7613660" lon="10.0189590">
	<ele>694.40</ele>
	<time>2023-04-15T06:41:54.000Z</time>
</trkpt>
<trkpt lat="45.7613760" lon="10.0189460">
	<ele>694.60</ele>
	<time>2023-04-15T06:41:55.000Z</time>
</trkpt>
<trkpt lat="45.7613880" lon="10.0189110">
	<ele>694.80</ele>
	<time>2023-04-15T06:41:57.000Z</time>
</trkpt>
<trkpt lat="45.7613930" lon="10.0189010">
	<ele>695.40</ele>
	<time>2023-04-15T06:42:00.000Z</time>
</trkpt>
<trkpt lat="45.7613990" lon="10.0188810">
	<ele>695.60</ele>
	<time>2023-04-15T06:42:01.000Z</time>
</trkpt>
<trkpt lat="45.7613980" lon="10.0188270">
	<ele>695.60</ele>
	<time>2023-04-15T06:42:03.000Z</time>
</trkpt>
<trkpt lat="45.7614180" lon="10.0187690">
	<ele>696.00</ele>
	<time>2023-04-15T06:42:06.000Z</time>
</trkpt>
<trkpt lat="45.7614350" lon="10.0186370">
	<ele>696.60</ele>
	<time>2023-04-15T06:42:15.000Z</time>
</trkpt>
<trkpt lat="45.7614530" lon="10.0186060">
	<ele>697.00</ele>
	<time>2023-04-15T06:42:18.000Z</time>
</trkpt>
<trkpt lat="45.7614610" lon="10.0185890">
	<ele>697.20</ele>
	<time>2023-04-15T06:42:19.000Z</time>
</trkpt>
<trkpt lat="45.7614660" lon="10.0185750">
	<ele>697.20</ele>
	<time>2023-04-15T06:42:20.000Z</time>
</trkpt>
<trkpt lat="45.7614750" lon="10.0185490">
	<ele>697.60</ele>
	<time>2023-04-15T06:42:22.000Z</time>
</trkpt>
<trkpt lat="45.7615110" lon="10.0184860">
	<ele>698.40</ele>
	<time>2023-04-15T06:42:27.000Z</time>
</trkpt>
<trkpt lat="45.7615200" lon="10.0184710">
	<ele>698.80</ele>
	<time>2023-04-15T06:42:29.000Z</time>
</trkpt>
<trkpt lat="45.7615380" lon="10.0184190">
	<ele>699.60</ele>
	<time>2023-04-15T06:42:34.000Z</time>
</trkpt>
<trkpt lat="45.7615370" lon="10.0184140">
	<ele>699.80</ele>
	<time>2023-04-15T06:42:35.000Z</time>
</trkpt>
<trkpt lat="45.7615450" lon="10.0183670">
	<ele>700.40</ele>
	<time>2023-04-15T06:42:38.000Z</time>
</trkpt>
<trkpt lat="45.7615430" lon="10.0183360">
	<ele>700.80</ele>
	<time>2023-04-15T06:42:40.000Z</time>
</trkpt>
<trkpt lat="45.7615410" lon="10.0183330">
	<ele>701.00</ele>
	<time>2023-04-15T06:42:41.000Z</time>
</trkpt>
<trkpt lat="45.7615390" lon="10.0183310">
	<ele>701.40</ele>
	<time>2023-04-15T06:42:42.000Z</time>
</trkpt>
<trkpt lat="45.7615320" lon="10.0183010">
	<ele>702.00</ele>
	<time>2023-04-15T06:42:46.000Z</time>
</trkpt>
<trkpt lat="45.7615310" lon="10.0182990">
	<ele>702.20</ele>
	<time>2023-04-15T06:42:47.000Z</time>
</trkpt>
<trkpt lat="45.7615370" lon="10.0182810">
	<ele>702.60</ele>
	<time>2023-04-15T06:42:49.000Z</time>
</trkpt>
<trkpt lat="45.7615510" lon="10.0182630">
	<ele>703.00</ele>
	<time>2023-04-15T06:42:52.000Z</time>
</trkpt>
<trkpt lat="45.7615420" lon="10.0182610">
	<ele>703.20</ele>
	<time>2023-04-15T06:43:02.000Z</time>
</trkpt>
<trkpt lat="45.7615260" lon="10.0182560">
	<ele>703.80</ele>
	<time>2023-04-15T06:43:08.000Z</time>
</trkpt>
<trkpt lat="45.7615220" lon="10.0182580">
	<ele>704.00</ele>
	<time>2023-04-15T06:43:11.000Z</time>
</trkpt>
<trkpt lat="45.7615160" lon="10.0182630">
	<ele>704.00</ele>
	<time>2023-04-15T06:43:14.000Z</time>
</trkpt>
<trkpt lat="45.7615200" lon="10.0182640">
	<ele>704.00</ele>
	<time>2023-04-15T06:43:15.000Z</time>
</trkpt>
<trkpt lat="45.7615280" lon="10.0182540">
	<ele>703.60</ele>
	<time>2023-04-15T06:43:18.000Z</time>
</trkpt>
<trkpt lat="45.7615520" lon="10.0181880">
	<ele>703.60</ele>
	<time>2023-04-15T06:43:23.000Z</time>
</trkpt>
<trkpt lat="45.7615630" lon="10.0181200">
	<ele>704.20</ele>
	<time>2023-04-15T06:43:28.000Z</time>
</trkpt>
<trkpt lat="45.7615580" lon="10.0181130">
	<ele>704.40</ele>
	<time>2023-04-15T06:43:29.000Z</time>
</trkpt>
<trkpt lat="45.7615580" lon="10.0180750">
	<ele>704.80</ele>
	<time>2023-04-15T06:43:33.000Z</time>
</trkpt>
<trkpt lat="45.7615670" lon="10.0180420">
	<ele>705.40</ele>
	<time>2023-04-15T06:43:35.000Z</time>
</trkpt>
<trkpt lat="45.7615650" lon="10.0179720">
	<ele>706.00</ele>
	<time>2023-04-15T06:43:39.000Z</time>
</trkpt>
<trkpt lat="45.7615540" lon="10.0179490">
	<ele>706.40</ele>
	<time>2023-04-15T06:43:42.000Z</time>
</trkpt>
<trkpt lat="45.7615670" lon="10.0178910">
	<ele>707.00</ele>
	<time>2023-04-15T06:43:45.000Z</time>
</trkpt>
<trkpt lat="45.7615750" lon="10.0178220">
	<ele>707.60</ele>
	<time>2023-04-15T06:43:49.000Z</time>
</trkpt>
<trkpt lat="45.7615800" lon="10.0177900">
	<ele>708.00</ele>
	<time>2023-04-15T06:43:52.000Z</time>
</trkpt>
<trkpt lat="45.7615580" lon="10.0177780">
	<ele>708.60</ele>
	<time>2023-04-15T06:43:56.000Z</time>
</trkpt>
<trkpt lat="45.7615730" lon="10.0177170">
	<ele>709.20</ele>
	<time>2023-04-15T06:43:59.000Z</time>
</trkpt>
<trkpt lat="45.7615870" lon="10.0176940">
	<ele>709.80</ele>
	<time>2023-04-15T06:44:03.000Z</time>
</trkpt>
<trkpt lat="45.7615950" lon="10.0176340">
	<ele>710.80</ele>
	<time>2023-04-15T06:44:08.000Z</time>
</trkpt>
<trkpt lat="45.7616100" lon="10.0175850">
	<ele>711.80</ele>
	<time>2023-04-15T06:44:13.000Z</time>
</trkpt>
<trkpt lat="45.7616340" lon="10.0175310">
	<ele>712.80</ele>
	<time>2023-04-15T06:44:17.000Z</time>
</trkpt>
<trkpt lat="45.7616370" lon="10.0175250">
	<ele>713.00</ele>
	<time>2023-04-15T06:44:18.000Z</time>
</trkpt>
<trkpt lat="45.7616560" lon="10.0174630">
	<ele>714.00</ele>
	<time>2023-04-15T06:44:24.000Z</time>
</trkpt>
<trkpt lat="45.7616620" lon="10.0174290">
	<ele>714.40</ele>
	<time>2023-04-15T06:44:26.000Z</time>
</trkpt>
<trkpt lat="45.7616810" lon="10.0173550">
	<ele>715.00</ele>
	<time>2023-04-15T06:44:29.000Z</time>
</trkpt>
<trkpt lat="45.7616780" lon="10.0173370">
	<ele>715.20</ele>
	<time>2023-04-15T06:44:30.000Z</time>
</trkpt>
<trkpt lat="45.7616840" lon="10.0172900">
	<ele>715.80</ele>
	<time>2023-04-15T06:44:33.000Z</time>
</trkpt>
<trkpt lat="45.7616960" lon="10.0172560">
	<ele>716.20</ele>
	<time>2023-04-15T06:44:35.000Z</time>
</trkpt>
<trkpt lat="45.7616940" lon="10.0172540">
	<ele>716.40</ele>
	<time>2023-04-15T06:44:36.000Z</time>
</trkpt>
<trkpt lat="45.7617030" lon="10.0172190">
	<ele>717.00</ele>
	<time>2023-04-15T06:44:39.000Z</time>
</trkpt>
<trkpt lat="45.7616980" lon="10.0172000">
	<ele>717.60</ele>
	<time>2023-04-15T06:44:41.000Z</time>
</trkpt>
<trkpt lat="45.7616960" lon="10.0171420">
	<ele>718.20</ele>
	<time>2023-04-15T06:44:46.000Z</time>
</trkpt>
<trkpt lat="45.7616960" lon="10.0171170">
	<ele>718.60</ele>
	<time>2023-04-15T06:44:48.000Z</time>
</trkpt>
<trkpt lat="45.7616950" lon="10.0171070">
	<ele>718.60</ele>
	<time>2023-04-15T06:44:49.000Z</time>
</trkpt>
<trkpt lat="45.7616890" lon="10.0171020">
	<ele>719.60</ele>
	<time>2023-04-15T06:44:53.000Z</time>
</trkpt>
<trkpt lat="45.7616900" lon="10.0170650">
	<ele>719.60</ele>
	<time>2023-04-15T06:44:59.000Z</time>
</trkpt>
<trkpt lat="45.7616930" lon="10.0170270">
	<ele>719.60</ele>
	<time>2023-04-15T06:45:02.000Z</time>
</trkpt>
<trkpt lat="45.7616980" lon="10.0169900">
	<ele>719.80</ele>
	<time>2023-04-15T06:45:06.000Z</time>
</trkpt>
<trkpt lat="45.7617000" lon="10.0169860">
	<ele>720.20</ele>
	<time>2023-04-15T06:45:08.000Z</time>
</trkpt>
<trkpt lat="45.7616990" lon="10.0169880">
	<ele>720.40</ele>
	<time>2023-04-15T06:45:12.000Z</time>
</trkpt>
<trkpt lat="45.7616870" lon="10.0170020">
	<ele>720.40</ele>
	<time>2023-04-15T06:45:18.000Z</time>
</trkpt>
<trkpt lat="45.7616900" lon="10.0169840">
	<ele>720.60</ele>
	<time>2023-04-15T06:45:25.000Z</time>
</trkpt>
<trkpt lat="45.7616940" lon="10.0170010">
	<ele>720.60</ele>
	<time>2023-04-15T06:45:32.000Z</time>
</trkpt>
<trkpt lat="45.7617080" lon="10.0170190">
	<ele>720.80</ele>
	<time>2023-04-15T06:45:35.000Z</time>
</trkpt>
<trkpt lat="45.7617140" lon="10.0170400">
	<ele>721.20</ele>
	<time>2023-04-15T06:45:40.000Z</time>
</trkpt>
<trkpt lat="45.7617230" lon="10.0170480">
	<ele>721.40</ele>
	<time>2023-04-15T06:45:44.000Z</time>
</trkpt>
<trkpt lat="45.7617230" lon="10.0170480">
	<ele>721.40</ele>
	<time>2023-04-15T06:45:47.000Z</time>
</trkpt>
<trkpt lat="45.7617230" lon="10.0170480">
	<ele>721.40</ele>
	<time>2023-04-15T06:45:50.000Z</time>
</trkpt>
<trkpt lat="45.7617230" lon="10.0170450">
	<ele>721.20</ele>
	<time>2023-04-15T06:45:53.000Z</time>
</trkpt>
<trkpt lat="45.7617530" lon="10.0170920">
	<ele>721.00</ele>
	<time>2023-04-15T06:45:57.000Z</time>
</trkpt>
<trkpt lat="45.7617800" lon="10.0171230">
	<ele>721.20</ele>
	<time>2023-04-15T06:46:00.000Z</time>
</trkpt>
<trkpt lat="45.7617940" lon="10.0171680">
	<ele>721.40</ele>
	<time>2023-04-15T06:46:03.000Z</time>
</trkpt>
<trkpt lat="45.7618030" lon="10.0171770">
	<ele>721.40</ele>
	<time>2023-04-15T06:46:04.000Z</time>
</trkpt>
<trkpt lat="45.7618210" lon="10.0172130">
	<ele>721.80</ele>
	<time>2023-04-15T06:46:07.000Z</time>
</trkpt>
<trkpt lat="45.7618330" lon="10.0172400">
	<ele>722.00</ele>
	<time>2023-04-15T06:46:09.000Z</time>
</trkpt>
<trkpt lat="45.7618640" lon="10.0173070">
	<ele>722.80</ele>
	<time>2023-04-15T06:46:15.000Z</time>
</trkpt>
<trkpt lat="45.7618690" lon="10.0173150">
	<ele>723.00</ele>
	<time>2023-04-15T06:46:16.000Z</time>
</trkpt>
<trkpt lat="45.7618710" lon="10.0173250">
	<ele>723.00</ele>
	<time>2023-04-15T06:46:17.000Z</time>
</trkpt>
<trkpt lat="45.7618950" lon="10.0173530">
	<ele>723.80</ele>
	<time>2023-04-15T06:46:22.000Z</time>
</trkpt>
<trkpt lat="45.7619380" lon="10.0173570">
	<ele>724.60</ele>
	<time>2023-04-15T06:46:26.000Z</time>
</trkpt>
<trkpt lat="45.7619390" lon="10.0173790">
	<ele>724.80</ele>
	<time>2023-04-15T06:46:27.000Z</time>
</trkpt>
<trkpt lat="45.7619330" lon="10.0174140">
	<ele>725.20</ele>
	<time>2023-04-15T06:46:29.000Z</time>
</trkpt>
<trkpt lat="45.7619560" lon="10.0174580">
	<ele>726.00</ele>
	<time>2023-04-15T06:46:34.000Z</time>
</trkpt>
<trkpt lat="45.7619640" lon="10.0174620">
	<ele>726.20</ele>
	<time>2023-04-15T06:46:35.000Z</time>
</trkpt>
<trkpt lat="45.7619900" lon="10.0174810">
	<ele>726.60</ele>
	<time>2023-04-15T06:46:38.000Z</time>
</trkpt>
<trkpt lat="45.7619770" lon="10.0175250">
	<ele>727.20</ele>
	<time>2023-04-15T06:46:40.000Z</time>
</trkpt>
<trkpt lat="45.7619930" lon="10.0175260">
	<ele>727.40</ele>
	<time>2023-04-15T06:46:41.000Z</time>
</trkpt>
<trkpt lat="45.7620400" lon="10.0175660">
	<ele>728.20</ele>
	<time>2023-04-15T06:46:45.000Z</time>
</trkpt>
<trkpt lat="45.7620530" lon="10.0175610">
	<ele>728.60</ele>
	<time>2023-04-15T06:46:46.000Z</time>
</trkpt>
<trkpt lat="45.7620290" lon="10.0176210">
	<ele>729.00</ele>
	<time>2023-04-15T06:46:49.000Z</time>
</trkpt>
<trkpt lat="45.7620110" lon="10.0176330">
	<ele>729.80</ele>
	<time>2023-04-15T06:46:52.000Z</time>
</trkpt>
<trkpt lat="45.7620190" lon="10.0176550">
	<ele>730.40</ele>
	<time>2023-04-15T06:46:55.000Z</time>
</trkpt>
<trkpt lat="45.7620290" lon="10.0176850">
	<ele>730.80</ele>
	<time>2023-04-15T06:46:57.000Z</time>
</trkpt>
<trkpt lat="45.7620350" lon="10.0177020">
	<ele>731.00</ele>
	<time>2023-04-15T06:46:58.000Z</time>
</trkpt>
<trkpt lat="45.7620440" lon="10.0177640">
	<ele>732.00</ele>
	<time>2023-04-15T06:47:03.000Z</time>
</trkpt>
<trkpt lat="45.7620460" lon="10.0177780">
	<ele>732.20</ele>
	<time>2023-04-15T06:47:04.000Z</time>
</trkpt>
<trkpt lat="45.7620680" lon="10.0178160">
	<ele>732.80</ele>
	<time>2023-04-15T06:47:10.000Z</time>
</trkpt>
<trkpt lat="45.7620740" lon="10.0178240">
	<ele>733.40</ele>
	<time>2023-04-15T06:47:11.000Z</time>
</trkpt>
<trkpt lat="45.7621020" lon="10.0178280">
	<ele>734.40</ele>
	<time>2023-04-15T06:47:15.000Z</time>
</trkpt>
<trkpt lat="45.7621080" lon="10.0178350">
	<ele>734.40</ele>
	<time>2023-04-15T06:47:16.000Z</time>
</trkpt>
<trkpt lat="45.7621180" lon="10.0178970">
	<ele>735.00</ele>
	<time>2023-04-15T06:47:21.000Z</time>
</trkpt>
<trkpt lat="45.7621330" lon="10.0179060">
	<ele>735.20</ele>
	<time>2023-04-15T06:47:24.000Z</time>
</trkpt>
<trkpt lat="45.7621470" lon="10.0179240">
	<ele>735.60</ele>
	<time>2023-04-15T06:47:27.000Z</time>
</trkpt>
<trkpt lat="45.7621560" lon="10.0179360">
	<ele>736.00</ele>
	<time>2023-04-15T06:47:31.000Z</time>
</trkpt>
<trkpt lat="45.7621610" lon="10.0179430">
	<ele>736.20</ele>
	<time>2023-04-15T06:47:32.000Z</time>
</trkpt>
<trkpt lat="45.7621690" lon="10.0179610">
	<ele>736.20</ele>
	<time>2023-04-15T06:47:34.000Z</time>
</trkpt>
<trkpt lat="45.7621840" lon="10.0179860">
	<ele>736.60</ele>
	<time>2023-04-15T06:47:36.000Z</time>
</trkpt>
<trkpt lat="45.7621870" lon="10.0180000">
	<ele>736.80</ele>
	<time>2023-04-15T06:47:37.000Z</time>
</trkpt>
<trkpt lat="45.7621860" lon="10.0180210">
	<ele>737.20</ele>
	<time>2023-04-15T06:47:39.000Z</time>
</trkpt>
<trkpt lat="45.7622060" lon="10.0180610">
	<ele>737.80</ele>
	<time>2023-04-15T06:47:43.000Z</time>
</trkpt>
<trkpt lat="45.7622180" lon="10.0180880">
	<ele>738.20</ele>
	<time>2023-04-15T06:47:46.000Z</time>
</trkpt>
<trkpt lat="45.7622710" lon="10.0181360">
	<ele>738.60</ele>
	<time>2023-04-15T06:47:54.000Z</time>
</trkpt>
<trkpt lat="45.7622790" lon="10.0181160">
	<ele>738.80</ele>
	<time>2023-04-15T06:47:56.000Z</time>
</trkpt>
<trkpt lat="45.7622760" lon="10.0180770">
	<ele>739.60</ele>
	<time>2023-04-15T06:48:01.000Z</time>
</trkpt>
<trkpt lat="45.7622750" lon="10.0180730">
	<ele>740.00</ele>
	<time>2023-04-15T06:48:02.000Z</time>
</trkpt>
<trkpt lat="45.7622790" lon="10.0180220">
	<ele>741.00</ele>
	<time>2023-04-15T06:48:08.000Z</time>
</trkpt>
<trkpt lat="45.7622700" lon="10.0179630">
	<ele>741.80</ele>
	<time>2023-04-15T06:48:13.000Z</time>
</trkpt>
<trkpt lat="45.7622610" lon="10.0179590">
	<ele>742.20</ele>
	<time>2023-04-15T06:48:15.000Z</time>
</trkpt>
<trkpt lat="45.7622630" lon="10.0179510">
	<ele>742.60</ele>
	<time>2023-04-15T06:48:17.000Z</time>
</trkpt>
<trkpt lat="45.7622870" lon="10.0179160">
	<ele>743.40</ele>
	<time>2023-04-15T06:48:20.000Z</time>
</trkpt>
<trkpt lat="45.7622830" lon="10.0178780">
	<ele>744.00</ele>
	<time>2023-04-15T06:48:24.000Z</time>
</trkpt>
<trkpt lat="45.7622610" lon="10.0178620">
	<ele>744.40</ele>
	<time>2023-04-15T06:48:26.000Z</time>
</trkpt>
<trkpt lat="45.7622700" lon="10.0177820">
	<ele>745.40</ele>
	<time>2023-04-15T06:48:32.000Z</time>
</trkpt>
<trkpt lat="45.7622730" lon="10.0177690">
	<ele>745.60</ele>
	<time>2023-04-15T06:48:33.000Z</time>
</trkpt>
<trkpt lat="45.7622770" lon="10.0176930">
	<ele>746.80</ele>
	<time>2023-04-15T06:48:41.000Z</time>
</trkpt>
<trkpt lat="45.7622780" lon="10.0176810">
	<ele>747.00</ele>
	<time>2023-04-15T06:48:42.000Z</time>
</trkpt>
<trkpt lat="45.7622810" lon="10.0176370">
	<ele>748.00</ele>
	<time>2023-04-15T06:48:46.000Z</time>
</trkpt>
<trkpt lat="45.7622860" lon="10.0175730">
	<ele>749.00</ele>
	<time>2023-04-15T06:48:52.000Z</time>
</trkpt>
<trkpt lat="45.7622890" lon="10.0175610">
	<ele>749.20</ele>
	<time>2023-04-15T06:48:53.000Z</time>
</trkpt>
<trkpt lat="45.7623020" lon="10.0175190">
	<ele>750.20</ele>
	<time>2023-04-15T06:48:58.000Z</time>
</trkpt>
<trkpt lat="45.7623080" lon="10.0175190">
	<ele>750.40</ele>
	<time>2023-04-15T06:49:00.000Z</time>
</trkpt>
<trkpt lat="45.7623310" lon="10.0175210">
	<ele>751.40</ele>
	<time>2023-04-15T06:49:03.000Z</time>
</trkpt>
<trkpt lat="45.7623590" lon="10.0175190">
	<ele>752.20</ele>
	<time>2023-04-15T06:49:08.000Z</time>
</trkpt>
<trkpt lat="45.7623650" lon="10.0175060">
	<ele>752.20</ele>
	<time>2023-04-15T06:49:13.000Z</time>
</trkpt>
<trkpt lat="45.7623610" lon="10.0175070">
	<ele>752.20</ele>
	<time>2023-04-15T06:49:21.000Z</time>
</trkpt>
<trkpt lat="45.7623610" lon="10.0175070">
	<ele>752.40</ele>
	<time>2023-04-15T06:49:29.000Z</time>
</trkpt>
<trkpt lat="45.7623630" lon="10.0175040">
	<ele>753.00</ele>
	<time>2023-04-15T06:49:37.000Z</time>
</trkpt>
<trkpt lat="45.7623640" lon="10.0175030">
	<ele>752.80</ele>
	<time>2023-04-15T06:49:39.000Z</time>
</trkpt>
<trkpt lat="45.7623640" lon="10.0175030">
	<ele>752.40</ele>
	<time>2023-04-15T06:49:43.000Z</time>
</trkpt>
<trkpt lat="45.7623670" lon="10.0175030">
	<ele>752.00</ele>
	<time>2023-04-15T06:49:48.000Z</time>
</trkpt>
<trkpt lat="45.7623670" lon="10.0174990">
	<ele>752.00</ele>
	<time>2023-04-15T06:49:56.000Z</time>
</trkpt>
<trkpt lat="45.7623670" lon="10.0174990">
	<ele>752.00</ele>
	<time>2023-04-15T06:49:59.000Z</time>
</trkpt>
<trkpt lat="45.7623670" lon="10.0174990">
	<ele>752.00</ele>
	<time>2023-04-15T06:50:01.000Z</time>
</trkpt>
<trkpt lat="45.7623670" lon="10.0175000">
	<ele>752.20</ele>
	<time>2023-04-15T06:50:05.000Z</time>
</trkpt>
<trkpt lat="45.7623670" lon="10.0175000">
	<ele>752.20</ele>
	<time>2023-04-15T06:50:11.000Z</time>
</trkpt>
<trkpt lat="45.7623680" lon="10.0174990">
	<ele>752.20</ele>
	<time>2023-04-15T06:50:17.000Z</time>
</trkpt>
<trkpt lat="45.7623680" lon="10.0174980">
	<ele>752.20</ele>
	<time>2023-04-15T06:50:20.000Z</time>
</trkpt>
<trkpt lat="45.7623700" lon="10.0174980">
	<ele>752.40</ele>
	<time>2023-04-15T06:50:26.000Z</time>
</trkpt>
<trkpt lat="45.7623750" lon="10.0174980">
	<ele>752.40</ele>
	<time>2023-04-15T06:50:44.000Z</time>
</trkpt>
<trkpt lat="45.7624310" lon="10.0175510">
	<ele>752.40</ele>
	<time>2023-04-15T06:50:50.000Z</time>
</trkpt>
<trkpt lat="45.7625140" lon="10.0175920">
	<ele>752.40</ele>
	<time>2023-04-15T06:50:57.000Z</time>
</trkpt>
<trkpt lat="45.7625420" lon="10.0175980">
	<ele>752.40</ele>
	<time>2023-04-15T06:50:59.000Z</time>
</trkpt>
<trkpt lat="45.7625570" lon="10.0176050">
	<ele>752.40</ele>
	<time>2023-04-15T06:51:01.000Z</time>
</trkpt>
<trkpt lat="45.7625690" lon="10.0176190">
	<ele>752.40</ele>
	<time>2023-04-15T06:51:03.000Z</time>
</trkpt>
<trkpt lat="45.7625800" lon="10.0176450">
	<ele>752.40</ele>
	<time>2023-04-15T06:51:05.000Z</time>
</trkpt>
<trkpt lat="45.7625910" lon="10.0177040">
	<ele>752.40</ele>
	<time>2023-04-15T06:51:11.000Z</time>
</trkpt>
<trkpt lat="45.7626080" lon="10.0177290">
	<ele>752.40</ele>
	<time>2023-04-15T06:51:14.000Z</time>
</trkpt>
<trkpt lat="45.7626290" lon="10.0177620">
	<ele>752.40</ele>
	<time>2023-04-15T06:51:18.000Z</time>
</trkpt>
<trkpt lat="45.7626670" lon="10.0177990">
	<ele>752.40</ele>
	<time>2023-04-15T06:51:23.000Z</time>
</trkpt>
<trkpt lat="45.7626800" lon="10.0178550">
	<ele>752.40</ele>
	<time>2023-04-15T06:51:27.000Z</time>
</trkpt>
<trkpt lat="45.7626850" lon="10.0178600">
	<ele>763.60</ele>
	<time>2023-04-15T06:51:28.000Z</time>
</trkpt>
<trkpt lat="45.7627000" lon="10.0178750">
	<ele>764.00</ele>
	<time>2023-04-15T06:51:34.000Z</time>
</trkpt>
<trkpt lat="45.7627220" lon="10.0178930">
	<ele>764.00</ele>
	<time>2023-04-15T06:51:42.000Z</time>
</trkpt>
<trkpt lat="45.7627390" lon="10.0179290">
	<ele>764.60</ele>
	<time>2023-04-15T06:51:47.000Z</time>
</trkpt>
<trkpt lat="45.7627400" lon="10.0179510">
	<ele>765.00</ele>
	<time>2023-04-15T06:51:49.000Z</time>
</trkpt>
<trkpt lat="45.7627560" lon="10.0180020">
	<ele>765.80</ele>
	<time>2023-04-15T06:51:53.000Z</time>
</trkpt>
<trkpt lat="45.7627680" lon="10.0180270">
	<ele>766.20</ele>
	<time>2023-04-15T06:51:55.000Z</time>
</trkpt>
<trkpt lat="45.7627750" lon="10.0180420">
	<ele>766.40</ele>
	<time>2023-04-15T06:51:56.000Z</time>
</trkpt>
<trkpt lat="45.7627920" lon="10.0180630">
	<ele>767.00</ele>
	<time>2023-04-15T06:51:58.000Z</time>
</trkpt>
<trkpt lat="45.7628240" lon="10.0181310">
	<ele>767.60</ele>
	<time>2023-04-15T06:52:03.000Z</time>
</trkpt>
<trkpt lat="45.7628640" lon="10.0182020">
	<ele>768.00</ele>
	<time>2023-04-15T06:52:09.000Z</time>
</trkpt>
<trkpt lat="45.7628710" lon="10.0182150">
	<ele>768.00</ele>
	<time>2023-04-15T06:52:10.000Z</time>
</trkpt>
<trkpt lat="45.7628800" lon="10.0182300">
	<ele>768.20</ele>
	<time>2023-04-15T06:52:11.000Z</time>
</trkpt>
<trkpt lat="45.7629220" lon="10.0182950">
	<ele>769.00</ele>
	<time>2023-04-15T06:52:16.000Z</time>
</trkpt>
<trkpt lat="45.7629720" lon="10.0183440">
	<ele>769.40</ele>
	<time>2023-04-15T06:52:21.000Z</time>
</trkpt>
<trkpt lat="45.7630080" lon="10.0183920">
	<ele>769.40</ele>
	<time>2023-04-15T06:52:26.000Z</time>
</trkpt>
<trkpt lat="45.7630350" lon="10.0184090">
	<ele>769.80</ele>
	<time>2023-04-15T06:52:28.000Z</time>
</trkpt>
<trkpt lat="45.7630300" lon="10.0184360">
	<ele>770.00</ele>
	<time>2023-04-15T06:52:29.000Z</time>
</trkpt>
<trkpt lat="45.7630240" lon="10.0184810">
	<ele>770.20</ele>
	<time>2023-04-15T06:52:31.000Z</time>
</trkpt>
<trkpt lat="45.7630480" lon="10.0185540">
	<ele>770.80</ele>
	<time>2023-04-15T06:52:35.000Z</time>
</trkpt>
<trkpt lat="45.7630840" lon="10.0185930">
	<ele>771.20</ele>
	<time>2023-04-15T06:52:39.000Z</time>
</trkpt>
<trkpt lat="45.7631250" lon="10.0187110">
	<ele>771.80</ele>
	<time>2023-04-15T06:52:47.000Z</time>
</trkpt>
<trkpt lat="45.7631620" lon="10.0187870">
	<ele>772.20</ele>
	<time>2023-04-15T06:52:53.000Z</time>
</trkpt>
<trkpt lat="45.7631680" lon="10.0188130">
	<ele>772.60</ele>
	<time>2023-04-15T06:52:55.000Z</time>
</trkpt>
<trkpt lat="45.7631970" lon="10.0188860">
	<ele>773.20</ele>
	<time>2023-04-15T06:53:02.000Z</time>
</trkpt>
<trkpt lat="45.7632020" lon="10.0188970">
	<ele>773.20</ele>
	<time>2023-04-15T06:53:03.000Z</time>
</trkpt>
<trkpt lat="45.7632380" lon="10.0189270">
	<ele>773.60</ele>
	<time>2023-04-15T06:53:09.000Z</time>
</trkpt>
<trkpt lat="45.7632560" lon="10.0189240">
	<ele>773.80</ele>
	<time>2023-04-15T06:53:11.000Z</time>
</trkpt>
<trkpt lat="45.7632850" lon="10.0189340">
	<ele>774.40</ele>
	<time>2023-04-15T06:53:14.000Z</time>
</trkpt>
<trkpt lat="45.7632950" lon="10.0189400">
	<ele>774.40</ele>
	<time>2023-04-15T06:53:15.000Z</time>
</trkpt>
<trkpt lat="45.7633060" lon="10.0189370">
	<ele>774.60</ele>
	<time>2023-04-15T06:53:16.000Z</time>
</trkpt>
<trkpt lat="45.7633510" lon="10.0189510">
	<ele>775.40</ele>
	<time>2023-04-15T06:53:21.000Z</time>
</trkpt>
<trkpt lat="45.7633630" lon="10.0189570">
	<ele>775.80</ele>
	<time>2023-04-15T06:53:22.000Z</time>
</trkpt>
<trkpt lat="45.7633790" lon="10.0189730">
	<ele>776.20</ele>
	<time>2023-04-15T06:53:24.000Z</time>
</trkpt>
<trkpt lat="45.7633880" lon="10.0189750">
	<ele>776.60</ele>
	<time>2023-04-15T06:53:25.000Z</time>
</trkpt>
<trkpt lat="45.7634390" lon="10.0190050">
	<ele>777.80</ele>
	<time>2023-04-15T06:53:32.000Z</time>
</trkpt>
<trkpt lat="45.7635270" lon="10.0190490">
	<ele>779.00</ele>
	<time>2023-04-15T06:53:40.000Z</time>
</trkpt>
<trkpt lat="45.7635450" lon="10.0190770">
	<ele>779.40</ele>
	<time>2023-04-15T06:53:43.000Z</time>
</trkpt>
<trkpt lat="45.7635620" lon="10.0191120">
	<ele>780.00</ele>
	<time>2023-04-15T06:53:46.000Z</time>
</trkpt>
<trkpt lat="45.7635740" lon="10.0191560">
	<ele>780.80</ele>
	<time>2023-04-15T06:53:51.000Z</time>
</trkpt>
<trkpt lat="45.7635790" lon="10.0191580">
	<ele>781.00</ele>
	<time>2023-04-15T06:53:52.000Z</time>
</trkpt>
<trkpt lat="45.7635760" lon="10.0191900">
	<ele>781.40</ele>
	<time>2023-04-15T06:53:57.000Z</time>
</trkpt>
<trkpt lat="45.7636070" lon="10.0192210">
	<ele>781.60</ele>
	<time>2023-04-15T06:54:00.000Z</time>
</trkpt>
<trkpt lat="45.7636360" lon="10.0192640">
	<ele>782.00</ele>
	<time>2023-04-15T06:54:03.000Z</time>
</trkpt>
<trkpt lat="45.7636400" lon="10.0192700">
	<ele>782.20</ele>
	<time>2023-04-15T06:54:04.000Z</time>
</trkpt>
<trkpt lat="45.7636510" lon="10.0192720">
	<ele>782.20</ele>
	<time>2023-04-15T06:54:05.000Z</time>
</trkpt>
<trkpt lat="45.7637250" lon="10.0192920">
	<ele>782.80</ele>
	<time>2023-04-15T06:54:08.000Z</time>
</trkpt>
<trkpt lat="45.7637560" lon="10.0193380">
	<ele>783.00</ele>
	<time>2023-04-15T06:54:11.000Z</time>
</trkpt>
<trkpt lat="45.7637770" lon="10.0193460">
	<ele>783.40</ele>
	<time>2023-04-15T06:54:14.000Z</time>
</trkpt>
<trkpt lat="45.7637980" lon="10.0193620">
	<ele>783.60</ele>
	<time>2023-04-15T06:54:16.000Z</time>
</trkpt>
<trkpt lat="45.7638370" lon="10.0194070">
	<ele>783.80</ele>
	<time>2023-04-15T06:54:22.000Z</time>
</trkpt>
<trkpt lat="45.7639100" lon="10.0194580">
	<ele>784.40</ele>
	<time>2023-04-15T06:54:27.000Z</time>
</trkpt>
<trkpt lat="45.7639440" lon="10.0195070">
	<ele>784.60</ele>
	<time>2023-04-15T06:54:30.000Z</time>
</trkpt>
<trkpt lat="45.7639610" lon="10.0195000">
	<ele>784.60</ele>
	<time>2023-04-15T06:54:31.000Z</time>
</trkpt>
<trkpt lat="45.7640470" lon="10.0194740">
	<ele>785.00</ele>
	<time>2023-04-15T06:54:35.000Z</time>
</trkpt>
<trkpt lat="45.7640660" lon="10.0194840">
	<ele>785.40</ele>
	<time>2023-04-15T06:54:37.000Z</time>
</trkpt>
<trkpt lat="45.7641010" lon="10.0195160">
	<ele>786.00</ele>
	<time>2023-04-15T06:54:42.000Z</time>
</trkpt>
<trkpt lat="45.7641030" lon="10.0195630">
	<ele>786.60</ele>
	<time>2023-04-15T06:54:45.000Z</time>
</trkpt>
<trkpt lat="45.7641310" lon="10.0195990">
	<ele>787.20</ele>
	<time>2023-04-15T06:54:48.000Z</time>
</trkpt>
<trkpt lat="45.7641390" lon="10.0196390">
	<ele>787.60</ele>
	<time>2023-04-15T06:54:50.000Z</time>
</trkpt>
<trkpt lat="45.7641280" lon="10.0196530">
	<ele>787.60</ele>
	<time>2023-04-15T06:54:51.000Z</time>
</trkpt>
<trkpt lat="45.7641430" lon="10.0196630">
	<ele>787.80</ele>
	<time>2023-04-15T06:54:54.000Z</time>
</trkpt>
<trkpt lat="45.7641590" lon="10.0196530">
	<ele>788.00</ele>
	<time>2023-04-15T06:54:55.000Z</time>
</trkpt>
<trkpt lat="45.7641910" lon="10.0196700">
	<ele>788.60</ele>
	<time>2023-04-15T06:54:59.000Z</time>
</trkpt>
<trkpt lat="45.7642200" lon="10.0196740">
	<ele>789.20</ele>
	<time>2023-04-15T06:55:02.000Z</time>
</trkpt>
<trkpt lat="45.7642370" lon="10.0196660">
	<ele>789.60</ele>
	<time>2023-04-15T06:55:04.000Z</time>
</trkpt>
<trkpt lat="45.7642380" lon="10.0196690">
	<ele>789.80</ele>
	<time>2023-04-15T06:55:05.000Z</time>
</trkpt>
<trkpt lat="45.7642430" lon="10.0196850">
	<ele>790.00</ele>
	<time>2023-04-15T06:55:06.000Z</time>
</trkpt>
<trkpt lat="45.7642490" lon="10.0196910">
	<ele>790.60</ele>
	<time>2023-04-15T06:55:09.000Z</time>
</trkpt>
<trkpt lat="45.7642490" lon="10.0196910">
	<ele>790.60</ele>
	<time>2023-04-15T06:55:14.000Z</time>
</trkpt>
<trkpt lat="45.7642800" lon="10.0196800">
	<ele>790.80</ele>
	<time>2023-04-15T06:55:20.000Z</time>
</trkpt>
<trkpt lat="45.7642900" lon="10.0196730">
	<ele>791.00</ele>
	<time>2023-04-15T06:55:22.000Z</time>
</trkpt>
<trkpt lat="45.7643250" lon="10.0196320">
	<ele>791.20</ele>
	<time>2023-04-15T06:55:26.000Z</time>
</trkpt>
<trkpt lat="45.7643460" lon="10.0196320">
	<ele>791.40</ele>
	<time>2023-04-15T06:55:29.000Z</time>
</trkpt>
<trkpt lat="45.7643760" lon="10.0196040">
	<ele>791.60</ele>
	<time>2023-04-15T06:55:33.000Z</time>
</trkpt>
<trkpt lat="45.7643860" lon="10.0195990">
	<ele>791.80</ele>
	<time>2023-04-15T06:55:34.000Z</time>
</trkpt>
<trkpt lat="45.7643990" lon="10.0195920">
	<ele>792.00</ele>
	<time>2023-04-15T06:55:35.000Z</time>
</trkpt>
<trkpt lat="45.7644340" lon="10.0195720">
	<ele>792.20</ele>
	<time>2023-04-15T06:55:39.000Z</time>
</trkpt>
<trkpt lat="45.7644630" lon="10.0195700">
	<ele>792.40</ele>
	<time>2023-04-15T06:55:42.000Z</time>
</trkpt>
<trkpt lat="45.7644900" lon="10.0195720">
	<ele>793.00</ele>
	<time>2023-04-15T06:55:45.000Z</time>
</trkpt>
<trkpt lat="45.7645230" lon="10.0195680">
	<ele>793.40</ele>
	<time>2023-04-15T06:55:48.000Z</time>
</trkpt>
<trkpt lat="45.7645620" lon="10.0195680">
	<ele>794.00</ele>
	<time>2023-04-15T06:55:53.000Z</time>
</trkpt>
<trkpt lat="45.7645710" lon="10.0195690">
	<ele>794.20</ele>
	<time>2023-04-15T06:55:54.000Z</time>
</trkpt>
<trkpt lat="45.7645930" lon="10.0195530">
	<ele>794.60</ele>
	<time>2023-04-15T06:55:56.000Z</time>
</trkpt>
<trkpt lat="45.7645930" lon="10.0195580">
	<ele>794.80</ele>
	<time>2023-04-15T06:55:57.000Z</time>
</trkpt>
<trkpt lat="45.7646100" lon="10.0195420">
	<ele>795.00</ele>
	<time>2023-04-15T06:55:59.000Z</time>
</trkpt>
<trkpt lat="45.7646280" lon="10.0195290">
	<ele>795.20</ele>
	<time>2023-04-15T06:56:00.000Z</time>
</trkpt>
<trkpt lat="45.7646630" lon="10.0195360">
	<ele>796.20</ele>
	<time>2023-04-15T06:56:03.000Z</time>
</trkpt>
<trkpt lat="45.7646840" lon="10.0195190">
	<ele>796.60</ele>
	<time>2023-04-15T06:56:07.000Z</time>
</trkpt>
<trkpt lat="45.7646850" lon="10.0195190">
	<ele>796.80</ele>
	<time>2023-04-15T06:56:08.000Z</time>
</trkpt>
<trkpt lat="45.7646930" lon="10.0195210">
	<ele>797.40</ele>
	<time>2023-04-15T06:56:10.000Z</time>
</trkpt>
<trkpt lat="45.7646960" lon="10.0195150">
	<ele>797.40</ele>
	<time>2023-04-15T06:56:11.000Z</time>
</trkpt>
<trkpt lat="45.7647060" lon="10.0194980">
	<ele>798.00</ele>
	<time>2023-04-15T06:56:13.000Z</time>
</trkpt>
<trkpt lat="45.7647090" lon="10.0194970">
	<ele>798.20</ele>
	<time>2023-04-15T06:56:14.000Z</time>
</trkpt>
<trkpt lat="45.7647110" lon="10.0194950">
	<ele>798.40</ele>
	<time>2023-04-15T06:56:15.000Z</time>
</trkpt>
<trkpt lat="45.7647140" lon="10.0194920">
	<ele>798.60</ele>
	<time>2023-04-15T06:56:16.000Z</time>
</trkpt>
<trkpt lat="45.7647290" lon="10.0194860">
	<ele>799.00</ele>
	<time>2023-04-15T06:56:18.000Z</time>
</trkpt>
<trkpt lat="45.7647430" lon="10.0194830">
	<ele>799.40</ele>
	<time>2023-04-15T06:56:21.000Z</time>
</trkpt>
<trkpt lat="45.7647570" lon="10.0194670">
	<ele>799.80</ele>
	<time>2023-04-15T06:56:23.000Z</time>
</trkpt>
<trkpt lat="45.7647940" lon="10.0194520">
	<ele>800.60</ele>
	<time>2023-04-15T06:56:28.000Z</time>
</trkpt>
<trkpt lat="45.7648070" lon="10.0194400">
	<ele>800.80</ele>
	<time>2023-04-15T06:56:29.000Z</time>
</trkpt>
<trkpt lat="45.7649010" lon="10.0194440">
	<ele>801.80</ele>
	<time>2023-04-15T06:56:35.000Z</time>
</trkpt>
<trkpt lat="45.7649180" lon="10.0194280">
	<ele>802.40</ele>
	<time>2023-04-15T06:56:38.000Z</time>
</trkpt>
<trkpt lat="45.7649350" lon="10.0194320">
	<ele>802.80</ele>
	<time>2023-04-15T06:56:41.000Z</time>
</trkpt>
<trkpt lat="45.7649650" lon="10.0194150">
	<ele>803.20</ele>
	<time>2023-04-15T06:56:44.000Z</time>
</trkpt>
<trkpt lat="45.7649900" lon="10.0194040">
	<ele>803.80</ele>
	<time>2023-04-15T06:56:49.000Z</time>
</trkpt>
<trkpt lat="45.7650060" lon="10.0194300">
	<ele>804.60</ele>
	<time>2023-04-15T06:56:52.000Z</time>
</trkpt>
<trkpt lat="45.7650160" lon="10.0194310">
	<ele>805.00</ele>
	<time>2023-04-15T06:56:54.000Z</time>
</trkpt>
<trkpt lat="45.7650300" lon="10.0194150">
	<ele>805.60</ele>
	<time>2023-04-15T06:56:57.000Z</time>
</trkpt>
<trkpt lat="45.7650450" lon="10.0194270">
	<ele>806.20</ele>
	<time>2023-04-15T06:57:01.000Z</time>
</trkpt>
<trkpt lat="45.7650630" lon="10.0194150">
	<ele>806.60</ele>
	<time>2023-04-15T06:57:03.000Z</time>
</trkpt>
<trkpt lat="45.7650840" lon="10.0194020">
	<ele>807.40</ele>
	<time>2023-04-15T06:57:07.000Z</time>
</trkpt>
<trkpt lat="45.7650960" lon="10.0194020">
	<ele>807.60</ele>
	<time>2023-04-15T06:57:09.000Z</time>
</trkpt>
<trkpt lat="45.7651480" lon="10.0193820">
	<ele>808.40</ele>
	<time>2023-04-15T06:57:14.000Z</time>
</trkpt>
<trkpt lat="45.7651980" lon="10.0193560">
	<ele>808.80</ele>
	<time>2023-04-15T06:57:19.000Z</time>
</trkpt>
<trkpt lat="45.7652360" lon="10.0193640">
	<ele>809.60</ele>
	<time>2023-04-15T06:57:23.000Z</time>
</trkpt>
<trkpt lat="45.7652480" lon="10.0193730">
	<ele>810.00</ele>
	<time>2023-04-15T06:57:26.000Z</time>
</trkpt>
<trkpt lat="45.7652520" lon="10.0193750">
	<ele>810.80</ele>
	<time>2023-04-15T06:57:29.000Z</time>
</trkpt>
<trkpt lat="45.7652970" lon="10.0193720">
	<ele>811.80</ele>
	<time>2023-04-15T06:57:34.000Z</time>
</trkpt>
<trkpt lat="45.7653010" lon="10.0193730">
	<ele>812.00</ele>
	<time>2023-04-15T06:57:35.000Z</time>
</trkpt>
<trkpt lat="45.7653190" lon="10.0193870">
	<ele>812.80</ele>
	<time>2023-04-15T06:57:41.000Z</time>
</trkpt>
<trkpt lat="45.7653310" lon="10.0193830">
	<ele>813.00</ele>
	<time>2023-04-15T06:57:42.000Z</time>
</trkpt>
<trkpt lat="45.7653830" lon="10.0193730">
	<ele>814.00</ele>
	<time>2023-04-15T06:57:48.000Z</time>
</trkpt>
<trkpt lat="45.7654510" lon="10.0193780">
	<ele>815.20</ele>
	<time>2023-04-15T06:57:54.000Z</time>
</trkpt>
<trkpt lat="45.7654610" lon="10.0193910">
	<ele>815.40</ele>
	<time>2023-04-15T06:57:55.000Z</time>
</trkpt>
<trkpt lat="45.7654860" lon="10.0194320">
	<ele>816.20</ele>
	<time>2023-04-15T06:58:00.000Z</time>
</trkpt>
<trkpt lat="45.7655240" lon="10.0194220">
	<ele>816.80</ele>
	<time>2023-04-15T06:58:03.000Z</time>
</trkpt>
<trkpt lat="45.7655790" lon="10.0193680">
	<ele>817.40</ele>
	<time>2023-04-15T06:58:06.000Z</time>
</trkpt>
<trkpt lat="45.7656020" lon="10.0193800">
	<ele>817.80</ele>
	<time>2023-04-15T06:58:09.000Z</time>
</trkpt>
<trkpt lat="45.7656350" lon="10.0193670">
	<ele>818.60</ele>
	<time>2023-04-15T06:58:13.000Z</time>
</trkpt>
<trkpt lat="45.7656410" lon="10.0193760">
	<ele>818.60</ele>
	<time>2023-04-15T06:58:14.000Z</time>
</trkpt>
<trkpt lat="45.7656810" lon="10.0193750">
	<ele>819.80</ele>
	<time>2023-04-15T06:58:20.000Z</time>
</trkpt>
<trkpt lat="45.7657220" lon="10.0193460">
	<ele>820.80</ele>
	<time>2023-04-15T06:58:24.000Z</time>
</trkpt>
<trkpt lat="45.7657600" lon="10.0193120">
	<ele>821.40</ele>
	<time>2023-04-15T06:58:27.000Z</time>
</trkpt>
<trkpt lat="45.7657770" lon="10.0193000">
	<ele>822.00</ele>
	<time>2023-04-15T06:58:30.000Z</time>
</trkpt>
<trkpt lat="45.7658020" lon="10.0192970">
	<ele>822.60</ele>
	<time>2023-04-15T06:58:33.000Z</time>
</trkpt>
<trkpt lat="45.7658200" lon="10.0192770">
	<ele>823.00</ele>
	<time>2023-04-15T06:58:35.000Z</time>
</trkpt>
<trkpt lat="45.7658490" lon="10.0192860">
	<ele>823.80</ele>
	<time>2023-04-15T06:58:39.000Z</time>
</trkpt>
<trkpt lat="45.7658590" lon="10.0192870">
	<ele>824.00</ele>
	<time>2023-04-15T06:58:41.000Z</time>
</trkpt>
<trkpt lat="45.7658680" lon="10.0192910">
	<ele>824.60</ele>
	<time>2023-04-15T06:58:46.000Z</time>
</trkpt>
<trkpt lat="45.7658960" lon="10.0192820">
	<ele>824.80</ele>
	<time>2023-04-15T06:58:56.000Z</time>
</trkpt>
<trkpt lat="45.7658940" lon="10.0192870">
	<ele>825.00</ele>
	<time>2023-04-15T06:58:59.000Z</time>
</trkpt>
<trkpt lat="45.7658920" lon="10.0192920">
	<ele>825.20</ele>
	<time>2023-04-15T06:59:01.000Z</time>
</trkpt>
<trkpt lat="45.7658880" lon="10.0192950">
	<ele>825.40</ele>
	<time>2023-04-15T06:59:08.000Z</time>
</trkpt>
<trkpt lat="45.7658880" lon="10.0192950">
	<ele>825.40</ele>
	<time>2023-04-15T06:59:09.000Z</time>
</trkpt>
<trkpt lat="45.7658880" lon="10.0192950">
	<ele>824.80</ele>
	<time>2023-04-15T06:59:12.000Z</time>
</trkpt>
<trkpt lat="45.7658890" lon="10.0192930">
	<ele>825.00</ele>
	<time>2023-04-15T06:59:22.000Z</time>
</trkpt>
<trkpt lat="45.7658870" lon="10.0192830">
	<ele>826.00</ele>
	<time>2023-04-15T06:59:37.000Z</time>
</trkpt>
<trkpt lat="45.7658740" lon="10.0192720">
	<ele>826.20</ele>
	<time>2023-04-15T06:59:39.000Z</time>
</trkpt>
<trkpt lat="45.7658670" lon="10.0192610">
	<ele>826.20</ele>
	<time>2023-04-15T06:59:41.000Z</time>
</trkpt>
<trkpt lat="45.7658430" lon="10.0192390">
	<ele>826.40</ele>
	<time>2023-04-15T06:59:46.000Z</time>
</trkpt>
<trkpt lat="45.7658540" lon="10.0192210">
	<ele>826.60</ele>
	<time>2023-04-15T06:59:48.000Z</time>
</trkpt>
<trkpt lat="45.7658680" lon="10.0192410">
	<ele>826.60</ele>
	<time>2023-04-15T06:59:51.000Z</time>
</trkpt>
<trkpt lat="45.7658720" lon="10.0192390">
	<ele>826.60</ele>
	<time>2023-04-15T06:59:58.000Z</time>
</trkpt>
<trkpt lat="45.7658560" lon="10.0192580">
	<ele>826.40</ele>
	<time>2023-04-15T07:00:04.000Z</time>
</trkpt>
<trkpt lat="45.7658400" lon="10.0192750">
	<ele>826.20</ele>
	<time>2023-04-15T07:00:10.000Z</time>
</trkpt>
<trkpt lat="45.7658160" lon="10.0192780">
	<ele>826.40</ele>
	<time>2023-04-15T07:00:16.000Z</time>
</trkpt>
<trkpt lat="45.7658200" lon="10.0192770">
	<ele>826.80</ele>
	<time>2023-04-15T07:00:31.000Z</time>
</trkpt>
<trkpt lat="45.7658280" lon="10.0192760">
	<ele>826.60</ele>
	<time>2023-04-15T07:00:35.000Z</time>
</trkpt>
<trkpt lat="45.7658300" lon="10.0192760">
	<ele>826.60</ele>
	<time>2023-04-15T07:00:37.000Z</time>
</trkpt>
<trkpt lat="45.7658300" lon="10.0192760">
	<ele>827.20</ele>
	<time>2023-04-15T07:00:40.000Z</time>
</trkpt>
<trkpt lat="45.7658310" lon="10.0192750">
	<ele>826.60</ele>
	<time>2023-04-15T07:00:43.000Z</time>
</trkpt>
<trkpt lat="45.7658440" lon="10.0192630">
	<ele>826.60</ele>
	<time>2023-04-15T07:00:53.000Z</time>
</trkpt>
<trkpt lat="45.7658470" lon="10.0192670">
	<ele>826.60</ele>
	<time>2023-04-15T07:01:04.000Z</time>
</trkpt>
<trkpt lat="45.7658480" lon="10.0192670">
	<ele>826.60</ele>
	<time>2023-04-15T07:01:07.000Z</time>
</trkpt>
<trkpt lat="45.7658530" lon="10.0192670">
	<ele>826.60</ele>
	<time>2023-04-15T07:01:20.000Z</time>
</trkpt>
<trkpt lat="45.7658000" lon="10.0191710">
	<ele>826.60</ele>
	<time>2023-04-15T07:01:31.000Z</time>
</trkpt>
<trkpt lat="45.7657730" lon="10.0191420">
	<ele>826.60</ele>
	<time>2023-04-15T07:01:33.000Z</time>
</trkpt>
<trkpt lat="45.7657420" lon="10.0191230">
	<ele>826.60</ele>
	<time>2023-04-15T07:01:35.000Z</time>
</trkpt>
<trkpt lat="45.7657180" lon="10.0191210">
	<ele>827.80</ele>
	<time>2023-04-15T07:01:37.000Z</time>
</trkpt>
<trkpt lat="45.7657070" lon="10.0191070">
	<ele>828.00</ele>
	<time>2023-04-15T07:01:39.000Z</time>
</trkpt>
<trkpt lat="45.7657000" lon="10.0190920">
	<ele>828.40</ele>
	<time>2023-04-15T07:01:41.000Z</time>
</trkpt>
<trkpt lat="45.7657020" lon="10.0190720">
	<ele>828.80</ele>
	<time>2023-04-15T07:01:43.000Z</time>
</trkpt>
<trkpt lat="45.7657030" lon="10.0190650">
	<ele>829.40</ele>
	<time>2023-04-15T07:01:48.000Z</time>
</trkpt>
<trkpt lat="45.7657020" lon="10.0190630">
	<ele>829.40</ele>
	<time>2023-04-15T07:01:49.000Z</time>
</trkpt>
<trkpt lat="45.7656930" lon="10.0190540">
	<ele>829.60</ele>
	<time>2023-04-15T07:01:52.000Z</time>
</trkpt>
<trkpt lat="45.7656690" lon="10.0190620">
	<ele>829.00</ele>
	<time>2023-04-15T07:01:56.000Z</time>
</trkpt>
<trkpt lat="45.7656850" lon="10.0190530">
	<ele>828.80</ele>
	<time>2023-04-15T07:02:00.000Z</time>
</trkpt>
<trkpt lat="45.7656950" lon="10.0190510">
	<ele>828.80</ele>
	<time>2023-04-15T07:02:04.000Z</time>
</trkpt>
<trkpt lat="45.7656960" lon="10.0190520">
	<ele>828.80</ele>
	<time>2023-04-15T07:02:06.000Z</time>
</trkpt>
<trkpt lat="45.7656880" lon="10.0190270">
	<ele>829.00</ele>
	<time>2023-04-15T07:02:36.000Z</time>
</trkpt>
<trkpt lat="45.7656840" lon="10.0190260">
	<ele>829.00</ele>
	<time>2023-04-15T07:02:40.000Z</time>
</trkpt>
<trkpt lat="45.7656820" lon="10.0190230">
	<ele>829.00</ele>
	<time>2023-04-15T07:02:43.000Z</time>
</trkpt>
<trkpt lat="45.7656810" lon="10.0190230">
	<ele>829.00</ele>
	<time>2023-04-15T07:02:45.000Z</time>
</trkpt>
<trkpt lat="45.7656740" lon="10.0190230">
	<ele>829.20</ele>
	<time>2023-04-15T07:02:49.000Z</time>
</trkpt>
<trkpt lat="45.7656700" lon="10.0190260">
	<ele>829.60</ele>
	<time>2023-04-15T07:03:00.000Z</time>
</trkpt>
<trkpt lat="45.7656650" lon="10.0190280">
	<ele>829.20</ele>
	<time>2023-04-15T07:03:05.000Z</time>
</trkpt>
<trkpt lat="45.7656630" lon="10.0190210">
	<ele>830.40</ele>
	<time>2023-04-15T07:03:28.000Z</time>
</trkpt>
<trkpt lat="45.7656690" lon="10.0190030">
	<ele>831.20</ele>
	<time>2023-04-15T07:03:32.000Z</time>
</trkpt>
<trkpt lat="45.7656830" lon="10.0189970">
	<ele>831.60</ele>
	<time>2023-04-15T07:03:34.000Z</time>
</trkpt>
<trkpt lat="45.7657060" lon="10.0189890">
	<ele>832.00</ele>
	<time>2023-04-15T07:03:37.000Z</time>
</trkpt>
<trkpt lat="45.7657370" lon="10.0189970">
	<ele>832.60</ele>
	<time>2023-04-15T07:03:41.000Z</time>
</trkpt>
<trkpt lat="45.7657660" lon="10.0189920">
	<ele>833.60</ele>
	<time>2023-04-15T07:03:46.000Z</time>
</trkpt>
<trkpt lat="45.7657670" lon="10.0189910">
	<ele>833.80</ele>
	<time>2023-04-15T07:03:47.000Z</time>
</trkpt>
<trkpt lat="45.7657950" lon="10.0189750">
	<ele>834.00</ele>
	<time>2023-04-15T07:03:50.000Z</time>
</trkpt>
<trkpt lat="45.7658150" lon="10.0189630">
	<ele>834.40</ele>
	<time>2023-04-15T07:03:52.000Z</time>
</trkpt>
<trkpt lat="45.7658210" lon="10.0189530">
	<ele>834.60</ele>
	<time>2023-04-15T07:03:53.000Z</time>
</trkpt>
<trkpt lat="45.7658240" lon="10.0189490">
	<ele>834.80</ele>
	<time>2023-04-15T07:03:54.000Z</time>
</trkpt>
<trkpt lat="45.7658480" lon="10.0189070">
	<ele>835.80</ele>
	<time>2023-04-15T07:04:00.000Z</time>
</trkpt>
<trkpt lat="45.7658480" lon="10.0189020">
	<ele>836.00</ele>
	<time>2023-04-15T07:04:01.000Z</time>
</trkpt>
<trkpt lat="45.7658690" lon="10.0188540">
	<ele>836.60</ele>
	<time>2023-04-15T07:04:05.000Z</time>
</trkpt>
<trkpt lat="45.7658700" lon="10.0188560">
	<ele>837.00</ele>
	<time>2023-04-15T07:04:07.000Z</time>
</trkpt>
<trkpt lat="45.7658760" lon="10.0188350">
	<ele>837.40</ele>
	<time>2023-04-15T07:04:09.000Z</time>
</trkpt>
<trkpt lat="45.7658720" lon="10.0188070">
	<ele>838.20</ele>
	<time>2023-04-15T07:04:13.000Z</time>
</trkpt>
<trkpt lat="45.7658710" lon="10.0187970">
	<ele>838.80</ele>
	<time>2023-04-15T07:04:16.000Z</time>
</trkpt>
<trkpt lat="45.7658660" lon="10.0188020">
	<ele>839.20</ele>
	<time>2023-04-15T07:04:20.000Z</time>
</trkpt>
<trkpt lat="45.7658600" lon="10.0188120">
	<ele>839.40</ele>
	<time>2023-04-15T07:04:21.000Z</time>
</trkpt>
<trkpt lat="45.7658570" lon="10.0187630">
	<ele>840.40</ele>
	<time>2023-04-15T07:04:27.000Z</time>
</trkpt>
<trkpt lat="45.7658610" lon="10.0187360">
	<ele>841.40</ele>
	<time>2023-04-15T07:04:33.000Z</time>
</trkpt>
<trkpt lat="45.7658650" lon="10.0187260">
	<ele>841.60</ele>
	<time>2023-04-15T07:04:34.000Z</time>
</trkpt>
<trkpt lat="45.7658840" lon="10.0186830">
	<ele>842.80</ele>
	<time>2023-04-15T07:04:41.000Z</time>
</trkpt>
<trkpt lat="45.7658850" lon="10.0186700">
	<ele>844.00</ele>
	<time>2023-04-15T07:04:46.000Z</time>
</trkpt>
<trkpt lat="45.7658870" lon="10.0186520">
	<ele>844.40</ele>
	<time>2023-04-15T07:04:48.000Z</time>
</trkpt>
<trkpt lat="45.7659130" lon="10.0186340">
	<ele>845.00</ele>
	<time>2023-04-15T07:04:51.000Z</time>
</trkpt>
<trkpt lat="45.7659220" lon="10.0186160">
	<ele>845.40</ele>
	<time>2023-04-15T07:04:54.000Z</time>
</trkpt>
<trkpt lat="45.7659220" lon="10.0185780">
	<ele>846.00</ele>
	<time>2023-04-15T07:04:59.000Z</time>
</trkpt>
<trkpt lat="45.7659240" lon="10.0185660">
	<ele>846.00</ele>
	<time>2023-04-15T07:05:00.000Z</time>
</trkpt>
<trkpt lat="45.7659400" lon="10.0185300">
	<ele>847.20</ele>
	<time>2023-04-15T07:05:06.000Z</time>
</trkpt>
<trkpt lat="45.7659560" lon="10.0184920">
	<ele>848.40</ele>
	<time>2023-04-15T07:05:12.000Z</time>
</trkpt>
<trkpt lat="45.7659560" lon="10.0185000">
	<ele>848.60</ele>
	<time>2023-04-15T07:05:14.000Z</time>
</trkpt>
<trkpt lat="45.7659670" lon="10.0184960">
	<ele>849.60</ele>
	<time>2023-04-15T07:05:18.000Z</time>
</trkpt>
<trkpt lat="45.7659690" lon="10.0184950">
	<ele>849.80</ele>
	<time>2023-04-15T07:05:19.000Z</time>
</trkpt>
<trkpt lat="45.7659840" lon="10.0184890">
	<ele>850.80</ele>
	<time>2023-04-15T07:05:24.000Z</time>
</trkpt>
<trkpt lat="45.7660010" lon="10.0184740">
	<ele>851.20</ele>
	<time>2023-04-15T07:05:28.000Z</time>
</trkpt>
<trkpt lat="45.7660240" lon="10.0184760">
	<ele>851.80</ele>
	<time>2023-04-15T07:05:33.000Z</time>
</trkpt>
<trkpt lat="45.7660600" lon="10.0185250">
	<ele>852.40</ele>
	<time>2023-04-15T07:05:40.000Z</time>
</trkpt>
<trkpt lat="45.7661070" lon="10.0185360">
	<ele>852.80</ele>
	<time>2023-04-15T07:05:46.000Z</time>
</trkpt>
<trkpt lat="45.7661170" lon="10.0185390">
	<ele>852.80</ele>
	<time>2023-04-15T07:05:47.000Z</time>
</trkpt>
<trkpt lat="45.7661470" lon="10.0185700">
	<ele>853.60</ele>
	<time>2023-04-15T07:05:54.000Z</time>
</trkpt>
<trkpt lat="45.7661570" lon="10.0185790">
	<ele>853.80</ele>
	<time>2023-04-15T07:05:56.000Z</time>
</trkpt>
<trkpt lat="45.7661660" lon="10.0185930">
	<ele>854.40</ele>
	<time>2023-04-15T07:06:00.000Z</time>
</trkpt>
<trkpt lat="45.7661940" lon="10.0185890">
	<ele>855.00</ele>
	<time>2023-04-15T07:06:04.000Z</time>
</trkpt>
<trkpt lat="45.7662120" lon="10.0186110">
	<ele>855.60</ele>
	<time>2023-04-15T07:06:08.000Z</time>
</trkpt>
<trkpt lat="45.7662630" lon="10.0185940">
	<ele>856.00</ele>
	<time>2023-04-15T07:06:12.000Z</time>
</trkpt>
<trkpt lat="45.7662750" lon="10.0185950">
	<ele>856.60</ele>
	<time>2023-04-15T07:06:15.000Z</time>
</trkpt>
<trkpt lat="45.7663130" lon="10.0185600">
	<ele>857.20</ele>
	<time>2023-04-15T07:06:19.000Z</time>
</trkpt>
<trkpt lat="45.7663090" lon="10.0185500">
	<ele>857.80</ele>
	<time>2023-04-15T07:06:23.000Z</time>
</trkpt>
<trkpt lat="45.7663300" lon="10.0185230">
	<ele>858.20</ele>
	<time>2023-04-15T07:06:26.000Z</time>
</trkpt>
<trkpt lat="45.7663540" lon="10.0185160">
	<ele>858.80</ele>
	<time>2023-04-15T07:06:29.000Z</time>
</trkpt>
<trkpt lat="45.7663810" lon="10.0185330">
	<ele>859.40</ele>
	<time>2023-04-15T07:06:33.000Z</time>
</trkpt>
<trkpt lat="45.7663770" lon="10.0185680">
	<ele>859.80</ele>
	<time>2023-04-15T07:06:35.000Z</time>
</trkpt>
<trkpt lat="45.7663700" lon="10.0185960">
	<ele>860.40</ele>
	<time>2023-04-15T07:06:38.000Z</time>
</trkpt>
<trkpt lat="45.7663890" lon="10.0185930">
	<ele>861.00</ele>
	<time>2023-04-15T07:06:41.000Z</time>
</trkpt>
<trkpt lat="45.7664120" lon="10.0185860">
	<ele>861.60</ele>
	<time>2023-04-15T07:06:45.000Z</time>
</trkpt>
<trkpt lat="45.7664200" lon="10.0185860">
	<ele>861.80</ele>
	<time>2023-04-15T07:06:47.000Z</time>
</trkpt>
<trkpt lat="45.7664440" lon="10.0185630">
	<ele>862.60</ele>
	<time>2023-04-15T07:06:50.000Z</time>
</trkpt>
<trkpt lat="45.7664730" lon="10.0185550">
	<ele>863.00</ele>
	<time>2023-04-15T07:06:54.000Z</time>
</trkpt>
<trkpt lat="45.7665080" lon="10.0185400">
	<ele>863.80</ele>
	<time>2023-04-15T07:06:58.000Z</time>
</trkpt>
<trkpt lat="45.7665200" lon="10.0185420">
	<ele>864.00</ele>
	<time>2023-04-15T07:07:00.000Z</time>
</trkpt>
<trkpt lat="45.7665370" lon="10.0185720">
	<ele>864.80</ele>
	<time>2023-04-15T07:07:04.000Z</time>
</trkpt>
<trkpt lat="45.7665590" lon="10.0185780">
	<ele>865.20</ele>
	<time>2023-04-15T07:07:07.000Z</time>
</trkpt>
<trkpt lat="45.7665740" lon="10.0185980">
	<ele>865.80</ele>
	<time>2023-04-15T07:07:10.000Z</time>
</trkpt>
<trkpt lat="45.7665860" lon="10.0186010">
	<ele>866.00</ele>
	<time>2023-04-15T07:07:13.000Z</time>
</trkpt>
<trkpt lat="45.7665860" lon="10.0186030">
	<ele>866.00</ele>
	<time>2023-04-15T07:07:14.000Z</time>
</trkpt>
<trkpt lat="45.7665880" lon="10.0186070">
	<ele>866.40</ele>
	<time>2023-04-15T07:07:25.000Z</time>
</trkpt>
<trkpt lat="45.7665920" lon="10.0186110">
	<ele>866.40</ele>
	<time>2023-04-15T07:07:32.000Z</time>
</trkpt>
<trkpt lat="45.7666430" lon="10.0186370">
	<ele>867.00</ele>
	<time>2023-04-15T07:07:36.000Z</time>
</trkpt>
<trkpt lat="45.7667000" lon="10.0186650">
	<ele>867.60</ele>
	<time>2023-04-15T07:07:40.000Z</time>
</trkpt>
<trkpt lat="45.7667270" lon="10.0186820">
	<ele>868.00</ele>
	<time>2023-04-15T07:07:43.000Z</time>
</trkpt>
<trkpt lat="45.7667340" lon="10.0186840">
	<ele>868.20</ele>
	<time>2023-04-15T07:07:44.000Z</time>
</trkpt>
<trkpt lat="45.7667410" lon="10.0186860">
	<ele>868.40</ele>
	<time>2023-04-15T07:07:45.000Z</time>
</trkpt>
<trkpt lat="45.7667530" lon="10.0187050">
	<ele>868.60</ele>
	<time>2023-04-15T07:07:47.000Z</time>
</trkpt>
<trkpt lat="45.7667710" lon="10.0187280">
	<ele>868.80</ele>
	<time>2023-04-15T07:07:49.000Z</time>
</trkpt>
<trkpt lat="45.7667820" lon="10.0187400">
	<ele>869.20</ele>
	<time>2023-04-15T07:07:51.000Z</time>
</trkpt>
<trkpt lat="45.7668030" lon="10.0187520">
	<ele>869.40</ele>
	<time>2023-04-15T07:07:53.000Z</time>
</trkpt>
<trkpt lat="45.7668010" lon="10.0188380">
	<ele>869.80</ele>
	<time>2023-04-15T07:07:56.000Z</time>
</trkpt>
<trkpt lat="45.7668010" lon="10.0188940">
	<ele>870.20</ele>
	<time>2023-04-15T07:07:58.000Z</time>
</trkpt>
<trkpt lat="45.7667970" lon="10.0189160">
	<ele>870.40</ele>
	<time>2023-04-15T07:07:59.000Z</time>
</trkpt>
<trkpt lat="45.7668330" lon="10.0189240">
	<ele>871.00</ele>
	<time>2023-04-15T07:08:03.000Z</time>
</trkpt>
<trkpt lat="45.7668400" lon="10.0189680">
	<ele>871.20</ele>
	<time>2023-04-15T07:08:08.000Z</time>
</trkpt>
<trkpt lat="45.7668510" lon="10.0189810">
	<ele>871.40</ele>
	<time>2023-04-15T07:08:10.000Z</time>
</trkpt>
<trkpt lat="45.7668790" lon="10.0190000">
	<ele>871.60</ele>
	<time>2023-04-15T07:08:13.000Z</time>
</trkpt>
<trkpt lat="45.7668850" lon="10.0190090">
	<ele>871.80</ele>
	<time>2023-04-15T07:08:14.000Z</time>
</trkpt>
<trkpt lat="45.7669010" lon="10.0190570">
	<ele>872.40</ele>
	<time>2023-04-15T07:08:18.000Z</time>
</trkpt>
<trkpt lat="45.7669070" lon="10.0190840">
	<ele>872.80</ele>
	<time>2023-04-15T07:08:21.000Z</time>
</trkpt>
<trkpt lat="45.7669230" lon="10.0191360">
	<ele>873.40</ele>
	<time>2023-04-15T07:08:27.000Z</time>
</trkpt>
<trkpt lat="45.7669270" lon="10.0191320">
	<ele>873.60</ele>
	<time>2023-04-15T07:08:28.000Z</time>
</trkpt>
<trkpt lat="45.7669330" lon="10.0191550">
	<ele>874.20</ele>
	<time>2023-04-15T07:08:31.000Z</time>
</trkpt>
<trkpt lat="45.7669470" lon="10.0191550">
	<ele>874.60</ele>
	<time>2023-04-15T07:08:33.000Z</time>
</trkpt>
<trkpt lat="45.7669490" lon="10.0191620">
	<ele>874.60</ele>
	<time>2023-04-15T07:08:34.000Z</time>
</trkpt>
<trkpt lat="45.7669540" lon="10.0191670">
	<ele>874.80</ele>
	<time>2023-04-15T07:08:35.000Z</time>
</trkpt>
<trkpt lat="45.7669570" lon="10.0191880">
	<ele>875.20</ele>
	<time>2023-04-15T07:08:37.000Z</time>
</trkpt>
<trkpt lat="45.7669580" lon="10.0191990">
	<ele>875.60</ele>
	<time>2023-04-15T07:08:39.000Z</time>
</trkpt>
<trkpt lat="45.7669610" lon="10.0192010">
	<ele>875.80</ele>
	<time>2023-04-15T07:08:40.000Z</time>
</trkpt>
<trkpt lat="45.7669710" lon="10.0191850">
	<ele>876.00</ele>
	<time>2023-04-15T07:08:42.000Z</time>
</trkpt>
<trkpt lat="45.7669780" lon="10.0191800">
	<ele>876.20</ele>
	<time>2023-04-15T07:08:43.000Z</time>
</trkpt>
<trkpt lat="45.7669790" lon="10.0191680">
	<ele>876.40</ele>
	<time>2023-04-15T07:08:45.000Z</time>
</trkpt>
<trkpt lat="45.7669840" lon="10.0191350">
	<ele>877.00</ele>
	<time>2023-04-15T07:08:49.000Z</time>
</trkpt>
<trkpt lat="45.7669820" lon="10.0191190">
	<ele>877.20</ele>
	<time>2023-04-15T07:08:51.000Z</time>
</trkpt>
<trkpt lat="45.7669760" lon="10.0191050">
	<ele>877.60</ele>
	<time>2023-04-15T07:08:54.000Z</time>
</trkpt>
<trkpt lat="45.7669680" lon="10.0191210">
	<ele>878.00</ele>
	<time>2023-04-15T07:08:57.000Z</time>
</trkpt>
<trkpt lat="45.7669680" lon="10.0191210">
	<ele>878.20</ele>
	<time>2023-04-15T07:08:59.000Z</time>
</trkpt>
<trkpt lat="45.7669680" lon="10.0191210">
	<ele>878.40</ele>
	<time>2023-04-15T07:09:00.000Z</time>
</trkpt>
<trkpt lat="45.7669680" lon="10.0191210">
	<ele>878.60</ele>
	<time>2023-04-15T07:09:02.000Z</time>
</trkpt>
<trkpt lat="45.7669680" lon="10.0191210">
	<ele>879.00</ele>
	<time>2023-04-15T07:09:07.000Z</time>
</trkpt>
<trkpt lat="45.7669680" lon="10.0191210">
	<ele>879.00</ele>
	<time>2023-04-15T07:09:09.000Z</time>
</trkpt>
<trkpt lat="45.7669620" lon="10.0191210">
	<ele>878.80</ele>
	<time>2023-04-15T07:09:20.000Z</time>
</trkpt>
<trkpt lat="45.7669590" lon="10.0191100">
	<ele>879.80</ele>
	<time>2023-04-15T07:09:32.000Z</time>
</trkpt>
<trkpt lat="45.7669580" lon="10.0191010">
	<ele>880.00</ele>
	<time>2023-04-15T07:09:34.000Z</time>
</trkpt>
<trkpt lat="45.7669650" lon="10.0189700">
	<ele>881.20</ele>
	<time>2023-04-15T07:09:40.000Z</time>
</trkpt>
<trkpt lat="45.7669590" lon="10.0189460">
	<ele>881.40</ele>
	<time>2023-04-15T07:09:41.000Z</time>
</trkpt>
<trkpt lat="45.7669520" lon="10.0188940">
	<ele>881.60</ele>
	<time>2023-04-15T07:09:43.000Z</time>
</trkpt>
<trkpt lat="45.7669500" lon="10.0188260">
	<ele>881.80</ele>
	<time>2023-04-15T07:09:45.000Z</time>
</trkpt>
<trkpt lat="45.7669520" lon="10.0188070">
	<ele>882.20</ele>
	<time>2023-04-15T07:09:47.000Z</time>
</trkpt>
<trkpt lat="45.7669520" lon="10.0187960">
	<ele>882.40</ele>
	<time>2023-04-15T07:09:48.000Z</time>
</trkpt>
<trkpt lat="45.7669580" lon="10.0187360">
	<ele>883.20</ele>
	<time>2023-04-15T07:09:54.000Z</time>
</trkpt>
<trkpt lat="45.7669620" lon="10.0187200">
	<ele>883.60</ele>
	<time>2023-04-15T07:09:56.000Z</time>
</trkpt>
<trkpt lat="45.7669790" lon="10.0186730">
	<ele>884.60</ele>
	<time>2023-04-15T07:10:01.000Z</time>
</trkpt>
<trkpt lat="45.7669800" lon="10.0186680">
	<ele>884.80</ele>
	<time>2023-04-15T07:10:02.000Z</time>
</trkpt>
<trkpt lat="45.7669810" lon="10.0185800">
	<ele>885.60</ele>
	<time>2023-04-15T07:10:08.000Z</time>
</trkpt>
<trkpt lat="45.7669820" lon="10.0185740">
	<ele>885.80</ele>
	<time>2023-04-15T07:10:09.000Z</time>
</trkpt>
<trkpt lat="45.7670320" lon="10.0185280">
	<ele>887.00</ele>
	<time>2023-04-15T07:10:17.000Z</time>
</trkpt>
<trkpt lat="45.7670280" lon="10.0184930">
	<ele>888.00</ele>
	<time>2023-04-15T07:10:23.000Z</time>
</trkpt>
<trkpt lat="45.7670170" lon="10.0184510">
	<ele>888.60</ele>
	<time>2023-04-15T07:10:27.000Z</time>
</trkpt>
<trkpt lat="45.7670020" lon="10.0184420">
	<ele>889.00</ele>
	<time>2023-04-15T07:10:30.000Z</time>
</trkpt>
<trkpt lat="45.7669940" lon="10.0184310">
	<ele>889.80</ele>
	<time>2023-04-15T07:10:33.000Z</time>
</trkpt>
<trkpt lat="45.7669930" lon="10.0184240">
	<ele>890.20</ele>
	<time>2023-04-15T07:10:35.000Z</time>
</trkpt>
<trkpt lat="45.7669890" lon="10.0184030">
	<ele>890.60</ele>
	<time>2023-04-15T07:10:38.000Z</time>
</trkpt>
<trkpt lat="45.7669740" lon="10.0183790">
	<ele>891.20</ele>
	<time>2023-04-15T07:10:42.000Z</time>
</trkpt>
<trkpt lat="45.7669690" lon="10.0183670">
	<ele>891.60</ele>
	<time>2023-04-15T07:10:46.000Z</time>
</trkpt>
<trkpt lat="45.7669580" lon="10.0183660">
	<ele>892.20</ele>
	<time>2023-04-15T07:10:49.000Z</time>
</trkpt>
<trkpt lat="45.7669520" lon="10.0183610">
	<ele>893.00</ele>
	<time>2023-04-15T07:10:53.000Z</time>
</trkpt>
<trkpt lat="45.7669450" lon="10.0183540">
	<ele>893.20</ele>
	<time>2023-04-15T07:10:55.000Z</time>
</trkpt>
<trkpt lat="45.7669440" lon="10.0183110">
	<ele>894.20</ele>
	<time>2023-04-15T07:11:01.000Z</time>
</trkpt>
<trkpt lat="45.7669370" lon="10.0183030">
	<ele>894.40</ele>
	<time>2023-04-15T07:11:02.000Z</time>
</trkpt>
<trkpt lat="45.7669240" lon="10.0182760">
	<ele>895.40</ele>
	<time>2023-04-15T07:11:08.000Z</time>
</trkpt>
<trkpt lat="45.7669190" lon="10.0182290">
	<ele>896.60</ele>
	<time>2023-04-15T07:11:14.000Z</time>
</trkpt>
<trkpt lat="45.7669130" lon="10.0182220">
	<ele>896.80</ele>
	<time>2023-04-15T07:11:16.000Z</time>
</trkpt>
<trkpt lat="45.7668950" lon="10.0182060">
	<ele>897.60</ele>
	<time>2023-04-15T07:11:21.000Z</time>
</trkpt>
<trkpt lat="45.7668860" lon="10.0181930">
	<ele>897.80</ele>
	<time>2023-04-15T07:11:23.000Z</time>
</trkpt>
<trkpt lat="45.7668680" lon="10.0181910">
	<ele>898.60</ele>
	<time>2023-04-15T07:11:27.000Z</time>
</trkpt>
<trkpt lat="45.7668660" lon="10.0181780">
	<ele>899.00</ele>
	<time>2023-04-15T07:11:29.000Z</time>
</trkpt>
<trkpt lat="45.7668660" lon="10.0181430">
	<ele>899.80</ele>
	<time>2023-04-15T07:11:35.000Z</time>
</trkpt>
<trkpt lat="45.7668580" lon="10.0180680">
	<ele>900.80</ele>
	<time>2023-04-15T07:11:41.000Z</time>
</trkpt>
<trkpt lat="45.7668590" lon="10.0180650">
	<ele>901.00</ele>
	<time>2023-04-15T07:11:42.000Z</time>
</trkpt>
<trkpt lat="45.7668630" lon="10.0180250">
	<ele>901.80</ele>
	<time>2023-04-15T07:11:47.000Z</time>
</trkpt>
<trkpt lat="45.7668630" lon="10.0180240">
	<ele>901.80</ele>
	<time>2023-04-15T07:11:48.000Z</time>
</trkpt>
<trkpt lat="45.7668570" lon="10.0179760">
	<ele>903.00</ele>
	<time>2023-04-15T07:11:53.000Z</time>
</trkpt>
<trkpt lat="45.7668590" lon="10.0179620">
	<ele>903.00</ele>
	<time>2023-04-15T07:11:54.000Z</time>
</trkpt>
<trkpt lat="45.7668430" lon="10.0179220">
	<ele>903.60</ele>
	<time>2023-04-15T07:12:00.000Z</time>
</trkpt>
<trkpt lat="45.7668420" lon="10.0179280">
	<ele>904.00</ele>
	<time>2023-04-15T07:12:03.000Z</time>
</trkpt>
<trkpt lat="45.7668190" lon="10.0179490">
	<ele>904.20</ele>
	<time>2023-04-15T07:12:05.000Z</time>
</trkpt>
<trkpt lat="45.7668140" lon="10.0179660">
	<ele>905.00</ele>
	<time>2023-04-15T07:12:08.000Z</time>
</trkpt>
<trkpt lat="45.7667930" lon="10.0179860">
	<ele>905.60</ele>
	<time>2023-04-15T07:12:12.000Z</time>
</trkpt>
<trkpt lat="45.7667560" lon="10.0179430">
	<ele>906.00</ele>
	<time>2023-04-15T07:12:18.000Z</time>
</trkpt>
<trkpt lat="45.7667570" lon="10.0179320">
	<ele>906.20</ele>
	<time>2023-04-15T07:12:19.000Z</time>
</trkpt>
<trkpt lat="45.7667540" lon="10.0178950">
	<ele>907.20</ele>
	<time>2023-04-15T07:12:26.000Z</time>
</trkpt>
<trkpt lat="45.7667560" lon="10.0178660">
	<ele>908.20</ele>
	<time>2023-04-15T07:12:32.000Z</time>
</trkpt>
<trkpt lat="45.7667560" lon="10.0178400">
	<ele>908.60</ele>
	<time>2023-04-15T07:12:35.000Z</time>
</trkpt>
<trkpt lat="45.7667510" lon="10.0178100">
	<ele>909.40</ele>
	<time>2023-04-15T07:12:40.000Z</time>
</trkpt>
<trkpt lat="45.7667520" lon="10.0178050">
	<ele>909.60</ele>
	<time>2023-04-15T07:12:41.000Z</time>
</trkpt>
<trkpt lat="45.7667530" lon="10.0177700">
	<ele>910.40</ele>
	<time>2023-04-15T07:12:46.000Z</time>
</trkpt>
<trkpt lat="45.7667560" lon="10.0177610">
	<ele>910.80</ele>
	<time>2023-04-15T07:12:48.000Z</time>
</trkpt>
<trkpt lat="45.7667520" lon="10.0177130">
	<ele>911.60</ele>
	<time>2023-04-15T07:12:54.000Z</time>
</trkpt>
<trkpt lat="45.7667460" lon="10.0177060">
	<ele>912.20</ele>
	<time>2023-04-15T07:13:02.000Z</time>
</trkpt>
<trkpt lat="45.7667450" lon="10.0177060">
	<ele>912.60</ele>
	<time>2023-04-15T07:13:13.000Z</time>
</trkpt>
<trkpt lat="45.7667450" lon="10.0177060">
	<ele>912.60</ele>
	<time>2023-04-15T07:13:14.000Z</time>
</trkpt>
<trkpt lat="45.7667450" lon="10.0177060">
	<ele>912.60</ele>
	<time>2023-04-15T07:13:16.000Z</time>
</trkpt>
<trkpt lat="45.7667300" lon="10.0177010">
	<ele>913.20</ele>
	<time>2023-04-15T07:13:26.000Z</time>
</trkpt>
<trkpt lat="45.7667290" lon="10.0177010">
	<ele>913.60</ele>
	<time>2023-04-15T07:13:28.000Z</time>
</trkpt>
<trkpt lat="45.7667250" lon="10.0176910">
	<ele>914.80</ele>
	<time>2023-04-15T07:13:34.000Z</time>
</trkpt>
<trkpt lat="45.7667080" lon="10.0176310">
	<ele>915.80</ele>
	<time>2023-04-15T07:13:44.000Z</time>
</trkpt>
<trkpt lat="45.7667070" lon="10.0176190">
	<ele>917.00</ele>
	<time>2023-04-15T07:13:49.000Z</time>
</trkpt>
<trkpt lat="45.7666580" lon="10.0176010">
	<ele>917.80</ele>
	<time>2023-04-15T07:14:04.000Z</time>
</trkpt>
<trkpt lat="45.7666580" lon="10.0176000">
	<ele>918.00</ele>
	<time>2023-04-15T07:14:05.000Z</time>
</trkpt>
<trkpt lat="45.7666550" lon="10.0175690">
	<ele>919.00</ele>
	<time>2023-04-15T07:14:12.000Z</time>
</trkpt>
<trkpt lat="45.7666510" lon="10.0175500">
	<ele>920.00</ele>
	<time>2023-04-15T07:14:19.000Z</time>
</trkpt>
<trkpt lat="45.7666500" lon="10.0174980">
	<ele>921.20</ele>
	<time>2023-04-15T07:14:28.000Z</time>
</trkpt>
<trkpt lat="45.7666480" lon="10.0174510">
	<ele>922.20</ele>
	<time>2023-04-15T07:14:34.000Z</time>
</trkpt>
<trkpt lat="45.7666410" lon="10.0173660">
	<ele>923.20</ele>
	<time>2023-04-15T07:14:43.000Z</time>
</trkpt>
<trkpt lat="45.7666280" lon="10.0173250">
	<ele>924.40</ele>
	<time>2023-04-15T07:14:49.000Z</time>
</trkpt>
<trkpt lat="45.7666130" lon="10.0172710">
	<ele>925.40</ele>
	<time>2023-04-15T07:14:56.000Z</time>
</trkpt>
<trkpt lat="45.7666070" lon="10.0172590">
	<ele>925.40</ele>
	<time>2023-04-15T07:14:57.000Z</time>
</trkpt>
<trkpt lat="45.7665830" lon="10.0171950">
	<ele>926.40</ele>
	<time>2023-04-15T07:15:03.000Z</time>
</trkpt>
<trkpt lat="45.7665800" lon="10.0171940">
	<ele>926.80</ele>
	<time>2023-04-15T07:15:04.000Z</time>
</trkpt>
<trkpt lat="45.7665690" lon="10.0171610">
	<ele>927.60</ele>
	<time>2023-04-15T07:15:09.000Z</time>
</trkpt>
<trkpt lat="45.7665680" lon="10.0171290">
	<ele>928.20</ele>
	<time>2023-04-15T07:15:14.000Z</time>
</trkpt>
<trkpt lat="45.7665770" lon="10.0171410">
	<ele>928.80</ele>
	<time>2023-04-15T07:15:18.000Z</time>
</trkpt>
<trkpt lat="45.7665530" lon="10.0171440">
	<ele>929.80</ele>
	<time>2023-04-15T07:15:24.000Z</time>
</trkpt>
<trkpt lat="45.7665430" lon="10.0171520">
	<ele>930.20</ele>
	<time>2023-04-15T07:15:27.000Z</time>
</trkpt>
<trkpt lat="45.7665370" lon="10.0171320">
	<ele>930.80</ele>
	<time>2023-04-15T07:15:31.000Z</time>
</trkpt>
<trkpt lat="45.7665330" lon="10.0171150">
	<ele>931.00</ele>
	<time>2023-04-15T07:15:33.000Z</time>
</trkpt>
<trkpt lat="45.7665170" lon="10.0170800">
	<ele>931.60</ele>
	<time>2023-04-15T07:15:38.000Z</time>
</trkpt>
<trkpt lat="45.7665090" lon="10.0170640">
	<ele>931.80</ele>
	<time>2023-04-15T07:15:40.000Z</time>
</trkpt>
<trkpt lat="45.7665060" lon="10.0170540">
	<ele>932.00</ele>
	<time>2023-04-15T07:15:41.000Z</time>
</trkpt>
<trkpt lat="45.7664730" lon="10.0170340">
	<ele>932.80</ele>
	<time>2023-04-15T07:15:47.000Z</time>
</trkpt>
<trkpt lat="45.7664600" lon="10.0170130">
	<ele>933.00</ele>
	<time>2023-04-15T07:15:49.000Z</time>
</trkpt>
<trkpt lat="45.7664190" lon="10.0169700">
	<ele>933.20</ele>
	<time>2023-04-15T07:15:55.000Z</time>
</trkpt>
<trkpt lat="45.7663830" lon="10.0169540">
	<ele>933.40</ele>
	<time>2023-04-15T07:16:01.000Z</time>
</trkpt>
<trkpt lat="45.7663770" lon="10.0169510">
	<ele>933.40</ele>
	<time>2023-04-15T07:16:02.000Z</time>
</trkpt>
<trkpt lat="45.7663540" lon="10.0169200">
	<ele>934.00</ele>
	<time>2023-04-15T07:16:07.000Z</time>
</trkpt>
<trkpt lat="45.7663450" lon="10.0169000">
	<ele>933.80</ele>
	<time>2023-04-15T07:16:09.000Z</time>
</trkpt>
<trkpt lat="45.7663310" lon="10.0168850">
	<ele>933.80</ele>
	<time>2023-04-15T07:16:11.000Z</time>
</trkpt>
<trkpt lat="45.7663130" lon="10.0168710">
	<ele>933.80</ele>
	<time>2023-04-15T07:16:13.000Z</time>
</trkpt>
<trkpt lat="45.7662910" lon="10.0168540">
	<ele>933.80</ele>
	<time>2023-04-15T07:16:15.000Z</time>
</trkpt>
<trkpt lat="45.7662470" lon="10.0168130">
	<ele>934.00</ele>
	<time>2023-04-15T07:16:22.000Z</time>
</trkpt>
<trkpt lat="45.7662460" lon="10.0168120">
	<ele>934.00</ele>
	<time>2023-04-15T07:16:23.000Z</time>
</trkpt>
<trkpt lat="45.7662550" lon="10.0168280">
	<ele>934.40</ele>
	<time>2023-04-15T07:16:26.000Z</time>
</trkpt>
<trkpt lat="45.7662700" lon="10.0168450">
	<ele>934.80</ele>
	<time>2023-04-15T07:16:29.000Z</time>
</trkpt>
<trkpt lat="45.7662730" lon="10.0168430">
	<ele>934.80</ele>
	<time>2023-04-15T07:16:30.000Z</time>
</trkpt>
<trkpt lat="45.7662740" lon="10.0168420">
	<ele>934.80</ele>
	<time>2023-04-15T07:16:33.000Z</time>
</trkpt>
<trkpt lat="45.7662740" lon="10.0168420">
	<ele>934.80</ele>
	<time>2023-04-15T07:16:34.000Z</time>
</trkpt>
<trkpt lat="45.7662740" lon="10.0168420">
	<ele>934.80</ele>
	<time>2023-04-15T07:16:37.000Z</time>
</trkpt>
<trkpt lat="45.7662740" lon="10.0168420">
	<ele>934.80</ele>
	<time>2023-04-15T07:16:47.000Z</time>
</trkpt>
<trkpt lat="45.7662730" lon="10.0168420">
	<ele>935.00</ele>
	<time>2023-04-15T07:16:48.000Z</time>
</trkpt>
<trkpt lat="45.7662680" lon="10.0168410">
	<ele>936.00</ele>
	<time>2023-04-15T07:16:53.000Z</time>
</trkpt>
<trkpt lat="45.7661730" lon="10.0167770">
	<ele>937.00</ele>
	<time>2023-04-15T07:17:02.000Z</time>
</trkpt>
<trkpt lat="45.7661460" lon="10.0167650">
	<ele>937.00</ele>
	<time>2023-04-15T07:17:03.000Z</time>
</trkpt>
<trkpt lat="45.7660490" lon="10.0167130">
	<ele>937.40</ele>
	<time>2023-04-15T07:17:09.000Z</time>
</trkpt>
<trkpt lat="45.7660080" lon="10.0166780">
	<ele>937.80</ele>
	<time>2023-04-15T07:17:14.000Z</time>
</trkpt>
<trkpt lat="45.7659890" lon="10.0166610">
	<ele>938.00</ele>
	<time>2023-04-15T07:17:17.000Z</time>
</trkpt>
<trkpt lat="45.7659850" lon="10.0166580">
	<ele>938.40</ele>
	<time>2023-04-15T07:17:20.000Z</time>
</trkpt>
<trkpt lat="45.7659400" lon="10.0166170">
	<ele>939.20</ele>
	<time>2023-04-15T07:17:25.000Z</time>
</trkpt>
<trkpt lat="45.7659350" lon="10.0166070">
	<ele>939.40</ele>
	<time>2023-04-15T07:17:27.000Z</time>
</trkpt>
<trkpt lat="45.7658990" lon="10.0166210">
	<ele>940.40</ele>
	<time>2023-04-15T07:17:32.000Z</time>
</trkpt>
<trkpt lat="45.7658690" lon="10.0166020">
	<ele>941.40</ele>
	<time>2023-04-15T07:17:38.000Z</time>
</trkpt>
<trkpt lat="45.7658590" lon="10.0165940">
	<ele>941.60</ele>
	<time>2023-04-15T07:17:39.000Z</time>
</trkpt>
<trkpt lat="45.7658480" lon="10.0165880">
	<ele>942.00</ele>
	<time>2023-04-15T07:17:44.000Z</time>
</trkpt>
<trkpt lat="45.7658550" lon="10.0165870">
	<ele>942.00</ele>
	<time>2023-04-15T07:17:50.000Z</time>
</trkpt>
<trkpt lat="45.7658180" lon="10.0165580">
	<ele>942.20</ele>
	<time>2023-04-15T07:17:54.000Z</time>
</trkpt>
<trkpt lat="45.7658160" lon="10.0165530">
	<ele>942.60</ele>
	<time>2023-04-15T07:17:56.000Z</time>
</trkpt>
<trkpt lat="45.7658160" lon="10.0165500">
	<ele>942.60</ele>
	<time>2023-04-15T07:17:57.000Z</time>
</trkpt>
<trkpt lat="45.7658130" lon="10.0165410">
	<ele>943.20</ele>
	<time>2023-04-15T07:18:04.000Z</time>
</trkpt>
<trkpt lat="45.7658080" lon="10.0165250">
	<ele>943.20</ele>
	<time>2023-04-15T07:18:09.000Z</time>
</trkpt>
<trkpt lat="45.7658040" lon="10.0165190">
	<ele>942.60</ele>
	<time>2023-04-15T07:18:12.000Z</time>
</trkpt>
<trkpt lat="45.7657940" lon="10.0164900">
	<ele>943.00</ele>
	<time>2023-04-15T07:18:19.000Z</time>
</trkpt>
<trkpt lat="45.7657930" lon="10.0164570">
	<ele>943.60</ele>
	<time>2023-04-15T07:18:25.000Z</time>
</trkpt>
<trkpt lat="45.7657940" lon="10.0164600">
	<ele>943.80</ele>
	<time>2023-04-15T07:18:26.000Z</time>
</trkpt>
<trkpt lat="45.7657940" lon="10.0164440">
	<ele>944.40</ele>
	<time>2023-04-15T07:18:32.000Z</time>
</trkpt>
<trkpt lat="45.7657890" lon="10.0164190">
	<ele>944.80</ele>
	<time>2023-04-15T07:18:36.000Z</time>
</trkpt>
<trkpt lat="45.7657960" lon="10.0164050">
	<ele>945.00</ele>
	<time>2023-04-15T07:18:38.000Z</time>
</trkpt>
<trkpt lat="45.7657990" lon="10.0163700">
	<ele>945.60</ele>
	<time>2023-04-15T07:18:44.000Z</time>
</trkpt>
<trkpt lat="45.7658120" lon="10.0163430">
	<ele>945.80</ele>
	<time>2023-04-15T07:18:47.000Z</time>
</trkpt>
<trkpt lat="45.7658080" lon="10.0163130">
	<ele>946.60</ele>
	<time>2023-04-15T07:18:52.000Z</time>
</trkpt>
<trkpt lat="45.7658050" lon="10.0163060">
	<ele>947.00</ele>
	<time>2023-04-15T07:18:54.000Z</time>
</trkpt>
<trkpt lat="45.7658160" lon="10.0162820">
	<ele>947.20</ele>
	<time>2023-04-15T07:18:57.000Z</time>
</trkpt>
<trkpt lat="45.7658200" lon="10.0162270">
	<ele>948.00</ele>
	<time>2023-04-15T07:19:03.000Z</time>
</trkpt>
<trkpt lat="45.7658210" lon="10.0162210">
	<ele>948.20</ele>
	<time>2023-04-15T07:19:04.000Z</time>
</trkpt>
<trkpt lat="45.7658460" lon="10.0161390">
	<ele>949.00</ele>
	<time>2023-04-15T07:19:11.000Z</time>
</trkpt>
<trkpt lat="45.7658480" lon="10.0161190">
	<ele>949.20</ele>
	<time>2023-04-15T07:19:13.000Z</time>
</trkpt>
<trkpt lat="45.7658610" lon="10.0160990">
	<ele>949.80</ele>
	<time>2023-04-15T07:19:21.000Z</time>
</trkpt>
<trkpt lat="45.7658380" lon="10.0161060">
	<ele>949.60</ele>
	<time>2023-04-15T07:19:32.000Z</time>
</trkpt>
<trkpt lat="45.7658390" lon="10.0161060">
	<ele>949.80</ele>
	<time>2023-04-15T07:19:49.000Z</time>
</trkpt>
<trkpt lat="45.7658380" lon="10.0161060">
	<ele>950.20</ele>
	<time>2023-04-15T07:19:58.000Z</time>
</trkpt>
<trkpt lat="45.7658550" lon="10.0160280">
	<ele>951.20</ele>
	<time>2023-04-15T07:20:08.000Z</time>
</trkpt>
<trkpt lat="45.7658640" lon="10.0160050">
	<ele>951.20</ele>
	<time>2023-04-15T07:20:09.000Z</time>
</trkpt>
<trkpt lat="45.7658700" lon="10.0159610">
	<ele>951.60</ele>
	<time>2023-04-15T07:20:11.000Z</time>
</trkpt>
<trkpt lat="45.7658820" lon="10.0158970">
	<ele>952.20</ele>
	<time>2023-04-15T07:20:15.000Z</time>
</trkpt>
<trkpt lat="45.7658900" lon="10.0158910">
	<ele>952.60</ele>
	<time>2023-04-15T07:20:17.000Z</time>
</trkpt>
<trkpt lat="45.7658990" lon="10.0158510">
	<ele>953.40</ele>
	<time>2023-04-15T07:20:22.000Z</time>
</trkpt>
<trkpt lat="45.7659000" lon="10.0158450">
	<ele>953.60</ele>
	<time>2023-04-15T07:20:23.000Z</time>
</trkpt>
<trkpt lat="45.7659130" lon="10.0157970">
	<ele>954.60</ele>
	<time>2023-04-15T07:20:29.000Z</time>
</trkpt>
<trkpt lat="45.7659190" lon="10.0157510">
	<ele>954.80</ele>
	<time>2023-04-15T07:20:32.000Z</time>
</trkpt>
<trkpt lat="45.7659180" lon="10.0157250">
	<ele>955.20</ele>
	<time>2023-04-15T07:20:35.000Z</time>
</trkpt>
<trkpt lat="45.7659180" lon="10.0157230">
	<ele>955.60</ele>
	<time>2023-04-15T07:20:37.000Z</time>
</trkpt>
<trkpt lat="45.7659200" lon="10.0157200">
	<ele>955.60</ele>
	<time>2023-04-15T07:20:38.000Z</time>
</trkpt>
<trkpt lat="45.7659230" lon="10.0157070">
	<ele>955.80</ele>
	<time>2023-04-15T07:20:39.000Z</time>
</trkpt>
<trkpt lat="45.7659210" lon="10.0156940">
	<ele>956.00</ele>
	<time>2023-04-15T07:20:42.000Z</time>
</trkpt>
<trkpt lat="45.7659030" lon="10.0156560">
	<ele>956.60</ele>
	<time>2023-04-15T07:20:46.000Z</time>
</trkpt>
<trkpt lat="45.7659000" lon="10.0156450">
	<ele>956.80</ele>
	<time>2023-04-15T07:20:47.000Z</time>
</trkpt>
<trkpt lat="45.7658710" lon="10.0155630">
	<ele>957.80</ele>
	<time>2023-04-15T07:20:54.000Z</time>
</trkpt>
<trkpt lat="45.7658500" lon="10.0155100">
	<ele>958.20</ele>
	<time>2023-04-15T07:20:58.000Z</time>
</trkpt>
<trkpt lat="45.7658370" lon="10.0154790">
	<ele>958.80</ele>
	<time>2023-04-15T07:21:02.000Z</time>
</trkpt>
<trkpt lat="45.7658480" lon="10.0154590">
	<ele>959.20</ele>
	<time>2023-04-15T07:21:04.000Z</time>
</trkpt>
<trkpt lat="45.7658440" lon="10.0154430">
	<ele>959.60</ele>
	<time>2023-04-15T07:21:06.000Z</time>
</trkpt>
<trkpt lat="45.7658430" lon="10.0154350">
	<ele>959.60</ele>
	<time>2023-04-15T07:21:07.000Z</time>
</trkpt>
<trkpt lat="45.7658430" lon="10.0154260">
	<ele>960.00</ele>
	<time>2023-04-15T07:21:09.000Z</time>
</trkpt>
<trkpt lat="45.7658350" lon="10.0154390">
	<ele>960.00</ele>
	<time>2023-04-15T07:21:10.000Z</time>
</trkpt>
<trkpt lat="45.7658430" lon="10.0154200">
	<ele>960.40</ele>
	<time>2023-04-15T07:21:12.000Z</time>
</trkpt>
<trkpt lat="45.7658440" lon="10.0154100">
	<ele>960.60</ele>
	<time>2023-04-15T07:21:13.000Z</time>
</trkpt>
<trkpt lat="45.7658510" lon="10.0153880">
	<ele>961.20</ele>
	<time>2023-04-15T07:21:15.000Z</time>
</trkpt>
<trkpt lat="45.7658500" lon="10.0153810">
	<ele>961.60</ele>
	<time>2023-04-15T07:21:17.000Z</time>
</trkpt>
<trkpt lat="45.7658520" lon="10.0153720">
	<ele>961.60</ele>
	<time>2023-04-15T07:21:19.000Z</time>
</trkpt>
<trkpt lat="45.7658530" lon="10.0153700">
	<ele>961.80</ele>
	<time>2023-04-15T07:21:20.000Z</time>
</trkpt>
<trkpt lat="45.7658560" lon="10.0153650">
	<ele>962.40</ele>
	<time>2023-04-15T07:21:22.000Z</time>
</trkpt>
<trkpt lat="45.7658490" lon="10.0153560">
	<ele>962.60</ele>
	<time>2023-04-15T07:21:24.000Z</time>
</trkpt>
<trkpt lat="45.7658480" lon="10.0153400">
	<ele>963.20</ele>
	<time>2023-04-15T07:21:27.000Z</time>
</trkpt>
<trkpt lat="45.7658520" lon="10.0153230">
	<ele>963.40</ele>
	<time>2023-04-15T07:21:29.000Z</time>
</trkpt>
<trkpt lat="45.7658410" lon="10.0152760">
	<ele>964.00</ele>
	<time>2023-04-15T07:21:33.000Z</time>
</trkpt>
<trkpt lat="45.7658320" lon="10.0152400">
	<ele>964.60</ele>
	<time>2023-04-15T07:21:37.000Z</time>
</trkpt>
<trkpt lat="45.7658430" lon="10.0151820">
	<ele>965.20</ele>
	<time>2023-04-15T07:21:43.000Z</time>
</trkpt>
<trkpt lat="45.7658420" lon="10.0151740">
	<ele>965.20</ele>
	<time>2023-04-15T07:21:44.000Z</time>
</trkpt>
<trkpt lat="45.7658430" lon="10.0151230">
	<ele>965.60</ele>
	<time>2023-04-15T07:21:47.000Z</time>
</trkpt>
<trkpt lat="45.7658270" lon="10.0150810">
	<ele>966.40</ele>
	<time>2023-04-15T07:21:51.000Z</time>
</trkpt>
<trkpt lat="45.7658250" lon="10.0150590">
	<ele>966.80</ele>
	<time>2023-04-15T07:21:53.000Z</time>
</trkpt>
<trkpt lat="45.7658270" lon="10.0150550">
	<ele>966.80</ele>
	<time>2023-04-15T07:21:54.000Z</time>
</trkpt>
<trkpt lat="45.7658270" lon="10.0150450">
	<ele>967.20</ele>
	<time>2023-04-15T07:21:56.000Z</time>
</trkpt>
<trkpt lat="45.7658300" lon="10.0150250">
	<ele>967.40</ele>
	<time>2023-04-15T07:21:58.000Z</time>
</trkpt>
<trkpt lat="45.7658310" lon="10.0150020">
	<ele>967.60</ele>
	<time>2023-04-15T07:22:00.000Z</time>
</trkpt>
<trkpt lat="45.7658330" lon="10.0149950">
	<ele>967.80</ele>
	<time>2023-04-15T07:22:01.000Z</time>
</trkpt>
<trkpt lat="45.7658340" lon="10.0149600">
	<ele>968.60</ele>
	<time>2023-04-15T07:22:06.000Z</time>
</trkpt>
<trkpt lat="45.7658310" lon="10.0149510">
	<ele>969.00</ele>
	<time>2023-04-15T07:22:08.000Z</time>
</trkpt>
<trkpt lat="45.7658300" lon="10.0149500">
	<ele>969.20</ele>
	<time>2023-04-15T07:22:09.000Z</time>
</trkpt>
<trkpt lat="45.7658150" lon="10.0149400">
	<ele>969.60</ele>
	<time>2023-04-15T07:22:15.000Z</time>
</trkpt>
<trkpt lat="45.7658110" lon="10.0149310">
	<ele>970.00</ele>
	<time>2023-04-15T07:22:16.000Z</time>
</trkpt>
<trkpt lat="45.7658080" lon="10.0148710">
	<ele>970.80</ele>
	<time>2023-04-15T07:22:22.000Z</time>
</trkpt>
<trkpt lat="45.7658100" lon="10.0148460">
	<ele>971.00</ele>
	<time>2023-04-15T07:22:24.000Z</time>
</trkpt>
<trkpt lat="45.7658090" lon="10.0148250">
	<ele>971.40</ele>
	<time>2023-04-15T07:22:26.000Z</time>
</trkpt>
<trkpt lat="45.7657900" lon="10.0147560">
	<ele>972.20</ele>
	<time>2023-04-15T07:22:32.000Z</time>
</trkpt>
<trkpt lat="45.7657890" lon="10.0147470">
	<ele>972.40</ele>
	<time>2023-04-15T07:22:33.000Z</time>
</trkpt>
<trkpt lat="45.7657930" lon="10.0146790">
	<ele>973.20</ele>
	<time>2023-04-15T07:22:38.000Z</time>
</trkpt>
<trkpt lat="45.7657760" lon="10.0146460">
	<ele>973.40</ele>
	<time>2023-04-15T07:22:41.000Z</time>
</trkpt>
<trkpt lat="45.7657530" lon="10.0145670">
	<ele>974.20</ele>
	<time>2023-04-15T07:22:48.000Z</time>
</trkpt>
<trkpt lat="45.7657300" lon="10.0145300">
	<ele>974.40</ele>
	<time>2023-04-15T07:22:50.000Z</time>
</trkpt>
<trkpt lat="45.7657320" lon="10.0144600">
	<ele>975.20</ele>
	<time>2023-04-15T07:22:57.000Z</time>
</trkpt>
<trkpt lat="45.7657450" lon="10.0143630">
	<ele>976.20</ele>
	<time>2023-04-15T07:23:05.000Z</time>
</trkpt>
<trkpt lat="45.7657450" lon="10.0143540">
	<ele>976.40</ele>
	<time>2023-04-15T07:23:06.000Z</time>
</trkpt>
<trkpt lat="45.7657440" lon="10.0143450">
	<ele>976.40</ele>
	<time>2023-04-15T07:23:07.000Z</time>
</trkpt>
<trkpt lat="45.7657450" lon="10.0143190">
	<ele>977.00</ele>
	<time>2023-04-15T07:23:10.000Z</time>
</trkpt>
<trkpt lat="45.7657490" lon="10.0142880">
	<ele>977.20</ele>
	<time>2023-04-15T07:23:13.000Z</time>
</trkpt>
<trkpt lat="45.7657540" lon="10.0142690">
	<ele>977.60</ele>
	<time>2023-04-15T07:23:15.000Z</time>
</trkpt>
<trkpt lat="45.7657550" lon="10.0142640">
	<ele>977.80</ele>
	<time>2023-04-15T07:23:16.000Z</time>
</trkpt>
<trkpt lat="45.7657560" lon="10.0142530">
	<ele>978.20</ele>
	<time>2023-04-15T07:23:19.000Z</time>
</trkpt>
<trkpt lat="45.7657560" lon="10.0142270">
	<ele>978.60</ele>
	<time>2023-04-15T07:23:22.000Z</time>
</trkpt>
<trkpt lat="45.7657610" lon="10.0142150">
	<ele>978.60</ele>
	<time>2023-04-15T07:23:27.000Z</time>
</trkpt>
<trkpt lat="45.7657670" lon="10.0142080">
	<ele>978.60</ele>
	<time>2023-04-15T07:23:29.000Z</time>
</trkpt>
<trkpt lat="45.7657750" lon="10.0141470">
	<ele>979.20</ele>
	<time>2023-04-15T07:23:35.000Z</time>
</trkpt>
<trkpt lat="45.7657730" lon="10.0141360">
	<ele>979.40</ele>
	<time>2023-04-15T07:23:36.000Z</time>
</trkpt>
<trkpt lat="45.7657600" lon="10.0140330">
	<ele>979.80</ele>
	<time>2023-04-15T07:23:44.000Z</time>
</trkpt>
<trkpt lat="45.7657550" lon="10.0139740">
	<ele>980.60</ele>
	<time>2023-04-15T07:23:50.000Z</time>
</trkpt>
<trkpt lat="45.7657550" lon="10.0139300">
	<ele>981.20</ele>
	<time>2023-04-15T07:23:55.000Z</time>
</trkpt>
<trkpt lat="45.7657560" lon="10.0139120">
	<ele>981.40</ele>
	<time>2023-04-15T07:23:57.000Z</time>
</trkpt>
<trkpt lat="45.7657590" lon="10.0138800">
	<ele>981.60</ele>
	<time>2023-04-15T07:24:00.000Z</time>
</trkpt>
<trkpt lat="45.7657470" lon="10.0138110">
	<ele>982.80</ele>
	<time>2023-04-15T07:24:08.000Z</time>
</trkpt>
<trkpt lat="45.7657470" lon="10.0137850">
	<ele>983.00</ele>
	<time>2023-04-15T07:24:10.000Z</time>
</trkpt>
<trkpt lat="45.7657290" lon="10.0137460">
	<ele>983.60</ele>
	<time>2023-04-15T07:24:15.000Z</time>
</trkpt>
<trkpt lat="45.7657250" lon="10.0137340">
	<ele>983.80</ele>
	<time>2023-04-15T07:24:16.000Z</time>
</trkpt>
<trkpt lat="45.7657280" lon="10.0137250">
	<ele>984.00</ele>
	<time>2023-04-15T07:24:17.000Z</time>
</trkpt>
<trkpt lat="45.7657310" lon="10.0137050">
	<ele>984.20</ele>
	<time>2023-04-15T07:24:19.000Z</time>
</trkpt>
<trkpt lat="45.7657310" lon="10.0136940">
	<ele>984.40</ele>
	<time>2023-04-15T07:24:20.000Z</time>
</trkpt>
<trkpt lat="45.7657310" lon="10.0136580">
	<ele>984.60</ele>
	<time>2023-04-15T07:24:23.000Z</time>
</trkpt>
<trkpt lat="45.7657390" lon="10.0136290">
	<ele>984.80</ele>
	<time>2023-04-15T07:24:26.000Z</time>
</trkpt>
<trkpt lat="45.7657400" lon="10.0136210">
	<ele>985.00</ele>
	<time>2023-04-15T07:24:27.000Z</time>
</trkpt>
<trkpt lat="45.7657270" lon="10.0135580">
	<ele>985.80</ele>
	<time>2023-04-15T07:24:34.000Z</time>
</trkpt>
<trkpt lat="45.7657270" lon="10.0135480">
	<ele>986.00</ele>
	<time>2023-04-15T07:24:35.000Z</time>
</trkpt>
<trkpt lat="45.7657270" lon="10.0135330">
	<ele>986.20</ele>
	<time>2023-04-15T07:24:37.000Z</time>
</trkpt>
<trkpt lat="45.7657230" lon="10.0134830">
	<ele>987.20</ele>
	<time>2023-04-15T07:24:42.000Z</time>
</trkpt>
<trkpt lat="45.7657200" lon="10.0134740">
	<ele>987.40</ele>
	<time>2023-04-15T07:24:43.000Z</time>
</trkpt>
<trkpt lat="45.7657170" lon="10.0134640">
	<ele>987.40</ele>
	<time>2023-04-15T07:24:44.000Z</time>
</trkpt>
<trkpt lat="45.7656990" lon="10.0134180">
	<ele>988.20</ele>
	<time>2023-04-15T07:24:49.000Z</time>
</trkpt>
<trkpt lat="45.7656980" lon="10.0134110">
	<ele>988.20</ele>
	<time>2023-04-15T07:24:50.000Z</time>
</trkpt>
<trkpt lat="45.7657010" lon="10.0133560">
	<ele>989.40</ele>
	<time>2023-04-15T07:24:56.000Z</time>
</trkpt>
<trkpt lat="45.7657010" lon="10.0132980">
	<ele>990.40</ele>
	<time>2023-04-15T07:25:03.000Z</time>
</trkpt>
<trkpt lat="45.7656960" lon="10.0132540">
	<ele>991.00</ele>
	<time>2023-04-15T07:25:10.000Z</time>
</trkpt>
<trkpt lat="45.7656920" lon="10.0132290">
	<ele>991.40</ele>
	<time>2023-04-15T07:25:13.000Z</time>
</trkpt>
<trkpt lat="45.7656870" lon="10.0131960">
	<ele>992.40</ele>
	<time>2023-04-15T07:25:17.000Z</time>
</trkpt>
<trkpt lat="45.7656870" lon="10.0131890">
	<ele>992.60</ele>
	<time>2023-04-15T07:25:18.000Z</time>
</trkpt>
<trkpt lat="45.7656840" lon="10.0131500">
	<ele>993.80</ele>
	<time>2023-04-15T07:25:26.000Z</time>
</trkpt>
<trkpt lat="45.7656810" lon="10.0131490">
	<ele>994.00</ele>
	<time>2023-04-15T07:25:33.000Z</time>
</trkpt>
<trkpt lat="45.7656810" lon="10.0131490">
	<ele>994.00</ele>
	<time>2023-04-15T07:25:46.000Z</time>
</trkpt>
<trkpt lat="45.7656810" lon="10.0131490">
	<ele>994.20</ele>
	<time>2023-04-15T07:25:50.000Z</time>
</trkpt>
<trkpt lat="45.7656800" lon="10.0131490">
	<ele>994.80</ele>
	<time>2023-04-15T07:25:57.000Z</time>
</trkpt>
<trkpt lat="45.7656790" lon="10.0131490">
	<ele>994.20</ele>
	<time>2023-04-15T07:26:03.000Z</time>
</trkpt>
<trkpt lat="45.7656760" lon="10.0131380">
	<ele>995.20</ele>
	<time>2023-04-15T07:26:14.000Z</time>
</trkpt>
<trkpt lat="45.7656710" lon="10.0130730">
	<ele>996.00</ele>
	<time>2023-04-15T07:26:18.000Z</time>
</trkpt>
<trkpt lat="45.7656630" lon="10.0130250">
	<ele>996.40</ele>
	<time>2023-04-15T07:26:21.000Z</time>
</trkpt>
<trkpt lat="45.7656530" lon="10.0129640">
	<ele>997.20</ele>
	<time>2023-04-15T07:26:25.000Z</time>
</trkpt>
<trkpt lat="45.7656500" lon="10.0129240">
	<ele>997.80</ele>
	<time>2023-04-15T07:26:30.000Z</time>
</trkpt>
<trkpt lat="45.7656500" lon="10.0129050">
	<ele>998.20</ele>
	<time>2023-04-15T07:26:32.000Z</time>
</trkpt>
<trkpt lat="45.7656510" lon="10.0128630">
	<ele>999.20</ele>
	<time>2023-04-15T07:26:37.000Z</time>
</trkpt>
<trkpt lat="45.7656480" lon="10.0128570">
	<ele>999.60</ele>
	<time>2023-04-15T07:26:38.000Z</time>
</trkpt>
<trkpt lat="45.7656450" lon="10.0128060">
	<ele>1000.60</ele>
	<time>2023-04-15T07:26:45.000Z</time>
</trkpt>
<trkpt lat="45.7656410" lon="10.0127920">
	<ele>1001.00</ele>
	<time>2023-04-15T07:26:47.000Z</time>
</trkpt>
<trkpt lat="45.7656410" lon="10.0127610">
	<ele>1001.80</ele>
	<time>2023-04-15T07:26:52.000Z</time>
</trkpt>
<trkpt lat="45.7656370" lon="10.0127460">
	<ele>1002.40</ele>
	<time>2023-04-15T07:26:55.000Z</time>
</trkpt>
<trkpt lat="45.7656330" lon="10.0127280">
	<ele>1003.00</ele>
	<time>2023-04-15T07:26:58.000Z</time>
</trkpt>
<trkpt lat="45.7656230" lon="10.0126770">
	<ele>1004.20</ele>
	<time>2023-04-15T07:27:04.000Z</time>
</trkpt>
<trkpt lat="45.7656040" lon="10.0126200">
	<ele>1005.40</ele>
	<time>2023-04-15T07:27:11.000Z</time>
</trkpt>
<trkpt lat="45.7656040" lon="10.0126150">
	<ele>1005.60</ele>
	<time>2023-04-15T07:27:12.000Z</time>
</trkpt>
<trkpt lat="45.7655900" lon="10.0125740">
	<ele>1006.40</ele>
	<time>2023-04-15T07:27:18.000Z</time>
</trkpt>
<trkpt lat="45.7655870" lon="10.0125690">
	<ele>1006.60</ele>
	<time>2023-04-15T07:27:19.000Z</time>
</trkpt>
<trkpt lat="45.7655850" lon="10.0125290">
	<ele>1007.60</ele>
	<time>2023-04-15T07:27:25.000Z</time>
</trkpt>
<trkpt lat="45.7655790" lon="10.0125010">
	<ele>1008.00</ele>
	<time>2023-04-15T07:27:28.000Z</time>
</trkpt>
<trkpt lat="45.7655740" lon="10.0124710">
	<ele>1008.80</ele>
	<time>2023-04-15T07:27:33.000Z</time>
</trkpt>
<trkpt lat="45.7655710" lon="10.0124560">
	<ele>1009.00</ele>
	<time>2023-04-15T07:27:35.000Z</time>
</trkpt>
<trkpt lat="45.7655550" lon="10.0124170">
	<ele>1009.80</ele>
	<time>2023-04-15T07:27:41.000Z</time>
</trkpt>
<trkpt lat="45.7655510" lon="10.0124060">
	<ele>1010.40</ele>
	<time>2023-04-15T07:27:44.000Z</time>
</trkpt>
<trkpt lat="45.7655470" lon="10.0123880">
	<ele>1010.80</ele>
	<time>2023-04-15T07:27:47.000Z</time>
</trkpt>
<trkpt lat="45.7655450" lon="10.0123570">
	<ele>1011.60</ele>
	<time>2023-04-15T07:27:53.000Z</time>
</trkpt>
<trkpt lat="45.7655420" lon="10.0123440">
	<ele>1012.00</ele>
	<time>2023-04-15T07:27:56.000Z</time>
</trkpt>
<trkpt lat="45.7655340" lon="10.0123010">
	<ele>1012.80</ele>
	<time>2023-04-15T07:28:02.000Z</time>
</trkpt>
<trkpt lat="45.7655340" lon="10.0122930">
	<ele>1013.20</ele>
	<time>2023-04-15T07:28:04.000Z</time>
</trkpt>
<trkpt lat="45.7655240" lon="10.0122590">
	<ele>1014.40</ele>
	<time>2023-04-15T07:28:10.000Z</time>
</trkpt>
<trkpt lat="45.7655080" lon="10.0122130">
	<ele>1015.40</ele>
	<time>2023-04-15T07:28:17.000Z</time>
</trkpt>
<trkpt lat="45.7655060" lon="10.0121870">
	<ele>1016.00</ele>
	<time>2023-04-15T07:28:21.000Z</time>
</trkpt>
<trkpt lat="45.7655050" lon="10.0121700">
	<ele>1016.60</ele>
	<time>2023-04-15T07:28:24.000Z</time>
</trkpt>
<trkpt lat="45.7655030" lon="10.0121400">
	<ele>1017.80</ele>
	<time>2023-04-15T07:28:29.000Z</time>
</trkpt>
<trkpt lat="45.7655020" lon="10.0121320">
	<ele>1018.00</ele>
	<time>2023-04-15T07:28:31.000Z</time>
</trkpt>
<trkpt lat="45.7654900" lon="10.0121050">
	<ele>1018.80</ele>
	<time>2023-04-15T07:28:35.000Z</time>
</trkpt>
<trkpt lat="45.7654720" lon="10.0120650">
	<ele>1020.00</ele>
	<time>2023-04-15T07:28:42.000Z</time>
</trkpt>
<trkpt lat="45.7654700" lon="10.0120580">
	<ele>1020.00</ele>
	<time>2023-04-15T07:28:43.000Z</time>
</trkpt>
<trkpt lat="45.7654630" lon="10.0120060">
	<ele>1021.00</ele>
	<time>2023-04-15T07:28:49.000Z</time>
</trkpt>
<trkpt lat="45.7654570" lon="10.0119840">
	<ele>1021.40</ele>
	<time>2023-04-15T07:28:52.000Z</time>
</trkpt>
<trkpt lat="45.7654530" lon="10.0119570">
	<ele>1022.20</ele>
	<time>2023-04-15T07:28:56.000Z</time>
</trkpt>
<trkpt lat="45.7654380" lon="10.0119260">
	<ele>1023.20</ele>
	<time>2023-04-15T07:29:02.000Z</time>
</trkpt>
<trkpt lat="45.7654260" lon="10.0118800">
	<ele>1024.40</ele>
	<time>2023-04-15T07:29:08.000Z</time>
</trkpt>
<trkpt lat="45.7654240" lon="10.0118690">
	<ele>1024.80</ele>
	<time>2023-04-15T07:29:10.000Z</time>
</trkpt>
<trkpt lat="45.7654120" lon="10.0118360">
	<ele>1025.40</ele>
	<time>2023-04-15T07:29:15.000Z</time>
</trkpt>
<trkpt lat="45.7654020" lon="10.0117940">
	<ele>1026.40</ele>
	<time>2023-04-15T07:29:20.000Z</time>
</trkpt>
<trkpt lat="45.7654010" lon="10.0117890">
	<ele>1026.60</ele>
	<time>2023-04-15T07:29:21.000Z</time>
</trkpt>
<trkpt lat="45.7653890" lon="10.0117260">
	<ele>1027.60</ele>
	<time>2023-04-15T07:29:30.000Z</time>
</trkpt>
<trkpt lat="45.7653810" lon="10.0116830">
	<ele>1028.60</ele>
	<time>2023-04-15T07:29:36.000Z</time>
</trkpt>
<trkpt lat="45.7653710" lon="10.0116550">
	<ele>1029.20</ele>
	<time>2023-04-15T07:29:39.000Z</time>
</trkpt>
<trkpt lat="45.7653660" lon="10.0116180">
	<ele>1029.80</ele>
	<time>2023-04-15T07:29:43.000Z</time>
</trkpt>
<trkpt lat="45.7653660" lon="10.0116070">
	<ele>1030.40</ele>
	<time>2023-04-15T07:29:47.000Z</time>
</trkpt>
<trkpt lat="45.7653630" lon="10.0116040">
	<ele>1030.60</ele>
	<time>2023-04-15T07:29:51.000Z</time>
</trkpt>
<trkpt lat="45.7653500" lon="10.0115390">
	<ele>1031.00</ele>
	<time>2023-04-15T07:29:58.000Z</time>
</trkpt>
<trkpt lat="45.7653550" lon="10.0115180">
	<ele>1031.20</ele>
	<time>2023-04-15T07:30:04.000Z</time>
</trkpt>
<trkpt lat="45.7653600" lon="10.0115230">
	<ele>1031.60</ele>
	<time>2023-04-15T07:30:10.000Z</time>
</trkpt>
<trkpt lat="45.7653600" lon="10.0115230">
	<ele>1031.60</ele>
	<time>2023-04-15T07:30:11.000Z</time>
</trkpt>
<trkpt lat="45.7653620" lon="10.0115270">
	<ele>1031.40</ele>
	<time>2023-04-15T07:30:30.000Z</time>
</trkpt>
<trkpt lat="45.7653640" lon="10.0115290">
	<ele>1032.00</ele>
	<time>2023-04-15T07:30:37.000Z</time>
</trkpt>
<trkpt lat="45.7653650" lon="10.0115310">
	<ele>1031.40</ele>
	<time>2023-04-15T07:30:40.000Z</time>
</trkpt>
<trkpt lat="45.7653660" lon="10.0115330">
	<ele>1031.40</ele>
	<time>2023-04-15T07:30:46.000Z</time>
</trkpt>
<trkpt lat="45.7653680" lon="10.0115360">
	<ele>1031.40</ele>
	<time>2023-04-15T07:30:50.000Z</time>
</trkpt>
<trkpt lat="45.7653760" lon="10.0115390">
	<ele>1031.40</ele>
	<time>2023-04-15T07:30:54.000Z</time>
</trkpt>
<trkpt lat="45.7653810" lon="10.0115510">
	<ele>1031.20</ele>
	<time>2023-04-15T07:30:56.000Z</time>
</trkpt>
<trkpt lat="45.7653860" lon="10.0115680">
	<ele>1031.40</ele>
	<time>2023-04-15T07:31:08.000Z</time>
</trkpt>
<trkpt lat="45.7653870" lon="10.0115640">
	<ele>1031.80</ele>
	<time>2023-04-15T07:31:21.000Z</time>
</trkpt>
<trkpt lat="45.7653880" lon="10.0115630">
	<ele>1031.80</ele>
	<time>2023-04-15T07:31:26.000Z</time>
</trkpt>
<trkpt lat="45.7653890" lon="10.0115630">
	<ele>1031.20</ele>
	<time>2023-04-15T07:31:31.000Z</time>
</trkpt>
<trkpt lat="45.7653880" lon="10.0115640">
	<ele>1031.00</ele>
	<time>2023-04-15T07:31:35.000Z</time>
</trkpt>
<trkpt lat="45.7653890" lon="10.0115670">
	<ele>1031.40</ele>
	<time>2023-04-15T07:31:38.000Z</time>
</trkpt>
<trkpt lat="45.7653890" lon="10.0115690">
	<ele>1032.00</ele>
	<time>2023-04-15T07:31:41.000Z</time>
</trkpt>
<trkpt lat="45.7653900" lon="10.0115690">
	<ele>1032.20</ele>
	<time>2023-04-15T07:31:42.000Z</time>
</trkpt>
<trkpt lat="45.7653900" lon="10.0115690">
	<ele>1032.40</ele>
	<time>2023-04-15T07:31:44.000Z</time>
</trkpt>
<trkpt lat="45.7654100" lon="10.0115660">
	<ele>1031.80</ele>
	<time>2023-04-15T07:32:03.000Z</time>
</trkpt>
<trkpt lat="45.7654000" lon="10.0115780">
	<ele>1031.80</ele>
	<time>2023-04-15T07:32:21.000Z</time>
</trkpt>
<trkpt lat="45.7653980" lon="10.0115790">
	<ele>1031.60</ele>
	<time>2023-04-15T07:32:26.000Z</time>
</trkpt>
<trkpt lat="45.7653960" lon="10.0115790">
	<ele>1031.60</ele>
	<time>2023-04-15T07:32:32.000Z</time>
</trkpt>
<trkpt lat="45.7653950" lon="10.0115760">
	<ele>1031.60</ele>
	<time>2023-04-15T07:32:37.000Z</time>
</trkpt>
<trkpt lat="45.7653920" lon="10.0115700">
	<ele>1032.00</ele>
	<time>2023-04-15T07:32:56.000Z</time>
</trkpt>
<trkpt lat="45.7653810" lon="10.0115560">
	<ele>1032.40</ele>
	<time>2023-04-15T07:32:59.000Z</time>
</trkpt>
<trkpt lat="45.7653540" lon="10.0114500">
	<ele>1032.80</ele>
	<time>2023-04-15T07:33:03.000Z</time>
</trkpt>
<trkpt lat="45.7653470" lon="10.0114260">
	<ele>1032.80</ele>
	<time>2023-04-15T07:33:04.000Z</time>
</trkpt>
<trkpt lat="45.7653400" lon="10.0114000">
	<ele>1032.80</ele>
	<time>2023-04-15T07:33:05.000Z</time>
</trkpt>
<trkpt lat="45.7653300" lon="10.0113500">
	<ele>1033.00</ele>
	<time>2023-04-15T07:33:07.000Z</time>
</trkpt>
<trkpt lat="45.7653200" lon="10.0113220">
	<ele>1033.20</ele>
	<time>2023-04-15T07:33:08.000Z</time>
</trkpt>
<trkpt lat="45.7653110" lon="10.0112770">
	<ele>1033.40</ele>
	<time>2023-04-15T07:33:11.000Z</time>
</trkpt>
<trkpt lat="45.7653150" lon="10.0112500">
	<ele>1033.60</ele>
	<time>2023-04-15T07:33:13.000Z</time>
</trkpt>
<trkpt lat="45.7653140" lon="10.0112120">
	<ele>1034.00</ele>
	<time>2023-04-15T07:33:16.000Z</time>
</trkpt>
<trkpt lat="45.7653140" lon="10.0112010">
	<ele>1034.00</ele>
	<time>2023-04-15T07:33:17.000Z</time>
</trkpt>
<trkpt lat="45.7653160" lon="10.0111850">
	<ele>1034.20</ele>
	<time>2023-04-15T07:33:18.000Z</time>
</trkpt>
<trkpt lat="45.7653080" lon="10.0111550">
	<ele>1034.40</ele>
	<time>2023-04-15T07:33:20.000Z</time>
</trkpt>
<trkpt lat="45.7652980" lon="10.0111100">
	<ele>1034.80</ele>
	<time>2023-04-15T07:33:24.000Z</time>
</trkpt>
<trkpt lat="45.7652920" lon="10.0110720">
	<ele>1035.20</ele>
	<time>2023-04-15T07:33:27.000Z</time>
</trkpt>
<trkpt lat="45.7652890" lon="10.0110580">
	<ele>1035.20</ele>
	<time>2023-04-15T07:33:28.000Z</time>
</trkpt>
<trkpt lat="45.7652740" lon="10.0110010">
	<ele>1036.20</ele>
	<time>2023-04-15T07:33:34.000Z</time>
</trkpt>
<trkpt lat="45.7652710" lon="10.0109930">
	<ele>1036.40</ele>
	<time>2023-04-15T07:33:35.000Z</time>
</trkpt>
<trkpt lat="45.7652590" lon="10.0109550">
	<ele>1036.80</ele>
	<time>2023-04-15T07:33:39.000Z</time>
</trkpt>
<trkpt lat="45.7652450" lon="10.0109140">
	<ele>1037.40</ele>
	<time>2023-04-15T07:33:44.000Z</time>
</trkpt>
<trkpt lat="45.7652500" lon="10.0108970">
	<ele>1037.60</ele>
	<time>2023-04-15T07:33:47.000Z</time>
</trkpt>
<trkpt lat="45.7652480" lon="10.0108990">
	<ele>1038.00</ele>
	<time>2023-04-15T07:33:55.000Z</time>
</trkpt>
<trkpt lat="45.7652480" lon="10.0108990">
	<ele>1037.80</ele>
	<time>2023-04-15T07:34:05.000Z</time>
</trkpt>
<trkpt lat="45.7652430" lon="10.0109000">
	<ele>1038.40</ele>
	<time>2023-04-15T07:34:19.000Z</time>
</trkpt>
<trkpt lat="45.7652080" lon="10.0108040">
	<ele>1039.60</ele>
	<time>2023-04-15T07:34:27.000Z</time>
</trkpt>
<trkpt lat="45.7651960" lon="10.0107250">
	<ele>1040.00</ele>
	<time>2023-04-15T07:34:31.000Z</time>
</trkpt>
<trkpt lat="45.7651860" lon="10.0107090">
	<ele>1040.40</ele>
	<time>2023-04-15T07:34:33.000Z</time>
</trkpt>
<trkpt lat="45.7651790" lon="10.0106990">
	<ele>1040.60</ele>
	<time>2023-04-15T07:34:35.000Z</time>
</trkpt>
<trkpt lat="45.7651660" lon="10.0106550">
	<ele>1041.20</ele>
	<time>2023-04-15T07:34:40.000Z</time>
</trkpt>
<trkpt lat="45.7651660" lon="10.0106460">
	<ele>1041.40</ele>
	<time>2023-04-15T07:34:41.000Z</time>
</trkpt>
<trkpt lat="45.7651520" lon="10.0106120">
	<ele>1041.60</ele>
	<time>2023-04-15T07:34:44.000Z</time>
</trkpt>
<trkpt lat="45.7651440" lon="10.0105750">
	<ele>1042.00</ele>
	<time>2023-04-15T07:34:48.000Z</time>
</trkpt>
<trkpt lat="45.7651230" lon="10.0105490">
	<ele>1042.80</ele>
	<time>2023-04-15T07:34:52.000Z</time>
</trkpt>
<trkpt lat="45.7651190" lon="10.0105370">
	<ele>1042.80</ele>
	<time>2023-04-15T07:34:54.000Z</time>
</trkpt>
<trkpt lat="45.7651080" lon="10.0105050">
	<ele>1043.60</ele>
	<time>2023-04-15T07:34:59.000Z</time>
</trkpt>
<trkpt lat="45.7651060" lon="10.0104930">
	<ele>1043.80</ele>
	<time>2023-04-15T07:35:01.000Z</time>
</trkpt>
<trkpt lat="45.7650980" lon="10.0104800">
	<ele>1044.40</ele>
	<time>2023-04-15T07:35:05.000Z</time>
</trkpt>
<trkpt lat="45.7650940" lon="10.0104670">
	<ele>1044.80</ele>
	<time>2023-04-15T07:35:07.000Z</time>
</trkpt>
<trkpt lat="45.7650780" lon="10.0104470">
	<ele>1045.00</ele>
	<time>2023-04-15T07:35:13.000Z</time>
</trkpt>
<trkpt lat="45.7650860" lon="10.0103760">
	<ele>1045.60</ele>
	<time>2023-04-15T07:35:22.000Z</time>
</trkpt>
<trkpt lat="45.7650810" lon="10.0103670">
	<ele>1045.80</ele>
	<time>2023-04-15T07:35:23.000Z</time>
</trkpt>
<trkpt lat="45.7650730" lon="10.0103530">
	<ele>1046.20</ele>
	<time>2023-04-15T07:35:25.000Z</time>
</trkpt>
<trkpt lat="45.7650780" lon="10.0103460">
	<ele>1046.60</ele>
	<time>2023-04-15T07:35:27.000Z</time>
</trkpt>
<trkpt lat="45.7650770" lon="10.0103260">
	<ele>1047.00</ele>
	<time>2023-04-15T07:35:29.000Z</time>
</trkpt>
<trkpt lat="45.7650810" lon="10.0103040">
	<ele>1047.40</ele>
	<time>2023-04-15T07:35:32.000Z</time>
</trkpt>
<trkpt lat="45.7650990" lon="10.0102660">
	<ele>1048.00</ele>
	<time>2023-04-15T07:35:39.000Z</time>
</trkpt>
<trkpt lat="45.7651090" lon="10.0102450">
	<ele>1048.60</ele>
	<time>2023-04-15T07:35:44.000Z</time>
</trkpt>
<trkpt lat="45.7651060" lon="10.0101790">
	<ele>1049.00</ele>
	<time>2023-04-15T07:35:48.000Z</time>
</trkpt>
<trkpt lat="45.7651040" lon="10.0101680">
	<ele>1049.20</ele>
	<time>2023-04-15T07:35:49.000Z</time>
</trkpt>
<trkpt lat="45.7650930" lon="10.0101090">
	<ele>1050.00</ele>
	<time>2023-04-15T07:35:54.000Z</time>
</trkpt>
<trkpt lat="45.7650950" lon="10.0101070">
	<ele>1050.20</ele>
	<time>2023-04-15T07:35:55.000Z</time>
</trkpt>
<trkpt lat="45.7650760" lon="10.0100650">
	<ele>1051.00</ele>
	<time>2023-04-15T07:36:00.000Z</time>
</trkpt>
<trkpt lat="45.7650840" lon="10.0100480">
	<ele>1051.40</ele>
	<time>2023-04-15T07:36:03.000Z</time>
</trkpt>
<trkpt lat="45.7650950" lon="10.0100110">
	<ele>1052.40</ele>
	<time>2023-04-15T07:36:07.000Z</time>
</trkpt>
<trkpt lat="45.7651010" lon="10.0099980">
	<ele>1052.60</ele>
	<time>2023-04-15T07:36:08.000Z</time>
</trkpt>
<trkpt lat="45.7651070" lon="10.0099830">
	<ele>1052.80</ele>
	<time>2023-04-15T07:36:09.000Z</time>
</trkpt>
<trkpt lat="45.7650830" lon="10.0099180">
	<ele>1053.60</ele>
	<time>2023-04-15T07:36:16.000Z</time>
</trkpt>
<trkpt lat="45.7651000" lon="10.0099080">
	<ele>1053.80</ele>
	<time>2023-04-15T07:36:18.000Z</time>
</trkpt>
<trkpt lat="45.7651170" lon="10.0098750">
	<ele>1054.20</ele>
	<time>2023-04-15T07:36:20.000Z</time>
</trkpt>
<trkpt lat="45.7651330" lon="10.0098420">
	<ele>1054.60</ele>
	<time>2023-04-15T07:36:23.000Z</time>
</trkpt>
<trkpt lat="45.7651230" lon="10.0097840">
	<ele>1055.40</ele>
	<time>2023-04-15T07:36:28.000Z</time>
</trkpt>
<trkpt lat="45.7651320" lon="10.0097530">
	<ele>1055.80</ele>
	<time>2023-04-15T07:36:31.000Z</time>
</trkpt>
<trkpt lat="45.7651280" lon="10.0097260">
	<ele>1056.20</ele>
	<time>2023-04-15T07:36:34.000Z</time>
</trkpt>
<trkpt lat="45.7651320" lon="10.0096800">
	<ele>1056.80</ele>
	<time>2023-04-15T07:36:39.000Z</time>
</trkpt>
<trkpt lat="45.7651320" lon="10.0096670">
	<ele>1057.20</ele>
	<time>2023-04-15T07:36:41.000Z</time>
</trkpt>
<trkpt lat="45.7651340" lon="10.0096230">
	<ele>1057.80</ele>
	<time>2023-04-15T07:36:45.000Z</time>
</trkpt>
<trkpt lat="45.7651350" lon="10.0096170">
	<ele>1058.00</ele>
	<time>2023-04-15T07:36:46.000Z</time>
</trkpt>
<trkpt lat="45.7651280" lon="10.0095710">
	<ele>1058.60</ele>
	<time>2023-04-15T07:36:50.000Z</time>
</trkpt>
<trkpt lat="45.7651270" lon="10.0095490">
	<ele>1059.00</ele>
	<time>2023-04-15T07:36:52.000Z</time>
</trkpt>
<trkpt lat="45.7651200" lon="10.0095140">
	<ele>1059.20</ele>
	<time>2023-04-15T07:36:55.000Z</time>
</trkpt>
<trkpt lat="45.7651220" lon="10.0094750">
	<ele>1059.60</ele>
	<time>2023-04-15T07:36:58.000Z</time>
</trkpt>
<trkpt lat="45.7651290" lon="10.0094220">
	<ele>1060.00</ele>
	<time>2023-04-15T07:37:03.000Z</time>
</trkpt>
<trkpt lat="45.7651300" lon="10.0094050">
	<ele>1060.20</ele>
	<time>2023-04-15T07:37:05.000Z</time>
</trkpt>
<trkpt lat="45.7651580" lon="10.0093430">
	<ele>1060.80</ele>
	<time>2023-04-15T07:37:12.000Z</time>
</trkpt>
<trkpt lat="45.7651650" lon="10.0093330">
	<ele>1061.20</ele>
	<time>2023-04-15T07:37:14.000Z</time>
</trkpt>
<trkpt lat="45.7651750" lon="10.0093080">
	<ele>1061.80</ele>
	<time>2023-04-15T07:37:19.000Z</time>
</trkpt>
<trkpt lat="45.7651760" lon="10.0093030">
	<ele>1062.00</ele>
	<time>2023-04-15T07:37:22.000Z</time>
</trkpt>
<trkpt lat="45.7651760" lon="10.0093030">
	<ele>1062.20</ele>
	<time>2023-04-15T07:37:24.000Z</time>
</trkpt>
<trkpt lat="45.7651750" lon="10.0093020">
	<ele>1062.20</ele>
	<time>2023-04-15T07:37:33.000Z</time>
</trkpt>
<trkpt lat="45.7651760" lon="10.0093020">
	<ele>1062.20</ele>
	<time>2023-04-15T07:37:37.000Z</time>
</trkpt>
<trkpt lat="45.7651760" lon="10.0093020">
	<ele>1062.20</ele>
	<time>2023-04-15T07:37:40.000Z</time>
</trkpt>
<trkpt lat="45.7651760" lon="10.0093020">
	<ele>1062.20</ele>
	<time>2023-04-15T07:37:45.000Z</time>
</trkpt>
<trkpt lat="45.7651770" lon="10.0093010">
	<ele>1062.20</ele>
	<time>2023-04-15T07:37:48.000Z</time>
</trkpt>
<trkpt lat="45.7651800" lon="10.0092990">
	<ele>1062.20</ele>
	<time>2023-04-15T07:38:02.000Z</time>
</trkpt>
<trkpt lat="45.7652070" lon="10.0093010">
	<ele>1062.20</ele>
	<time>2023-04-15T07:38:15.000Z</time>
</trkpt>
<trkpt lat="45.7652050" lon="10.0093050">
	<ele>1062.40</ele>
	<time>2023-04-15T07:38:22.000Z</time>
</trkpt>
<trkpt lat="45.7651970" lon="10.0093050">
	<ele>1062.40</ele>
	<time>2023-04-15T07:38:24.000Z</time>
</trkpt>
<trkpt lat="45.7651820" lon="10.0093010">
	<ele>1062.00</ele>
	<time>2023-04-15T07:38:40.000Z</time>
</trkpt>
<trkpt lat="45.7651790" lon="10.0093000">
	<ele>1062.00</ele>
	<time>2023-04-15T07:38:47.000Z</time>
</trkpt>
<trkpt lat="45.7651790" lon="10.0092990">
	<ele>1062.00</ele>
	<time>2023-04-15T07:38:54.000Z</time>
</trkpt>
<trkpt lat="45.7651760" lon="10.0092970">
	<ele>1062.00</ele>
	<time>2023-04-15T07:39:02.000Z</time>
</trkpt>
<trkpt lat="45.7651760" lon="10.0092970">
	<ele>1062.00</ele>
	<time>2023-04-15T07:39:04.000Z</time>
</trkpt>
<trkpt lat="45.7651680" lon="10.0092580">
	<ele>1062.00</ele>
	<time>2023-04-15T07:39:15.000Z</time>
</trkpt>
<trkpt lat="45.7651680" lon="10.0092440">
	<ele>1062.00</ele>
	<time>2023-04-15T07:39:18.000Z</time>
</trkpt>
<trkpt lat="45.7651550" lon="10.0091420">
	<ele>1062.00</ele>
	<time>2023-04-15T07:39:23.000Z</time>
</trkpt>
<trkpt lat="45.7651580" lon="10.0091160">
	<ele>1062.00</ele>
	<time>2023-04-15T07:39:24.000Z</time>
</trkpt>
<trkpt lat="45.7651460" lon="10.0090080">
	<ele>1062.00</ele>
	<time>2023-04-15T07:39:29.000Z</time>
</trkpt>
<trkpt lat="45.7651390" lon="10.0089890">
	<ele>1063.20</ele>
	<time>2023-04-15T07:39:32.000Z</time>
</trkpt>
<trkpt lat="45.7651390" lon="10.0089770">
	<ele>1064.40</ele>
	<time>2023-04-15T07:39:34.000Z</time>
</trkpt>
<trkpt lat="45.7651400" lon="10.0089290">
	<ele>1065.20</ele>
	<time>2023-04-15T07:39:39.000Z</time>
</trkpt>
<trkpt lat="45.7651370" lon="10.0089090">
	<ele>1065.60</ele>
	<time>2023-04-15T07:39:41.000Z</time>
</trkpt>
<trkpt lat="45.7651590" lon="10.0088590">
	<ele>1066.40</ele>
	<time>2023-04-15T07:39:47.000Z</time>
</trkpt>
<trkpt lat="45.7651640" lon="10.0088470">
	<ele>1066.40</ele>
	<time>2023-04-15T07:39:48.000Z</time>
</trkpt>
<trkpt lat="45.7651660" lon="10.0088410">
	<ele>1066.60</ele>
	<time>2023-04-15T07:39:49.000Z</time>
</trkpt>
<trkpt lat="45.7651750" lon="10.0087980">
	<ele>1067.20</ele>
	<time>2023-04-15T07:39:56.000Z</time>
</trkpt>
<trkpt lat="45.7651640" lon="10.0087460">
	<ele>1067.60</ele>
	<time>2023-04-15T07:40:00.000Z</time>
</trkpt>
<trkpt lat="45.7651760" lon="10.0087260">
	<ele>1068.00</ele>
	<time>2023-04-15T07:40:03.000Z</time>
</trkpt>
<trkpt lat="45.7651560" lon="10.0086920">
	<ele>1068.40</ele>
	<time>2023-04-15T07:40:07.000Z</time>
</trkpt>
<trkpt lat="45.7651520" lon="10.0086700">
	<ele>1068.80</ele>
	<time>2023-04-15T07:40:10.000Z</time>
</trkpt>
<trkpt lat="45.7651480" lon="10.0086280">
	<ele>1069.00</ele>
	<time>2023-04-15T07:40:14.000Z</time>
</trkpt>
<trkpt lat="45.7651390" lon="10.0086190">
	<ele>1069.20</ele>
	<time>2023-04-15T07:40:15.000Z</time>
</trkpt>
<trkpt lat="45.7651310" lon="10.0085990">
	<ele>1069.40</ele>
	<time>2023-04-15T07:40:17.000Z</time>
</trkpt>
<trkpt lat="45.7651310" lon="10.0085930">
	<ele>1069.60</ele>
	<time>2023-04-15T07:40:18.000Z</time>
</trkpt>
<trkpt lat="45.7651310" lon="10.0085830">
	<ele>1069.80</ele>
	<time>2023-04-15T07:40:19.000Z</time>
</trkpt>
<trkpt lat="45.7651350" lon="10.0085700">
	<ele>1069.80</ele>
	<time>2023-04-15T07:40:20.000Z</time>
</trkpt>
<trkpt lat="45.7651400" lon="10.0085610">
	<ele>1069.80</ele>
	<time>2023-04-15T07:40:22.000Z</time>
</trkpt>
<trkpt lat="45.7651250" lon="10.0084970">
	<ele>1070.60</ele>
	<time>2023-04-15T07:40:28.000Z</time>
</trkpt>
<trkpt lat="45.7651020" lon="10.0084530">
	<ele>1070.80</ele>
	<time>2023-04-15T07:40:31.000Z</time>
</trkpt>
<trkpt lat="45.7650860" lon="10.0084200">
	<ele>1071.40</ele>
	<time>2023-04-15T07:40:35.000Z</time>
</trkpt>
<trkpt lat="45.7650800" lon="10.0084220">
	<ele>1071.60</ele>
	<time>2023-04-15T07:40:39.000Z</time>
</trkpt>
<trkpt lat="45.7650950" lon="10.0083860">
	<ele>1071.80</ele>
	<time>2023-04-15T07:40:42.000Z</time>
</trkpt>
<trkpt lat="45.7650910" lon="10.0083840">
	<ele>1072.00</ele>
	<time>2023-04-15T07:40:46.000Z</time>
</trkpt>
<trkpt lat="45.7650860" lon="10.0084390">
	<ele>1071.80</ele>
	<time>2023-04-15T07:40:52.000Z</time>
</trkpt>
<trkpt lat="45.7650700" lon="10.0084460">
	<ele>1072.20</ele>
	<time>2023-04-15T07:40:59.000Z</time>
</trkpt>
<trkpt lat="45.7651090" lon="10.0084590">
	<ele>1072.60</ele>
	<time>2023-04-15T07:41:06.000Z</time>
</trkpt>
<trkpt lat="45.7651020" lon="10.0084590">
	<ele>1072.00</ele>
	<time>2023-04-15T07:41:11.000Z</time>
</trkpt>
<trkpt lat="45.7650870" lon="10.0084620">
	<ele>1072.20</ele>
	<time>2023-04-15T07:41:16.000Z</time>
</trkpt>
<trkpt lat="45.7650600" lon="10.0084470">
	<ele>1073.20</ele>
	<time>2023-04-15T07:41:20.000Z</time>
</trkpt>
<trkpt lat="45.7650490" lon="10.0084450">
	<ele>1073.60</ele>
	<time>2023-04-15T07:41:23.000Z</time>
</trkpt>
<trkpt lat="45.7650490" lon="10.0084460">
	<ele>1073.80</ele>
	<time>2023-04-15T07:41:24.000Z</time>
</trkpt>
<trkpt lat="45.7650360" lon="10.0084420">
	<ele>1074.00</ele>
	<time>2023-04-15T07:41:28.000Z</time>
</trkpt>
<trkpt lat="45.7650310" lon="10.0084340">
	<ele>1074.40</ele>
	<time>2023-04-15T07:41:30.000Z</time>
</trkpt>
<trkpt lat="45.7650100" lon="10.0084180">
	<ele>1075.40</ele>
	<time>2023-04-15T07:41:38.000Z</time>
</trkpt>
<trkpt lat="45.7649770" lon="10.0084100">
	<ele>1075.20</ele>
	<time>2023-04-15T07:41:43.000Z</time>
</trkpt>
<trkpt lat="45.7649480" lon="10.0083790">
	<ele>1075.60</ele>
	<time>2023-04-15T07:41:47.000Z</time>
</trkpt>
<trkpt lat="45.7649390" lon="10.0083690">
	<ele>1076.00</ele>
	<time>2023-04-15T07:41:49.000Z</time>
</trkpt>
<trkpt lat="45.7649410" lon="10.0083510">
	<ele>1076.20</ele>
	<time>2023-04-15T07:41:52.000Z</time>
</trkpt>
<trkpt lat="45.7649320" lon="10.0083040">
	<ele>1076.80</ele>
	<time>2023-04-15T07:41:55.000Z</time>
</trkpt>
<trkpt lat="45.7649260" lon="10.0082820">
	<ele>1077.00</ele>
	<time>2023-04-15T07:41:56.000Z</time>
</trkpt>
<trkpt lat="45.7649220" lon="10.0082730">
	<ele>1077.80</ele>
	<time>2023-04-15T07:42:00.000Z</time>
</trkpt>
<trkpt lat="45.7649200" lon="10.0082670">
	<ele>1077.80</ele>
	<time>2023-04-15T07:42:01.000Z</time>
</trkpt>
<trkpt lat="45.7648880" lon="10.0082280">
	<ele>1078.80</ele>
	<time>2023-04-15T07:42:07.000Z</time>
</trkpt>
<trkpt lat="45.7648740" lon="10.0082200">
	<ele>1079.00</ele>
	<time>2023-04-15T07:42:08.000Z</time>
</trkpt>
<trkpt lat="45.7648530" lon="10.0082080">
	<ele>1079.80</ele>
	<time>2023-04-15T07:42:12.000Z</time>
</trkpt>
<trkpt lat="45.7648370" lon="10.0082090">
	<ele>1080.00</ele>
	<time>2023-04-15T07:42:14.000Z</time>
</trkpt>
<trkpt lat="45.7648150" lon="10.0081860">
	<ele>1080.40</ele>
	<time>2023-04-15T07:42:18.000Z</time>
</trkpt>
<trkpt lat="45.7648060" lon="10.0081840">
	<ele>1080.60</ele>
	<time>2023-04-15T07:42:19.000Z</time>
</trkpt>
<trkpt lat="45.7647950" lon="10.0081750">
	<ele>1081.20</ele>
	<time>2023-04-15T07:42:21.000Z</time>
</trkpt>
<trkpt lat="45.7647730" lon="10.0081490">
	<ele>1081.40</ele>
	<time>2023-04-15T07:42:24.000Z</time>
</trkpt>
<trkpt lat="45.7647560" lon="10.0081270">
	<ele>1082.20</ele>
	<time>2023-04-15T07:42:28.000Z</time>
</trkpt>
<trkpt lat="45.7647350" lon="10.0081250">
	<ele>1082.40</ele>
	<time>2023-04-15T07:42:31.000Z</time>
</trkpt>
<trkpt lat="45.7646630" lon="10.0080960">
	<ele>1082.80</ele>
	<time>2023-04-15T07:42:37.000Z</time>
</trkpt>
<trkpt lat="45.7646450" lon="10.0080830">
	<ele>1083.40</ele>
	<time>2023-04-15T07:42:40.000Z</time>
</trkpt>
<trkpt lat="45.7646010" lon="10.0080430">
	<ele>1084.20</ele>
	<time>2023-04-15T07:42:45.000Z</time>
</trkpt>
<trkpt lat="45.7646020" lon="10.0080310">
	<ele>1084.40</ele>
	<time>2023-04-15T07:42:47.000Z</time>
</trkpt>
<trkpt lat="45.7645810" lon="10.0080150">
	<ele>1085.20</ele>
	<time>2023-04-15T07:42:51.000Z</time>
</trkpt>
<trkpt lat="45.7645530" lon="10.0079810">
	<ele>1085.60</ele>
	<time>2023-04-15T07:42:55.000Z</time>
</trkpt>
<trkpt lat="45.7645260" lon="10.0079620">
	<ele>1086.00</ele>
	<time>2023-04-15T07:42:58.000Z</time>
</trkpt>
<trkpt lat="45.7644790" lon="10.0079520">
	<ele>1086.60</ele>
	<time>2023-04-15T07:43:03.000Z</time>
</trkpt>
<trkpt lat="45.7644840" lon="10.0079320">
	<ele>1087.20</ele>
	<time>2023-04-15T07:43:06.000Z</time>
</trkpt>
<trkpt lat="45.7644720" lon="10.0079150">
	<ele>1087.40</ele>
	<time>2023-04-15T07:43:07.000Z</time>
</trkpt>
<trkpt lat="45.7644590" lon="10.0079150">
	<ele>1087.60</ele>
	<time>2023-04-15T07:43:09.000Z</time>
</trkpt>
<trkpt lat="45.7644280" lon="10.0079150">
	<ele>1088.20</ele>
	<time>2023-04-15T07:43:12.000Z</time>
</trkpt>
<trkpt lat="45.7643840" lon="10.0079310">
	<ele>1088.80</ele>
	<time>2023-04-15T07:43:18.000Z</time>
</trkpt>
<trkpt lat="45.7643340" lon="10.0079550">
	<ele>1089.20</ele>
	<time>2023-04-15T07:43:23.000Z</time>
</trkpt>
<trkpt lat="45.7642850" lon="10.0079570">
	<ele>1089.80</ele>
	<time>2023-04-15T07:43:28.000Z</time>
</trkpt>
<trkpt lat="45.7642750" lon="10.0079570">
	<ele>1090.00</ele>
	<time>2023-04-15T07:43:29.000Z</time>
</trkpt>
<trkpt lat="45.7642110" lon="10.0079190">
	<ele>1091.00</ele>
	<time>2023-04-15T07:43:35.000Z</time>
</trkpt>
<trkpt lat="45.7642070" lon="10.0079040">
	<ele>1091.20</ele>
	<time>2023-04-15T07:43:36.000Z</time>
</trkpt>
<trkpt lat="45.7641890" lon="10.0078500">
	<ele>1091.80</ele>
	<time>2023-04-15T07:43:39.000Z</time>
</trkpt>
<trkpt lat="45.7641720" lon="10.0078550">
	<ele>1092.20</ele>
	<time>2023-04-15T07:43:42.000Z</time>
</trkpt>
<trkpt lat="45.7641710" lon="10.0078510">
	<ele>1092.60</ele>
	<time>2023-04-15T07:43:43.000Z</time>
</trkpt>
<trkpt lat="45.7641450" lon="10.0078240">
	<ele>1093.20</ele>
	<time>2023-04-15T07:43:47.000Z</time>
</trkpt>
<trkpt lat="45.7641440" lon="10.0078320">
	<ele>1093.40</ele>
	<time>2023-04-15T07:43:48.000Z</time>
</trkpt>
<trkpt lat="45.7641410" lon="10.0078240">
	<ele>1094.00</ele>
	<time>2023-04-15T07:43:52.000Z</time>
</trkpt>
<trkpt lat="45.7641380" lon="10.0078130">
	<ele>1094.20</ele>
	<time>2023-04-15T07:43:54.000Z</time>
</trkpt>
<trkpt lat="45.7641330" lon="10.0078160">
	<ele>1094.40</ele>
	<time>2023-04-15T07:43:58.000Z</time>
</trkpt>
<trkpt lat="45.7641140" lon="10.0077980">
	<ele>1094.80</ele>
	<time>2023-04-15T07:44:05.000Z</time>
</trkpt>
<trkpt lat="45.7640960" lon="10.0077750">
	<ele>1095.40</ele>
	<time>2023-04-15T07:44:08.000Z</time>
</trkpt>
<trkpt lat="45.7640750" lon="10.0077270">
	<ele>1096.20</ele>
	<time>2023-04-15T07:44:12.000Z</time>
</trkpt>
<trkpt lat="45.7640750" lon="10.0077230">
	<ele>1096.60</ele>
	<time>2023-04-15T07:44:13.000Z</time>
</trkpt>
<trkpt lat="45.7640830" lon="10.0076970">
	<ele>1097.20</ele>
	<time>2023-04-15T07:44:17.000Z</time>
</trkpt>
<trkpt lat="45.7640790" lon="10.0076760">
	<ele>1097.60</ele>
	<time>2023-04-15T07:44:19.000Z</time>
</trkpt>
<trkpt lat="45.7640670" lon="10.0076460">
	<ele>1098.40</ele>
	<time>2023-04-15T07:44:23.000Z</time>
</trkpt>
<trkpt lat="45.7640690" lon="10.0076440">
	<ele>1098.60</ele>
	<time>2023-04-15T07:44:24.000Z</time>
</trkpt>
<trkpt lat="45.7640760" lon="10.0076780">
	<ele>1099.60</ele>
	<time>2023-04-15T07:44:30.000Z</time>
</trkpt>
<trkpt lat="45.7640730" lon="10.0076810">
	<ele>1099.60</ele>
	<time>2023-04-15T07:44:31.000Z</time>
</trkpt>
<trkpt lat="45.7640610" lon="10.0076730">
	<ele>1100.40</ele>
	<time>2023-04-15T07:44:35.000Z</time>
</trkpt>
<trkpt lat="45.7640600" lon="10.0076740">
	<ele>1100.80</ele>
	<time>2023-04-15T07:44:36.000Z</time>
</trkpt>
<trkpt lat="45.7640610" lon="10.0076650">
	<ele>1101.60</ele>
	<time>2023-04-15T07:44:40.000Z</time>
</trkpt>
<trkpt lat="45.7640630" lon="10.0076650">
	<ele>1101.80</ele>
	<time>2023-04-15T07:44:41.000Z</time>
</trkpt>
<trkpt lat="45.7640440" lon="10.0076550">
	<ele>1102.80</ele>
	<time>2023-04-15T07:44:46.000Z</time>
</trkpt>
<trkpt lat="45.7640360" lon="10.0076580">
	<ele>1103.00</ele>
	<time>2023-04-15T07:44:48.000Z</time>
</trkpt>
<trkpt lat="45.7640230" lon="10.0076600">
	<ele>1103.80</ele>
	<time>2023-04-15T07:44:53.000Z</time>
</trkpt>
<trkpt lat="45.7639990" lon="10.0076550">
	<ele>1104.00</ele>
	<time>2023-04-15T07:44:57.000Z</time>
</trkpt>
<trkpt lat="45.7639900" lon="10.0076420">
	<ele>1104.40</ele>
	<time>2023-04-15T07:44:59.000Z</time>
</trkpt>
<trkpt lat="45.7639900" lon="10.0076250">
	<ele>1105.20</ele>
	<time>2023-04-15T07:45:03.000Z</time>
</trkpt>
<trkpt lat="45.7639800" lon="10.0076330">
	<ele>1105.40</ele>
	<time>2023-04-15T07:45:05.000Z</time>
</trkpt>
<trkpt lat="45.7639490" lon="10.0076250">
	<ele>1106.20</ele>
	<time>2023-04-15T07:45:11.000Z</time>
</trkpt>
<trkpt lat="45.7639230" lon="10.0075950">
	<ele>1107.20</ele>
	<time>2023-04-15T07:45:16.000Z</time>
</trkpt>
<trkpt lat="45.7639170" lon="10.0075710">
	<ele>1107.60</ele>
	<time>2023-04-15T07:45:18.000Z</time>
</trkpt>
<trkpt lat="45.7639160" lon="10.0075690">
	<ele>1108.20</ele>
	<time>2023-04-15T07:45:23.000Z</time>
</trkpt>
<trkpt lat="45.7639150" lon="10.0075690">
	<ele>1108.40</ele>
	<time>2023-04-15T07:45:24.000Z</time>
</trkpt>
<trkpt lat="45.7639070" lon="10.0075460">
	<ele>1109.20</ele>
	<time>2023-04-15T07:45:29.000Z</time>
</trkpt>
<trkpt lat="45.7639030" lon="10.0075400">
	<ele>1109.60</ele>
	<time>2023-04-15T07:45:31.000Z</time>
</trkpt>
<trkpt lat="45.7638970" lon="10.0075340">
	<ele>1110.20</ele>
	<time>2023-04-15T07:45:36.000Z</time>
</trkpt>
<trkpt lat="45.7638980" lon="10.0075280">
	<ele>1110.80</ele>
	<time>2023-04-15T07:45:39.000Z</time>
</trkpt>
<trkpt lat="45.7638890" lon="10.0075160">
	<ele>1111.60</ele>
	<time>2023-04-15T07:45:45.000Z</time>
</trkpt>
<trkpt lat="45.7638870" lon="10.0075150">
	<ele>1111.80</ele>
	<time>2023-04-15T07:45:46.000Z</time>
</trkpt>
<trkpt lat="45.7638700" lon="10.0075300">
	<ele>1112.40</ele>
	<time>2023-04-15T07:45:50.000Z</time>
</trkpt>
<trkpt lat="45.7638320" lon="10.0075720">
	<ele>1112.80</ele>
	<time>2023-04-15T07:45:56.000Z</time>
</trkpt>
<trkpt lat="45.7637640" lon="10.0075650">
	<ele>1114.20</ele>
	<time>2023-04-15T07:46:07.000Z</time>
</trkpt>
<trkpt lat="45.7637230" lon="10.0075660">
	<ele>1114.80</ele>
	<time>2023-04-15T07:46:12.000Z</time>
</trkpt>
<trkpt lat="45.7636690" lon="10.0075600">
	<ele>1115.00</ele>
	<time>2023-04-15T07:46:19.000Z</time>
</trkpt>
<trkpt lat="45.7636610" lon="10.0075540">
	<ele>1115.40</ele>
	<time>2023-04-15T07:46:20.000Z</time>
</trkpt>
<trkpt lat="45.7636390" lon="10.0074960">
	<ele>1116.20</ele>
	<time>2023-04-15T07:46:25.000Z</time>
</trkpt>
<trkpt lat="45.7636320" lon="10.0074800">
	<ele>1116.60</ele>
	<time>2023-04-15T07:46:27.000Z</time>
</trkpt>
<trkpt lat="45.7636360" lon="10.0074520">
	<ele>1117.00</ele>
	<time>2023-04-15T07:46:31.000Z</time>
</trkpt>
<trkpt lat="45.7636330" lon="10.0074290">
	<ele>1117.60</ele>
	<time>2023-04-15T07:46:35.000Z</time>
</trkpt>
<trkpt lat="45.7636270" lon="10.0074180">
	<ele>1117.80</ele>
	<time>2023-04-15T07:46:38.000Z</time>
</trkpt>
<trkpt lat="45.7636080" lon="10.0074190">
	<ele>1118.60</ele>
	<time>2023-04-15T07:46:43.000Z</time>
</trkpt>
<trkpt lat="45.7635980" lon="10.0074090">
	<ele>1119.00</ele>
	<time>2023-04-15T07:46:46.000Z</time>
</trkpt>
<trkpt lat="45.7635860" lon="10.0074070">
	<ele>1119.80</ele>
	<time>2023-04-15T07:46:50.000Z</time>
</trkpt>
<trkpt lat="45.7635830" lon="10.0074090">
	<ele>1120.00</ele>
	<time>2023-04-15T07:46:51.000Z</time>
</trkpt>
<trkpt lat="45.7635710" lon="10.0074260">
	<ele>1120.60</ele>
	<time>2023-04-15T07:46:56.000Z</time>
</trkpt>
<trkpt lat="45.7635410" lon="10.0074170">
	<ele>1120.60</ele>
	<time>2023-04-15T07:47:01.000Z</time>
</trkpt>
<trkpt lat="45.7635270" lon="10.0074110">
	<ele>1120.80</ele>
	<time>2023-04-15T07:47:04.000Z</time>
</trkpt>
<trkpt lat="45.7635100" lon="10.0074110">
	<ele>1121.20</ele>
	<time>2023-04-15T07:47:07.000Z</time>
</trkpt>
<trkpt lat="45.7634950" lon="10.0073960">
	<ele>1121.00</ele>
	<time>2023-04-15T07:47:13.000Z</time>
</trkpt>
<trkpt lat="45.7633920" lon="10.0073940">
	<ele>1120.40</ele>
	<time>2023-04-15T07:47:22.000Z</time>
</trkpt>
<trkpt lat="45.7633790" lon="10.0073850">
	<ele>1120.60</ele>
	<time>2023-04-15T07:47:24.000Z</time>
</trkpt>
<trkpt lat="45.7633560" lon="10.0074020">
	<ele>1121.20</ele>
	<time>2023-04-15T07:47:28.000Z</time>
</trkpt>
<trkpt lat="45.7633380" lon="10.0074060">
	<ele>1121.80</ele>
	<time>2023-04-15T07:47:31.000Z</time>
</trkpt>
<trkpt lat="45.7633280" lon="10.0073980">
	<ele>1122.20</ele>
	<time>2023-04-15T07:47:34.000Z</time>
</trkpt>
<trkpt lat="45.7632580" lon="10.0074070">
	<ele>1122.80</ele>
	<time>2023-04-15T07:47:42.000Z</time>
</trkpt>
<trkpt lat="45.7632040" lon="10.0074090">
	<ele>1122.80</ele>
	<time>2023-04-15T07:47:46.000Z</time>
</trkpt>
<trkpt lat="45.7631690" lon="10.0074180">
	<ele>1123.00</ele>
	<time>2023-04-15T07:47:49.000Z</time>
</trkpt>
<trkpt lat="45.7631410" lon="10.0074070">
	<ele>1123.20</ele>
	<time>2023-04-15T07:47:54.000Z</time>
</trkpt>
<trkpt lat="45.7631100" lon="10.0074100">
	<ele>1124.00</ele>
	<time>2023-04-15T07:47:58.000Z</time>
</trkpt>
<trkpt lat="45.7630970" lon="10.0074010">
	<ele>1124.40</ele>
	<time>2023-04-15T07:48:00.000Z</time>
</trkpt>
<trkpt lat="45.7630480" lon="10.0073810">
	<ele>1125.20</ele>
	<time>2023-04-15T07:48:04.000Z</time>
</trkpt>
<trkpt lat="45.7630390" lon="10.0073770">
	<ele>1125.60</ele>
	<time>2023-04-15T07:48:06.000Z</time>
</trkpt>
<trkpt lat="45.7629860" lon="10.0073110">
	<ele>1126.60</ele>
	<time>2023-04-15T07:48:11.000Z</time>
</trkpt>
<trkpt lat="45.7629740" lon="10.0072950">
	<ele>1127.20</ele>
	<time>2023-04-15T07:48:13.000Z</time>
</trkpt>
<trkpt lat="45.7629670" lon="10.0072960">
	<ele>1127.60</ele>
	<time>2023-04-15T07:48:17.000Z</time>
</trkpt>
<trkpt lat="45.7629570" lon="10.0073020">
	<ele>1127.60</ele>
	<time>2023-04-15T07:48:19.000Z</time>
</trkpt>
<trkpt lat="45.7629160" lon="10.0073110">
	<ele>1128.60</ele>
	<time>2023-04-15T07:48:27.000Z</time>
</trkpt>
<trkpt lat="45.7629110" lon="10.0073140">
	<ele>1128.80</ele>
	<time>2023-04-15T07:48:28.000Z</time>
</trkpt>
<trkpt lat="45.7628900" lon="10.0073010">
	<ele>1129.40</ele>
	<time>2023-04-15T07:48:32.000Z</time>
</trkpt>
<trkpt lat="45.7628750" lon="10.0072870">
	<ele>1130.00</ele>
	<time>2023-04-15T07:48:34.000Z</time>
</trkpt>
<trkpt lat="45.7628250" lon="10.0072600">
	<ele>1130.60</ele>
	<time>2023-04-15T07:48:39.000Z</time>
</trkpt>
<trkpt lat="45.7627770" lon="10.0072700">
	<ele>1131.00</ele>
	<time>2023-04-15T07:48:44.000Z</time>
</trkpt>
<trkpt lat="45.7627640" lon="10.0072710">
	<ele>1131.20</ele>
	<time>2023-04-15T07:48:46.000Z</time>
</trkpt>
<trkpt lat="45.7627330" lon="10.0072400">
	<ele>1131.80</ele>
	<time>2023-04-15T07:48:50.000Z</time>
</trkpt>
<trkpt lat="45.7627240" lon="10.0072430">
	<ele>1132.00</ele>
	<time>2023-04-15T07:48:52.000Z</time>
</trkpt>
<trkpt lat="45.7627180" lon="10.0072510">
	<ele>1132.20</ele>
	<time>2023-04-15T07:48:53.000Z</time>
</trkpt>
<trkpt lat="45.7626780" lon="10.0071600">
	<ele>1133.40</ele>
	<time>2023-04-15T07:48:59.000Z</time>
</trkpt>
<trkpt lat="45.7626830" lon="10.0071440">
	<ele>1133.60</ele>
	<time>2023-04-15T07:49:00.000Z</time>
</trkpt>
<trkpt lat="45.7627090" lon="10.0070700">
	<ele>1134.80</ele>
	<time>2023-04-15T07:49:07.000Z</time>
</trkpt>
<trkpt lat="45.7627090" lon="10.0070670">
	<ele>1135.00</ele>
	<time>2023-04-15T07:49:08.000Z</time>
</trkpt>
<trkpt lat="45.7627100" lon="10.0070510">
	<ele>1135.80</ele>
	<time>2023-04-15T07:49:15.000Z</time>
</trkpt>
<trkpt lat="45.7626940" lon="10.0070880">
	<ele>1137.00</ele>
	<time>2023-04-15T07:49:21.000Z</time>
</trkpt>
<trkpt lat="45.7626880" lon="10.0070930">
	<ele>1137.20</ele>
	<time>2023-04-15T07:49:22.000Z</time>
</trkpt>
<trkpt lat="45.7626690" lon="10.0071130">
	<ele>1138.20</ele>
	<time>2023-04-15T07:49:28.000Z</time>
</trkpt>
<trkpt lat="45.7626580" lon="10.0071190">
	<ele>1139.00</ele>
	<time>2023-04-15T07:49:34.000Z</time>
</trkpt>
<trkpt lat="45.7626500" lon="10.0071270">
	<ele>1139.40</ele>
	<time>2023-04-15T07:49:36.000Z</time>
</trkpt>
<trkpt lat="45.7626700" lon="10.0071330">
	<ele>1139.80</ele>
	<time>2023-04-15T07:49:40.000Z</time>
</trkpt>
<trkpt lat="45.7626180" lon="10.0070990">
	<ele>1140.40</ele>
	<time>2023-04-15T07:49:45.000Z</time>
</trkpt>
<trkpt lat="45.7625740" lon="10.0070650">
	<ele>1141.20</ele>
	<time>2023-04-15T07:49:49.000Z</time>
</trkpt>
<trkpt lat="45.7625640" lon="10.0070490">
	<ele>1141.60</ele>
	<time>2023-04-15T07:49:51.000Z</time>
</trkpt>
<trkpt lat="45.7625450" lon="10.0070710">
	<ele>1142.00</ele>
	<time>2023-04-15T07:49:55.000Z</time>
</trkpt>
<trkpt lat="45.7625270" lon="10.0070610">
	<ele>1142.60</ele>
	<time>2023-04-15T07:50:00.000Z</time>
</trkpt>
<trkpt lat="45.7625120" lon="10.0070710">
	<ele>1142.80</ele>
	<time>2023-04-15T07:50:03.000Z</time>
</trkpt>
<trkpt lat="45.7624480" lon="10.0070900">
	<ele>1143.40</ele>
	<time>2023-04-15T07:50:09.000Z</time>
</trkpt>
<trkpt lat="45.7624340" lon="10.0070830">
	<ele>1143.60</ele>
	<time>2023-04-15T07:50:11.000Z</time>
</trkpt>
<trkpt lat="45.7624080" lon="10.0070760">
	<ele>1144.60</ele>
	<time>2023-04-15T07:50:16.000Z</time>
</trkpt>
<trkpt lat="45.7623930" lon="10.0070770">
	<ele>1144.80</ele>
	<time>2023-04-15T07:50:17.000Z</time>
</trkpt>
<trkpt lat="45.7623730" lon="10.0070880">
	<ele>1146.00</ele>
	<time>2023-04-15T07:50:23.000Z</time>
</trkpt>
<trkpt lat="45.7623430" lon="10.0071020">
	<ele>1147.00</ele>
	<time>2023-04-15T07:50:30.000Z</time>
</trkpt>
<trkpt lat="45.7623300" lon="10.0071090">
	<ele>1147.20</ele>
	<time>2023-04-15T07:50:31.000Z</time>
</trkpt>
<trkpt lat="45.7623260" lon="10.0070720">
	<ele>1148.20</ele>
	<time>2023-04-15T07:50:36.000Z</time>
</trkpt>
<trkpt lat="45.7623240" lon="10.0070630">
	<ele>1148.40</ele>
	<time>2023-04-15T07:50:37.000Z</time>
</trkpt>
<trkpt lat="45.7623070" lon="10.0070400">
	<ele>1149.20</ele>
	<time>2023-04-15T07:50:41.000Z</time>
</trkpt>
<trkpt lat="45.7623030" lon="10.0070250">
	<ele>1149.60</ele>
	<time>2023-04-15T07:50:43.000Z</time>
</trkpt>
<trkpt lat="45.7622890" lon="10.0070010">
	<ele>1150.20</ele>
	<time>2023-04-15T07:50:48.000Z</time>
</trkpt>
<trkpt lat="45.7622850" lon="10.0069990">
	<ele>1150.40</ele>
	<time>2023-04-15T07:50:49.000Z</time>
</trkpt>
<trkpt lat="45.7622710" lon="10.0069980">
	<ele>1151.20</ele>
	<time>2023-04-15T07:50:54.000Z</time>
</trkpt>
<trkpt lat="45.7622570" lon="10.0069750">
	<ele>1152.20</ele>
	<time>2023-04-15T07:50:58.000Z</time>
</trkpt>
<trkpt lat="45.7622550" lon="10.0069720">
	<ele>1152.20</ele>
	<time>2023-04-15T07:50:59.000Z</time>
</trkpt>
<trkpt lat="45.7622670" lon="10.0069450">
	<ele>1153.40</ele>
	<time>2023-04-15T07:51:04.000Z</time>
</trkpt>
<trkpt lat="45.7622720" lon="10.0069450">
	<ele>1153.80</ele>
	<time>2023-04-15T07:51:06.000Z</time>
</trkpt>
<trkpt lat="45.7622790" lon="10.0069020">
	<ele>1154.60</ele>
	<time>2023-04-15T07:51:12.000Z</time>
</trkpt>
<trkpt lat="45.7622790" lon="10.0068830">
	<ele>1155.00</ele>
	<time>2023-04-15T07:51:15.000Z</time>
</trkpt>
<trkpt lat="45.7622670" lon="10.0068640">
	<ele>1155.60</ele>
	<time>2023-04-15T07:51:19.000Z</time>
</trkpt>
<trkpt lat="45.7622720" lon="10.0068680">
	<ele>1155.80</ele>
	<time>2023-04-15T07:51:20.000Z</time>
</trkpt>
<trkpt lat="45.7622870" lon="10.0068550">
	<ele>1156.40</ele>
	<time>2023-04-15T07:51:24.000Z</time>
</trkpt>
<trkpt lat="45.7622930" lon="10.0068480">
	<ele>1156.80</ele>
	<time>2023-04-15T07:51:26.000Z</time>
</trkpt>
<trkpt lat="45.7623200" lon="10.0068530">
	<ele>1157.60</ele>
	<time>2023-04-15T07:51:31.000Z</time>
</trkpt>
<trkpt lat="45.7623240" lon="10.0068390">
	<ele>1157.80</ele>
	<time>2023-04-15T07:51:33.000Z</time>
</trkpt>
<trkpt lat="45.7623290" lon="10.0068240">
	<ele>1158.40</ele>
	<time>2023-04-15T07:51:37.000Z</time>
</trkpt>
<trkpt lat="45.7623350" lon="10.0068470">
	<ele>1159.00</ele>
	<time>2023-04-15T07:51:39.000Z</time>
</trkpt>
<trkpt lat="45.7623270" lon="10.0068360">
	<ele>1159.40</ele>
	<time>2023-04-15T07:51:44.000Z</time>
</trkpt>
<trkpt lat="45.7623160" lon="10.0068200">
	<ele>1160.20</ele>
	<time>2023-04-15T07:51:47.000Z</time>
</trkpt>
<trkpt lat="45.7622930" lon="10.0068210">
	<ele>1160.80</ele>
	<time>2023-04-15T07:51:52.000Z</time>
</trkpt>
<trkpt lat="45.7622870" lon="10.0068370">
	<ele>1161.20</ele>
	<time>2023-04-15T07:51:56.000Z</time>
</trkpt>
<trkpt lat="45.7622850" lon="10.0068430">
	<ele>1161.40</ele>
	<time>2023-04-15T07:51:57.000Z</time>
</trkpt>
<trkpt lat="45.7622550" lon="10.0068550">
	<ele>1162.40</ele>
	<time>2023-04-15T07:52:03.000Z</time>
</trkpt>
<trkpt lat="45.7622620" lon="10.0068710">
	<ele>1163.00</ele>
	<time>2023-04-15T07:52:07.000Z</time>
</trkpt>
<trkpt lat="45.7622580" lon="10.0068720">
	<ele>1163.60</ele>
	<time>2023-04-15T07:52:10.000Z</time>
</trkpt>
<trkpt lat="45.7622490" lon="10.0068590">
	<ele>1164.00</ele>
	<time>2023-04-15T07:52:12.000Z</time>
</trkpt>
<trkpt lat="45.7622290" lon="10.0068370">
	<ele>1164.80</ele>
	<time>2023-04-15T07:52:18.000Z</time>
</trkpt>
<trkpt lat="45.7622320" lon="10.0068250">
	<ele>1165.00</ele>
	<time>2023-04-15T07:52:19.000Z</time>
</trkpt>
<trkpt lat="45.7621990" lon="10.0068210">
	<ele>1165.80</ele>
	<time>2023-04-15T07:52:25.000Z</time>
</trkpt>
<trkpt lat="45.7621710" lon="10.0068370">
	<ele>1166.00</ele>
	<time>2023-04-15T07:52:32.000Z</time>
</trkpt>
<trkpt lat="45.7621450" lon="10.0068500">
	<ele>1166.00</ele>
	<time>2023-04-15T07:52:35.000Z</time>
</trkpt>
<trkpt lat="45.7621140" lon="10.0068670">
	<ele>1166.00</ele>
	<time>2023-04-15T07:52:39.000Z</time>
</trkpt>
<trkpt lat="45.7620660" lon="10.0068570">
	<ele>1166.60</ele>
	<time>2023-04-15T07:52:48.000Z</time>
</trkpt>
<trkpt lat="45.7620490" lon="10.0068640">
	<ele>1167.00</ele>
	<time>2023-04-15T07:52:50.000Z</time>
</trkpt>
<trkpt lat="45.7620330" lon="10.0068660">
	<ele>1167.60</ele>
	<time>2023-04-15T07:52:54.000Z</time>
</trkpt>
<trkpt lat="45.7620300" lon="10.0068590">
	<ele>1168.40</ele>
	<time>2023-04-15T07:52:57.000Z</time>
</trkpt>
<trkpt lat="45.7620260" lon="10.0068550">
	<ele>1168.60</ele>
	<time>2023-04-15T07:52:59.000Z</time>
</trkpt>
<trkpt lat="45.7619910" lon="10.0068450">
	<ele>1169.40</ele>
	<time>2023-04-15T07:53:04.000Z</time>
</trkpt>
<trkpt lat="45.7619810" lon="10.0068410">
	<ele>1169.60</ele>
	<time>2023-04-15T07:53:06.000Z</time>
</trkpt>
<trkpt lat="45.7619380" lon="10.0068330">
	<ele>1170.60</ele>
	<time>2023-04-15T07:53:14.000Z</time>
</trkpt>
<trkpt lat="45.7619350" lon="10.0068320">
	<ele>1170.80</ele>
	<time>2023-04-15T07:53:15.000Z</time>
</trkpt>
<trkpt lat="45.7618990" lon="10.0068200">
	<ele>1171.60</ele>
	<time>2023-04-15T07:53:19.000Z</time>
</trkpt>
<trkpt lat="45.7618590" lon="10.0068020">
	<ele>1172.60</ele>
	<time>2023-04-15T07:53:26.000Z</time>
</trkpt>
<trkpt lat="45.7618540" lon="10.0068030">
	<ele>1172.60</ele>
	<time>2023-04-15T07:53:27.000Z</time>
</trkpt>
<trkpt lat="45.7618150" lon="10.0067830">
	<ele>1173.40</ele>
	<time>2023-04-15T07:53:34.000Z</time>
</trkpt>
<trkpt lat="45.7618100" lon="10.0067880">
	<ele>1173.80</ele>
	<time>2023-04-15T07:53:38.000Z</time>
</trkpt>
<trkpt lat="45.7618090" lon="10.0067800">
	<ele>1174.20</ele>
	<time>2023-04-15T07:53:41.000Z</time>
</trkpt>
<trkpt lat="45.7618030" lon="10.0067720">
	<ele>1174.20</ele>
	<time>2023-04-15T07:53:54.000Z</time>
</trkpt>
<trkpt lat="45.7618030" lon="10.0067720">
	<ele>1174.80</ele>
	<time>2023-04-15T07:53:59.000Z</time>
</trkpt>
<trkpt lat="45.7617980" lon="10.0067710">
	<ele>1176.00</ele>
	<time>2023-04-15T07:54:05.000Z</time>
</trkpt>
<trkpt lat="45.7617900" lon="10.0067650">
	<ele>1177.00</ele>
	<time>2023-04-15T07:54:11.000Z</time>
</trkpt>
<trkpt lat="45.7618010" lon="10.0067150">
	<ele>1178.20</ele>
	<time>2023-04-15T07:54:18.000Z</time>
</trkpt>
<trkpt lat="45.7618240" lon="10.0066610">
	<ele>1179.20</ele>
	<time>2023-04-15T07:54:22.000Z</time>
</trkpt>
<trkpt lat="45.7618310" lon="10.0066370">
	<ele>1179.40</ele>
	<time>2023-04-15T07:54:23.000Z</time>
</trkpt>
<trkpt lat="45.7618490" lon="10.0065760">
	<ele>1180.40</ele>
	<time>2023-04-15T07:54:31.000Z</time>
</trkpt>
<trkpt lat="45.7618660" lon="10.0065520">
	<ele>1181.40</ele>
	<time>2023-04-15T07:54:36.000Z</time>
</trkpt>
<trkpt lat="45.7618660" lon="10.0065470">
	<ele>1181.60</ele>
	<time>2023-04-15T07:54:37.000Z</time>
</trkpt>
<trkpt lat="45.7618860" lon="10.0065080">
	<ele>1182.60</ele>
	<time>2023-04-15T07:54:44.000Z</time>
</trkpt>
<trkpt lat="45.7618950" lon="10.0064910">
	<ele>1183.60</ele>
	<time>2023-04-15T07:54:50.000Z</time>
</trkpt>
<trkpt lat="45.7619120" lon="10.0064530">
	<ele>1184.80</ele>
	<time>2023-04-15T07:54:56.000Z</time>
</trkpt>
<trkpt lat="45.7619250" lon="10.0064350">
	<ele>1185.20</ele>
	<time>2023-04-15T07:54:59.000Z</time>
</trkpt>
<trkpt lat="45.7619250" lon="10.0063990">
	<ele>1185.80</ele>
	<time>2023-04-15T07:55:04.000Z</time>
</trkpt>
<trkpt lat="45.7619290" lon="10.0063970">
	<ele>1186.00</ele>
	<time>2023-04-15T07:55:05.000Z</time>
</trkpt>
<trkpt lat="45.7619140" lon="10.0063530">
	<ele>1186.80</ele>
	<time>2023-04-15T07:55:11.000Z</time>
</trkpt>
<trkpt lat="45.7619190" lon="10.0063520">
	<ele>1187.00</ele>
	<time>2023-04-15T07:55:12.000Z</time>
</trkpt>
<trkpt lat="45.7619180" lon="10.0063240">
	<ele>1187.40</ele>
	<time>2023-04-15T07:55:16.000Z</time>
</trkpt>
<trkpt lat="45.7619170" lon="10.0062520">
	<ele>1188.00</ele>
	<time>2023-04-15T07:55:22.000Z</time>
</trkpt>
<trkpt lat="45.7618900" lon="10.0061760">
	<ele>1188.60</ele>
	<time>2023-04-15T07:55:29.000Z</time>
</trkpt>
<trkpt lat="45.7618890" lon="10.0061560">
	<ele>1189.00</ele>
	<time>2023-04-15T07:55:34.000Z</time>
</trkpt>
<trkpt lat="45.7618880" lon="10.0061340">
	<ele>1189.60</ele>
	<time>2023-04-15T07:55:38.000Z</time>
</trkpt>
<trkpt lat="45.7618900" lon="10.0060730">
	<ele>1190.00</ele>
	<time>2023-04-15T07:55:42.000Z</time>
</trkpt>
<trkpt lat="45.7619020" lon="10.0060140">
	<ele>1191.00</ele>
	<time>2023-04-15T07:55:48.000Z</time>
</trkpt>
<trkpt lat="45.7619190" lon="10.0059340">
	<ele>1192.20</ele>
	<time>2023-04-15T07:55:55.000Z</time>
</trkpt>
<trkpt lat="45.7619270" lon="10.0059190">
	<ele>1192.40</ele>
	<time>2023-04-15T07:55:57.000Z</time>
</trkpt>
<trkpt lat="45.7619340" lon="10.0058850">
	<ele>1193.20</ele>
	<time>2023-04-15T07:56:01.000Z</time>
</trkpt>
<trkpt lat="45.7619380" lon="10.0058680">
	<ele>1193.60</ele>
	<time>2023-04-15T07:56:03.000Z</time>
</trkpt>
<trkpt lat="45.7619320" lon="10.0058520">
	<ele>1194.40</ele>
	<time>2023-04-15T07:56:08.000Z</time>
</trkpt>
<trkpt lat="45.7619360" lon="10.0058440">
	<ele>1194.40</ele>
	<time>2023-04-15T07:56:09.000Z</time>
</trkpt>
<trkpt lat="45.7619450" lon="10.0058260">
	<ele>1195.40</ele>
	<time>2023-04-15T07:56:14.000Z</time>
</trkpt>
<trkpt lat="45.7619380" lon="10.0057840">
	<ele>1196.20</ele>
	<time>2023-04-15T07:56:19.000Z</time>
</trkpt>
<trkpt lat="45.7619320" lon="10.0057600">
	<ele>1196.60</ele>
	<time>2023-04-15T07:56:22.000Z</time>
</trkpt>
<trkpt lat="45.7619070" lon="10.0057200">
	<ele>1197.40</ele>
	<time>2023-04-15T07:56:26.000Z</time>
</trkpt>
<trkpt lat="45.7619120" lon="10.0057050">
	<ele>1197.60</ele>
	<time>2023-04-15T07:56:28.000Z</time>
</trkpt>
<trkpt lat="45.7619280" lon="10.0056890">
	<ele>1198.20</ele>
	<time>2023-04-15T07:56:31.000Z</time>
</trkpt>
<trkpt lat="45.7619380" lon="10.0056880">
	<ele>1198.80</ele>
	<time>2023-04-15T07:56:32.000Z</time>
</trkpt>
<trkpt lat="45.7619800" lon="10.0057000">
	<ele>1199.80</ele>
	<time>2023-04-15T07:56:38.000Z</time>
</trkpt>
<trkpt lat="45.7619870" lon="10.0056990">
	<ele>1199.80</ele>
	<time>2023-04-15T07:56:39.000Z</time>
</trkpt>
<trkpt lat="45.7620000" lon="10.0057240">
	<ele>1200.60</ele>
	<time>2023-04-15T07:56:44.000Z</time>
</trkpt>
<trkpt lat="45.7620040" lon="10.0057230">
	<ele>1201.00</ele>
	<time>2023-04-15T07:56:45.000Z</time>
</trkpt>
<trkpt lat="45.7620230" lon="10.0056950">
	<ele>1202.00</ele>
	<time>2023-04-15T07:56:50.000Z</time>
</trkpt>
<trkpt lat="45.7620260" lon="10.0056910">
	<ele>1202.00</ele>
	<time>2023-04-15T07:56:51.000Z</time>
</trkpt>
<trkpt lat="45.7620440" lon="10.0056830">
	<ele>1203.00</ele>
	<time>2023-04-15T07:56:58.000Z</time>
</trkpt>
<trkpt lat="45.7620550" lon="10.0056780">
	<ele>1204.00</ele>
	<time>2023-04-15T07:57:05.000Z</time>
</trkpt>
<trkpt lat="45.7620550" lon="10.0056780">
	<ele>1204.20</ele>
	<time>2023-04-15T07:57:06.000Z</time>
</trkpt>
<trkpt lat="45.7620550" lon="10.0056830">
	<ele>1205.20</ele>
	<time>2023-04-15T07:57:13.000Z</time>
</trkpt>
<trkpt lat="45.7620640" lon="10.0056870">
	<ele>1206.40</ele>
	<time>2023-04-15T07:57:21.000Z</time>
</trkpt>
<trkpt lat="45.7621020" lon="10.0057280">
	<ele>1207.60</ele>
	<time>2023-04-15T07:57:32.000Z</time>
</trkpt>
<trkpt lat="45.7621270" lon="10.0057590">
	<ele>1208.60</ele>
	<time>2023-04-15T07:57:39.000Z</time>
</trkpt>
<trkpt lat="45.7621500" lon="10.0057720">
	<ele>1209.80</ele>
	<time>2023-04-15T07:57:45.000Z</time>
</trkpt>
<trkpt lat="45.7621660" lon="10.0057770">
	<ele>1210.80</ele>
	<time>2023-04-15T07:57:51.000Z</time>
</trkpt>
<trkpt lat="45.7622100" lon="10.0057760">
	<ele>1211.20</ele>
	<time>2023-04-15T07:58:09.000Z</time>
</trkpt>
<trkpt lat="45.7622140" lon="10.0057750">
	<ele>1211.60</ele>
	<time>2023-04-15T07:58:15.000Z</time>
</trkpt>
<trkpt lat="45.7622150" lon="10.0057750">
	<ele>1212.00</ele>
	<time>2023-04-15T07:58:16.000Z</time>
</trkpt>
<trkpt lat="45.7622180" lon="10.0057750">
	<ele>1213.00</ele>
	<time>2023-04-15T07:58:21.000Z</time>
</trkpt>
<trkpt lat="45.7622290" lon="10.0057750">
	<ele>1214.00</ele>
	<time>2023-04-15T07:58:26.000Z</time>
</trkpt>
<trkpt lat="45.7622410" lon="10.0057740">
	<ele>1215.00</ele>
	<time>2023-04-15T07:58:31.000Z</time>
</trkpt>
<trkpt lat="45.7622620" lon="10.0057740">
	<ele>1216.00</ele>
	<time>2023-04-15T07:58:37.000Z</time>
</trkpt>
<trkpt lat="45.7622800" lon="10.0057750">
	<ele>1217.20</ele>
	<time>2023-04-15T07:58:45.000Z</time>
</trkpt>
<trkpt lat="45.7623050" lon="10.0057740">
	<ele>1218.40</ele>
	<time>2023-04-15T07:58:51.000Z</time>
</trkpt>
<trkpt lat="45.7623330" lon="10.0057690">
	<ele>1219.40</ele>
	<time>2023-04-15T07:58:59.000Z</time>
</trkpt>
<trkpt lat="45.7623570" lon="10.0057470">
	<ele>1219.20</ele>
	<time>2023-04-15T07:59:18.000Z</time>
</trkpt>
<trkpt lat="45.7623610" lon="10.0057430">
	<ele>1220.40</ele>
	<time>2023-04-15T07:59:26.000Z</time>
</trkpt>
<trkpt lat="45.7623680" lon="10.0057340">
	<ele>1220.60</ele>
	<time>2023-04-15T07:59:31.000Z</time>
</trkpt>
<trkpt lat="45.7623920" lon="10.0057020">
	<ele>1220.60</ele>
	<time>2023-04-15T08:00:03.000Z</time>
</trkpt>
<trkpt lat="45.7623920" lon="10.0057000">
	<ele>1221.40</ele>
	<time>2023-04-15T08:00:08.000Z</time>
</trkpt>
<trkpt lat="45.7623930" lon="10.0056990">
	<ele>1221.60</ele>
	<time>2023-04-15T08:00:11.000Z</time>
</trkpt>
<trkpt lat="45.7623930" lon="10.0056980">
	<ele>1221.60</ele>
	<time>2023-04-15T08:00:12.000Z</time>
</trkpt>
<trkpt lat="45.7623930" lon="10.0056970">
	<ele>1221.00</ele>
	<time>2023-04-15T08:00:14.000Z</time>
</trkpt>
<trkpt lat="45.7623960" lon="10.0056960">
	<ele>1221.00</ele>
	<time>2023-04-15T08:00:38.000Z</time>
</trkpt>
<trkpt lat="45.7623970" lon="10.0056950">
	<ele>1221.40</ele>
	<time>2023-04-15T08:00:47.000Z</time>
</trkpt>
<trkpt lat="45.7623970" lon="10.0056950">
	<ele>1220.80</ele>
	<time>2023-04-15T08:00:55.000Z</time>
</trkpt>
<trkpt lat="45.7623980" lon="10.0056950">
	<ele>1220.80</ele>
	<time>2023-04-15T08:00:58.000Z</time>
</trkpt>
<trkpt lat="45.7623980" lon="10.0056950">
	<ele>1220.60</ele>
	<time>2023-04-15T08:01:01.000Z</time>
</trkpt>
<trkpt lat="45.7623980" lon="10.0056950">
	<ele>1220.40</ele>
	<time>2023-04-15T08:01:05.000Z</time>
</trkpt>
<trkpt lat="45.7623990" lon="10.0056950">
	<ele>1220.40</ele>
	<time>2023-04-15T08:01:10.000Z</time>
</trkpt>
<trkpt lat="45.7623990" lon="10.0056950">
	<ele>1220.80</ele>
	<time>2023-04-15T08:01:18.000Z</time>
</trkpt>
<trkpt lat="45.7624000" lon="10.0056950">
	<ele>1220.40</ele>
	<time>2023-04-15T08:01:29.000Z</time>
</trkpt>
<trkpt lat="45.7624020" lon="10.0056920">
	<ele>1220.80</ele>
	<time>2023-04-15T08:02:15.000Z</time>
</trkpt>
<trkpt lat="45.7624020" lon="10.0056920">
	<ele>1220.80</ele>
	<time>2023-04-15T08:02:18.000Z</time>
</trkpt>
<trkpt lat="45.7624030" lon="10.0056910">
	<ele>1220.80</ele>
	<time>2023-04-15T08:02:30.000Z</time>
</trkpt>
<trkpt lat="45.7624040" lon="10.0056910">
	<ele>1220.80</ele>
	<time>2023-04-15T08:02:41.000Z</time>
</trkpt>
<trkpt lat="45.7624060" lon="10.0056900">
	<ele>1220.80</ele>
	<time>2023-04-15T08:03:17.000Z</time>
</trkpt>
<trkpt lat="45.7624060" lon="10.0056900">
	<ele>1220.80</ele>
	<time>2023-04-15T08:03:30.000Z</time>
</trkpt>
<trkpt lat="45.7624060" lon="10.0056900">
	<ele>1220.80</ele>
	<time>2023-04-15T08:03:33.000Z</time>
</trkpt>
<trkpt lat="45.7624070" lon="10.0056900">
	<ele>1220.80</ele>
	<time>2023-04-15T08:03:35.000Z</time>
</trkpt>
<trkpt lat="45.7624080" lon="10.0056880">
	<ele>1220.80</ele>
	<time>2023-04-15T08:04:01.000Z</time>
</trkpt>
<trkpt lat="45.7624090" lon="10.0056880">
	<ele>1220.80</ele>
	<time>2023-04-15T08:04:04.000Z</time>
</trkpt>
<trkpt lat="45.7624100" lon="10.0056890">
	<ele>1220.80</ele>
	<time>2023-04-15T08:04:09.000Z</time>
</trkpt>
<trkpt lat="45.7624120" lon="10.0056890">
	<ele>1220.80</ele>
	<time>2023-04-15T08:04:55.000Z</time>
</trkpt>
<trkpt lat="45.7624120" lon="10.0056890">
	<ele>1220.80</ele>
	<time>2023-04-15T08:05:00.000Z</time>
</trkpt>
<trkpt lat="45.7624130" lon="10.0056880">
	<ele>1220.80</ele>
	<time>2023-04-15T08:05:14.000Z</time>
</trkpt>
<trkpt lat="45.7624130" lon="10.0056880">
	<ele>1220.80</ele>
	<time>2023-04-15T08:05:19.000Z</time>
</trkpt>
<trkpt lat="45.7624150" lon="10.0056870">
	<ele>1220.80</ele>
	<time>2023-04-15T08:05:49.000Z</time>
</trkpt>
<trkpt lat="45.7624150" lon="10.0056870">
	<ele>1220.80</ele>
	<time>2023-04-15T08:05:53.000Z</time>
</trkpt>
<trkpt lat="45.7624160" lon="10.0056880">
	<ele>1220.80</ele>
	<time>2023-04-15T08:06:21.000Z</time>
</trkpt>
<trkpt lat="45.7624160" lon="10.0056880">
	<ele>1220.80</ele>
	<time>2023-04-15T08:06:23.000Z</time>
</trkpt>
<trkpt lat="45.7624160" lon="10.0056880">
	<ele>1220.80</ele>
	<time>2023-04-15T08:06:26.000Z</time>
</trkpt>
<trkpt lat="45.7624170" lon="10.0056880">
	<ele>1220.80</ele>
	<time>2023-04-15T08:06:43.000Z</time>
</trkpt>
<trkpt lat="45.7624170" lon="10.0056880">
	<ele>1220.80</ele>
	<time>2023-04-15T08:07:10.000Z</time>
</trkpt>
<trkpt lat="45.7624190" lon="10.0056870">
	<ele>1220.80</ele>
	<time>2023-04-15T08:07:54.000Z</time>
</trkpt>
<trkpt lat="45.7624200" lon="10.0056850">
	<ele>1220.80</ele>
	<time>2023-04-15T08:08:25.000Z</time>
</trkpt>
<trkpt lat="45.7624200" lon="10.0056850">
	<ele>1220.80</ele>
	<time>2023-04-15T08:08:27.000Z</time>
</trkpt>
<trkpt lat="45.7624200" lon="10.0056830">
	<ele>1220.80</ele>
	<time>2023-04-15T08:08:35.000Z</time>
</trkpt>
<trkpt lat="45.7624200" lon="10.0056820">
	<ele>1220.80</ele>
	<time>2023-04-15T08:08:39.000Z</time>
</trkpt>
<trkpt lat="45.7624200" lon="10.0056810">
	<ele>1220.80</ele>
	<time>2023-04-15T08:08:43.000Z</time>
</trkpt>
<trkpt lat="45.7624600" lon="10.0055100">
	<ele>1220.80</ele>
	<time>2023-04-15T08:09:00.000Z</time>
</trkpt>
<trkpt lat="45.7624790" lon="10.0053610">
	<ele>1229.80</ele>
	<time>2023-04-15T08:09:03.000Z</time>
</trkpt>
<trkpt lat="45.7624850" lon="10.0053130">
	<ele>1229.80</ele>
	<time>2023-04-15T08:09:04.000Z</time>
</trkpt>
<trkpt lat="45.7625000" lon="10.0052040">
	<ele>1230.20</ele>
	<time>2023-04-15T08:09:08.000Z</time>
</trkpt>
<trkpt lat="45.7625010" lon="10.0051850">
	<ele>1230.60</ele>
	<time>2023-04-15T08:09:13.000Z</time>
</trkpt>
<trkpt lat="45.7624950" lon="10.0051830">
	<ele>1230.60</ele>
	<time>2023-04-15T08:09:15.000Z</time>
</trkpt>
<trkpt lat="45.7624940" lon="10.0051460">
	<ele>1230.80</ele>
	<time>2023-04-15T08:09:23.000Z</time>
</trkpt>
<trkpt lat="45.7624740" lon="10.0050810">
	<ele>1230.20</ele>
	<time>2023-04-15T08:09:29.000Z</time>
</trkpt>
<trkpt lat="45.7624890" lon="10.0050520">
	<ele>1228.60</ele>
	<time>2023-04-15T08:09:36.000Z</time>
</trkpt>
<trkpt lat="45.7624970" lon="10.0050400">
	<ele>1228.20</ele>
	<time>2023-04-15T08:09:38.000Z</time>
</trkpt>
<trkpt lat="45.7625030" lon="10.0050140">
	<ele>1227.40</ele>
	<time>2023-04-15T08:09:42.000Z</time>
</trkpt>
<trkpt lat="45.7624960" lon="10.0049970">
	<ele>1227.20</ele>
	<time>2023-04-15T08:09:44.000Z</time>
</trkpt>
<trkpt lat="45.7625020" lon="10.0049640">
	<ele>1226.40</ele>
	<time>2023-04-15T08:09:47.000Z</time>
</trkpt>
<trkpt lat="45.7625090" lon="10.0049300">
	<ele>1226.00</ele>
	<time>2023-04-15T08:09:50.000Z</time>
</trkpt>
<trkpt lat="45.7624870" lon="10.0048950">
	<ele>1225.40</ele>
	<time>2023-04-15T08:09:55.000Z</time>
</trkpt>
<trkpt lat="45.7624830" lon="10.0048890">
	<ele>1225.20</ele>
	<time>2023-04-15T08:09:56.000Z</time>
</trkpt>
<trkpt lat="45.7624480" lon="10.0048630">
	<ele>1224.60</ele>
	<time>2023-04-15T08:10:02.000Z</time>
</trkpt>
<trkpt lat="45.7624460" lon="10.0048620">
	<ele>1224.40</ele>
	<time>2023-04-15T08:10:03.000Z</time>
</trkpt>
<trkpt lat="45.7624450" lon="10.0048650">
	<ele>1224.40</ele>
	<time>2023-04-15T08:10:04.000Z</time>
</trkpt>
<trkpt lat="45.7624390" lon="10.0048580">
	<ele>1224.40</ele>
	<time>2023-04-15T08:10:06.000Z</time>
</trkpt>
<trkpt lat="45.7624380" lon="10.0048550">
	<ele>1225.00</ele>
	<time>2023-04-15T08:10:14.000Z</time>
</trkpt>
<trkpt lat="45.7624380" lon="10.0048550">
	<ele>1225.20</ele>
	<time>2023-04-15T08:10:23.000Z</time>
</trkpt>
<trkpt lat="45.7624380" lon="10.0048550">
	<ele>1225.20</ele>
	<time>2023-04-15T08:10:25.000Z</time>
</trkpt>
<trkpt lat="45.7624380" lon="10.0048550">
	<ele>1225.20</ele>
	<time>2023-04-15T08:10:27.000Z</time>
</trkpt>
<trkpt lat="45.7624380" lon="10.0048540">
	<ele>1225.00</ele>
	<time>2023-04-15T08:10:29.000Z</time>
</trkpt>
<trkpt lat="45.7624370" lon="10.0048530">
	<ele>1225.00</ele>
	<time>2023-04-15T08:10:33.000Z</time>
</trkpt>
<trkpt lat="45.7623600" lon="10.0048090">
	<ele>1224.20</ele>
	<time>2023-04-15T08:11:19.000Z</time>
</trkpt>
<trkpt lat="45.7622920" lon="10.0047440">
	<ele>1224.20</ele>
	<time>2023-04-15T08:11:23.000Z</time>
</trkpt>
<trkpt lat="45.7622380" lon="10.0046890">
	<ele>1223.60</ele>
	<time>2023-04-15T08:11:28.000Z</time>
</trkpt>
<trkpt lat="45.7622330" lon="10.0046540">
	<ele>1223.40</ele>
	<time>2023-04-15T08:11:30.000Z</time>
</trkpt>
<trkpt lat="45.7622380" lon="10.0045980">
	<ele>1223.00</ele>
	<time>2023-04-15T08:11:35.000Z</time>
</trkpt>
<trkpt lat="45.7622630" lon="10.0045040">
	<ele>1222.80</ele>
	<time>2023-04-15T08:11:40.000Z</time>
</trkpt>
<trkpt lat="45.7622830" lon="10.0044710">
	<ele>1222.40</ele>
	<time>2023-04-15T08:11:42.000Z</time>
</trkpt>
<trkpt lat="45.7622820" lon="10.0044460">
	<ele>1222.20</ele>
	<time>2023-04-15T08:11:43.000Z</time>
</trkpt>
<trkpt lat="45.7622710" lon="10.0043440">
	<ele>1222.20</ele>
	<time>2023-04-15T08:11:48.000Z</time>
</trkpt>
<trkpt lat="45.7622530" lon="10.0042910">
	<ele>1222.40</ele>
	<time>2023-04-15T08:11:54.000Z</time>
</trkpt>
<trkpt lat="45.7622500" lon="10.0042830">
	<ele>1222.40</ele>
	<time>2023-04-15T08:11:56.000Z</time>
</trkpt>
<trkpt lat="45.7622520" lon="10.0042590">
	<ele>1222.60</ele>
	<time>2023-04-15T08:11:58.000Z</time>
</trkpt>
<trkpt lat="45.7622400" lon="10.0042250">
	<ele>1222.60</ele>
	<time>2023-04-15T08:12:01.000Z</time>
</trkpt>
<trkpt lat="45.7622220" lon="10.0041720">
	<ele>1222.20</ele>
	<time>2023-04-15T08:12:04.000Z</time>
</trkpt>
<trkpt lat="45.7621770" lon="10.0040990">
	<ele>1222.00</ele>
	<time>2023-04-15T08:12:13.000Z</time>
</trkpt>
<trkpt lat="45.7621750" lon="10.0040640">
	<ele>1222.00</ele>
	<time>2023-04-15T08:12:17.000Z</time>
</trkpt>
<trkpt lat="45.7621550" lon="10.0040370">
	<ele>1221.60</ele>
	<time>2023-04-15T08:12:21.000Z</time>
</trkpt>
<trkpt lat="45.7621500" lon="10.0040260">
	<ele>1221.60</ele>
	<time>2023-04-15T08:12:22.000Z</time>
</trkpt>
<trkpt lat="45.7621240" lon="10.0039630">
	<ele>1221.40</ele>
	<time>2023-04-15T08:12:27.000Z</time>
</trkpt>
<trkpt lat="45.7621210" lon="10.0039520">
	<ele>1221.40</ele>
	<time>2023-04-15T08:12:28.000Z</time>
</trkpt>
<trkpt lat="45.7621210" lon="10.0039290">
	<ele>1221.40</ele>
	<time>2023-04-15T08:12:30.000Z</time>
</trkpt>
<trkpt lat="45.7621050" lon="10.0039150">
	<ele>1221.40</ele>
	<time>2023-04-15T08:12:32.000Z</time>
</trkpt>
<trkpt lat="45.7620930" lon="10.0039020">
	<ele>1221.20</ele>
	<time>2023-04-15T08:12:34.000Z</time>
</trkpt>
<trkpt lat="45.7620890" lon="10.0038890">
	<ele>1221.20</ele>
	<time>2023-04-15T08:12:35.000Z</time>
</trkpt>
<trkpt lat="45.7620870" lon="10.0038620">
	<ele>1221.00</ele>
	<time>2023-04-15T08:12:37.000Z</time>
</trkpt>
<trkpt lat="45.7620890" lon="10.0038190">
	<ele>1221.00</ele>
	<time>2023-04-15T08:12:40.000Z</time>
</trkpt>
<trkpt lat="45.7620660" lon="10.0037650">
	<ele>1220.80</ele>
	<time>2023-04-15T08:12:46.000Z</time>
</trkpt>
<trkpt lat="45.7620250" lon="10.0036450">
	<ele>1220.60</ele>
	<time>2023-04-15T08:12:54.000Z</time>
</trkpt>
<trkpt lat="45.7619900" lon="10.0035400">
	<ele>1220.40</ele>
	<time>2023-04-15T08:13:01.000Z</time>
</trkpt>
<trkpt lat="45.7619890" lon="10.0035270">
	<ele>1220.40</ele>
	<time>2023-04-15T08:13:02.000Z</time>
</trkpt>
<trkpt lat="45.7619850" lon="10.0035180">
	<ele>1220.20</ele>
	<time>2023-04-15T08:13:03.000Z</time>
</trkpt>
<trkpt lat="45.7619820" lon="10.0035090">
	<ele>1220.20</ele>
	<time>2023-04-15T08:13:04.000Z</time>
</trkpt>
<trkpt lat="45.7619680" lon="10.0034460">
	<ele>1220.00</ele>
	<time>2023-04-15T08:13:08.000Z</time>
</trkpt>
<trkpt lat="45.7619480" lon="10.0033850">
	<ele>1220.40</ele>
	<time>2023-04-15T08:13:12.000Z</time>
</trkpt>
<trkpt lat="45.7619420" lon="10.0033150">
	<ele>1220.20</ele>
	<time>2023-04-15T08:13:17.000Z</time>
</trkpt>
<trkpt lat="45.7619400" lon="10.0032940">
	<ele>1220.20</ele>
	<time>2023-04-15T08:13:18.000Z</time>
</trkpt>
<trkpt lat="45.7619410" lon="10.0032770">
	<ele>1220.20</ele>
	<time>2023-04-15T08:13:20.000Z</time>
</trkpt>
<trkpt lat="45.7619400" lon="10.0032710">
	<ele>1220.20</ele>
	<time>2023-04-15T08:13:21.000Z</time>
</trkpt>
<trkpt lat="45.7619030" lon="10.0032350">
	<ele>1220.00</ele>
	<time>2023-04-15T08:13:26.000Z</time>
</trkpt>
<trkpt lat="45.7618790" lon="10.0031640">
	<ele>1219.20</ele>
	<time>2023-04-15T08:13:33.000Z</time>
</trkpt>
<trkpt lat="45.7618740" lon="10.0031460">
	<ele>1219.00</ele>
	<time>2023-04-15T08:13:34.000Z</time>
</trkpt>
<trkpt lat="45.7618770" lon="10.0030820">
	<ele>1218.60</ele>
	<time>2023-04-15T08:13:38.000Z</time>
</trkpt>
<trkpt lat="45.7618770" lon="10.0030680">
	<ele>1218.40</ele>
	<time>2023-04-15T08:13:39.000Z</time>
</trkpt>
<trkpt lat="45.7618740" lon="10.0030320">
	<ele>1218.00</ele>
	<time>2023-04-15T08:13:42.000Z</time>
</trkpt>
<trkpt lat="45.7618530" lon="10.0029900">
	<ele>1217.60</ele>
	<time>2023-04-15T08:13:45.000Z</time>
</trkpt>
<trkpt lat="45.7618500" lon="10.0029570">
	<ele>1217.40</ele>
	<time>2023-04-15T08:13:47.000Z</time>
</trkpt>
<trkpt lat="45.7618470" lon="10.0029330">
	<ele>1217.20</ele>
	<time>2023-04-15T08:13:49.000Z</time>
</trkpt>
<trkpt lat="45.7618370" lon="10.0029040">
	<ele>1217.00</ele>
	<time>2023-04-15T08:13:51.000Z</time>
</trkpt>
<trkpt lat="45.7618310" lon="10.0028940">
	<ele>1216.80</ele>
	<time>2023-04-15T08:13:52.000Z</time>
</trkpt>
<trkpt lat="45.7618110" lon="10.0028850">
	<ele>1216.80</ele>
	<time>2023-04-15T08:13:55.000Z</time>
</trkpt>
<trkpt lat="45.7618020" lon="10.0028600">
	<ele>1217.00</ele>
	<time>2023-04-15T08:13:58.000Z</time>
</trkpt>
<trkpt lat="45.7617940" lon="10.0028000">
	<ele>1216.80</ele>
	<time>2023-04-15T08:14:03.000Z</time>
</trkpt>
<trkpt lat="45.7617890" lon="10.0027870">
	<ele>1216.60</ele>
	<time>2023-04-15T08:14:05.000Z</time>
</trkpt>
<trkpt lat="45.7617760" lon="10.0027620">
	<ele>1216.40</ele>
	<time>2023-04-15T08:14:08.000Z</time>
</trkpt>
<trkpt lat="45.7617860" lon="10.0026890">
	<ele>1216.20</ele>
	<time>2023-04-15T08:14:12.000Z</time>
</trkpt>
<trkpt lat="45.7617950" lon="10.0026270">
	<ele>1216.00</ele>
	<time>2023-04-15T08:14:15.000Z</time>
</trkpt>
<trkpt lat="45.7617870" lon="10.0025290">
	<ele>1216.00</ele>
	<time>2023-04-15T08:14:21.000Z</time>
</trkpt>
<trkpt lat="45.7617850" lon="10.0025000">
	<ele>1216.00</ele>
	<time>2023-04-15T08:14:23.000Z</time>
</trkpt>
<trkpt lat="45.7617910" lon="10.0024760">
	<ele>1216.00</ele>
	<time>2023-04-15T08:14:25.000Z</time>
</trkpt>
<trkpt lat="45.7617920" lon="10.0024610">
	<ele>1215.80</ele>
	<time>2023-04-15T08:14:26.000Z</time>
</trkpt>
<trkpt lat="45.7617710" lon="10.0023910">
	<ele>1214.60</ele>
	<time>2023-04-15T08:14:32.000Z</time>
</trkpt>
<trkpt lat="45.7617650" lon="10.0023000">
	<ele>1214.00</ele>
	<time>2023-04-15T08:14:40.000Z</time>
</trkpt>
<trkpt lat="45.7617660" lon="10.0022910">
	<ele>1213.80</ele>
	<time>2023-04-15T08:14:41.000Z</time>
</trkpt>
<trkpt lat="45.7617650" lon="10.0022800">
	<ele>1213.60</ele>
	<time>2023-04-15T08:14:42.000Z</time>
</trkpt>
<trkpt lat="45.7617660" lon="10.0022630">
	<ele>1213.40</ele>
	<time>2023-04-15T08:14:43.000Z</time>
</trkpt>
<trkpt lat="45.7617650" lon="10.0022290">
	<ele>1213.20</ele>
	<time>2023-04-15T08:14:45.000Z</time>
</trkpt>
<trkpt lat="45.7617700" lon="10.0022080">
	<ele>1213.00</ele>
	<time>2023-04-15T08:14:47.000Z</time>
</trkpt>
<trkpt lat="45.7617680" lon="10.0021800">
	<ele>1212.80</ele>
	<time>2023-04-15T08:14:49.000Z</time>
</trkpt>
<trkpt lat="45.7617430" lon="10.0021560">
	<ele>1212.60</ele>
	<time>2023-04-15T08:14:53.000Z</time>
</trkpt>
<trkpt lat="45.7617360" lon="10.0021380">
	<ele>1212.40</ele>
	<time>2023-04-15T08:14:54.000Z</time>
</trkpt>
<trkpt lat="45.7617350" lon="10.0021060">
	<ele>1212.20</ele>
	<time>2023-04-15T08:14:56.000Z</time>
</trkpt>
<trkpt lat="45.7617520" lon="10.0020580">
	<ele>1211.80</ele>
	<time>2023-04-15T08:15:00.000Z</time>
</trkpt>
<trkpt lat="45.7617370" lon="10.0020000">
	<ele>1211.40</ele>
	<time>2023-04-15T08:15:04.000Z</time>
</trkpt>
<trkpt lat="45.7617320" lon="10.0019800">
	<ele>1211.20</ele>
	<time>2023-04-15T08:15:06.000Z</time>
</trkpt>
<trkpt lat="45.7617250" lon="10.0019250">
	<ele>1210.40</ele>
	<time>2023-04-15T08:15:12.000Z</time>
</trkpt>
<trkpt lat="45.7617270" lon="10.0019170">
	<ele>1210.20</ele>
	<time>2023-04-15T08:15:13.000Z</time>
</trkpt>
<trkpt lat="45.7617160" lon="10.0018830">
	<ele>1209.80</ele>
	<time>2023-04-15T08:15:19.000Z</time>
</trkpt>
<trkpt lat="45.7617150" lon="10.0018830">
	<ele>1209.80</ele>
	<time>2023-04-15T08:15:20.000Z</time>
</trkpt>
<trkpt lat="45.7617110" lon="10.0018820">
	<ele>1210.20</ele>
	<time>2023-04-15T08:15:27.000Z</time>
</trkpt>
<trkpt lat="45.7617110" lon="10.0018820">
	<ele>1209.60</ele>
	<time>2023-04-15T08:15:34.000Z</time>
</trkpt>
<trkpt lat="45.7617110" lon="10.0018820">
	<ele>1209.40</ele>
	<time>2023-04-15T08:15:36.000Z</time>
</trkpt>
<trkpt lat="45.7617110" lon="10.0018820">
	<ele>1208.80</ele>
	<time>2023-04-15T08:15:41.000Z</time>
</trkpt>
<trkpt lat="45.7617130" lon="10.0018790">
	<ele>1208.60</ele>
	<time>2023-04-15T08:15:46.000Z</time>
</trkpt>
<trkpt lat="45.7617130" lon="10.0018540">
	<ele>1208.40</ele>
	<time>2023-04-15T08:15:52.000Z</time>
</trkpt>
<trkpt lat="45.7617080" lon="10.0018040">
	<ele>1207.20</ele>
	<time>2023-04-15T08:16:01.000Z</time>
</trkpt>
<trkpt lat="45.7617010" lon="10.0017510">
	<ele>1206.80</ele>
	<time>2023-04-15T08:16:06.000Z</time>
</trkpt>
<trkpt lat="45.7616890" lon="10.0016780">
	<ele>1206.40</ele>
	<time>2023-04-15T08:16:09.000Z</time>
</trkpt>
<trkpt lat="45.7616890" lon="10.0016550">
	<ele>1206.20</ele>
	<time>2023-04-15T08:16:10.000Z</time>
</trkpt>
<trkpt lat="45.7616860" lon="10.0016310">
	<ele>1206.20</ele>
	<time>2023-04-15T08:16:11.000Z</time>
</trkpt>
<trkpt lat="45.7616770" lon="10.0015380">
	<ele>1206.00</ele>
	<time>2023-04-15T08:16:16.000Z</time>
</trkpt>
<trkpt lat="45.7616790" lon="10.0015030">
	<ele>1205.60</ele>
	<time>2023-04-15T08:16:19.000Z</time>
</trkpt>
<trkpt lat="45.7616730" lon="10.0014680">
	<ele>1205.20</ele>
	<time>2023-04-15T08:16:22.000Z</time>
</trkpt>
<trkpt lat="45.7616640" lon="10.0014650">
	<ele>1205.20</ele>
	<time>2023-04-15T08:16:23.000Z</time>
</trkpt>
<trkpt lat="45.7616600" lon="10.0014380">
	<ele>1205.00</ele>
	<time>2023-04-15T08:16:26.000Z</time>
</trkpt>
<trkpt lat="45.7616560" lon="10.0014240">
	<ele>1205.00</ele>
	<time>2023-04-15T08:16:27.000Z</time>
</trkpt>
<trkpt lat="45.7616530" lon="10.0013780">
	<ele>1204.20</ele>
	<time>2023-04-15T08:16:33.000Z</time>
</trkpt>
<trkpt lat="45.7616570" lon="10.0013690">
	<ele>1204.00</ele>
	<time>2023-04-15T08:16:34.000Z</time>
</trkpt>
<trkpt lat="45.7616490" lon="10.0013340">
	<ele>1203.20</ele>
	<time>2023-04-15T08:16:39.000Z</time>
</trkpt>
<trkpt lat="45.7616340" lon="10.0013210">
	<ele>1202.80</ele>
	<time>2023-04-15T08:16:46.000Z</time>
</trkpt>
<trkpt lat="45.7616190" lon="10.0012690">
	<ele>1202.00</ele>
	<time>2023-04-15T08:16:53.000Z</time>
</trkpt>
<trkpt lat="45.7616190" lon="10.0012590">
	<ele>1201.80</ele>
	<time>2023-04-15T08:16:54.000Z</time>
</trkpt>
<trkpt lat="45.7616140" lon="10.0012040">
	<ele>1202.00</ele>
	<time>2023-04-15T08:17:01.000Z</time>
</trkpt>
<trkpt lat="45.7616160" lon="10.0011080">
	<ele>1201.20</ele>
	<time>2023-04-15T08:17:09.000Z</time>
</trkpt>
<trkpt lat="45.7615940" lon="10.0010540">
	<ele>1201.00</ele>
	<time>2023-04-15T08:17:14.000Z</time>
</trkpt>
<trkpt lat="45.7615910" lon="10.0010390">
	<ele>1201.00</ele>
	<time>2023-04-15T08:17:17.000Z</time>
</trkpt>
<trkpt lat="45.7615860" lon="10.0010200">
	<ele>1201.00</ele>
	<time>2023-04-15T08:17:19.000Z</time>
</trkpt>
<trkpt lat="45.7615820" lon="10.0010030">
	<ele>1201.00</ele>
	<time>2023-04-15T08:17:20.000Z</time>
</trkpt>
<trkpt lat="45.7615810" lon="10.0009810">
	<ele>1200.80</ele>
	<time>2023-04-15T08:17:22.000Z</time>
</trkpt>
<trkpt lat="45.7615830" lon="10.0009420">
	<ele>1200.60</ele>
	<time>2023-04-15T08:17:25.000Z</time>
</trkpt>
<trkpt lat="45.7615790" lon="10.0008850">
	<ele>1200.00</ele>
	<time>2023-04-15T08:17:31.000Z</time>
</trkpt>
<trkpt lat="45.7615680" lon="10.0008060">
	<ele>1199.80</ele>
	<time>2023-04-15T08:17:36.000Z</time>
</trkpt>
<trkpt lat="45.7615650" lon="10.0007700">
	<ele>1199.60</ele>
	<time>2023-04-15T08:17:38.000Z</time>
</trkpt>
<trkpt lat="45.7615760" lon="10.0006390">
	<ele>1198.80</ele>
	<time>2023-04-15T08:17:47.000Z</time>
</trkpt>
<trkpt lat="45.7615670" lon="10.0005210">
	<ele>1199.40</ele>
	<time>2023-04-15T08:17:56.000Z</time>
</trkpt>
<trkpt lat="45.7615700" lon="10.0004330">
	<ele>1199.20</ele>
	<time>2023-04-15T08:18:01.000Z</time>
</trkpt>
<trkpt lat="45.7615550" lon="10.0003980">
	<ele>1198.80</ele>
	<time>2023-04-15T08:18:03.000Z</time>
</trkpt>
<trkpt lat="45.7615510" lon="10.0003850">
	<ele>1198.80</ele>
	<time>2023-04-15T08:18:04.000Z</time>
</trkpt>
<trkpt lat="45.7615110" lon="10.0003100">
	<ele>1198.20</ele>
	<time>2023-04-15T08:18:11.000Z</time>
</trkpt>
<trkpt lat="45.7614950" lon="10.0002380">
	<ele>1198.00</ele>
	<time>2023-04-15T08:18:15.000Z</time>
</trkpt>
<trkpt lat="45.7614880" lon="10.0001640">
	<ele>1197.80</ele>
	<time>2023-04-15T08:18:19.000Z</time>
</trkpt>
<trkpt lat="45.7614950" lon="10.0000910">
	<ele>1197.80</ele>
	<time>2023-04-15T08:18:24.000Z</time>
</trkpt>
<trkpt lat="45.7614990" lon="10.0000830">
	<ele>1197.80</ele>
	<time>2023-04-15T08:18:25.000Z</time>
</trkpt>
<trkpt lat="45.7614920" lon="10.0000680">
	<ele>1197.80</ele>
	<time>2023-04-15T08:18:26.000Z</time>
</trkpt>
<trkpt lat="45.7614910" lon="9.9999720">
	<ele>1198.20</ele>
	<time>2023-04-15T08:18:32.000Z</time>
</trkpt>
<trkpt lat="45.7614940" lon="9.9998840">
	<ele>1198.40</ele>
	<time>2023-04-15T08:18:38.000Z</time>
</trkpt>
<trkpt lat="45.7615040" lon="9.9998450">
	<ele>1198.80</ele>
	<time>2023-04-15T08:18:41.000Z</time>
</trkpt>
<trkpt lat="45.7615120" lon="9.9997660">
	<ele>1199.40</ele>
	<time>2023-04-15T08:18:47.000Z</time>
</trkpt>
<trkpt lat="45.7615160" lon="9.9997050">
	<ele>1199.60</ele>
	<time>2023-04-15T08:18:50.000Z</time>
</trkpt>
<trkpt lat="45.7615150" lon="9.9996630">
	<ele>1199.60</ele>
	<time>2023-04-15T08:18:53.000Z</time>
</trkpt>
<trkpt lat="45.7615140" lon="9.9996250">
	<ele>1199.40</ele>
	<time>2023-04-15T08:18:56.000Z</time>
</trkpt>
<trkpt lat="45.7615030" lon="9.9995610">
	<ele>1199.40</ele>
	<time>2023-04-15T08:19:00.000Z</time>
</trkpt>
<trkpt lat="45.7615020" lon="9.9995210">
	<ele>1199.40</ele>
	<time>2023-04-15T08:19:03.000Z</time>
</trkpt>
<trkpt lat="45.7614980" lon="9.9994390">
	<ele>1199.20</ele>
	<time>2023-04-15T08:19:08.000Z</time>
</trkpt>
<trkpt lat="45.7614950" lon="9.9993670">
	<ele>1199.00</ele>
	<time>2023-04-15T08:19:12.000Z</time>
</trkpt>
<trkpt lat="45.7614850" lon="9.9991960">
	<ele>1198.60</ele>
	<time>2023-04-15T08:19:21.000Z</time>
</trkpt>
<trkpt lat="45.7614850" lon="9.9990470">
	<ele>1198.60</ele>
	<time>2023-04-15T08:19:30.000Z</time>
</trkpt>
<trkpt lat="45.7614910" lon="9.9990300">
	<ele>1198.60</ele>
	<time>2023-04-15T08:19:31.000Z</time>
</trkpt>
<trkpt lat="45.7615040" lon="9.9989450">
	<ele>1198.80</ele>
	<time>2023-04-15T08:19:36.000Z</time>
</trkpt>
<trkpt lat="45.7615050" lon="9.9988730">
	<ele>1198.80</ele>
	<time>2023-04-15T08:19:41.000Z</time>
</trkpt>
<trkpt lat="45.7615000" lon="9.9988470">
	<ele>1199.20</ele>
	<time>2023-04-15T08:19:43.000Z</time>
</trkpt>
<trkpt lat="45.7614940" lon="9.9988280">
	<ele>1199.20</ele>
	<time>2023-04-15T08:19:44.000Z</time>
</trkpt>
<trkpt lat="45.7614860" lon="9.9988080">
	<ele>1199.40</ele>
	<time>2023-04-15T08:19:48.000Z</time>
</trkpt>
<trkpt lat="45.7614830" lon="9.9988070">
	<ele>1199.40</ele>
	<time>2023-04-15T08:19:49.000Z</time>
</trkpt>
<trkpt lat="45.7614850" lon="9.9988060">
	<ele>1199.60</ele>
	<time>2023-04-15T08:19:51.000Z</time>
</trkpt>
<trkpt lat="45.7614960" lon="9.9987970">
	<ele>1199.80</ele>
	<time>2023-04-15T08:19:55.000Z</time>
</trkpt>
<trkpt lat="45.7614970" lon="9.9987950">
	<ele>1199.80</ele>
	<time>2023-04-15T08:19:56.000Z</time>
</trkpt>
<trkpt lat="45.7614730" lon="9.9987750">
	<ele>1199.20</ele>
	<time>2023-04-15T08:20:12.000Z</time>
</trkpt>
<trkpt lat="45.7614220" lon="9.9986890">
	<ele>1199.40</ele>
	<time>2023-04-15T08:20:18.000Z</time>
</trkpt>
<trkpt lat="45.7614110" lon="9.9986750">
	<ele>1199.60</ele>
	<time>2023-04-15T08:20:19.000Z</time>
</trkpt>
<trkpt lat="45.7613930" lon="9.9986350">
	<ele>1199.60</ele>
	<time>2023-04-15T08:20:22.000Z</time>
</trkpt>
<trkpt lat="45.7613840" lon="9.9986030">
	<ele>1199.60</ele>
	<time>2023-04-15T08:20:25.000Z</time>
</trkpt>
<trkpt lat="45.7613830" lon="9.9985930">
	<ele>1199.60</ele>
	<time>2023-04-15T08:20:26.000Z</time>
</trkpt>
<trkpt lat="45.7613820" lon="9.9985130">
	<ele>1199.60</ele>
	<time>2023-04-15T08:20:32.000Z</time>
</trkpt>
<trkpt lat="45.7613770" lon="9.9984960">
	<ele>1199.80</ele>
	<time>2023-04-15T08:20:33.000Z</time>
</trkpt>
<trkpt lat="45.7613610" lon="9.9984510">
	<ele>1200.40</ele>
	<time>2023-04-15T08:20:36.000Z</time>
</trkpt>
<trkpt lat="45.7613470" lon="9.9983830">
	<ele>1199.40</ele>
	<time>2023-04-15T08:20:40.000Z</time>
</trkpt>
<trkpt lat="45.7613410" lon="9.9983210">
	<ele>1198.80</ele>
	<time>2023-04-15T08:20:44.000Z</time>
</trkpt>
<trkpt lat="45.7613380" lon="9.9983060">
	<ele>1198.80</ele>
	<time>2023-04-15T08:20:45.000Z</time>
</trkpt>
<trkpt lat="45.7613430" lon="9.9982090">
	<ele>1198.80</ele>
	<time>2023-04-15T08:20:52.000Z</time>
</trkpt>
<trkpt lat="45.7613470" lon="9.9981920">
	<ele>1198.80</ele>
	<time>2023-04-15T08:20:53.000Z</time>
</trkpt>
<trkpt lat="45.7613470" lon="9.9981650">
	<ele>1198.60</ele>
	<time>2023-04-15T08:20:55.000Z</time>
</trkpt>
<trkpt lat="45.7613280" lon="9.9980690">
	<ele>1198.40</ele>
	<time>2023-04-15T08:21:00.000Z</time>
</trkpt>
<trkpt lat="45.7613150" lon="9.9979300">
	<ele>1198.20</ele>
	<time>2023-04-15T08:21:09.000Z</time>
</trkpt>
<trkpt lat="45.7613070" lon="9.9978170">
	<ele>1198.20</ele>
	<time>2023-04-15T08:21:16.000Z</time>
</trkpt>
<trkpt lat="45.7613090" lon="9.9977370">
	<ele>1198.40</ele>
	<time>2023-04-15T08:21:20.000Z</time>
</trkpt>
<trkpt lat="45.7613190" lon="9.9976720">
	<ele>1199.20</ele>
	<time>2023-04-15T08:21:24.000Z</time>
</trkpt>
<trkpt lat="45.7613180" lon="9.9976670">
	<ele>1198.80</ele>
	<time>2023-04-15T08:21:26.000Z</time>
</trkpt>
<trkpt lat="45.7613280" lon="9.9976270">
	<ele>1198.20</ele>
	<time>2023-04-15T08:21:31.000Z</time>
</trkpt>
<trkpt lat="45.7612950" lon="9.9975370">
	<ele>1198.40</ele>
	<time>2023-04-15T08:21:36.000Z</time>
</trkpt>
<trkpt lat="45.7612950" lon="9.9974950">
	<ele>1198.60</ele>
	<time>2023-04-15T08:21:38.000Z</time>
</trkpt>
<trkpt lat="45.7612930" lon="9.9974790">
	<ele>1198.60</ele>
	<time>2023-04-15T08:21:39.000Z</time>
</trkpt>
<trkpt lat="45.7612450" lon="9.9973940">
	<ele>1199.40</ele>
	<time>2023-04-15T08:21:45.000Z</time>
</trkpt>
<trkpt lat="45.7612390" lon="9.9973810">
	<ele>1199.60</ele>
	<time>2023-04-15T08:21:46.000Z</time>
</trkpt>
<trkpt lat="45.7612300" lon="9.9973630">
	<ele>1199.80</ele>
	<time>2023-04-15T08:21:49.000Z</time>
</trkpt>
<trkpt lat="45.7612220" lon="9.9973320">
	<ele>1199.80</ele>
	<time>2023-04-15T08:21:51.000Z</time>
</trkpt>
<trkpt lat="45.7612200" lon="9.9973170">
	<ele>1200.00</ele>
	<time>2023-04-15T08:21:52.000Z</time>
</trkpt>
<trkpt lat="45.7611940" lon="9.9972050">
	<ele>1200.40</ele>
	<time>2023-04-15T08:21:59.000Z</time>
</trkpt>
<trkpt lat="45.7611660" lon="9.9971540">
	<ele>1200.80</ele>
	<time>2023-04-15T08:22:06.000Z</time>
</trkpt>
<trkpt lat="45.7611650" lon="9.9971500">
	<ele>1201.00</ele>
	<time>2023-04-15T08:22:07.000Z</time>
</trkpt>
<trkpt lat="45.7611620" lon="9.9971490">
	<ele>1201.20</ele>
	<time>2023-04-15T08:22:08.000Z</time>
</trkpt>
<trkpt lat="45.7611850" lon="9.9971210">
	<ele>1201.40</ele>
	<time>2023-04-15T08:22:16.000Z</time>
</trkpt>
<trkpt lat="45.7611860" lon="9.9971220">
	<ele>1201.40</ele>
	<time>2023-04-15T08:22:28.000Z</time>
</trkpt>
<trkpt lat="45.7611870" lon="9.9971220">
	<ele>1202.00</ele>
	<time>2023-04-15T08:22:50.000Z</time>
</trkpt>
<trkpt lat="45.7611770" lon="9.9971140">
	<ele>1203.00</ele>
	<time>2023-04-15T08:22:55.000Z</time>
</trkpt>
<trkpt lat="45.7611620" lon="9.9970880">
	<ele>1204.20</ele>
	<time>2023-04-15T08:23:00.000Z</time>
</trkpt>
<trkpt lat="45.7611580" lon="9.9970510">
	<ele>1205.40</ele>
	<time>2023-04-15T08:23:07.000Z</time>
</trkpt>
<trkpt lat="45.7611570" lon="9.9970460">
	<ele>1205.60</ele>
	<time>2023-04-15T08:23:08.000Z</time>
</trkpt>
<trkpt lat="45.7611570" lon="9.9970360">
	<ele>1206.00</ele>
	<time>2023-04-15T08:23:10.000Z</time>
</trkpt>
<trkpt lat="45.7611570" lon="9.9970270">
	<ele>1206.40</ele>
	<time>2023-04-15T08:23:12.000Z</time>
</trkpt>
<trkpt lat="45.7611570" lon="9.9969860">
	<ele>1207.60</ele>
	<time>2023-04-15T08:23:17.000Z</time>
</trkpt>
<trkpt lat="45.7611570" lon="9.9969610">
	<ele>1207.80</ele>
	<time>2023-04-15T08:23:19.000Z</time>
</trkpt>
<trkpt lat="45.7611790" lon="9.9967830">
	<ele>1208.40</ele>
	<time>2023-04-15T08:23:29.000Z</time>
</trkpt>
<trkpt lat="45.7611880" lon="9.9967330">
	<ele>1208.60</ele>
	<time>2023-04-15T08:23:31.000Z</time>
</trkpt>
<trkpt lat="45.7612120" lon="9.9966490">
	<ele>1208.80</ele>
	<time>2023-04-15T08:23:34.000Z</time>
</trkpt>
<trkpt lat="45.7612110" lon="9.9966120">
	<ele>1208.60</ele>
	<time>2023-04-15T08:23:36.000Z</time>
</trkpt>
<trkpt lat="45.7611920" lon="9.9965090">
	<ele>1208.40</ele>
	<time>2023-04-15T08:23:42.000Z</time>
</trkpt>
<trkpt lat="45.7611850" lon="9.9964870">
	<ele>1208.60</ele>
	<time>2023-04-15T08:23:44.000Z</time>
</trkpt>
<trkpt lat="45.7611820" lon="9.9964740">
	<ele>1208.80</ele>
	<time>2023-04-15T08:23:45.000Z</time>
</trkpt>
<trkpt lat="45.7611860" lon="9.9964360">
	<ele>1208.80</ele>
	<time>2023-04-15T08:23:47.000Z</time>
</trkpt>
<trkpt lat="45.7611850" lon="9.9963940">
	<ele>1208.60</ele>
	<time>2023-04-15T08:23:49.000Z</time>
</trkpt>
<trkpt lat="45.7611860" lon="9.9963690">
	<ele>1208.40</ele>
	<time>2023-04-15T08:23:52.000Z</time>
</trkpt>
<trkpt lat="45.7611910" lon="9.9963630">
	<ele>1208.20</ele>
	<time>2023-04-15T08:23:54.000Z</time>
</trkpt>
<trkpt lat="45.7611880" lon="9.9963620">
	<ele>1208.60</ele>
	<time>2023-04-15T08:24:00.000Z</time>
</trkpt>
<trkpt lat="45.7611860" lon="9.9963630">
	<ele>1208.40</ele>
	<time>2023-04-15T08:24:02.000Z</time>
</trkpt>
<trkpt lat="45.7611860" lon="9.9963600">
	<ele>1208.40</ele>
	<time>2023-04-15T08:24:04.000Z</time>
</trkpt>
<trkpt lat="45.7611990" lon="9.9963490">
	<ele>1207.80</ele>
	<time>2023-04-15T08:24:06.000Z</time>
</trkpt>
<trkpt lat="45.7611990" lon="9.9963300">
	<ele>1207.60</ele>
	<time>2023-04-15T08:24:08.000Z</time>
</trkpt>
<trkpt lat="45.7612020" lon="9.9963230">
	<ele>1207.20</ele>
	<time>2023-04-15T08:24:09.000Z</time>
</trkpt>
<trkpt lat="45.7612040" lon="9.9962830">
	<ele>1206.40</ele>
	<time>2023-04-15T08:24:15.000Z</time>
</trkpt>
<trkpt lat="45.7612000" lon="9.9962770">
	<ele>1206.40</ele>
	<time>2023-04-15T08:24:16.000Z</time>
</trkpt>
<trkpt lat="45.7612040" lon="9.9962290">
	<ele>1205.80</ele>
	<time>2023-04-15T08:24:20.000Z</time>
</trkpt>
<trkpt lat="45.7612010" lon="9.9961920">
	<ele>1205.40</ele>
	<time>2023-04-15T08:24:22.000Z</time>
</trkpt>
<trkpt lat="45.7612000" lon="9.9961690">
	<ele>1205.00</ele>
	<time>2023-04-15T08:24:23.000Z</time>
</trkpt>
<trkpt lat="45.7612060" lon="9.9961110">
	<ele>1204.60</ele>
	<time>2023-04-15T08:24:26.000Z</time>
</trkpt>
<trkpt lat="45.7612110" lon="9.9960970">
	<ele>1204.40</ele>
	<time>2023-04-15T08:24:27.000Z</time>
</trkpt>
<trkpt lat="45.7612200" lon="9.9960830">
	<ele>1204.40</ele>
	<time>2023-04-15T08:24:28.000Z</time>
</trkpt>
<trkpt lat="45.7612520" lon="9.9960130">
	<ele>1204.00</ele>
	<time>2023-04-15T08:24:33.000Z</time>
</trkpt>
<trkpt lat="45.7612550" lon="9.9959840">
	<ele>1203.80</ele>
	<time>2023-04-15T08:24:35.000Z</time>
</trkpt>
<trkpt lat="45.7612440" lon="9.9959360">
	<ele>1203.20</ele>
	<time>2023-04-15T08:24:38.000Z</time>
</trkpt>
<trkpt lat="45.7612420" lon="9.9959220">
	<ele>1202.80</ele>
	<time>2023-04-15T08:24:39.000Z</time>
</trkpt>
<trkpt lat="45.7612350" lon="9.9959040">
	<ele>1202.60</ele>
	<time>2023-04-15T08:24:41.000Z</time>
</trkpt>
<trkpt lat="45.7612370" lon="9.9958750">
	<ele>1202.40</ele>
	<time>2023-04-15T08:24:43.000Z</time>
</trkpt>
<trkpt lat="45.7612450" lon="9.9958540">
	<ele>1202.00</ele>
	<time>2023-04-15T08:24:45.000Z</time>
</trkpt>
<trkpt lat="45.7612480" lon="9.9958440">
	<ele>1201.80</ele>
	<time>2023-04-15T08:24:46.000Z</time>
</trkpt>
<trkpt lat="45.7612350" lon="9.9957630">
	<ele>1201.40</ele>
	<time>2023-04-15T08:24:53.000Z</time>
</trkpt>
<trkpt lat="45.7612390" lon="9.9957050">
	<ele>1201.40</ele>
	<time>2023-04-15T08:24:57.000Z</time>
</trkpt>
<trkpt lat="45.7612320" lon="9.9956830">
	<ele>1201.40</ele>
	<time>2023-04-15T08:24:59.000Z</time>
</trkpt>
<trkpt lat="45.7612580" lon="9.9955950">
	<ele>1201.40</ele>
	<time>2023-04-15T08:25:03.000Z</time>
</trkpt>
<trkpt lat="45.7612650" lon="9.9955680">
	<ele>1201.60</ele>
	<time>2023-04-15T08:25:05.000Z</time>
</trkpt>
<trkpt lat="45.7612650" lon="9.9955430">
	<ele>1201.60</ele>
	<time>2023-04-15T08:25:06.000Z</time>
</trkpt>
<trkpt lat="45.7612780" lon="9.9954560">
	<ele>1202.00</ele>
	<time>2023-04-15T08:25:11.000Z</time>
</trkpt>
<trkpt lat="45.7612780" lon="9.9954470">
	<ele>1202.00</ele>
	<time>2023-04-15T08:25:12.000Z</time>
</trkpt>
<trkpt lat="45.7612760" lon="9.9953820">
	<ele>1202.00</ele>
	<time>2023-04-15T08:25:15.000Z</time>
</trkpt>
<trkpt lat="45.7612780" lon="9.9953420">
	<ele>1201.80</ele>
	<time>2023-04-15T08:25:17.000Z</time>
</trkpt>
<trkpt lat="45.7612550" lon="9.9953370">
	<ele>1201.60</ele>
	<time>2023-04-15T08:25:18.000Z</time>
</trkpt>
<trkpt lat="45.7612420" lon="9.9953590">
	<ele>1201.40</ele>
	<time>2023-04-15T08:25:22.000Z</time>
</trkpt>
<trkpt lat="45.7612550" lon="9.9953620">
	<ele>1201.20</ele>
	<time>2023-04-15T08:25:24.000Z</time>
</trkpt>
<trkpt lat="45.7612660" lon="9.9953470">
	<ele>1201.20</ele>
	<time>2023-04-15T08:25:26.000Z</time>
</trkpt>
<trkpt lat="45.7612790" lon="9.9953140">
	<ele>1201.60</ele>
	<time>2023-04-15T08:25:29.000Z</time>
</trkpt>
<trkpt lat="45.7612770" lon="9.9953160">
	<ele>1201.80</ele>
	<time>2023-04-15T08:25:31.000Z</time>
</trkpt>
<trkpt lat="45.7612850" lon="9.9953170">
	<ele>1201.80</ele>
	<time>2023-04-15T08:25:34.000Z</time>
</trkpt>
<trkpt lat="45.7612840" lon="9.9953190">
	<ele>1201.80</ele>
	<time>2023-04-15T08:25:35.000Z</time>
</trkpt>
<trkpt lat="45.7612860" lon="9.9953220">
	<ele>1202.00</ele>
	<time>2023-04-15T08:25:37.000Z</time>
</trkpt>
<trkpt lat="45.7612890" lon="9.9953220">
	<ele>1202.20</ele>
	<time>2023-04-15T08:25:41.000Z</time>
</trkpt>
<trkpt lat="45.7612890" lon="9.9953160">
	<ele>1201.80</ele>
	<time>2023-04-15T08:25:56.000Z</time>
</trkpt>
<trkpt lat="45.7612900" lon="9.9952240">
	<ele>1201.00</ele>
	<time>2023-04-15T08:26:05.000Z</time>
</trkpt>
<trkpt lat="45.7613020" lon="9.9951360">
	<ele>1201.00</ele>
	<time>2023-04-15T08:26:08.000Z</time>
</trkpt>
<trkpt lat="45.7613070" lon="9.9950910">
	<ele>1201.00</ele>
	<time>2023-04-15T08:26:10.000Z</time>
</trkpt>
<trkpt lat="45.7613110" lon="9.9950680">
	<ele>1201.00</ele>
	<time>2023-04-15T08:26:11.000Z</time>
</trkpt>
<trkpt lat="45.7613080" lon="9.9950360">
	<ele>1200.80</ele>
	<time>2023-04-15T08:26:16.000Z</time>
</trkpt>
<trkpt lat="45.7613020" lon="9.9950440">
	<ele>1200.60</ele>
	<time>2023-04-15T08:26:18.000Z</time>
</trkpt>
<trkpt lat="45.7612980" lon="9.9950490">
	<ele>1200.80</ele>
	<time>2023-04-15T08:26:20.000Z</time>
</trkpt>
<trkpt lat="45.7612920" lon="9.9950670">
	<ele>1200.80</ele>
	<time>2023-04-15T08:26:24.000Z</time>
</trkpt>
<trkpt lat="45.7613060" lon="9.9949700">
	<ele>1200.80</ele>
	<time>2023-04-15T08:26:28.000Z</time>
</trkpt>
<trkpt lat="45.7613120" lon="9.9949440">
	<ele>1200.60</ele>
	<time>2023-04-15T08:26:29.000Z</time>
</trkpt>
<trkpt lat="45.7613200" lon="9.9949150">
	<ele>1200.40</ele>
	<time>2023-04-15T08:26:32.000Z</time>
</trkpt>
<trkpt lat="45.7613260" lon="9.9949040">
	<ele>1200.20</ele>
	<time>2023-04-15T08:26:33.000Z</time>
</trkpt>
<trkpt lat="45.7613450" lon="9.9948540">
	<ele>1200.00</ele>
	<time>2023-04-15T08:26:36.000Z</time>
</trkpt>
<trkpt lat="45.7613540" lon="9.9948310">
	<ele>1199.80</ele>
	<time>2023-04-15T08:26:37.000Z</time>
</trkpt>
<trkpt lat="45.7614030" lon="9.9947430">
	<ele>1198.80</ele>
	<time>2023-04-15T08:26:41.000Z</time>
</trkpt>
<trkpt lat="45.7614060" lon="9.9947200">
	<ele>1198.80</ele>
	<time>2023-04-15T08:26:42.000Z</time>
</trkpt>
<trkpt lat="45.7613860" lon="9.9946880">
	<ele>1198.60</ele>
	<time>2023-04-15T08:26:44.000Z</time>
</trkpt>
<trkpt lat="45.7613870" lon="9.9946590">
	<ele>1198.40</ele>
	<time>2023-04-15T08:26:46.000Z</time>
</trkpt>
<trkpt lat="45.7613870" lon="9.9946500">
	<ele>1198.20</ele>
	<time>2023-04-15T08:26:47.000Z</time>
</trkpt>
<trkpt lat="45.7613860" lon="9.9946380">
	<ele>1197.80</ele>
	<time>2023-04-15T08:26:48.000Z</time>
</trkpt>
<trkpt lat="45.7613840" lon="9.9945870">
	<ele>1197.40</ele>
	<time>2023-04-15T08:26:51.000Z</time>
</trkpt>
<trkpt lat="45.7613830" lon="9.9945770">
	<ele>1197.20</ele>
	<time>2023-04-15T08:26:52.000Z</time>
</trkpt>
<trkpt lat="45.7614140" lon="9.9945280">
	<ele>1197.00</ele>
	<time>2023-04-15T08:26:54.000Z</time>
</trkpt>
<trkpt lat="45.7614340" lon="9.9945060">
	<ele>1197.00</ele>
	<time>2023-04-15T08:26:56.000Z</time>
</trkpt>
<trkpt lat="45.7614080" lon="9.9944660">
	<ele>1196.80</ele>
	<time>2023-04-15T08:26:59.000Z</time>
</trkpt>
<trkpt lat="45.7614010" lon="9.9944410">
	<ele>1196.80</ele>
	<time>2023-04-15T08:27:01.000Z</time>
</trkpt>
<trkpt lat="45.7614060" lon="9.9943940">
	<ele>1196.80</ele>
	<time>2023-04-15T08:27:03.000Z</time>
</trkpt>
<trkpt lat="45.7614110" lon="9.9943670">
	<ele>1196.60</ele>
	<time>2023-04-15T08:27:04.000Z</time>
</trkpt>
<trkpt lat="45.7614190" lon="9.9943380">
	<ele>1196.60</ele>
	<time>2023-04-15T08:27:06.000Z</time>
</trkpt>
<trkpt lat="45.7614150" lon="9.9943050">
	<ele>1196.40</ele>
	<time>2023-04-15T08:27:08.000Z</time>
</trkpt>
<trkpt lat="45.7614070" lon="9.9942970">
	<ele>1196.20</ele>
	<time>2023-04-15T08:27:09.000Z</time>
</trkpt>
<trkpt lat="45.7614040" lon="9.9942480">
	<ele>1195.80</ele>
	<time>2023-04-15T08:27:13.000Z</time>
</trkpt>
<trkpt lat="45.7614130" lon="9.9941970">
	<ele>1195.40</ele>
	<time>2023-04-15T08:27:16.000Z</time>
</trkpt>
<trkpt lat="45.7614180" lon="9.9941680">
	<ele>1195.60</ele>
	<time>2023-04-15T08:27:18.000Z</time>
</trkpt>
<trkpt lat="45.7614380" lon="9.9941020">
	<ele>1196.00</ele>
	<time>2023-04-15T08:27:21.000Z</time>
</trkpt>
<trkpt lat="45.7614280" lon="9.9940660">
	<ele>1196.20</ele>
	<time>2023-04-15T08:27:23.000Z</time>
</trkpt>
<trkpt lat="45.7614330" lon="9.9940200">
	<ele>1196.20</ele>
	<time>2023-04-15T08:27:26.000Z</time>
</trkpt>
<trkpt lat="45.7614470" lon="9.9939340">
	<ele>1195.60</ele>
	<time>2023-04-15T08:27:33.000Z</time>
</trkpt>
<trkpt lat="45.7615210" lon="9.9938350">
	<ele>1195.80</ele>
	<time>2023-04-15T08:27:39.000Z</time>
</trkpt>
<trkpt lat="45.7615240" lon="9.9938140">
	<ele>1195.80</ele>
	<time>2023-04-15T08:27:40.000Z</time>
</trkpt>
<trkpt lat="45.7615470" lon="9.9937580">
	<ele>1196.40</ele>
	<time>2023-04-15T08:27:44.000Z</time>
</trkpt>
<trkpt lat="45.7615800" lon="9.9937050">
	<ele>1196.80</ele>
	<time>2023-04-15T08:27:48.000Z</time>
</trkpt>
<trkpt lat="45.7615800" lon="9.9936870">
	<ele>1197.20</ele>
	<time>2023-04-15T08:27:50.000Z</time>
</trkpt>
<trkpt lat="45.7615960" lon="9.9936360">
	<ele>1197.60</ele>
	<time>2023-04-15T08:27:54.000Z</time>
</trkpt>
<trkpt lat="45.7615900" lon="9.9936240">
	<ele>1197.80</ele>
	<time>2023-04-15T08:27:55.000Z</time>
</trkpt>
<trkpt lat="45.7615920" lon="9.9936250">
	<ele>1198.00</ele>
	<time>2023-04-15T08:27:56.000Z</time>
</trkpt>
<trkpt lat="45.7616000" lon="9.9936150">
	<ele>1198.40</ele>
	<time>2023-04-15T08:27:58.000Z</time>
</trkpt>
<trkpt lat="45.7616100" lon="9.9935860">
	<ele>1199.00</ele>
	<time>2023-04-15T08:28:01.000Z</time>
</trkpt>
<trkpt lat="45.7616140" lon="9.9935620">
	<ele>1199.20</ele>
	<time>2023-04-15T08:28:03.000Z</time>
</trkpt>
<trkpt lat="45.7616110" lon="9.9934930">
	<ele>1199.60</ele>
	<time>2023-04-15T08:28:06.000Z</time>
</trkpt>
<trkpt lat="45.7616270" lon="9.9934660">
	<ele>1199.80</ele>
	<time>2023-04-15T08:28:09.000Z</time>
</trkpt>
<trkpt lat="45.7616420" lon="9.9934540">
	<ele>1199.80</ele>
	<time>2023-04-15T08:28:10.000Z</time>
</trkpt>
<trkpt lat="45.7616650" lon="9.9934080">
	<ele>1199.80</ele>
	<time>2023-04-15T08:28:12.000Z</time>
</trkpt>
<trkpt lat="45.7616690" lon="9.9933760">
	<ele>1199.60</ele>
	<time>2023-04-15T08:28:14.000Z</time>
</trkpt>
<trkpt lat="45.7616660" lon="9.9933620">
	<ele>1199.60</ele>
	<time>2023-04-15T08:28:15.000Z</time>
</trkpt>
<trkpt lat="45.7616800" lon="9.9933170">
	<ele>1199.60</ele>
	<time>2023-04-15T08:28:19.000Z</time>
</trkpt>
<trkpt lat="45.7616930" lon="9.9932670">
	<ele>1199.60</ele>
	<time>2023-04-15T08:28:22.000Z</time>
</trkpt>
<trkpt lat="45.7616910" lon="9.9932220">
	<ele>1199.60</ele>
	<time>2023-04-15T08:28:24.000Z</time>
</trkpt>
<trkpt lat="45.7616940" lon="9.9932030">
	<ele>1199.80</ele>
	<time>2023-04-15T08:28:25.000Z</time>
</trkpt>
<trkpt lat="45.7617100" lon="9.9931380">
	<ele>1200.00</ele>
	<time>2023-04-15T08:28:29.000Z</time>
</trkpt>
<trkpt lat="45.7617280" lon="9.9931110">
	<ele>1200.00</ele>
	<time>2023-04-15T08:28:31.000Z</time>
</trkpt>
<trkpt lat="45.7617440" lon="9.9930600">
	<ele>1200.00</ele>
	<time>2023-04-15T08:28:34.000Z</time>
</trkpt>
<trkpt lat="45.7617840" lon="9.9929360">
	<ele>1200.80</ele>
	<time>2023-04-15T08:28:42.000Z</time>
</trkpt>
<trkpt lat="45.7617930" lon="9.9929230">
	<ele>1201.00</ele>
	<time>2023-04-15T08:28:43.000Z</time>
</trkpt>
<trkpt lat="45.7618090" lon="9.9928740">
	<ele>1201.60</ele>
	<time>2023-04-15T08:28:48.000Z</time>
</trkpt>
<trkpt lat="45.7618120" lon="9.9928460">
	<ele>1202.20</ele>
	<time>2023-04-15T08:28:50.000Z</time>
</trkpt>
<trkpt lat="45.7618190" lon="9.9928340">
	<ele>1202.40</ele>
	<time>2023-04-15T08:28:51.000Z</time>
</trkpt>
<trkpt lat="45.7618340" lon="9.9928080">
	<ele>1202.40</ele>
	<time>2023-04-15T08:28:53.000Z</time>
</trkpt>
<trkpt lat="45.7618430" lon="9.9927920">
	<ele>1202.60</ele>
	<time>2023-04-15T08:28:54.000Z</time>
</trkpt>
<trkpt lat="45.7618570" lon="9.9927000">
	<ele>1203.20</ele>
	<time>2023-04-15T08:29:01.000Z</time>
</trkpt>
<trkpt lat="45.7618620" lon="9.9926850">
	<ele>1203.40</ele>
	<time>2023-04-15T08:29:02.000Z</time>
</trkpt>
<trkpt lat="45.7618720" lon="9.9926570">
	<ele>1204.00</ele>
	<time>2023-04-15T08:29:04.000Z</time>
</trkpt>
<trkpt lat="45.7618710" lon="9.9926280">
	<ele>1204.40</ele>
	<time>2023-04-15T08:29:07.000Z</time>
</trkpt>
<trkpt lat="45.7618730" lon="9.9926200">
	<ele>1204.60</ele>
	<time>2023-04-15T08:29:08.000Z</time>
</trkpt>
<trkpt lat="45.7618780" lon="9.9926080">
	<ele>1204.60</ele>
	<time>2023-04-15T08:29:09.000Z</time>
</trkpt>
<trkpt lat="45.7618880" lon="9.9925860">
	<ele>1204.80</ele>
	<time>2023-04-15T08:29:11.000Z</time>
</trkpt>
<trkpt lat="45.7618970" lon="9.9925580">
	<ele>1205.00</ele>
	<time>2023-04-15T08:29:14.000Z</time>
</trkpt>
<trkpt lat="45.7619040" lon="9.9925390">
	<ele>1205.40</ele>
	<time>2023-04-15T08:29:16.000Z</time>
</trkpt>
<trkpt lat="45.7619050" lon="9.9925150">
	<ele>1205.60</ele>
	<time>2023-04-15T08:29:18.000Z</time>
</trkpt>
<trkpt lat="45.7619200" lon="9.9924680">
	<ele>1206.20</ele>
	<time>2023-04-15T08:29:22.000Z</time>
</trkpt>
<trkpt lat="45.7619330" lon="9.9924180">
	<ele>1206.60</ele>
	<time>2023-04-15T08:29:26.000Z</time>
</trkpt>
<trkpt lat="45.7619460" lon="9.9923600">
	<ele>1207.00</ele>
	<time>2023-04-15T08:29:30.000Z</time>
</trkpt>
<trkpt lat="45.7619600" lon="9.9922990">
	<ele>1207.80</ele>
	<time>2023-04-15T08:29:35.000Z</time>
</trkpt>
<trkpt lat="45.7619690" lon="9.9922900">
	<ele>1207.80</ele>
	<time>2023-04-15T08:29:36.000Z</time>
</trkpt>
<trkpt lat="45.7619790" lon="9.9922560">
	<ele>1208.40</ele>
	<time>2023-04-15T08:29:39.000Z</time>
</trkpt>
<trkpt lat="45.7619840" lon="9.9922260">
	<ele>1208.60</ele>
	<time>2023-04-15T08:29:42.000Z</time>
</trkpt>
<trkpt lat="45.7619880" lon="9.9922160">
	<ele>1208.80</ele>
	<time>2023-04-15T08:29:43.000Z</time>
</trkpt>
<trkpt lat="45.7619860" lon="9.9922040">
	<ele>1209.20</ele>
	<time>2023-04-15T08:29:46.000Z</time>
</trkpt>
<trkpt lat="45.7619900" lon="9.9922030">
	<ele>1209.20</ele>
	<time>2023-04-15T08:29:48.000Z</time>
</trkpt>
<trkpt lat="45.7619940" lon="9.9921780">
	<ele>1209.20</ele>
	<time>2023-04-15T08:29:50.000Z</time>
</trkpt>
<trkpt lat="45.7619910" lon="9.9921580">
	<ele>1209.20</ele>
	<time>2023-04-15T08:29:52.000Z</time>
</trkpt>
<trkpt lat="45.7619790" lon="9.9920980">
	<ele>1209.40</ele>
	<time>2023-04-15T08:29:57.000Z</time>
</trkpt>
<trkpt lat="45.7619570" lon="9.9919700">
	<ele>1209.60</ele>
	<time>2023-04-15T08:30:07.000Z</time>
</trkpt>
<trkpt lat="45.7619440" lon="9.9918710">
	<ele>1209.20</ele>
	<time>2023-04-15T08:30:14.000Z</time>
</trkpt>
<trkpt lat="45.7619410" lon="9.9918400">
	<ele>1209.20</ele>
	<time>2023-04-15T08:30:16.000Z</time>
</trkpt>
<trkpt lat="45.7619310" lon="9.9917810">
	<ele>1209.40</ele>
	<time>2023-04-15T08:30:20.000Z</time>
</trkpt>
<trkpt lat="45.7619110" lon="9.9917470">
	<ele>1209.80</ele>
	<time>2023-04-15T08:30:24.000Z</time>
</trkpt>
<trkpt lat="45.7619070" lon="9.9917330">
	<ele>1209.80</ele>
	<time>2023-04-15T08:30:25.000Z</time>
</trkpt>
<trkpt lat="45.7618920" lon="9.9916780">
	<ele>1209.80</ele>
	<time>2023-04-15T08:30:30.000Z</time>
</trkpt>
<trkpt lat="45.7618890" lon="9.9916370">
	<ele>1210.00</ele>
	<time>2023-04-15T08:30:33.000Z</time>
</trkpt>
<trkpt lat="45.7618650" lon="9.9916150">
	<ele>1210.20</ele>
	<time>2023-04-15T08:30:36.000Z</time>
</trkpt>
<trkpt lat="45.7618520" lon="9.9915920">
	<ele>1210.40</ele>
	<time>2023-04-15T08:30:38.000Z</time>
</trkpt>
<trkpt lat="45.7618440" lon="9.9915680">
	<ele>1210.20</ele>
	<time>2023-04-15T08:30:40.000Z</time>
</trkpt>
<trkpt lat="45.7618500" lon="9.9915270">
	<ele>1210.60</ele>
	<time>2023-04-15T08:30:45.000Z</time>
</trkpt>
<trkpt lat="45.7618470" lon="9.9915060">
	<ele>1210.80</ele>
	<time>2023-04-15T08:30:47.000Z</time>
</trkpt>
<trkpt lat="45.7618460" lon="9.9914900">
	<ele>1210.80</ele>
	<time>2023-04-15T08:30:48.000Z</time>
</trkpt>
<trkpt lat="45.7618420" lon="9.9914750">
	<ele>1211.00</ele>
	<time>2023-04-15T08:30:49.000Z</time>
</trkpt>
<trkpt lat="45.7618230" lon="9.9913910">
	<ele>1210.80</ele>
	<time>2023-04-15T08:30:56.000Z</time>
</trkpt>
<trkpt lat="45.7618280" lon="9.9913150">
	<ele>1210.80</ele>
	<time>2023-04-15T08:31:01.000Z</time>
</trkpt>
<trkpt lat="45.7618390" lon="9.9912710">
	<ele>1211.00</ele>
	<time>2023-04-15T08:31:05.000Z</time>
</trkpt>
<trkpt lat="45.7618410" lon="9.9912630">
	<ele>1211.20</ele>
	<time>2023-04-15T08:31:06.000Z</time>
</trkpt>
<trkpt lat="45.7618370" lon="9.9912370">
	<ele>1211.20</ele>
	<time>2023-04-15T08:31:08.000Z</time>
</trkpt>
<trkpt lat="45.7618390" lon="9.9912180">
	<ele>1211.40</ele>
	<time>2023-04-15T08:31:10.000Z</time>
</trkpt>
<trkpt lat="45.7618520" lon="9.9912010">
	<ele>1211.60</ele>
	<time>2023-04-15T08:31:12.000Z</time>
</trkpt>
<trkpt lat="45.7618950" lon="9.9911220">
	<ele>1212.00</ele>
	<time>2023-04-15T08:31:18.000Z</time>
</trkpt>
<trkpt lat="45.7618980" lon="9.9911080">
	<ele>1212.00</ele>
	<time>2023-04-15T08:31:19.000Z</time>
</trkpt>
<trkpt lat="45.7619430" lon="9.9910050">
	<ele>1211.80</ele>
	<time>2023-04-15T08:31:27.000Z</time>
</trkpt>
<trkpt lat="45.7619800" lon="9.9909290">
	<ele>1211.00</ele>
	<time>2023-04-15T08:31:34.000Z</time>
</trkpt>
<trkpt lat="45.7619840" lon="9.9909180">
	<ele>1211.00</ele>
	<time>2023-04-15T08:31:35.000Z</time>
</trkpt>
<trkpt lat="45.7620270" lon="9.9908050">
	<ele>1209.80</ele>
	<time>2023-04-15T08:31:45.000Z</time>
</trkpt>
<trkpt lat="45.7620700" lon="9.9907130">
	<ele>1209.00</ele>
	<time>2023-04-15T08:31:53.000Z</time>
</trkpt>
<trkpt lat="45.7620860" lon="9.9906710">
	<ele>1208.80</ele>
	<time>2023-04-15T08:31:55.000Z</time>
</trkpt>
<trkpt lat="45.7620900" lon="9.9906600">
	<ele>1208.40</ele>
	<time>2023-04-15T08:31:57.000Z</time>
</trkpt>
<trkpt lat="45.7620860" lon="9.9906340">
	<ele>1208.20</ele>
	<time>2023-04-15T08:31:59.000Z</time>
</trkpt>
<trkpt lat="45.7620980" lon="9.9905880">
	<ele>1207.80</ele>
	<time>2023-04-15T08:32:02.000Z</time>
</trkpt>
<trkpt lat="45.7621050" lon="9.9905800">
	<ele>1207.60</ele>
	<time>2023-04-15T08:32:03.000Z</time>
</trkpt>
<trkpt lat="45.7621180" lon="9.9905220">
	<ele>1207.20</ele>
	<time>2023-04-15T08:32:07.000Z</time>
</trkpt>
<trkpt lat="45.7621240" lon="9.9904640">
	<ele>1207.00</ele>
	<time>2023-04-15T08:32:09.000Z</time>
</trkpt>
<trkpt lat="45.7621290" lon="9.9904400">
	<ele>1206.80</ele>
	<time>2023-04-15T08:32:10.000Z</time>
</trkpt>
<trkpt lat="45.7621340" lon="9.9903810">
	<ele>1206.60</ele>
	<time>2023-04-15T08:32:14.000Z</time>
</trkpt>
<trkpt lat="45.7621310" lon="9.9903540">
	<ele>1206.40</ele>
	<time>2023-04-15T08:32:17.000Z</time>
</trkpt>
<trkpt lat="45.7621300" lon="9.9902900">
	<ele>1206.00</ele>
	<time>2023-04-15T08:32:22.000Z</time>
</trkpt>
<trkpt lat="45.7621320" lon="9.9902650">
	<ele>1206.00</ele>
	<time>2023-04-15T08:32:24.000Z</time>
</trkpt>
<trkpt lat="45.7621320" lon="9.9902510">
	<ele>1206.00</ele>
	<time>2023-04-15T08:32:25.000Z</time>
</trkpt>
<trkpt lat="45.7621230" lon="9.9902180">
	<ele>1205.80</ele>
	<time>2023-04-15T08:32:27.000Z</time>
</trkpt>
<trkpt lat="45.7621290" lon="9.9901770">
	<ele>1205.60</ele>
	<time>2023-04-15T08:32:29.000Z</time>
</trkpt>
<trkpt lat="45.7621380" lon="9.9901420">
	<ele>1205.60</ele>
	<time>2023-04-15T08:32:31.000Z</time>
</trkpt>
<trkpt lat="45.7621480" lon="9.9901220">
	<ele>1205.60</ele>
	<time>2023-04-15T08:32:33.000Z</time>
</trkpt>
<trkpt lat="45.7621490" lon="9.9901180">
	<ele>1205.60</ele>
	<time>2023-04-15T08:32:35.000Z</time>
</trkpt>
<trkpt lat="45.7621570" lon="9.9901150">
	<ele>1205.60</ele>
	<time>2023-04-15T08:32:39.000Z</time>
</trkpt>
<trkpt lat="45.7621890" lon="9.9901390">
	<ele>1205.80</ele>
	<time>2023-04-15T08:32:47.000Z</time>
</trkpt>
<trkpt lat="45.7621890" lon="9.9901410">
	<ele>1205.60</ele>
	<time>2023-04-15T08:32:55.000Z</time>
</trkpt>
<trkpt lat="45.7621890" lon="9.9901410">
	<ele>1205.80</ele>
	<time>2023-04-15T08:32:59.000Z</time>
</trkpt>
<trkpt lat="45.7621880" lon="9.9901400">
	<ele>1205.60</ele>
	<time>2023-04-15T08:33:06.000Z</time>
</trkpt>
<trkpt lat="45.7621720" lon="9.9901420">
	<ele>1205.80</ele>
	<time>2023-04-15T08:33:26.000Z</time>
</trkpt>
<trkpt lat="45.7621730" lon="9.9901290">
	<ele>1205.80</ele>
	<time>2023-04-15T08:33:29.000Z</time>
</trkpt>
<trkpt lat="45.7621640" lon="9.9900840">
	<ele>1205.80</ele>
	<time>2023-04-15T08:33:32.000Z</time>
</trkpt>
<trkpt lat="45.7621530" lon="9.9899850">
	<ele>1206.00</ele>
	<time>2023-04-15T08:33:39.000Z</time>
</trkpt>
<trkpt lat="45.7621520" lon="9.9899800">
	<ele>1206.60</ele>
	<time>2023-04-15T08:33:46.000Z</time>
</trkpt>
<trkpt lat="45.7621510" lon="9.9899800">
	<ele>1206.60</ele>
	<time>2023-04-15T08:33:47.000Z</time>
</trkpt>
<trkpt lat="45.7621490" lon="9.9899770">
	<ele>1206.80</ele>
	<time>2023-04-15T08:33:52.000Z</time>
</trkpt>
<trkpt lat="45.7621490" lon="9.9899760">
	<ele>1206.80</ele>
	<time>2023-04-15T08:33:55.000Z</time>
</trkpt>
<trkpt lat="45.7621580" lon="9.9899390">
	<ele>1207.20</ele>
	<time>2023-04-15T08:34:38.000Z</time>
</trkpt>
<trkpt lat="45.7621610" lon="9.9899010">
	<ele>1207.60</ele>
	<time>2023-04-15T08:34:50.000Z</time>
</trkpt>
<trkpt lat="45.7621640" lon="9.9898900">
	<ele>1208.80</ele>
	<time>2023-04-15T08:35:01.000Z</time>
</trkpt>
<trkpt lat="45.7621640" lon="9.9898820">
	<ele>1209.00</ele>
	<time>2023-04-15T08:35:04.000Z</time>
</trkpt>
<trkpt lat="45.7621750" lon="9.9896760">
	<ele>1209.60</ele>
	<time>2023-04-15T08:35:11.000Z</time>
</trkpt>
<trkpt lat="45.7621760" lon="9.9896410">
	<ele>1209.60</ele>
	<time>2023-04-15T08:35:12.000Z</time>
</trkpt>
<trkpt lat="45.7621840" lon="9.9895660">
	<ele>1209.80</ele>
	<time>2023-04-15T08:35:14.000Z</time>
</trkpt>
<trkpt lat="45.7621860" lon="9.9895430">
	<ele>1210.00</ele>
	<time>2023-04-15T08:35:16.000Z</time>
</trkpt>
<trkpt lat="45.7621880" lon="9.9895100">
	<ele>1210.20</ele>
	<time>2023-04-15T08:35:18.000Z</time>
</trkpt>
<trkpt lat="45.7621920" lon="9.9894910">
	<ele>1210.40</ele>
	<time>2023-04-15T08:35:19.000Z</time>
</trkpt>
<trkpt lat="45.7621750" lon="9.9894010">
	<ele>1210.20</ele>
	<time>2023-04-15T08:35:25.000Z</time>
</trkpt>
<trkpt lat="45.7621660" lon="9.9892160">
	<ele>1210.00</ele>
	<time>2023-04-15T08:35:34.000Z</time>
</trkpt>
<trkpt lat="45.7621630" lon="9.9891090">
	<ele>1210.00</ele>
	<time>2023-04-15T08:35:41.000Z</time>
</trkpt>
<trkpt lat="45.7621950" lon="9.9890220">
	<ele>1210.00</ele>
	<time>2023-04-15T08:35:46.000Z</time>
</trkpt>
<trkpt lat="45.7622060" lon="9.9889840">
	<ele>1210.00</ele>
	<time>2023-04-15T08:35:49.000Z</time>
</trkpt>
<trkpt lat="45.7622770" lon="9.9888570">
	<ele>1210.00</ele>
	<time>2023-04-15T08:35:59.000Z</time>
</trkpt>
<trkpt lat="45.7622780" lon="9.9888550">
	<ele>1210.00</ele>
	<time>2023-04-15T08:36:00.000Z</time>
</trkpt>
<trkpt lat="45.7622800" lon="9.9888550">
	<ele>1210.00</ele>
	<time>2023-04-15T08:36:06.000Z</time>
</trkpt>
<trkpt lat="45.7622800" lon="9.9888600">
	<ele>1209.80</ele>
	<time>2023-04-15T08:36:09.000Z</time>
</trkpt>
<trkpt lat="45.7622800" lon="9.9888570">
	<ele>1209.60</ele>
	<time>2023-04-15T08:36:18.000Z</time>
</trkpt>
<trkpt lat="45.7622850" lon="9.9888550">
	<ele>1209.60</ele>
	<time>2023-04-15T08:36:29.000Z</time>
</trkpt>
<trkpt lat="45.7622850" lon="9.9888430">
	<ele>1209.60</ele>
	<time>2023-04-15T08:36:33.000Z</time>
</trkpt>
<trkpt lat="45.7623240" lon="9.9887580">
	<ele>1209.60</ele>
	<time>2023-04-15T08:36:47.000Z</time>
</trkpt>
<trkpt lat="45.7623330" lon="9.9887040">
	<ele>1209.20</ele>
	<time>2023-04-15T08:36:50.000Z</time>
</trkpt>
<trkpt lat="45.7623580" lon="9.9886670">
	<ele>1209.20</ele>
	<time>2023-04-15T08:36:54.000Z</time>
</trkpt>
<trkpt lat="45.7623640" lon="9.9885970">
	<ele>1208.60</ele>
	<time>2023-04-15T08:36:59.000Z</time>
</trkpt>
<trkpt lat="45.7623740" lon="9.9885620">
	<ele>1208.40</ele>
	<time>2023-04-15T08:37:02.000Z</time>
</trkpt>
<trkpt lat="45.7623910" lon="9.9885110">
	<ele>1208.40</ele>
	<time>2023-04-15T08:37:07.000Z</time>
</trkpt>
<trkpt lat="45.7623980" lon="9.9884950">
	<ele>1208.60</ele>
	<time>2023-04-15T08:37:09.000Z</time>
</trkpt>
<trkpt lat="45.7624010" lon="9.9884870">
	<ele>1208.60</ele>
	<time>2023-04-15T08:37:10.000Z</time>
</trkpt>
<trkpt lat="45.7624160" lon="9.9884560">
	<ele>1209.20</ele>
	<time>2023-04-15T08:37:14.000Z</time>
</trkpt>
<trkpt lat="45.7624250" lon="9.9884480">
	<ele>1209.40</ele>
	<time>2023-04-15T08:37:16.000Z</time>
</trkpt>
<trkpt lat="45.7624510" lon="9.9884400">
	<ele>1209.80</ele>
	<time>2023-04-15T08:37:20.000Z</time>
</trkpt>
<trkpt lat="45.7624600" lon="9.9884320">
	<ele>1209.80</ele>
	<time>2023-04-15T08:37:21.000Z</time>
</trkpt>
<trkpt lat="45.7624770" lon="9.9884230">
	<ele>1210.00</ele>
	<time>2023-04-15T08:37:22.000Z</time>
</trkpt>
<trkpt lat="45.7625200" lon="9.9883830">
	<ele>1210.80</ele>
	<time>2023-04-15T08:37:27.000Z</time>
</trkpt>
<trkpt lat="45.7625230" lon="9.9883720">
	<ele>1211.00</ele>
	<time>2023-04-15T08:37:28.000Z</time>
</trkpt>
<trkpt lat="45.7625250" lon="9.9883610">
	<ele>1211.20</ele>
	<time>2023-04-15T08:37:29.000Z</time>
</trkpt>
<trkpt lat="45.7625300" lon="9.9883570">
	<ele>1211.20</ele>
	<time>2023-04-15T08:37:31.000Z</time>
</trkpt>
<trkpt lat="45.7625450" lon="9.9883540">
	<ele>1211.60</ele>
	<time>2023-04-15T08:37:34.000Z</time>
</trkpt>
<trkpt lat="45.7625460" lon="9.9883490">
	<ele>1211.80</ele>
	<time>2023-04-15T08:37:35.000Z</time>
</trkpt>
<trkpt lat="45.7625480" lon="9.9883410">
	<ele>1212.00</ele>
	<time>2023-04-15T08:37:36.000Z</time>
</trkpt>
<trkpt lat="45.7625710" lon="9.9882990">
	<ele>1213.20</ele>
	<time>2023-04-15T08:37:42.000Z</time>
</trkpt>
<trkpt lat="45.7625950" lon="9.9882570">
	<ele>1213.80</ele>
	<time>2023-04-15T08:37:48.000Z</time>
</trkpt>
<trkpt lat="45.7626140" lon="9.9882270">
	<ele>1214.20</ele>
	<time>2023-04-15T08:37:50.000Z</time>
</trkpt>
<trkpt lat="45.7626390" lon="9.9881900">
	<ele>1215.20</ele>
	<time>2023-04-15T08:37:56.000Z</time>
</trkpt>
<trkpt lat="45.7626400" lon="9.9881850">
	<ele>1215.60</ele>
	<time>2023-04-15T08:37:57.000Z</time>
</trkpt>
<trkpt lat="45.7626590" lon="9.9881330">
	<ele>1216.40</ele>
	<time>2023-04-15T08:38:03.000Z</time>
</trkpt>
<trkpt lat="45.7626650" lon="9.9881200">
	<ele>1216.40</ele>
	<time>2023-04-15T08:38:04.000Z</time>
</trkpt>
<trkpt lat="45.7626820" lon="9.9880880">
	<ele>1217.00</ele>
	<time>2023-04-15T08:38:07.000Z</time>
</trkpt>
<trkpt lat="45.7626840" lon="9.9880840">
	<ele>1217.00</ele>
	<time>2023-04-15T08:38:08.000Z</time>
</trkpt>
<trkpt lat="45.7626830" lon="9.9880680">
	<ele>1217.20</ele>
	<time>2023-04-15T08:38:10.000Z</time>
</trkpt>
<trkpt lat="45.7626850" lon="9.9880650">
	<ele>1217.40</ele>
	<time>2023-04-15T08:38:11.000Z</time>
</trkpt>
<trkpt lat="45.7627100" lon="9.9880120">
	<ele>1218.20</ele>
	<time>2023-04-15T08:38:17.000Z</time>
</trkpt>
<trkpt lat="45.7627450" lon="9.9879000">
	<ele>1218.00</ele>
	<time>2023-04-15T08:38:27.000Z</time>
</trkpt>
<trkpt lat="45.7627690" lon="9.9878690">
	<ele>1218.40</ele>
	<time>2023-04-15T08:38:32.000Z</time>
</trkpt>
<trkpt lat="45.7627690" lon="9.9878420">
	<ele>1219.00</ele>
	<time>2023-04-15T08:38:35.000Z</time>
</trkpt>
<trkpt lat="45.7627870" lon="9.9878200">
	<ele>1219.60</ele>
	<time>2023-04-15T08:38:39.000Z</time>
</trkpt>
<trkpt lat="45.7627930" lon="9.9877780">
	<ele>1220.00</ele>
	<time>2023-04-15T08:38:44.000Z</time>
</trkpt>
<trkpt lat="45.7627960" lon="9.9877010">
	<ele>1220.60</ele>
	<time>2023-04-15T08:38:49.000Z</time>
</trkpt>
<trkpt lat="45.7628130" lon="9.9876450">
	<ele>1221.00</ele>
	<time>2023-04-15T08:38:54.000Z</time>
</trkpt>
<trkpt lat="45.7628500" lon="9.9875760">
	<ele>1221.40</ele>
	<time>2023-04-15T08:39:00.000Z</time>
</trkpt>
<trkpt lat="45.7628680" lon="9.9875630">
	<ele>1221.40</ele>
	<time>2023-04-15T08:39:02.000Z</time>
</trkpt>
<trkpt lat="45.7628780" lon="9.9875490">
	<ele>1221.80</ele>
	<time>2023-04-15T08:39:03.000Z</time>
</trkpt>
<trkpt lat="45.7629110" lon="9.9875290">
	<ele>1222.40</ele>
	<time>2023-04-15T08:39:07.000Z</time>
</trkpt>
<trkpt lat="45.7629110" lon="9.9875030">
	<ele>1222.60</ele>
	<time>2023-04-15T08:39:10.000Z</time>
</trkpt>
<trkpt lat="45.7629120" lon="9.9874860">
	<ele>1223.00</ele>
	<time>2023-04-15T08:39:11.000Z</time>
</trkpt>
<trkpt lat="45.7629260" lon="9.9874250">
	<ele>1223.80</ele>
	<time>2023-04-15T08:39:16.000Z</time>
</trkpt>
<trkpt lat="45.7629490" lon="9.9874170">
	<ele>1224.00</ele>
	<time>2023-04-15T08:39:18.000Z</time>
</trkpt>
<trkpt lat="45.7629720" lon="9.9874070">
	<ele>1224.60</ele>
	<time>2023-04-15T08:39:21.000Z</time>
</trkpt>
<trkpt lat="45.7629820" lon="9.9873950">
	<ele>1225.20</ele>
	<time>2023-04-15T08:39:24.000Z</time>
</trkpt>
<trkpt lat="45.7629920" lon="9.9873680">
	<ele>1225.60</ele>
	<time>2023-04-15T08:39:26.000Z</time>
</trkpt>
<trkpt lat="45.7629930" lon="9.9873520">
	<ele>1225.80</ele>
	<time>2023-04-15T08:39:27.000Z</time>
</trkpt>
<trkpt lat="45.7630450" lon="9.9873090">
	<ele>1226.20</ele>
	<time>2023-04-15T08:39:32.000Z</time>
</trkpt>
<trkpt lat="45.7630570" lon="9.9873070">
	<ele>1227.00</ele>
	<time>2023-04-15T08:39:35.000Z</time>
</trkpt>
<trkpt lat="45.7630740" lon="9.9873080">
	<ele>1227.40</ele>
	<time>2023-04-15T08:39:37.000Z</time>
</trkpt>
<trkpt lat="45.7630990" lon="9.9872700">
	<ele>1228.60</ele>
	<time>2023-04-15T08:39:43.000Z</time>
</trkpt>
<trkpt lat="45.7631030" lon="9.9872550">
	<ele>1228.60</ele>
	<time>2023-04-15T08:39:44.000Z</time>
</trkpt>
<trkpt lat="45.7631340" lon="9.9872260">
	<ele>1229.60</ele>
	<time>2023-04-15T08:39:50.000Z</time>
</trkpt>
<trkpt lat="45.7631470" lon="9.9871950">
	<ele>1229.80</ele>
	<time>2023-04-15T08:39:53.000Z</time>
</trkpt>
<trkpt lat="45.7631690" lon="9.9871930">
	<ele>1230.00</ele>
	<time>2023-04-15T08:39:57.000Z</time>
</trkpt>
<trkpt lat="45.7631900" lon="9.9871440">
	<ele>1230.20</ele>
	<time>2023-04-15T08:40:01.000Z</time>
</trkpt>
<trkpt lat="45.7632140" lon="9.9870740">
	<ele>1229.80</ele>
	<time>2023-04-15T08:40:07.000Z</time>
</trkpt>
<trkpt lat="45.7632180" lon="9.9870450">
	<ele>1229.40</ele>
	<time>2023-04-15T08:40:10.000Z</time>
</trkpt>
<trkpt lat="45.7632750" lon="9.9869450">
	<ele>1229.20</ele>
	<time>2023-04-15T08:40:19.000Z</time>
</trkpt>
<trkpt lat="45.7633060" lon="9.9868910">
	<ele>1229.60</ele>
	<time>2023-04-15T08:40:24.000Z</time>
</trkpt>
<trkpt lat="45.7633350" lon="9.9868410">
	<ele>1229.60</ele>
	<time>2023-04-15T08:40:28.000Z</time>
</trkpt>
<trkpt lat="45.7633850" lon="9.9866800">
	<ele>1229.20</ele>
	<time>2023-04-15T08:40:39.000Z</time>
</trkpt>
<trkpt lat="45.7634040" lon="9.9865760">
	<ele>1229.20</ele>
	<time>2023-04-15T08:40:46.000Z</time>
</trkpt>
<trkpt lat="45.7634230" lon="9.9865420">
	<ele>1229.40</ele>
	<time>2023-04-15T08:40:49.000Z</time>
</trkpt>
<trkpt lat="45.7634350" lon="9.9864520">
	<ele>1230.00</ele>
	<time>2023-04-15T08:40:57.000Z</time>
</trkpt>
<trkpt lat="45.7634490" lon="9.9863880">
	<ele>1229.40</ele>
	<time>2023-04-15T08:41:02.000Z</time>
</trkpt>
<trkpt lat="45.7634610" lon="9.9863090">
	<ele>1229.00</ele>
	<time>2023-04-15T08:41:07.000Z</time>
</trkpt>
<trkpt lat="45.7634620" lon="9.9862930">
	<ele>1229.00</ele>
	<time>2023-04-15T08:41:08.000Z</time>
</trkpt>
<trkpt lat="45.7634720" lon="9.9862610">
	<ele>1229.00</ele>
	<time>2023-04-15T08:41:10.000Z</time>
</trkpt>
<trkpt lat="45.7634930" lon="9.9861880">
	<ele>1229.20</ele>
	<time>2023-04-15T08:41:16.000Z</time>
</trkpt>
<trkpt lat="45.7635040" lon="9.9861340">
	<ele>1229.60</ele>
	<time>2023-04-15T08:41:20.000Z</time>
</trkpt>
<trkpt lat="45.7635290" lon="9.9860830">
	<ele>1229.80</ele>
	<time>2023-04-15T08:41:24.000Z</time>
</trkpt>
<trkpt lat="45.7635380" lon="9.9860620">
	<ele>1230.00</ele>
	<time>2023-04-15T08:41:26.000Z</time>
</trkpt>
<trkpt lat="45.7635570" lon="9.9859800">
	<ele>1230.20</ele>
	<time>2023-04-15T08:41:32.000Z</time>
</trkpt>
<trkpt lat="45.7635640" lon="9.9859330">
	<ele>1230.00</ele>
	<time>2023-04-15T08:41:36.000Z</time>
</trkpt>
<trkpt lat="45.7635580" lon="9.9858600">
	<ele>1229.80</ele>
	<time>2023-04-15T08:41:41.000Z</time>
</trkpt>
<trkpt lat="45.7635580" lon="9.9858450">
	<ele>1229.80</ele>
	<time>2023-04-15T08:41:42.000Z</time>
</trkpt>
<trkpt lat="45.7635630" lon="9.9857560">
	<ele>1229.80</ele>
	<time>2023-04-15T08:41:49.000Z</time>
</trkpt>
<trkpt lat="45.7635660" lon="9.9857130">
	<ele>1229.60</ele>
	<time>2023-04-15T08:41:52.000Z</time>
</trkpt>
<trkpt lat="45.7635700" lon="9.9856950">
	<ele>1229.40</ele>
	<time>2023-04-15T08:41:53.000Z</time>
</trkpt>
<trkpt lat="45.7635890" lon="9.9856430">
	<ele>1228.80</ele>
	<time>2023-04-15T08:41:56.000Z</time>
</trkpt>
<trkpt lat="45.7635940" lon="9.9856010">
	<ele>1229.40</ele>
	<time>2023-04-15T08:41:59.000Z</time>
</trkpt>
<trkpt lat="45.7635990" lon="9.9855880">
	<ele>1229.60</ele>
	<time>2023-04-15T08:42:01.000Z</time>
</trkpt>
<trkpt lat="45.7635990" lon="9.9855830">
	<ele>1230.00</ele>
	<time>2023-04-15T08:42:04.000Z</time>
</trkpt>
<trkpt lat="45.7636070" lon="9.9855700">
	<ele>1230.00</ele>
	<time>2023-04-15T08:42:06.000Z</time>
</trkpt>
<trkpt lat="45.7636090" lon="9.9855570">
	<ele>1230.00</ele>
	<time>2023-04-15T08:42:08.000Z</time>
</trkpt>
<trkpt lat="45.7636070" lon="9.9855070">
	<ele>1230.00</ele>
	<time>2023-04-15T08:42:12.000Z</time>
</trkpt>
<trkpt lat="45.7635940" lon="9.9854920">
	<ele>1230.00</ele>
	<time>2023-04-15T08:42:14.000Z</time>
</trkpt>
<trkpt lat="45.7635950" lon="9.9854300">
	<ele>1230.00</ele>
	<time>2023-04-15T08:42:17.000Z</time>
</trkpt>
<trkpt lat="45.7635950" lon="9.9853400">
	<ele>1229.60</ele>
	<time>2023-04-15T08:42:20.000Z</time>
</trkpt>
<trkpt lat="45.7636060" lon="9.9852150">
	<ele>1229.80</ele>
	<time>2023-04-15T08:42:29.000Z</time>
</trkpt>
<trkpt lat="45.7635940" lon="9.9851040">
	<ele>1229.60</ele>
	<time>2023-04-15T08:42:37.000Z</time>
</trkpt>
<trkpt lat="45.7636200" lon="9.9849670">
	<ele>1230.60</ele>
	<time>2023-04-15T08:42:45.000Z</time>
</trkpt>
<trkpt lat="45.7636200" lon="9.9849560">
	<ele>1230.80</ele>
	<time>2023-04-15T08:42:46.000Z</time>
</trkpt>
<trkpt lat="45.7636010" lon="9.9848520">
	<ele>1230.80</ele>
	<time>2023-04-15T08:42:53.000Z</time>
</trkpt>
<trkpt lat="45.7636170" lon="9.9847130">
	<ele>1231.00</ele>
	<time>2023-04-15T08:43:00.000Z</time>
</trkpt>
<trkpt lat="45.7636160" lon="9.9846410">
	<ele>1231.60</ele>
	<time>2023-04-15T08:43:06.000Z</time>
</trkpt>
<trkpt lat="45.7636100" lon="9.9846320">
	<ele>1231.60</ele>
	<time>2023-04-15T08:43:08.000Z</time>
</trkpt>
<trkpt lat="45.7636010" lon="9.9846330">
	<ele>1231.20</ele>
	<time>2023-04-15T08:43:11.000Z</time>
</trkpt>
<trkpt lat="45.7635960" lon="9.9846270">
	<ele>1231.20</ele>
	<time>2023-04-15T08:43:12.000Z</time>
</trkpt>
<trkpt lat="45.7635850" lon="9.9846020">
	<ele>1230.80</ele>
	<time>2023-04-15T08:43:15.000Z</time>
</trkpt>
<trkpt lat="45.7635650" lon="9.9845650">
	<ele>1230.00</ele>
	<time>2023-04-15T08:43:18.000Z</time>
</trkpt>
<trkpt lat="45.7635560" lon="9.9845300">
	<ele>1229.60</ele>
	<time>2023-04-15T08:43:20.000Z</time>
</trkpt>
<trkpt lat="45.7635490" lon="9.9843770">
	<ele>1229.60</ele>
	<time>2023-04-15T08:43:28.000Z</time>
</trkpt>
<trkpt lat="45.7635550" lon="9.9843410">
	<ele>1230.00</ele>
	<time>2023-04-15T08:43:31.000Z</time>
</trkpt>
<trkpt lat="45.7635550" lon="9.9843380">
	<ele>1230.20</ele>
	<time>2023-04-15T08:43:33.000Z</time>
</trkpt>
<trkpt lat="45.7635550" lon="9.9843370">
	<ele>1230.20</ele>
	<time>2023-04-15T08:43:34.000Z</time>
</trkpt>
<trkpt lat="45.7635560" lon="9.9842710">
	<ele>1230.20</ele>
	<time>2023-04-15T08:43:41.000Z</time>
</trkpt>
<trkpt lat="45.7635480" lon="9.9841470">
	<ele>1230.60</ele>
	<time>2023-04-15T08:43:50.000Z</time>
</trkpt>
<trkpt lat="45.7635520" lon="9.9841290">
	<ele>1231.00</ele>
	<time>2023-04-15T08:43:52.000Z</time>
</trkpt>
<trkpt lat="45.7635380" lon="9.9840890">
	<ele>1231.80</ele>
	<time>2023-04-15T08:43:56.000Z</time>
</trkpt>
<trkpt lat="45.7635180" lon="9.9839800">
	<ele>1232.80</ele>
	<time>2023-04-15T08:44:03.000Z</time>
</trkpt>
<trkpt lat="45.7635110" lon="9.9839210">
	<ele>1233.80</ele>
	<time>2023-04-15T08:44:09.000Z</time>
</trkpt>
<trkpt lat="45.7635250" lon="9.9838860">
	<ele>1234.40</ele>
	<time>2023-04-15T08:44:12.000Z</time>
</trkpt>
<trkpt lat="45.7635120" lon="9.9838610">
	<ele>1235.00</ele>
	<time>2023-04-15T08:44:14.000Z</time>
</trkpt>
<trkpt lat="45.7635070" lon="9.9838480">
	<ele>1235.20</ele>
	<time>2023-04-15T08:44:15.000Z</time>
</trkpt>
<trkpt lat="45.7634570" lon="9.9838050">
	<ele>1236.00</ele>
	<time>2023-04-15T08:44:20.000Z</time>
</trkpt>
<trkpt lat="45.7634500" lon="9.9837850">
	<ele>1236.20</ele>
	<time>2023-04-15T08:44:22.000Z</time>
</trkpt>
<trkpt lat="45.7634460" lon="9.9837460">
	<ele>1236.80</ele>
	<time>2023-04-15T08:44:26.000Z</time>
</trkpt>
<trkpt lat="45.7634420" lon="9.9837470">
	<ele>1237.00</ele>
	<time>2023-04-15T08:44:28.000Z</time>
</trkpt>
<trkpt lat="45.7634440" lon="9.9837440">
	<ele>1237.20</ele>
	<time>2023-04-15T08:44:29.000Z</time>
</trkpt>
<trkpt lat="45.7634430" lon="9.9837360">
	<ele>1237.60</ele>
	<time>2023-04-15T08:44:33.000Z</time>
</trkpt>
<trkpt lat="45.7634460" lon="9.9837310">
	<ele>1237.40</ele>
	<time>2023-04-15T08:44:38.000Z</time>
</trkpt>
<trkpt lat="45.7634360" lon="9.9837160">
	<ele>1237.20</ele>
	<time>2023-04-15T08:44:39.000Z</time>
</trkpt>
<trkpt lat="45.7634170" lon="9.9836950">
	<ele>1237.20</ele>
	<time>2023-04-15T08:44:47.000Z</time>
</trkpt>
<trkpt lat="45.7633990" lon="9.9836690">
	<ele>1237.40</ele>
	<time>2023-04-15T08:44:51.000Z</time>
</trkpt>
<trkpt lat="45.7633890" lon="9.9836470">
	<ele>1237.60</ele>
	<time>2023-04-15T08:44:53.000Z</time>
</trkpt>
<trkpt lat="45.7633790" lon="9.9836230">
	<ele>1237.60</ele>
	<time>2023-04-15T08:44:55.000Z</time>
</trkpt>
<trkpt lat="45.7633310" lon="9.9835730">
	<ele>1237.60</ele>
	<time>2023-04-15T08:45:02.000Z</time>
</trkpt>
<trkpt lat="45.7632800" lon="9.9835350">
	<ele>1237.80</ele>
	<time>2023-04-15T08:45:08.000Z</time>
</trkpt>
<trkpt lat="45.7632510" lon="9.9834720">
	<ele>1237.80</ele>
	<time>2023-04-15T08:45:13.000Z</time>
</trkpt>
<trkpt lat="45.7632480" lon="9.9834630">
	<ele>1237.80</ele>
	<time>2023-04-15T08:45:14.000Z</time>
</trkpt>
<trkpt lat="45.7632350" lon="9.9834350">
	<ele>1238.00</ele>
	<time>2023-04-15T08:45:16.000Z</time>
</trkpt>
<trkpt lat="45.7632320" lon="9.9834270">
	<ele>1238.00</ele>
	<time>2023-04-15T08:45:17.000Z</time>
</trkpt>
<trkpt lat="45.7631950" lon="9.9833540">
	<ele>1238.40</ele>
	<time>2023-04-15T08:45:22.000Z</time>
</trkpt>
<trkpt lat="45.7631660" lon="9.9832970">
	<ele>1238.60</ele>
	<time>2023-04-15T08:45:24.000Z</time>
</trkpt>
<trkpt lat="45.7631560" lon="9.9832260">
	<ele>1238.80</ele>
	<time>2023-04-15T08:45:27.000Z</time>
</trkpt>
<trkpt lat="45.7631620" lon="9.9831190">
	<ele>1239.00</ele>
	<time>2023-04-15T08:45:31.000Z</time>
</trkpt>
<trkpt lat="45.7631510" lon="9.9830980">
	<ele>1239.20</ele>
	<time>2023-04-15T08:45:32.000Z</time>
</trkpt>
<trkpt lat="45.7631230" lon="9.9830680">
	<ele>1239.40</ele>
	<time>2023-04-15T08:45:35.000Z</time>
</trkpt>
<trkpt lat="45.7631180" lon="9.9830050">
	<ele>1239.80</ele>
	<time>2023-04-15T08:45:40.000Z</time>
</trkpt>
<trkpt lat="45.7631180" lon="9.9829890">
	<ele>1240.00</ele>
	<time>2023-04-15T08:45:41.000Z</time>
</trkpt>
<trkpt lat="45.7631230" lon="9.9829540">
	<ele>1240.20</ele>
	<time>2023-04-15T08:45:43.000Z</time>
</trkpt>
<trkpt lat="45.7631160" lon="9.9829040">
	<ele>1240.20</ele>
	<time>2023-04-15T08:45:47.000Z</time>
</trkpt>
<trkpt lat="45.7631090" lon="9.9828810">
	<ele>1240.40</ele>
	<time>2023-04-15T08:45:49.000Z</time>
</trkpt>
<trkpt lat="45.7631030" lon="9.9828680">
	<ele>1240.40</ele>
	<time>2023-04-15T08:45:50.000Z</time>
</trkpt>
<trkpt lat="45.7630820" lon="9.9827590">
	<ele>1240.60</ele>
	<time>2023-04-15T08:45:57.000Z</time>
</trkpt>
<trkpt lat="45.7630790" lon="9.9826420">
	<ele>1241.20</ele>
	<time>2023-04-15T08:46:04.000Z</time>
</trkpt>
<trkpt lat="45.7630780" lon="9.9826230">
	<ele>1241.20</ele>
	<time>2023-04-15T08:46:05.000Z</time>
</trkpt>
<trkpt lat="45.7630840" lon="9.9825630">
	<ele>1241.40</ele>
	<time>2023-04-15T08:46:09.000Z</time>
</trkpt>
<trkpt lat="45.7630930" lon="9.9825270">
	<ele>1241.20</ele>
	<time>2023-04-15T08:46:12.000Z</time>
</trkpt>
<trkpt lat="45.7630930" lon="9.9825160">
	<ele>1241.00</ele>
	<time>2023-04-15T08:46:13.000Z</time>
</trkpt>
<trkpt lat="45.7630930" lon="9.9824930">
	<ele>1240.80</ele>
	<time>2023-04-15T08:46:15.000Z</time>
</trkpt>
<trkpt lat="45.7630950" lon="9.9824700">
	<ele>1240.60</ele>
	<time>2023-04-15T08:46:17.000Z</time>
</trkpt>
<trkpt lat="45.7630920" lon="9.9824440">
	<ele>1240.40</ele>
	<time>2023-04-15T08:46:19.000Z</time>
</trkpt>
<trkpt lat="45.7630840" lon="9.9823700">
	<ele>1240.00</ele>
	<time>2023-04-15T08:46:24.000Z</time>
</trkpt>
<trkpt lat="45.7630860" lon="9.9823560">
	<ele>1240.00</ele>
	<time>2023-04-15T08:46:25.000Z</time>
</trkpt>
<trkpt lat="45.7631040" lon="9.9822840">
	<ele>1240.00</ele>
	<time>2023-04-15T08:46:30.000Z</time>
</trkpt>
<trkpt lat="45.7631180" lon="9.9822350">
	<ele>1240.00</ele>
	<time>2023-04-15T08:46:33.000Z</time>
</trkpt>
<trkpt lat="45.7631350" lon="9.9821390">
	<ele>1239.40</ele>
	<time>2023-04-15T08:46:39.000Z</time>
</trkpt>
<trkpt lat="45.7631550" lon="9.9820580">
	<ele>1239.40</ele>
	<time>2023-04-15T08:46:43.000Z</time>
</trkpt>
<trkpt lat="45.7631930" lon="9.9819410">
	<ele>1239.00</ele>
	<time>2023-04-15T08:46:50.000Z</time>
</trkpt>
<trkpt lat="45.7631950" lon="9.9819130">
	<ele>1238.80</ele>
	<time>2023-04-15T08:46:52.000Z</time>
</trkpt>
<trkpt lat="45.7631880" lon="9.9818270">
	<ele>1238.00</ele>
	<time>2023-04-15T08:46:58.000Z</time>
</trkpt>
<trkpt lat="45.7631930" lon="9.9817730">
	<ele>1237.80</ele>
	<time>2023-04-15T08:47:01.000Z</time>
</trkpt>
<trkpt lat="45.7632160" lon="9.9816970">
	<ele>1237.00</ele>
	<time>2023-04-15T08:47:06.000Z</time>
</trkpt>
<trkpt lat="45.7632190" lon="9.9816770">
	<ele>1237.00</ele>
	<time>2023-04-15T08:47:07.000Z</time>
</trkpt>
<trkpt lat="45.7632230" lon="9.9816570">
	<ele>1236.80</ele>
	<time>2023-04-15T08:47:08.000Z</time>
</trkpt>
<trkpt lat="45.7632340" lon="9.9816120">
	<ele>1236.80</ele>
	<time>2023-04-15T08:47:11.000Z</time>
</trkpt>
<trkpt lat="45.7632480" lon="9.9815490">
	<ele>1236.60</ele>
	<time>2023-04-15T08:47:15.000Z</time>
</trkpt>
<trkpt lat="45.7632570" lon="9.9815190">
	<ele>1236.40</ele>
	<time>2023-04-15T08:47:17.000Z</time>
</trkpt>
<trkpt lat="45.7633100" lon="9.9813870">
	<ele>1236.40</ele>
	<time>2023-04-15T08:47:27.000Z</time>
</trkpt>
<trkpt lat="45.7633660" lon="9.9812220">
	<ele>1236.40</ele>
	<time>2023-04-15T08:47:37.000Z</time>
</trkpt>
<trkpt lat="45.7633870" lon="9.9811510">
	<ele>1236.60</ele>
	<time>2023-04-15T08:47:41.000Z</time>
</trkpt>
<trkpt lat="45.7634150" lon="9.9810660">
	<ele>1236.40</ele>
	<time>2023-04-15T08:47:46.000Z</time>
</trkpt>
<trkpt lat="45.7634230" lon="9.9810500">
	<ele>1236.40</ele>
	<time>2023-04-15T08:47:47.000Z</time>
</trkpt>
<trkpt lat="45.7634430" lon="9.9809260">
	<ele>1236.40</ele>
	<time>2023-04-15T08:47:55.000Z</time>
</trkpt>
<trkpt lat="45.7634410" lon="9.9808920">
	<ele>1236.20</ele>
	<time>2023-04-15T08:47:57.000Z</time>
</trkpt>
<trkpt lat="45.7634420" lon="9.9808720">
	<ele>1236.20</ele>
	<time>2023-04-15T08:47:59.000Z</time>
</trkpt>
<trkpt lat="45.7634430" lon="9.9808650">
	<ele>1236.20</ele>
	<time>2023-04-15T08:48:01.000Z</time>
</trkpt>
<trkpt lat="45.7634420" lon="9.9808660">
	<ele>1236.00</ele>
	<time>2023-04-15T08:48:04.000Z</time>
</trkpt>
<trkpt lat="45.7634400" lon="9.9808650">
	<ele>1236.00</ele>
	<time>2023-04-15T08:48:06.000Z</time>
</trkpt>
<trkpt lat="45.7634350" lon="9.9808630">
	<ele>1236.00</ele>
	<time>2023-04-15T08:48:11.000Z</time>
</trkpt>
<trkpt lat="45.7634440" lon="9.9808370">
	<ele>1236.00</ele>
	<time>2023-04-15T08:48:14.000Z</time>
</trkpt>
<trkpt lat="45.7634560" lon="9.9808150">
	<ele>1236.00</ele>
	<time>2023-04-15T08:48:21.000Z</time>
</trkpt>
<trkpt lat="45.7634630" lon="9.9807720">
	<ele>1236.00</ele>
	<time>2023-04-15T08:48:47.000Z</time>
</trkpt>
<trkpt lat="45.7634790" lon="9.9807400">
	<ele>1236.00</ele>
	<time>2023-04-15T08:48:52.000Z</time>
</trkpt>
<trkpt lat="45.7634800" lon="9.9807310">
	<ele>1236.00</ele>
	<time>2023-04-15T08:48:57.000Z</time>
</trkpt>
<trkpt lat="45.7635150" lon="9.9807000">
	<ele>1236.00</ele>
	<time>2023-04-15T08:49:01.000Z</time>
</trkpt>
<trkpt lat="45.7635490" lon="9.9806740">
	<ele>1236.00</ele>
	<time>2023-04-15T08:49:06.000Z</time>
</trkpt>
<trkpt lat="45.7635510" lon="9.9806770">
	<ele>1236.20</ele>
	<time>2023-04-15T08:49:08.000Z</time>
</trkpt>
<trkpt lat="45.7635550" lon="9.9806820">
	<ele>1237.20</ele>
	<time>2023-04-15T08:49:16.000Z</time>
</trkpt>
<trkpt lat="45.7635550" lon="9.9806820">
	<ele>1237.00</ele>
	<time>2023-04-15T08:49:18.000Z</time>
</trkpt>
<trkpt lat="45.7635550" lon="9.9806820">
	<ele>1237.40</ele>
	<time>2023-04-15T08:49:30.000Z</time>
</trkpt>
<trkpt lat="45.7635570" lon="9.9806820">
	<ele>1236.80</ele>
	<time>2023-04-15T08:49:45.000Z</time>
</trkpt>
<trkpt lat="45.7635570" lon="9.9806820">
	<ele>1237.00</ele>
	<time>2023-04-15T08:49:48.000Z</time>
</trkpt>
<trkpt lat="45.7635650" lon="9.9806660">
	<ele>1236.40</ele>
	<time>2023-04-15T08:50:33.000Z</time>
</trkpt>
<trkpt lat="45.7635250" lon="9.9805800">
	<ele>1236.00</ele>
	<time>2023-04-15T08:51:19.000Z</time>
</trkpt>
<trkpt lat="45.7635210" lon="9.9805590">
	<ele>1235.80</ele>
	<time>2023-04-15T08:51:20.000Z</time>
</trkpt>
<trkpt lat="45.7634860" lon="9.9803950">
	<ele>1236.00</ele>
	<time>2023-04-15T08:51:30.000Z</time>
</trkpt>
<trkpt lat="45.7634840" lon="9.9803720">
	<ele>1236.00</ele>
	<time>2023-04-15T08:51:32.000Z</time>
</trkpt>
<trkpt lat="45.7634820" lon="9.9803610">
	<ele>1236.00</ele>
	<time>2023-04-15T08:51:33.000Z</time>
</trkpt>
<trkpt lat="45.7634790" lon="9.9803070">
	<ele>1235.80</ele>
	<time>2023-04-15T08:51:37.000Z</time>
</trkpt>
<trkpt lat="45.7634790" lon="9.9802770">
	<ele>1235.80</ele>
	<time>2023-04-15T08:51:39.000Z</time>
</trkpt>
<trkpt lat="45.7634570" lon="9.9801810">
	<ele>1236.20</ele>
	<time>2023-04-15T08:51:46.000Z</time>
</trkpt>
<trkpt lat="45.7634520" lon="9.9801690">
	<ele>1236.20</ele>
	<time>2023-04-15T08:51:47.000Z</time>
</trkpt>
<trkpt lat="45.7634260" lon="9.9801150">
	<ele>1236.60</ele>
	<time>2023-04-15T08:51:52.000Z</time>
</trkpt>
<trkpt lat="45.7634130" lon="9.9800940">
	<ele>1236.80</ele>
	<time>2023-04-15T08:51:54.000Z</time>
</trkpt>
<trkpt lat="45.7634040" lon="9.9800760">
	<ele>1236.80</ele>
	<time>2023-04-15T08:51:56.000Z</time>
</trkpt>
<trkpt lat="45.7633950" lon="9.9800650">
	<ele>1236.80</ele>
	<time>2023-04-15T08:51:57.000Z</time>
</trkpt>
<trkpt lat="45.7633850" lon="9.9800480">
	<ele>1237.00</ele>
	<time>2023-04-15T08:51:59.000Z</time>
</trkpt>
<trkpt lat="45.7633740" lon="9.9800270">
	<ele>1237.00</ele>
	<time>2023-04-15T08:52:01.000Z</time>
</trkpt>
<trkpt lat="45.7633560" lon="9.9799910">
	<ele>1237.20</ele>
	<time>2023-04-15T08:52:04.000Z</time>
</trkpt>
<trkpt lat="45.7633370" lon="9.9799620">
	<ele>1237.40</ele>
	<time>2023-04-15T08:52:07.000Z</time>
</trkpt>
<trkpt lat="45.7633340" lon="9.9799570">
	<ele>1237.60</ele>
	<time>2023-04-15T08:52:08.000Z</time>
</trkpt>
<trkpt lat="45.7633170" lon="9.9799150">
	<ele>1237.80</ele>
	<time>2023-04-15T08:52:12.000Z</time>
</trkpt>
<trkpt lat="45.7633130" lon="9.9799020">
	<ele>1238.00</ele>
	<time>2023-04-15T08:52:14.000Z</time>
</trkpt>
<trkpt lat="45.7633100" lon="9.9798920">
	<ele>1238.00</ele>
	<time>2023-04-15T08:52:15.000Z</time>
</trkpt>
<trkpt lat="45.7632900" lon="9.9798500">
	<ele>1238.20</ele>
	<time>2023-04-15T08:52:18.000Z</time>
</trkpt>
<trkpt lat="45.7632530" lon="9.9797810">
	<ele>1238.40</ele>
	<time>2023-04-15T08:52:23.000Z</time>
</trkpt>
<trkpt lat="45.7632450" lon="9.9797710">
	<ele>1238.60</ele>
	<time>2023-04-15T08:52:24.000Z</time>
</trkpt>
<trkpt lat="45.7632160" lon="9.9797110">
	<ele>1239.20</ele>
	<time>2023-04-15T08:52:29.000Z</time>
</trkpt>
<trkpt lat="45.7631950" lon="9.9796760">
	<ele>1239.40</ele>
	<time>2023-04-15T08:52:32.000Z</time>
</trkpt>
<trkpt lat="45.7631740" lon="9.9796430">
	<ele>1239.40</ele>
	<time>2023-04-15T08:52:35.000Z</time>
</trkpt>
<trkpt lat="45.7631320" lon="9.9795680">
	<ele>1240.00</ele>
	<time>2023-04-15T08:52:41.000Z</time>
</trkpt>
<trkpt lat="45.7630970" lon="9.9795250">
	<ele>1240.20</ele>
	<time>2023-04-15T08:52:45.000Z</time>
</trkpt>
<trkpt lat="45.7630650" lon="9.9794530">
	<ele>1241.00</ele>
	<time>2023-04-15T08:52:50.000Z</time>
</trkpt>
<trkpt lat="45.7630440" lon="9.9794140">
	<ele>1241.20</ele>
	<time>2023-04-15T08:52:53.000Z</time>
</trkpt>
<trkpt lat="45.7630380" lon="9.9794000">
	<ele>1241.40</ele>
	<time>2023-04-15T08:52:54.000Z</time>
</trkpt>
<trkpt lat="45.7629990" lon="9.9793180">
	<ele>1241.60</ele>
	<time>2023-04-15T08:53:00.000Z</time>
</trkpt>
<trkpt lat="45.7629450" lon="9.9792190">
	<ele>1242.00</ele>
	<time>2023-04-15T08:53:09.000Z</time>
</trkpt>
<trkpt lat="45.7629300" lon="9.9791750">
	<ele>1242.40</ele>
	<time>2023-04-15T08:53:14.000Z</time>
</trkpt>
<trkpt lat="45.7629270" lon="9.9791740">
	<ele>1242.40</ele>
	<time>2023-04-15T08:53:15.000Z</time>
</trkpt>
<trkpt lat="45.7629240" lon="9.9791740">
	<ele>1242.40</ele>
	<time>2023-04-15T08:53:16.000Z</time>
</trkpt>
<trkpt lat="45.7629220" lon="9.9791720">
	<ele>1243.00</ele>
	<time>2023-04-15T08:53:21.000Z</time>
</trkpt>
<trkpt lat="45.7629220" lon="9.9791740">
	<ele>1243.40</ele>
	<time>2023-04-15T08:53:25.000Z</time>
</trkpt>
<trkpt lat="45.7629220" lon="9.9791740">
	<ele>1243.40</ele>
	<time>2023-04-15T08:53:27.000Z</time>
</trkpt>
<trkpt lat="45.7629220" lon="9.9791740">
	<ele>1242.60</ele>
	<time>2023-04-15T08:53:32.000Z</time>
</trkpt>
<trkpt lat="45.7629220" lon="9.9791740">
	<ele>1242.40</ele>
	<time>2023-04-15T08:53:34.000Z</time>
</trkpt>
<trkpt lat="45.7629230" lon="9.9791730">
	<ele>1242.40</ele>
	<time>2023-04-15T08:53:41.000Z</time>
</trkpt>
<trkpt lat="45.7629240" lon="9.9791950">
	<ele>1242.20</ele>
	<time>2023-04-15T08:54:13.000Z</time>
</trkpt>
<trkpt lat="45.7629240" lon="9.9791950">
	<ele>1242.60</ele>
	<time>2023-04-15T08:54:19.000Z</time>
</trkpt>
<trkpt lat="45.7629230" lon="9.9791950">
	<ele>1242.80</ele>
	<time>2023-04-15T08:54:22.000Z</time>
</trkpt>
<trkpt lat="45.7629230" lon="9.9791950">
	<ele>1242.80</ele>
	<time>2023-04-15T08:54:23.000Z</time>
</trkpt>
<trkpt lat="45.7629070" lon="9.9791540">
	<ele>1243.00</ele>
	<time>2023-04-15T08:54:28.000Z</time>
</trkpt>
<trkpt lat="45.7628960" lon="9.9791020">
	<ele>1242.80</ele>
	<time>2023-04-15T08:54:34.000Z</time>
</trkpt>
<trkpt lat="45.7628700" lon="9.9790010">
	<ele>1242.80</ele>
	<time>2023-04-15T08:54:42.000Z</time>
</trkpt>
<trkpt lat="45.7628460" lon="9.9789020">
	<ele>1242.80</ele>
	<time>2023-04-15T08:54:49.000Z</time>
</trkpt>
<trkpt lat="45.7628330" lon="9.9788040">
	<ele>1242.80</ele>
	<time>2023-04-15T08:54:56.000Z</time>
</trkpt>
<trkpt lat="45.7628300" lon="9.9787860">
	<ele>1242.80</ele>
	<time>2023-04-15T08:54:57.000Z</time>
</trkpt>
<trkpt lat="45.7628240" lon="9.9787580">
	<ele>1244.20</ele>
	<time>2023-04-15T08:54:59.000Z</time>
</trkpt>
<trkpt lat="45.7628170" lon="9.9787260">
	<ele>1245.40</ele>
	<time>2023-04-15T08:55:01.000Z</time>
</trkpt>
<trkpt lat="45.7627970" lon="9.9786780">
	<ele>1246.40</ele>
	<time>2023-04-15T08:55:04.000Z</time>
</trkpt>
<trkpt lat="45.7627930" lon="9.9786650">
	<ele>1246.80</ele>
	<time>2023-04-15T08:55:05.000Z</time>
</trkpt>
<trkpt lat="45.7627890" lon="9.9786530">
	<ele>1246.80</ele>
	<time>2023-04-15T08:55:06.000Z</time>
</trkpt>
<trkpt lat="45.7627540" lon="9.9785760">
	<ele>1247.40</ele>
	<time>2023-04-15T08:55:13.000Z</time>
</trkpt>
<trkpt lat="45.7627500" lon="9.9785390">
	<ele>1247.40</ele>
	<time>2023-04-15T08:55:16.000Z</time>
</trkpt>
<trkpt lat="45.7627340" lon="9.9785080">
	<ele>1247.80</ele>
	<time>2023-04-15T08:55:19.000Z</time>
</trkpt>
<trkpt lat="45.7627010" lon="9.9783980">
	<ele>1248.60</ele>
	<time>2023-04-15T08:55:27.000Z</time>
</trkpt>
<trkpt lat="45.7626960" lon="9.9783710">
	<ele>1248.80</ele>
	<time>2023-04-15T08:55:29.000Z</time>
</trkpt>
<trkpt lat="45.7626750" lon="9.9782900">
	<ele>1250.00</ele>
	<time>2023-04-15T08:55:34.000Z</time>
</trkpt>
<trkpt lat="45.7626700" lon="9.9782620">
	<ele>1250.00</ele>
	<time>2023-04-15T08:55:36.000Z</time>
</trkpt>
<trkpt lat="45.7626710" lon="9.9782420">
	<ele>1250.20</ele>
	<time>2023-04-15T08:55:37.000Z</time>
</trkpt>
<trkpt lat="45.7626750" lon="9.9781530">
	<ele>1250.40</ele>
	<time>2023-04-15T08:55:42.000Z</time>
</trkpt>
<trkpt lat="45.7626790" lon="9.9780950">
	<ele>1250.60</ele>
	<time>2023-04-15T08:55:45.000Z</time>
</trkpt>
<trkpt lat="45.7626620" lon="9.9779990">
	<ele>1250.80</ele>
	<time>2023-04-15T08:55:51.000Z</time>
</trkpt>
<trkpt lat="45.7626420" lon="9.9779180">
	<ele>1251.00</ele>
	<time>2023-04-15T08:55:56.000Z</time>
</trkpt>
<trkpt lat="45.7626370" lon="9.9778520">
	<ele>1251.40</ele>
	<time>2023-04-15T08:55:59.000Z</time>
</trkpt>
<trkpt lat="45.7626250" lon="9.9777830">
	<ele>1251.80</ele>
	<time>2023-04-15T08:56:03.000Z</time>
</trkpt>
<trkpt lat="45.7626120" lon="9.9777210">
	<ele>1252.00</ele>
	<time>2023-04-15T08:56:07.000Z</time>
</trkpt>
<trkpt lat="45.7626060" lon="9.9775990">
	<ele>1252.80</ele>
	<time>2023-04-15T08:56:15.000Z</time>
</trkpt>
<trkpt lat="45.7626010" lon="9.9775560">
	<ele>1253.00</ele>
	<time>2023-04-15T08:56:18.000Z</time>
</trkpt>
<trkpt lat="45.7625890" lon="9.9774230">
	<ele>1253.00</ele>
	<time>2023-04-15T08:56:27.000Z</time>
</trkpt>
<trkpt lat="45.7625720" lon="9.9772550">
	<ele>1253.20</ele>
	<time>2023-04-15T08:56:37.000Z</time>
</trkpt>
<trkpt lat="45.7625670" lon="9.9771340">
	<ele>1253.40</ele>
	<time>2023-04-15T08:56:45.000Z</time>
</trkpt>
<trkpt lat="45.7625680" lon="9.9770870">
	<ele>1253.60</ele>
	<time>2023-04-15T08:56:48.000Z</time>
</trkpt>
<trkpt lat="45.7625690" lon="9.9770120">
	<ele>1254.00</ele>
	<time>2023-04-15T08:56:54.000Z</time>
</trkpt>
<trkpt lat="45.7625740" lon="9.9769710">
	<ele>1254.00</ele>
	<time>2023-04-15T08:56:57.000Z</time>
</trkpt>
<trkpt lat="45.7625790" lon="9.9768930">
	<ele>1254.20</ele>
	<time>2023-04-15T08:57:02.000Z</time>
</trkpt>
<trkpt lat="45.7625680" lon="9.9768430">
	<ele>1254.40</ele>
	<time>2023-04-15T08:57:05.000Z</time>
</trkpt>
<trkpt lat="45.7625650" lon="9.9767900">
	<ele>1254.80</ele>
	<time>2023-04-15T08:57:09.000Z</time>
</trkpt>
<trkpt lat="45.7625650" lon="9.9766640">
	<ele>1255.00</ele>
	<time>2023-04-15T08:57:17.000Z</time>
</trkpt>
<trkpt lat="45.7625640" lon="9.9766040">
	<ele>1255.00</ele>
	<time>2023-04-15T08:57:21.000Z</time>
</trkpt>
<trkpt lat="45.7625670" lon="9.9765730">
	<ele>1255.00</ele>
	<time>2023-04-15T08:57:23.000Z</time>
</trkpt>
<trkpt lat="45.7625840" lon="9.9765160">
	<ele>1255.20</ele>
	<time>2023-04-15T08:57:26.000Z</time>
</trkpt>
<trkpt lat="45.7625760" lon="9.9764310">
	<ele>1255.60</ele>
	<time>2023-04-15T08:57:31.000Z</time>
</trkpt>
<trkpt lat="45.7625770" lon="9.9764050">
	<ele>1255.60</ele>
	<time>2023-04-15T08:57:32.000Z</time>
</trkpt>
<trkpt lat="45.7625740" lon="9.9763660">
	<ele>1255.80</ele>
	<time>2023-04-15T08:57:34.000Z</time>
</trkpt>
<trkpt lat="45.7625690" lon="9.9763170">
	<ele>1255.80</ele>
	<time>2023-04-15T08:57:37.000Z</time>
</trkpt>
<trkpt lat="45.7625570" lon="9.9762120">
	<ele>1256.20</ele>
	<time>2023-04-15T08:57:43.000Z</time>
</trkpt>
<trkpt lat="45.7625530" lon="9.9761790">
	<ele>1256.40</ele>
	<time>2023-04-15T08:57:45.000Z</time>
</trkpt>
<trkpt lat="45.7625290" lon="9.9760690">
	<ele>1257.00</ele>
	<time>2023-04-15T08:57:52.000Z</time>
</trkpt>
<trkpt lat="45.7624830" lon="9.9759860">
	<ele>1256.80</ele>
	<time>2023-04-15T08:57:59.000Z</time>
</trkpt>
<trkpt lat="45.7624250" lon="9.9759080">
	<ele>1255.20</ele>
	<time>2023-04-15T08:58:06.000Z</time>
</trkpt>
<trkpt lat="45.7624080" lon="9.9758800">
	<ele>1255.00</ele>
	<time>2023-04-15T08:58:08.000Z</time>
</trkpt>
<trkpt lat="45.7623670" lon="9.9757910">
	<ele>1254.00</ele>
	<time>2023-04-15T08:58:14.000Z</time>
</trkpt>
<trkpt lat="45.7623350" lon="9.9757080">
	<ele>1253.60</ele>
	<time>2023-04-15T08:58:18.000Z</time>
</trkpt>
<trkpt lat="45.7623020" lon="9.9756450">
	<ele>1252.80</ele>
	<time>2023-04-15T08:58:22.000Z</time>
</trkpt>
<trkpt lat="45.7622780" lon="9.9755570">
	<ele>1252.80</ele>
	<time>2023-04-15T08:58:27.000Z</time>
</trkpt>
<trkpt lat="45.7622300" lon="9.9754220">
	<ele>1253.80</ele>
	<time>2023-04-15T08:58:36.000Z</time>
</trkpt>
<trkpt lat="45.7622090" lon="9.9753190">
	<ele>1255.00</ele>
	<time>2023-04-15T08:58:44.000Z</time>
</trkpt>
<trkpt lat="45.7621990" lon="9.9752240">
	<ele>1256.00</ele>
	<time>2023-04-15T08:58:51.000Z</time>
</trkpt>
<trkpt lat="45.7622030" lon="9.9752130">
	<ele>1256.20</ele>
	<time>2023-04-15T08:58:52.000Z</time>
</trkpt>
<trkpt lat="45.7622060" lon="9.9751940">
	<ele>1256.40</ele>
	<time>2023-04-15T08:58:53.000Z</time>
</trkpt>
<trkpt lat="45.7621880" lon="9.9751340">
	<ele>1257.00</ele>
	<time>2023-04-15T08:58:57.000Z</time>
</trkpt>
<trkpt lat="45.7621860" lon="9.9751100">
	<ele>1257.40</ele>
	<time>2023-04-15T08:58:59.000Z</time>
</trkpt>
<trkpt lat="45.7621780" lon="9.9750250">
	<ele>1258.00</ele>
	<time>2023-04-15T08:59:04.000Z</time>
</trkpt>
<trkpt lat="45.7621680" lon="9.9749400">
	<ele>1259.20</ele>
	<time>2023-04-15T08:59:10.000Z</time>
</trkpt>
<trkpt lat="45.7621650" lon="9.9749120">
	<ele>1259.40</ele>
	<time>2023-04-15T08:59:12.000Z</time>
</trkpt>
<trkpt lat="45.7621630" lon="9.9748980">
	<ele>1259.60</ele>
	<time>2023-04-15T08:59:13.000Z</time>
</trkpt>
<trkpt lat="45.7621490" lon="9.9748400">
	<ele>1260.20</ele>
	<time>2023-04-15T08:59:17.000Z</time>
</trkpt>
<trkpt lat="45.7621440" lon="9.9748120">
	<ele>1260.40</ele>
	<time>2023-04-15T08:59:19.000Z</time>
</trkpt>
<trkpt lat="45.7621490" lon="9.9747970">
	<ele>1260.60</ele>
	<time>2023-04-15T08:59:20.000Z</time>
</trkpt>
<trkpt lat="45.7621490" lon="9.9747830">
	<ele>1260.80</ele>
	<time>2023-04-15T08:59:21.000Z</time>
</trkpt>
<trkpt lat="45.7621380" lon="9.9747410">
	<ele>1261.20</ele>
	<time>2023-04-15T08:59:24.000Z</time>
</trkpt>
<trkpt lat="45.7621320" lon="9.9747260">
	<ele>1261.40</ele>
	<time>2023-04-15T08:59:25.000Z</time>
</trkpt>
<trkpt lat="45.7621040" lon="9.9745940">
	<ele>1262.40</ele>
	<time>2023-04-15T08:59:33.000Z</time>
</trkpt>
<trkpt lat="45.7620990" lon="9.9745800">
	<ele>1262.40</ele>
	<time>2023-04-15T08:59:34.000Z</time>
</trkpt>
<trkpt lat="45.7620910" lon="9.9745460">
	<ele>1262.80</ele>
	<time>2023-04-15T08:59:37.000Z</time>
</trkpt>
<trkpt lat="45.7620860" lon="9.9745230">
	<ele>1263.00</ele>
	<time>2023-04-15T08:59:39.000Z</time>
</trkpt>
<trkpt lat="45.7620920" lon="9.9744880">
	<ele>1263.40</ele>
	<time>2023-04-15T08:59:41.000Z</time>
</trkpt>
<trkpt lat="45.7620990" lon="9.9744580">
	<ele>1263.80</ele>
	<time>2023-04-15T08:59:43.000Z</time>
</trkpt>
<trkpt lat="45.7620990" lon="9.9744040">
	<ele>1264.60</ele>
	<time>2023-04-15T08:59:48.000Z</time>
</trkpt>
<trkpt lat="45.7621090" lon="9.9743750">
	<ele>1265.00</ele>
	<time>2023-04-15T08:59:50.000Z</time>
</trkpt>
<trkpt lat="45.7621230" lon="9.9743210">
	<ele>1265.80</ele>
	<time>2023-04-15T08:59:54.000Z</time>
</trkpt>
<trkpt lat="45.7621220" lon="9.9742780">
	<ele>1266.40</ele>
	<time>2023-04-15T08:59:57.000Z</time>
</trkpt>
<trkpt lat="45.7621230" lon="9.9742450">
	<ele>1266.60</ele>
	<time>2023-04-15T08:59:59.000Z</time>
</trkpt>
<trkpt lat="45.7621270" lon="9.9742300">
	<ele>1266.80</ele>
	<time>2023-04-15T09:00:00.000Z</time>
</trkpt>
<trkpt lat="45.7621360" lon="9.9741800">
	<ele>1267.40</ele>
	<time>2023-04-15T09:00:03.000Z</time>
</trkpt>
<trkpt lat="45.7621460" lon="9.9741470">
	<ele>1268.00</ele>
	<time>2023-04-15T09:00:05.000Z</time>
</trkpt>
<trkpt lat="45.7621500" lon="9.9740560">
	<ele>1269.00</ele>
	<time>2023-04-15T09:00:12.000Z</time>
</trkpt>
<trkpt lat="45.7621510" lon="9.9740050">
	<ele>1270.00</ele>
	<time>2023-04-15T09:00:16.000Z</time>
</trkpt>
<trkpt lat="45.7621650" lon="9.9739300">
	<ele>1270.80</ele>
	<time>2023-04-15T09:00:21.000Z</time>
</trkpt>
<trkpt lat="45.7621600" lon="9.9738960">
	<ele>1271.20</ele>
	<time>2023-04-15T09:00:24.000Z</time>
</trkpt>
<trkpt lat="45.7621590" lon="9.9738480">
	<ele>1272.00</ele>
	<time>2023-04-15T09:00:30.000Z</time>
</trkpt>
<trkpt lat="45.7621610" lon="9.9738210">
	<ele>1272.20</ele>
	<time>2023-04-15T09:00:32.000Z</time>
</trkpt>
<trkpt lat="45.7621630" lon="9.9737410">
	<ele>1273.20</ele>
	<time>2023-04-15T09:00:39.000Z</time>
</trkpt>
<trkpt lat="45.7621610" lon="9.9737150">
	<ele>1273.60</ele>
	<time>2023-04-15T09:00:41.000Z</time>
</trkpt>
<trkpt lat="45.7621630" lon="9.9736610">
	<ele>1274.40</ele>
	<time>2023-04-15T09:00:46.000Z</time>
</trkpt>
<trkpt lat="45.7621570" lon="9.9736180">
	<ele>1275.20</ele>
	<time>2023-04-15T09:00:50.000Z</time>
</trkpt>
<trkpt lat="45.7621550" lon="9.9736080">
	<ele>1275.40</ele>
	<time>2023-04-15T09:00:51.000Z</time>
</trkpt>
<trkpt lat="45.7621540" lon="9.9735150">
	<ele>1276.60</ele>
	<time>2023-04-15T09:00:58.000Z</time>
</trkpt>
<trkpt lat="45.7621460" lon="9.9734770">
	<ele>1277.00</ele>
	<time>2023-04-15T09:01:01.000Z</time>
</trkpt>
<trkpt lat="45.7621530" lon="9.9734300">
	<ele>1277.40</ele>
	<time>2023-04-15T09:01:06.000Z</time>
</trkpt>
<trkpt lat="45.7621440" lon="9.9734010">
	<ele>1277.60</ele>
	<time>2023-04-15T09:01:08.000Z</time>
</trkpt>
<trkpt lat="45.7621320" lon="9.9733420">
	<ele>1278.80</ele>
	<time>2023-04-15T09:01:13.000Z</time>
</trkpt>
<trkpt lat="45.7621250" lon="9.9733270">
	<ele>1279.00</ele>
	<time>2023-04-15T09:01:14.000Z</time>
</trkpt>
<trkpt lat="45.7621140" lon="9.9732730">
	<ele>1279.80</ele>
	<time>2023-04-15T09:01:19.000Z</time>
</trkpt>
<trkpt lat="45.7621050" lon="9.9732450">
	<ele>1280.00</ele>
	<time>2023-04-15T09:01:22.000Z</time>
</trkpt>
<trkpt lat="45.7620850" lon="9.9731940">
	<ele>1280.80</ele>
	<time>2023-04-15T09:01:28.000Z</time>
</trkpt>
<trkpt lat="45.7620550" lon="9.9730720">
	<ele>1282.00</ele>
	<time>2023-04-15T09:01:37.000Z</time>
</trkpt>
<trkpt lat="45.7620530" lon="9.9730640">
	<ele>1282.20</ele>
	<time>2023-04-15T09:01:38.000Z</time>
</trkpt>
<trkpt lat="45.7620320" lon="9.9730100">
	<ele>1283.20</ele>
	<time>2023-04-15T09:01:43.000Z</time>
</trkpt>
<trkpt lat="45.7620200" lon="9.9729680">
	<ele>1283.60</ele>
	<time>2023-04-15T09:01:47.000Z</time>
</trkpt>
<trkpt lat="45.7620120" lon="9.9729230">
	<ele>1284.20</ele>
	<time>2023-04-15T09:01:51.000Z</time>
</trkpt>
<trkpt lat="45.7619880" lon="9.9728830">
	<ele>1284.60</ele>
	<time>2023-04-15T09:01:55.000Z</time>
</trkpt>
<trkpt lat="45.7619710" lon="9.9728380">
	<ele>1285.40</ele>
	<time>2023-04-15T09:01:58.000Z</time>
</trkpt>
<trkpt lat="45.7619620" lon="9.9727960">
	<ele>1285.80</ele>
	<time>2023-04-15T09:02:02.000Z</time>
</trkpt>
<trkpt lat="45.7619310" lon="9.9726980">
	<ele>1286.40</ele>
	<time>2023-04-15T09:02:09.000Z</time>
</trkpt>
<trkpt lat="45.7619170" lon="9.9726740">
	<ele>1286.40</ele>
	<time>2023-04-15T09:02:11.000Z</time>
</trkpt>
<trkpt lat="45.7618850" lon="9.9725980">
	<ele>1287.40</ele>
	<time>2023-04-15T09:02:18.000Z</time>
</trkpt>
<trkpt lat="45.7618750" lon="9.9725820">
	<ele>1287.60</ele>
	<time>2023-04-15T09:02:19.000Z</time>
</trkpt>
<trkpt lat="45.7618370" lon="9.9725080">
	<ele>1288.40</ele>
	<time>2023-04-15T09:02:26.000Z</time>
</trkpt>
<trkpt lat="45.7618210" lon="9.9724920">
	<ele>1288.60</ele>
	<time>2023-04-15T09:02:28.000Z</time>
</trkpt>
<trkpt lat="45.7617800" lon="9.9724420">
	<ele>1289.20</ele>
	<time>2023-04-15T09:02:33.000Z</time>
</trkpt>
<trkpt lat="45.7617520" lon="9.9724050">
	<ele>1289.60</ele>
	<time>2023-04-15T09:02:37.000Z</time>
</trkpt>
<trkpt lat="45.7617210" lon="9.9723520">
	<ele>1290.20</ele>
	<time>2023-04-15T09:02:42.000Z</time>
</trkpt>
<trkpt lat="45.7617050" lon="9.9723080">
	<ele>1290.60</ele>
	<time>2023-04-15T09:02:45.000Z</time>
</trkpt>
<trkpt lat="45.7616770" lon="9.9722580">
	<ele>1291.20</ele>
	<time>2023-04-15T09:02:49.000Z</time>
</trkpt>
<trkpt lat="45.7616580" lon="9.9722330">
	<ele>1291.60</ele>
	<time>2023-04-15T09:02:51.000Z</time>
</trkpt>
<trkpt lat="45.7616510" lon="9.9722180">
	<ele>1291.60</ele>
	<time>2023-04-15T09:02:52.000Z</time>
</trkpt>
<trkpt lat="45.7616220" lon="9.9721240">
	<ele>1292.60</ele>
	<time>2023-04-15T09:02:57.000Z</time>
</trkpt>
<trkpt lat="45.7616200" lon="9.9721130">
	<ele>1292.80</ele>
	<time>2023-04-15T09:02:58.000Z</time>
</trkpt>
<trkpt lat="45.7615970" lon="9.9720540">
	<ele>1293.20</ele>
	<time>2023-04-15T09:03:03.000Z</time>
</trkpt>
<trkpt lat="45.7615490" lon="9.9719640">
	<ele>1293.80</ele>
	<time>2023-04-15T09:03:10.000Z</time>
</trkpt>
<trkpt lat="45.7615290" lon="9.9719440">
	<ele>1294.20</ele>
	<time>2023-04-15T09:03:12.000Z</time>
</trkpt>
<trkpt lat="45.7614760" lon="9.9718780">
	<ele>1295.00</ele>
	<time>2023-04-15T09:03:19.000Z</time>
</trkpt>
<trkpt lat="45.7614380" lon="9.9718140">
	<ele>1295.20</ele>
	<time>2023-04-15T09:03:24.000Z</time>
</trkpt>
<trkpt lat="45.7614220" lon="9.9717820">
	<ele>1295.80</ele>
	<time>2023-04-15T09:03:27.000Z</time>
</trkpt>
<trkpt lat="45.7614170" lon="9.9717500">
	<ele>1296.00</ele>
	<time>2023-04-15T09:03:29.000Z</time>
</trkpt>
<trkpt lat="45.7614050" lon="9.9717210">
	<ele>1296.40</ele>
	<time>2023-04-15T09:03:31.000Z</time>
</trkpt>
<trkpt lat="45.7613880" lon="9.9716870">
	<ele>1296.80</ele>
	<time>2023-04-15T09:03:34.000Z</time>
</trkpt>
<trkpt lat="45.7613800" lon="9.9716790">
	<ele>1297.00</ele>
	<time>2023-04-15T09:03:35.000Z</time>
</trkpt>
<trkpt lat="45.7613480" lon="9.9715910">
	<ele>1298.00</ele>
	<time>2023-04-15T09:03:42.000Z</time>
</trkpt>
<trkpt lat="45.7613440" lon="9.9715790">
	<ele>1298.20</ele>
	<time>2023-04-15T09:03:43.000Z</time>
</trkpt>
<trkpt lat="45.7613150" lon="9.9714710">
	<ele>1299.00</ele>
	<time>2023-04-15T09:03:51.000Z</time>
</trkpt>
<trkpt lat="45.7613100" lon="9.9714320">
	<ele>1299.20</ele>
	<time>2023-04-15T09:03:54.000Z</time>
</trkpt>
<trkpt lat="45.7613050" lon="9.9714200">
	<ele>1299.40</ele>
	<time>2023-04-15T09:03:55.000Z</time>
</trkpt>
<trkpt lat="45.7613010" lon="9.9713950">
	<ele>1299.40</ele>
	<time>2023-04-15T09:03:57.000Z</time>
</trkpt>
<trkpt lat="45.7612930" lon="9.9713190">
	<ele>1300.40</ele>
	<time>2023-04-15T09:04:02.000Z</time>
</trkpt>
<trkpt lat="45.7612760" lon="9.9712380">
	<ele>1301.60</ele>
	<time>2023-04-15T09:04:08.000Z</time>
</trkpt>
<trkpt lat="45.7612770" lon="9.9711730">
	<ele>1302.00</ele>
	<time>2023-04-15T09:04:11.000Z</time>
</trkpt>
<trkpt lat="45.7612750" lon="9.9711300">
	<ele>1302.40</ele>
	<time>2023-04-15T09:04:15.000Z</time>
</trkpt>
<trkpt lat="45.7612730" lon="9.9711190">
	<ele>1302.60</ele>
	<time>2023-04-15T09:04:16.000Z</time>
</trkpt>
<trkpt lat="45.7612460" lon="9.9710340">
	<ele>1303.80</ele>
	<time>2023-04-15T09:04:23.000Z</time>
</trkpt>
<trkpt lat="45.7612150" lon="9.9709500">
	<ele>1304.80</ele>
	<time>2023-04-15T09:04:30.000Z</time>
</trkpt>
<trkpt lat="45.7612110" lon="9.9709390">
	<ele>1305.00</ele>
	<time>2023-04-15T09:04:31.000Z</time>
</trkpt>
<trkpt lat="45.7611980" lon="9.9708480">
	<ele>1305.60</ele>
	<time>2023-04-15T09:04:36.000Z</time>
</trkpt>
<trkpt lat="45.7611900" lon="9.9708180">
	<ele>1305.80</ele>
	<time>2023-04-15T09:04:38.000Z</time>
</trkpt>
<trkpt lat="45.7611860" lon="9.9708070">
	<ele>1305.80</ele>
	<time>2023-04-15T09:04:39.000Z</time>
</trkpt>
<trkpt lat="45.7611710" lon="9.9706580">
	<ele>1307.00</ele>
	<time>2023-04-15T09:04:48.000Z</time>
</trkpt>
<trkpt lat="45.7611490" lon="9.9705040">
	<ele>1308.00</ele>
	<time>2023-04-15T09:04:59.000Z</time>
</trkpt>
<trkpt lat="45.7611490" lon="9.9705010">
	<ele>1308.20</ele>
	<time>2023-04-15T09:05:00.000Z</time>
</trkpt>
<trkpt lat="45.7611490" lon="9.9704980">
	<ele>1308.40</ele>
	<time>2023-04-15T09:05:01.000Z</time>
</trkpt>
<trkpt lat="45.7611490" lon="9.9704910">
	<ele>1309.00</ele>
	<time>2023-04-15T09:05:09.000Z</time>
</trkpt>
<trkpt lat="45.7611460" lon="9.9704730">
	<ele>1308.80</ele>
	<time>2023-04-15T09:05:11.000Z</time>
</trkpt>
<trkpt lat="45.7611440" lon="9.9704590">
	<ele>1308.60</ele>
	<time>2023-04-15T09:05:14.000Z</time>
</trkpt>
<trkpt lat="45.7611420" lon="9.9704560">
	<ele>1308.40</ele>
	<time>2023-04-15T09:05:18.000Z</time>
</trkpt>
<trkpt lat="45.7611310" lon="9.9704270">
	<ele>1308.40</ele>
	<time>2023-04-15T09:05:21.000Z</time>
</trkpt>
<trkpt lat="45.7611230" lon="9.9703790">
	<ele>1309.00</ele>
	<time>2023-04-15T09:05:25.000Z</time>
</trkpt>
<trkpt lat="45.7611150" lon="9.9703610">
	<ele>1309.40</ele>
	<time>2023-04-15T09:05:27.000Z</time>
</trkpt>
<trkpt lat="45.7611150" lon="9.9703100">
	<ele>1310.20</ele>
	<time>2023-04-15T09:05:33.000Z</time>
</trkpt>
<trkpt lat="45.7611110" lon="9.9703040">
	<ele>1310.40</ele>
	<time>2023-04-15T09:05:34.000Z</time>
</trkpt>
<trkpt lat="45.7610700" lon="9.9702500">
	<ele>1310.80</ele>
	<time>2023-04-15T09:05:41.000Z</time>
</trkpt>
<trkpt lat="45.7610600" lon="9.9702560">
	<ele>1310.60</ele>
	<time>2023-04-15T09:05:47.000Z</time>
</trkpt>
<trkpt lat="45.7610590" lon="9.9702560">
	<ele>1310.80</ele>
	<time>2023-04-15T09:05:55.000Z</time>
</trkpt>
<trkpt lat="45.7610590" lon="9.9702560">
	<ele>1310.80</ele>
	<time>2023-04-15T09:05:56.000Z</time>
</trkpt>
<trkpt lat="45.7610590" lon="9.9702560">
	<ele>1311.00</ele>
	<time>2023-04-15T09:06:02.000Z</time>
</trkpt>
<trkpt lat="45.7610560" lon="9.9702470">
	<ele>1311.00</ele>
	<time>2023-04-15T09:06:28.000Z</time>
</trkpt>
<trkpt lat="45.7610540" lon="9.9702380">
	<ele>1310.80</ele>
	<time>2023-04-15T09:06:46.000Z</time>
</trkpt>
<trkpt lat="45.7610530" lon="9.9702380">
	<ele>1310.60</ele>
	<time>2023-04-15T09:06:53.000Z</time>
</trkpt>
<trkpt lat="45.7610540" lon="9.9702350">
	<ele>1310.20</ele>
	<time>2023-04-15T09:06:59.000Z</time>
</trkpt>
<trkpt lat="45.7610540" lon="9.9702340">
	<ele>1310.00</ele>
	<time>2023-04-15T09:07:03.000Z</time>
</trkpt>
<trkpt lat="45.7610550" lon="9.9702320">
	<ele>1309.80</ele>
	<time>2023-04-15T09:07:10.000Z</time>
</trkpt>
<trkpt lat="45.7610550" lon="9.9702310">
	<ele>1309.80</ele>
	<time>2023-04-15T09:07:13.000Z</time>
</trkpt>
<trkpt lat="45.7610270" lon="9.9701810">
	<ele>1309.20</ele>
	<time>2023-04-15T09:07:18.000Z</time>
</trkpt>
<trkpt lat="45.7610030" lon="9.9701320">
	<ele>1309.00</ele>
	<time>2023-04-15T09:07:20.000Z</time>
</trkpt>
<trkpt lat="45.7609820" lon="9.9700300">
	<ele>1308.80</ele>
	<time>2023-04-15T09:07:25.000Z</time>
</trkpt>
<trkpt lat="45.7609820" lon="9.9700250">
	<ele>1309.00</ele>
	<time>2023-04-15T09:07:26.000Z</time>
</trkpt>
<trkpt lat="45.7609760" lon="9.9699870">
	<ele>1310.40</ele>
	<time>2023-04-15T09:07:33.000Z</time>
</trkpt>
<trkpt lat="45.7609630" lon="9.9699260">
	<ele>1311.00</ele>
	<time>2023-04-15T09:07:39.000Z</time>
</trkpt>
<trkpt lat="45.7609540" lon="9.9698980">
	<ele>1311.40</ele>
	<time>2023-04-15T09:07:42.000Z</time>
</trkpt>
<trkpt lat="45.7609520" lon="9.9698650">
	<ele>1312.00</ele>
	<time>2023-04-15T09:07:47.000Z</time>
</trkpt>
<trkpt lat="45.7609530" lon="9.9698570">
	<ele>1312.20</ele>
	<time>2023-04-15T09:07:50.000Z</time>
</trkpt>
<trkpt lat="45.7609500" lon="9.9698510">
	<ele>1312.40</ele>
	<time>2023-04-15T09:07:53.000Z</time>
</trkpt>
<trkpt lat="45.7609510" lon="9.9698460">
	<ele>1312.60</ele>
	<time>2023-04-15T09:07:55.000Z</time>
</trkpt>
<trkpt lat="45.7609510" lon="9.9698420">
	<ele>1312.60</ele>
	<time>2023-04-15T09:08:03.000Z</time>
</trkpt>
<trkpt lat="45.7609500" lon="9.9698320">
	<ele>1313.40</ele>
	<time>2023-04-15T09:08:18.000Z</time>
</trkpt>
<trkpt lat="45.7609320" lon="9.9697580">
	<ele>1314.00</ele>
	<time>2023-04-15T09:08:22.000Z</time>
</trkpt>
<trkpt lat="45.7609260" lon="9.9696920">
	<ele>1314.40</ele>
	<time>2023-04-15T09:08:25.000Z</time>
</trkpt>
<trkpt lat="45.7609250" lon="9.9696750">
	<ele>1314.40</ele>
	<time>2023-04-15T09:08:26.000Z</time>
</trkpt>
<trkpt lat="45.7609220" lon="9.9696550">
	<ele>1314.60</ele>
	<time>2023-04-15T09:08:27.000Z</time>
</trkpt>
<trkpt lat="45.7609210" lon="9.9696300">
	<ele>1315.00</ele>
	<time>2023-04-15T09:08:30.000Z</time>
</trkpt>
<trkpt lat="45.7609150" lon="9.9696130">
	<ele>1315.60</ele>
	<time>2023-04-15T09:08:32.000Z</time>
</trkpt>
<trkpt lat="45.7609160" lon="9.9696030">
	<ele>1316.00</ele>
	<time>2023-04-15T09:08:34.000Z</time>
</trkpt>
<trkpt lat="45.7609110" lon="9.9695680">
	<ele>1316.60</ele>
	<time>2023-04-15T09:08:38.000Z</time>
</trkpt>
<trkpt lat="45.7609130" lon="9.9695200">
	<ele>1317.60</ele>
	<time>2023-04-15T09:08:44.000Z</time>
</trkpt>
<trkpt lat="45.7609100" lon="9.9694810">
	<ele>1317.60</ele>
	<time>2023-04-15T09:08:48.000Z</time>
</trkpt>
<trkpt lat="45.7608940" lon="9.9694250">
	<ele>1318.40</ele>
	<time>2023-04-15T09:08:53.000Z</time>
</trkpt>
<trkpt lat="45.7608860" lon="9.9694050">
	<ele>1318.80</ele>
	<time>2023-04-15T09:08:55.000Z</time>
</trkpt>
<trkpt lat="45.7608690" lon="9.9693770">
	<ele>1319.20</ele>
	<time>2023-04-15T09:08:58.000Z</time>
</trkpt>
<trkpt lat="45.7608630" lon="9.9693520">
	<ele>1319.40</ele>
	<time>2023-04-15T09:09:01.000Z</time>
</trkpt>
<trkpt lat="45.7608640" lon="9.9693420">
	<ele>1319.60</ele>
	<time>2023-04-15T09:09:02.000Z</time>
</trkpt>
<trkpt lat="45.7608580" lon="9.9693040">
	<ele>1319.80</ele>
	<time>2023-04-15T09:09:06.000Z</time>
</trkpt>
<trkpt lat="45.7608550" lon="9.9693020">
	<ele>1320.20</ele>
	<time>2023-04-15T09:09:09.000Z</time>
</trkpt>
<trkpt lat="45.7608460" lon="9.9692980">
	<ele>1320.40</ele>
	<time>2023-04-15T09:09:14.000Z</time>
</trkpt>
<trkpt lat="45.7607970" lon="9.9692630">
	<ele>1319.60</ele>
	<time>2023-04-15T09:09:20.000Z</time>
</trkpt>
<trkpt lat="45.7607900" lon="9.9692500">
	<ele>1319.60</ele>
	<time>2023-04-15T09:09:21.000Z</time>
</trkpt>
<trkpt lat="45.7607490" lon="9.9691820">
	<ele>1320.00</ele>
	<time>2023-04-15T09:09:28.000Z</time>
</trkpt>
<trkpt lat="45.7607270" lon="9.9691550">
	<ele>1320.40</ele>
	<time>2023-04-15T09:09:31.000Z</time>
</trkpt>
<trkpt lat="45.7607200" lon="9.9691350">
	<ele>1321.00</ele>
	<time>2023-04-15T09:09:33.000Z</time>
</trkpt>
<trkpt lat="45.7606960" lon="9.9691030">
	<ele>1321.60</ele>
	<time>2023-04-15T09:09:37.000Z</time>
</trkpt>
<trkpt lat="45.7606910" lon="9.9690950">
	<ele>1321.80</ele>
	<time>2023-04-15T09:09:38.000Z</time>
</trkpt>
<trkpt lat="45.7606700" lon="9.9690600">
	<ele>1322.00</ele>
	<time>2023-04-15T09:09:42.000Z</time>
</trkpt>
<trkpt lat="45.7606620" lon="9.9690330">
	<ele>1322.60</ele>
	<time>2023-04-15T09:09:45.000Z</time>
</trkpt>
<trkpt lat="45.7606530" lon="9.9690150">
	<ele>1322.60</ele>
	<time>2023-04-15T09:09:47.000Z</time>
</trkpt>
<trkpt lat="45.7606380" lon="9.9689950">
	<ele>1323.00</ele>
	<time>2023-04-15T09:09:50.000Z</time>
</trkpt>
<trkpt lat="45.7606280" lon="9.9689720">
	<ele>1323.60</ele>
	<time>2023-04-15T09:09:53.000Z</time>
</trkpt>
<trkpt lat="45.7606240" lon="9.9689570">
	<ele>1323.80</ele>
	<time>2023-04-15T09:09:55.000Z</time>
</trkpt>
<trkpt lat="45.7606220" lon="9.9689450">
	<ele>1323.80</ele>
	<time>2023-04-15T09:09:56.000Z</time>
</trkpt>
<trkpt lat="45.7606200" lon="9.9689350">
	<ele>1324.00</ele>
	<time>2023-04-15T09:09:57.000Z</time>
</trkpt>
<trkpt lat="45.7606090" lon="9.9689170">
	<ele>1324.20</ele>
	<time>2023-04-15T09:09:59.000Z</time>
</trkpt>
<trkpt lat="45.7606080" lon="9.9688910">
	<ele>1325.00</ele>
	<time>2023-04-15T09:10:02.000Z</time>
</trkpt>
<trkpt lat="45.7606060" lon="9.9688730">
	<ele>1325.40</ele>
	<time>2023-04-15T09:10:04.000Z</time>
</trkpt>
<trkpt lat="45.7606030" lon="9.9688560">
	<ele>1326.00</ele>
	<time>2023-04-15T09:10:06.000Z</time>
</trkpt>
<trkpt lat="45.7605930" lon="9.9688400">
	<ele>1326.20</ele>
	<time>2023-04-15T09:10:08.000Z</time>
</trkpt>
<trkpt lat="45.7605890" lon="9.9688370">
	<ele>1326.40</ele>
	<time>2023-04-15T09:10:09.000Z</time>
</trkpt>
<trkpt lat="45.7605800" lon="9.9688030">
	<ele>1326.80</ele>
	<time>2023-04-15T09:10:13.000Z</time>
</trkpt>
<trkpt lat="45.7605770" lon="9.9687960">
	<ele>1326.80</ele>
	<time>2023-04-15T09:10:14.000Z</time>
</trkpt>
<trkpt lat="45.7605720" lon="9.9687860">
	<ele>1327.20</ele>
	<time>2023-04-15T09:10:16.000Z</time>
</trkpt>
<trkpt lat="45.7605690" lon="9.9687790">
	<ele>1327.80</ele>
	<time>2023-04-15T09:10:17.000Z</time>
</trkpt>
<trkpt lat="45.7605630" lon="9.9687660">
	<ele>1328.40</ele>
	<time>2023-04-15T09:10:19.000Z</time>
</trkpt>
<trkpt lat="45.7605600" lon="9.9687590">
	<ele>1328.60</ele>
	<time>2023-04-15T09:10:20.000Z</time>
</trkpt>
<trkpt lat="45.7605520" lon="9.9687450">
	<ele>1328.80</ele>
	<time>2023-04-15T09:10:22.000Z</time>
</trkpt>
<trkpt lat="45.7605460" lon="9.9687390">
	<ele>1328.80</ele>
	<time>2023-04-15T09:10:23.000Z</time>
</trkpt>
<trkpt lat="45.7605310" lon="9.9687090">
	<ele>1329.60</ele>
	<time>2023-04-15T09:10:27.000Z</time>
</trkpt>
<trkpt lat="45.7605210" lon="9.9686960">
	<ele>1329.80</ele>
	<time>2023-04-15T09:10:29.000Z</time>
</trkpt>
<trkpt lat="45.7605050" lon="9.9686760">
	<ele>1330.40</ele>
	<time>2023-04-15T09:10:32.000Z</time>
</trkpt>
<trkpt lat="45.7605030" lon="9.9686720">
	<ele>1330.40</ele>
	<time>2023-04-15T09:10:33.000Z</time>
</trkpt>
<trkpt lat="45.7605000" lon="9.9686660">
	<ele>1330.80</ele>
	<time>2023-04-15T09:10:34.000Z</time>
</trkpt>
<trkpt lat="45.7604880" lon="9.9686540">
	<ele>1331.00</ele>
	<time>2023-04-15T09:10:36.000Z</time>
</trkpt>
<trkpt lat="45.7604570" lon="9.9686210">
	<ele>1331.40</ele>
	<time>2023-04-15T09:10:41.000Z</time>
</trkpt>
<trkpt lat="45.7604550" lon="9.9686180">
	<ele>1331.60</ele>
	<time>2023-04-15T09:10:42.000Z</time>
</trkpt>
<trkpt lat="45.7604550" lon="9.9686120">
	<ele>1331.80</ele>
	<time>2023-04-15T09:10:43.000Z</time>
</trkpt>
<trkpt lat="45.7604500" lon="9.9685820">
	<ele>1332.20</ele>
	<time>2023-04-15T09:10:46.000Z</time>
</trkpt>
<trkpt lat="45.7604430" lon="9.9685720">
	<ele>1332.60</ele>
	<time>2023-04-15T09:10:48.000Z</time>
</trkpt>
<trkpt lat="45.7604380" lon="9.9685650">
	<ele>1332.80</ele>
	<time>2023-04-15T09:10:49.000Z</time>
</trkpt>
<trkpt lat="45.7604300" lon="9.9685570">
	<ele>1333.00</ele>
	<time>2023-04-15T09:10:50.000Z</time>
</trkpt>
<trkpt lat="45.7603830" lon="9.9685150">
	<ele>1333.80</ele>
	<time>2023-04-15T09:10:57.000Z</time>
</trkpt>
<trkpt lat="45.7603760" lon="9.9685070">
	<ele>1333.80</ele>
	<time>2023-04-15T09:10:58.000Z</time>
</trkpt>
<trkpt lat="45.7603640" lon="9.9684610">
	<ele>1334.60</ele>
	<time>2023-04-15T09:11:03.000Z</time>
</trkpt>
<trkpt lat="45.7603340" lon="9.9684210">
	<ele>1334.80</ele>
	<time>2023-04-15T09:11:09.000Z</time>
</trkpt>
<trkpt lat="45.7603240" lon="9.9683960">
	<ele>1335.00</ele>
	<time>2023-04-15T09:11:13.000Z</time>
</trkpt>
<trkpt lat="45.7602650" lon="9.9683330">
	<ele>1335.80</ele>
	<time>2023-04-15T09:11:22.000Z</time>
</trkpt>
<trkpt lat="45.7602460" lon="9.9683040">
	<ele>1335.80</ele>
	<time>2023-04-15T09:11:26.000Z</time>
</trkpt>
<trkpt lat="45.7602200" lon="9.9682820">
	<ele>1336.00</ele>
	<time>2023-04-15T09:11:29.000Z</time>
</trkpt>
<trkpt lat="45.7601670" lon="9.9682210">
	<ele>1336.60</ele>
	<time>2023-04-15T09:11:37.000Z</time>
</trkpt>
<trkpt lat="45.7601500" lon="9.9682110">
	<ele>1336.80</ele>
	<time>2023-04-15T09:11:40.000Z</time>
</trkpt>
<trkpt lat="45.7601180" lon="9.9681570">
	<ele>1337.00</ele>
	<time>2023-04-15T09:11:47.000Z</time>
</trkpt>
<trkpt lat="45.7600940" lon="9.9681360">
	<ele>1337.20</ele>
	<time>2023-04-15T09:11:54.000Z</time>
</trkpt>
<trkpt lat="45.7600910" lon="9.9681310">
	<ele>1337.60</ele>
	<time>2023-04-15T09:12:03.000Z</time>
</trkpt>
<trkpt lat="45.7600910" lon="9.9681300">
	<ele>1337.20</ele>
	<time>2023-04-15T09:12:19.000Z</time>
</trkpt>
<trkpt lat="45.7600700" lon="9.9681180">
	<ele>1337.40</ele>
	<time>2023-04-15T09:12:33.000Z</time>
</trkpt>
<trkpt lat="45.7600660" lon="9.9681160">
	<ele>1337.20</ele>
	<time>2023-04-15T09:12:37.000Z</time>
</trkpt>
<trkpt lat="45.7600020" lon="9.9680820">
	<ele>1337.20</ele>
	<time>2023-04-15T09:12:43.000Z</time>
</trkpt>
<trkpt lat="45.7599510" lon="9.9680690">
	<ele>1337.40</ele>
	<time>2023-04-15T09:12:48.000Z</time>
</trkpt>
<trkpt lat="45.7599060" lon="9.9680690">
	<ele>1337.60</ele>
	<time>2023-04-15T09:12:54.000Z</time>
</trkpt>
<trkpt lat="45.7598990" lon="9.9680660">
	<ele>1337.60</ele>
	<time>2023-04-15T09:12:55.000Z</time>
</trkpt>
<trkpt lat="45.7598640" lon="9.9680550">
	<ele>1338.00</ele>
	<time>2023-04-15T09:13:02.000Z</time>
</trkpt>
<trkpt lat="45.7598500" lon="9.9680480">
	<ele>1338.00</ele>
	<time>2023-04-15T09:13:04.000Z</time>
</trkpt>
<trkpt lat="45.7598000" lon="9.9680230">
	<ele>1338.00</ele>
	<time>2023-04-15T09:13:12.000Z</time>
</trkpt>
<trkpt lat="45.7597300" lon="9.9679990">
	<ele>1338.40</ele>
	<time>2023-04-15T09:13:21.000Z</time>
</trkpt>
<trkpt lat="45.7596850" lon="9.9679840">
	<ele>1338.20</ele>
	<time>2023-04-15T09:13:29.000Z</time>
</trkpt>
<trkpt lat="45.7596810" lon="9.9679890">
	<ele>1338.20</ele>
	<time>2023-04-15T09:13:34.000Z</time>
</trkpt>
<trkpt lat="45.7596400" lon="9.9679880">
	<ele>1338.80</ele>
	<time>2023-04-15T09:13:39.000Z</time>
</trkpt>
<trkpt lat="45.7596270" lon="9.9679870">
	<ele>1338.80</ele>
	<time>2023-04-15T09:13:40.000Z</time>
</trkpt>
<trkpt lat="45.7596190" lon="9.9679880">
	<ele>1339.00</ele>
	<time>2023-04-15T09:13:41.000Z</time>
</trkpt>
<trkpt lat="45.7595590" lon="9.9679750">
	<ele>1339.00</ele>
	<time>2023-04-15T09:13:47.000Z</time>
</trkpt>
<trkpt lat="45.7594320" lon="9.9679070">
	<ele>1339.20</ele>
	<time>2023-04-15T09:14:01.000Z</time>
</trkpt>
<trkpt lat="45.7593800" lon="9.9678790">
	<ele>1340.00</ele>
	<time>2023-04-15T09:14:08.000Z</time>
</trkpt>
<trkpt lat="45.7593570" lon="9.9678680">
	<ele>1339.60</ele>
	<time>2023-04-15T09:14:11.000Z</time>
</trkpt>
<trkpt lat="45.7593200" lon="9.9678210">
	<ele>1339.40</ele>
	<time>2023-04-15T09:14:17.000Z</time>
</trkpt>
<trkpt lat="45.7592560" lon="9.9677400">
	<ele>1339.80</ele>
	<time>2023-04-15T09:14:27.000Z</time>
</trkpt>
<trkpt lat="45.7592430" lon="9.9677320">
	<ele>1339.80</ele>
	<time>2023-04-15T09:14:29.000Z</time>
</trkpt>
<trkpt lat="45.7592280" lon="9.9677260">
	<ele>1340.00</ele>
	<time>2023-04-15T09:14:31.000Z</time>
</trkpt>
<trkpt lat="45.7592090" lon="9.9677120">
	<ele>1340.40</ele>
	<time>2023-04-15T09:14:34.000Z</time>
</trkpt>
<trkpt lat="45.7591730" lon="9.9676800">
	<ele>1340.80</ele>
	<time>2023-04-15T09:14:41.000Z</time>
</trkpt>
<trkpt lat="45.7591670" lon="9.9676760">
	<ele>1341.00</ele>
	<time>2023-04-15T09:14:42.000Z</time>
</trkpt>
<trkpt lat="45.7591460" lon="9.9676340">
	<ele>1341.80</ele>
	<time>2023-04-15T09:14:48.000Z</time>
</trkpt>
<trkpt lat="45.7591450" lon="9.9676240">
	<ele>1342.00</ele>
	<time>2023-04-15T09:14:49.000Z</time>
</trkpt>
<trkpt lat="45.7591240" lon="9.9675840">
	<ele>1343.00</ele>
	<time>2023-04-15T09:14:54.000Z</time>
</trkpt>
<trkpt lat="45.7591220" lon="9.9675750">
	<ele>1343.20</ele>
	<time>2023-04-15T09:14:55.000Z</time>
</trkpt>
<trkpt lat="45.7591030" lon="9.9675680">
	<ele>1344.00</ele>
	<time>2023-04-15T09:15:01.000Z</time>
</trkpt>
<trkpt lat="45.7590990" lon="9.9675630">
	<ele>1344.20</ele>
	<time>2023-04-15T09:15:03.000Z</time>
</trkpt>
<trkpt lat="45.7590880" lon="9.9675530">
	<ele>1344.80</ele>
	<time>2023-04-15T09:15:07.000Z</time>
</trkpt>
<trkpt lat="45.7590800" lon="9.9675430">
	<ele>1345.20</ele>
	<time>2023-04-15T09:15:10.000Z</time>
</trkpt>
<trkpt lat="45.7590750" lon="9.9675480">
	<ele>1345.40</ele>
	<time>2023-04-15T09:15:11.000Z</time>
</trkpt>
<trkpt lat="45.7590680" lon="9.9675490">
	<ele>1345.60</ele>
	<time>2023-04-15T09:15:12.000Z</time>
</trkpt>
<trkpt lat="45.7590350" lon="9.9675150">
	<ele>1346.40</ele>
	<time>2023-04-15T09:15:18.000Z</time>
</trkpt>
<trkpt lat="45.7590290" lon="9.9675080">
	<ele>1346.60</ele>
	<time>2023-04-15T09:15:19.000Z</time>
</trkpt>
<trkpt lat="45.7590200" lon="9.9674830">
	<ele>1347.60</ele>
	<time>2023-04-15T09:15:23.000Z</time>
</trkpt>
<trkpt lat="45.7590070" lon="9.9674780">
	<ele>1348.00</ele>
	<time>2023-04-15T09:15:26.000Z</time>
</trkpt>
<trkpt lat="45.7589840" lon="9.9674630">
	<ele>1348.60</ele>
	<time>2023-04-15T09:15:30.000Z</time>
</trkpt>
<trkpt lat="45.7589580" lon="9.9674380">
	<ele>1349.20</ele>
	<time>2023-04-15T09:15:34.000Z</time>
</trkpt>
<trkpt lat="45.7589150" lon="9.9674330">
	<ele>1349.80</ele>
	<time>2023-04-15T09:15:39.000Z</time>
</trkpt>
<trkpt lat="45.7588980" lon="9.9674390">
	<ele>1350.00</ele>
	<time>2023-04-15T09:15:42.000Z</time>
</trkpt>
<trkpt lat="45.7588560" lon="9.9674320">
	<ele>1351.00</ele>
	<time>2023-04-15T09:15:47.000Z</time>
</trkpt>
<trkpt lat="45.7588100" lon="9.9673980">
	<ele>1351.40</ele>
	<time>2023-04-15T09:15:50.000Z</time>
</trkpt>
<trkpt lat="45.7588040" lon="9.9673570">
	<ele>1352.00</ele>
	<time>2023-04-15T09:15:53.000Z</time>
</trkpt>
<trkpt lat="45.7588000" lon="9.9673390">
	<ele>1352.20</ele>
	<time>2023-04-15T09:15:56.000Z</time>
</trkpt>
<trkpt lat="45.7587640" lon="9.9673050">
	<ele>1353.00</ele>
	<time>2023-04-15T09:16:01.000Z</time>
</trkpt>
<trkpt lat="45.7587620" lon="9.9672970">
	<ele>1353.20</ele>
	<time>2023-04-15T09:16:03.000Z</time>
</trkpt>
<trkpt lat="45.7587620" lon="9.9672460">
	<ele>1354.20</ele>
	<time>2023-04-15T09:16:09.000Z</time>
</trkpt>
<trkpt lat="45.7587570" lon="9.9672440">
	<ele>1354.40</ele>
	<time>2023-04-15T09:16:10.000Z</time>
</trkpt>
<trkpt lat="45.7587150" lon="9.9672070">
	<ele>1355.20</ele>
	<time>2023-04-15T09:16:17.000Z</time>
</trkpt>
<trkpt lat="45.7587050" lon="9.9671980">
	<ele>1355.60</ele>
	<time>2023-04-15T09:16:19.000Z</time>
</trkpt>
<trkpt lat="45.7586670" lon="9.9671830">
	<ele>1356.20</ele>
	<time>2023-04-15T09:16:26.000Z</time>
</trkpt>
<trkpt lat="45.7586600" lon="9.9671840">
	<ele>1356.40</ele>
	<time>2023-04-15T09:16:27.000Z</time>
</trkpt>
<trkpt lat="45.7585750" lon="9.9671930">
	<ele>1356.40</ele>
	<time>2023-04-15T09:16:34.000Z</time>
</trkpt>
<trkpt lat="45.7585380" lon="9.9671610">
	<ele>1356.40</ele>
	<time>2023-04-15T09:16:39.000Z</time>
</trkpt>
<trkpt lat="45.7585300" lon="9.9671350">
	<ele>1356.60</ele>
	<time>2023-04-15T09:16:41.000Z</time>
</trkpt>
<trkpt lat="45.7585040" lon="9.9670840">
	<ele>1357.20</ele>
	<time>2023-04-15T09:16:46.000Z</time>
</trkpt>
<trkpt lat="45.7584960" lon="9.9670780">
	<ele>1357.40</ele>
	<time>2023-04-15T09:16:47.000Z</time>
</trkpt>
<trkpt lat="45.7584540" lon="9.9670570">
	<ele>1357.60</ele>
	<time>2023-04-15T09:16:53.000Z</time>
</trkpt>
<trkpt lat="45.7583870" lon="9.9670300">
	<ele>1357.80</ele>
	<time>2023-04-15T09:17:02.000Z</time>
</trkpt>
<trkpt lat="45.7583450" lon="9.9669750">
	<ele>1357.80</ele>
	<time>2023-04-15T09:17:09.000Z</time>
</trkpt>
<trkpt lat="45.7582960" lon="9.9669200">
	<ele>1357.60</ele>
	<time>2023-04-15T09:17:15.000Z</time>
</trkpt>
<trkpt lat="45.7582810" lon="9.9669130">
	<ele>1357.60</ele>
	<time>2023-04-15T09:17:16.000Z</time>
</trkpt>
<trkpt lat="45.7582620" lon="9.9669190">
	<ele>1357.60</ele>
	<time>2023-04-15T09:17:18.000Z</time>
</trkpt>
<trkpt lat="45.7582410" lon="9.9669110">
	<ele>1357.40</ele>
	<time>2023-04-15T09:17:21.000Z</time>
</trkpt>
<trkpt lat="45.7582350" lon="9.9668990">
	<ele>1357.40</ele>
	<time>2023-04-15T09:17:22.000Z</time>
</trkpt>
<trkpt lat="45.7581820" lon="9.9668240">
	<ele>1357.20</ele>
	<time>2023-04-15T09:17:30.000Z</time>
</trkpt>
<trkpt lat="45.7581760" lon="9.9668190">
	<ele>1357.20</ele>
	<time>2023-04-15T09:17:31.000Z</time>
</trkpt>
<trkpt lat="45.7581130" lon="9.9667440">
	<ele>1357.00</ele>
	<time>2023-04-15T09:17:40.000Z</time>
</trkpt>
<trkpt lat="45.7580780" lon="9.9667080">
	<ele>1356.20</ele>
	<time>2023-04-15T09:17:45.000Z</time>
</trkpt>
<trkpt lat="45.7580200" lon="9.9666640">
	<ele>1355.60</ele>
	<time>2023-04-15T09:17:52.000Z</time>
</trkpt>
<trkpt lat="45.7579840" lon="9.9666430">
	<ele>1355.20</ele>
	<time>2023-04-15T09:17:56.000Z</time>
</trkpt>
<trkpt lat="45.7579410" lon="9.9666080">
	<ele>1354.40</ele>
	<time>2023-04-15T09:18:01.000Z</time>
</trkpt>
<trkpt lat="45.7579170" lon="9.9665850">
	<ele>1354.20</ele>
	<time>2023-04-15T09:18:04.000Z</time>
</trkpt>
<trkpt lat="45.7578840" lon="9.9665630">
	<ele>1354.00</ele>
	<time>2023-04-15T09:18:08.000Z</time>
</trkpt>
<trkpt lat="45.7578250" lon="9.9665370">
	<ele>1353.00</ele>
	<time>2023-04-15T09:18:16.000Z</time>
</trkpt>
<trkpt lat="45.7578200" lon="9.9665380">
	<ele>1353.00</ele>
	<time>2023-04-15T09:18:18.000Z</time>
</trkpt>
<trkpt lat="45.7578150" lon="9.9665370">
	<ele>1353.20</ele>
	<time>2023-04-15T09:18:27.000Z</time>
</trkpt>
<trkpt lat="45.7578150" lon="9.9665370">
	<ele>1353.00</ele>
	<time>2023-04-15T09:18:31.000Z</time>
</trkpt>
<trkpt lat="45.7578180" lon="9.9665310">
	<ele>1352.20</ele>
	<time>2023-04-15T09:18:54.000Z</time>
</trkpt>
<trkpt lat="45.7578180" lon="9.9665380">
	<ele>1353.00</ele>
	<time>2023-04-15T09:19:02.000Z</time>
</trkpt>
<trkpt lat="45.7578180" lon="9.9665430">
	<ele>1353.00</ele>
	<time>2023-04-15T09:19:05.000Z</time>
</trkpt>
<trkpt lat="45.7578160" lon="9.9665420">
	<ele>1352.40</ele>
	<time>2023-04-15T09:19:26.000Z</time>
</trkpt>
<trkpt lat="45.7577390" lon="9.9664530">
	<ele>1352.60</ele>
	<time>2023-04-15T09:19:51.000Z</time>
</trkpt>
<trkpt lat="45.7576900" lon="9.9664020">
	<ele>1352.80</ele>
	<time>2023-04-15T09:19:54.000Z</time>
</trkpt>
<trkpt lat="45.7576780" lon="9.9663830">
	<ele>1352.80</ele>
	<time>2023-04-15T09:19:55.000Z</time>
</trkpt>
<trkpt lat="45.7576440" lon="9.9663390">
	<ele>1352.80</ele>
	<time>2023-04-15T09:19:58.000Z</time>
</trkpt>
<trkpt lat="45.7576350" lon="9.9663320">
	<ele>1352.40</ele>
	<time>2023-04-15T09:19:59.000Z</time>
</trkpt>
<trkpt lat="45.7576080" lon="9.9663190">
	<ele>1352.00</ele>
	<time>2023-04-15T09:20:02.000Z</time>
</trkpt>
<trkpt lat="45.7576010" lon="9.9663120">
	<ele>1351.80</ele>
	<time>2023-04-15T09:20:03.000Z</time>
</trkpt>
<trkpt lat="45.7575960" lon="9.9662990">
	<ele>1351.80</ele>
	<time>2023-04-15T09:20:04.000Z</time>
</trkpt>
<trkpt lat="45.7575770" lon="9.9662470">
	<ele>1351.80</ele>
	<time>2023-04-15T09:20:08.000Z</time>
</trkpt>
<trkpt lat="45.7575650" lon="9.9662190">
	<ele>1352.20</ele>
	<time>2023-04-15T09:20:11.000Z</time>
</trkpt>
<trkpt lat="45.7575490" lon="9.9661660">
	<ele>1353.00</ele>
	<time>2023-04-15T09:20:16.000Z</time>
</trkpt>
<trkpt lat="45.7575360" lon="9.9661460">
	<ele>1353.40</ele>
	<time>2023-04-15T09:20:18.000Z</time>
</trkpt>
<trkpt lat="45.7575190" lon="9.9661030">
	<ele>1354.00</ele>
	<time>2023-04-15T09:20:22.000Z</time>
</trkpt>
<trkpt lat="45.7575070" lon="9.9660960">
	<ele>1354.40</ele>
	<time>2023-04-15T09:20:24.000Z</time>
</trkpt>
<trkpt lat="45.7574980" lon="9.9660820">
	<ele>1355.20</ele>
	<time>2023-04-15T09:20:26.000Z</time>
</trkpt>
<trkpt lat="45.7574920" lon="9.9660730">
	<ele>1355.20</ele>
	<time>2023-04-15T09:20:27.000Z</time>
</trkpt>
<trkpt lat="45.7574680" lon="9.9660210">
	<ele>1355.80</ele>
	<time>2023-04-15T09:20:32.000Z</time>
</trkpt>
<trkpt lat="45.7574680" lon="9.9660020">
	<ele>1355.80</ele>
	<time>2023-04-15T09:20:33.000Z</time>
</trkpt>
<trkpt lat="45.7574680" lon="9.9659910">
	<ele>1355.80</ele>
	<time>2023-04-15T09:20:34.000Z</time>
</trkpt>
<trkpt lat="45.7574620" lon="9.9659660">
	<ele>1356.00</ele>
	<time>2023-04-15T09:20:36.000Z</time>
</trkpt>
<trkpt lat="45.7574540" lon="9.9659440">
	<ele>1356.20</ele>
	<time>2023-04-15T09:20:38.000Z</time>
</trkpt>
<trkpt lat="45.7574290" lon="9.9659090">
	<ele>1356.60</ele>
	<time>2023-04-15T09:20:42.000Z</time>
</trkpt>
<trkpt lat="45.7574200" lon="9.9658670">
	<ele>1357.20</ele>
	<time>2023-04-15T09:20:46.000Z</time>
</trkpt>
<trkpt lat="45.7574320" lon="9.9658220">
	<ele>1357.60</ele>
	<time>2023-04-15T09:20:51.000Z</time>
</trkpt>
<trkpt lat="45.7574310" lon="9.9658190">
	<ele>1357.80</ele>
	<time>2023-04-15T09:20:52.000Z</time>
</trkpt>
<trkpt lat="45.7574330" lon="9.9658190">
	<ele>1358.20</ele>
	<time>2023-04-15T09:20:58.000Z</time>
</trkpt>
<trkpt lat="45.7574320" lon="9.9658210">
	<ele>1358.40</ele>
	<time>2023-04-15T09:20:59.000Z</time>
</trkpt>
<trkpt lat="45.7574330" lon="9.9658250">
	<ele>1358.40</ele>
	<time>2023-04-15T09:21:03.000Z</time>
</trkpt>
<trkpt lat="45.7574270" lon="9.9658260">
	<ele>1358.40</ele>
	<time>2023-04-15T09:21:09.000Z</time>
</trkpt>
<trkpt lat="45.7574270" lon="9.9658250">
	<ele>1358.60</ele>
	<time>2023-04-15T09:21:19.000Z</time>
</trkpt>
<trkpt lat="45.7574270" lon="9.9658240">
	<ele>1358.40</ele>
	<time>2023-04-15T09:21:21.000Z</time>
</trkpt>
<trkpt lat="45.7574270" lon="9.9658240">
	<ele>1358.00</ele>
	<time>2023-04-15T09:21:23.000Z</time>
</trkpt>
<trkpt lat="45.7574450" lon="9.9658030">
	<ele>1358.20</ele>
	<time>2023-04-15T09:21:56.000Z</time>
</trkpt>
<trkpt lat="45.7574450" lon="9.9658020">
	<ele>1358.20</ele>
	<time>2023-04-15T09:21:59.000Z</time>
</trkpt>
<trkpt lat="45.7574450" lon="9.9658020">
	<ele>1358.00</ele>
	<time>2023-04-15T09:22:00.000Z</time>
</trkpt>
<trkpt lat="45.7574410" lon="9.9658000">
	<ele>1358.00</ele>
	<time>2023-04-15T09:22:08.000Z</time>
</trkpt>
<trkpt lat="45.7574310" lon="9.9657980">
	<ele>1358.00</ele>
	<time>2023-04-15T09:22:22.000Z</time>
</trkpt>
<trkpt lat="45.7574190" lon="9.9657950">
	<ele>1358.00</ele>
	<time>2023-04-15T09:22:34.000Z</time>
</trkpt>
<trkpt lat="45.7573360" lon="9.9658260">
	<ele>1358.00</ele>
	<time>2023-04-15T09:22:39.000Z</time>
</trkpt>
<trkpt lat="45.7572250" lon="9.9658400">
	<ele>1358.00</ele>
	<time>2023-04-15T09:22:47.000Z</time>
</trkpt>
<trkpt lat="45.7572170" lon="9.9658410">
	<ele>1355.20</ele>
	<time>2023-04-15T09:22:48.000Z</time>
</trkpt>
<trkpt lat="45.7572080" lon="9.9658460">
	<ele>1353.60</ele>
	<time>2023-04-15T09:22:49.000Z</time>
</trkpt>
<trkpt lat="45.7571940" lon="9.9658440">
	<ele>1352.40</ele>
	<time>2023-04-15T09:22:51.000Z</time>
</trkpt>
<trkpt lat="45.7571900" lon="9.9658420">
	<ele>1351.40</ele>
	<time>2023-04-15T09:22:54.000Z</time>
</trkpt>
<trkpt lat="45.7571890" lon="9.9658420">
	<ele>1351.20</ele>
	<time>2023-04-15T09:22:55.000Z</time>
</trkpt>
<trkpt lat="45.7571870" lon="9.9658400">
	<ele>1351.00</ele>
	<time>2023-04-15T09:23:03.000Z</time>
</trkpt>
<trkpt lat="45.7571870" lon="9.9658400">
	<ele>1351.20</ele>
	<time>2023-04-15T09:23:06.000Z</time>
</trkpt>
<trkpt lat="45.7571880" lon="9.9658400">
	<ele>1351.80</ele>
	<time>2023-04-15T09:23:18.000Z</time>
</trkpt>
<trkpt lat="45.7572050" lon="9.9657940">
	<ele>1351.20</ele>
	<time>2023-04-15T09:23:33.000Z</time>
</trkpt>
<trkpt lat="45.7572080" lon="9.9657870">
	<ele>1352.00</ele>
	<time>2023-04-15T09:23:46.000Z</time>
</trkpt>
<trkpt lat="45.7572080" lon="9.9657870">
	<ele>1352.00</ele>
	<time>2023-04-15T09:23:47.000Z</time>
</trkpt>
<trkpt lat="45.7572090" lon="9.9657870">
	<ele>1352.00</ele>
	<time>2023-04-15T09:23:48.000Z</time>
</trkpt>
<trkpt lat="45.7572100" lon="9.9657870">
	<ele>1352.20</ele>
	<time>2023-04-15T09:23:54.000Z</time>
</trkpt>
<trkpt lat="45.7572100" lon="9.9657910">
	<ele>1351.20</ele>
	<time>2023-04-15T09:24:03.000Z</time>
</trkpt>
<trkpt lat="45.7572100" lon="9.9658070">
	<ele>1351.00</ele>
	<time>2023-04-15T09:24:06.000Z</time>
</trkpt>
<trkpt lat="45.7571480" lon="9.9658220">
	<ele>1349.80</ele>
	<time>2023-04-15T09:24:11.000Z</time>
</trkpt>
<trkpt lat="45.7571300" lon="9.9658260">
	<ele>1349.40</ele>
	<time>2023-04-15T09:24:12.000Z</time>
</trkpt>
<trkpt lat="45.7570950" lon="9.9658350">
	<ele>1348.60</ele>
	<time>2023-04-15T09:24:14.000Z</time>
</trkpt>
<trkpt lat="45.7570350" lon="9.9658500">
	<ele>1347.40</ele>
	<time>2023-04-15T09:24:18.000Z</time>
</trkpt>
<trkpt lat="45.7570150" lon="9.9658610">
	<ele>1346.60</ele>
	<time>2023-04-15T09:24:20.000Z</time>
</trkpt>
<trkpt lat="45.7570070" lon="9.9658650">
	<ele>1346.40</ele>
	<time>2023-04-15T09:24:21.000Z</time>
</trkpt>
<trkpt lat="45.7569760" lon="9.9658650">
	<ele>1345.00</ele>
	<time>2023-04-15T09:24:24.000Z</time>
</trkpt>
<trkpt lat="45.7569460" lon="9.9658650">
	<ele>1343.60</ele>
	<time>2023-04-15T09:24:27.000Z</time>
</trkpt>
<trkpt lat="45.7569150" lon="9.9658680">
	<ele>1342.40</ele>
	<time>2023-04-15T09:24:30.000Z</time>
</trkpt>
<trkpt lat="45.7569070" lon="9.9658680">
	<ele>1342.00</ele>
	<time>2023-04-15T09:24:31.000Z</time>
</trkpt>
<trkpt lat="45.7568880" lon="9.9658660">
	<ele>1341.20</ele>
	<time>2023-04-15T09:24:34.000Z</time>
</trkpt>
<trkpt lat="45.7568790" lon="9.9658630">
	<ele>1340.60</ele>
	<time>2023-04-15T09:24:36.000Z</time>
</trkpt>
<trkpt lat="45.7568740" lon="9.9658620">
	<ele>1340.20</ele>
	<time>2023-04-15T09:24:39.000Z</time>
</trkpt>
<trkpt lat="45.7568730" lon="9.9658620">
	<ele>1340.20</ele>
	<time>2023-04-15T09:24:41.000Z</time>
</trkpt>
<trkpt lat="45.7568720" lon="9.9658640">
	<ele>1340.40</ele>
	<time>2023-04-15T09:24:46.000Z</time>
</trkpt>
<trkpt lat="45.7568720" lon="9.9658640">
	<ele>1340.60</ele>
	<time>2023-04-15T09:24:49.000Z</time>
</trkpt>
<trkpt lat="45.7568720" lon="9.9658640">
	<ele>1340.00</ele>
	<time>2023-04-15T09:24:52.000Z</time>
</trkpt>
<trkpt lat="45.7568470" lon="9.9658740">
	<ele>1338.80</ele>
	<time>2023-04-15T09:24:55.000Z</time>
</trkpt>
<trkpt lat="45.7568220" lon="9.9658850">
	<ele>1338.20</ele>
	<time>2023-04-15T09:24:57.000Z</time>
</trkpt>
<trkpt lat="45.7567990" lon="9.9658880">
	<ele>1338.00</ele>
	<time>2023-04-15T09:24:59.000Z</time>
</trkpt>
<trkpt lat="45.7567850" lon="9.9658910">
	<ele>1337.80</ele>
	<time>2023-04-15T09:25:00.000Z</time>
</trkpt>
<trkpt lat="45.7567460" lon="9.9659100">
	<ele>1336.40</ele>
	<time>2023-04-15T09:25:03.000Z</time>
</trkpt>
<trkpt lat="45.7567280" lon="9.9659250">
	<ele>1335.20</ele>
	<time>2023-04-15T09:25:05.000Z</time>
</trkpt>
<trkpt lat="45.7566900" lon="9.9659160">
	<ele>1334.00</ele>
	<time>2023-04-15T09:25:09.000Z</time>
</trkpt>
<trkpt lat="45.7566640" lon="9.9659100">
	<ele>1333.20</ele>
	<time>2023-04-15T09:25:12.000Z</time>
</trkpt>
<trkpt lat="45.7566540" lon="9.9659070">
	<ele>1333.00</ele>
	<time>2023-04-15T09:25:13.000Z</time>
</trkpt>
<trkpt lat="45.7566130" lon="9.9659200">
	<ele>1332.00</ele>
	<time>2023-04-15T09:25:18.000Z</time>
</trkpt>
<trkpt lat="45.7565980" lon="9.9659270">
	<ele>1331.40</ele>
	<time>2023-04-15T09:25:20.000Z</time>
</trkpt>
<trkpt lat="45.7565780" lon="9.9659300">
	<ele>1330.80</ele>
	<time>2023-04-15T09:25:22.000Z</time>
</trkpt>
<trkpt lat="45.7565300" lon="9.9659460">
	<ele>1329.20</ele>
	<time>2023-04-15T09:25:26.000Z</time>
</trkpt>
<trkpt lat="45.7565090" lon="9.9659470">
	<ele>1328.20</ele>
	<time>2023-04-15T09:25:28.000Z</time>
</trkpt>
<trkpt lat="45.7564900" lon="9.9659480">
	<ele>1327.20</ele>
	<time>2023-04-15T09:25:30.000Z</time>
</trkpt>
<trkpt lat="45.7564720" lon="9.9659610">
	<ele>1326.00</ele>
	<time>2023-04-15T09:25:32.000Z</time>
</trkpt>
<trkpt lat="45.7564410" lon="9.9659900">
	<ele>1325.00</ele>
	<time>2023-04-15T09:25:35.000Z</time>
</trkpt>
<trkpt lat="45.7564140" lon="9.9659970">
	<ele>1324.00</ele>
	<time>2023-04-15T09:25:37.000Z</time>
</trkpt>
<trkpt lat="45.7563720" lon="9.9660140">
	<ele>1322.80</ele>
	<time>2023-04-15T09:25:40.000Z</time>
</trkpt>
<trkpt lat="45.7563260" lon="9.9660420">
	<ele>1321.60</ele>
	<time>2023-04-15T09:25:44.000Z</time>
</trkpt>
<trkpt lat="45.7562900" lon="9.9660430">
	<ele>1320.60</ele>
	<time>2023-04-15T09:25:47.000Z</time>
</trkpt>
<trkpt lat="45.7562530" lon="9.9660620">
	<ele>1319.60</ele>
	<time>2023-04-15T09:25:50.000Z</time>
</trkpt>
<trkpt lat="45.7562170" lon="9.9660670">
	<ele>1318.40</ele>
	<time>2023-04-15T09:25:54.000Z</time>
</trkpt>
<trkpt lat="45.7562150" lon="9.9660670">
	<ele>1317.80</ele>
	<time>2023-04-15T09:25:55.000Z</time>
</trkpt>
<trkpt lat="45.7562130" lon="9.9660690">
	<ele>1317.40</ele>
	<time>2023-04-15T09:25:58.000Z</time>
</trkpt>
<trkpt lat="45.7561980" lon="9.9660670">
	<ele>1317.20</ele>
	<time>2023-04-15T09:26:04.000Z</time>
</trkpt>
<trkpt lat="45.7561700" lon="9.9660770">
	<ele>1316.80</ele>
	<time>2023-04-15T09:26:07.000Z</time>
</trkpt>
<trkpt lat="45.7561620" lon="9.9660830">
	<ele>1316.40</ele>
	<time>2023-04-15T09:26:08.000Z</time>
</trkpt>
<trkpt lat="45.7561410" lon="9.9661030">
	<ele>1315.20</ele>
	<time>2023-04-15T09:26:11.000Z</time>
</trkpt>
<trkpt lat="45.7561220" lon="9.9661190">
	<ele>1314.00</ele>
	<time>2023-04-15T09:26:15.000Z</time>
</trkpt>
<trkpt lat="45.7561160" lon="9.9661190">
	<ele>1313.60</ele>
	<time>2023-04-15T09:26:18.000Z</time>
</trkpt>
<trkpt lat="45.7561170" lon="9.9661190">
	<ele>1313.40</ele>
	<time>2023-04-15T09:26:24.000Z</time>
</trkpt>
<trkpt lat="45.7561180" lon="9.9661190">
	<ele>1313.40</ele>
	<time>2023-04-15T09:26:25.000Z</time>
</trkpt>
<trkpt lat="45.7561040" lon="9.9661240">
	<ele>1312.40</ele>
	<time>2023-04-15T09:26:42.000Z</time>
</trkpt>
<trkpt lat="45.7560800" lon="9.9661380">
	<ele>1311.80</ele>
	<time>2023-04-15T09:26:44.000Z</time>
</trkpt>
<trkpt lat="45.7560570" lon="9.9661440">
	<ele>1311.20</ele>
	<time>2023-04-15T09:26:46.000Z</time>
</trkpt>
<trkpt lat="45.7560230" lon="9.9661710">
	<ele>1310.60</ele>
	<time>2023-04-15T09:26:49.000Z</time>
</trkpt>
<trkpt lat="45.7559990" lon="9.9661930">
	<ele>1310.20</ele>
	<time>2023-04-15T09:26:52.000Z</time>
</trkpt>
<trkpt lat="45.7559920" lon="9.9661950">
	<ele>1309.60</ele>
	<time>2023-04-15T09:26:53.000Z</time>
</trkpt>
<trkpt lat="45.7559700" lon="9.9662160">
	<ele>1308.80</ele>
	<time>2023-04-15T09:26:56.000Z</time>
</trkpt>
<trkpt lat="45.7559630" lon="9.9662260">
	<ele>1308.40</ele>
	<time>2023-04-15T09:26:57.000Z</time>
</trkpt>
<trkpt lat="45.7559260" lon="9.9662280">
	<ele>1307.60</ele>
	<time>2023-04-15T09:27:01.000Z</time>
</trkpt>
<trkpt lat="45.7559200" lon="9.9662290">
	<ele>1307.40</ele>
	<time>2023-04-15T09:27:02.000Z</time>
</trkpt>
<trkpt lat="45.7559030" lon="9.9662340">
	<ele>1306.60</ele>
	<time>2023-04-15T09:27:04.000Z</time>
</trkpt>
<trkpt lat="45.7558840" lon="9.9662460">
	<ele>1306.40</ele>
	<time>2023-04-15T09:27:06.000Z</time>
</trkpt>
<trkpt lat="45.7558710" lon="9.9662600">
	<ele>1306.00</ele>
	<time>2023-04-15T09:27:08.000Z</time>
</trkpt>
<trkpt lat="45.7558460" lon="9.9662740">
	<ele>1305.00</ele>
	<time>2023-04-15T09:27:11.000Z</time>
</trkpt>
<trkpt lat="45.7558110" lon="9.9662840">
	<ele>1303.80</ele>
	<time>2023-04-15T09:27:16.000Z</time>
</trkpt>
<trkpt lat="45.7557940" lon="9.9662850">
	<ele>1303.60</ele>
	<time>2023-04-15T09:27:18.000Z</time>
</trkpt>
<trkpt lat="45.7557520" lon="9.9662870">
	<ele>1302.60</ele>
	<time>2023-04-15T09:27:22.000Z</time>
</trkpt>
<trkpt lat="45.7557410" lon="9.9662890">
	<ele>1302.20</ele>
	<time>2023-04-15T09:27:23.000Z</time>
</trkpt>
<trkpt lat="45.7557160" lon="9.9662980">
	<ele>1301.60</ele>
	<time>2023-04-15T09:27:26.000Z</time>
</trkpt>
<trkpt lat="45.7556800" lon="9.9663270">
	<ele>1300.20</ele>
	<time>2023-04-15T09:27:30.000Z</time>
</trkpt>
<trkpt lat="45.7556700" lon="9.9663350">
	<ele>1300.00</ele>
	<time>2023-04-15T09:27:31.000Z</time>
</trkpt>
<trkpt lat="45.7556420" lon="9.9663690">
	<ele>1298.80</ele>
	<time>2023-04-15T09:27:34.000Z</time>
</trkpt>
<trkpt lat="45.7556110" lon="9.9663810">
	<ele>1298.20</ele>
	<time>2023-04-15T09:27:37.000Z</time>
</trkpt>
<trkpt lat="45.7555980" lon="9.9663780">
	<ele>1297.60</ele>
	<time>2023-04-15T09:27:38.000Z</time>
</trkpt>
<trkpt lat="45.7555880" lon="9.9663760">
	<ele>1297.40</ele>
	<time>2023-04-15T09:27:39.000Z</time>
</trkpt>
<trkpt lat="45.7555590" lon="9.9663730">
	<ele>1296.40</ele>
	<time>2023-04-15T09:27:42.000Z</time>
</trkpt>
<trkpt lat="45.7555430" lon="9.9663770">
	<ele>1295.40</ele>
	<time>2023-04-15T09:27:46.000Z</time>
</trkpt>
<trkpt lat="45.7555430" lon="9.9663790">
	<ele>1295.20</ele>
	<time>2023-04-15T09:27:47.000Z</time>
</trkpt>
<trkpt lat="45.7555320" lon="9.9663530">
	<ele>1295.00</ele>
	<time>2023-04-15T09:27:55.000Z</time>
</trkpt>
<trkpt lat="45.7554950" lon="9.9663790">
	<ele>1294.00</ele>
	<time>2023-04-15T09:28:19.000Z</time>
</trkpt>
<trkpt lat="45.7554840" lon="9.9663790">
	<ele>1293.80</ele>
	<time>2023-04-15T09:28:20.000Z</time>
</trkpt>
<trkpt lat="45.7554080" lon="9.9663750">
	<ele>1293.00</ele>
	<time>2023-04-15T09:28:25.000Z</time>
</trkpt>
<trkpt lat="45.7553800" lon="9.9663730">
	<ele>1292.80</ele>
	<time>2023-04-15T09:28:27.000Z</time>
</trkpt>
<trkpt lat="45.7553610" lon="9.9663770">
	<ele>1292.00</ele>
	<time>2023-04-15T09:28:29.000Z</time>
</trkpt>
<trkpt lat="45.7553370" lon="9.9663810">
	<ele>1290.80</ele>
	<time>2023-04-15T09:28:33.000Z</time>
</trkpt>
<trkpt lat="45.7553260" lon="9.9663830">
	<ele>1290.60</ele>
	<time>2023-04-15T09:28:34.000Z</time>
</trkpt>
<trkpt lat="45.7552790" lon="9.9663980">
	<ele>1289.60</ele>
	<time>2023-04-15T09:28:41.000Z</time>
</trkpt>
<trkpt lat="45.7552750" lon="9.9663990">
	<ele>1289.40</ele>
	<time>2023-04-15T09:28:42.000Z</time>
</trkpt>
<trkpt lat="45.7552700" lon="9.9664000">
	<ele>1289.20</ele>
	<time>2023-04-15T09:28:43.000Z</time>
</trkpt>
<trkpt lat="45.7552390" lon="9.9663760">
	<ele>1288.40</ele>
	<time>2023-04-15T09:28:47.000Z</time>
</trkpt>
<trkpt lat="45.7552410" lon="9.9663520">
	<ele>1287.80</ele>
	<time>2023-04-15T09:28:49.000Z</time>
</trkpt>
<trkpt lat="45.7552280" lon="9.9663200">
	<ele>1287.40</ele>
	<time>2023-04-15T09:28:53.000Z</time>
</trkpt>
<trkpt lat="45.7552210" lon="9.9663260">
	<ele>1287.00</ele>
	<time>2023-04-15T09:28:55.000Z</time>
</trkpt>
<trkpt lat="45.7552080" lon="9.9663390">
	<ele>1286.60</ele>
	<time>2023-04-15T09:28:57.000Z</time>
</trkpt>
<trkpt lat="45.7551930" lon="9.9663590">
	<ele>1286.40</ele>
	<time>2023-04-15T09:28:59.000Z</time>
</trkpt>
<trkpt lat="45.7551870" lon="9.9663710">
	<ele>1286.20</ele>
	<time>2023-04-15T09:29:00.000Z</time>
</trkpt>
<trkpt lat="45.7551460" lon="9.9664300">
	<ele>1285.20</ele>
	<time>2023-04-15T09:29:05.000Z</time>
</trkpt>
<trkpt lat="45.7550950" lon="9.9664990">
	<ele>1285.00</ele>
	<time>2023-04-15T09:29:12.000Z</time>
</trkpt>
<trkpt lat="45.7550750" lon="9.9665160">
	<ele>1284.60</ele>
	<time>2023-04-15T09:29:14.000Z</time>
</trkpt>
<trkpt lat="45.7550370" lon="9.9665580">
	<ele>1283.80</ele>
	<time>2023-04-15T09:29:21.000Z</time>
</trkpt>
<trkpt lat="45.7550400" lon="9.9665590">
	<ele>1283.60</ele>
	<time>2023-04-15T09:29:22.000Z</time>
</trkpt>
<trkpt lat="45.7550490" lon="9.9665620">
	<ele>1283.60</ele>
	<time>2023-04-15T09:29:23.000Z</time>
</trkpt>
<trkpt lat="45.7550900" lon="9.9665650">
	<ele>1284.40</ele>
	<time>2023-04-15T09:29:30.000Z</time>
</trkpt>
<trkpt lat="45.7550890" lon="9.9665660">
	<ele>1284.20</ele>
	<time>2023-04-15T09:29:37.000Z</time>
</trkpt>
<trkpt lat="45.7550880" lon="9.9665650">
	<ele>1283.80</ele>
	<time>2023-04-15T09:29:41.000Z</time>
</trkpt>
<trkpt lat="45.7550890" lon="9.9665650">
	<ele>1284.00</ele>
	<time>2023-04-15T09:29:47.000Z</time>
</trkpt>
<trkpt lat="45.7550920" lon="9.9665660">
	<ele>1284.20</ele>
	<time>2023-04-15T09:30:00.000Z</time>
</trkpt>
<trkpt lat="45.7550920" lon="9.9665660">
	<ele>1284.20</ele>
	<time>2023-04-15T09:30:01.000Z</time>
</trkpt>
<trkpt lat="45.7550930" lon="9.9665660">
	<ele>1284.20</ele>
	<time>2023-04-15T09:30:05.000Z</time>
</trkpt>
<trkpt lat="45.7550980" lon="9.9665660">
	<ele>1284.80</ele>
	<time>2023-04-15T09:30:10.000Z</time>
</trkpt>
<trkpt lat="45.7551070" lon="9.9665580">
	<ele>1284.80</ele>
	<time>2023-04-15T09:30:15.000Z</time>
</trkpt>
<trkpt lat="45.7551100" lon="9.9665480">
	<ele>1284.60</ele>
	<time>2023-04-15T09:30:24.000Z</time>
</trkpt>
<trkpt lat="45.7551100" lon="9.9665470">
	<ele>1284.60</ele>
	<time>2023-04-15T09:30:25.000Z</time>
</trkpt>
<trkpt lat="45.7550730" lon="9.9665590">
	<ele>1285.00</ele>
	<time>2023-04-15T09:30:37.000Z</time>
</trkpt>
<trkpt lat="45.7549770" lon="9.9665670">
	<ele>1284.00</ele>
	<time>2023-04-15T09:30:45.000Z</time>
</trkpt>
<trkpt lat="45.7549430" lon="9.9665690">
	<ele>1283.80</ele>
	<time>2023-04-15T09:30:49.000Z</time>
</trkpt>
<trkpt lat="45.7548760" lon="9.9665760">
	<ele>1282.40</ele>
	<time>2023-04-15T09:30:56.000Z</time>
</trkpt>
<trkpt lat="45.7548480" lon="9.9665760">
	<ele>1281.80</ele>
	<time>2023-04-15T09:30:59.000Z</time>
</trkpt>
<trkpt lat="45.7548130" lon="9.9665750">
	<ele>1281.40</ele>
	<time>2023-04-15T09:31:02.000Z</time>
</trkpt>
<trkpt lat="45.7548030" lon="9.9665750">
	<ele>1281.20</ele>
	<time>2023-04-15T09:31:03.000Z</time>
</trkpt>
<trkpt lat="45.7547790" lon="9.9665790">
	<ele>1280.80</ele>
	<time>2023-04-15T09:31:05.000Z</time>
</trkpt>
<trkpt lat="45.7547650" lon="9.9665790">
	<ele>1280.60</ele>
	<time>2023-04-15T09:31:06.000Z</time>
</trkpt>
<trkpt lat="45.7547520" lon="9.9665740">
	<ele>1280.40</ele>
	<time>2023-04-15T09:31:07.000Z</time>
</trkpt>
<trkpt lat="45.7547420" lon="9.9665690">
	<ele>1279.80</ele>
	<time>2023-04-15T09:31:08.000Z</time>
</trkpt>
<trkpt lat="45.7546950" lon="9.9665620">
	<ele>1278.80</ele>
	<time>2023-04-15T09:31:13.000Z</time>
</trkpt>
<trkpt lat="45.7546550" lon="9.9665610">
	<ele>1277.80</ele>
	<time>2023-04-15T09:31:17.000Z</time>
</trkpt>
<trkpt lat="45.7546460" lon="9.9665620">
	<ele>1277.60</ele>
	<time>2023-04-15T09:31:18.000Z</time>
</trkpt>
<trkpt lat="45.7545920" lon="9.9665640">
	<ele>1277.20</ele>
	<time>2023-04-15T09:31:24.000Z</time>
</trkpt>
<trkpt lat="45.7545840" lon="9.9665630">
	<ele>1277.00</ele>
	<time>2023-04-15T09:31:25.000Z</time>
</trkpt>
<trkpt lat="45.7545760" lon="9.9665700">
	<ele>1276.60</ele>
	<time>2023-04-15T09:31:26.000Z</time>
</trkpt>
<trkpt lat="45.7545640" lon="9.9665770">
	<ele>1276.40</ele>
	<time>2023-04-15T09:31:27.000Z</time>
</trkpt>
<trkpt lat="45.7545170" lon="9.9665850">
	<ele>1276.00</ele>
	<time>2023-04-15T09:31:31.000Z</time>
</trkpt>
<trkpt lat="45.7544610" lon="9.9666100">
	<ele>1275.40</ele>
	<time>2023-04-15T09:31:36.000Z</time>
</trkpt>
<trkpt lat="45.7544190" lon="9.9666170">
	<ele>1275.00</ele>
	<time>2023-04-15T09:31:40.000Z</time>
</trkpt>
<trkpt lat="45.7543660" lon="9.9666200">
	<ele>1274.20</ele>
	<time>2023-04-15T09:31:45.000Z</time>
</trkpt>
<trkpt lat="45.7543460" lon="9.9666190">
	<ele>1274.00</ele>
	<time>2023-04-15T09:31:47.000Z</time>
</trkpt>
<trkpt lat="45.7543310" lon="9.9666220">
	<ele>1274.00</ele>
	<time>2023-04-15T09:31:48.000Z</time>
</trkpt>
<trkpt lat="45.7542210" lon="9.9666450">
	<ele>1273.20</ele>
	<time>2023-04-15T09:31:56.000Z</time>
</trkpt>
<trkpt lat="45.7542080" lon="9.9666460">
	<ele>1273.20</ele>
	<time>2023-04-15T09:31:57.000Z</time>
</trkpt>
<trkpt lat="45.7541200" lon="9.9666150">
	<ele>1272.60</ele>
	<time>2023-04-15T09:32:04.000Z</time>
</trkpt>
<trkpt lat="45.7540580" lon="9.9665900">
	<ele>1272.20</ele>
	<time>2023-04-15T09:32:09.000Z</time>
</trkpt>
<trkpt lat="45.7540070" lon="9.9665520">
	<ele>1271.60</ele>
	<time>2023-04-15T09:32:15.000Z</time>
</trkpt>
<trkpt lat="45.7539530" lon="9.9665270">
	<ele>1271.20</ele>
	<time>2023-04-15T09:32:20.000Z</time>
</trkpt>
<trkpt lat="45.7538990" lon="9.9665100">
	<ele>1270.00</ele>
	<time>2023-04-15T09:32:24.000Z</time>
</trkpt>
<trkpt lat="45.7538450" lon="9.9664870">
	<ele>1269.00</ele>
	<time>2023-04-15T09:32:29.000Z</time>
</trkpt>
<trkpt lat="45.7538150" lon="9.9664720">
	<ele>1268.20</ele>
	<time>2023-04-15T09:32:32.000Z</time>
</trkpt>
<trkpt lat="45.7537820" lon="9.9664620">
	<ele>1267.80</ele>
	<time>2023-04-15T09:32:35.000Z</time>
</trkpt>
<trkpt lat="45.7537290" lon="9.9664250">
	<ele>1266.80</ele>
	<time>2023-04-15T09:32:41.000Z</time>
</trkpt>
<trkpt lat="45.7536840" lon="9.9663830">
	<ele>1266.40</ele>
	<time>2023-04-15T09:32:46.000Z</time>
</trkpt>
<trkpt lat="45.7536340" lon="9.9663520">
	<ele>1265.80</ele>
	<time>2023-04-15T09:32:51.000Z</time>
</trkpt>
<trkpt lat="45.7535600" lon="9.9663180">
	<ele>1264.60</ele>
	<time>2023-04-15T09:32:59.000Z</time>
</trkpt>
<trkpt lat="45.7535250" lon="9.9663240">
	<ele>1264.20</ele>
	<time>2023-04-15T09:33:02.000Z</time>
</trkpt>
<trkpt lat="45.7535130" lon="9.9663250">
	<ele>1263.80</ele>
	<time>2023-04-15T09:33:03.000Z</time>
</trkpt>
<trkpt lat="45.7534870" lon="9.9663200">
	<ele>1263.60</ele>
	<time>2023-04-15T09:33:05.000Z</time>
</trkpt>
<trkpt lat="45.7534040" lon="9.9663040">
	<ele>1262.60</ele>
	<time>2023-04-15T09:33:13.000Z</time>
</trkpt>
<trkpt lat="45.7533250" lon="9.9662700">
	<ele>1261.60</ele>
	<time>2023-04-15T09:33:21.000Z</time>
</trkpt>
<trkpt lat="45.7533150" lon="9.9662630">
	<ele>1261.20</ele>
	<time>2023-04-15T09:33:22.000Z</time>
</trkpt>
<trkpt lat="45.7533050" lon="9.9662600">
	<ele>1261.00</ele>
	<time>2023-04-15T09:33:23.000Z</time>
</trkpt>
<trkpt lat="45.7532960" lon="9.9662610">
	<ele>1260.80</ele>
	<time>2023-04-15T09:33:24.000Z</time>
</trkpt>
<trkpt lat="45.7532820" lon="9.9662580">
	<ele>1260.60</ele>
	<time>2023-04-15T09:33:25.000Z</time>
</trkpt>
<trkpt lat="45.7532470" lon="9.9662540">
	<ele>1260.20</ele>
	<time>2023-04-15T09:33:29.000Z</time>
</trkpt>
<trkpt lat="45.7532370" lon="9.9662500">
	<ele>1260.00</ele>
	<time>2023-04-15T09:33:30.000Z</time>
</trkpt>
<trkpt lat="45.7532290" lon="9.9662460">
	<ele>1260.00</ele>
	<time>2023-04-15T09:33:31.000Z</time>
</trkpt>
<trkpt lat="45.7531490" lon="9.9662300">
	<ele>1259.00</ele>
	<time>2023-04-15T09:33:37.000Z</time>
</trkpt>
<trkpt lat="45.7531130" lon="9.9662210">
	<ele>1258.20</ele>
	<time>2023-04-15T09:33:41.000Z</time>
</trkpt>
<trkpt lat="45.7530850" lon="9.9662140">
	<ele>1257.80</ele>
	<time>2023-04-15T09:33:43.000Z</time>
</trkpt>
<trkpt lat="45.7530130" lon="9.9661910">
	<ele>1256.80</ele>
	<time>2023-04-15T09:33:49.000Z</time>
</trkpt>
<trkpt lat="45.7529960" lon="9.9661790">
	<ele>1256.60</ele>
	<time>2023-04-15T09:33:51.000Z</time>
</trkpt>
<trkpt lat="45.7529050" lon="9.9661620">
	<ele>1255.60</ele>
	<time>2023-04-15T09:33:58.000Z</time>
</trkpt>
<trkpt lat="45.7528860" lon="9.9661550">
	<ele>1255.00</ele>
	<time>2023-04-15T09:34:01.000Z</time>
</trkpt>
<trkpt lat="45.7528450" lon="9.9661340">
	<ele>1254.40</ele>
	<time>2023-04-15T09:34:05.000Z</time>
</trkpt>
<trkpt lat="45.7527920" lon="9.9661100">
	<ele>1253.80</ele>
	<time>2023-04-15T09:34:11.000Z</time>
</trkpt>
<trkpt lat="45.7527450" lon="9.9660960">
	<ele>1253.40</ele>
	<time>2023-04-15T09:34:15.000Z</time>
</trkpt>
<trkpt lat="45.7527280" lon="9.9660840">
	<ele>1253.20</ele>
	<time>2023-04-15T09:34:17.000Z</time>
</trkpt>
<trkpt lat="45.7527100" lon="9.9660730">
	<ele>1253.00</ele>
	<time>2023-04-15T09:34:19.000Z</time>
</trkpt>
<trkpt lat="45.7526600" lon="9.9660550">
	<ele>1252.40</ele>
	<time>2023-04-15T09:34:23.000Z</time>
</trkpt>
<trkpt lat="45.7525820" lon="9.9660310">
	<ele>1251.40</ele>
	<time>2023-04-15T09:34:30.000Z</time>
</trkpt>
<trkpt lat="45.7525680" lon="9.9660260">
	<ele>1251.40</ele>
	<time>2023-04-15T09:34:31.000Z</time>
</trkpt>
<trkpt lat="45.7524880" lon="9.9659870">
	<ele>1250.40</ele>
	<time>2023-04-15T09:34:39.000Z</time>
</trkpt>
<trkpt lat="45.7524030" lon="9.9659520">
	<ele>1249.40</ele>
	<time>2023-04-15T09:34:48.000Z</time>
</trkpt>
<trkpt lat="45.7524030" lon="9.9659500">
	<ele>1249.20</ele>
	<time>2023-04-15T09:34:49.000Z</time>
</trkpt>
<trkpt lat="45.7524010" lon="9.9659370">
	<ele>1249.20</ele>
	<time>2023-04-15T09:34:51.000Z</time>
</trkpt>
<trkpt lat="45.7524010" lon="9.9659300">
	<ele>1249.20</ele>
	<time>2023-04-15T09:34:55.000Z</time>
</trkpt>
<trkpt lat="45.7524040" lon="9.9659260">
	<ele>1248.80</ele>
	<time>2023-04-15T09:35:08.000Z</time>
</trkpt>
<trkpt lat="45.7524040" lon="9.9659270">
	<ele>1249.00</ele>
	<time>2023-04-15T09:35:10.000Z</time>
</trkpt>
<trkpt lat="45.7524040" lon="9.9659280">
	<ele>1249.00</ele>
	<time>2023-04-15T09:35:13.000Z</time>
</trkpt>
<trkpt lat="45.7524030" lon="9.9659280">
	<ele>1248.20</ele>
	<time>2023-04-15T09:35:29.000Z</time>
</trkpt>
<trkpt lat="45.7523990" lon="9.9659230">
	<ele>1248.20</ele>
	<time>2023-04-15T09:35:43.000Z</time>
</trkpt>
<trkpt lat="45.7523990" lon="9.9659210">
	<ele>1248.20</ele>
	<time>2023-04-15T09:35:47.000Z</time>
</trkpt>
<trkpt lat="45.7523990" lon="9.9659200">
	<ele>1248.20</ele>
	<time>2023-04-15T09:35:49.000Z</time>
</trkpt>
<trkpt lat="45.7523990" lon="9.9659200">
	<ele>1248.00</ele>
	<time>2023-04-15T09:35:52.000Z</time>
</trkpt>
<trkpt lat="45.7524020" lon="9.9659190">
	<ele>1248.20</ele>
	<time>2023-04-15T09:36:05.000Z</time>
</trkpt>
<trkpt lat="45.7524110" lon="9.9659010">
	<ele>1248.20</ele>
	<time>2023-04-15T09:36:34.000Z</time>
</trkpt>
<trkpt lat="45.7524140" lon="9.9658960">
	<ele>1248.20</ele>
	<time>2023-04-15T09:36:50.000Z</time>
</trkpt>
<trkpt lat="45.7523590" lon="9.9658590">
	<ele>1248.20</ele>
	<time>2023-04-15T09:37:17.000Z</time>
</trkpt>
<trkpt lat="45.7522440" lon="9.9657820">
	<ele>1246.60</ele>
	<time>2023-04-15T09:37:25.000Z</time>
</trkpt>
<trkpt lat="45.7522370" lon="9.9657820">
	<ele>1245.60</ele>
	<time>2023-04-15T09:37:26.000Z</time>
</trkpt>
<trkpt lat="45.7522340" lon="9.9657800">
	<ele>1245.20</ele>
	<time>2023-04-15T09:37:27.000Z</time>
</trkpt>
<trkpt lat="45.7522340" lon="9.9657810">
	<ele>1244.80</ele>
	<time>2023-04-15T09:37:28.000Z</time>
</trkpt>
<trkpt lat="45.7522380" lon="9.9657830">
	<ele>1244.00</ele>
	<time>2023-04-15T09:37:31.000Z</time>
</trkpt>
<trkpt lat="45.7522350" lon="9.9657870">
	<ele>1243.80</ele>
	<time>2023-04-15T09:37:35.000Z</time>
</trkpt>
<trkpt lat="45.7522350" lon="9.9657860">
	<ele>1243.80</ele>
	<time>2023-04-15T09:37:38.000Z</time>
</trkpt>
<trkpt lat="45.7522360" lon="9.9657850">
	<ele>1243.60</ele>
	<time>2023-04-15T09:37:57.000Z</time>
</trkpt>
<trkpt lat="45.7522360" lon="9.9657850">
	<ele>1243.60</ele>
	<time>2023-04-15T09:37:59.000Z</time>
</trkpt>
<trkpt lat="45.7522420" lon="9.9657850">
	<ele>1243.80</ele>
	<time>2023-04-15T09:38:21.000Z</time>
</trkpt>
<trkpt lat="45.7522420" lon="9.9657840">
	<ele>1243.80</ele>
	<time>2023-04-15T09:38:22.000Z</time>
</trkpt>
<trkpt lat="45.7522250" lon="9.9657850">
	<ele>1243.00</ele>
	<time>2023-04-15T09:38:39.000Z</time>
</trkpt>
<trkpt lat="45.7522180" lon="9.9658050">
	<ele>1243.00</ele>
	<time>2023-04-15T09:38:44.000Z</time>
</trkpt>
<trkpt lat="45.7522380" lon="9.9660310">
	<ele>1243.00</ele>
	<time>2023-04-15T09:39:08.000Z</time>
</trkpt>
<trkpt lat="45.7522540" lon="9.9661300">
	<ele>1243.00</ele>
	<time>2023-04-15T09:39:11.000Z</time>
</trkpt>
<trkpt lat="45.7522620" lon="9.9662170">
	<ele>1243.40</ele>
	<time>2023-04-15T09:39:14.000Z</time>
</trkpt>
<trkpt lat="45.7522630" lon="9.9662330">
	<ele>1243.40</ele>
	<time>2023-04-15T09:39:15.000Z</time>
</trkpt>
<trkpt lat="45.7522920" lon="9.9663450">
	<ele>1243.60</ele>
	<time>2023-04-15T09:39:21.000Z</time>
</trkpt>
<trkpt lat="45.7522970" lon="9.9663660">
	<ele>1243.60</ele>
	<time>2023-04-15T09:39:22.000Z</time>
</trkpt>
<trkpt lat="45.7523060" lon="9.9664280">
	<ele>1243.60</ele>
	<time>2023-04-15T09:39:25.000Z</time>
</trkpt>
<trkpt lat="45.7523140" lon="9.9664630">
	<ele>1243.40</ele>
	<time>2023-04-15T09:39:27.000Z</time>
</trkpt>
<trkpt lat="45.7523200" lon="9.9665100">
	<ele>1243.40</ele>
	<time>2023-04-15T09:39:30.000Z</time>
</trkpt>
<trkpt lat="45.7523220" lon="9.9665310">
	<ele>1243.40</ele>
	<time>2023-04-15T09:39:31.000Z</time>
</trkpt>
<trkpt lat="45.7523520" lon="9.9667100">
	<ele>1243.60</ele>
	<time>2023-04-15T09:39:40.000Z</time>
</trkpt>
<trkpt lat="45.7523570" lon="9.9667610">
	<ele>1243.60</ele>
	<time>2023-04-15T09:39:45.000Z</time>
</trkpt>
<trkpt lat="45.7523550" lon="9.9667650">
	<ele>1243.80</ele>
	<time>2023-04-15T09:39:47.000Z</time>
</trkpt>
<trkpt lat="45.7523630" lon="9.9667920">
	<ele>1243.00</ele>
	<time>2023-04-15T09:40:01.000Z</time>
</trkpt>
<trkpt lat="45.7523930" lon="9.9669540">
	<ele>1243.20</ele>
	<time>2023-04-15T09:40:09.000Z</time>
</trkpt>
<trkpt lat="45.7524170" lon="9.9671280">
	<ele>1242.60</ele>
	<time>2023-04-15T09:40:20.000Z</time>
</trkpt>
<trkpt lat="45.7524210" lon="9.9671410">
	<ele>1242.40</ele>
	<time>2023-04-15T09:40:21.000Z</time>
</trkpt>
<trkpt lat="45.7524240" lon="9.9672700">
	<ele>1242.20</ele>
	<time>2023-04-15T09:40:30.000Z</time>
</trkpt>
<trkpt lat="45.7524430" lon="9.9673330">
	<ele>1242.20</ele>
	<time>2023-04-15T09:40:34.000Z</time>
</trkpt>
<trkpt lat="45.7524480" lon="9.9673670">
	<ele>1242.00</ele>
	<time>2023-04-15T09:40:36.000Z</time>
</trkpt>
<trkpt lat="45.7524710" lon="9.9674880">
	<ele>1241.80</ele>
	<time>2023-04-15T09:40:43.000Z</time>
</trkpt>
<trkpt lat="45.7524830" lon="9.9676270">
	<ele>1241.60</ele>
	<time>2023-04-15T09:40:51.000Z</time>
</trkpt>
<trkpt lat="45.7524970" lon="9.9677050">
	<ele>1241.60</ele>
	<time>2023-04-15T09:40:55.000Z</time>
</trkpt>
<trkpt lat="45.7525280" lon="9.9678010">
	<ele>1241.40</ele>
	<time>2023-04-15T09:41:01.000Z</time>
</trkpt>
<trkpt lat="45.7525390" lon="9.9678750">
	<ele>1241.40</ele>
	<time>2023-04-15T09:41:05.000Z</time>
</trkpt>
<trkpt lat="45.7525380" lon="9.9679150">
	<ele>1241.40</ele>
	<time>2023-04-15T09:41:07.000Z</time>
</trkpt>
<trkpt lat="45.7525730" lon="9.9680610">
	<ele>1241.40</ele>
	<time>2023-04-15T09:41:16.000Z</time>
</trkpt>
<trkpt lat="45.7526160" lon="9.9682090">
	<ele>1241.40</ele>
	<time>2023-04-15T09:41:25.000Z</time>
</trkpt>
<trkpt lat="45.7526490" lon="9.9682960">
	<ele>1241.60</ele>
	<time>2023-04-15T09:41:31.000Z</time>
</trkpt>
<trkpt lat="45.7526810" lon="9.9683640">
	<ele>1242.00</ele>
	<time>2023-04-15T09:41:35.000Z</time>
</trkpt>
<trkpt lat="45.7527130" lon="9.9684600">
	<ele>1242.60</ele>
	<time>2023-04-15T09:41:42.000Z</time>
</trkpt>
<trkpt lat="45.7527180" lon="9.9684750">
	<ele>1242.60</ele>
	<time>2023-04-15T09:41:43.000Z</time>
</trkpt>
<trkpt lat="45.7527550" lon="9.9685730">
	<ele>1242.80</ele>
	<time>2023-04-15T09:41:52.000Z</time>
</trkpt>
<trkpt lat="45.7527550" lon="9.9685770">
	<ele>1242.80</ele>
	<time>2023-04-15T09:41:53.000Z</time>
</trkpt>
<trkpt lat="45.7527600" lon="9.9686410">
	<ele>1242.60</ele>
	<time>2023-04-15T09:41:58.000Z</time>
</trkpt>
<trkpt lat="45.7527620" lon="9.9686750">
	<ele>1242.80</ele>
	<time>2023-04-15T09:42:00.000Z</time>
</trkpt>
<trkpt lat="45.7527630" lon="9.9686910">
	<ele>1243.00</ele>
	<time>2023-04-15T09:42:01.000Z</time>
</trkpt>
<trkpt lat="45.7527820" lon="9.9688190">
	<ele>1243.00</ele>
	<time>2023-04-15T09:42:09.000Z</time>
</trkpt>
<trkpt lat="45.7527980" lon="9.9689480">
	<ele>1242.80</ele>
	<time>2023-04-15T09:42:17.000Z</time>
</trkpt>
<trkpt lat="45.7528100" lon="9.9689900">
	<ele>1242.60</ele>
	<time>2023-04-15T09:42:20.000Z</time>
</trkpt>
<trkpt lat="45.7528080" lon="9.9691680">
	<ele>1242.00</ele>
	<time>2023-04-15T09:42:30.000Z</time>
</trkpt>
<trkpt lat="45.7528080" lon="9.9691840">
	<ele>1242.00</ele>
	<time>2023-04-15T09:42:31.000Z</time>
</trkpt>
<trkpt lat="45.7528070" lon="9.9692000">
	<ele>1242.00</ele>
	<time>2023-04-15T09:42:32.000Z</time>
</trkpt>
<trkpt lat="45.7528090" lon="9.9693080">
	<ele>1241.40</ele>
	<time>2023-04-15T09:42:37.000Z</time>
</trkpt>
<trkpt lat="45.7528130" lon="9.9693720">
	<ele>1241.20</ele>
	<time>2023-04-15T09:42:41.000Z</time>
</trkpt>
<trkpt lat="45.7528200" lon="9.9694190">
	<ele>1241.20</ele>
	<time>2023-04-15T09:42:44.000Z</time>
</trkpt>
<trkpt lat="45.7528270" lon="9.9694840">
	<ele>1241.00</ele>
	<time>2023-04-15T09:42:47.000Z</time>
</trkpt>
<trkpt lat="45.7528180" lon="9.9695920">
	<ele>1240.80</ele>
	<time>2023-04-15T09:42:53.000Z</time>
</trkpt>
<trkpt lat="45.7528150" lon="9.9697250">
	<ele>1240.60</ele>
	<time>2023-04-15T09:43:00.000Z</time>
</trkpt>
<trkpt lat="45.7527760" lon="9.9698780">
	<ele>1240.00</ele>
	<time>2023-04-15T09:43:09.000Z</time>
</trkpt>
<trkpt lat="45.7527720" lon="9.9698940">
	<ele>1240.00</ele>
	<time>2023-04-15T09:43:10.000Z</time>
</trkpt>
<trkpt lat="45.7527430" lon="9.9701100">
	<ele>1239.40</ele>
	<time>2023-04-15T09:43:22.000Z</time>
</trkpt>
<trkpt lat="45.7527020" lon="9.9702540">
	<ele>1239.20</ele>
	<time>2023-04-15T09:43:30.000Z</time>
</trkpt>
<trkpt lat="45.7526920" lon="9.9702970">
	<ele>1239.00</ele>
	<time>2023-04-15T09:43:33.000Z</time>
</trkpt>
<trkpt lat="45.7526540" lon="9.9703960">
	<ele>1238.40</ele>
	<time>2023-04-15T09:43:39.000Z</time>
</trkpt>
<trkpt lat="45.7526260" lon="9.9705090">
	<ele>1237.60</ele>
	<time>2023-04-15T09:43:46.000Z</time>
</trkpt>
<trkpt lat="45.7526150" lon="9.9705180">
	<ele>1237.60</ele>
	<time>2023-04-15T09:43:47.000Z</time>
</trkpt>
<trkpt lat="45.7526090" lon="9.9705270">
	<ele>1237.40</ele>
	<time>2023-04-15T09:43:48.000Z</time>
</trkpt>
<trkpt lat="45.7526050" lon="9.9705490">
	<ele>1237.40</ele>
	<time>2023-04-15T09:43:49.000Z</time>
</trkpt>
<trkpt lat="45.7525770" lon="9.9706350">
	<ele>1237.00</ele>
	<time>2023-04-15T09:43:54.000Z</time>
</trkpt>
<trkpt lat="45.7525260" lon="9.9707370">
	<ele>1236.60</ele>
	<time>2023-04-15T09:44:01.000Z</time>
</trkpt>
<trkpt lat="45.7524880" lon="9.9708260">
	<ele>1236.40</ele>
	<time>2023-04-15T09:44:07.000Z</time>
</trkpt>
<trkpt lat="45.7524310" lon="9.9709110">
	<ele>1236.40</ele>
	<time>2023-04-15T09:44:13.000Z</time>
</trkpt>
<trkpt lat="45.7524210" lon="9.9709280">
	<ele>1236.40</ele>
	<time>2023-04-15T09:44:14.000Z</time>
</trkpt>
<trkpt lat="45.7524040" lon="9.9709550">
	<ele>1236.00</ele>
	<time>2023-04-15T09:44:16.000Z</time>
</trkpt>
<trkpt lat="45.7524010" lon="9.9709680">
	<ele>1235.80</ele>
	<time>2023-04-15T09:44:17.000Z</time>
</trkpt>
<trkpt lat="45.7523970" lon="9.9709770">
	<ele>1235.60</ele>
	<time>2023-04-15T09:44:18.000Z</time>
</trkpt>
<trkpt lat="45.7523730" lon="9.9710090">
	<ele>1235.20</ele>
	<time>2023-04-15T09:44:21.000Z</time>
</trkpt>
<trkpt lat="45.7523120" lon="9.9711090">
	<ele>1234.60</ele>
	<time>2023-04-15T09:44:29.000Z</time>
</trkpt>
<trkpt lat="45.7523060" lon="9.9711220">
	<ele>1234.40</ele>
	<time>2023-04-15T09:44:30.000Z</time>
</trkpt>
<trkpt lat="45.7523000" lon="9.9711330">
	<ele>1234.40</ele>
	<time>2023-04-15T09:44:31.000Z</time>
</trkpt>
<trkpt lat="45.7522530" lon="9.9711770">
	<ele>1234.00</ele>
	<time>2023-04-15T09:44:35.000Z</time>
</trkpt>
<trkpt lat="45.7522090" lon="9.9712100">
	<ele>1233.40</ele>
	<time>2023-04-15T09:44:39.000Z</time>
</trkpt>
<trkpt lat="45.7521670" lon="9.9712700">
	<ele>1232.60</ele>
	<time>2023-04-15T09:44:44.000Z</time>
</trkpt>
<trkpt lat="45.7521550" lon="9.9712920">
	<ele>1232.40</ele>
	<time>2023-04-15T09:44:46.000Z</time>
</trkpt>
<trkpt lat="45.7521390" lon="9.9713110">
	<ele>1232.20</ele>
	<time>2023-04-15T09:44:48.000Z</time>
</trkpt>
<trkpt lat="45.7521080" lon="9.9713680">
	<ele>1231.40</ele>
	<time>2023-04-15T09:44:53.000Z</time>
</trkpt>
<trkpt lat="45.7520930" lon="9.9713920">
	<ele>1231.20</ele>
	<time>2023-04-15T09:44:55.000Z</time>
</trkpt>
<trkpt lat="45.7520430" lon="9.9714440">
	<ele>1230.80</ele>
	<time>2023-04-15T09:45:00.000Z</time>
</trkpt>
<trkpt lat="45.7520230" lon="9.9714710">
	<ele>1230.40</ele>
	<time>2023-04-15T09:45:02.000Z</time>
</trkpt>
<trkpt lat="45.7520110" lon="9.9714790">
	<ele>1230.00</ele>
	<time>2023-04-15T09:45:03.000Z</time>
</trkpt>
<trkpt lat="45.7520010" lon="9.9714890">
	<ele>1229.80</ele>
	<time>2023-04-15T09:45:04.000Z</time>
</trkpt>
<trkpt lat="45.7519140" lon="9.9715640">
	<ele>1229.40</ele>
	<time>2023-04-15T09:45:11.000Z</time>
</trkpt>
<trkpt lat="45.7518900" lon="9.9715820">
	<ele>1229.00</ele>
	<time>2023-04-15T09:45:13.000Z</time>
</trkpt>
<trkpt lat="45.7518590" lon="9.9716170">
	<ele>1228.20</ele>
	<time>2023-04-15T09:45:17.000Z</time>
</trkpt>
<trkpt lat="45.7518500" lon="9.9716280">
	<ele>1228.00</ele>
	<time>2023-04-15T09:45:18.000Z</time>
</trkpt>
<trkpt lat="45.7518430" lon="9.9716390">
	<ele>1228.00</ele>
	<time>2023-04-15T09:45:19.000Z</time>
</trkpt>
<trkpt lat="45.7518350" lon="9.9716500">
	<ele>1227.80</ele>
	<time>2023-04-15T09:45:20.000Z</time>
</trkpt>
<trkpt lat="45.7517990" lon="9.9717070">
	<ele>1227.40</ele>
	<time>2023-04-15T09:45:25.000Z</time>
</trkpt>
<trkpt lat="45.7517850" lon="9.9717310">
	<ele>1227.20</ele>
	<time>2023-04-15T09:45:27.000Z</time>
</trkpt>
<trkpt lat="45.7517640" lon="9.9717610">
	<ele>1227.20</ele>
	<time>2023-04-15T09:45:29.000Z</time>
</trkpt>
<trkpt lat="45.7517600" lon="9.9717760">
	<ele>1227.00</ele>
	<time>2023-04-15T09:45:30.000Z</time>
</trkpt>
<trkpt lat="45.7517550" lon="9.9717870">
	<ele>1227.00</ele>
	<time>2023-04-15T09:45:31.000Z</time>
</trkpt>
<trkpt lat="45.7517460" lon="9.9717940">
	<ele>1227.00</ele>
	<time>2023-04-15T09:45:32.000Z</time>
</trkpt>
<trkpt lat="45.7517370" lon="9.9718060">
	<ele>1226.80</ele>
	<time>2023-04-15T09:45:33.000Z</time>
</trkpt>
<trkpt lat="45.7517000" lon="9.9718530">
	<ele>1226.20</ele>
	<time>2023-04-15T09:45:38.000Z</time>
</trkpt>
<trkpt lat="45.7516850" lon="9.9718610">
	<ele>1226.20</ele>
	<time>2023-04-15T09:45:39.000Z</time>
</trkpt>
<trkpt lat="45.7516680" lon="9.9719260">
	<ele>1225.80</ele>
	<time>2023-04-15T09:45:44.000Z</time>
</trkpt>
<trkpt lat="45.7516450" lon="9.9719640">
	<ele>1225.60</ele>
	<time>2023-04-15T09:45:47.000Z</time>
</trkpt>
<trkpt lat="45.7515780" lon="9.9720350">
	<ele>1225.00</ele>
	<time>2023-04-15T09:45:54.000Z</time>
</trkpt>
<trkpt lat="45.7515690" lon="9.9720490">
	<ele>1225.00</ele>
	<time>2023-04-15T09:45:55.000Z</time>
</trkpt>
<trkpt lat="45.7515560" lon="9.9720610">
	<ele>1224.80</ele>
	<time>2023-04-15T09:45:56.000Z</time>
</trkpt>
<trkpt lat="45.7514890" lon="9.9721090">
	<ele>1224.40</ele>
	<time>2023-04-15T09:46:02.000Z</time>
</trkpt>
<trkpt lat="45.7514750" lon="9.9721370">
	<ele>1224.40</ele>
	<time>2023-04-15T09:46:04.000Z</time>
</trkpt>
<trkpt lat="45.7514370" lon="9.9721840">
	<ele>1224.20</ele>
	<time>2023-04-15T09:46:08.000Z</time>
</trkpt>
<trkpt lat="45.7513750" lon="9.9722410">
	<ele>1223.80</ele>
	<time>2023-04-15T09:46:13.000Z</time>
</trkpt>
<trkpt lat="45.7513530" lon="9.9722780">
	<ele>1223.80</ele>
	<time>2023-04-15T09:46:15.000Z</time>
</trkpt>
<trkpt lat="45.7513480" lon="9.9722940">
	<ele>1223.80</ele>
	<time>2023-04-15T09:46:16.000Z</time>
</trkpt>
<trkpt lat="45.7513060" lon="9.9723490">
	<ele>1223.40</ele>
	<time>2023-04-15T09:46:21.000Z</time>
</trkpt>
<trkpt lat="45.7512680" lon="9.9723810">
	<ele>1223.40</ele>
	<time>2023-04-15T09:46:24.000Z</time>
</trkpt>
<trkpt lat="45.7512290" lon="9.9724230">
	<ele>1223.20</ele>
	<time>2023-04-15T09:46:28.000Z</time>
</trkpt>
<trkpt lat="45.7512000" lon="9.9724520">
	<ele>1222.80</ele>
	<time>2023-04-15T09:46:31.000Z</time>
</trkpt>
<trkpt lat="45.7511140" lon="9.9725380">
	<ele>1222.20</ele>
	<time>2023-04-15T09:46:39.000Z</time>
</trkpt>
<trkpt lat="45.7511060" lon="9.9725460">
	<ele>1222.20</ele>
	<time>2023-04-15T09:46:40.000Z</time>
</trkpt>
<trkpt lat="45.7510750" lon="9.9725730">
	<ele>1222.00</ele>
	<time>2023-04-15T09:46:43.000Z</time>
</trkpt>
<trkpt lat="45.7510480" lon="9.9725870">
	<ele>1221.60</ele>
	<time>2023-04-15T09:46:45.000Z</time>
</trkpt>
<trkpt lat="45.7509870" lon="9.9726750">
	<ele>1221.40</ele>
	<time>2023-04-15T09:46:52.000Z</time>
</trkpt>
<trkpt lat="45.7509020" lon="9.9727390">
	<ele>1220.60</ele>
	<time>2023-04-15T09:46:59.000Z</time>
</trkpt>
<trkpt lat="45.7508800" lon="9.9727620">
	<ele>1220.60</ele>
	<time>2023-04-15T09:47:01.000Z</time>
</trkpt>
<trkpt lat="45.7508720" lon="9.9727710">
	<ele>1220.60</ele>
	<time>2023-04-15T09:47:02.000Z</time>
</trkpt>
<trkpt lat="45.7508490" lon="9.9727890">
	<ele>1220.40</ele>
	<time>2023-04-15T09:47:04.000Z</time>
</trkpt>
<trkpt lat="45.7508150" lon="9.9728260">
	<ele>1220.00</ele>
	<time>2023-04-15T09:47:07.000Z</time>
</trkpt>
<trkpt lat="45.7507440" lon="9.9729020">
	<ele>1219.80</ele>
	<time>2023-04-15T09:47:14.000Z</time>
</trkpt>
<trkpt lat="45.7507370" lon="9.9729140">
	<ele>1219.80</ele>
	<time>2023-04-15T09:47:15.000Z</time>
</trkpt>
<trkpt lat="45.7506810" lon="9.9729610">
	<ele>1219.40</ele>
	<time>2023-04-15T09:47:20.000Z</time>
</trkpt>
<trkpt lat="45.7506610" lon="9.9729840">
	<ele>1219.40</ele>
	<time>2023-04-15T09:47:22.000Z</time>
</trkpt>
<trkpt lat="45.7506130" lon="9.9730330">
	<ele>1219.00</ele>
	<time>2023-04-15T09:47:27.000Z</time>
</trkpt>
<trkpt lat="45.7505740" lon="9.9730590">
	<ele>1218.80</ele>
	<time>2023-04-15T09:47:30.000Z</time>
</trkpt>
<trkpt lat="45.7505590" lon="9.9730840">
	<ele>1219.00</ele>
	<time>2023-04-15T09:47:36.000Z</time>
</trkpt>
<trkpt lat="45.7505480" lon="9.9731150">
	<ele>1218.40</ele>
	<time>2023-04-15T09:47:42.000Z</time>
</trkpt>
<trkpt lat="45.7505330" lon="9.9731440">
	<ele>1218.20</ele>
	<time>2023-04-15T09:47:44.000Z</time>
</trkpt>
<trkpt lat="45.7504810" lon="9.9732020">
	<ele>1217.80</ele>
	<time>2023-04-15T09:47:50.000Z</time>
</trkpt>
<trkpt lat="45.7504330" lon="9.9733020">
	<ele>1217.40</ele>
	<time>2023-04-15T09:47:57.000Z</time>
</trkpt>
<trkpt lat="45.7504270" lon="9.9733150">
	<ele>1217.20</ele>
	<time>2023-04-15T09:47:58.000Z</time>
</trkpt>
<trkpt lat="45.7504080" lon="9.9733530">
	<ele>1217.00</ele>
	<time>2023-04-15T09:48:01.000Z</time>
</trkpt>
<trkpt lat="45.7503730" lon="9.9733940">
	<ele>1216.80</ele>
	<time>2023-04-15T09:48:05.000Z</time>
</trkpt>
<trkpt lat="45.7503120" lon="9.9734990">
	<ele>1216.60</ele>
	<time>2023-04-15T09:48:12.000Z</time>
</trkpt>
<trkpt lat="45.7503090" lon="9.9735180">
	<ele>1216.60</ele>
	<time>2023-04-15T09:48:13.000Z</time>
</trkpt>
<trkpt lat="45.7502920" lon="9.9736010">
	<ele>1216.40</ele>
	<time>2023-04-15T09:48:18.000Z</time>
</trkpt>
<trkpt lat="45.7502890" lon="9.9736160">
	<ele>1216.20</ele>
	<time>2023-04-15T09:48:19.000Z</time>
</trkpt>
<trkpt lat="45.7502750" lon="9.9737500">
	<ele>1216.00</ele>
	<time>2023-04-15T09:48:26.000Z</time>
</trkpt>
<trkpt lat="45.7502680" lon="9.9737660">
	<ele>1215.60</ele>
	<time>2023-04-15T09:48:27.000Z</time>
</trkpt>
<trkpt lat="45.7502570" lon="9.9737950">
	<ele>1215.20</ele>
	<time>2023-04-15T09:48:29.000Z</time>
</trkpt>
<trkpt lat="45.7502500" lon="9.9738550">
	<ele>1214.20</ele>
	<time>2023-04-15T09:48:33.000Z</time>
</trkpt>
<trkpt lat="45.7502500" lon="9.9739310">
	<ele>1213.60</ele>
	<time>2023-04-15T09:48:37.000Z</time>
</trkpt>
<trkpt lat="45.7502390" lon="9.9739970">
	<ele>1213.00</ele>
	<time>2023-04-15T09:48:40.000Z</time>
</trkpt>
<trkpt lat="45.7502380" lon="9.9740400">
	<ele>1212.80</ele>
	<time>2023-04-15T09:48:42.000Z</time>
</trkpt>
<trkpt lat="45.7502210" lon="9.9741600">
	<ele>1212.00</ele>
	<time>2023-04-15T09:48:48.000Z</time>
</trkpt>
<trkpt lat="45.7502050" lon="9.9742360">
	<ele>1211.20</ele>
	<time>2023-04-15T09:48:53.000Z</time>
</trkpt>
<trkpt lat="45.7502030" lon="9.9742430">
	<ele>1211.00</ele>
	<time>2023-04-15T09:48:54.000Z</time>
</trkpt>
<trkpt lat="45.7502040" lon="9.9742510">
	<ele>1211.00</ele>
	<time>2023-04-15T09:48:56.000Z</time>
</trkpt>
<trkpt lat="45.7502030" lon="9.9742610">
	<ele>1210.80</ele>
	<time>2023-04-15T09:48:58.000Z</time>
</trkpt>
<trkpt lat="45.7502030" lon="9.9742800">
	<ele>1211.00</ele>
	<time>2023-04-15T09:49:03.000Z</time>
</trkpt>
<trkpt lat="45.7502040" lon="9.9742760">
	<ele>1210.80</ele>
	<time>2023-04-15T09:49:06.000Z</time>
</trkpt>
<trkpt lat="45.7502060" lon="9.9742810">
	<ele>1210.40</ele>
	<time>2023-04-15T09:49:07.000Z</time>
</trkpt>
<trkpt lat="45.7502050" lon="9.9742840">
	<ele>1210.20</ele>
	<time>2023-04-15T09:49:08.000Z</time>
</trkpt>
<trkpt lat="45.7502060" lon="9.9742970">
	<ele>1210.00</ele>
	<time>2023-04-15T09:49:10.000Z</time>
</trkpt>
<trkpt lat="45.7502100" lon="9.9743150">
	<ele>1209.80</ele>
	<time>2023-04-15T09:49:14.000Z</time>
</trkpt>
<trkpt lat="45.7502210" lon="9.9743220">
	<ele>1210.00</ele>
	<time>2023-04-15T09:49:22.000Z</time>
</trkpt>
<trkpt lat="45.7502220" lon="9.9743280">
	<ele>1210.20</ele>
	<time>2023-04-15T09:49:31.000Z</time>
</trkpt>
<trkpt lat="45.7501990" lon="9.9744120">
	<ele>1209.60</ele>
	<time>2023-04-15T09:49:41.000Z</time>
</trkpt>
<trkpt lat="45.7501980" lon="9.9744480">
	<ele>1209.20</ele>
	<time>2023-04-15T09:49:43.000Z</time>
</trkpt>
<trkpt lat="45.7501910" lon="9.9744900">
	<ele>1208.80</ele>
	<time>2023-04-15T09:49:45.000Z</time>
</trkpt>
<trkpt lat="45.7501740" lon="9.9745550">
	<ele>1208.40</ele>
	<time>2023-04-15T09:49:49.000Z</time>
</trkpt>
<trkpt lat="45.7501700" lon="9.9745830">
	<ele>1208.00</ele>
	<time>2023-04-15T09:49:51.000Z</time>
</trkpt>
<trkpt lat="45.7501680" lon="9.9746100">
	<ele>1207.80</ele>
	<time>2023-04-15T09:49:53.000Z</time>
</trkpt>
<trkpt lat="45.7501640" lon="9.9746450">
	<ele>1207.20</ele>
	<time>2023-04-15T09:49:56.000Z</time>
</trkpt>
<trkpt lat="45.7501460" lon="9.9747260">
	<ele>1206.80</ele>
	<time>2023-04-15T09:50:02.000Z</time>
</trkpt>
<trkpt lat="45.7501410" lon="9.9747530">
	<ele>1206.40</ele>
	<time>2023-04-15T09:50:04.000Z</time>
</trkpt>
<trkpt lat="45.7501440" lon="9.9747660">
	<ele>1206.40</ele>
	<time>2023-04-15T09:50:05.000Z</time>
</trkpt>
<trkpt lat="45.7501340" lon="9.9748040">
	<ele>1206.20</ele>
	<time>2023-04-15T09:50:07.000Z</time>
</trkpt>
<trkpt lat="45.7501250" lon="9.9748410">
	<ele>1205.80</ele>
	<time>2023-04-15T09:50:09.000Z</time>
</trkpt>
<trkpt lat="45.7500850" lon="9.9749470">
	<ele>1204.60</ele>
	<time>2023-04-15T09:50:16.000Z</time>
</trkpt>
<trkpt lat="45.7500740" lon="9.9749930">
	<ele>1204.40</ele>
	<time>2023-04-15T09:50:19.000Z</time>
</trkpt>
<trkpt lat="45.7500610" lon="9.9750380">
	<ele>1203.60</ele>
	<time>2023-04-15T09:50:22.000Z</time>
</trkpt>
<trkpt lat="45.7500310" lon="9.9751020">
	<ele>1202.80</ele>
	<time>2023-04-15T09:50:26.000Z</time>
</trkpt>
<trkpt lat="45.7500200" lon="9.9751180">
	<ele>1202.60</ele>
	<time>2023-04-15T09:50:27.000Z</time>
</trkpt>
<trkpt lat="45.7500040" lon="9.9751530">
	<ele>1202.40</ele>
	<time>2023-04-15T09:50:29.000Z</time>
</trkpt>
<trkpt lat="45.7499880" lon="9.9752010">
	<ele>1201.60</ele>
	<time>2023-04-15T09:50:32.000Z</time>
</trkpt>
<trkpt lat="45.7499820" lon="9.9752440">
	<ele>1201.00</ele>
	<time>2023-04-15T09:50:35.000Z</time>
</trkpt>
<trkpt lat="45.7499750" lon="9.9752720">
	<ele>1200.80</ele>
	<time>2023-04-15T09:50:37.000Z</time>
</trkpt>
<trkpt lat="45.7499700" lon="9.9753090">
	<ele>1200.60</ele>
	<time>2023-04-15T09:50:40.000Z</time>
</trkpt>
<trkpt lat="45.7499680" lon="9.9753120">
	<ele>1200.40</ele>
	<time>2023-04-15T09:50:41.000Z</time>
</trkpt>
<trkpt lat="45.7499690" lon="9.9753130">
	<ele>1200.20</ele>
	<time>2023-04-15T09:50:42.000Z</time>
</trkpt>
<trkpt lat="45.7499730" lon="9.9753150">
	<ele>1200.20</ele>
	<time>2023-04-15T09:50:54.000Z</time>
</trkpt>
<trkpt lat="45.7499620" lon="9.9753300">
	<ele>1199.40</ele>
	<time>2023-04-15T09:51:01.000Z</time>
</trkpt>
<trkpt lat="45.7499300" lon="9.9753740">
	<ele>1198.80</ele>
	<time>2023-04-15T09:51:04.000Z</time>
</trkpt>
<trkpt lat="45.7498870" lon="9.9754340">
	<ele>1198.20</ele>
	<time>2023-04-15T09:51:08.000Z</time>
</trkpt>
<trkpt lat="45.7498590" lon="9.9754850">
	<ele>1197.60</ele>
	<time>2023-04-15T09:51:12.000Z</time>
</trkpt>
<trkpt lat="45.7498280" lon="9.9755350">
	<ele>1197.00</ele>
	<time>2023-04-15T09:51:16.000Z</time>
</trkpt>
<trkpt lat="45.7497860" lon="9.9755980">
	<ele>1196.00</ele>
	<time>2023-04-15T09:51:22.000Z</time>
</trkpt>
<trkpt lat="45.7497100" lon="9.9756860">
	<ele>1194.60</ele>
	<time>2023-04-15T09:51:30.000Z</time>
</trkpt>
<trkpt lat="45.7496930" lon="9.9757060">
	<ele>1194.00</ele>
	<time>2023-04-15T09:51:32.000Z</time>
</trkpt>
<trkpt lat="45.7496860" lon="9.9757180">
	<ele>1193.60</ele>
	<time>2023-04-15T09:51:33.000Z</time>
</trkpt>
<trkpt lat="45.7496810" lon="9.9757340">
	<ele>1193.40</ele>
	<time>2023-04-15T09:51:34.000Z</time>
</trkpt>
<trkpt lat="45.7496570" lon="9.9757940">
	<ele>1193.00</ele>
	<time>2023-04-15T09:51:39.000Z</time>
</trkpt>
<trkpt lat="45.7496330" lon="9.9758480">
	<ele>1192.60</ele>
	<time>2023-04-15T09:51:44.000Z</time>
</trkpt>
<trkpt lat="45.7496300" lon="9.9758600">
	<ele>1192.40</ele>
	<time>2023-04-15T09:51:45.000Z</time>
</trkpt>
<trkpt lat="45.7496230" lon="9.9758750">
	<ele>1192.40</ele>
	<time>2023-04-15T09:51:46.000Z</time>
</trkpt>
<trkpt lat="45.7495790" lon="9.9759540">
	<ele>1191.60</ele>
	<time>2023-04-15T09:51:52.000Z</time>
</trkpt>
<trkpt lat="45.7495530" lon="9.9759960">
	<ele>1191.40</ele>
	<time>2023-04-15T09:51:55.000Z</time>
</trkpt>
<trkpt lat="45.7495460" lon="9.9760050">
	<ele>1191.20</ele>
	<time>2023-04-15T09:51:56.000Z</time>
</trkpt>
<trkpt lat="45.7494840" lon="9.9760920">
	<ele>1190.40</ele>
	<time>2023-04-15T09:52:02.000Z</time>
</trkpt>
<trkpt lat="45.7494660" lon="9.9761180">
	<ele>1190.20</ele>
	<time>2023-04-15T09:52:04.000Z</time>
</trkpt>
<trkpt lat="45.7494270" lon="9.9761700">
	<ele>1190.20</ele>
	<time>2023-04-15T09:52:08.000Z</time>
</trkpt>
<trkpt lat="45.7493640" lon="9.9762690">
	<ele>1189.20</ele>
	<time>2023-04-15T09:52:16.000Z</time>
</trkpt>
<trkpt lat="45.7493420" lon="9.9762940">
	<ele>1189.00</ele>
	<time>2023-04-15T09:52:18.000Z</time>
</trkpt>
<trkpt lat="45.7492520" lon="9.9763970">
	<ele>1188.40</ele>
	<time>2023-04-15T09:52:28.000Z</time>
</trkpt>
<trkpt lat="45.7492200" lon="9.9764090">
	<ele>1188.20</ele>
	<time>2023-04-15T09:52:31.000Z</time>
</trkpt>
<trkpt lat="45.7491980" lon="9.9764130">
	<ele>1187.80</ele>
	<time>2023-04-15T09:52:33.000Z</time>
</trkpt>
<trkpt lat="45.7491680" lon="9.9764350">
	<ele>1187.40</ele>
	<time>2023-04-15T09:52:36.000Z</time>
</trkpt>
<trkpt lat="45.7491480" lon="9.9764530">
	<ele>1187.20</ele>
	<time>2023-04-15T09:52:38.000Z</time>
</trkpt>
<trkpt lat="45.7491150" lon="9.9764650">
	<ele>1186.60</ele>
	<time>2023-04-15T09:52:41.000Z</time>
</trkpt>
<trkpt lat="45.7490820" lon="9.9764790">
	<ele>1186.40</ele>
	<time>2023-04-15T09:52:44.000Z</time>
</trkpt>
<trkpt lat="45.7490580" lon="9.9764950">
	<ele>1186.20</ele>
	<time>2023-04-15T09:52:46.000Z</time>
</trkpt>
<trkpt lat="45.7490190" lon="9.9765330">
	<ele>1185.40</ele>
	<time>2023-04-15T09:52:50.000Z</time>
</trkpt>
<trkpt lat="45.7490150" lon="9.9765440">
	<ele>1185.20</ele>
	<time>2023-04-15T09:52:51.000Z</time>
</trkpt>
<trkpt lat="45.7490080" lon="9.9765600">
	<ele>1185.00</ele>
	<time>2023-04-15T09:52:52.000Z</time>
</trkpt>
<trkpt lat="45.7489530" lon="9.9766170">
	<ele>1184.40</ele>
	<time>2023-04-15T09:52:57.000Z</time>
</trkpt>
<trkpt lat="45.7489310" lon="9.9766350">
	<ele>1184.20</ele>
	<time>2023-04-15T09:53:00.000Z</time>
</trkpt>
<trkpt lat="45.7489230" lon="9.9766390">
	<ele>1184.00</ele>
	<time>2023-04-15T09:53:01.000Z</time>
</trkpt>
<trkpt lat="45.7489160" lon="9.9766430">
	<ele>1183.80</ele>
	<time>2023-04-15T09:53:02.000Z</time>
</trkpt>
<trkpt lat="45.7489050" lon="9.9766510">
	<ele>1183.60</ele>
	<time>2023-04-15T09:53:04.000Z</time>
</trkpt>
<trkpt lat="45.7488970" lon="9.9766570">
	<ele>1183.40</ele>
	<time>2023-04-15T09:53:06.000Z</time>
</trkpt>
<trkpt lat="45.7488710" lon="9.9766910">
	<ele>1183.40</ele>
	<time>2023-04-15T09:53:08.000Z</time>
</trkpt>
<trkpt lat="45.7488220" lon="9.9767210">
	<ele>1182.60</ele>
	<time>2023-04-15T09:53:11.000Z</time>
</trkpt>
<trkpt lat="45.7487990" lon="9.9767440">
	<ele>1182.20</ele>
	<time>2023-04-15T09:53:13.000Z</time>
</trkpt>
<trkpt lat="45.7487500" lon="9.9767720">
	<ele>1182.00</ele>
	<time>2023-04-15T09:53:17.000Z</time>
</trkpt>
<trkpt lat="45.7486990" lon="9.9768040">
	<ele>1181.80</ele>
	<time>2023-04-15T09:53:21.000Z</time>
</trkpt>
<trkpt lat="45.7486880" lon="9.9768090">
	<ele>1181.60</ele>
	<time>2023-04-15T09:53:22.000Z</time>
</trkpt>
<trkpt lat="45.7486140" lon="9.9768610">
	<ele>1180.60</ele>
	<time>2023-04-15T09:53:30.000Z</time>
</trkpt>
<trkpt lat="45.7485200" lon="9.9769280">
	<ele>1180.00</ele>
	<time>2023-04-15T09:53:39.000Z</time>
</trkpt>
<trkpt lat="45.7484720" lon="9.9769580">
	<ele>1179.60</ele>
	<time>2023-04-15T09:53:43.000Z</time>
</trkpt>
<trkpt lat="45.7484160" lon="9.9770150">
	<ele>1178.60</ele>
	<time>2023-04-15T09:53:49.000Z</time>
</trkpt>
<trkpt lat="45.7484030" lon="9.9770220">
	<ele>1178.60</ele>
	<time>2023-04-15T09:53:50.000Z</time>
</trkpt>
<trkpt lat="45.7483210" lon="9.9770770">
	<ele>1177.40</ele>
	<time>2023-04-15T09:53:57.000Z</time>
</trkpt>
<trkpt lat="45.7482820" lon="9.9771040">
	<ele>1176.80</ele>
	<time>2023-04-15T09:54:01.000Z</time>
</trkpt>
<trkpt lat="45.7482640" lon="9.9771180">
	<ele>1176.40</ele>
	<time>2023-04-15T09:54:03.000Z</time>
</trkpt>
<trkpt lat="45.7482060" lon="9.9771490">
	<ele>1175.00</ele>
	<time>2023-04-15T09:54:09.000Z</time>
</trkpt>
<trkpt lat="45.7481890" lon="9.9771530">
	<ele>1174.80</ele>
	<time>2023-04-15T09:54:11.000Z</time>
</trkpt>
<trkpt lat="45.7481340" lon="9.9771710">
	<ele>1173.80</ele>
	<time>2023-04-15T09:54:16.000Z</time>
</trkpt>
<trkpt lat="45.7480860" lon="9.9772070">
	<ele>1173.00</ele>
	<time>2023-04-15T09:54:20.000Z</time>
</trkpt>
<trkpt lat="45.7480560" lon="9.9772270">
	<ele>1172.60</ele>
	<time>2023-04-15T09:54:23.000Z</time>
</trkpt>
<trkpt lat="45.7479830" lon="9.9772780">
	<ele>1171.60</ele>
	<time>2023-04-15T09:54:30.000Z</time>
</trkpt>
<trkpt lat="45.7479430" lon="9.9772980">
	<ele>1171.20</ele>
	<time>2023-04-15T09:54:34.000Z</time>
</trkpt>
<trkpt lat="45.7478820" lon="9.9773460">
	<ele>1170.60</ele>
	<time>2023-04-15T09:54:40.000Z</time>
</trkpt>
<trkpt lat="45.7478590" lon="9.9773640">
	<ele>1170.40</ele>
	<time>2023-04-15T09:54:42.000Z</time>
</trkpt>
<trkpt lat="45.7477570" lon="9.9774190">
	<ele>1170.00</ele>
	<time>2023-04-15T09:54:52.000Z</time>
</trkpt>
<trkpt lat="45.7476680" lon="9.9774690">
	<ele>1170.00</ele>
	<time>2023-04-15T09:55:01.000Z</time>
</trkpt>
<trkpt lat="45.7475500" lon="9.9775090">
	<ele>1170.20</ele>
	<time>2023-04-15T09:55:10.000Z</time>
</trkpt>
<trkpt lat="45.7474570" lon="9.9775500">
	<ele>1170.60</ele>
	<time>2023-04-15T09:55:19.000Z</time>
</trkpt>
<trkpt lat="45.7474250" lon="9.9775660">
	<ele>1171.00</ele>
	<time>2023-04-15T09:55:24.000Z</time>
</trkpt>
<trkpt lat="45.7474080" lon="9.9775670">
	<ele>1171.00</ele>
	<time>2023-04-15T09:55:26.000Z</time>
</trkpt>
<trkpt lat="45.7473870" lon="9.9775710">
	<ele>1171.40</ele>
	<time>2023-04-15T09:55:28.000Z</time>
</trkpt>
<trkpt lat="45.7473590" lon="9.9775890">
	<ele>1171.60</ele>
	<time>2023-04-15T09:55:31.000Z</time>
</trkpt>
<trkpt lat="45.7473580" lon="9.9775940">
	<ele>1171.60</ele>
	<time>2023-04-15T09:55:32.000Z</time>
</trkpt>
<trkpt lat="45.7473480" lon="9.9775960">
	<ele>1172.00</ele>
	<time>2023-04-15T09:55:34.000Z</time>
</trkpt>
<trkpt lat="45.7473380" lon="9.9776030">
	<ele>1172.00</ele>
	<time>2023-04-15T09:55:35.000Z</time>
</trkpt>
<trkpt lat="45.7473230" lon="9.9776260">
	<ele>1172.00</ele>
	<time>2023-04-15T09:55:37.000Z</time>
</trkpt>
<trkpt lat="45.7472990" lon="9.9776340">
	<ele>1172.20</ele>
	<time>2023-04-15T09:55:40.000Z</time>
</trkpt>
<trkpt lat="45.7472870" lon="9.9776270">
	<ele>1172.60</ele>
	<time>2023-04-15T09:55:45.000Z</time>
</trkpt>
<trkpt lat="45.7472800" lon="9.9776170">
	<ele>1173.00</ele>
	<time>2023-04-15T09:55:48.000Z</time>
</trkpt>
<trkpt lat="45.7472730" lon="9.9776160">
	<ele>1173.20</ele>
	<time>2023-04-15T09:55:52.000Z</time>
</trkpt>
<trkpt lat="45.7472770" lon="9.9776330">
	<ele>1172.60</ele>
	<time>2023-04-15T09:55:56.000Z</time>
</trkpt>
<trkpt lat="45.7472330" lon="9.9776840">
	<ele>1172.80</ele>
	<time>2023-04-15T09:56:03.000Z</time>
</trkpt>
<trkpt lat="45.7472080" lon="9.9777350">
	<ele>1173.00</ele>
	<time>2023-04-15T09:56:08.000Z</time>
</trkpt>
<trkpt lat="45.7472010" lon="9.9777490">
	<ele>1173.00</ele>
	<time>2023-04-15T09:56:10.000Z</time>
</trkpt>
<trkpt lat="45.7471610" lon="9.9778200">
	<ele>1173.20</ele>
	<time>2023-04-15T09:56:15.000Z</time>
</trkpt>
<trkpt lat="45.7471490" lon="9.9778300">
	<ele>1173.20</ele>
	<time>2023-04-15T09:56:16.000Z</time>
</trkpt>
<trkpt lat="45.7470670" lon="9.9779060">
	<ele>1173.60</ele>
	<time>2023-04-15T09:56:23.000Z</time>
</trkpt>
<trkpt lat="45.7470310" lon="9.9779540">
	<ele>1173.60</ele>
	<time>2023-04-15T09:56:28.000Z</time>
</trkpt>
<trkpt lat="45.7470050" lon="9.9779650">
	<ele>1173.60</ele>
	<time>2023-04-15T09:56:30.000Z</time>
</trkpt>
<trkpt lat="45.7469820" lon="9.9779840">
	<ele>1173.60</ele>
	<time>2023-04-15T09:56:32.000Z</time>
</trkpt>
<trkpt lat="45.7469670" lon="9.9779920">
	<ele>1173.60</ele>
	<time>2023-04-15T09:56:33.000Z</time>
</trkpt>
<trkpt lat="45.7469410" lon="9.9780210">
	<ele>1173.60</ele>
	<time>2023-04-15T09:56:36.000Z</time>
</trkpt>
<trkpt lat="45.7468750" lon="9.9781060">
	<ele>1173.60</ele>
	<time>2023-04-15T09:56:43.000Z</time>
</trkpt>
<trkpt lat="45.7468180" lon="9.9781620">
	<ele>1173.80</ele>
	<time>2023-04-15T09:56:49.000Z</time>
</trkpt>
<trkpt lat="45.7467260" lon="9.9782390">
	<ele>1173.60</ele>
	<time>2023-04-15T09:56:55.000Z</time>
</trkpt>
<trkpt lat="45.7466890" lon="9.9782860">
	<ele>1173.40</ele>
	<time>2023-04-15T09:56:59.000Z</time>
</trkpt>
<trkpt lat="45.7466680" lon="9.9783120">
	<ele>1173.20</ele>
	<time>2023-04-15T09:57:03.000Z</time>
</trkpt>
<trkpt lat="45.7466570" lon="9.9783300">
	<ele>1173.20</ele>
	<time>2023-04-15T09:57:05.000Z</time>
</trkpt>
<trkpt lat="45.7466340" lon="9.9783490">
	<ele>1173.20</ele>
	<time>2023-04-15T09:57:07.000Z</time>
</trkpt>
<trkpt lat="45.7465710" lon="9.9784020">
	<ele>1173.00</ele>
	<time>2023-04-15T09:57:12.000Z</time>
</trkpt>
<trkpt lat="45.7465030" lon="9.9784200">
	<ele>1172.60</ele>
	<time>2023-04-15T09:57:17.000Z</time>
</trkpt>
<trkpt lat="45.7464720" lon="9.9784360">
	<ele>1172.00</ele>
	<time>2023-04-15T09:57:20.000Z</time>
</trkpt>
<trkpt lat="45.7464500" lon="9.9784390">
	<ele>1171.40</ele>
	<time>2023-04-15T09:57:22.000Z</time>
</trkpt>
<trkpt lat="45.7464040" lon="9.9784520">
	<ele>1170.40</ele>
	<time>2023-04-15T09:57:26.000Z</time>
</trkpt>
<trkpt lat="45.7462850" lon="9.9785190">
	<ele>1169.40</ele>
	<time>2023-04-15T09:57:36.000Z</time>
</trkpt>
<trkpt lat="45.7462770" lon="9.9785200">
	<ele>1169.00</ele>
	<time>2023-04-15T09:57:37.000Z</time>
</trkpt>
<trkpt lat="45.7462050" lon="9.9785700">
	<ele>1168.00</ele>
	<time>2023-04-15T09:57:43.000Z</time>
</trkpt>
<trkpt lat="45.7461110" lon="9.9786560">
	<ele>1167.20</ele>
	<time>2023-04-15T09:57:51.000Z</time>
</trkpt>
<trkpt lat="45.7460150" lon="9.9787320">
	<ele>1167.00</ele>
	<time>2023-04-15T09:57:57.000Z</time>
</trkpt>
<trkpt lat="45.7459920" lon="9.9787550">
	<ele>1167.00</ele>
	<time>2023-04-15T09:57:59.000Z</time>
</trkpt>
<trkpt lat="45.7459290" lon="9.9788090">
	<ele>1166.60</ele>
	<time>2023-04-15T09:58:07.000Z</time>
</trkpt>
<trkpt lat="45.7458210" lon="9.9789020">
	<ele>1166.80</ele>
	<time>2023-04-15T09:58:16.000Z</time>
</trkpt>
<trkpt lat="45.7456870" lon="9.9789670">
	<ele>1166.80</ele>
	<time>2023-04-15T09:58:26.000Z</time>
</trkpt>
<trkpt lat="45.7455570" lon="9.9790640">
	<ele>1166.60</ele>
	<time>2023-04-15T09:58:35.000Z</time>
</trkpt>
<trkpt lat="45.7455310" lon="9.9790860">
	<ele>1166.00</ele>
	<time>2023-04-15T09:58:38.000Z</time>
</trkpt>
<trkpt lat="45.7455230" lon="9.9790950">
	<ele>1166.00</ele>
	<time>2023-04-15T09:58:39.000Z</time>
</trkpt>
<trkpt lat="45.7455000" lon="9.9791010">
	<ele>1165.80</ele>
	<time>2023-04-15T09:58:41.000Z</time>
</trkpt>
<trkpt lat="45.7454600" lon="9.9791250">
	<ele>1165.40</ele>
	<time>2023-04-15T09:58:45.000Z</time>
</trkpt>
<trkpt lat="45.7454440" lon="9.9791360">
	<ele>1165.00</ele>
	<time>2023-04-15T09:58:47.000Z</time>
</trkpt>
<trkpt lat="45.7454350" lon="9.9791400">
	<ele>1164.80</ele>
	<time>2023-04-15T09:58:48.000Z</time>
</trkpt>
<trkpt lat="45.7453810" lon="9.9791790">
	<ele>1163.80</ele>
	<time>2023-04-15T09:58:53.000Z</time>
</trkpt>
<trkpt lat="45.7453400" lon="9.9791970">
	<ele>1163.40</ele>
	<time>2023-04-15T09:58:56.000Z</time>
</trkpt>
<trkpt lat="45.7452820" lon="9.9792700">
	<ele>1162.60</ele>
	<time>2023-04-15T09:59:02.000Z</time>
</trkpt>
<trkpt lat="45.7452740" lon="9.9792760">
	<ele>1162.40</ele>
	<time>2023-04-15T09:59:03.000Z</time>
</trkpt>
<trkpt lat="45.7451970" lon="9.9793510">
	<ele>1161.60</ele>
	<time>2023-04-15T09:59:10.000Z</time>
</trkpt>
<trkpt lat="45.7451540" lon="9.9793790">
	<ele>1161.40</ele>
	<time>2023-04-15T09:59:13.000Z</time>
</trkpt>
<trkpt lat="45.7451380" lon="9.9794050">
	<ele>1161.20</ele>
	<time>2023-04-15T09:59:15.000Z</time>
</trkpt>
<trkpt lat="45.7451060" lon="9.9794580">
	<ele>1160.60</ele>
	<time>2023-04-15T09:59:19.000Z</time>
</trkpt>
<trkpt lat="45.7451000" lon="9.9794690">
	<ele>1160.60</ele>
	<time>2023-04-15T09:59:20.000Z</time>
</trkpt>
<trkpt lat="45.7450170" lon="9.9795530">
	<ele>1160.60</ele>
	<time>2023-04-15T09:59:27.000Z</time>
</trkpt>
<trkpt lat="45.7449870" lon="9.9795920">
	<ele>1160.20</ele>
	<time>2023-04-15T09:59:31.000Z</time>
</trkpt>
<trkpt lat="45.7449610" lon="9.9796290">
	<ele>1160.20</ele>
	<time>2023-04-15T09:59:34.000Z</time>
</trkpt>
<trkpt lat="45.7448980" lon="9.9796960">
	<ele>1160.40</ele>
	<time>2023-04-15T09:59:40.000Z</time>
</trkpt>
<trkpt lat="45.7448600" lon="9.9797570">
	<ele>1160.20</ele>
	<time>2023-04-15T09:59:43.000Z</time>
</trkpt>
<trkpt lat="45.7448420" lon="9.9797980">
	<ele>1160.20</ele>
	<time>2023-04-15T09:59:46.000Z</time>
</trkpt>
<trkpt lat="45.7448090" lon="9.9798560">
	<ele>1160.40</ele>
	<time>2023-04-15T09:59:50.000Z</time>
</trkpt>
<trkpt lat="45.7447450" lon="9.9799730">
	<ele>1160.60</ele>
	<time>2023-04-15T09:59:58.000Z</time>
</trkpt>
<trkpt lat="45.7446840" lon="9.9800600">
	<ele>1160.80</ele>
	<time>2023-04-15T10:00:04.000Z</time>
</trkpt>
<trkpt lat="45.7446440" lon="9.9801060">
	<ele>1161.00</ele>
	<time>2023-04-15T10:00:08.000Z</time>
</trkpt>
<trkpt lat="45.7445560" lon="9.9801830">
	<ele>1161.20</ele>
	<time>2023-04-15T10:00:16.000Z</time>
</trkpt>
<trkpt lat="45.7445240" lon="9.9802150">
	<ele>1161.20</ele>
	<time>2023-04-15T10:00:19.000Z</time>
</trkpt>
<trkpt lat="45.7444260" lon="9.9803200">
	<ele>1160.40</ele>
	<time>2023-04-15T10:00:29.000Z</time>
</trkpt>
<trkpt lat="45.7443560" lon="9.9803890">
	<ele>1159.80</ele>
	<time>2023-04-15T10:00:37.000Z</time>
</trkpt>
<trkpt lat="45.7442970" lon="9.9804370">
	<ele>1159.60</ele>
	<time>2023-04-15T10:00:42.000Z</time>
</trkpt>
<trkpt lat="45.7442490" lon="9.9804650">
	<ele>1159.40</ele>
	<time>2023-04-15T10:00:46.000Z</time>
</trkpt>
<trkpt lat="45.7442180" lon="9.9804810">
	<ele>1159.00</ele>
	<time>2023-04-15T10:00:49.000Z</time>
</trkpt>
<trkpt lat="45.7441730" lon="9.9805010">
	<ele>1158.80</ele>
	<time>2023-04-15T10:00:54.000Z</time>
</trkpt>
<trkpt lat="45.7441390" lon="9.9805120">
	<ele>1159.00</ele>
	<time>2023-04-15T10:00:57.000Z</time>
</trkpt>
<trkpt lat="45.7441150" lon="9.9805180">
	<ele>1159.00</ele>
	<time>2023-04-15T10:00:59.000Z</time>
</trkpt>
<trkpt lat="45.7440950" lon="9.9805300">
	<ele>1159.00</ele>
	<time>2023-04-15T10:01:01.000Z</time>
</trkpt>
<trkpt lat="45.7440340" lon="9.9805820">
	<ele>1158.80</ele>
	<time>2023-04-15T10:01:09.000Z</time>
</trkpt>
<trkpt lat="45.7439920" lon="9.9805820">
	<ele>1158.80</ele>
	<time>2023-04-15T10:01:12.000Z</time>
</trkpt>
<trkpt lat="45.7439470" lon="9.9805990">
	<ele>1158.60</ele>
	<time>2023-04-15T10:01:15.000Z</time>
</trkpt>
<trkpt lat="45.7439370" lon="9.9806090">
	<ele>1158.40</ele>
	<time>2023-04-15T10:01:16.000Z</time>
</trkpt>
<trkpt lat="45.7438760" lon="9.9806400">
	<ele>1158.40</ele>
	<time>2023-04-15T10:01:23.000Z</time>
</trkpt>
<trkpt lat="45.7437860" lon="9.9806740">
	<ele>1157.80</ele>
	<time>2023-04-15T10:01:30.000Z</time>
</trkpt>
<trkpt lat="45.7436880" lon="9.9806980">
	<ele>1157.80</ele>
	<time>2023-04-15T10:01:36.000Z</time>
</trkpt>
<trkpt lat="45.7436320" lon="9.9807020">
	<ele>1157.80</ele>
	<time>2023-04-15T10:01:41.000Z</time>
</trkpt>
<trkpt lat="45.7435780" lon="9.9807140">
	<ele>1157.60</ele>
	<time>2023-04-15T10:01:46.000Z</time>
</trkpt>
<trkpt lat="45.7435220" lon="9.9806950">
	<ele>1157.60</ele>
	<time>2023-04-15T10:01:53.000Z</time>
</trkpt>
<trkpt lat="45.7434800" lon="9.9806920">
	<ele>1157.40</ele>
	<time>2023-04-15T10:01:56.000Z</time>
</trkpt>
<trkpt lat="45.7434470" lon="9.9806630">
	<ele>1157.40</ele>
	<time>2023-04-15T10:02:00.000Z</time>
</trkpt>
<trkpt lat="45.7433680" lon="9.9806140">
	<ele>1157.40</ele>
	<time>2023-04-15T10:02:07.000Z</time>
</trkpt>
<trkpt lat="45.7433510" lon="9.9806160">
	<ele>1157.40</ele>
	<time>2023-04-15T10:02:08.000Z</time>
</trkpt>
<trkpt lat="45.7433360" lon="9.9806160">
	<ele>1157.40</ele>
	<time>2023-04-15T10:02:09.000Z</time>
</trkpt>
<trkpt lat="45.7433250" lon="9.9806170">
	<ele>1157.40</ele>
	<time>2023-04-15T10:02:10.000Z</time>
</trkpt>
<trkpt lat="45.7432760" lon="9.9805990">
	<ele>1157.80</ele>
	<time>2023-04-15T10:02:14.000Z</time>
</trkpt>
<trkpt lat="45.7432520" lon="9.9805900">
	<ele>1157.80</ele>
	<time>2023-04-15T10:02:16.000Z</time>
</trkpt>
<trkpt lat="45.7431750" lon="9.9805800">
	<ele>1158.00</ele>
	<time>2023-04-15T10:02:21.000Z</time>
</trkpt>
<trkpt lat="45.7430550" lon="9.9805780">
	<ele>1158.20</ele>
	<time>2023-04-15T10:02:28.000Z</time>
</trkpt>
<trkpt lat="45.7430420" lon="9.9805690">
	<ele>1158.20</ele>
	<time>2023-04-15T10:02:29.000Z</time>
</trkpt>
<trkpt lat="45.7430180" lon="9.9805700">
	<ele>1158.40</ele>
	<time>2023-04-15T10:02:31.000Z</time>
</trkpt>
<trkpt lat="45.7429770" lon="9.9805550">
	<ele>1158.40</ele>
	<time>2023-04-15T10:02:34.000Z</time>
</trkpt>
<trkpt lat="45.7429420" lon="9.9805130">
	<ele>1158.40</ele>
	<time>2023-04-15T10:02:36.000Z</time>
</trkpt>
<trkpt lat="45.7429260" lon="9.9805040">
	<ele>1158.40</ele>
	<time>2023-04-15T10:02:37.000Z</time>
</trkpt>
<trkpt lat="45.7428520" lon="9.9805740">
	<ele>1158.40</ele>
	<time>2023-04-15T10:02:44.000Z</time>
</trkpt>
<trkpt lat="45.7427650" lon="9.9806330">
	<ele>1158.60</ele>
	<time>2023-04-15T10:02:52.000Z</time>
</trkpt>
<trkpt lat="45.7427190" lon="9.9806440">
	<ele>1158.60</ele>
	<time>2023-04-15T10:02:55.000Z</time>
</trkpt>
<trkpt lat="45.7426680" lon="9.9806890">
	<ele>1158.80</ele>
	<time>2023-04-15T10:02:59.000Z</time>
</trkpt>
<trkpt lat="45.7426500" lon="9.9806950">
	<ele>1158.80</ele>
	<time>2023-04-15T10:03:00.000Z</time>
</trkpt>
<trkpt lat="45.7426010" lon="9.9807460">
	<ele>1158.80</ele>
	<time>2023-04-15T10:03:05.000Z</time>
</trkpt>
<trkpt lat="45.7425800" lon="9.9807660">
	<ele>1158.60</ele>
	<time>2023-04-15T10:03:08.000Z</time>
</trkpt>
<trkpt lat="45.7425670" lon="9.9807850">
	<ele>1158.60</ele>
	<time>2023-04-15T10:03:10.000Z</time>
</trkpt>
<trkpt lat="45.7425430" lon="9.9807880">
	<ele>1158.40</ele>
	<time>2023-04-15T10:03:12.000Z</time>
</trkpt>
<trkpt lat="45.7425210" lon="9.9807880">
	<ele>1158.40</ele>
	<time>2023-04-15T10:03:14.000Z</time>
</trkpt>
<trkpt lat="45.7425040" lon="9.9808020">
	<ele>1158.40</ele>
	<time>2023-04-15T10:03:16.000Z</time>
</trkpt>
<trkpt lat="45.7424730" lon="9.9807980">
	<ele>1158.20</ele>
	<time>2023-04-15T10:03:18.000Z</time>
</trkpt>
<trkpt lat="45.7424110" lon="9.9808160">
	<ele>1158.00</ele>
	<time>2023-04-15T10:03:22.000Z</time>
</trkpt>
<trkpt lat="45.7422630" lon="9.9808640">
	<ele>1157.60</ele>
	<time>2023-04-15T10:03:31.000Z</time>
</trkpt>
<trkpt lat="45.7421600" lon="9.9808510">
	<ele>1157.40</ele>
	<time>2023-04-15T10:03:39.000Z</time>
</trkpt>
<trkpt lat="45.7421500" lon="9.9808510">
	<ele>1157.40</ele>
	<time>2023-04-15T10:03:40.000Z</time>
</trkpt>
<trkpt lat="45.7420320" lon="9.9808150">
	<ele>1157.00</ele>
	<time>2023-04-15T10:03:48.000Z</time>
</trkpt>
<trkpt lat="45.7419970" lon="9.9808590">
	<ele>1156.60</ele>
	<time>2023-04-15T10:03:53.000Z</time>
</trkpt>
<trkpt lat="45.7419940" lon="9.9808720">
	<ele>1156.60</ele>
	<time>2023-04-15T10:03:54.000Z</time>
</trkpt>
<trkpt lat="45.7419860" lon="9.9809270">
	<ele>1156.40</ele>
	<time>2023-04-15T10:03:58.000Z</time>
</trkpt>
<trkpt lat="45.7419950" lon="9.9809840">
	<ele>1156.40</ele>
	<time>2023-04-15T10:04:02.000Z</time>
</trkpt>
<trkpt lat="45.7419990" lon="9.9811050">
	<ele>1156.20</ele>
	<time>2023-04-15T10:04:08.000Z</time>
</trkpt>
<trkpt lat="45.7420070" lon="9.9811240">
	<ele>1156.20</ele>
	<time>2023-04-15T10:04:09.000Z</time>
</trkpt>
<trkpt lat="45.7420150" lon="9.9812850">
	<ele>1155.60</ele>
	<time>2023-04-15T10:04:19.000Z</time>
</trkpt>
<trkpt lat="45.7420240" lon="9.9813540">
	<ele>1155.60</ele>
	<time>2023-04-15T10:04:23.000Z</time>
</trkpt>
<trkpt lat="45.7420480" lon="9.9814320">
	<ele>1155.80</ele>
	<time>2023-04-15T10:04:27.000Z</time>
</trkpt>
<trkpt lat="45.7420380" lon="9.9814650">
	<ele>1155.60</ele>
	<time>2023-04-15T10:04:29.000Z</time>
</trkpt>
<trkpt lat="45.7420440" lon="9.9815030">
	<ele>1155.60</ele>
	<time>2023-04-15T10:04:31.000Z</time>
</trkpt>
<trkpt lat="45.7420600" lon="9.9815360">
	<ele>1155.60</ele>
	<time>2023-04-15T10:04:33.000Z</time>
</trkpt>
<trkpt lat="45.7420700" lon="9.9815870">
	<ele>1155.60</ele>
	<time>2023-04-15T10:04:36.000Z</time>
</trkpt>
<trkpt lat="45.7420660" lon="9.9816190">
	<ele>1155.60</ele>
	<time>2023-04-15T10:04:38.000Z</time>
</trkpt>
<trkpt lat="45.7421090" lon="9.9817720">
	<ele>1156.00</ele>
	<time>2023-04-15T10:04:47.000Z</time>
</trkpt>
<trkpt lat="45.7421360" lon="9.9819040">
	<ele>1156.20</ele>
	<time>2023-04-15T10:04:53.000Z</time>
</trkpt>
<trkpt lat="45.7421580" lon="9.9819500">
	<ele>1156.20</ele>
	<time>2023-04-15T10:04:56.000Z</time>
</trkpt>
<trkpt lat="45.7421710" lon="9.9819920">
	<ele>1156.20</ele>
	<time>2023-04-15T10:04:59.000Z</time>
</trkpt>
<trkpt lat="45.7421730" lon="9.9820090">
	<ele>1156.20</ele>
	<time>2023-04-15T10:05:00.000Z</time>
</trkpt>
<trkpt lat="45.7421860" lon="9.9820630">
	<ele>1156.20</ele>
	<time>2023-04-15T10:05:03.000Z</time>
</trkpt>
<trkpt lat="45.7422090" lon="9.9821290">
	<ele>1156.20</ele>
	<time>2023-04-15T10:05:07.000Z</time>
</trkpt>
<trkpt lat="45.7422120" lon="9.9821450">
	<ele>1156.20</ele>
	<time>2023-04-15T10:05:08.000Z</time>
</trkpt>
<trkpt lat="45.7422230" lon="9.9821730">
	<ele>1156.00</ele>
	<time>2023-04-15T10:05:10.000Z</time>
</trkpt>
<trkpt lat="45.7422590" lon="9.9822360">
	<ele>1155.80</ele>
	<time>2023-04-15T10:05:15.000Z</time>
</trkpt>
<trkpt lat="45.7422910" lon="9.9823600">
	<ele>1155.60</ele>
	<time>2023-04-15T10:05:23.000Z</time>
</trkpt>
<trkpt lat="45.7422970" lon="9.9823850">
	<ele>1155.60</ele>
	<time>2023-04-15T10:05:24.000Z</time>
</trkpt>
<trkpt lat="45.7423190" lon="9.9824110">
	<ele>1155.60</ele>
	<time>2023-04-15T10:05:26.000Z</time>
</trkpt>
<trkpt lat="45.7423310" lon="9.9824430">
	<ele>1155.60</ele>
	<time>2023-04-15T10:05:28.000Z</time>
</trkpt>
<trkpt lat="45.7423610" lon="9.9825860">
	<ele>1156.00</ele>
	<time>2023-04-15T10:05:37.000Z</time>
</trkpt>
<trkpt lat="45.7423770" lon="9.9827460">
	<ele>1156.20</ele>
	<time>2023-04-15T10:05:46.000Z</time>
</trkpt>
<trkpt lat="45.7423780" lon="9.9827790">
	<ele>1156.40</ele>
	<time>2023-04-15T10:05:48.000Z</time>
</trkpt>
<trkpt lat="45.7424050" lon="9.9828750">
	<ele>1156.80</ele>
	<time>2023-04-15T10:05:53.000Z</time>
</trkpt>
<trkpt lat="45.7424390" lon="9.9829330">
	<ele>1156.60</ele>
	<time>2023-04-15T10:05:57.000Z</time>
</trkpt>
<trkpt lat="45.7424590" lon="9.9830120">
	<ele>1156.40</ele>
	<time>2023-04-15T10:06:00.000Z</time>
</trkpt>
<trkpt lat="45.7424390" lon="9.9831390">
	<ele>1156.20</ele>
	<time>2023-04-15T10:06:05.000Z</time>
</trkpt>
<trkpt lat="45.7424390" lon="9.9831580">
	<ele>1156.20</ele>
	<time>2023-04-15T10:06:06.000Z</time>
</trkpt>
<trkpt lat="45.7424360" lon="9.9831760">
	<ele>1156.20</ele>
	<time>2023-04-15T10:06:07.000Z</time>
</trkpt>
<trkpt lat="45.7423760" lon="9.9833000">
	<ele>1155.80</ele>
	<time>2023-04-15T10:06:15.000Z</time>
</trkpt>
<trkpt lat="45.7423450" lon="9.9834000">
	<ele>1155.60</ele>
	<time>2023-04-15T10:06:22.000Z</time>
</trkpt>
<trkpt lat="45.7423230" lon="9.9834610">
	<ele>1155.60</ele>
	<time>2023-04-15T10:06:26.000Z</time>
</trkpt>
<trkpt lat="45.7423070" lon="9.9835070">
	<ele>1155.60</ele>
	<time>2023-04-15T10:06:29.000Z</time>
</trkpt>
<trkpt lat="45.7423000" lon="9.9835250">
	<ele>1155.60</ele>
	<time>2023-04-15T10:06:30.000Z</time>
</trkpt>
<trkpt lat="45.7422930" lon="9.9836090">
	<ele>1155.80</ele>
	<time>2023-04-15T10:06:34.000Z</time>
</trkpt>
<trkpt lat="45.7422710" lon="9.9836470">
	<ele>1155.60</ele>
	<time>2023-04-15T10:06:37.000Z</time>
</trkpt>
<trkpt lat="45.7422530" lon="9.9836500">
	<ele>1155.60</ele>
	<time>2023-04-15T10:06:38.000Z</time>
</trkpt>
<trkpt lat="45.7422280" lon="9.9836910">
	<ele>1155.40</ele>
	<time>2023-04-15T10:06:41.000Z</time>
</trkpt>
<trkpt lat="45.7422190" lon="9.9837100">
	<ele>1155.20</ele>
	<time>2023-04-15T10:06:42.000Z</time>
</trkpt>
<trkpt lat="45.7422120" lon="9.9837400">
	<ele>1155.00</ele>
	<time>2023-04-15T10:06:43.000Z</time>
</trkpt>
<trkpt lat="45.7422140" lon="9.9838060">
	<ele>1154.80</ele>
	<time>2023-04-15T10:06:46.000Z</time>
</trkpt>
<trkpt lat="45.7422080" lon="9.9838070">
	<ele>1154.80</ele>
	<time>2023-04-15T10:06:47.000Z</time>
</trkpt>
<trkpt lat="45.7421950" lon="9.9838100">
	<ele>1154.60</ele>
	<time>2023-04-15T10:06:51.000Z</time>
</trkpt>
<trkpt lat="45.7421960" lon="9.9838110">
	<ele>1154.60</ele>
	<time>2023-04-15T10:06:52.000Z</time>
</trkpt>
<trkpt lat="45.7421860" lon="9.9838910">
	<ele>1154.60</ele>
	<time>2023-04-15T10:06:58.000Z</time>
</trkpt>
<trkpt lat="45.7421790" lon="9.9839080">
	<ele>1154.60</ele>
	<time>2023-04-15T10:06:59.000Z</time>
</trkpt>
<trkpt lat="45.7421540" lon="9.9840410">
	<ele>1154.80</ele>
	<time>2023-04-15T10:07:05.000Z</time>
</trkpt>
<trkpt lat="45.7421530" lon="9.9840790">
	<ele>1154.80</ele>
	<time>2023-04-15T10:07:07.000Z</time>
</trkpt>
<trkpt lat="45.7421550" lon="9.9842320">
	<ele>1155.40</ele>
	<time>2023-04-15T10:07:15.000Z</time>
</trkpt>
<trkpt lat="45.7421510" lon="9.9842600">
	<ele>1155.60</ele>
	<time>2023-04-15T10:07:17.000Z</time>
</trkpt>
<trkpt lat="45.7421470" lon="9.9842900">
	<ele>1155.80</ele>
	<time>2023-04-15T10:07:19.000Z</time>
</trkpt>
<trkpt lat="45.7421500" lon="9.9843060">
	<ele>1155.80</ele>
	<time>2023-04-15T10:07:20.000Z</time>
</trkpt>
<trkpt lat="45.7421540" lon="9.9843430">
	<ele>1156.00</ele>
	<time>2023-04-15T10:07:22.000Z</time>
</trkpt>
<trkpt lat="45.7421460" lon="9.9843980">
	<ele>1156.40</ele>
	<time>2023-04-15T10:07:26.000Z</time>
</trkpt>
<trkpt lat="45.7421460" lon="9.9844140">
	<ele>1156.40</ele>
	<time>2023-04-15T10:07:27.000Z</time>
</trkpt>
<trkpt lat="45.7421400" lon="9.9844330">
	<ele>1156.40</ele>
	<time>2023-04-15T10:07:29.000Z</time>
</trkpt>
<trkpt lat="45.7421370" lon="9.9844450">
	<ele>1156.40</ele>
	<time>2023-04-15T10:07:30.000Z</time>
</trkpt>
<trkpt lat="45.7420620" lon="9.9846260">
	<ele>1156.60</ele>
	<time>2023-04-15T10:07:38.000Z</time>
</trkpt>
<trkpt lat="45.7420580" lon="9.9846390">
	<ele>1156.60</ele>
	<time>2023-04-15T10:07:39.000Z</time>
</trkpt>
<trkpt lat="45.7420340" lon="9.9847480">
	<ele>1156.20</ele>
	<time>2023-04-15T10:07:45.000Z</time>
</trkpt>
<trkpt lat="45.7420360" lon="9.9848120">
	<ele>1156.40</ele>
	<time>2023-04-15T10:07:48.000Z</time>
</trkpt>
<trkpt lat="45.7420430" lon="9.9848530">
	<ele>1156.40</ele>
	<time>2023-04-15T10:07:50.000Z</time>
</trkpt>
<trkpt lat="45.7420430" lon="9.9848670">
	<ele>1156.40</ele>
	<time>2023-04-15T10:07:51.000Z</time>
</trkpt>
<trkpt lat="45.7420280" lon="9.9848980">
	<ele>1156.40</ele>
	<time>2023-04-15T10:07:53.000Z</time>
</trkpt>
<trkpt lat="45.7420220" lon="9.9849360">
	<ele>1156.60</ele>
	<time>2023-04-15T10:07:55.000Z</time>
</trkpt>
<trkpt lat="45.7420140" lon="9.9849820">
	<ele>1156.80</ele>
	<time>2023-04-15T10:07:58.000Z</time>
</trkpt>
<trkpt lat="45.7420070" lon="9.9850100">
	<ele>1156.80</ele>
	<time>2023-04-15T10:08:00.000Z</time>
</trkpt>
<trkpt lat="45.7420020" lon="9.9850480">
	<ele>1156.80</ele>
	<time>2023-04-15T10:08:03.000Z</time>
</trkpt>
<trkpt lat="45.7419990" lon="9.9851080">
	<ele>1156.80</ele>
	<time>2023-04-15T10:08:06.000Z</time>
</trkpt>
<trkpt lat="45.7419930" lon="9.9851300">
	<ele>1156.80</ele>
	<time>2023-04-15T10:08:07.000Z</time>
</trkpt>
<trkpt lat="45.7419720" lon="9.9851810">
	<ele>1156.80</ele>
	<time>2023-04-15T10:08:10.000Z</time>
</trkpt>
<trkpt lat="45.7419410" lon="9.9852190">
	<ele>1156.60</ele>
	<time>2023-04-15T10:08:13.000Z</time>
</trkpt>
<trkpt lat="45.7419160" lon="9.9852510">
	<ele>1156.20</ele>
	<time>2023-04-15T10:08:18.000Z</time>
</trkpt>
<trkpt lat="45.7418680" lon="9.9852610">
	<ele>1156.20</ele>
	<time>2023-04-15T10:08:21.000Z</time>
</trkpt>
<trkpt lat="45.7418470" lon="9.9853210">
	<ele>1156.20</ele>
	<time>2023-04-15T10:08:25.000Z</time>
</trkpt>
<trkpt lat="45.7418380" lon="9.9853370">
	<ele>1156.00</ele>
	<time>2023-04-15T10:08:27.000Z</time>
</trkpt>
<trkpt lat="45.7418180" lon="9.9853500">
	<ele>1156.00</ele>
	<time>2023-04-15T10:08:29.000Z</time>
</trkpt>
<trkpt lat="45.7417710" lon="9.9853620">
	<ele>1155.80</ele>
	<time>2023-04-15T10:08:31.000Z</time>
</trkpt>
<trkpt lat="45.7417620" lon="9.9853680">
	<ele>1156.00</ele>
	<time>2023-04-15T10:08:33.000Z</time>
</trkpt>
<trkpt lat="45.7417570" lon="9.9853750">
	<ele>1156.00</ele>
	<time>2023-04-15T10:08:34.000Z</time>
</trkpt>
<trkpt lat="45.7417230" lon="9.9854430">
	<ele>1156.20</ele>
	<time>2023-04-15T10:08:38.000Z</time>
</trkpt>
<trkpt lat="45.7417110" lon="9.9854710">
	<ele>1156.20</ele>
	<time>2023-04-15T10:08:40.000Z</time>
</trkpt>
<trkpt lat="45.7416280" lon="9.9855700">
	<ele>1156.20</ele>
	<time>2023-04-15T10:08:48.000Z</time>
</trkpt>
<trkpt lat="45.7415900" lon="9.9856590">
	<ele>1156.40</ele>
	<time>2023-04-15T10:08:53.000Z</time>
</trkpt>
<trkpt lat="45.7415640" lon="9.9857020">
	<ele>1156.60</ele>
	<time>2023-04-15T10:08:56.000Z</time>
</trkpt>
<trkpt lat="45.7415240" lon="9.9857750">
	<ele>1157.00</ele>
	<time>2023-04-15T10:08:59.000Z</time>
</trkpt>
<trkpt lat="45.7415010" lon="9.9858200">
	<ele>1157.00</ele>
	<time>2023-04-15T10:09:01.000Z</time>
</trkpt>
<trkpt lat="45.7414610" lon="9.9858450">
	<ele>1157.00</ele>
	<time>2023-04-15T10:09:04.000Z</time>
</trkpt>
<trkpt lat="45.7414740" lon="9.9858980">
	<ele>1157.00</ele>
	<time>2023-04-15T10:09:06.000Z</time>
</trkpt>
<trkpt lat="45.7414780" lon="9.9859200">
	<ele>1157.00</ele>
	<time>2023-04-15T10:09:07.000Z</time>
</trkpt>
<trkpt lat="45.7414480" lon="9.9859630">
	<ele>1157.20</ele>
	<time>2023-04-15T10:09:11.000Z</time>
</trkpt>
<trkpt lat="45.7414350" lon="9.9859820">
	<ele>1157.40</ele>
	<time>2023-04-15T10:09:12.000Z</time>
</trkpt>
<trkpt lat="45.7414200" lon="9.9859900">
	<ele>1157.40</ele>
	<time>2023-04-15T10:09:13.000Z</time>
</trkpt>
<trkpt lat="45.7414000" lon="9.9860220">
	<ele>1157.60</ele>
	<time>2023-04-15T10:09:15.000Z</time>
</trkpt>
<trkpt lat="45.7413900" lon="9.9860420">
	<ele>1157.60</ele>
	<time>2023-04-15T10:09:16.000Z</time>
</trkpt>
<trkpt lat="45.7413830" lon="9.9860600">
	<ele>1157.80</ele>
	<time>2023-04-15T10:09:17.000Z</time>
</trkpt>
<trkpt lat="45.7413450" lon="9.9860820">
	<ele>1157.80</ele>
	<time>2023-04-15T10:09:20.000Z</time>
</trkpt>
<trkpt lat="45.7413300" lon="9.9860970">
	<ele>1157.80</ele>
	<time>2023-04-15T10:09:22.000Z</time>
</trkpt>
<trkpt lat="45.7413070" lon="9.9861210">
	<ele>1158.00</ele>
	<time>2023-04-15T10:09:25.000Z</time>
</trkpt>
<trkpt lat="45.7412870" lon="9.9861250">
	<ele>1158.00</ele>
	<time>2023-04-15T10:09:26.000Z</time>
</trkpt>
<trkpt lat="45.7412080" lon="9.9861710">
	<ele>1158.20</ele>
	<time>2023-04-15T10:09:31.000Z</time>
</trkpt>
<trkpt lat="45.7411810" lon="9.9861780">
	<ele>1158.40</ele>
	<time>2023-04-15T10:09:33.000Z</time>
</trkpt>
<trkpt lat="45.7411370" lon="9.9861890">
	<ele>1158.40</ele>
	<time>2023-04-15T10:09:36.000Z</time>
</trkpt>
<trkpt lat="45.7411250" lon="9.9862050">
	<ele>1158.60</ele>
	<time>2023-04-15T10:09:37.000Z</time>
</trkpt>
<trkpt lat="45.7410150" lon="9.9862880">
	<ele>1159.20</ele>
	<time>2023-04-15T10:09:46.000Z</time>
</trkpt>
<trkpt lat="45.7410110" lon="9.9862920">
	<ele>1159.20</ele>
	<time>2023-04-15T10:09:47.000Z</time>
</trkpt>
<trkpt lat="45.7409860" lon="9.9863010">
	<ele>1159.20</ele>
	<time>2023-04-15T10:09:49.000Z</time>
</trkpt>
<trkpt lat="45.7409440" lon="9.9863020">
	<ele>1159.40</ele>
	<time>2023-04-15T10:09:51.000Z</time>
</trkpt>
<trkpt lat="45.7409270" lon="9.9862970">
	<ele>1159.40</ele>
	<time>2023-04-15T10:09:52.000Z</time>
</trkpt>
<trkpt lat="45.7409090" lon="9.9862960">
	<ele>1159.60</ele>
	<time>2023-04-15T10:09:54.000Z</time>
</trkpt>
<trkpt lat="45.7408880" lon="9.9863060">
	<ele>1159.60</ele>
	<time>2023-04-15T10:09:56.000Z</time>
</trkpt>
<trkpt lat="45.7408350" lon="9.9863250">
	<ele>1160.00</ele>
	<time>2023-04-15T10:10:00.000Z</time>
</trkpt>
<trkpt lat="45.7408230" lon="9.9863290">
	<ele>1160.00</ele>
	<time>2023-04-15T10:10:01.000Z</time>
</trkpt>
<trkpt lat="45.7408130" lon="9.9863350">
	<ele>1160.20</ele>
	<time>2023-04-15T10:10:02.000Z</time>
</trkpt>
<trkpt lat="45.7407690" lon="9.9863850">
	<ele>1160.20</ele>
	<time>2023-04-15T10:10:06.000Z</time>
</trkpt>
<trkpt lat="45.7407020" lon="9.9864270">
	<ele>1160.40</ele>
	<time>2023-04-15T10:10:09.000Z</time>
</trkpt>
<trkpt lat="45.7406970" lon="9.9864320">
	<ele>1160.40</ele>
	<time>2023-04-15T10:10:10.000Z</time>
</trkpt>
<trkpt lat="45.7406940" lon="9.9864340">
	<ele>1160.60</ele>
	<time>2023-04-15T10:10:11.000Z</time>
</trkpt>
<trkpt lat="45.7406940" lon="9.9864400">
	<ele>1161.00</ele>
	<time>2023-04-15T10:10:15.000Z</time>
</trkpt>
<trkpt lat="45.7406910" lon="9.9864540">
	<ele>1160.80</ele>
	<time>2023-04-15T10:10:20.000Z</time>
</trkpt>
<trkpt lat="45.7406630" lon="9.9864990">
	<ele>1160.80</ele>
	<time>2023-04-15T10:10:24.000Z</time>
</trkpt>
<trkpt lat="45.7406170" lon="9.9865600">
	<ele>1161.60</ele>
	<time>2023-04-15T10:10:30.000Z</time>
</trkpt>
<trkpt lat="45.7405700" lon="9.9866270">
	<ele>1161.80</ele>
	<time>2023-04-15T10:10:35.000Z</time>
</trkpt>
<trkpt lat="45.7405030" lon="9.9867330">
	<ele>1162.00</ele>
	<time>2023-04-15T10:10:43.000Z</time>
</trkpt>
<trkpt lat="45.7404540" lon="9.9868120">
	<ele>1161.80</ele>
	<time>2023-04-15T10:10:49.000Z</time>
</trkpt>
<trkpt lat="45.7404210" lon="9.9868650">
	<ele>1162.00</ele>
	<time>2023-04-15T10:10:53.000Z</time>
</trkpt>
<trkpt lat="45.7403520" lon="9.9869500">
	<ele>1162.20</ele>
	<time>2023-04-15T10:10:59.000Z</time>
</trkpt>
<trkpt lat="45.7403060" lon="9.9870420">
	<ele>1162.40</ele>
	<time>2023-04-15T10:11:05.000Z</time>
</trkpt>
<trkpt lat="45.7402960" lon="9.9870820">
	<ele>1162.40</ele>
	<time>2023-04-15T10:11:07.000Z</time>
</trkpt>
<trkpt lat="45.7402530" lon="9.9871120">
	<ele>1162.60</ele>
	<time>2023-04-15T10:11:10.000Z</time>
</trkpt>
<trkpt lat="45.7402600" lon="9.9871790">
	<ele>1162.60</ele>
	<time>2023-04-15T10:11:13.000Z</time>
</trkpt>
<trkpt lat="45.7402420" lon="9.9872150">
	<ele>1163.00</ele>
	<time>2023-04-15T10:11:16.000Z</time>
</trkpt>
<trkpt lat="45.7402270" lon="9.9872150">
	<ele>1163.00</ele>
	<time>2023-04-15T10:11:17.000Z</time>
</trkpt>
<trkpt lat="45.7401710" lon="9.9872660">
	<ele>1163.40</ele>
	<time>2023-04-15T10:11:22.000Z</time>
</trkpt>
<trkpt lat="45.7401470" lon="9.9872880">
	<ele>1163.60</ele>
	<time>2023-04-15T10:11:24.000Z</time>
</trkpt>
<trkpt lat="45.7400850" lon="9.9873470">
	<ele>1163.80</ele>
	<time>2023-04-15T10:11:30.000Z</time>
</trkpt>
<trkpt lat="45.7399990" lon="9.9874710">
	<ele>1164.20</ele>
	<time>2023-04-15T10:11:39.000Z</time>
</trkpt>
<trkpt lat="45.7399060" lon="9.9875420">
	<ele>1164.40</ele>
	<time>2023-04-15T10:11:45.000Z</time>
</trkpt>
<trkpt lat="45.7398960" lon="9.9875660">
	<ele>1164.40</ele>
	<time>2023-04-15T10:11:46.000Z</time>
</trkpt>
<trkpt lat="45.7397940" lon="9.9876690">
	<ele>1164.20</ele>
	<time>2023-04-15T10:11:55.000Z</time>
</trkpt>
<trkpt lat="45.7397640" lon="9.9876850">
	<ele>1164.20</ele>
	<time>2023-04-15T10:11:59.000Z</time>
</trkpt>
<trkpt lat="45.7397440" lon="9.9876790">
	<ele>1164.00</ele>
	<time>2023-04-15T10:12:01.000Z</time>
</trkpt>
<trkpt lat="45.7396950" lon="9.9876800">
	<ele>1164.00</ele>
	<time>2023-04-15T10:12:05.000Z</time>
</trkpt>
<trkpt lat="45.7396880" lon="9.9876720">
	<ele>1164.00</ele>
	<time>2023-04-15T10:12:06.000Z</time>
</trkpt>
<trkpt lat="45.7396840" lon="9.9876610">
	<ele>1163.80</ele>
	<time>2023-04-15T10:12:08.000Z</time>
</trkpt>
<trkpt lat="45.7396820" lon="9.9876610">
	<ele>1163.60</ele>
	<time>2023-04-15T10:12:09.000Z</time>
</trkpt>
<trkpt lat="45.7396710" lon="9.9876590">
	<ele>1163.40</ele>
	<time>2023-04-15T10:12:18.000Z</time>
</trkpt>
<trkpt lat="45.7396710" lon="9.9876590">
	<ele>1163.60</ele>
	<time>2023-04-15T10:12:22.000Z</time>
</trkpt>
<trkpt lat="45.7396740" lon="9.9876590">
	<ele>1163.20</ele>
	<time>2023-04-15T10:12:33.000Z</time>
</trkpt>
<trkpt lat="45.7396750" lon="9.9876590">
	<ele>1163.20</ele>
	<time>2023-04-15T10:12:40.000Z</time>
</trkpt>
<trkpt lat="45.7396320" lon="9.9876750">
	<ele>1163.00</ele>
	<time>2023-04-15T10:12:47.000Z</time>
</trkpt>
<trkpt lat="45.7395540" lon="9.9876930">
	<ele>1163.00</ele>
	<time>2023-04-15T10:12:52.000Z</time>
</trkpt>
<trkpt lat="45.7395300" lon="9.9877030">
	<ele>1163.00</ele>
	<time>2023-04-15T10:12:55.000Z</time>
</trkpt>
<trkpt lat="45.7395220" lon="9.9877000">
	<ele>1163.00</ele>
	<time>2023-04-15T10:12:56.000Z</time>
</trkpt>
<trkpt lat="45.7395190" lon="9.9876840">
	<ele>1162.80</ele>
	<time>2023-04-15T10:12:58.000Z</time>
</trkpt>
<trkpt lat="45.7395200" lon="9.9876780">
	<ele>1162.80</ele>
	<time>2023-04-15T10:12:59.000Z</time>
</trkpt>
<trkpt lat="45.7395200" lon="9.9876760">
	<ele>1162.80</ele>
	<time>2023-04-15T10:13:00.000Z</time>
</trkpt>
<trkpt lat="45.7395220" lon="9.9876720">
	<ele>1162.80</ele>
	<time>2023-04-15T10:13:03.000Z</time>
</trkpt>
<trkpt lat="45.7395260" lon="9.9876660">
	<ele>1162.60</ele>
	<time>2023-04-15T10:13:05.000Z</time>
</trkpt>
<trkpt lat="45.7395260" lon="9.9876660">
	<ele>1161.80</ele>
	<time>2023-04-15T10:13:16.000Z</time>
</trkpt>
<trkpt lat="45.7395630" lon="9.9876320">
	<ele>1162.40</ele>
	<time>2023-04-15T10:13:45.000Z</time>
</trkpt>
<trkpt lat="45.7395610" lon="9.9876130">
	<ele>1162.00</ele>
	<time>2023-04-15T10:13:54.000Z</time>
</trkpt>
<trkpt lat="45.7395610" lon="9.9876060">
	<ele>1162.00</ele>
	<time>2023-04-15T10:14:03.000Z</time>
</trkpt>
<trkpt lat="45.7395640" lon="9.9876020">
	<ele>1161.60</ele>
	<time>2023-04-15T10:14:12.000Z</time>
</trkpt>
<trkpt lat="45.7395640" lon="9.9876320">
	<ele>1161.60</ele>
	<time>2023-04-15T10:14:30.000Z</time>
</trkpt>
<trkpt lat="45.7395640" lon="9.9876350">
	<ele>1161.60</ele>
	<time>2023-04-15T10:14:34.000Z</time>
</trkpt>
<trkpt lat="45.7395730" lon="9.9876460">
	<ele>1161.60</ele>
	<time>2023-04-15T10:14:45.000Z</time>
</trkpt>
<trkpt lat="45.7395760" lon="9.9876460">
	<ele>1161.60</ele>
	<time>2023-04-15T10:14:47.000Z</time>
</trkpt>
<trkpt lat="45.7395760" lon="9.9876460">
	<ele>1161.60</ele>
	<time>2023-04-15T10:14:52.000Z</time>
</trkpt>
<trkpt lat="45.7395760" lon="9.9876460">
	<ele>1161.60</ele>
	<time>2023-04-15T10:14:56.000Z</time>
</trkpt>
<trkpt lat="45.7395910" lon="9.9876430">
	<ele>1161.60</ele>
	<time>2023-04-15T10:15:00.000Z</time>
</trkpt>
<trkpt lat="45.7395980" lon="9.9875980">
	<ele>1161.60</ele>
	<time>2023-04-15T10:15:20.000Z</time>
</trkpt>
<trkpt lat="45.7395980" lon="9.9875950">
	<ele>1161.60</ele>
	<time>2023-04-15T10:15:21.000Z</time>
</trkpt>
<trkpt lat="45.7396010" lon="9.9875890">
	<ele>1161.60</ele>
	<time>2023-04-15T10:15:26.000Z</time>
</trkpt>
<trkpt lat="45.7396020" lon="9.9875640">
	<ele>1161.60</ele>
	<time>2023-04-15T10:15:41.000Z</time>
</trkpt>
<trkpt lat="45.7396050" lon="9.9875590">
	<ele>1161.60</ele>
	<time>2023-04-15T10:15:48.000Z</time>
</trkpt>
<trkpt lat="45.7396070" lon="9.9875580">
	<ele>1161.60</ele>
	<time>2023-04-15T10:15:50.000Z</time>
</trkpt>
<trkpt lat="45.7396240" lon="9.9875580">
	<ele>1161.60</ele>
	<time>2023-04-15T10:16:13.000Z</time>
</trkpt>
<trkpt lat="45.7396080" lon="9.9875620">
	<ele>1161.60</ele>
	<time>2023-04-15T10:16:21.000Z</time>
</trkpt>
<trkpt lat="45.7395270" lon="9.9875360">
	<ele>1161.60</ele>
	<time>2023-04-15T10:16:40.000Z</time>
</trkpt>
<trkpt lat="45.7395230" lon="9.9875450">
	<ele>1161.60</ele>
	<time>2023-04-15T10:16:49.000Z</time>
</trkpt>
<trkpt lat="45.7395360" lon="9.9875660">
	<ele>1161.60</ele>
	<time>2023-04-15T10:16:55.000Z</time>
</trkpt>
<trkpt lat="45.7395400" lon="9.9875720">
	<ele>1161.60</ele>
	<time>2023-04-15T10:16:58.000Z</time>
</trkpt>
<trkpt lat="45.7395440" lon="9.9875700">
	<ele>1161.60</ele>
	<time>2023-04-15T10:17:00.000Z</time>
</trkpt>
<trkpt lat="45.7395600" lon="9.9876520">
	<ele>1161.60</ele>
	<time>2023-04-15T10:19:30.000Z</time>
</trkpt>
<trkpt lat="45.7395590" lon="9.9876160">
	<ele>1161.60</ele>
	<time>2023-04-15T10:19:31.000Z</time>
</trkpt>
<trkpt lat="45.7395900" lon="9.9876030">
	<ele>1160.20</ele>
	<time>2023-04-15T10:19:35.000Z</time>
</trkpt>
<trkpt lat="45.7385530" lon="9.9870860">
	<ele>1159.00</ele>
	<time>2023-04-15T10:24:27.000Z</time>
</trkpt>
<trkpt lat="45.7387920" lon="9.9873700">
	<ele>1159.00</ele>
	<time>2023-04-15T10:24:28.000Z</time>
</trkpt>
<trkpt lat="45.7395310" lon="9.9876250">
	<ele>1159.00</ele>
	<time>2023-04-15T10:24:31.000Z</time>
</trkpt>
<trkpt lat="45.7395140" lon="9.9876700">
	<ele>1159.00</ele>
	<time>2023-04-15T10:24:37.000Z</time>
</trkpt>
<trkpt lat="45.7394950" lon="9.9876660">
	<ele>1159.00</ele>
	<time>2023-04-15T10:24:43.000Z</time>
</trkpt>
<trkpt lat="45.7394930" lon="9.9876910">
	<ele>1159.00</ele>
	<time>2023-04-15T10:24:47.000Z</time>
</trkpt>
<trkpt lat="45.7394880" lon="9.9877010">
	<ele>1159.00</ele>
	<time>2023-04-15T10:24:48.000Z</time>
</trkpt>
<trkpt lat="45.7394890" lon="9.9877150">
	<ele>1159.00</ele>
	<time>2023-04-15T10:24:55.000Z</time>
</trkpt>
<trkpt lat="45.7394890" lon="9.9877230">
	<ele>1159.00</ele>
	<time>2023-04-15T10:24:59.000Z</time>
</trkpt>
<trkpt lat="45.7394960" lon="9.9877240">
	<ele>1159.00</ele>
	<time>2023-04-15T10:25:08.000Z</time>
</trkpt>
<trkpt lat="45.7394920" lon="9.9878000">
	<ele>1159.00</ele>
	<time>2023-04-15T10:25:31.000Z</time>
</trkpt>
<trkpt lat="45.7395040" lon="9.9877240">
	<ele>1159.00</ele>
	<time>2023-04-15T10:25:38.000Z</time>
</trkpt>
<trkpt lat="45.7394930" lon="9.9877420">
	<ele>1159.00</ele>
	<time>2023-04-15T10:25:44.000Z</time>
</trkpt>
<trkpt lat="45.7395090" lon="9.9875990">
	<ele>1159.00</ele>
	<time>2023-04-15T10:28:13.000Z</time>
</trkpt>
<trkpt lat="45.7395140" lon="9.9876400">
	<ele>1159.00</ele>
	<time>2023-04-15T10:28:19.000Z</time>
</trkpt>
<trkpt lat="45.7395480" lon="9.9875910">
	<ele>1159.00</ele>
	<time>2023-04-15T10:28:25.000Z</time>
</trkpt>
<trkpt lat="45.7395640" lon="9.9875660">
	<ele>1159.00</ele>
	<time>2023-04-15T10:28:32.000Z</time>
</trkpt>
<trkpt lat="45.7395560" lon="9.9875640">
	<ele>1159.00</ele>
	<time>2023-04-15T10:28:36.000Z</time>
</trkpt>
<trkpt lat="45.7395660" lon="9.9875760">
	<ele>1159.00</ele>
	<time>2023-04-15T10:28:40.000Z</time>
</trkpt>
<trkpt lat="45.7395130" lon="9.9876320">
	<ele>1159.00</ele>
	<time>2023-04-15T10:28:47.000Z</time>
</trkpt>
<trkpt lat="45.7395190" lon="9.9876190">
	<ele>1159.00</ele>
	<time>2023-04-15T10:28:52.000Z</time>
</trkpt>
<trkpt lat="45.7394900" lon="9.9876740">
	<ele>1159.00</ele>
	<time>2023-04-15T10:29:02.000Z</time>
</trkpt>
<trkpt lat="45.7394970" lon="9.9876640">
	<ele>1159.00</ele>
	<time>2023-04-15T10:29:09.000Z</time>
</trkpt>
<trkpt lat="45.7395010" lon="9.9876600">
	<ele>1159.00</ele>
	<time>2023-04-15T10:29:15.000Z</time>
</trkpt>
<trkpt lat="45.7395010" lon="9.9876600">
	<ele>1159.00</ele>
	<time>2023-04-15T10:29:24.000Z</time>
</trkpt>
<trkpt lat="45.7395020" lon="9.9876600">
	<ele>1159.00</ele>
	<time>2023-04-15T10:29:31.000Z</time>
</trkpt>
<trkpt lat="45.7395000" lon="9.9876560">
	<ele>1159.00</ele>
	<time>2023-04-15T10:29:51.000Z</time>
</trkpt>
<trkpt lat="45.7395000" lon="9.9876580">
	<ele>1159.00</ele>
	<time>2023-04-15T10:30:03.000Z</time>
</trkpt>
<trkpt lat="45.7395010" lon="9.9876590">
	<ele>1159.00</ele>
	<time>2023-04-15T10:30:07.000Z</time>
</trkpt>
<trkpt lat="45.7394960" lon="9.9876790">
	<ele>1159.00</ele>
	<time>2023-04-15T10:30:24.000Z</time>
</trkpt>
<trkpt lat="45.7394930" lon="9.9876940">
	<ele>1159.00</ele>
	<time>2023-04-15T10:30:30.000Z</time>
</trkpt>
<trkpt lat="45.7394980" lon="9.9876860">
	<ele>1159.00</ele>
	<time>2023-04-15T10:30:47.000Z</time>
</trkpt>
<trkpt lat="45.7395030" lon="9.9876720">
	<ele>1159.00</ele>
	<time>2023-04-15T10:31:02.000Z</time>
</trkpt>
<trkpt lat="45.7395020" lon="9.9876710">
	<ele>1159.00</ele>
	<time>2023-04-15T10:31:07.000Z</time>
</trkpt>
<trkpt lat="45.7394960" lon="9.9876780">
	<ele>1159.00</ele>
	<time>2023-04-15T10:31:26.000Z</time>
</trkpt>
<trkpt lat="45.7394960" lon="9.9876800">
	<ele>1159.00</ele>
	<time>2023-04-15T10:31:29.000Z</time>
</trkpt>
<trkpt lat="45.7394980" lon="9.9876890">
	<ele>1159.00</ele>
	<time>2023-04-15T10:31:48.000Z</time>
</trkpt>
<trkpt lat="45.7394980" lon="9.9876900">
	<ele>1159.00</ele>
	<time>2023-04-15T10:31:51.000Z</time>
</trkpt>
<trkpt lat="45.7395020" lon="9.9876980">
	<ele>1159.00</ele>
	<time>2023-04-15T10:31:59.000Z</time>
</trkpt>
<trkpt lat="45.7395030" lon="9.9876990">
	<ele>1159.00</ele>
	<time>2023-04-15T10:32:02.000Z</time>
</trkpt>
<trkpt lat="45.7395040" lon="9.9876990">
	<ele>1159.00</ele>
	<time>2023-04-15T10:32:04.000Z</time>
</trkpt>
<trkpt lat="45.7395060" lon="9.9877000">
	<ele>1159.00</ele>
	<time>2023-04-15T10:32:13.000Z</time>
</trkpt>
<trkpt lat="45.7395060" lon="9.9876990">
	<ele>1159.00</ele>
	<time>2023-04-15T10:32:17.000Z</time>
</trkpt>
<trkpt lat="45.7395030" lon="9.9877000">
	<ele>1159.00</ele>
	<time>2023-04-15T10:32:36.000Z</time>
</trkpt>
<trkpt lat="45.7395030" lon="9.9876900">
	<ele>1159.00</ele>
	<time>2023-04-15T10:32:43.000Z</time>
</trkpt>
<trkpt lat="45.7395030" lon="9.9876830">
	<ele>1159.00</ele>
	<time>2023-04-15T10:32:45.000Z</time>
</trkpt>
<trkpt lat="45.7395050" lon="9.9876620">
	<ele>1159.00</ele>
	<time>2023-04-15T10:32:49.000Z</time>
</trkpt>
<trkpt lat="45.7395360" lon="9.9876900">
	<ele>1159.00</ele>
	<time>2023-04-15T10:32:54.000Z</time>
</trkpt>
<trkpt lat="45.7395610" lon="9.9876970">
	<ele>1159.00</ele>
	<time>2023-04-15T10:32:57.000Z</time>
</trkpt>
<trkpt lat="45.7395710" lon="9.9877160">
	<ele>1159.00</ele>
	<time>2023-04-15T10:33:04.000Z</time>
</trkpt>
<trkpt lat="45.7395640" lon="9.9877160">
	<ele>1159.00</ele>
	<time>2023-04-15T10:33:12.000Z</time>
</trkpt>
<trkpt lat="45.7395500" lon="9.9877220">
	<ele>1159.00</ele>
	<time>2023-04-15T10:33:32.000Z</time>
</trkpt>
<trkpt lat="45.7395240" lon="9.9877220">
	<ele>1159.00</ele>
	<time>2023-04-15T10:33:56.000Z</time>
</trkpt>
<trkpt lat="45.7394920" lon="9.9877160">
	<ele>1159.00</ele>
	<time>2023-04-15T10:34:17.000Z</time>
</trkpt>
<trkpt lat="45.7394910" lon="9.9877170">
	<ele>1159.00</ele>
	<time>2023-04-15T10:34:21.000Z</time>
</trkpt>
<trkpt lat="45.7395030" lon="9.9877170">
	<ele>1159.00</ele>
	<time>2023-04-15T10:34:34.000Z</time>
</trkpt>
<trkpt lat="45.7395100" lon="9.9877160">
	<ele>1159.00</ele>
	<time>2023-04-15T10:34:38.000Z</time>
</trkpt>
<trkpt lat="45.7395160" lon="9.9877140">
	<ele>1159.00</ele>
	<time>2023-04-15T10:34:41.000Z</time>
</trkpt>
<trkpt lat="45.7395400" lon="9.9877040">
	<ele>1159.00</ele>
	<time>2023-04-15T10:34:50.000Z</time>
</trkpt>
<trkpt lat="45.7395260" lon="9.9877020">
	<ele>1159.00</ele>
	<time>2023-04-15T10:34:56.000Z</time>
</trkpt>
<trkpt lat="45.7395300" lon="9.9876860">
	<ele>1159.00</ele>
	<time>2023-04-15T10:35:01.000Z</time>
</trkpt>
<trkpt lat="45.7395260" lon="9.9876800">
	<ele>1159.00</ele>
	<time>2023-04-15T10:35:15.000Z</time>
</trkpt>
<trkpt lat="45.7395180" lon="9.9876650">
	<ele>1159.00</ele>
	<time>2023-04-15T10:35:35.000Z</time>
</trkpt>
<trkpt lat="45.7395220" lon="9.9876830">
	<ele>1159.00</ele>
	<time>2023-04-15T10:36:40.000Z</time>
</trkpt>
<trkpt lat="45.7395320" lon="9.9876700">
	<ele>1159.00</ele>
	<time>2023-04-15T10:37:00.000Z</time>
</trkpt>
<trkpt lat="45.7395330" lon="9.9876810">
	<ele>1159.00</ele>
	<time>2023-04-15T10:37:09.000Z</time>
</trkpt>
<trkpt lat="45.7395280" lon="9.9876910">
	<ele>1159.00</ele>
	<time>2023-04-15T10:37:14.000Z</time>
</trkpt>
<trkpt lat="45.7395250" lon="9.9877050">
	<ele>1159.00</ele>
	<time>2023-04-15T10:37:20.000Z</time>
</trkpt>
<trkpt lat="45.7395250" lon="9.9877110">
	<ele>1159.00</ele>
	<time>2023-04-15T10:37:21.000Z</time>
</trkpt>
<trkpt lat="45.7395240" lon="9.9877220">
	<ele>1159.00</ele>
	<time>2023-04-15T10:37:24.000Z</time>
</trkpt>
<trkpt lat="45.7395240" lon="9.9877230">
	<ele>1159.00</ele>
	<time>2023-04-15T10:37:25.000Z</time>
</trkpt>
<trkpt lat="45.7395210" lon="9.9877270">
	<ele>1159.00</ele>
	<time>2023-04-15T10:37:33.000Z</time>
</trkpt>
<trkpt lat="45.7395580" lon="9.9877000">
	<ele>1159.00</ele>
	<time>2023-04-15T10:37:55.000Z</time>
</trkpt>
<trkpt lat="45.7396060" lon="9.9877060">
	<ele>1159.00</ele>
	<time>2023-04-15T10:37:59.000Z</time>
</trkpt>
<trkpt lat="45.7396170" lon="9.9877080">
	<ele>1159.00</ele>
	<time>2023-04-15T10:38:00.000Z</time>
</trkpt>
<trkpt lat="45.7396300" lon="9.9877110">
	<ele>1159.00</ele>
	<time>2023-04-15T10:38:01.000Z</time>
</trkpt>
<trkpt lat="45.7396680" lon="9.9877120">
	<ele>1160.20</ele>
	<time>2023-04-15T10:38:05.000Z</time>
</trkpt>
<trkpt lat="45.7396800" lon="9.9877120">
	<ele>1160.40</ele>
	<time>2023-04-15T10:38:06.000Z</time>
</trkpt>
<trkpt lat="45.7396900" lon="9.9877100">
	<ele>1160.60</ele>
	<time>2023-04-15T10:38:07.000Z</time>
</trkpt>
<trkpt lat="45.7397230" lon="9.9877100">
	<ele>1160.80</ele>
	<time>2023-04-15T10:38:11.000Z</time>
</trkpt>
<trkpt lat="45.7397330" lon="9.9877110">
	<ele>1160.80</ele>
	<time>2023-04-15T10:38:12.000Z</time>
</trkpt>
<trkpt lat="45.7397390" lon="9.9877070">
	<ele>1161.00</ele>
	<time>2023-04-15T10:38:13.000Z</time>
</trkpt>
<trkpt lat="45.7397560" lon="9.9877040">
	<ele>1161.00</ele>
	<time>2023-04-15T10:38:15.000Z</time>
</trkpt>
<trkpt lat="45.7397650" lon="9.9877040">
	<ele>1161.20</ele>
	<time>2023-04-15T10:38:16.000Z</time>
</trkpt>
<trkpt lat="45.7397980" lon="9.9877150">
	<ele>1161.40</ele>
	<time>2023-04-15T10:38:20.000Z</time>
</trkpt>
<trkpt lat="45.7398050" lon="9.9877190">
	<ele>1161.40</ele>
	<time>2023-04-15T10:38:21.000Z</time>
</trkpt>
<trkpt lat="45.7398180" lon="9.9877300">
	<ele>1161.60</ele>
	<time>2023-04-15T10:38:23.000Z</time>
</trkpt>
<trkpt lat="45.7399130" lon="9.9877590">
	<ele>1162.20</ele>
	<time>2023-04-15T10:38:33.000Z</time>
</trkpt>
<trkpt lat="45.7399440" lon="9.9877730">
	<ele>1162.40</ele>
	<time>2023-04-15T10:38:36.000Z</time>
</trkpt>
<trkpt lat="45.7399710" lon="9.9877880">
	<ele>1163.00</ele>
	<time>2023-04-15T10:38:41.000Z</time>
</trkpt>
<trkpt lat="45.7399710" lon="9.9877930">
	<ele>1163.20</ele>
	<time>2023-04-15T10:38:42.000Z</time>
</trkpt>
<trkpt lat="45.7399730" lon="9.9877970">
	<ele>1163.20</ele>
	<time>2023-04-15T10:38:43.000Z</time>
</trkpt>
<trkpt lat="45.7399800" lon="9.9878050">
	<ele>1163.20</ele>
	<time>2023-04-15T10:38:46.000Z</time>
</trkpt>
<trkpt lat="45.7399990" lon="9.9878090">
	<ele>1163.20</ele>
	<time>2023-04-15T10:38:49.000Z</time>
</trkpt>
<trkpt lat="45.7400010" lon="9.9878130">
	<ele>1163.20</ele>
	<time>2023-04-15T10:38:50.000Z</time>
</trkpt>
<trkpt lat="45.7400110" lon="9.9878170">
	<ele>1163.40</ele>
	<time>2023-04-15T10:38:54.000Z</time>
</trkpt>
<trkpt lat="45.7400110" lon="9.9878170">
	<ele>1163.40</ele>
	<time>2023-04-15T10:38:55.000Z</time>
</trkpt>
<trkpt lat="45.7400530" lon="9.9878430">
	<ele>1163.60</ele>
	<time>2023-04-15T10:39:06.000Z</time>
</trkpt>
<trkpt lat="45.7400670" lon="9.9878500">
	<ele>1163.80</ele>
	<time>2023-04-15T10:39:07.000Z</time>
</trkpt>
<trkpt lat="45.7401160" lon="9.9878860">
	<ele>1164.20</ele>
	<time>2023-04-15T10:39:13.000Z</time>
</trkpt>
<trkpt lat="45.7401270" lon="9.9878940">
	<ele>1164.20</ele>
	<time>2023-04-15T10:39:15.000Z</time>
</trkpt>
<trkpt lat="45.7401560" lon="9.9879070">
	<ele>1164.20</ele>
	<time>2023-04-15T10:39:21.000Z</time>
</trkpt>
<trkpt lat="45.7401610" lon="9.9879080">
	<ele>1164.40</ele>
	<time>2023-04-15T10:39:22.000Z</time>
</trkpt>
<trkpt lat="45.7401690" lon="9.9879010">
	<ele>1164.80</ele>
	<time>2023-04-15T10:39:24.000Z</time>
</trkpt>
<trkpt lat="45.7401640" lon="9.9879040">
	<ele>1165.00</ele>
	<time>2023-04-15T10:39:28.000Z</time>
</trkpt>
<trkpt lat="45.7402010" lon="9.9879280">
	<ele>1164.80</ele>
	<time>2023-04-15T10:39:34.000Z</time>
</trkpt>
<trkpt lat="45.7402650" lon="9.9879770">
	<ele>1164.40</ele>
	<time>2023-04-15T10:39:40.000Z</time>
</trkpt>
<trkpt lat="45.7403200" lon="9.9880200">
	<ele>1164.80</ele>
	<time>2023-04-15T10:39:45.000Z</time>
</trkpt>
<trkpt lat="45.7403490" lon="9.9880430">
	<ele>1164.80</ele>
	<time>2023-04-15T10:39:47.000Z</time>
</trkpt>
<trkpt lat="45.7403850" lon="9.9880590">
	<ele>1164.60</ele>
	<time>2023-04-15T10:39:49.000Z</time>
</trkpt>
<trkpt lat="45.7404160" lon="9.9880850">
	<ele>1164.60</ele>
	<time>2023-04-15T10:39:52.000Z</time>
</trkpt>
<trkpt lat="45.7404520" lon="9.9881180">
	<ele>1164.60</ele>
	<time>2023-04-15T10:39:57.000Z</time>
</trkpt>
<trkpt lat="45.7404650" lon="9.9881280">
	<ele>1164.60</ele>
	<time>2023-04-15T10:39:59.000Z</time>
</trkpt>
<trkpt lat="45.7405290" lon="9.9881680">
	<ele>1164.20</ele>
	<time>2023-04-15T10:40:06.000Z</time>
</trkpt>
<trkpt lat="45.7406060" lon="9.9882060">
	<ele>1164.20</ele>
	<time>2023-04-15T10:40:11.000Z</time>
</trkpt>
<trkpt lat="45.7406340" lon="9.9882320">
	<ele>1164.40</ele>
	<time>2023-04-15T10:40:14.000Z</time>
</trkpt>
<trkpt lat="45.7406500" lon="9.9882390">
	<ele>1164.20</ele>
	<time>2023-04-15T10:40:16.000Z</time>
</trkpt>
<trkpt lat="45.7406660" lon="9.9882540">
	<ele>1164.00</ele>
	<time>2023-04-15T10:40:18.000Z</time>
</trkpt>
<trkpt lat="45.7406930" lon="9.9882760">
	<ele>1163.80</ele>
	<time>2023-04-15T10:40:20.000Z</time>
</trkpt>
<trkpt lat="45.7407840" lon="9.9882940">
	<ele>1163.40</ele>
	<time>2023-04-15T10:40:29.000Z</time>
</trkpt>
<trkpt lat="45.7407970" lon="9.9882960">
	<ele>1163.40</ele>
	<time>2023-04-15T10:40:30.000Z</time>
</trkpt>
<trkpt lat="45.7408110" lon="9.9882910">
	<ele>1163.20</ele>
	<time>2023-04-15T10:40:32.000Z</time>
</trkpt>
<trkpt lat="45.7408200" lon="9.9882870">
	<ele>1163.00</ele>
	<time>2023-04-15T10:40:33.000Z</time>
</trkpt>
<trkpt lat="45.7408440" lon="9.9882840">
	<ele>1163.00</ele>
	<time>2023-04-15T10:40:35.000Z</time>
</trkpt>
<trkpt lat="45.7408900" lon="9.9882910">
	<ele>1162.60</ele>
	<time>2023-04-15T10:40:39.000Z</time>
</trkpt>
<trkpt lat="45.7409460" lon="9.9882940">
	<ele>1162.20</ele>
	<time>2023-04-15T10:40:41.000Z</time>
</trkpt>
<trkpt lat="45.7410250" lon="9.9883350">
	<ele>1161.40</ele>
	<time>2023-04-15T10:40:49.000Z</time>
</trkpt>
<trkpt lat="45.7410360" lon="9.9883420">
	<ele>1161.20</ele>
	<time>2023-04-15T10:40:50.000Z</time>
</trkpt>
<trkpt lat="45.7410690" lon="9.9883830">
	<ele>1160.60</ele>
	<time>2023-04-15T10:40:56.000Z</time>
</trkpt>
<trkpt lat="45.7411060" lon="9.9884020">
	<ele>1160.20</ele>
	<time>2023-04-15T10:40:59.000Z</time>
</trkpt>
<trkpt lat="45.7411670" lon="9.9884170">
	<ele>1159.80</ele>
	<time>2023-04-15T10:41:02.000Z</time>
</trkpt>
<trkpt lat="45.7412210" lon="9.9884710">
	<ele>1159.20</ele>
	<time>2023-04-15T10:41:08.000Z</time>
</trkpt>
<trkpt lat="45.7412300" lon="9.9884860">
	<ele>1158.80</ele>
	<time>2023-04-15T10:41:09.000Z</time>
</trkpt>
<trkpt lat="45.7412630" lon="9.9885080">
	<ele>1158.40</ele>
	<time>2023-04-15T10:41:12.000Z</time>
</trkpt>
<trkpt lat="45.7412940" lon="9.9885420">
	<ele>1158.00</ele>
	<time>2023-04-15T10:41:15.000Z</time>
</trkpt>
<trkpt lat="45.7413090" lon="9.9885510">
	<ele>1157.80</ele>
	<time>2023-04-15T10:41:16.000Z</time>
</trkpt>
<trkpt lat="45.7413420" lon="9.9885710">
	<ele>1157.40</ele>
	<time>2023-04-15T10:41:18.000Z</time>
</trkpt>
<trkpt lat="45.7413810" lon="9.9885980">
	<ele>1157.00</ele>
	<time>2023-04-15T10:41:20.000Z</time>
</trkpt>
<trkpt lat="45.7413870" lon="9.9886110">
	<ele>1156.80</ele>
	<time>2023-04-15T10:41:21.000Z</time>
</trkpt>
<trkpt lat="45.7414450" lon="9.9886690">
	<ele>1156.00</ele>
	<time>2023-04-15T10:41:26.000Z</time>
</trkpt>
<trkpt lat="45.7414520" lon="9.9886920">
	<ele>1156.00</ele>
	<time>2023-04-15T10:41:28.000Z</time>
</trkpt>
<trkpt lat="45.7414790" lon="9.9887150">
	<ele>1155.80</ele>
	<time>2023-04-15T10:41:30.000Z</time>
</trkpt>
<trkpt lat="45.7415220" lon="9.9887560">
	<ele>1155.60</ele>
	<time>2023-04-15T10:41:34.000Z</time>
</trkpt>
<trkpt lat="45.7415470" lon="9.9887730">
	<ele>1155.20</ele>
	<time>2023-04-15T10:41:36.000Z</time>
</trkpt>
<trkpt lat="45.7416130" lon="9.9888440">
	<ele>1154.80</ele>
	<time>2023-04-15T10:41:41.000Z</time>
</trkpt>
<trkpt lat="45.7416270" lon="9.9888600">
	<ele>1154.60</ele>
	<time>2023-04-15T10:41:42.000Z</time>
</trkpt>
<trkpt lat="45.7416410" lon="9.9888740">
	<ele>1154.60</ele>
	<time>2023-04-15T10:41:43.000Z</time>
</trkpt>
<trkpt lat="45.7416550" lon="9.9888880">
	<ele>1154.60</ele>
	<time>2023-04-15T10:41:44.000Z</time>
</trkpt>
<trkpt lat="45.7416970" lon="9.9889410">
	<ele>1154.40</ele>
	<time>2023-04-15T10:41:48.000Z</time>
</trkpt>
<trkpt lat="45.7417110" lon="9.9889690">
	<ele>1154.20</ele>
	<time>2023-04-15T10:41:50.000Z</time>
</trkpt>
<trkpt lat="45.7417390" lon="9.9890220">
	<ele>1153.60</ele>
	<time>2023-04-15T10:41:54.000Z</time>
</trkpt>
<trkpt lat="45.7417850" lon="9.9890780">
	<ele>1153.20</ele>
	<time>2023-04-15T10:41:59.000Z</time>
</trkpt>
<trkpt lat="45.7418080" lon="9.9891260">
	<ele>1153.00</ele>
	<time>2023-04-15T10:42:02.000Z</time>
</trkpt>
<trkpt lat="45.7418360" lon="9.9891620">
	<ele>1152.60</ele>
	<time>2023-04-15T10:42:05.000Z</time>
</trkpt>
<trkpt lat="45.7418380" lon="9.9891740">
	<ele>1152.60</ele>
	<time>2023-04-15T10:42:06.000Z</time>
</trkpt>
<trkpt lat="45.7418890" lon="9.9892800">
	<ele>1152.00</ele>
	<time>2023-04-15T10:42:13.000Z</time>
</trkpt>
<trkpt lat="45.7419550" lon="9.9893750">
	<ele>1151.60</ele>
	<time>2023-04-15T10:42:19.000Z</time>
</trkpt>
<trkpt lat="45.7419770" lon="9.9894050">
	<ele>1151.40</ele>
	<time>2023-04-15T10:42:21.000Z</time>
</trkpt>
<trkpt lat="45.7420410" lon="9.9895140">
	<ele>1150.80</ele>
	<time>2023-04-15T10:42:29.000Z</time>
</trkpt>
<trkpt lat="45.7420860" lon="9.9895840">
	<ele>1150.60</ele>
	<time>2023-04-15T10:42:34.000Z</time>
</trkpt>
<trkpt lat="45.7421070" lon="9.9896010">
	<ele>1150.20</ele>
	<time>2023-04-15T10:42:39.000Z</time>
</trkpt>
<trkpt lat="45.7421080" lon="9.9896020">
	<ele>1150.20</ele>
	<time>2023-04-15T10:42:40.000Z</time>
</trkpt>
<trkpt lat="45.7421110" lon="9.9896080">
	<ele>1150.40</ele>
	<time>2023-04-15T10:42:46.000Z</time>
</trkpt>
<trkpt lat="45.7421130" lon="9.9896100">
	<ele>1150.20</ele>
	<time>2023-04-15T10:42:53.000Z</time>
</trkpt>
<trkpt lat="45.7421130" lon="9.9896100">
	<ele>1150.00</ele>
	<time>2023-04-15T10:42:58.000Z</time>
</trkpt>
<trkpt lat="45.7421130" lon="9.9896100">
	<ele>1150.00</ele>
	<time>2023-04-15T10:43:01.000Z</time>
</trkpt>
<trkpt lat="45.7421110" lon="9.9896100">
	<ele>1150.20</ele>
	<time>2023-04-15T10:43:05.000Z</time>
</trkpt>
<trkpt lat="45.7421120" lon="9.9896150">
	<ele>1150.00</ele>
	<time>2023-04-15T10:43:12.000Z</time>
</trkpt>
<trkpt lat="45.7421360" lon="9.9896660">
	<ele>1149.40</ele>
	<time>2023-04-15T10:43:15.000Z</time>
</trkpt>
<trkpt lat="45.7421460" lon="9.9896830">
	<ele>1149.20</ele>
	<time>2023-04-15T10:43:16.000Z</time>
</trkpt>
<trkpt lat="45.7421710" lon="9.9897280">
	<ele>1149.00</ele>
	<time>2023-04-15T10:43:19.000Z</time>
</trkpt>
<trkpt lat="45.7421880" lon="9.9897540">
	<ele>1148.80</ele>
	<time>2023-04-15T10:43:25.000Z</time>
</trkpt>
<trkpt lat="45.7421880" lon="9.9897510">
	<ele>1149.00</ele>
	<time>2023-04-15T10:43:36.000Z</time>
</trkpt>
<trkpt lat="45.7422100" lon="9.9897940">
	<ele>1148.40</ele>
	<time>2023-04-15T10:43:42.000Z</time>
</trkpt>
<trkpt lat="45.7422320" lon="9.9898410">
	<ele>1147.80</ele>
	<time>2023-04-15T10:43:45.000Z</time>
</trkpt>
<trkpt lat="45.7422600" lon="9.9899070">
	<ele>1147.20</ele>
	<time>2023-04-15T10:43:48.000Z</time>
</trkpt>
<trkpt lat="45.7422830" lon="9.9899950">
	<ele>1146.40</ele>
	<time>2023-04-15T10:43:53.000Z</time>
</trkpt>
<trkpt lat="45.7422950" lon="9.9900480">
	<ele>1146.00</ele>
	<time>2023-04-15T10:43:56.000Z</time>
</trkpt>
<trkpt lat="45.7423220" lon="9.9901590">
	<ele>1145.00</ele>
	<time>2023-04-15T10:44:04.000Z</time>
</trkpt>
<trkpt lat="45.7423260" lon="9.9901750">
	<ele>1145.00</ele>
	<time>2023-04-15T10:44:05.000Z</time>
</trkpt>
<trkpt lat="45.7423510" lon="9.9902740">
	<ele>1144.00</ele>
	<time>2023-04-15T10:44:12.000Z</time>
</trkpt>
<trkpt lat="45.7423710" lon="9.9903500">
	<ele>1143.40</ele>
	<time>2023-04-15T10:44:17.000Z</time>
</trkpt>
<trkpt lat="45.7423830" lon="9.9903930">
	<ele>1142.80</ele>
	<time>2023-04-15T10:44:20.000Z</time>
</trkpt>
<trkpt lat="45.7424170" lon="9.9905090">
	<ele>1142.00</ele>
	<time>2023-04-15T10:44:26.000Z</time>
</trkpt>
<trkpt lat="45.7424240" lon="9.9905280">
	<ele>1141.80</ele>
	<time>2023-04-15T10:44:27.000Z</time>
</trkpt>
<trkpt lat="45.7424680" lon="9.9906400">
	<ele>1141.00</ele>
	<time>2023-04-15T10:44:34.000Z</time>
</trkpt>
<trkpt lat="45.7424710" lon="9.9906790">
	<ele>1140.80</ele>
	<time>2023-04-15T10:44:38.000Z</time>
</trkpt>
<trkpt lat="45.7424670" lon="9.9906930">
	<ele>1140.60</ele>
	<time>2023-04-15T10:44:39.000Z</time>
</trkpt>
<trkpt lat="45.7424610" lon="9.9907040">
	<ele>1140.60</ele>
	<time>2023-04-15T10:44:40.000Z</time>
</trkpt>
<trkpt lat="45.7424510" lon="9.9907200">
	<ele>1140.60</ele>
	<time>2023-04-15T10:44:43.000Z</time>
</trkpt>
<trkpt lat="45.7424510" lon="9.9907210">
	<ele>1140.80</ele>
	<time>2023-04-15T10:44:45.000Z</time>
</trkpt>
<trkpt lat="45.7424510" lon="9.9907210">
	<ele>1141.00</ele>
	<time>2023-04-15T10:44:47.000Z</time>
</trkpt>
<trkpt lat="45.7424520" lon="9.9907120">
	<ele>1140.60</ele>
	<time>2023-04-15T10:45:04.000Z</time>
</trkpt>
<trkpt lat="45.7424880" lon="9.9907480">
	<ele>1139.60</ele>
	<time>2023-04-15T10:45:13.000Z</time>
</trkpt>
<trkpt lat="45.7425220" lon="9.9907810">
	<ele>1139.40</ele>
	<time>2023-04-15T10:45:15.000Z</time>
</trkpt>
<trkpt lat="45.7425940" lon="9.9908680">
	<ele>1139.00</ele>
	<time>2023-04-15T10:45:20.000Z</time>
</trkpt>
<trkpt lat="45.7426100" lon="9.9908980">
	<ele>1139.00</ele>
	<time>2023-04-15T10:45:23.000Z</time>
</trkpt>
<trkpt lat="45.7426670" lon="9.9910290">
	<ele>1138.80</ele>
	<time>2023-04-15T10:45:34.000Z</time>
</trkpt>
<trkpt lat="45.7427330" lon="9.9911650">
	<ele>1139.40</ele>
	<time>2023-04-15T10:45:45.000Z</time>
</trkpt>
<trkpt lat="45.7427380" lon="9.9911760">
	<ele>1139.40</ele>
	<time>2023-04-15T10:45:46.000Z</time>
</trkpt>
<trkpt lat="45.7427980" lon="9.9912930">
	<ele>1139.00</ele>
	<time>2023-04-15T10:45:56.000Z</time>
</trkpt>
<trkpt lat="45.7428390" lon="9.9913510">
	<ele>1138.60</ele>
	<time>2023-04-15T10:46:00.000Z</time>
</trkpt>
<trkpt lat="45.7428610" lon="9.9913790">
	<ele>1138.60</ele>
	<time>2023-04-15T10:46:02.000Z</time>
</trkpt>
<trkpt lat="45.7428850" lon="9.9914480">
	<ele>1138.00</ele>
	<time>2023-04-15T10:46:08.000Z</time>
</trkpt>
<trkpt lat="45.7429380" lon="9.9915550">
	<ele>1137.80</ele>
	<time>2023-04-15T10:46:16.000Z</time>
</trkpt>
<trkpt lat="45.7429470" lon="9.9916290">
	<ele>1137.40</ele>
	<time>2023-04-15T10:46:23.000Z</time>
</trkpt>
<trkpt lat="45.7429690" lon="9.9916950">
	<ele>1137.00</ele>
	<time>2023-04-15T10:46:30.000Z</time>
</trkpt>
<trkpt lat="45.7429910" lon="9.9917220">
	<ele>1136.60</ele>
	<time>2023-04-15T10:46:34.000Z</time>
</trkpt>
<trkpt lat="45.7429920" lon="9.9917330">
	<ele>1136.40</ele>
	<time>2023-04-15T10:46:35.000Z</time>
</trkpt>
<trkpt lat="45.7429970" lon="9.9917410">
	<ele>1136.20</ele>
	<time>2023-04-15T10:46:36.000Z</time>
</trkpt>
<trkpt lat="45.7430100" lon="9.9918180">
	<ele>1135.20</ele>
	<time>2023-04-15T10:46:41.000Z</time>
</trkpt>
<trkpt lat="45.7430160" lon="9.9918490">
	<ele>1134.60</ele>
	<time>2023-04-15T10:46:44.000Z</time>
</trkpt>
<trkpt lat="45.7430260" lon="9.9918680">
	<ele>1134.20</ele>
	<time>2023-04-15T10:46:46.000Z</time>
</trkpt>
<trkpt lat="45.7430210" lon="9.9919090">
	<ele>1133.80</ele>
	<time>2023-04-15T10:46:49.000Z</time>
</trkpt>
<trkpt lat="45.7430210" lon="9.9919240">
	<ele>1133.40</ele>
	<time>2023-04-15T10:46:51.000Z</time>
</trkpt>
<trkpt lat="45.7430170" lon="9.9919580">
	<ele>1133.00</ele>
	<time>2023-04-15T10:46:53.000Z</time>
</trkpt>
<trkpt lat="45.7430200" lon="9.9919780">
	<ele>1133.00</ele>
	<time>2023-04-15T10:46:54.000Z</time>
</trkpt>
<trkpt lat="45.7430180" lon="9.9919950">
	<ele>1132.80</ele>
	<time>2023-04-15T10:46:55.000Z</time>
</trkpt>
<trkpt lat="45.7430180" lon="9.9920110">
	<ele>1132.60</ele>
	<time>2023-04-15T10:46:56.000Z</time>
</trkpt>
<trkpt lat="45.7430140" lon="9.9920490">
	<ele>1132.00</ele>
	<time>2023-04-15T10:46:59.000Z</time>
</trkpt>
<trkpt lat="45.7430200" lon="9.9920810">
	<ele>1131.20</ele>
	<time>2023-04-15T10:47:03.000Z</time>
</trkpt>
<trkpt lat="45.7430150" lon="9.9920920">
	<ele>1131.00</ele>
	<time>2023-04-15T10:47:04.000Z</time>
</trkpt>
<trkpt lat="45.7429780" lon="9.9921530">
	<ele>1130.20</ele>
	<time>2023-04-15T10:47:09.000Z</time>
</trkpt>
<trkpt lat="45.7429770" lon="9.9921700">
	<ele>1129.80</ele>
	<time>2023-04-15T10:47:10.000Z</time>
</trkpt>
<trkpt lat="45.7429860" lon="9.9922450">
	<ele>1128.80</ele>
	<time>2023-04-15T10:47:16.000Z</time>
</trkpt>
<trkpt lat="45.7429820" lon="9.9922770">
	<ele>1127.80</ele>
	<time>2023-04-15T10:47:20.000Z</time>
</trkpt>
<trkpt lat="45.7429750" lon="9.9922900">
	<ele>1127.20</ele>
	<time>2023-04-15T10:47:22.000Z</time>
</trkpt>
<trkpt lat="45.7429760" lon="9.9923050">
	<ele>1127.00</ele>
	<time>2023-04-15T10:47:24.000Z</time>
</trkpt>
<trkpt lat="45.7429770" lon="9.9923180">
	<ele>1126.80</ele>
	<time>2023-04-15T10:47:25.000Z</time>
</trkpt>
<trkpt lat="45.7429770" lon="9.9923260">
	<ele>1126.60</ele>
	<time>2023-04-15T10:47:26.000Z</time>
</trkpt>
<trkpt lat="45.7429890" lon="9.9923710">
	<ele>1126.00</ele>
	<time>2023-04-15T10:47:30.000Z</time>
</trkpt>
<trkpt lat="45.7429890" lon="9.9923850">
	<ele>1125.80</ele>
	<time>2023-04-15T10:47:31.000Z</time>
</trkpt>
<trkpt lat="45.7429970" lon="9.9924460">
	<ele>1124.80</ele>
	<time>2023-04-15T10:47:36.000Z</time>
</trkpt>
<trkpt lat="45.7429970" lon="9.9924650">
	<ele>1124.60</ele>
	<time>2023-04-15T10:47:37.000Z</time>
</trkpt>
<trkpt lat="45.7430010" lon="9.9924920">
	<ele>1123.80</ele>
	<time>2023-04-15T10:47:40.000Z</time>
</trkpt>
<trkpt lat="45.7430040" lon="9.9925090">
	<ele>1123.40</ele>
	<time>2023-04-15T10:47:42.000Z</time>
</trkpt>
<trkpt lat="45.7430120" lon="9.9925240">
	<ele>1123.20</ele>
	<time>2023-04-15T10:47:43.000Z</time>
</trkpt>
<trkpt lat="45.7430230" lon="9.9925460">
	<ele>1122.80</ele>
	<time>2023-04-15T10:47:45.000Z</time>
</trkpt>
<trkpt lat="45.7430340" lon="9.9925940">
	<ele>1122.20</ele>
	<time>2023-04-15T10:47:48.000Z</time>
</trkpt>
<trkpt lat="45.7430360" lon="9.9926210">
	<ele>1122.00</ele>
	<time>2023-04-15T10:47:50.000Z</time>
</trkpt>
<trkpt lat="45.7430340" lon="9.9926910">
	<ele>1121.20</ele>
	<time>2023-04-15T10:47:55.000Z</time>
</trkpt>
<trkpt lat="45.7430420" lon="9.9927460">
	<ele>1120.00</ele>
	<time>2023-04-15T10:48:00.000Z</time>
</trkpt>
<trkpt lat="45.7430450" lon="9.9928260">
	<ele>1118.80</ele>
	<time>2023-04-15T10:48:05.000Z</time>
</trkpt>
<trkpt lat="45.7430320" lon="9.9929170">
	<ele>1117.80</ele>
	<time>2023-04-15T10:48:11.000Z</time>
</trkpt>
<trkpt lat="45.7430230" lon="9.9929400">
	<ele>1117.40</ele>
	<time>2023-04-15T10:48:13.000Z</time>
</trkpt>
<trkpt lat="45.7429920" lon="9.9930160">
	<ele>1116.60</ele>
	<time>2023-04-15T10:48:18.000Z</time>
</trkpt>
<trkpt lat="45.7429780" lon="9.9930570">
	<ele>1116.00</ele>
	<time>2023-04-15T10:48:22.000Z</time>
</trkpt>
<trkpt lat="45.7429690" lon="9.9930620">
	<ele>1115.80</ele>
	<time>2023-04-15T10:48:23.000Z</time>
</trkpt>
<trkpt lat="45.7429520" lon="9.9930740">
	<ele>1115.40</ele>
	<time>2023-04-15T10:48:25.000Z</time>
</trkpt>
<trkpt lat="45.7429430" lon="9.9931040">
	<ele>1114.80</ele>
	<time>2023-04-15T10:48:28.000Z</time>
</trkpt>
<trkpt lat="45.7429420" lon="9.9931300">
	<ele>1114.20</ele>
	<time>2023-04-15T10:48:30.000Z</time>
</trkpt>
<trkpt lat="45.7429230" lon="9.9931960">
	<ele>1113.00</ele>
	<time>2023-04-15T10:48:36.000Z</time>
</trkpt>
<trkpt lat="45.7429120" lon="9.9932130">
	<ele>1112.40</ele>
	<time>2023-04-15T10:48:38.000Z</time>
</trkpt>
<trkpt lat="45.7429050" lon="9.9932380">
	<ele>1111.80</ele>
	<time>2023-04-15T10:48:40.000Z</time>
</trkpt>
<trkpt lat="45.7428920" lon="9.9932680">
	<ele>1111.00</ele>
	<time>2023-04-15T10:48:46.000Z</time>
</trkpt>
<trkpt lat="45.7428940" lon="9.9932670">
	<ele>1110.80</ele>
	<time>2023-04-15T10:48:58.000Z</time>
</trkpt>
<trkpt lat="45.7428940" lon="9.9932670">
	<ele>1110.60</ele>
	<time>2023-04-15T10:48:59.000Z</time>
</trkpt>
<trkpt lat="45.7428930" lon="9.9932680">
	<ele>1109.40</ele>
	<time>2023-04-15T10:49:06.000Z</time>
</trkpt>
<trkpt lat="45.7428920" lon="9.9932680">
	<ele>1109.20</ele>
	<time>2023-04-15T10:49:09.000Z</time>
</trkpt>
<trkpt lat="45.7428920" lon="9.9932680">
	<ele>1108.80</ele>
	<time>2023-04-15T10:49:10.000Z</time>
</trkpt>
<trkpt lat="45.7428880" lon="9.9932790">
	<ele>1108.40</ele>
	<time>2023-04-15T10:49:13.000Z</time>
</trkpt>
<trkpt lat="45.7428540" lon="9.9933920">
	<ele>1107.20</ele>
	<time>2023-04-15T10:49:19.000Z</time>
</trkpt>
<trkpt lat="45.7428500" lon="9.9934100">
	<ele>1107.20</ele>
	<time>2023-04-15T10:49:20.000Z</time>
</trkpt>
<trkpt lat="45.7428410" lon="9.9934950">
	<ele>1106.20</ele>
	<time>2023-04-15T10:49:26.000Z</time>
</trkpt>
<trkpt lat="45.7428410" lon="9.9935100">
	<ele>1105.80</ele>
	<time>2023-04-15T10:49:27.000Z</time>
</trkpt>
<trkpt lat="45.7428380" lon="9.9935360">
	<ele>1105.60</ele>
	<time>2023-04-15T10:49:29.000Z</time>
</trkpt>
<trkpt lat="45.7428360" lon="9.9935480">
	<ele>1105.00</ele>
	<time>2023-04-15T10:49:30.000Z</time>
</trkpt>
<trkpt lat="45.7428310" lon="9.9935560">
	<ele>1104.80</ele>
	<time>2023-04-15T10:49:31.000Z</time>
</trkpt>
<trkpt lat="45.7428240" lon="9.9935850">
	<ele>1104.20</ele>
	<time>2023-04-15T10:49:34.000Z</time>
</trkpt>
<trkpt lat="45.7428230" lon="9.9935990">
	<ele>1104.00</ele>
	<time>2023-04-15T10:49:35.000Z</time>
</trkpt>
<trkpt lat="45.7428200" lon="9.9936100">
	<ele>1103.80</ele>
	<time>2023-04-15T10:49:36.000Z</time>
</trkpt>
<trkpt lat="45.7428080" lon="9.9936330">
	<ele>1103.20</ele>
	<time>2023-04-15T10:49:39.000Z</time>
</trkpt>
<trkpt lat="45.7428070" lon="9.9936590">
	<ele>1102.80</ele>
	<time>2023-04-15T10:49:41.000Z</time>
</trkpt>
<trkpt lat="45.7428020" lon="9.9936910">
	<ele>1102.20</ele>
	<time>2023-04-15T10:49:44.000Z</time>
</trkpt>
<trkpt lat="45.7427990" lon="9.9937130">
	<ele>1101.60</ele>
	<time>2023-04-15T10:49:46.000Z</time>
</trkpt>
<trkpt lat="45.7427980" lon="9.9937350">
	<ele>1101.20</ele>
	<time>2023-04-15T10:49:49.000Z</time>
</trkpt>
<trkpt lat="45.7428050" lon="9.9937860">
	<ele>1100.20</ele>
	<time>2023-04-15T10:49:53.000Z</time>
</trkpt>
<trkpt lat="45.7428070" lon="9.9937990">
	<ele>1100.00</ele>
	<time>2023-04-15T10:49:54.000Z</time>
</trkpt>
<trkpt lat="45.7428060" lon="9.9938220">
	<ele>1099.20</ele>
	<time>2023-04-15T10:49:56.000Z</time>
</trkpt>
<trkpt lat="45.7427990" lon="9.9938600">
	<ele>1098.60</ele>
	<time>2023-04-15T10:49:59.000Z</time>
</trkpt>
<trkpt lat="45.7427830" lon="9.9938880">
	<ele>1098.00</ele>
	<time>2023-04-15T10:50:02.000Z</time>
</trkpt>
<trkpt lat="45.7427630" lon="9.9939180">
	<ele>1096.80</ele>
	<time>2023-04-15T10:50:07.000Z</time>
</trkpt>
<trkpt lat="45.7427590" lon="9.9939600">
	<ele>1095.80</ele>
	<time>2023-04-15T10:50:11.000Z</time>
</trkpt>
<trkpt lat="45.7427600" lon="9.9940170">
	<ele>1094.60</ele>
	<time>2023-04-15T10:50:16.000Z</time>
</trkpt>
<trkpt lat="45.7427540" lon="9.9940420">
	<ele>1093.20</ele>
	<time>2023-04-15T10:50:19.000Z</time>
</trkpt>
<trkpt lat="45.7427530" lon="9.9941040">
	<ele>1092.00</ele>
	<time>2023-04-15T10:50:24.000Z</time>
</trkpt>
<trkpt lat="45.7427490" lon="9.9941540">
	<ele>1091.00</ele>
	<time>2023-04-15T10:50:28.000Z</time>
</trkpt>
<trkpt lat="45.7427450" lon="9.9942070">
	<ele>1090.00</ele>
	<time>2023-04-15T10:50:32.000Z</time>
</trkpt>
<trkpt lat="45.7427450" lon="9.9942230">
	<ele>1089.80</ele>
	<time>2023-04-15T10:50:33.000Z</time>
</trkpt>
<trkpt lat="45.7427390" lon="9.9942510">
	<ele>1089.60</ele>
	<time>2023-04-15T10:50:35.000Z</time>
</trkpt>
<trkpt lat="45.7427330" lon="9.9942880">
	<ele>1089.00</ele>
	<time>2023-04-15T10:50:38.000Z</time>
</trkpt>
<trkpt lat="45.7427250" lon="9.9943510">
	<ele>1087.40</ele>
	<time>2023-04-15T10:50:42.000Z</time>
</trkpt>
<trkpt lat="45.7427290" lon="9.9943660">
	<ele>1087.00</ele>
	<time>2023-04-15T10:50:43.000Z</time>
</trkpt>
<trkpt lat="45.7427320" lon="9.9943830">
	<ele>1086.20</ele>
	<time>2023-04-15T10:50:44.000Z</time>
</trkpt>
<trkpt lat="45.7427230" lon="9.9944600">
	<ele>1084.80</ele>
	<time>2023-04-15T10:50:48.000Z</time>
</trkpt>
<trkpt lat="45.7427180" lon="9.9944990">
	<ele>1083.20</ele>
	<time>2023-04-15T10:50:50.000Z</time>
</trkpt>
<trkpt lat="45.7427180" lon="9.9945220">
	<ele>1082.80</ele>
	<time>2023-04-15T10:50:51.000Z</time>
</trkpt>
<trkpt lat="45.7427170" lon="9.9945470">
	<ele>1082.20</ele>
	<time>2023-04-15T10:50:52.000Z</time>
</trkpt>
<trkpt lat="45.7427180" lon="9.9945930">
	<ele>1080.60</ele>
	<time>2023-04-15T10:50:54.000Z</time>
</trkpt>
<trkpt lat="45.7427200" lon="9.9946330">
	<ele>1079.60</ele>
	<time>2023-04-15T10:50:56.000Z</time>
</trkpt>
<trkpt lat="45.7427200" lon="9.9946960">
	<ele>1078.00</ele>
	<time>2023-04-15T10:50:59.000Z</time>
</trkpt>
<trkpt lat="45.7427160" lon="9.9947130">
	<ele>1077.80</ele>
	<time>2023-04-15T10:51:00.000Z</time>
</trkpt>
<trkpt lat="45.7427090" lon="9.9947330">
	<ele>1077.00</ele>
	<time>2023-04-15T10:51:02.000Z</time>
</trkpt>
<trkpt lat="45.7427060" lon="9.9947370">
	<ele>1076.60</ele>
	<time>2023-04-15T10:51:03.000Z</time>
</trkpt>
<trkpt lat="45.7427060" lon="9.9947470">
	<ele>1076.20</ele>
	<time>2023-04-15T10:51:04.000Z</time>
</trkpt>
<trkpt lat="45.7427060" lon="9.9947560">
	<ele>1076.00</ele>
	<time>2023-04-15T10:51:05.000Z</time>
</trkpt>
<trkpt lat="45.7427070" lon="9.9947820">
	<ele>1075.40</ele>
	<time>2023-04-15T10:51:07.000Z</time>
</trkpt>
<trkpt lat="45.7427070" lon="9.9948190">
	<ele>1074.40</ele>
	<time>2023-04-15T10:51:10.000Z</time>
</trkpt>
<trkpt lat="45.7427030" lon="9.9948450">
	<ele>1074.00</ele>
	<time>2023-04-15T10:51:12.000Z</time>
</trkpt>
<trkpt lat="45.7427010" lon="9.9948580">
	<ele>1073.60</ele>
	<time>2023-04-15T10:51:13.000Z</time>
</trkpt>
<trkpt lat="45.7427000" lon="9.9948690">
	<ele>1073.40</ele>
	<time>2023-04-15T10:51:14.000Z</time>
</trkpt>
<trkpt lat="45.7426920" lon="9.9949220">
	<ele>1072.20</ele>
	<time>2023-04-15T10:51:18.000Z</time>
</trkpt>
<trkpt lat="45.7426870" lon="9.9949630">
	<ele>1071.20</ele>
	<time>2023-04-15T10:51:22.000Z</time>
</trkpt>
<trkpt lat="45.7426860" lon="9.9949680">
	<ele>1070.80</ele>
	<time>2023-04-15T10:51:24.000Z</time>
</trkpt>
<trkpt lat="45.7426860" lon="9.9949690">
	<ele>1070.20</ele>
	<time>2023-04-15T10:51:43.000Z</time>
</trkpt>
<trkpt lat="45.7426860" lon="9.9949690">
	<ele>1070.00</ele>
	<time>2023-04-15T10:51:44.000Z</time>
</trkpt>
<trkpt lat="45.7426880" lon="9.9949930">
	<ele>1069.60</ele>
	<time>2023-04-15T10:51:46.000Z</time>
</trkpt>
<trkpt lat="45.7426890" lon="9.9950160">
	<ele>1069.60</ele>
	<time>2023-04-15T10:51:47.000Z</time>
</trkpt>
<trkpt lat="45.7426870" lon="9.9950970">
	<ele>1068.80</ele>
	<time>2023-04-15T10:51:51.000Z</time>
</trkpt>
<trkpt lat="45.7426900" lon="9.9951450">
	<ele>1068.20</ele>
	<time>2023-04-15T10:51:54.000Z</time>
</trkpt>
<trkpt lat="45.7426840" lon="9.9951720">
	<ele>1067.60</ele>
	<time>2023-04-15T10:51:56.000Z</time>
</trkpt>
<trkpt lat="45.7426770" lon="9.9952110">
	<ele>1066.40</ele>
	<time>2023-04-15T10:51:59.000Z</time>
</trkpt>
<trkpt lat="45.7426760" lon="9.9952280">
	<ele>1066.20</ele>
	<time>2023-04-15T10:52:00.000Z</time>
</trkpt>
<trkpt lat="45.7426670" lon="9.9952870">
	<ele>1065.40</ele>
	<time>2023-04-15T10:52:04.000Z</time>
</trkpt>
<trkpt lat="45.7426620" lon="9.9953540">
	<ele>1064.20</ele>
	<time>2023-04-15T10:52:09.000Z</time>
</trkpt>
<trkpt lat="45.7426640" lon="9.9953700">
	<ele>1064.00</ele>
	<time>2023-04-15T10:52:10.000Z</time>
</trkpt>
<trkpt lat="45.7426660" lon="9.9954140">
	<ele>1063.20</ele>
	<time>2023-04-15T10:52:13.000Z</time>
</trkpt>
<trkpt lat="45.7426620" lon="9.9954830">
	<ele>1062.20</ele>
	<time>2023-04-15T10:52:18.000Z</time>
</trkpt>
<trkpt lat="45.7426530" lon="9.9955700">
	<ele>1061.00</ele>
	<time>2023-04-15T10:52:23.000Z</time>
</trkpt>
<trkpt lat="45.7426540" lon="9.9956170">
	<ele>1060.60</ele>
	<time>2023-04-15T10:52:26.000Z</time>
</trkpt>
<trkpt lat="45.7426550" lon="9.9956610">
	<ele>1060.00</ele>
	<time>2023-04-15T10:52:29.000Z</time>
</trkpt>
<trkpt lat="45.7426550" lon="9.9957550">
	<ele>1059.00</ele>
	<time>2023-04-15T10:52:35.000Z</time>
</trkpt>
<trkpt lat="45.7426370" lon="9.9958790">
	<ele>1058.00</ele>
	<time>2023-04-15T10:52:43.000Z</time>
</trkpt>
<trkpt lat="45.7426380" lon="9.9958920">
	<ele>1058.00</ele>
	<time>2023-04-15T10:52:44.000Z</time>
</trkpt>
<trkpt lat="45.7426420" lon="9.9959290">
	<ele>1057.60</ele>
	<time>2023-04-15T10:52:47.000Z</time>
</trkpt>
<trkpt lat="45.7426400" lon="9.9959620">
	<ele>1057.20</ele>
	<time>2023-04-15T10:52:49.000Z</time>
</trkpt>
<trkpt lat="45.7426450" lon="9.9960170">
	<ele>1056.60</ele>
	<time>2023-04-15T10:52:52.000Z</time>
</trkpt>
<trkpt lat="45.7426440" lon="9.9960980">
	<ele>1055.80</ele>
	<time>2023-04-15T10:52:57.000Z</time>
</trkpt>
<trkpt lat="45.7426400" lon="9.9961140">
	<ele>1055.60</ele>
	<time>2023-04-15T10:52:58.000Z</time>
</trkpt>
<trkpt lat="45.7426380" lon="9.9961320">
	<ele>1055.40</ele>
	<time>2023-04-15T10:52:59.000Z</time>
</trkpt>
<trkpt lat="45.7426260" lon="9.9962340">
	<ele>1054.40</ele>
	<time>2023-04-15T10:53:06.000Z</time>
</trkpt>
<trkpt lat="45.7426210" lon="9.9962630">
	<ele>1054.20</ele>
	<time>2023-04-15T10:53:08.000Z</time>
</trkpt>
<trkpt lat="45.7426190" lon="9.9962800">
	<ele>1053.80</ele>
	<time>2023-04-15T10:53:09.000Z</time>
</trkpt>
<trkpt lat="45.7426200" lon="9.9963270">
	<ele>1053.40</ele>
	<time>2023-04-15T10:53:12.000Z</time>
</trkpt>
<trkpt lat="45.7426240" lon="9.9964130">
	<ele>1052.40</ele>
	<time>2023-04-15T10:53:17.000Z</time>
</trkpt>
<trkpt lat="45.7426350" lon="9.9964720">
	<ele>1051.40</ele>
	<time>2023-04-15T10:53:21.000Z</time>
</trkpt>
<trkpt lat="45.7426360" lon="9.9964910">
	<ele>1051.20</ele>
	<time>2023-04-15T10:53:22.000Z</time>
</trkpt>
<trkpt lat="45.7426310" lon="9.9965460">
	<ele>1050.60</ele>
	<time>2023-04-15T10:53:25.000Z</time>
</trkpt>
<trkpt lat="45.7426330" lon="9.9965730">
	<ele>1050.00</ele>
	<time>2023-04-15T10:53:27.000Z</time>
</trkpt>
<trkpt lat="45.7426350" lon="9.9965950">
	<ele>1049.40</ele>
	<time>2023-04-15T10:53:29.000Z</time>
</trkpt>
<trkpt lat="45.7426310" lon="9.9966340">
	<ele>1048.80</ele>
	<time>2023-04-15T10:53:32.000Z</time>
</trkpt>
<trkpt lat="45.7426300" lon="9.9966600">
	<ele>1048.20</ele>
	<time>2023-04-15T10:53:36.000Z</time>
</trkpt>
<trkpt lat="45.7426290" lon="9.9966640">
	<ele>1048.00</ele>
	<time>2023-04-15T10:53:40.000Z</time>
</trkpt>
<trkpt lat="45.7426330" lon="9.9967120">
	<ele>1047.40</ele>
	<time>2023-04-15T10:53:45.000Z</time>
</trkpt>
<trkpt lat="45.7426370" lon="9.9967450">
	<ele>1047.00</ele>
	<time>2023-04-15T10:53:47.000Z</time>
</trkpt>
<trkpt lat="45.7426350" lon="9.9968230">
	<ele>1046.20</ele>
	<time>2023-04-15T10:53:52.000Z</time>
</trkpt>
<trkpt lat="45.7426340" lon="9.9968800">
	<ele>1045.60</ele>
	<time>2023-04-15T10:53:55.000Z</time>
</trkpt>
<trkpt lat="45.7426350" lon="9.9969130">
	<ele>1045.20</ele>
	<time>2023-04-15T10:53:57.000Z</time>
</trkpt>
<trkpt lat="45.7426350" lon="9.9969710">
	<ele>1044.00</ele>
	<time>2023-04-15T10:54:01.000Z</time>
</trkpt>
<trkpt lat="45.7426400" lon="9.9970520">
	<ele>1043.20</ele>
	<time>2023-04-15T10:54:06.000Z</time>
</trkpt>
<trkpt lat="45.7426380" lon="9.9970870">
	<ele>1043.00</ele>
	<time>2023-04-15T10:54:08.000Z</time>
</trkpt>
<trkpt lat="45.7426330" lon="9.9971670">
	<ele>1042.20</ele>
	<time>2023-04-15T10:54:14.000Z</time>
</trkpt>
<trkpt lat="45.7426310" lon="9.9971830">
	<ele>1042.00</ele>
	<time>2023-04-15T10:54:15.000Z</time>
</trkpt>
<trkpt lat="45.7426350" lon="9.9972410">
	<ele>1041.60</ele>
	<time>2023-04-15T10:54:18.000Z</time>
</trkpt>
<trkpt lat="45.7426380" lon="9.9972910">
	<ele>1041.20</ele>
	<time>2023-04-15T10:54:21.000Z</time>
</trkpt>
<trkpt lat="45.7426390" lon="9.9973030">
	<ele>1041.00</ele>
	<time>2023-04-15T10:54:22.000Z</time>
</trkpt>
<trkpt lat="45.7426420" lon="9.9973700">
	<ele>1039.80</ele>
	<time>2023-04-15T10:54:26.000Z</time>
</trkpt>
<trkpt lat="45.7426420" lon="9.9974700">
	<ele>1038.60</ele>
	<time>2023-04-15T10:54:33.000Z</time>
</trkpt>
<trkpt lat="45.7426450" lon="9.9975220">
	<ele>1037.40</ele>
	<time>2023-04-15T10:54:37.000Z</time>
</trkpt>
<trkpt lat="45.7426270" lon="9.9976090">
	<ele>1036.40</ele>
	<time>2023-04-15T10:54:43.000Z</time>
</trkpt>
<trkpt lat="45.7426270" lon="9.9976250">
	<ele>1036.20</ele>
	<time>2023-04-15T10:54:44.000Z</time>
</trkpt>
<trkpt lat="45.7426180" lon="9.9976590">
	<ele>1035.20</ele>
	<time>2023-04-15T10:54:47.000Z</time>
</trkpt>
<trkpt lat="45.7426190" lon="9.9977200">
	<ele>1034.00</ele>
	<time>2023-04-15T10:54:51.000Z</time>
</trkpt>
<trkpt lat="45.7426200" lon="9.9977360">
	<ele>1034.00</ele>
	<time>2023-04-15T10:54:52.000Z</time>
</trkpt>
<trkpt lat="45.7426050" lon="9.9977960">
	<ele>1033.00</ele>
	<time>2023-04-15T10:54:57.000Z</time>
</trkpt>
<trkpt lat="45.7425880" lon="9.9978560">
	<ele>1031.80</ele>
	<time>2023-04-15T10:55:01.000Z</time>
</trkpt>
<trkpt lat="45.7425850" lon="9.9978750">
	<ele>1031.60</ele>
	<time>2023-04-15T10:55:02.000Z</time>
</trkpt>
<trkpt lat="45.7425860" lon="9.9979560">
	<ele>1030.60</ele>
	<time>2023-04-15T10:55:07.000Z</time>
</trkpt>
<trkpt lat="45.7425790" lon="9.9979980">
	<ele>1030.40</ele>
	<time>2023-04-15T10:55:10.000Z</time>
</trkpt>
<trkpt lat="45.7425740" lon="9.9980360">
	<ele>1029.80</ele>
	<time>2023-04-15T10:55:12.000Z</time>
</trkpt>
<trkpt lat="45.7425780" lon="9.9980550">
	<ele>1029.60</ele>
	<time>2023-04-15T10:55:13.000Z</time>
</trkpt>
<trkpt lat="45.7425820" lon="9.9981070">
	<ele>1028.60</ele>
	<time>2023-04-15T10:55:16.000Z</time>
</trkpt>
<trkpt lat="45.7425810" lon="9.9981220">
	<ele>1028.40</ele>
	<time>2023-04-15T10:55:17.000Z</time>
</trkpt>
<trkpt lat="45.7425790" lon="9.9981660">
	<ele>1027.60</ele>
	<time>2023-04-15T10:55:22.000Z</time>
</trkpt>
<trkpt lat="45.7425760" lon="9.9981680">
	<ele>1027.60</ele>
	<time>2023-04-15T10:55:23.000Z</time>
</trkpt>
<trkpt lat="45.7425710" lon="9.9981700">
	<ele>1027.60</ele>
	<time>2023-04-15T10:55:27.000Z</time>
</trkpt>
<trkpt lat="45.7425730" lon="9.9981710">
	<ele>1027.80</ele>
	<time>2023-04-15T10:55:30.000Z</time>
</trkpt>
<trkpt lat="45.7425730" lon="9.9981700">
	<ele>1027.20</ele>
	<time>2023-04-15T10:55:46.000Z</time>
</trkpt>
<trkpt lat="45.7425590" lon="9.9982070">
	<ele>1026.60</ele>
	<time>2023-04-15T10:55:53.000Z</time>
</trkpt>
<trkpt lat="45.7425560" lon="9.9982140">
	<ele>1026.60</ele>
	<time>2023-04-15T10:55:54.000Z</time>
</trkpt>
<trkpt lat="45.7425500" lon="9.9982530">
	<ele>1026.20</ele>
	<time>2023-04-15T10:56:00.000Z</time>
</trkpt>
<trkpt lat="45.7425260" lon="9.9982590">
	<ele>1025.60</ele>
	<time>2023-04-15T10:56:08.000Z</time>
</trkpt>
<trkpt lat="45.7425180" lon="9.9982620">
	<ele>1025.60</ele>
	<time>2023-04-15T10:56:24.000Z</time>
</trkpt>
<trkpt lat="45.7425190" lon="9.9982690">
	<ele>1025.20</ele>
	<time>2023-04-15T10:56:27.000Z</time>
</trkpt>
<trkpt lat="45.7425220" lon="9.9983100">
	<ele>1025.00</ele>
	<time>2023-04-15T10:56:29.000Z</time>
</trkpt>
<trkpt lat="45.7425330" lon="9.9984530">
	<ele>1024.60</ele>
	<time>2023-04-15T10:56:35.000Z</time>
</trkpt>
<trkpt lat="45.7425510" lon="9.9985750">
	<ele>1024.40</ele>
	<time>2023-04-15T10:56:42.000Z</time>
</trkpt>
<trkpt lat="45.7425670" lon="9.9986760">
	<ele>1024.00</ele>
	<time>2023-04-15T10:56:47.000Z</time>
</trkpt>
<trkpt lat="45.7425670" lon="9.9987690">
	<ele>1023.80</ele>
	<time>2023-04-15T10:56:52.000Z</time>
</trkpt>
<trkpt lat="45.7425720" lon="9.9988230">
	<ele>1023.60</ele>
	<time>2023-04-15T10:56:55.000Z</time>
</trkpt>
<trkpt lat="45.7425710" lon="9.9988770">
	<ele>1023.60</ele>
	<time>2023-04-15T10:56:58.000Z</time>
</trkpt>
<trkpt lat="45.7425590" lon="9.9989420">
	<ele>1023.40</ele>
	<time>2023-04-15T10:57:02.000Z</time>
</trkpt>
<trkpt lat="45.7425490" lon="9.9990650">
	<ele>1022.60</ele>
	<time>2023-04-15T10:57:11.000Z</time>
</trkpt>
<trkpt lat="45.7425470" lon="9.9991010">
	<ele>1022.20</ele>
	<time>2023-04-15T10:57:13.000Z</time>
</trkpt>
<trkpt lat="45.7425650" lon="9.9991620">
	<ele>1021.40</ele>
	<time>2023-04-15T10:57:18.000Z</time>
</trkpt>
<trkpt lat="45.7426010" lon="9.9992550">
	<ele>1022.40</ele>
	<time>2023-04-15T10:57:24.000Z</time>
</trkpt>
<trkpt lat="45.7426000" lon="9.9992640">
	<ele>1022.60</ele>
	<time>2023-04-15T10:57:27.000Z</time>
</trkpt>
<trkpt lat="45.7425850" lon="9.9992110">
	<ele>1022.60</ele>
	<time>2023-04-15T10:57:34.000Z</time>
</trkpt>
<trkpt lat="45.7425900" lon="9.9992580">
	<ele>1022.60</ele>
	<time>2023-04-15T10:57:44.000Z</time>
</trkpt>
<trkpt lat="45.7425900" lon="9.9993210">
	<ele>1022.60</ele>
	<time>2023-04-15T10:57:47.000Z</time>
</trkpt>
<trkpt lat="45.7426000" lon="9.9994360">
	<ele>1022.80</ele>
	<time>2023-04-15T10:57:53.000Z</time>
</trkpt>
<trkpt lat="45.7426110" lon="9.9995210">
	<ele>1023.00</ele>
	<time>2023-04-15T10:58:00.000Z</time>
</trkpt>
<trkpt lat="45.7426100" lon="9.9995370">
	<ele>1023.20</ele>
	<time>2023-04-15T10:58:01.000Z</time>
</trkpt>
<trkpt lat="45.7426080" lon="9.9995570">
	<ele>1023.40</ele>
	<time>2023-04-15T10:58:02.000Z</time>
</trkpt>
<trkpt lat="45.7426210" lon="9.9996700">
	<ele>1024.20</ele>
	<time>2023-04-15T10:58:09.000Z</time>
</trkpt>
<trkpt lat="45.7426220" lon="9.9996900">
	<ele>1024.40</ele>
	<time>2023-04-15T10:58:10.000Z</time>
</trkpt>
<trkpt lat="45.7426200" lon="9.9997110">
	<ele>1024.40</ele>
	<time>2023-04-15T10:58:11.000Z</time>
</trkpt>
<trkpt lat="45.7426220" lon="9.9997970">
	<ele>1024.80</ele>
	<time>2023-04-15T10:58:16.000Z</time>
</trkpt>
<trkpt lat="45.7426270" lon="9.9998450">
	<ele>1025.60</ele>
	<time>2023-04-15T10:58:20.000Z</time>
</trkpt>
<trkpt lat="45.7426270" lon="9.9998590">
	<ele>1025.60</ele>
	<time>2023-04-15T10:58:21.000Z</time>
</trkpt>
<trkpt lat="45.7426360" lon="9.9998760">
	<ele>1026.00</ele>
	<time>2023-04-15T10:58:23.000Z</time>
</trkpt>
<trkpt lat="45.7426320" lon="9.9999010">
	<ele>1026.60</ele>
	<time>2023-04-15T10:58:26.000Z</time>
</trkpt>
<trkpt lat="45.7426210" lon="9.9999370">
	<ele>1027.20</ele>
	<time>2023-04-15T10:58:29.000Z</time>
</trkpt>
<trkpt lat="45.7426130" lon="9.9999620">
	<ele>1027.40</ele>
	<time>2023-04-15T10:58:31.000Z</time>
</trkpt>
<trkpt lat="45.7426190" lon="9.9999810">
	<ele>1027.80</ele>
	<time>2023-04-15T10:58:33.000Z</time>
</trkpt>
<trkpt lat="45.7426190" lon="10.0000620">
	<ele>1028.40</ele>
	<time>2023-04-15T10:58:37.000Z</time>
</trkpt>
<trkpt lat="45.7426260" lon="10.0001250">
	<ele>1028.80</ele>
	<time>2023-04-15T10:58:41.000Z</time>
</trkpt>
<trkpt lat="45.7426200" lon="10.0001400">
	<ele>1029.20</ele>
	<time>2023-04-15T10:58:43.000Z</time>
</trkpt>
<trkpt lat="45.7426170" lon="10.0001680">
	<ele>1029.20</ele>
	<time>2023-04-15T10:58:45.000Z</time>
</trkpt>
<trkpt lat="45.7426180" lon="10.0001980">
	<ele>1029.80</ele>
	<time>2023-04-15T10:58:48.000Z</time>
</trkpt>
<trkpt lat="45.7426240" lon="10.0002250">
	<ele>1030.20</ele>
	<time>2023-04-15T10:58:50.000Z</time>
</trkpt>
<trkpt lat="45.7426190" lon="10.0002400">
	<ele>1031.00</ele>
	<time>2023-04-15T10:58:53.000Z</time>
</trkpt>
<trkpt lat="45.7426220" lon="10.0002800">
	<ele>1031.60</ele>
	<time>2023-04-15T10:58:56.000Z</time>
</trkpt>
<trkpt lat="45.7426200" lon="10.0003010">
	<ele>1031.80</ele>
	<time>2023-04-15T10:58:58.000Z</time>
</trkpt>
<trkpt lat="45.7426210" lon="10.0003110">
	<ele>1032.00</ele>
	<time>2023-04-15T10:58:59.000Z</time>
</trkpt>
<trkpt lat="45.7426260" lon="10.0003230">
	<ele>1032.20</ele>
	<time>2023-04-15T10:59:00.000Z</time>
</trkpt>
<trkpt lat="45.7426410" lon="10.0003550">
	<ele>1032.40</ele>
	<time>2023-04-15T10:59:02.000Z</time>
</trkpt>
<trkpt lat="45.7426380" lon="10.0003690">
	<ele>1032.60</ele>
	<time>2023-04-15T10:59:03.000Z</time>
</trkpt>
<trkpt lat="45.7426430" lon="10.0003860">
	<ele>1033.00</ele>
	<time>2023-04-15T10:59:04.000Z</time>
</trkpt>
<trkpt lat="45.7426410" lon="10.0003970">
	<ele>1033.20</ele>
	<time>2023-04-15T10:59:05.000Z</time>
</trkpt>
<trkpt lat="45.7426430" lon="10.0004250">
	<ele>1033.40</ele>
	<time>2023-04-15T10:59:07.000Z</time>
</trkpt>
<trkpt lat="45.7426480" lon="10.0004550">
	<ele>1033.60</ele>
	<time>2023-04-15T10:59:09.000Z</time>
</trkpt>
<trkpt lat="45.7426530" lon="10.0004830">
	<ele>1033.80</ele>
	<time>2023-04-15T10:59:11.000Z</time>
</trkpt>
<trkpt lat="45.7426560" lon="10.0005150">
	<ele>1034.40</ele>
	<time>2023-04-15T10:59:13.000Z</time>
</trkpt>
<trkpt lat="45.7426620" lon="10.0005410">
	<ele>1034.80</ele>
	<time>2023-04-15T10:59:16.000Z</time>
</trkpt>
<trkpt lat="45.7426640" lon="10.0005530">
	<ele>1035.00</ele>
	<time>2023-04-15T10:59:17.000Z</time>
</trkpt>
<trkpt lat="45.7426640" lon="10.0005780">
	<ele>1035.40</ele>
	<time>2023-04-15T10:59:19.000Z</time>
</trkpt>
<trkpt lat="45.7426640" lon="10.0005890">
	<ele>1035.80</ele>
	<time>2023-04-15T10:59:22.000Z</time>
</trkpt>
<trkpt lat="45.7426640" lon="10.0005950">
	<ele>1036.00</ele>
	<time>2023-04-15T10:59:25.000Z</time>
</trkpt>
<trkpt lat="45.7426610" lon="10.0005930">
	<ele>1036.00</ele>
	<time>2023-04-15T10:59:45.000Z</time>
</trkpt>
<trkpt lat="45.7426610" lon="10.0005920">
	<ele>1036.00</ele>
	<time>2023-04-15T10:59:46.000Z</time>
</trkpt>
<trkpt lat="45.7426610" lon="10.0005920">
	<ele>1036.20</ele>
	<time>2023-04-15T10:59:52.000Z</time>
</trkpt>
<trkpt lat="45.7426610" lon="10.0005920">
	<ele>1036.40</ele>
	<time>2023-04-15T10:59:57.000Z</time>
</trkpt>
<trkpt lat="45.7426850" lon="10.0006330">
	<ele>1037.00</ele>
	<time>2023-04-15T11:00:03.000Z</time>
</trkpt>
<trkpt lat="45.7426910" lon="10.0006490">
	<ele>1037.20</ele>
	<time>2023-04-15T11:00:13.000Z</time>
</trkpt>
<trkpt lat="45.7427050" lon="10.0007170">
	<ele>1037.20</ele>
	<time>2023-04-15T11:00:20.000Z</time>
</trkpt>
<trkpt lat="45.7427080" lon="10.0007380">
	<ele>1037.60</ele>
	<time>2023-04-15T11:00:21.000Z</time>
</trkpt>
<trkpt lat="45.7427270" lon="10.0008290">
	<ele>1038.40</ele>
	<time>2023-04-15T11:00:25.000Z</time>
</trkpt>
<trkpt lat="45.7427320" lon="10.0008640">
	<ele>1038.60</ele>
	<time>2023-04-15T11:00:27.000Z</time>
</trkpt>
<trkpt lat="45.7427360" lon="10.0008810">
	<ele>1038.80</ele>
	<time>2023-04-15T11:00:28.000Z</time>
</trkpt>
<trkpt lat="45.7427580" lon="10.0010200">
	<ele>1039.40</ele>
	<time>2023-04-15T11:00:36.000Z</time>
</trkpt>
<trkpt lat="45.7427630" lon="10.0010880">
	<ele>1039.60</ele>
	<time>2023-04-15T11:00:40.000Z</time>
</trkpt>
<trkpt lat="45.7427640" lon="10.0011000">
	<ele>1039.80</ele>
	<time>2023-04-15T11:00:41.000Z</time>
</trkpt>
<trkpt lat="45.7427710" lon="10.0011140">
	<ele>1040.00</ele>
	<time>2023-04-15T11:00:42.000Z</time>
</trkpt>
<trkpt lat="45.7427790" lon="10.0011280">
	<ele>1040.00</ele>
	<time>2023-04-15T11:00:43.000Z</time>
</trkpt>
<trkpt lat="45.7427930" lon="10.0011550">
	<ele>1040.20</ele>
	<time>2023-04-15T11:00:45.000Z</time>
</trkpt>
<trkpt lat="45.7428100" lon="10.0011900">
	<ele>1040.40</ele>
	<time>2023-04-15T11:00:48.000Z</time>
</trkpt>
<trkpt lat="45.7428200" lon="10.0012210">
	<ele>1040.40</ele>
	<time>2023-04-15T11:00:50.000Z</time>
</trkpt>
<trkpt lat="45.7428180" lon="10.0012770">
	<ele>1040.20</ele>
	<time>2023-04-15T11:00:53.000Z</time>
</trkpt>
<trkpt lat="45.7427910" lon="10.0013510">
	<ele>1039.80</ele>
	<time>2023-04-15T11:00:57.000Z</time>
</trkpt>
<trkpt lat="45.7427990" lon="10.0014120">
	<ele>1039.60</ele>
	<time>2023-04-15T11:01:00.000Z</time>
</trkpt>
<trkpt lat="45.7428010" lon="10.0014400">
	<ele>1039.80</ele>
	<time>2023-04-15T11:01:03.000Z</time>
</trkpt>
<trkpt lat="45.7428470" lon="10.0014770">
	<ele>1039.80</ele>
	<time>2023-04-15T11:01:08.000Z</time>
</trkpt>
<trkpt lat="45.7428480" lon="10.0015000">
	<ele>1039.80</ele>
	<time>2023-04-15T11:01:10.000Z</time>
</trkpt>
<trkpt lat="45.7428410" lon="10.0015840">
	<ele>1039.80</ele>
	<time>2023-04-15T11:01:15.000Z</time>
</trkpt>
<trkpt lat="45.7428550" lon="10.0016240">
	<ele>1039.80</ele>
	<time>2023-04-15T11:01:17.000Z</time>
</trkpt>
<trkpt lat="45.7428540" lon="10.0016390">
	<ele>1039.80</ele>
	<time>2023-04-15T11:01:18.000Z</time>
</trkpt>
<trkpt lat="45.7428440" lon="10.0016690">
	<ele>1040.00</ele>
	<time>2023-04-15T11:01:20.000Z</time>
</trkpt>
<trkpt lat="45.7428340" lon="10.0016870">
	<ele>1040.20</ele>
	<time>2023-04-15T11:01:22.000Z</time>
</trkpt>
<trkpt lat="45.7428360" lon="10.0017000">
	<ele>1040.20</ele>
	<time>2023-04-15T11:01:23.000Z</time>
</trkpt>
<trkpt lat="45.7428580" lon="10.0018130">
	<ele>1040.60</ele>
	<time>2023-04-15T11:01:29.000Z</time>
</trkpt>
<trkpt lat="45.7428670" lon="10.0018690">
	<ele>1040.80</ele>
	<time>2023-04-15T11:01:34.000Z</time>
</trkpt>
<trkpt lat="45.7428700" lon="10.0019060">
	<ele>1041.00</ele>
	<time>2023-04-15T11:01:36.000Z</time>
</trkpt>
<trkpt lat="45.7428600" lon="10.0019300">
	<ele>1041.00</ele>
	<time>2023-04-15T11:01:38.000Z</time>
</trkpt>
<trkpt lat="45.7428520" lon="10.0019830">
	<ele>1041.20</ele>
	<time>2023-04-15T11:01:42.000Z</time>
</trkpt>
<trkpt lat="45.7428530" lon="10.0020000">
	<ele>1041.20</ele>
	<time>2023-04-15T11:01:43.000Z</time>
</trkpt>
<trkpt lat="45.7428770" lon="10.0020450">
	<ele>1041.60</ele>
	<time>2023-04-15T11:01:45.000Z</time>
</trkpt>
<trkpt lat="45.7428790" lon="10.0020740">
	<ele>1042.00</ele>
	<time>2023-04-15T11:01:48.000Z</time>
</trkpt>
<trkpt lat="45.7428800" lon="10.0020770">
	<ele>1042.00</ele>
	<time>2023-04-15T11:01:49.000Z</time>
</trkpt>
<trkpt lat="45.7428790" lon="10.0021380">
	<ele>1042.40</ele>
	<time>2023-04-15T11:01:53.000Z</time>
</trkpt>
<trkpt lat="45.7428720" lon="10.0022570">
	<ele>1042.60</ele>
	<time>2023-04-15T11:02:00.000Z</time>
</trkpt>
<trkpt lat="45.7428700" lon="10.0023690">
	<ele>1042.40</ele>
	<time>2023-04-15T11:02:07.000Z</time>
</trkpt>
<trkpt lat="45.7428690" lon="10.0023900">
	<ele>1042.40</ele>
	<time>2023-04-15T11:02:08.000Z</time>
</trkpt>
<trkpt lat="45.7428530" lon="10.0024600">
	<ele>1042.20</ele>
	<time>2023-04-15T11:02:12.000Z</time>
</trkpt>
<trkpt lat="45.7428460" lon="10.0024750">
	<ele>1042.20</ele>
	<time>2023-04-15T11:02:13.000Z</time>
</trkpt>
<trkpt lat="45.7428250" lon="10.0025480">
	<ele>1042.20</ele>
	<time>2023-04-15T11:02:18.000Z</time>
</trkpt>
<trkpt lat="45.7427760" lon="10.0027120">
	<ele>1041.80</ele>
	<time>2023-04-15T11:02:27.000Z</time>
</trkpt>
<trkpt lat="45.7427630" lon="10.0027760">
	<ele>1041.80</ele>
	<time>2023-04-15T11:02:31.000Z</time>
</trkpt>
<trkpt lat="45.7427520" lon="10.0028060">
	<ele>1042.00</ele>
	<time>2023-04-15T11:02:33.000Z</time>
</trkpt>
<trkpt lat="45.7427450" lon="10.0028300">
	<ele>1042.00</ele>
	<time>2023-04-15T11:02:35.000Z</time>
</trkpt>
<trkpt lat="45.7427150" lon="10.0028720">
	<ele>1042.00</ele>
	<time>2023-04-15T11:02:39.000Z</time>
</trkpt>
<trkpt lat="45.7427090" lon="10.0029180">
	<ele>1042.20</ele>
	<time>2023-04-15T11:02:42.000Z</time>
</trkpt>
<trkpt lat="45.7426960" lon="10.0030500">
	<ele>1042.80</ele>
	<time>2023-04-15T11:02:50.000Z</time>
</trkpt>
<trkpt lat="45.7426830" lon="10.0031180">
	<ele>1043.00</ele>
	<time>2023-04-15T11:02:54.000Z</time>
</trkpt>
<trkpt lat="45.7426700" lon="10.0031580">
	<ele>1043.20</ele>
	<time>2023-04-15T11:02:57.000Z</time>
</trkpt>
<trkpt lat="45.7426660" lon="10.0031650">
	<ele>1043.20</ele>
	<time>2023-04-15T11:02:58.000Z</time>
</trkpt>
<trkpt lat="45.7426650" lon="10.0031980">
	<ele>1043.40</ele>
	<time>2023-04-15T11:03:01.000Z</time>
</trkpt>
<trkpt lat="45.7426520" lon="10.0032440">
	<ele>1043.60</ele>
	<time>2023-04-15T11:03:04.000Z</time>
</trkpt>
<trkpt lat="45.7426150" lon="10.0034300">
	<ele>1044.00</ele>
	<time>2023-04-15T11:03:14.000Z</time>
</trkpt>
<trkpt lat="45.7426140" lon="10.0034480">
	<ele>1044.20</ele>
	<time>2023-04-15T11:03:15.000Z</time>
</trkpt>
<trkpt lat="45.7426170" lon="10.0034960">
	<ele>1044.60</ele>
	<time>2023-04-15T11:03:18.000Z</time>
</trkpt>
<trkpt lat="45.7426070" lon="10.0035370">
	<ele>1044.80</ele>
	<time>2023-04-15T11:03:21.000Z</time>
</trkpt>
<trkpt lat="45.7425990" lon="10.0035610">
	<ele>1045.20</ele>
	<time>2023-04-15T11:03:24.000Z</time>
</trkpt>
<trkpt lat="45.7426000" lon="10.0035650">
	<ele>1045.20</ele>
	<time>2023-04-15T11:03:25.000Z</time>
</trkpt>
<trkpt lat="45.7425940" lon="10.0035740">
	<ele>1045.20</ele>
	<time>2023-04-15T11:03:27.000Z</time>
</trkpt>
<trkpt lat="45.7425910" lon="10.0035800">
	<ele>1045.40</ele>
	<time>2023-04-15T11:03:28.000Z</time>
</trkpt>
<trkpt lat="45.7425880" lon="10.0035870">
	<ele>1045.60</ele>
	<time>2023-04-15T11:03:29.000Z</time>
</trkpt>
<trkpt lat="45.7425670" lon="10.0036070">
	<ele>1046.00</ele>
	<time>2023-04-15T11:03:32.000Z</time>
</trkpt>
<trkpt lat="45.7425510" lon="10.0036200">
	<ele>1045.80</ele>
	<time>2023-04-15T11:03:34.000Z</time>
</trkpt>
<trkpt lat="45.7425460" lon="10.0036310">
	<ele>1045.80</ele>
	<time>2023-04-15T11:03:35.000Z</time>
</trkpt>
<trkpt lat="45.7425200" lon="10.0036780">
	<ele>1045.40</ele>
	<time>2023-04-15T11:03:38.000Z</time>
</trkpt>
<trkpt lat="45.7425040" lon="10.0037220">
	<ele>1045.40</ele>
	<time>2023-04-15T11:03:41.000Z</time>
</trkpt>
<trkpt lat="45.7424870" lon="10.0037930">
	<ele>1045.20</ele>
	<time>2023-04-15T11:03:46.000Z</time>
</trkpt>
<trkpt lat="45.7424850" lon="10.0038350">
	<ele>1045.60</ele>
	<time>2023-04-15T11:03:50.000Z</time>
</trkpt>
<trkpt lat="45.7424850" lon="10.0038370">
	<ele>1045.80</ele>
	<time>2023-04-15T11:03:51.000Z</time>
</trkpt>
<trkpt lat="45.7424820" lon="10.0038380">
	<ele>1045.80</ele>
	<time>2023-04-15T11:03:57.000Z</time>
</trkpt>
<trkpt lat="45.7424820" lon="10.0038390">
	<ele>1045.80</ele>
	<time>2023-04-15T11:03:59.000Z</time>
</trkpt>
<trkpt lat="45.7424560" lon="10.0038660">
	<ele>1045.40</ele>
	<time>2023-04-15T11:04:03.000Z</time>
</trkpt>
<trkpt lat="45.7424460" lon="10.0038940">
	<ele>1045.00</ele>
	<time>2023-04-15T11:04:05.000Z</time>
</trkpt>
<trkpt lat="45.7423880" lon="10.0039700">
	<ele>1045.20</ele>
	<time>2023-04-15T11:04:11.000Z</time>
</trkpt>
<trkpt lat="45.7423690" lon="10.0040020">
	<ele>1045.40</ele>
	<time>2023-04-15T11:04:17.000Z</time>
</trkpt>
<trkpt lat="45.7423600" lon="10.0040060">
	<ele>1045.40</ele>
	<time>2023-04-15T11:04:23.000Z</time>
</trkpt>
<trkpt lat="45.7423600" lon="10.0040060">
	<ele>1045.60</ele>
	<time>2023-04-15T11:04:24.000Z</time>
</trkpt>
<trkpt lat="45.7423600" lon="10.0040060">
	<ele>1045.60</ele>
	<time>2023-04-15T11:04:27.000Z</time>
</trkpt>
<trkpt lat="45.7423600" lon="10.0040060">
	<ele>1045.60</ele>
	<time>2023-04-15T11:04:29.000Z</time>
</trkpt>
<trkpt lat="45.7423600" lon="10.0040060">
	<ele>1045.40</ele>
	<time>2023-04-15T11:04:32.000Z</time>
</trkpt>
<trkpt lat="45.7423360" lon="10.0040570">
	<ele>1045.20</ele>
	<time>2023-04-15T11:04:40.000Z</time>
</trkpt>
<trkpt lat="45.7423270" lon="10.0040940">
	<ele>1045.40</ele>
	<time>2023-04-15T11:04:42.000Z</time>
</trkpt>
<trkpt lat="45.7422960" lon="10.0041490">
	<ele>1045.60</ele>
	<time>2023-04-15T11:04:45.000Z</time>
</trkpt>
<trkpt lat="45.7422380" lon="10.0041900">
	<ele>1045.80</ele>
	<time>2023-04-15T11:04:49.000Z</time>
</trkpt>
<trkpt lat="45.7421890" lon="10.0042800">
	<ele>1045.80</ele>
	<time>2023-04-15T11:04:56.000Z</time>
</trkpt>
<trkpt lat="45.7421630" lon="10.0043140">
	<ele>1045.80</ele>
	<time>2023-04-15T11:04:59.000Z</time>
</trkpt>
<trkpt lat="45.7421110" lon="10.0043720">
	<ele>1046.20</ele>
	<time>2023-04-15T11:05:04.000Z</time>
</trkpt>
<trkpt lat="45.7420240" lon="10.0045030">
	<ele>1046.40</ele>
	<time>2023-04-15T11:05:14.000Z</time>
</trkpt>
<trkpt lat="45.7420010" lon="10.0045600">
	<ele>1046.40</ele>
	<time>2023-04-15T11:05:18.000Z</time>
</trkpt>
<trkpt lat="45.7419850" lon="10.0045790">
	<ele>1046.20</ele>
	<time>2023-04-15T11:05:20.000Z</time>
</trkpt>
<trkpt lat="45.7419670" lon="10.0046150">
	<ele>1046.60</ele>
	<time>2023-04-15T11:05:23.000Z</time>
</trkpt>
<trkpt lat="45.7419620" lon="10.0046500">
	<ele>1046.80</ele>
	<time>2023-04-15T11:05:25.000Z</time>
</trkpt>
<trkpt lat="45.7419610" lon="10.0046640">
	<ele>1046.80</ele>
	<time>2023-04-15T11:05:26.000Z</time>
</trkpt>
<trkpt lat="45.7419190" lon="10.0047770">
	<ele>1047.00</ele>
	<time>2023-04-15T11:05:34.000Z</time>
</trkpt>
<trkpt lat="45.7419070" lon="10.0047960">
	<ele>1047.00</ele>
	<time>2023-04-15T11:05:36.000Z</time>
</trkpt>
<trkpt lat="45.7418860" lon="10.0048320">
	<ele>1047.20</ele>
	<time>2023-04-15T11:05:40.000Z</time>
</trkpt>
<trkpt lat="45.7418840" lon="10.0048460">
	<ele>1047.20</ele>
	<time>2023-04-15T11:05:41.000Z</time>
</trkpt>
<trkpt lat="45.7418670" lon="10.0048890">
	<ele>1047.60</ele>
	<time>2023-04-15T11:05:45.000Z</time>
</trkpt>
<trkpt lat="45.7418260" lon="10.0050040">
	<ele>1048.00</ele>
	<time>2023-04-15T11:05:51.000Z</time>
</trkpt>
<trkpt lat="45.7418060" lon="10.0050600">
	<ele>1048.20</ele>
	<time>2023-04-15T11:05:54.000Z</time>
</trkpt>
<trkpt lat="45.7418010" lon="10.0050800">
	<ele>1048.40</ele>
	<time>2023-04-15T11:05:55.000Z</time>
</trkpt>
<trkpt lat="45.7417950" lon="10.0051250">
	<ele>1048.60</ele>
	<time>2023-04-15T11:05:58.000Z</time>
</trkpt>
<trkpt lat="45.7417870" lon="10.0051780">
	<ele>1048.60</ele>
	<time>2023-04-15T11:06:01.000Z</time>
</trkpt>
<trkpt lat="45.7417770" lon="10.0052300">
	<ele>1048.80</ele>
	<time>2023-04-15T11:06:04.000Z</time>
</trkpt>
<trkpt lat="45.7417400" lon="10.0053240">
	<ele>1049.20</ele>
	<time>2023-04-15T11:06:11.000Z</time>
</trkpt>
<trkpt lat="45.7417430" lon="10.0053610">
	<ele>1049.40</ele>
	<time>2023-04-15T11:06:13.000Z</time>
</trkpt>
<trkpt lat="45.7417460" lon="10.0053790">
	<ele>1049.40</ele>
	<time>2023-04-15T11:06:14.000Z</time>
</trkpt>
<trkpt lat="45.7417480" lon="10.0054670">
	<ele>1049.60</ele>
	<time>2023-04-15T11:06:20.000Z</time>
</trkpt>
<trkpt lat="45.7417400" lon="10.0054900">
	<ele>1049.80</ele>
	<time>2023-04-15T11:06:22.000Z</time>
</trkpt>
<trkpt lat="45.7417230" lon="10.0055140">
	<ele>1050.00</ele>
	<time>2023-04-15T11:06:24.000Z</time>
</trkpt>
<trkpt lat="45.7417120" lon="10.0055920">
	<ele>1050.40</ele>
	<time>2023-04-15T11:06:30.000Z</time>
</trkpt>
<trkpt lat="45.7417040" lon="10.0056050">
	<ele>1050.40</ele>
	<time>2023-04-15T11:06:31.000Z</time>
</trkpt>
<trkpt lat="45.7416950" lon="10.0056600">
	<ele>1051.20</ele>
	<time>2023-04-15T11:06:36.000Z</time>
</trkpt>
<trkpt lat="45.7416900" lon="10.0056750">
	<ele>1051.40</ele>
	<time>2023-04-15T11:06:37.000Z</time>
</trkpt>
<trkpt lat="45.7416600" lon="10.0057890">
	<ele>1051.80</ele>
	<time>2023-04-15T11:06:44.000Z</time>
</trkpt>
<trkpt lat="45.7416440" lon="10.0058530">
	<ele>1052.20</ele>
	<time>2023-04-15T11:06:48.000Z</time>
</trkpt>
<trkpt lat="45.7416270" lon="10.0059320">
	<ele>1052.60</ele>
	<time>2023-04-15T11:06:53.000Z</time>
</trkpt>
<trkpt lat="45.7416200" lon="10.0059500">
	<ele>1052.60</ele>
	<time>2023-04-15T11:06:54.000Z</time>
</trkpt>
<trkpt lat="45.7416050" lon="10.0059760">
	<ele>1052.80</ele>
	<time>2023-04-15T11:06:56.000Z</time>
</trkpt>
<trkpt lat="45.7415800" lon="10.0060670">
	<ele>1052.80</ele>
	<time>2023-04-15T11:07:02.000Z</time>
</trkpt>
<trkpt lat="45.7415680" lon="10.0060830">
	<ele>1053.00</ele>
	<time>2023-04-15T11:07:04.000Z</time>
</trkpt>
<trkpt lat="45.7415590" lon="10.0061500">
	<ele>1053.40</ele>
	<time>2023-04-15T11:07:08.000Z</time>
</trkpt>
<trkpt lat="45.7415280" lon="10.0062010">
	<ele>1053.60</ele>
	<time>2023-04-15T11:07:12.000Z</time>
</trkpt>
<trkpt lat="45.7415140" lon="10.0062640">
	<ele>1053.80</ele>
	<time>2023-04-15T11:07:16.000Z</time>
</trkpt>
<trkpt lat="45.7414740" lon="10.0063820">
	<ele>1054.20</ele>
	<time>2023-04-15T11:07:24.000Z</time>
</trkpt>
<trkpt lat="45.7414550" lon="10.0064300">
	<ele>1054.60</ele>
	<time>2023-04-15T11:07:28.000Z</time>
</trkpt>
<trkpt lat="45.7414490" lon="10.0064780">
	<ele>1055.00</ele>
	<time>2023-04-15T11:07:31.000Z</time>
</trkpt>
<trkpt lat="45.7414540" lon="10.0065250">
	<ele>1055.20</ele>
	<time>2023-04-15T11:07:33.000Z</time>
</trkpt>
<trkpt lat="45.7414590" lon="10.0066150">
	<ele>1055.80</ele>
	<time>2023-04-15T11:07:38.000Z</time>
</trkpt>
<trkpt lat="45.7413960" lon="10.0066880">
	<ele>1056.40</ele>
	<time>2023-04-15T11:07:43.000Z</time>
</trkpt>
<trkpt lat="45.7413880" lon="10.0067190">
	<ele>1056.60</ele>
	<time>2023-04-15T11:07:45.000Z</time>
</trkpt>
<trkpt lat="45.7413890" lon="10.0067460">
	<ele>1056.80</ele>
	<time>2023-04-15T11:07:46.000Z</time>
</trkpt>
<trkpt lat="45.7413880" lon="10.0067990">
	<ele>1057.60</ele>
	<time>2023-04-15T11:07:51.000Z</time>
</trkpt>
<trkpt lat="45.7413870" lon="10.0068050">
	<ele>1057.60</ele>
	<time>2023-04-15T11:07:52.000Z</time>
</trkpt>
<trkpt lat="45.7413880" lon="10.0068080">
	<ele>1058.00</ele>
	<time>2023-04-15T11:07:53.000Z</time>
</trkpt>
<trkpt lat="45.7413870" lon="10.0068150">
	<ele>1058.20</ele>
	<time>2023-04-15T11:07:54.000Z</time>
</trkpt>
<trkpt lat="45.7413850" lon="10.0068400">
	<ele>1058.60</ele>
	<time>2023-04-15T11:07:56.000Z</time>
</trkpt>
<trkpt lat="45.7413870" lon="10.0068580">
	<ele>1058.80</ele>
	<time>2023-04-15T11:07:57.000Z</time>
</trkpt>
<trkpt lat="45.7413870" lon="10.0068860">
	<ele>1059.20</ele>
	<time>2023-04-15T11:07:59.000Z</time>
</trkpt>
<trkpt lat="45.7413810" lon="10.0069520">
	<ele>1060.00</ele>
	<time>2023-04-15T11:08:04.000Z</time>
</trkpt>
<trkpt lat="45.7413810" lon="10.0069650">
	<ele>1060.40</ele>
	<time>2023-04-15T11:08:05.000Z</time>
</trkpt>
<trkpt lat="45.7413800" lon="10.0070030">
	<ele>1061.00</ele>
	<time>2023-04-15T11:08:09.000Z</time>
</trkpt>
<trkpt lat="45.7413820" lon="10.0070200">
	<ele>1061.40</ele>
	<time>2023-04-15T11:08:11.000Z</time>
</trkpt>
<trkpt lat="45.7413820" lon="10.0070240">
	<ele>1061.80</ele>
	<time>2023-04-15T11:08:12.000Z</time>
</trkpt>
<trkpt lat="45.7413770" lon="10.0070300">
	<ele>1062.40</ele>
	<time>2023-04-15T11:08:17.000Z</time>
</trkpt>
<trkpt lat="45.7413590" lon="10.0070670">
	<ele>1062.20</ele>
	<time>2023-04-15T11:08:21.000Z</time>
</trkpt>
<trkpt lat="45.7413330" lon="10.0071230">
	<ele>1061.80</ele>
	<time>2023-04-15T11:08:25.000Z</time>
</trkpt>
<trkpt lat="45.7413060" lon="10.0071740">
	<ele>1061.60</ele>
	<time>2023-04-15T11:08:28.000Z</time>
</trkpt>
<trkpt lat="45.7412590" lon="10.0072750">
	<ele>1061.20</ele>
	<time>2023-04-15T11:08:35.000Z</time>
</trkpt>
<trkpt lat="45.7411940" lon="10.0074030">
	<ele>1061.00</ele>
	<time>2023-04-15T11:08:43.000Z</time>
</trkpt>
<trkpt lat="45.7411630" lon="10.0075070">
	<ele>1061.40</ele>
	<time>2023-04-15T11:08:50.000Z</time>
</trkpt>
<trkpt lat="45.7411460" lon="10.0075400">
	<ele>1061.60</ele>
	<time>2023-04-15T11:08:52.000Z</time>
</trkpt>
<trkpt lat="45.7411000" lon="10.0076510">
	<ele>1062.20</ele>
	<time>2023-04-15T11:08:59.000Z</time>
</trkpt>
<trkpt lat="45.7410950" lon="10.0076840">
	<ele>1062.20</ele>
	<time>2023-04-15T11:09:01.000Z</time>
</trkpt>
<trkpt lat="45.7410880" lon="10.0077030">
	<ele>1062.60</ele>
	<time>2023-04-15T11:09:04.000Z</time>
</trkpt>
<trkpt lat="45.7410880" lon="10.0077050">
	<ele>1062.80</ele>
	<time>2023-04-15T11:09:06.000Z</time>
</trkpt>
<trkpt lat="45.7410870" lon="10.0077040">
	<ele>1062.80</ele>
	<time>2023-04-15T11:09:07.000Z</time>
</trkpt>
<trkpt lat="45.7410850" lon="10.0077000">
	<ele>1063.00</ele>
	<time>2023-04-15T11:09:16.000Z</time>
</trkpt>
<trkpt lat="45.7410850" lon="10.0077000">
	<ele>1063.00</ele>
	<time>2023-04-15T11:09:22.000Z</time>
</trkpt>
<trkpt lat="45.7410880" lon="10.0077010">
	<ele>1062.80</ele>
	<time>2023-04-15T11:09:32.000Z</time>
</trkpt>
<trkpt lat="45.7411000" lon="10.0077220">
	<ele>1062.80</ele>
	<time>2023-04-15T11:09:54.000Z</time>
</trkpt>
<trkpt lat="45.7411000" lon="10.0077230">
	<ele>1062.80</ele>
	<time>2023-04-15T11:09:58.000Z</time>
</trkpt>
<trkpt lat="45.7411000" lon="10.0077230">
	<ele>1062.80</ele>
	<time>2023-04-15T11:09:59.000Z</time>
</trkpt>
<trkpt lat="45.7411010" lon="10.0077230">
	<ele>1062.80</ele>
	<time>2023-04-15T11:10:10.000Z</time>
</trkpt>
<trkpt lat="45.7411020" lon="10.0077220">
	<ele>1062.80</ele>
	<time>2023-04-15T11:10:13.000Z</time>
</trkpt>
<trkpt lat="45.7410980" lon="10.0077150">
	<ele>1062.00</ele>
	<time>2023-04-15T11:10:51.000Z</time>
</trkpt>
<trkpt lat="45.7410980" lon="10.0077110">
	<ele>1062.20</ele>
	<time>2023-04-15T11:10:59.000Z</time>
</trkpt>
<trkpt lat="45.7410950" lon="10.0077110">
	<ele>1062.00</ele>
	<time>2023-04-15T11:11:22.000Z</time>
</trkpt>
<trkpt lat="45.7410950" lon="10.0077220">
	<ele>1062.40</ele>
	<time>2023-04-15T11:11:47.000Z</time>
</trkpt>
<trkpt lat="45.7410680" lon="10.0078160">
	<ele>1062.40</ele>
	<time>2023-04-15T11:12:05.000Z</time>
</trkpt>
<trkpt lat="45.7410630" lon="10.0078390">
	<ele>1062.40</ele>
	<time>2023-04-15T11:12:06.000Z</time>
</trkpt>
<trkpt lat="45.7410560" lon="10.0078910">
	<ele>1062.40</ele>
	<time>2023-04-15T11:12:08.000Z</time>
</trkpt>
<trkpt lat="45.7410290" lon="10.0079710">
	<ele>1063.60</ele>
	<time>2023-04-15T11:12:11.000Z</time>
</trkpt>
<trkpt lat="45.7410120" lon="10.0080230">
	<ele>1063.80</ele>
	<time>2023-04-15T11:12:15.000Z</time>
</trkpt>
<trkpt lat="45.7409890" lon="10.0080740">
	<ele>1064.00</ele>
	<time>2023-04-15T11:12:19.000Z</time>
</trkpt>
<trkpt lat="45.7409630" lon="10.0081250">
	<ele>1064.40</ele>
	<time>2023-04-15T11:12:24.000Z</time>
</trkpt>
<trkpt lat="45.7409470" lon="10.0081500">
	<ele>1064.40</ele>
	<time>2023-04-15T11:12:26.000Z</time>
</trkpt>
<trkpt lat="45.7409340" lon="10.0081610">
	<ele>1064.80</ele>
	<time>2023-04-15T11:12:28.000Z</time>
</trkpt>
<trkpt lat="45.7409120" lon="10.0081980">
	<ele>1064.80</ele>
	<time>2023-04-15T11:12:32.000Z</time>
</trkpt>
<trkpt lat="45.7408590" lon="10.0083000">
	<ele>1065.40</ele>
	<time>2023-04-15T11:12:40.000Z</time>
</trkpt>
<trkpt lat="45.7408420" lon="10.0083250">
	<ele>1065.40</ele>
	<time>2023-04-15T11:12:42.000Z</time>
</trkpt>
<trkpt lat="45.7408240" lon="10.0083410">
	<ele>1065.60</ele>
	<time>2023-04-15T11:12:44.000Z</time>
</trkpt>
<trkpt lat="45.7408120" lon="10.0083510">
	<ele>1065.60</ele>
	<time>2023-04-15T11:12:46.000Z</time>
</trkpt>
<trkpt lat="45.7408030" lon="10.0083570">
	<ele>1065.60</ele>
	<time>2023-04-15T11:12:47.000Z</time>
</trkpt>
<trkpt lat="45.7407660" lon="10.0084110">
	<ele>1065.60</ele>
	<time>2023-04-15T11:12:52.000Z</time>
</trkpt>
<trkpt lat="45.7407140" lon="10.0084930">
	<ele>1065.80</ele>
	<time>2023-04-15T11:12:58.000Z</time>
</trkpt>
<trkpt lat="45.7406610" lon="10.0085720">
	<ele>1065.80</ele>
	<time>2023-04-15T11:13:05.000Z</time>
</trkpt>
<trkpt lat="45.7405810" lon="10.0086730">
	<ele>1066.40</ele>
	<time>2023-04-15T11:13:15.000Z</time>
</trkpt>
<trkpt lat="45.7405720" lon="10.0086810">
	<ele>1066.60</ele>
	<time>2023-04-15T11:13:16.000Z</time>
</trkpt>
<trkpt lat="45.7405390" lon="10.0086990">
	<ele>1066.80</ele>
	<time>2023-04-15T11:13:19.000Z</time>
</trkpt>
<trkpt lat="45.7404820" lon="10.0087540">
	<ele>1067.40</ele>
	<time>2023-04-15T11:13:25.000Z</time>
</trkpt>
<trkpt lat="45.7404640" lon="10.0087780">
	<ele>1068.00</ele>
	<time>2023-04-15T11:13:28.000Z</time>
</trkpt>
<trkpt lat="45.7404180" lon="10.0088120">
	<ele>1068.40</ele>
	<time>2023-04-15T11:13:34.000Z</time>
</trkpt>
<trkpt lat="45.7403900" lon="10.0088620">
	<ele>1069.00</ele>
	<time>2023-04-15T11:13:39.000Z</time>
</trkpt>
<trkpt lat="45.7403850" lon="10.0088600">
	<ele>1069.20</ele>
	<time>2023-04-15T11:13:40.000Z</time>
</trkpt>
<trkpt lat="45.7403720" lon="10.0088870">
	<ele>1069.60</ele>
	<time>2023-04-15T11:13:44.000Z</time>
</trkpt>
<trkpt lat="45.7403470" lon="10.0089000">
	<ele>1069.60</ele>
	<time>2023-04-15T11:13:46.000Z</time>
</trkpt>
<trkpt lat="45.7402990" lon="10.0089310">
	<ele>1070.00</ele>
	<time>2023-04-15T11:13:49.000Z</time>
</trkpt>
<trkpt lat="45.7402750" lon="10.0089570">
	<ele>1070.40</ele>
	<time>2023-04-15T11:13:52.000Z</time>
</trkpt>
<trkpt lat="45.7401850" lon="10.0090140">
	<ele>1071.00</ele>
	<time>2023-04-15T11:13:59.000Z</time>
</trkpt>
<trkpt lat="45.7401110" lon="10.0090400">
	<ele>1070.60</ele>
	<time>2023-04-15T11:14:05.000Z</time>
</trkpt>
<trkpt lat="45.7401010" lon="10.0090400">
	<ele>1070.60</ele>
	<time>2023-04-15T11:14:06.000Z</time>
</trkpt>
<trkpt lat="45.7400470" lon="10.0090440">
	<ele>1070.80</ele>
	<time>2023-04-15T11:14:11.000Z</time>
</trkpt>
<trkpt lat="45.7399460" lon="10.0090640">
	<ele>1071.00</ele>
	<time>2023-04-15T11:14:18.000Z</time>
</trkpt>
<trkpt lat="45.7398970" lon="10.0090880">
	<ele>1071.20</ele>
	<time>2023-04-15T11:14:22.000Z</time>
</trkpt>
<trkpt lat="45.7398690" lon="10.0090980">
	<ele>1071.60</ele>
	<time>2023-04-15T11:14:25.000Z</time>
</trkpt>
<trkpt lat="45.7398680" lon="10.0091110">
	<ele>1071.80</ele>
	<time>2023-04-15T11:14:26.000Z</time>
</trkpt>
<trkpt lat="45.7398300" lon="10.0091320">
	<ele>1072.20</ele>
	<time>2023-04-15T11:14:28.000Z</time>
</trkpt>
<trkpt lat="45.7397970" lon="10.0091280">
	<ele>1072.60</ele>
	<time>2023-04-15T11:14:30.000Z</time>
</trkpt>
<trkpt lat="45.7397380" lon="10.0091660">
	<ele>1073.40</ele>
	<time>2023-04-15T11:14:35.000Z</time>
</trkpt>
<trkpt lat="45.7397100" lon="10.0091920">
	<ele>1073.80</ele>
	<time>2023-04-15T11:14:38.000Z</time>
</trkpt>
<trkpt lat="45.7396960" lon="10.0092510">
	<ele>1074.40</ele>
	<time>2023-04-15T11:14:43.000Z</time>
</trkpt>
<trkpt lat="45.7396990" lon="10.0092890">
	<ele>1074.60</ele>
	<time>2023-04-15T11:14:45.000Z</time>
</trkpt>
<trkpt lat="45.7396880" lon="10.0094190">
	<ele>1074.60</ele>
	<time>2023-04-15T11:14:54.000Z</time>
</trkpt>
<trkpt lat="45.7397070" lon="10.0095430">
	<ele>1074.80</ele>
	<time>2023-04-15T11:15:01.000Z</time>
</trkpt>
<trkpt lat="45.7397210" lon="10.0097080">
	<ele>1075.00</ele>
	<time>2023-04-15T11:15:10.000Z</time>
</trkpt>
<trkpt lat="45.7397070" lon="10.0098530">
	<ele>1074.80</ele>
	<time>2023-04-15T11:15:18.000Z</time>
</trkpt>
<trkpt lat="45.7396980" lon="10.0099840">
	<ele>1074.60</ele>
	<time>2023-04-15T11:15:26.000Z</time>
</trkpt>
<trkpt lat="45.7397110" lon="10.0101170">
	<ele>1074.60</ele>
	<time>2023-04-15T11:15:34.000Z</time>
</trkpt>
<trkpt lat="45.7397140" lon="10.0101370">
	<ele>1074.60</ele>
	<time>2023-04-15T11:15:35.000Z</time>
</trkpt>
<trkpt lat="45.7397100" lon="10.0101560">
	<ele>1074.40</ele>
	<time>2023-04-15T11:15:36.000Z</time>
</trkpt>
<trkpt lat="45.7396980" lon="10.0102070">
	<ele>1074.20</ele>
	<time>2023-04-15T11:15:40.000Z</time>
</trkpt>
<trkpt lat="45.7396920" lon="10.0102310">
	<ele>1074.20</ele>
	<time>2023-04-15T11:15:41.000Z</time>
</trkpt>
<trkpt lat="45.7396740" lon="10.0103020">
	<ele>1073.80</ele>
	<time>2023-04-15T11:15:45.000Z</time>
</trkpt>
<trkpt lat="45.7396820" lon="10.0103550">
	<ele>1074.00</ele>
	<time>2023-04-15T11:15:47.000Z</time>
</trkpt>
<trkpt lat="45.7396720" lon="10.0104120">
	<ele>1074.00</ele>
	<time>2023-04-15T11:15:51.000Z</time>
</trkpt>
<trkpt lat="45.7396720" lon="10.0104270">
	<ele>1073.80</ele>
	<time>2023-04-15T11:15:52.000Z</time>
</trkpt>
<trkpt lat="45.7396600" lon="10.0104800">
	<ele>1073.20</ele>
	<time>2023-04-15T11:15:55.000Z</time>
</trkpt>
<trkpt lat="45.7396500" lon="10.0105190">
	<ele>1072.80</ele>
	<time>2023-04-15T11:15:57.000Z</time>
</trkpt>
<trkpt lat="45.7396490" lon="10.0105400">
	<ele>1072.60</ele>
	<time>2023-04-15T11:15:59.000Z</time>
</trkpt>
<trkpt lat="45.7396330" lon="10.0105660">
	<ele>1072.40</ele>
	<time>2023-04-15T11:16:01.000Z</time>
</trkpt>
<trkpt lat="45.7396190" lon="10.0105960">
	<ele>1072.20</ele>
	<time>2023-04-15T11:16:03.000Z</time>
</trkpt>
<trkpt lat="45.7396150" lon="10.0106170">
	<ele>1072.00</ele>
	<time>2023-04-15T11:16:04.000Z</time>
</trkpt>
<trkpt lat="45.7395980" lon="10.0107270">
	<ele>1071.40</ele>
	<time>2023-04-15T11:16:12.000Z</time>
</trkpt>
<trkpt lat="45.7395890" lon="10.0107880">
	<ele>1071.40</ele>
	<time>2023-04-15T11:16:15.000Z</time>
</trkpt>
<trkpt lat="45.7395730" lon="10.0108150">
	<ele>1071.20</ele>
	<time>2023-04-15T11:16:17.000Z</time>
</trkpt>
<trkpt lat="45.7395750" lon="10.0108320">
	<ele>1071.20</ele>
	<time>2023-04-15T11:16:18.000Z</time>
</trkpt>
<trkpt lat="45.7395770" lon="10.0108650">
	<ele>1071.20</ele>
	<time>2023-04-15T11:16:20.000Z</time>
</trkpt>
<trkpt lat="45.7395680" lon="10.0109570">
	<ele>1071.40</ele>
	<time>2023-04-15T11:16:25.000Z</time>
</trkpt>
<trkpt lat="45.7395670" lon="10.0109730">
	<ele>1071.40</ele>
	<time>2023-04-15T11:16:26.000Z</time>
</trkpt>
<trkpt lat="45.7395710" lon="10.0110010">
	<ele>1071.40</ele>
	<time>2023-04-15T11:16:28.000Z</time>
</trkpt>
<trkpt lat="45.7395800" lon="10.0110880">
	<ele>1071.40</ele>
	<time>2023-04-15T11:16:33.000Z</time>
</trkpt>
<trkpt lat="45.7395840" lon="10.0111840">
	<ele>1071.20</ele>
	<time>2023-04-15T11:16:40.000Z</time>
</trkpt>
<trkpt lat="45.7395900" lon="10.0112320">
	<ele>1071.20</ele>
	<time>2023-04-15T11:16:42.000Z</time>
</trkpt>
<trkpt lat="45.7395930" lon="10.0112780">
	<ele>1071.00</ele>
	<time>2023-04-15T11:16:44.000Z</time>
</trkpt>
<trkpt lat="45.7395870" lon="10.0112930">
	<ele>1071.00</ele>
	<time>2023-04-15T11:16:45.000Z</time>
</trkpt>
<trkpt lat="45.7395640" lon="10.0114330">
	<ele>1070.80</ele>
	<time>2023-04-15T11:16:51.000Z</time>
</trkpt>
<trkpt lat="45.7395540" lon="10.0116140">
	<ele>1070.60</ele>
	<time>2023-04-15T11:16:59.000Z</time>
</trkpt>
<trkpt lat="45.7395550" lon="10.0116850">
	<ele>1070.60</ele>
	<time>2023-04-15T11:17:02.000Z</time>
</trkpt>
<trkpt lat="45.7395450" lon="10.0117310">
	<ele>1070.40</ele>
	<time>2023-04-15T11:17:05.000Z</time>
</trkpt>
<trkpt lat="45.7395350" lon="10.0117830">
	<ele>1070.40</ele>
	<time>2023-04-15T11:17:08.000Z</time>
</trkpt>
<trkpt lat="45.7395050" lon="10.0118820">
	<ele>1070.40</ele>
	<time>2023-04-15T11:17:14.000Z</time>
</trkpt>
<trkpt lat="45.7394970" lon="10.0118890">
	<ele>1070.40</ele>
	<time>2023-04-15T11:17:15.000Z</time>
</trkpt>
<trkpt lat="45.7394890" lon="10.0118990">
	<ele>1070.40</ele>
	<time>2023-04-15T11:17:16.000Z</time>
</trkpt>
<trkpt lat="45.7394700" lon="10.0119250">
	<ele>1070.20</ele>
	<time>2023-04-15T11:17:18.000Z</time>
</trkpt>
<trkpt lat="45.7394390" lon="10.0119790">
	<ele>1070.00</ele>
	<time>2023-04-15T11:17:22.000Z</time>
</trkpt>
<trkpt lat="45.7394240" lon="10.0120440">
	<ele>1069.60</ele>
	<time>2023-04-15T11:17:26.000Z</time>
</trkpt>
<trkpt lat="45.7393960" lon="10.0120870">
	<ele>1069.20</ele>
	<time>2023-04-15T11:17:29.000Z</time>
</trkpt>
<trkpt lat="45.7393590" lon="10.0121640">
	<ele>1068.60</ele>
	<time>2023-04-15T11:17:35.000Z</time>
</trkpt>
<trkpt lat="45.7393320" lon="10.0122200">
	<ele>1068.00</ele>
	<time>2023-04-15T11:17:38.000Z</time>
</trkpt>
<trkpt lat="45.7392940" lon="10.0122730">
	<ele>1067.80</ele>
	<time>2023-04-15T11:17:42.000Z</time>
</trkpt>
<trkpt lat="45.7392850" lon="10.0122840">
	<ele>1067.80</ele>
	<time>2023-04-15T11:17:43.000Z</time>
</trkpt>
<trkpt lat="45.7392070" lon="10.0123740">
	<ele>1067.00</ele>
	<time>2023-04-15T11:17:51.000Z</time>
</trkpt>
<trkpt lat="45.7391990" lon="10.0123820">
	<ele>1067.00</ele>
	<time>2023-04-15T11:17:52.000Z</time>
</trkpt>
<trkpt lat="45.7391770" lon="10.0124050">
	<ele>1066.80</ele>
	<time>2023-04-15T11:17:56.000Z</time>
</trkpt>
<trkpt lat="45.7391760" lon="10.0124040">
	<ele>1066.60</ele>
	<time>2023-04-15T11:17:57.000Z</time>
</trkpt>
<trkpt lat="45.7391770" lon="10.0124050">
	<ele>1066.60</ele>
	<time>2023-04-15T11:17:58.000Z</time>
</trkpt>
<trkpt lat="45.7391800" lon="10.0123960">
	<ele>1066.60</ele>
	<time>2023-04-15T11:18:02.000Z</time>
</trkpt>
<trkpt lat="45.7391700" lon="10.0124050">
	<ele>1066.60</ele>
	<time>2023-04-15T11:18:04.000Z</time>
</trkpt>
<trkpt lat="45.7391090" lon="10.0124770">
	<ele>1066.40</ele>
	<time>2023-04-15T11:18:11.000Z</time>
</trkpt>
<trkpt lat="45.7390760" lon="10.0125010">
	<ele>1066.20</ele>
	<time>2023-04-15T11:18:14.000Z</time>
</trkpt>
<trkpt lat="45.7390530" lon="10.0125150">
	<ele>1065.80</ele>
	<time>2023-04-15T11:18:16.000Z</time>
</trkpt>
<trkpt lat="45.7390450" lon="10.0125240">
	<ele>1065.60</ele>
	<time>2023-04-15T11:18:17.000Z</time>
</trkpt>
<trkpt lat="45.7390350" lon="10.0125480">
	<ele>1065.60</ele>
	<time>2023-04-15T11:18:19.000Z</time>
</trkpt>
<trkpt lat="45.7389990" lon="10.0125790">
	<ele>1065.00</ele>
	<time>2023-04-15T11:18:22.000Z</time>
</trkpt>
<trkpt lat="45.7389880" lon="10.0125900">
	<ele>1065.00</ele>
	<time>2023-04-15T11:18:23.000Z</time>
</trkpt>
<trkpt lat="45.7389530" lon="10.0126240">
	<ele>1064.80</ele>
	<time>2023-04-15T11:18:26.000Z</time>
</trkpt>
<trkpt lat="45.7389220" lon="10.0126560">
	<ele>1064.60</ele>
	<time>2023-04-15T11:18:29.000Z</time>
</trkpt>
<trkpt lat="45.7388940" lon="10.0127010">
	<ele>1064.00</ele>
	<time>2023-04-15T11:18:33.000Z</time>
</trkpt>
<trkpt lat="45.7388660" lon="10.0127430">
	<ele>1064.00</ele>
	<time>2023-04-15T11:18:36.000Z</time>
</trkpt>
<trkpt lat="45.7388140" lon="10.0128200">
	<ele>1063.80</ele>
	<time>2023-04-15T11:18:41.000Z</time>
</trkpt>
<trkpt lat="45.7387990" lon="10.0128410">
	<ele>1063.60</ele>
	<time>2023-04-15T11:18:43.000Z</time>
</trkpt>
<trkpt lat="45.7387690" lon="10.0128480">
	<ele>1063.20</ele>
	<time>2023-04-15T11:18:45.000Z</time>
</trkpt>
<trkpt lat="45.7387580" lon="10.0128610">
	<ele>1063.00</ele>
	<time>2023-04-15T11:18:47.000Z</time>
</trkpt>
<trkpt lat="45.7387350" lon="10.0128900">
	<ele>1062.80</ele>
	<time>2023-04-15T11:18:50.000Z</time>
</trkpt>
<trkpt lat="45.7387330" lon="10.0129060">
	<ele>1062.80</ele>
	<time>2023-04-15T11:18:51.000Z</time>
</trkpt>
<trkpt lat="45.7386740" lon="10.0130200">
	<ele>1063.60</ele>
	<time>2023-04-15T11:19:00.000Z</time>
</trkpt>
<trkpt lat="45.7386150" lon="10.0130730">
	<ele>1063.60</ele>
	<time>2023-04-15T11:19:06.000Z</time>
</trkpt>
<trkpt lat="45.7386110" lon="10.0130880">
	<ele>1063.60</ele>
	<time>2023-04-15T11:19:07.000Z</time>
</trkpt>
<trkpt lat="45.7386010" lon="10.0131030">
	<ele>1063.80</ele>
	<time>2023-04-15T11:19:08.000Z</time>
</trkpt>
<trkpt lat="45.7385590" lon="10.0131380">
	<ele>1064.20</ele>
	<time>2023-04-15T11:19:12.000Z</time>
</trkpt>
<trkpt lat="45.7385310" lon="10.0131610">
	<ele>1064.60</ele>
	<time>2023-04-15T11:19:15.000Z</time>
</trkpt>
<trkpt lat="45.7385200" lon="10.0131770">
	<ele>1064.60</ele>
	<time>2023-04-15T11:19:17.000Z</time>
</trkpt>
<trkpt lat="45.7385170" lon="10.0131810">
	<ele>1064.80</ele>
	<time>2023-04-15T11:19:18.000Z</time>
</trkpt>
<trkpt lat="45.7385120" lon="10.0131870">
	<ele>1064.80</ele>
	<time>2023-04-15T11:19:19.000Z</time>
</trkpt>
<trkpt lat="45.7385010" lon="10.0132050">
	<ele>1065.00</ele>
	<time>2023-04-15T11:19:21.000Z</time>
</trkpt>
<trkpt lat="45.7384920" lon="10.0132160">
	<ele>1065.20</ele>
	<time>2023-04-15T11:19:23.000Z</time>
</trkpt>
<trkpt lat="45.7384780" lon="10.0132460">
	<ele>1065.60</ele>
	<time>2023-04-15T11:19:26.000Z</time>
</trkpt>
<trkpt lat="45.7384730" lon="10.0132530">
	<ele>1065.80</ele>
	<time>2023-04-15T11:19:27.000Z</time>
</trkpt>
<trkpt lat="45.7384670" lon="10.0132620">
	<ele>1066.00</ele>
	<time>2023-04-15T11:19:28.000Z</time>
</trkpt>
<trkpt lat="45.7384520" lon="10.0132770">
	<ele>1066.40</ele>
	<time>2023-04-15T11:19:30.000Z</time>
</trkpt>
<trkpt lat="45.7384450" lon="10.0132820">
	<ele>1066.60</ele>
	<time>2023-04-15T11:19:31.000Z</time>
</trkpt>
<trkpt lat="45.7384290" lon="10.0133000">
	<ele>1066.80</ele>
	<time>2023-04-15T11:19:33.000Z</time>
</trkpt>
<trkpt lat="45.7384210" lon="10.0133060">
	<ele>1067.00</ele>
	<time>2023-04-15T11:19:34.000Z</time>
</trkpt>
<trkpt lat="45.7383720" lon="10.0133530">
	<ele>1068.00</ele>
	<time>2023-04-15T11:19:40.000Z</time>
</trkpt>
<trkpt lat="45.7383560" lon="10.0133690">
	<ele>1068.40</ele>
	<time>2023-04-15T11:19:43.000Z</time>
</trkpt>
<trkpt lat="45.7383420" lon="10.0133800">
	<ele>1068.60</ele>
	<time>2023-04-15T11:19:45.000Z</time>
</trkpt>
<trkpt lat="45.7383330" lon="10.0133800">
	<ele>1068.80</ele>
	<time>2023-04-15T11:19:46.000Z</time>
</trkpt>
<trkpt lat="45.7382960" lon="10.0133830">
	<ele>1069.00</ele>
	<time>2023-04-15T11:19:49.000Z</time>
</trkpt>
<trkpt lat="45.7382690" lon="10.0133780">
	<ele>1069.40</ele>
	<time>2023-04-15T11:19:51.000Z</time>
</trkpt>
<trkpt lat="45.7382270" lon="10.0134190">
	<ele>1070.20</ele>
	<time>2023-04-15T11:19:57.000Z</time>
</trkpt>
<trkpt lat="45.7382210" lon="10.0134260">
	<ele>1070.40</ele>
	<time>2023-04-15T11:19:58.000Z</time>
</trkpt>
<trkpt lat="45.7381930" lon="10.0134420">
	<ele>1070.80</ele>
	<time>2023-04-15T11:20:01.000Z</time>
</trkpt>
<trkpt lat="45.7381760" lon="10.0134670">
	<ele>1071.20</ele>
	<time>2023-04-15T11:20:03.000Z</time>
</trkpt>
<trkpt lat="45.7381580" lon="10.0134780">
	<ele>1071.60</ele>
	<time>2023-04-15T11:20:05.000Z</time>
</trkpt>
<trkpt lat="45.7381300" lon="10.0135190">
	<ele>1072.40</ele>
	<time>2023-04-15T11:20:11.000Z</time>
</trkpt>
<trkpt lat="45.7381110" lon="10.0135430">
	<ele>1073.00</ele>
	<time>2023-04-15T11:20:14.000Z</time>
</trkpt>
<trkpt lat="45.7380980" lon="10.0135570">
	<ele>1073.40</ele>
	<time>2023-04-15T11:20:18.000Z</time>
</trkpt>
<trkpt lat="45.7380800" lon="10.0135850">
	<ele>1073.80</ele>
	<time>2023-04-15T11:20:21.000Z</time>
</trkpt>
<trkpt lat="45.7380700" lon="10.0135870">
	<ele>1074.20</ele>
	<time>2023-04-15T11:20:23.000Z</time>
</trkpt>
<trkpt lat="45.7380630" lon="10.0135930">
	<ele>1074.40</ele>
	<time>2023-04-15T11:20:25.000Z</time>
</trkpt>
<trkpt lat="45.7380640" lon="10.0136040">
	<ele>1074.40</ele>
	<time>2023-04-15T11:20:27.000Z</time>
</trkpt>
<trkpt lat="45.7380710" lon="10.0136080">
	<ele>1074.60</ele>
	<time>2023-04-15T11:20:31.000Z</time>
</trkpt>
<trkpt lat="45.7380720" lon="10.0136070">
	<ele>1074.60</ele>
	<time>2023-04-15T11:20:39.000Z</time>
</trkpt>
<trkpt lat="45.7380720" lon="10.0136070">
	<ele>1074.80</ele>
	<time>2023-04-15T11:20:44.000Z</time>
</trkpt>
<trkpt lat="45.7380720" lon="10.0136070">
	<ele>1074.80</ele>
	<time>2023-04-15T11:20:49.000Z</time>
</trkpt>
<trkpt lat="45.7380730" lon="10.0136080">
	<ele>1074.80</ele>
	<time>2023-04-15T11:20:52.000Z</time>
</trkpt>
<trkpt lat="45.7380740" lon="10.0136070">
	<ele>1074.20</ele>
	<time>2023-04-15T11:21:01.000Z</time>
</trkpt>
<trkpt lat="45.7381360" lon="10.0135550">
	<ele>1074.20</ele>
	<time>2023-04-15T11:21:13.000Z</time>
</trkpt>
<trkpt lat="45.7381810" lon="10.0135390">
	<ele>1074.00</ele>
	<time>2023-04-15T11:21:16.000Z</time>
</trkpt>
<trkpt lat="45.7382090" lon="10.0135260">
	<ele>1074.00</ele>
	<time>2023-04-15T11:21:18.000Z</time>
</trkpt>
<trkpt lat="45.7382170" lon="10.0135220">
	<ele>1074.00</ele>
	<time>2023-04-15T11:21:19.000Z</time>
</trkpt>
<trkpt lat="45.7382310" lon="10.0135320">
	<ele>1074.00</ele>
	<time>2023-04-15T11:21:21.000Z</time>
</trkpt>
<trkpt lat="45.7382370" lon="10.0135310">
	<ele>1073.80</ele>
	<time>2023-04-15T11:21:24.000Z</time>
</trkpt>
<trkpt lat="45.7382450" lon="10.0135310">
	<ele>1073.40</ele>
	<time>2023-04-15T11:21:26.000Z</time>
</trkpt>
<trkpt lat="45.7382430" lon="10.0135200">
	<ele>1073.20</ele>
	<time>2023-04-15T11:21:29.000Z</time>
</trkpt>
<trkpt lat="45.7382420" lon="10.0135210">
	<ele>1073.20</ele>
	<time>2023-04-15T11:21:31.000Z</time>
</trkpt>
<trkpt lat="45.7382320" lon="10.0135070">
	<ele>1073.20</ele>
	<time>2023-04-15T11:21:33.000Z</time>
</trkpt>
<trkpt lat="45.7382390" lon="10.0135000">
	<ele>1073.60</ele>
	<time>2023-04-15T11:21:36.000Z</time>
</trkpt>
<trkpt lat="45.7382910" lon="10.0134920">
	<ele>1074.00</ele>
	<time>2023-04-15T11:21:42.000Z</time>
</trkpt>
<trkpt lat="45.7383790" lon="10.0134710">
	<ele>1073.60</ele>
	<time>2023-04-15T11:21:50.000Z</time>
</trkpt>
<trkpt lat="45.7384270" lon="10.0134370">
	<ele>1073.40</ele>
	<time>2023-04-15T11:21:56.000Z</time>
</trkpt>
<trkpt lat="45.7384640" lon="10.0134340">
	<ele>1073.20</ele>
	<time>2023-04-15T11:21:59.000Z</time>
</trkpt>
<trkpt lat="45.7385270" lon="10.0134270">
	<ele>1073.20</ele>
	<time>2023-04-15T11:22:04.000Z</time>
</trkpt>
<trkpt lat="45.7385520" lon="10.0134210">
	<ele>1073.80</ele>
	<time>2023-04-15T11:22:06.000Z</time>
</trkpt>
<trkpt lat="45.7385880" lon="10.0134090">
	<ele>1074.40</ele>
	<time>2023-04-15T11:22:10.000Z</time>
</trkpt>
<trkpt lat="45.7386090" lon="10.0134070">
	<ele>1075.00</ele>
	<time>2023-04-15T11:22:13.000Z</time>
</trkpt>
<trkpt lat="45.7386200" lon="10.0134130">
	<ele>1075.20</ele>
	<time>2023-04-15T11:22:15.000Z</time>
</trkpt>
<trkpt lat="45.7386210" lon="10.0134150">
	<ele>1075.20</ele>
	<time>2023-04-15T11:22:17.000Z</time>
</trkpt>
<trkpt lat="45.7386220" lon="10.0134430">
	<ele>1075.40</ele>
	<time>2023-04-15T11:22:21.000Z</time>
</trkpt>
<trkpt lat="45.7386250" lon="10.0134390">
	<ele>1076.00</ele>
	<time>2023-04-15T11:22:23.000Z</time>
</trkpt>
<trkpt lat="45.7386350" lon="10.0134410">
	<ele>1075.80</ele>
	<time>2023-04-15T11:22:27.000Z</time>
</trkpt>
<trkpt lat="45.7386270" lon="10.0134260">
	<ele>1075.60</ele>
	<time>2023-04-15T11:22:30.000Z</time>
</trkpt>
<trkpt lat="45.7386220" lon="10.0134150">
	<ele>1075.60</ele>
	<time>2023-04-15T11:22:38.000Z</time>
</trkpt>
<trkpt lat="45.7386220" lon="10.0134180">
	<ele>1076.80</ele>
	<time>2023-04-15T11:22:49.000Z</time>
</trkpt>
<trkpt lat="45.7386220" lon="10.0134260">
	<ele>1077.80</ele>
	<time>2023-04-15T11:22:55.000Z</time>
</trkpt>
<trkpt lat="45.7386160" lon="10.0134880">
	<ele>1079.00</ele>
	<time>2023-04-15T11:23:01.000Z</time>
</trkpt>
<trkpt lat="45.7385810" lon="10.0135830">
	<ele>1080.00</ele>
	<time>2023-04-15T11:23:06.000Z</time>
</trkpt>
<trkpt lat="45.7385680" lon="10.0136150">
	<ele>1080.20</ele>
	<time>2023-04-15T11:23:08.000Z</time>
</trkpt>
<trkpt lat="45.7385470" lon="10.0136400">
	<ele>1080.80</ele>
	<time>2023-04-15T11:23:11.000Z</time>
</trkpt>
<trkpt lat="45.7385390" lon="10.0136520">
	<ele>1081.20</ele>
	<time>2023-04-15T11:23:13.000Z</time>
</trkpt>
<trkpt lat="45.7385380" lon="10.0136540">
	<ele>1081.40</ele>
	<time>2023-04-15T11:23:14.000Z</time>
</trkpt>
<trkpt lat="45.7385150" lon="10.0136910">
	<ele>1082.20</ele>
	<time>2023-04-15T11:23:20.000Z</time>
</trkpt>
<trkpt lat="45.7385180" lon="10.0137030">
	<ele>1082.60</ele>
	<time>2023-04-15T11:23:22.000Z</time>
</trkpt>
<trkpt lat="45.7385030" lon="10.0137370">
	<ele>1083.40</ele>
	<time>2023-04-15T11:23:28.000Z</time>
</trkpt>
<trkpt lat="45.7385020" lon="10.0137540">
	<ele>1084.00</ele>
	<time>2023-04-15T11:23:37.000Z</time>
</trkpt>
<trkpt lat="45.7384960" lon="10.0137570">
	<ele>1084.20</ele>
	<time>2023-04-15T11:23:43.000Z</time>
</trkpt>
<trkpt lat="45.7384960" lon="10.0137570">
	<ele>1084.20</ele>
	<time>2023-04-15T11:23:45.000Z</time>
</trkpt>
<trkpt lat="45.7384960" lon="10.0137570">
	<ele>1084.00</ele>
	<time>2023-04-15T11:23:57.000Z</time>
</trkpt>
<trkpt lat="45.7384960" lon="10.0137570">
	<ele>1083.80</ele>
	<time>2023-04-15T11:24:01.000Z</time>
</trkpt>
<trkpt lat="45.7384980" lon="10.0137740">
	<ele>1083.20</ele>
	<time>2023-04-15T11:24:06.000Z</time>
</trkpt>
<trkpt lat="45.7385010" lon="10.0138170">
	<ele>1083.00</ele>
	<time>2023-04-15T11:24:09.000Z</time>
</trkpt>
<trkpt lat="45.7385170" lon="10.0138710">
	<ele>1082.40</ele>
	<time>2023-04-15T11:24:13.000Z</time>
</trkpt>
<trkpt lat="45.7385180" lon="10.0138830">
	<ele>1082.40</ele>
	<time>2023-04-15T11:24:14.000Z</time>
</trkpt>
<trkpt lat="45.7385190" lon="10.0139160">
	<ele>1082.00</ele>
	<time>2023-04-15T11:24:18.000Z</time>
</trkpt>
<trkpt lat="45.7385210" lon="10.0139230">
	<ele>1081.80</ele>
	<time>2023-04-15T11:24:19.000Z</time>
</trkpt>
<trkpt lat="45.7385250" lon="10.0139390">
	<ele>1081.80</ele>
	<time>2023-04-15T11:24:21.000Z</time>
</trkpt>
<trkpt lat="45.7385240" lon="10.0139520">
	<ele>1081.20</ele>
	<time>2023-04-15T11:24:23.000Z</time>
</trkpt>
<trkpt lat="45.7385320" lon="10.0139800">
	<ele>1080.20</ele>
	<time>2023-04-15T11:24:27.000Z</time>
</trkpt>
<trkpt lat="45.7385320" lon="10.0139870">
	<ele>1080.00</ele>
	<time>2023-04-15T11:24:28.000Z</time>
</trkpt>
<trkpt lat="45.7385350" lon="10.0140630">
	<ele>1079.00</ele>
	<time>2023-04-15T11:24:35.000Z</time>
</trkpt>
<trkpt lat="45.7385370" lon="10.0140700">
	<ele>1078.80</ele>
	<time>2023-04-15T11:24:36.000Z</time>
</trkpt>
<trkpt lat="45.7385430" lon="10.0141240">
	<ele>1078.00</ele>
	<time>2023-04-15T11:24:42.000Z</time>
</trkpt>
<trkpt lat="45.7385470" lon="10.0141590">
	<ele>1077.40</ele>
	<time>2023-04-15T11:24:46.000Z</time>
</trkpt>
<trkpt lat="45.7385480" lon="10.0141670">
	<ele>1077.00</ele>
	<time>2023-04-15T11:24:47.000Z</time>
</trkpt>
<trkpt lat="45.7385710" lon="10.0141910">
	<ele>1075.80</ele>
	<time>2023-04-15T11:24:52.000Z</time>
</trkpt>
<trkpt lat="45.7385770" lon="10.0141960">
	<ele>1075.20</ele>
	<time>2023-04-15T11:24:54.000Z</time>
</trkpt>
<trkpt lat="45.7385840" lon="10.0142070">
	<ele>1074.80</ele>
	<time>2023-04-15T11:24:56.000Z</time>
</trkpt>
<trkpt lat="45.7385860" lon="10.0142220">
	<ele>1073.80</ele>
	<time>2023-04-15T11:24:59.000Z</time>
</trkpt>
<trkpt lat="45.7385940" lon="10.0142410">
	<ele>1073.40</ele>
	<time>2023-04-15T11:25:02.000Z</time>
</trkpt>
<trkpt lat="45.7386060" lon="10.0142560">
	<ele>1072.60</ele>
	<time>2023-04-15T11:25:06.000Z</time>
</trkpt>
<trkpt lat="45.7386140" lon="10.0142650">
	<ele>1071.20</ele>
	<time>2023-04-15T11:25:11.000Z</time>
</trkpt>
<trkpt lat="45.7386160" lon="10.0142710">
	<ele>1070.60</ele>
	<time>2023-04-15T11:25:16.000Z</time>
</trkpt>
<trkpt lat="45.7386140" lon="10.0142950">
	<ele>1070.20</ele>
	<time>2023-04-15T11:25:19.000Z</time>
</trkpt>
<trkpt lat="45.7386140" lon="10.0143260">
	<ele>1069.60</ele>
	<time>2023-04-15T11:25:24.000Z</time>
</trkpt>
<trkpt lat="45.7386140" lon="10.0143340">
	<ele>1069.20</ele>
	<time>2023-04-15T11:25:27.000Z</time>
</trkpt>
<trkpt lat="45.7386120" lon="10.0143350">
	<ele>1068.80</ele>
	<time>2023-04-15T11:25:30.000Z</time>
</trkpt>
<trkpt lat="45.7386270" lon="10.0143720">
	<ele>1068.00</ele>
	<time>2023-04-15T11:25:37.000Z</time>
</trkpt>
<trkpt lat="45.7386370" lon="10.0143760">
	<ele>1067.40</ele>
	<time>2023-04-15T11:25:39.000Z</time>
</trkpt>
<trkpt lat="45.7386510" lon="10.0143990">
	<ele>1066.80</ele>
	<time>2023-04-15T11:25:43.000Z</time>
</trkpt>
<trkpt lat="45.7386580" lon="10.0144360">
	<ele>1066.00</ele>
	<time>2023-04-15T11:25:48.000Z</time>
</trkpt>
<trkpt lat="45.7386600" lon="10.0144440">
	<ele>1065.60</ele>
	<time>2023-04-15T11:25:50.000Z</time>
</trkpt>
<trkpt lat="45.7386780" lon="10.0145030">
	<ele>1064.60</ele>
	<time>2023-04-15T11:25:56.000Z</time>
</trkpt>
<trkpt lat="45.7386950" lon="10.0145480">
	<ele>1063.60</ele>
	<time>2023-04-15T11:26:02.000Z</time>
</trkpt>
<trkpt lat="45.7387030" lon="10.0145720">
	<ele>1063.20</ele>
	<time>2023-04-15T11:26:04.000Z</time>
</trkpt>
<trkpt lat="45.7387090" lon="10.0145930">
	<ele>1062.60</ele>
	<time>2023-04-15T11:26:06.000Z</time>
</trkpt>
<trkpt lat="45.7387130" lon="10.0145990">
	<ele>1062.40</ele>
	<time>2023-04-15T11:26:07.000Z</time>
</trkpt>
<trkpt lat="45.7387110" lon="10.0146130">
	<ele>1061.80</ele>
	<time>2023-04-15T11:26:09.000Z</time>
</trkpt>
<trkpt lat="45.7387290" lon="10.0146380">
	<ele>1061.20</ele>
	<time>2023-04-15T11:26:13.000Z</time>
</trkpt>
<trkpt lat="45.7387410" lon="10.0146530">
	<ele>1060.40</ele>
	<time>2023-04-15T11:26:16.000Z</time>
</trkpt>
<trkpt lat="45.7387490" lon="10.0146600">
	<ele>1060.40</ele>
	<time>2023-04-15T11:26:17.000Z</time>
</trkpt>
<trkpt lat="45.7387640" lon="10.0146790">
	<ele>1060.20</ele>
	<time>2023-04-15T11:26:19.000Z</time>
</trkpt>
<trkpt lat="45.7387670" lon="10.0146840">
	<ele>1060.00</ele>
	<time>2023-04-15T11:26:20.000Z</time>
</trkpt>
<trkpt lat="45.7387700" lon="10.0146970">
	<ele>1059.60</ele>
	<time>2023-04-15T11:26:22.000Z</time>
</trkpt>
<trkpt lat="45.7387760" lon="10.0147130">
	<ele>1059.00</ele>
	<time>2023-04-15T11:26:25.000Z</time>
</trkpt>
<trkpt lat="45.7387830" lon="10.0147170">
	<ele>1058.80</ele>
	<time>2023-04-15T11:26:26.000Z</time>
</trkpt>
<trkpt lat="45.7387910" lon="10.0147310">
	<ele>1058.00</ele>
	<time>2023-04-15T11:26:30.000Z</time>
</trkpt>
<trkpt lat="45.7387980" lon="10.0147350">
	<ele>1057.60</ele>
	<time>2023-04-15T11:26:32.000Z</time>
</trkpt>
<trkpt lat="45.7388030" lon="10.0147340">
	<ele>1057.20</ele>
	<time>2023-04-15T11:26:34.000Z</time>
</trkpt>
<trkpt lat="45.7388030" lon="10.0147360">
	<ele>1057.00</ele>
	<time>2023-04-15T11:26:35.000Z</time>
</trkpt>
<trkpt lat="45.7388040" lon="10.0147330">
	<ele>1057.00</ele>
	<time>2023-04-15T11:26:36.000Z</time>
</trkpt>
<trkpt lat="45.7388010" lon="10.0147260">
	<ele>1056.20</ele>
	<time>2023-04-15T11:26:41.000Z</time>
</trkpt>
<trkpt lat="45.7388010" lon="10.0147270">
	<ele>1056.80</ele>
	<time>2023-04-15T11:26:50.000Z</time>
</trkpt>
<trkpt lat="45.7388030" lon="10.0148020">
	<ele>1056.00</ele>
	<time>2023-04-15T11:26:58.000Z</time>
</trkpt>
<trkpt lat="45.7387980" lon="10.0148800">
	<ele>1056.00</ele>
	<time>2023-04-15T11:27:03.000Z</time>
</trkpt>
<trkpt lat="45.7387970" lon="10.0148910">
	<ele>1056.20</ele>
	<time>2023-04-15T11:27:04.000Z</time>
</trkpt>
<trkpt lat="45.7387950" lon="10.0148950">
	<ele>1056.20</ele>
	<time>2023-04-15T11:27:05.000Z</time>
</trkpt>
<trkpt lat="45.7388110" lon="10.0149440">
	<ele>1057.00</ele>
	<time>2023-04-15T11:27:11.000Z</time>
</trkpt>
<trkpt lat="45.7388160" lon="10.0150340">
	<ele>1056.20</ele>
	<time>2023-04-15T11:27:18.000Z</time>
</trkpt>
<trkpt lat="45.7388150" lon="10.0150590">
	<ele>1056.40</ele>
	<time>2023-04-15T11:27:21.000Z</time>
</trkpt>
<trkpt lat="45.7388140" lon="10.0150790">
	<ele>1056.40</ele>
	<time>2023-04-15T11:27:23.000Z</time>
</trkpt>
<trkpt lat="45.7388110" lon="10.0150870">
	<ele>1056.40</ele>
	<time>2023-04-15T11:27:26.000Z</time>
</trkpt>
<trkpt lat="45.7388120" lon="10.0151080">
	<ele>1056.40</ele>
	<time>2023-04-15T11:27:31.000Z</time>
</trkpt>
<trkpt lat="45.7388060" lon="10.0151840">
	<ele>1056.20</ele>
	<time>2023-04-15T11:27:37.000Z</time>
</trkpt>
<trkpt lat="45.7388300" lon="10.0152470">
	<ele>1056.20</ele>
	<time>2023-04-15T11:27:42.000Z</time>
</trkpt>
<trkpt lat="45.7388400" lon="10.0152860">
	<ele>1056.20</ele>
	<time>2023-04-15T11:27:45.000Z</time>
</trkpt>
<trkpt lat="45.7388480" lon="10.0153170">
	<ele>1055.80</ele>
	<time>2023-04-15T11:27:49.000Z</time>
</trkpt>
<trkpt lat="45.7388550" lon="10.0153370">
	<ele>1055.80</ele>
	<time>2023-04-15T11:27:51.000Z</time>
</trkpt>
<trkpt lat="45.7388650" lon="10.0154100">
	<ele>1054.80</ele>
	<time>2023-04-15T11:27:57.000Z</time>
</trkpt>
<trkpt lat="45.7388660" lon="10.0154250">
	<ele>1054.80</ele>
	<time>2023-04-15T11:27:58.000Z</time>
</trkpt>
<trkpt lat="45.7388870" lon="10.0154780">
	<ele>1054.00</ele>
	<time>2023-04-15T11:28:05.000Z</time>
</trkpt>
<trkpt lat="45.7389060" lon="10.0154900">
	<ele>1053.60</ele>
	<time>2023-04-15T11:28:09.000Z</time>
</trkpt>
<trkpt lat="45.7389260" lon="10.0155100">
	<ele>1053.00</ele>
	<time>2023-04-15T11:28:13.000Z</time>
</trkpt>
<trkpt lat="45.7389420" lon="10.0155390">
	<ele>1052.60</ele>
	<time>2023-04-15T11:28:15.000Z</time>
</trkpt>
<trkpt lat="45.7389740" lon="10.0156150">
	<ele>1052.20</ele>
	<time>2023-04-15T11:28:20.000Z</time>
</trkpt>
<trkpt lat="45.7390390" lon="10.0157220">
	<ele>1052.20</ele>
	<time>2023-04-15T11:28:29.000Z</time>
</trkpt>
<trkpt lat="45.7390470" lon="10.0157330">
	<ele>1052.20</ele>
	<time>2023-04-15T11:28:30.000Z</time>
</trkpt>
<trkpt lat="45.7391290" lon="10.0158560">
	<ele>1051.60</ele>
	<time>2023-04-15T11:28:41.000Z</time>
</trkpt>
<trkpt lat="45.7391460" lon="10.0158720">
	<ele>1051.40</ele>
	<time>2023-04-15T11:28:43.000Z</time>
</trkpt>
<trkpt lat="45.7391880" lon="10.0159230">
	<ele>1050.80</ele>
	<time>2023-04-15T11:28:48.000Z</time>
</trkpt>
<trkpt lat="45.7391920" lon="10.0159340">
	<ele>1050.80</ele>
	<time>2023-04-15T11:28:49.000Z</time>
</trkpt>
<trkpt lat="45.7392290" lon="10.0160330">
	<ele>1050.80</ele>
	<time>2023-04-15T11:28:57.000Z</time>
</trkpt>
<trkpt lat="45.7392310" lon="10.0160330">
	<ele>1050.80</ele>
	<time>2023-04-15T11:28:58.000Z</time>
</trkpt>
<trkpt lat="45.7392360" lon="10.0160590">
	<ele>1050.80</ele>
	<time>2023-04-15T11:29:02.000Z</time>
</trkpt>
<trkpt lat="45.7392380" lon="10.0160720">
	<ele>1050.60</ele>
	<time>2023-04-15T11:29:03.000Z</time>
</trkpt>
<trkpt lat="45.7392400" lon="10.0160880">
	<ele>1050.60</ele>
	<time>2023-04-15T11:29:04.000Z</time>
</trkpt>
<trkpt lat="45.7392410" lon="10.0161000">
	<ele>1050.40</ele>
	<time>2023-04-15T11:29:05.000Z</time>
</trkpt>
<trkpt lat="45.7392390" lon="10.0161510">
	<ele>1050.60</ele>
	<time>2023-04-15T11:29:10.000Z</time>
</trkpt>
<trkpt lat="45.7392350" lon="10.0161590">
	<ele>1051.00</ele>
	<time>2023-04-15T11:29:12.000Z</time>
</trkpt>
<trkpt lat="45.7392350" lon="10.0161790">
	<ele>1051.20</ele>
	<time>2023-04-15T11:29:14.000Z</time>
</trkpt>
<trkpt lat="45.7392350" lon="10.0161890">
	<ele>1051.60</ele>
	<time>2023-04-15T11:29:15.000Z</time>
</trkpt>
<trkpt lat="45.7392360" lon="10.0162000">
	<ele>1051.60</ele>
	<time>2023-04-15T11:29:16.000Z</time>
</trkpt>
<trkpt lat="45.7392420" lon="10.0162310">
	<ele>1052.00</ele>
	<time>2023-04-15T11:29:18.000Z</time>
</trkpt>
<trkpt lat="45.7392520" lon="10.0162760">
	<ele>1052.40</ele>
	<time>2023-04-15T11:29:21.000Z</time>
</trkpt>
<trkpt lat="45.7392620" lon="10.0163100">
	<ele>1052.60</ele>
	<time>2023-04-15T11:29:23.000Z</time>
</trkpt>
<trkpt lat="45.7392820" lon="10.0163440">
	<ele>1052.80</ele>
	<time>2023-04-15T11:29:25.000Z</time>
</trkpt>
<trkpt lat="45.7392870" lon="10.0164120">
	<ele>1053.20</ele>
	<time>2023-04-15T11:29:29.000Z</time>
</trkpt>
<trkpt lat="45.7393010" lon="10.0164330">
	<ele>1053.60</ele>
	<time>2023-04-15T11:29:31.000Z</time>
</trkpt>
<trkpt lat="45.7393020" lon="10.0164840">
	<ele>1054.40</ele>
	<time>2023-04-15T11:29:36.000Z</time>
</trkpt>
<trkpt lat="45.7393010" lon="10.0164940">
	<ele>1054.60</ele>
	<time>2023-04-15T11:29:37.000Z</time>
</trkpt>
<trkpt lat="45.7393010" lon="10.0165050">
	<ele>1054.60</ele>
	<time>2023-04-15T11:29:38.000Z</time>
</trkpt>
<trkpt lat="45.7393040" lon="10.0165210">
	<ele>1055.00</ele>
	<time>2023-04-15T11:29:40.000Z</time>
</trkpt>
<trkpt lat="45.7393130" lon="10.0165540">
	<ele>1055.60</ele>
	<time>2023-04-15T11:29:43.000Z</time>
</trkpt>
<trkpt lat="45.7393120" lon="10.0165730">
	<ele>1056.00</ele>
	<time>2023-04-15T11:29:45.000Z</time>
</trkpt>
<trkpt lat="45.7393020" lon="10.0166640">
	<ele>1057.00</ele>
	<time>2023-04-15T11:29:52.000Z</time>
</trkpt>
<trkpt lat="45.7393030" lon="10.0166980">
	<ele>1057.60</ele>
	<time>2023-04-15T11:29:57.000Z</time>
</trkpt>
<trkpt lat="45.7393120" lon="10.0167040">
	<ele>1057.60</ele>
	<time>2023-04-15T11:30:00.000Z</time>
</trkpt>
<trkpt lat="45.7393160" lon="10.0167080">
	<ele>1057.60</ele>
	<time>2023-04-15T11:30:01.000Z</time>
</trkpt>
<trkpt lat="45.7393140" lon="10.0167450">
	<ele>1056.80</ele>
	<time>2023-04-15T11:30:06.000Z</time>
</trkpt>
<trkpt lat="45.7393130" lon="10.0167440">
	<ele>1056.80</ele>
	<time>2023-04-15T11:30:07.000Z</time>
</trkpt>
<trkpt lat="45.7393140" lon="10.0167470">
	<ele>1057.20</ele>
	<time>2023-04-15T11:30:12.000Z</time>
</trkpt>
<trkpt lat="45.7393140" lon="10.0167460">
	<ele>1057.40</ele>
	<time>2023-04-15T11:30:22.000Z</time>
</trkpt>
<trkpt lat="45.7393140" lon="10.0167450">
	<ele>1057.40</ele>
	<time>2023-04-15T11:30:27.000Z</time>
</trkpt>
<trkpt lat="45.7393120" lon="10.0167460">
	<ele>1056.80</ele>
	<time>2023-04-15T11:30:36.000Z</time>
</trkpt>
<trkpt lat="45.7393200" lon="10.0168280">
	<ele>1056.60</ele>
	<time>2023-04-15T11:30:42.000Z</time>
</trkpt>
<trkpt lat="45.7393330" lon="10.0169260">
	<ele>1056.60</ele>
	<time>2023-04-15T11:30:47.000Z</time>
</trkpt>
<trkpt lat="45.7393340" lon="10.0169380">
	<ele>1056.60</ele>
	<time>2023-04-15T11:30:48.000Z</time>
</trkpt>
<trkpt lat="45.7393310" lon="10.0170090">
	<ele>1057.00</ele>
	<time>2023-04-15T11:30:55.000Z</time>
</trkpt>
<trkpt lat="45.7393350" lon="10.0170490">
	<ele>1057.40</ele>
	<time>2023-04-15T11:31:02.000Z</time>
</trkpt>
<trkpt lat="45.7393390" lon="10.0170680">
	<ele>1057.40</ele>
	<time>2023-04-15T11:31:05.000Z</time>
</trkpt>
<trkpt lat="45.7393470" lon="10.0170700">
	<ele>1057.20</ele>
	<time>2023-04-15T11:31:07.000Z</time>
</trkpt>
<trkpt lat="45.7393470" lon="10.0170860">
	<ele>1057.00</ele>
	<time>2023-04-15T11:31:10.000Z</time>
</trkpt>
<trkpt lat="45.7393550" lon="10.0171450">
	<ele>1056.60</ele>
	<time>2023-04-15T11:31:18.000Z</time>
</trkpt>
<trkpt lat="45.7393600" lon="10.0172030">
	<ele>1056.80</ele>
	<time>2023-04-15T11:31:25.000Z</time>
</trkpt>
<trkpt lat="45.7393780" lon="10.0172970">
	<ele>1056.60</ele>
	<time>2023-04-15T11:31:32.000Z</time>
</trkpt>
<trkpt lat="45.7394170" lon="10.0173750">
	<ele>1056.00</ele>
	<time>2023-04-15T11:31:37.000Z</time>
</trkpt>
<trkpt lat="45.7394390" lon="10.0174420">
	<ele>1056.00</ele>
	<time>2023-04-15T11:31:41.000Z</time>
</trkpt>
<trkpt lat="45.7394400" lon="10.0174840">
	<ele>1056.60</ele>
	<time>2023-04-15T11:31:47.000Z</time>
</trkpt>
<trkpt lat="45.7394410" lon="10.0174850">
	<ele>1056.60</ele>
	<time>2023-04-15T11:31:48.000Z</time>
</trkpt>
<trkpt lat="45.7394420" lon="10.0174870">
	<ele>1056.60</ele>
	<time>2023-04-15T11:31:49.000Z</time>
</trkpt>
<trkpt lat="45.7394620" lon="10.0175470">
	<ele>1056.80</ele>
	<time>2023-04-15T11:31:56.000Z</time>
</trkpt>
<trkpt lat="45.7394670" lon="10.0175840">
	<ele>1056.80</ele>
	<time>2023-04-15T11:32:03.000Z</time>
</trkpt>
<trkpt lat="45.7394580" lon="10.0175800">
	<ele>1056.60</ele>
	<time>2023-04-15T11:32:11.000Z</time>
</trkpt>
<trkpt lat="45.7394580" lon="10.0175800">
	<ele>1056.80</ele>
	<time>2023-04-15T11:32:15.000Z</time>
</trkpt>
<trkpt lat="45.7394480" lon="10.0175810">
	<ele>1056.40</ele>
	<time>2023-04-15T11:32:36.000Z</time>
</trkpt>
<trkpt lat="45.7394470" lon="10.0175810">
	<ele>1056.40</ele>
	<time>2023-04-15T11:32:46.000Z</time>
</trkpt>
<trkpt lat="45.7394470" lon="10.0175800">
	<ele>1056.40</ele>
	<time>2023-04-15T11:32:59.000Z</time>
</trkpt>
<trkpt lat="45.7394470" lon="10.0175800">
	<ele>1056.40</ele>
	<time>2023-04-15T11:33:01.000Z</time>
</trkpt>
<trkpt lat="45.7394470" lon="10.0175800">
	<ele>1056.40</ele>
	<time>2023-04-15T11:33:05.000Z</time>
</trkpt>
<trkpt lat="45.7394330" lon="10.0175910">
	<ele>1056.40</ele>
	<time>2023-04-15T11:33:21.000Z</time>
</trkpt>
<trkpt lat="45.7394290" lon="10.0175930">
	<ele>1056.40</ele>
	<time>2023-04-15T11:33:29.000Z</time>
</trkpt>
<trkpt lat="45.7394270" lon="10.0175930">
	<ele>1056.40</ele>
	<time>2023-04-15T11:33:47.000Z</time>
</trkpt>
<trkpt lat="45.7394270" lon="10.0175930">
	<ele>1056.40</ele>
	<time>2023-04-15T11:33:49.000Z</time>
</trkpt>
<trkpt lat="45.7394270" lon="10.0175930">
	<ele>1056.40</ele>
	<time>2023-04-15T11:33:53.000Z</time>
</trkpt>
<trkpt lat="45.7394270" lon="10.0175920">
	<ele>1056.40</ele>
	<time>2023-04-15T11:33:57.000Z</time>
</trkpt>
<trkpt lat="45.7394200" lon="10.0175890">
	<ele>1056.40</ele>
	<time>2023-04-15T11:34:05.000Z</time>
</trkpt>
<trkpt lat="45.7394190" lon="10.0175890">
	<ele>1056.40</ele>
	<time>2023-04-15T11:34:07.000Z</time>
</trkpt>
<trkpt lat="45.7394180" lon="10.0175890">
	<ele>1056.40</ele>
	<time>2023-04-15T11:34:09.000Z</time>
</trkpt>
<trkpt lat="45.7394510" lon="10.0176840">
	<ele>1056.40</ele>
	<time>2023-04-15T11:34:18.000Z</time>
</trkpt>
<trkpt lat="45.7394750" lon="10.0177720">
	<ele>1056.40</ele>
	<time>2023-04-15T11:34:23.000Z</time>
</trkpt>
<trkpt lat="45.7394820" lon="10.0177860">
	<ele>1056.40</ele>
	<time>2023-04-15T11:34:24.000Z</time>
</trkpt>
<trkpt lat="45.7395170" lon="10.0178370">
	<ele>1056.40</ele>
	<time>2023-04-15T11:34:28.000Z</time>
</trkpt>
<trkpt lat="45.7395360" lon="10.0178690">
	<ele>1056.40</ele>
	<time>2023-04-15T11:34:31.000Z</time>
</trkpt>
<trkpt lat="45.7396190" lon="10.0180150">
	<ele>1056.40</ele>
	<time>2023-04-15T11:34:41.000Z</time>
</trkpt>
<trkpt lat="45.7396620" lon="10.0181060">
	<ele>1055.00</ele>
	<time>2023-04-15T11:34:49.000Z</time>
</trkpt>
<trkpt lat="45.7396690" lon="10.0181160">
	<ele>1054.80</ele>
	<time>2023-04-15T11:34:50.000Z</time>
</trkpt>
<trkpt lat="45.7397450" lon="10.0182420">
	<ele>1053.80</ele>
	<time>2023-04-15T11:35:00.000Z</time>
</trkpt>
<trkpt lat="45.7397560" lon="10.0182570">
	<ele>1053.80</ele>
	<time>2023-04-15T11:35:01.000Z</time>
</trkpt>
<trkpt lat="45.7398370" lon="10.0183920">
	<ele>1052.80</ele>
	<time>2023-04-15T11:35:11.000Z</time>
</trkpt>
<trkpt lat="45.7398440" lon="10.0184050">
	<ele>1052.80</ele>
	<time>2023-04-15T11:35:12.000Z</time>
</trkpt>
<trkpt lat="45.7398960" lon="10.0185170">
	<ele>1052.20</ele>
	<time>2023-04-15T11:35:20.000Z</time>
</trkpt>
<trkpt lat="45.7399120" lon="10.0185540">
	<ele>1051.60</ele>
	<time>2023-04-15T11:35:24.000Z</time>
</trkpt>
<trkpt lat="45.7399290" lon="10.0186010">
	<ele>1051.20</ele>
	<time>2023-04-15T11:35:28.000Z</time>
</trkpt>
<trkpt lat="45.7399530" lon="10.0186520">
	<ele>1051.00</ele>
	<time>2023-04-15T11:35:32.000Z</time>
</trkpt>
<trkpt lat="45.7399690" lon="10.0186910">
	<ele>1050.60</ele>
	<time>2023-04-15T11:35:35.000Z</time>
</trkpt>
<trkpt lat="45.7399770" lon="10.0187000">
	<ele>1050.40</ele>
	<time>2023-04-15T11:35:36.000Z</time>
</trkpt>
<trkpt lat="45.7399870" lon="10.0187130">
	<ele>1050.00</ele>
	<time>2023-04-15T11:35:38.000Z</time>
</trkpt>
<trkpt lat="45.7400050" lon="10.0187660">
	<ele>1049.40</ele>
	<time>2023-04-15T11:35:42.000Z</time>
</trkpt>
<trkpt lat="45.7400440" lon="10.0188250">
	<ele>1048.80</ele>
	<time>2023-04-15T11:35:47.000Z</time>
</trkpt>
<trkpt lat="45.7400690" lon="10.0188900">
	<ele>1048.40</ele>
	<time>2023-04-15T11:35:52.000Z</time>
</trkpt>
<trkpt lat="45.7400930" lon="10.0189560">
	<ele>1048.20</ele>
	<time>2023-04-15T11:35:57.000Z</time>
</trkpt>
<trkpt lat="45.7401290" lon="10.0190750">
	<ele>1048.40</ele>
	<time>2023-04-15T11:36:06.000Z</time>
</trkpt>
<trkpt lat="45.7401560" lon="10.0191570">
	<ele>1048.80</ele>
	<time>2023-04-15T11:36:13.000Z</time>
</trkpt>
<trkpt lat="45.7401590" lon="10.0191600">
	<ele>1048.80</ele>
	<time>2023-04-15T11:36:15.000Z</time>
</trkpt>
<trkpt lat="45.7401580" lon="10.0191580">
	<ele>1049.00</ele>
	<time>2023-04-15T11:36:21.000Z</time>
</trkpt>
<trkpt lat="45.7401510" lon="10.0192110">
	<ele>1048.60</ele>
	<time>2023-04-15T11:36:52.000Z</time>
</trkpt>
<trkpt lat="45.7401670" lon="10.0192240">
	<ele>1048.40</ele>
	<time>2023-04-15T11:36:57.000Z</time>
</trkpt>
<trkpt lat="45.7402350" lon="10.0192930">
	<ele>1048.00</ele>
	<time>2023-04-15T11:37:04.000Z</time>
</trkpt>
<trkpt lat="45.7402470" lon="10.0193080">
	<ele>1048.00</ele>
	<time>2023-04-15T11:37:07.000Z</time>
</trkpt>
<trkpt lat="45.7402460" lon="10.0193080">
	<ele>1048.00</ele>
	<time>2023-04-15T11:37:09.000Z</time>
</trkpt>
<trkpt lat="45.7402700" lon="10.0193400">
	<ele>1047.80</ele>
	<time>2023-04-15T11:37:15.000Z</time>
</trkpt>
<trkpt lat="45.7402730" lon="10.0193470">
	<ele>1047.60</ele>
	<time>2023-04-15T11:37:16.000Z</time>
</trkpt>
<trkpt lat="45.7402770" lon="10.0193610">
	<ele>1047.60</ele>
	<time>2023-04-15T11:37:22.000Z</time>
</trkpt>
<trkpt lat="45.7402770" lon="10.0193610">
	<ele>1047.60</ele>
	<time>2023-04-15T11:37:23.000Z</time>
</trkpt>
<trkpt lat="45.7402980" lon="10.0193840">
	<ele>1047.40</ele>
	<time>2023-04-15T11:37:37.000Z</time>
</trkpt>
<trkpt lat="45.7403890" lon="10.0195000">
	<ele>1047.40</ele>
	<time>2023-04-15T11:37:46.000Z</time>
</trkpt>
<trkpt lat="45.7404460" lon="10.0195790">
	<ele>1048.40</ele>
	<time>2023-04-15T11:37:56.000Z</time>
</trkpt>
<trkpt lat="45.7404480" lon="10.0195830">
	<ele>1048.40</ele>
	<time>2023-04-15T11:37:57.000Z</time>
</trkpt>
<trkpt lat="45.7404600" lon="10.0196000">
	<ele>1048.80</ele>
	<time>2023-04-15T11:38:01.000Z</time>
</trkpt>
<trkpt lat="45.7404570" lon="10.0196220">
	<ele>1049.20</ele>
	<time>2023-04-15T11:38:03.000Z</time>
</trkpt>
<trkpt lat="45.7404550" lon="10.0196320">
	<ele>1049.20</ele>
	<time>2023-04-15T11:38:04.000Z</time>
</trkpt>
<trkpt lat="45.7404540" lon="10.0196380">
	<ele>1049.40</ele>
	<time>2023-04-15T11:38:05.000Z</time>
</trkpt>
<trkpt lat="45.7404560" lon="10.0196470">
	<ele>1049.60</ele>
	<time>2023-04-15T11:38:06.000Z</time>
</trkpt>
<trkpt lat="45.7404610" lon="10.0196700">
	<ele>1049.80</ele>
	<time>2023-04-15T11:38:08.000Z</time>
</trkpt>
<trkpt lat="45.7404730" lon="10.0197120">
	<ele>1050.00</ele>
	<time>2023-04-15T11:38:11.000Z</time>
</trkpt>
<trkpt lat="45.7404780" lon="10.0197240">
	<ele>1050.40</ele>
	<time>2023-04-15T11:38:14.000Z</time>
</trkpt>
<trkpt lat="45.7404790" lon="10.0197230">
	<ele>1050.60</ele>
	<time>2023-04-15T11:38:17.000Z</time>
</trkpt>
<trkpt lat="45.7404820" lon="10.0197230">
	<ele>1050.80</ele>
	<time>2023-04-15T11:38:19.000Z</time>
</trkpt>
<trkpt lat="45.7405020" lon="10.0197470">
	<ele>1051.20</ele>
	<time>2023-04-15T11:38:25.000Z</time>
</trkpt>
<trkpt lat="45.7405050" lon="10.0197530">
	<ele>1051.40</ele>
	<time>2023-04-15T11:38:27.000Z</time>
</trkpt>
<trkpt lat="45.7405100" lon="10.0197590">
	<ele>1051.60</ele>
	<time>2023-04-15T11:38:29.000Z</time>
</trkpt>
<trkpt lat="45.7405090" lon="10.0197660">
	<ele>1052.00</ele>
	<time>2023-04-15T11:38:32.000Z</time>
</trkpt>
<trkpt lat="45.7405090" lon="10.0197660">
	<ele>1052.00</ele>
	<time>2023-04-15T11:38:35.000Z</time>
</trkpt>
<trkpt lat="45.7405090" lon="10.0197660">
	<ele>1051.60</ele>
	<time>2023-04-15T11:38:43.000Z</time>
</trkpt>
<trkpt lat="45.7405040" lon="10.0198560">
	<ele>1051.60</ele>
	<time>2023-04-15T11:38:58.000Z</time>
</trkpt>
<trkpt lat="45.7404580" lon="10.0199710">
	<ele>1050.40</ele>
	<time>2023-04-15T11:39:08.000Z</time>
</trkpt>
<trkpt lat="45.7404470" lon="10.0200070">
	<ele>1050.00</ele>
	<time>2023-04-15T11:39:11.000Z</time>
</trkpt>
<trkpt lat="45.7404460" lon="10.0200670">
	<ele>1049.60</ele>
	<time>2023-04-15T11:39:16.000Z</time>
</trkpt>
<trkpt lat="45.7404530" lon="10.0202260">
	<ele>1050.20</ele>
	<time>2023-04-15T11:39:28.000Z</time>
</trkpt>
<trkpt lat="45.7404590" lon="10.0202790">
	<ele>1051.00</ele>
	<time>2023-04-15T11:39:33.000Z</time>
</trkpt>
<trkpt lat="45.7404630" lon="10.0203070">
	<ele>1051.20</ele>
	<time>2023-04-15T11:39:35.000Z</time>
</trkpt>
<trkpt lat="45.7404630" lon="10.0203610">
	<ele>1051.20</ele>
	<time>2023-04-15T11:39:39.000Z</time>
</trkpt>
<trkpt lat="45.7404640" lon="10.0203730">
	<ele>1051.40</ele>
	<time>2023-04-15T11:39:40.000Z</time>
</trkpt>
<trkpt lat="45.7404670" lon="10.0204080">
	<ele>1051.80</ele>
	<time>2023-04-15T11:39:43.000Z</time>
</trkpt>
<trkpt lat="45.7404680" lon="10.0204190">
	<ele>1052.00</ele>
	<time>2023-04-15T11:39:44.000Z</time>
</trkpt>
<trkpt lat="45.7404800" lon="10.0204770">
	<ele>1052.40</ele>
	<time>2023-04-15T11:39:50.000Z</time>
</trkpt>
<trkpt lat="45.7404790" lon="10.0204810">
	<ele>1052.40</ele>
	<time>2023-04-15T11:39:51.000Z</time>
</trkpt>
<trkpt lat="45.7404780" lon="10.0204850">
	<ele>1052.40</ele>
	<time>2023-04-15T11:39:52.000Z</time>
</trkpt>
<trkpt lat="45.7404880" lon="10.0204930">
	<ele>1052.40</ele>
	<time>2023-04-15T11:39:59.000Z</time>
</trkpt>
<trkpt lat="45.7404900" lon="10.0204920">
	<ele>1051.80</ele>
	<time>2023-04-15T11:40:10.000Z</time>
</trkpt>
<trkpt lat="45.7404890" lon="10.0204910">
	<ele>1051.00</ele>
	<time>2023-04-15T11:40:17.000Z</time>
</trkpt>
<trkpt lat="45.7404830" lon="10.0204910">
	<ele>1050.00</ele>
	<time>2023-04-15T11:40:24.000Z</time>
</trkpt>
<trkpt lat="45.7404800" lon="10.0204920">
	<ele>1050.40</ele>
	<time>2023-04-15T11:40:28.000Z</time>
</trkpt>
<trkpt lat="45.7404770" lon="10.0204920">
	<ele>1051.00</ele>
	<time>2023-04-15T11:40:31.000Z</time>
</trkpt>
<trkpt lat="45.7404700" lon="10.0205250">
	<ele>1051.00</ele>
	<time>2023-04-15T11:40:47.000Z</time>
</trkpt>
<trkpt lat="45.7404710" lon="10.0205340">
	<ele>1051.00</ele>
	<time>2023-04-15T11:40:51.000Z</time>
</trkpt>
<trkpt lat="45.7404710" lon="10.0205440">
	<ele>1051.00</ele>
	<time>2023-04-15T11:40:55.000Z</time>
</trkpt>
<trkpt lat="45.7404750" lon="10.0206050">
	<ele>1051.00</ele>
	<time>2023-04-15T11:41:29.000Z</time>
</trkpt>
<trkpt lat="45.7404840" lon="10.0206070">
	<ele>1053.80</ele>
	<time>2023-04-15T11:41:32.000Z</time>
</trkpt>
<trkpt lat="45.7405120" lon="10.0207190">
	<ele>1054.00</ele>
	<time>2023-04-15T11:41:44.000Z</time>
</trkpt>
<trkpt lat="45.7405130" lon="10.0207250">
	<ele>1054.00</ele>
	<time>2023-04-15T11:41:47.000Z</time>
</trkpt>
<trkpt lat="45.7405180" lon="10.0207380">
	<ele>1052.80</ele>
	<time>2023-04-15T11:42:17.000Z</time>
</trkpt>
<trkpt lat="45.7405090" lon="10.0207280">
	<ele>1052.40</ele>
	<time>2023-04-15T11:42:22.000Z</time>
</trkpt>
<trkpt lat="45.7405030" lon="10.0207200">
	<ele>1051.80</ele>
	<time>2023-04-15T11:42:28.000Z</time>
</trkpt>
<trkpt lat="45.7404960" lon="10.0207180">
	<ele>1051.20</ele>
	<time>2023-04-15T11:42:36.000Z</time>
</trkpt>
<trkpt lat="45.7404940" lon="10.0207190">
	<ele>1051.00</ele>
	<time>2023-04-15T11:42:38.000Z</time>
</trkpt>
<trkpt lat="45.7404940" lon="10.0207190">
	<ele>1050.80</ele>
	<time>2023-04-15T11:42:39.000Z</time>
</trkpt>
<trkpt lat="45.7404930" lon="10.0207200">
	<ele>1050.60</ele>
	<time>2023-04-15T11:42:41.000Z</time>
</trkpt>
<trkpt lat="45.7404910" lon="10.0207200">
	<ele>1050.60</ele>
	<time>2023-04-15T11:42:44.000Z</time>
</trkpt>
<trkpt lat="45.7404890" lon="10.0207210">
	<ele>1050.60</ele>
	<time>2023-04-15T11:42:47.000Z</time>
</trkpt>
<trkpt lat="45.7404820" lon="10.0207220">
	<ele>1050.80</ele>
	<time>2023-04-15T11:42:53.000Z</time>
</trkpt>
<trkpt lat="45.7404790" lon="10.0207250">
	<ele>1050.60</ele>
	<time>2023-04-15T11:42:59.000Z</time>
</trkpt>
<trkpt lat="45.7404790" lon="10.0207260">
	<ele>1050.00</ele>
	<time>2023-04-15T11:43:00.000Z</time>
</trkpt>
<trkpt lat="45.7404770" lon="10.0207290">
	<ele>1049.00</ele>
	<time>2023-04-15T11:43:04.000Z</time>
</trkpt>
<trkpt lat="45.7404800" lon="10.0207430">
	<ele>1048.80</ele>
	<time>2023-04-15T11:43:08.000Z</time>
</trkpt>
<trkpt lat="45.7404670" lon="10.0207570">
	<ele>1048.80</ele>
	<time>2023-04-15T11:43:13.000Z</time>
</trkpt>
<trkpt lat="45.7404630" lon="10.0207760">
	<ele>1048.80</ele>
	<time>2023-04-15T11:43:17.000Z</time>
</trkpt>
<trkpt lat="45.7404620" lon="10.0207780">
	<ele>1048.60</ele>
	<time>2023-04-15T11:43:19.000Z</time>
</trkpt>
<trkpt lat="45.7404620" lon="10.0207780">
	<ele>1048.40</ele>
	<time>2023-04-15T11:43:23.000Z</time>
</trkpt>
<trkpt lat="45.7404980" lon="10.0208520">
	<ele>1048.00</ele>
	<time>2023-04-15T11:43:38.000Z</time>
</trkpt>
<trkpt lat="45.7405350" lon="10.0209350">
	<ele>1047.80</ele>
	<time>2023-04-15T11:43:42.000Z</time>
</trkpt>
<trkpt lat="45.7405630" lon="10.0209950">
	<ele>1047.60</ele>
	<time>2023-04-15T11:43:45.000Z</time>
</trkpt>
<trkpt lat="45.7406270" lon="10.0211170">
	<ele>1047.60</ele>
	<time>2023-04-15T11:43:54.000Z</time>
</trkpt>
<trkpt lat="45.7406510" lon="10.0212280">
	<ele>1047.80</ele>
	<time>2023-04-15T11:44:00.000Z</time>
</trkpt>
<trkpt lat="45.7406630" lon="10.0212640">
	<ele>1047.60</ele>
	<time>2023-04-15T11:44:02.000Z</time>
</trkpt>
<trkpt lat="45.7407170" lon="10.0213450">
	<ele>1047.20</ele>
	<time>2023-04-15T11:44:09.000Z</time>
</trkpt>
<trkpt lat="45.7407770" lon="10.0214620">
	<ele>1047.00</ele>
	<time>2023-04-15T11:44:18.000Z</time>
</trkpt>
<trkpt lat="45.7407830" lon="10.0214710">
	<ele>1047.00</ele>
	<time>2023-04-15T11:44:19.000Z</time>
</trkpt>
<trkpt lat="45.7408240" lon="10.0215170">
	<ele>1047.40</ele>
	<time>2023-04-15T11:44:23.000Z</time>
</trkpt>
<trkpt lat="45.7408470" lon="10.0215740">
	<ele>1047.40</ele>
	<time>2023-04-15T11:44:27.000Z</time>
</trkpt>
<trkpt lat="45.7408610" lon="10.0216060">
	<ele>1047.40</ele>
	<time>2023-04-15T11:44:30.000Z</time>
</trkpt>
<trkpt lat="45.7409000" lon="10.0217210">
	<ele>1047.60</ele>
	<time>2023-04-15T11:44:37.000Z</time>
</trkpt>
<trkpt lat="45.7409320" lon="10.0218890">
	<ele>1047.40</ele>
	<time>2023-04-15T11:44:46.000Z</time>
</trkpt>
<trkpt lat="45.7409440" lon="10.0220650">
	<ele>1047.40</ele>
	<time>2023-04-15T11:44:56.000Z</time>
</trkpt>
<trkpt lat="45.7409580" lon="10.0221020">
	<ele>1047.60</ele>
	<time>2023-04-15T11:44:59.000Z</time>
</trkpt>
<trkpt lat="45.7409760" lon="10.0221630">
	<ele>1047.80</ele>
	<time>2023-04-15T11:45:03.000Z</time>
</trkpt>
<trkpt lat="45.7409740" lon="10.0222090">
	<ele>1047.80</ele>
	<time>2023-04-15T11:45:06.000Z</time>
</trkpt>
<trkpt lat="45.7409780" lon="10.0222380">
	<ele>1048.00</ele>
	<time>2023-04-15T11:45:09.000Z</time>
</trkpt>
<trkpt lat="45.7410080" lon="10.0223680">
	<ele>1048.80</ele>
	<time>2023-04-15T11:45:17.000Z</time>
</trkpt>
<trkpt lat="45.7410110" lon="10.0223820">
	<ele>1048.80</ele>
	<time>2023-04-15T11:45:18.000Z</time>
</trkpt>
<trkpt lat="45.7410030" lon="10.0224690">
	<ele>1049.00</ele>
	<time>2023-04-15T11:45:23.000Z</time>
</trkpt>
<trkpt lat="45.7410410" lon="10.0225560">
	<ele>1049.60</ele>
	<time>2023-04-15T11:45:28.000Z</time>
</trkpt>
<trkpt lat="45.7410530" lon="10.0226060">
	<ele>1050.00</ele>
	<time>2023-04-15T11:45:31.000Z</time>
</trkpt>
<trkpt lat="45.7410640" lon="10.0226550">
	<ele>1050.20</ele>
	<time>2023-04-15T11:45:34.000Z</time>
</trkpt>
<trkpt lat="45.7411120" lon="10.0227060">
	<ele>1050.60</ele>
	<time>2023-04-15T11:45:38.000Z</time>
</trkpt>
<trkpt lat="45.7411210" lon="10.0227220">
	<ele>1050.80</ele>
	<time>2023-04-15T11:45:39.000Z</time>
</trkpt>
<trkpt lat="45.7411260" lon="10.0227740">
	<ele>1050.80</ele>
	<time>2023-04-15T11:45:41.000Z</time>
</trkpt>
<trkpt lat="45.7411310" lon="10.0228090">
	<ele>1051.00</ele>
	<time>2023-04-15T11:45:43.000Z</time>
</trkpt>
<trkpt lat="45.7411630" lon="10.0228220">
	<ele>1051.00</ele>
	<time>2023-04-15T11:45:45.000Z</time>
</trkpt>
<trkpt lat="45.7411690" lon="10.0228380">
	<ele>1051.00</ele>
	<time>2023-04-15T11:45:46.000Z</time>
</trkpt>
<trkpt lat="45.7412010" lon="10.0229460">
	<ele>1051.00</ele>
	<time>2023-04-15T11:45:51.000Z</time>
</trkpt>
<trkpt lat="45.7412090" lon="10.0229560">
	<ele>1051.00</ele>
	<time>2023-04-15T11:45:52.000Z</time>
</trkpt>
<trkpt lat="45.7412280" lon="10.0230170">
	<ele>1050.60</ele>
	<time>2023-04-15T11:45:56.000Z</time>
</trkpt>
<trkpt lat="45.7412320" lon="10.0230450">
	<ele>1050.40</ele>
	<time>2023-04-15T11:45:58.000Z</time>
</trkpt>
<trkpt lat="45.7412440" lon="10.0230500">
	<ele>1050.20</ele>
	<time>2023-04-15T11:45:59.000Z</time>
</trkpt>
<trkpt lat="45.7412770" lon="10.0230540">
	<ele>1050.20</ele>
	<time>2023-04-15T11:46:01.000Z</time>
</trkpt>
<trkpt lat="45.7413260" lon="10.0231140">
	<ele>1050.00</ele>
	<time>2023-04-15T11:46:05.000Z</time>
</trkpt>
<trkpt lat="45.7413380" lon="10.0231350">
	<ele>1050.00</ele>
	<time>2023-04-15T11:46:07.000Z</time>
</trkpt>
<trkpt lat="45.7413490" lon="10.0231360">
	<ele>1050.00</ele>
	<time>2023-04-15T11:46:08.000Z</time>
</trkpt>
<trkpt lat="45.7413770" lon="10.0231650">
	<ele>1050.00</ele>
	<time>2023-04-15T11:46:11.000Z</time>
</trkpt>
<trkpt lat="45.7413950" lon="10.0231900">
	<ele>1050.00</ele>
	<time>2023-04-15T11:46:13.000Z</time>
</trkpt>
<trkpt lat="45.7414090" lon="10.0232180">
	<ele>1050.00</ele>
	<time>2023-04-15T11:46:15.000Z</time>
</trkpt>
<trkpt lat="45.7414220" lon="10.0232380">
	<ele>1050.00</ele>
	<time>2023-04-15T11:46:17.000Z</time>
</trkpt>
<trkpt lat="45.7415650" lon="10.0233380">
	<ele>1049.60</ele>
	<time>2023-04-15T11:46:28.000Z</time>
</trkpt>
<trkpt lat="45.7416570" lon="10.0233850">
	<ele>1049.20</ele>
	<time>2023-04-15T11:46:35.000Z</time>
</trkpt>
<trkpt lat="45.7416690" lon="10.0233940">
	<ele>1049.20</ele>
	<time>2023-04-15T11:46:36.000Z</time>
</trkpt>
<trkpt lat="45.7417570" lon="10.0234950">
	<ele>1049.60</ele>
	<time>2023-04-15T11:46:45.000Z</time>
</trkpt>
<trkpt lat="45.7418280" lon="10.0235600">
	<ele>1048.80</ele>
	<time>2023-04-15T11:46:51.000Z</time>
</trkpt>
<trkpt lat="45.7418390" lon="10.0235700">
	<ele>1048.60</ele>
	<time>2023-04-15T11:46:52.000Z</time>
</trkpt>
<trkpt lat="45.7418590" lon="10.0236010">
	<ele>1048.40</ele>
	<time>2023-04-15T11:46:55.000Z</time>
</trkpt>
<trkpt lat="45.7419020" lon="10.0236510">
	<ele>1048.00</ele>
	<time>2023-04-15T11:46:59.000Z</time>
</trkpt>
<trkpt lat="45.7419240" lon="10.0237070">
	<ele>1047.60</ele>
	<time>2023-04-15T11:47:04.000Z</time>
</trkpt>
<trkpt lat="45.7419250" lon="10.0237060">
	<ele>1047.60</ele>
	<time>2023-04-15T11:47:05.000Z</time>
</trkpt>
<trkpt lat="45.7419270" lon="10.0237050">
	<ele>1047.60</ele>
	<time>2023-04-15T11:47:06.000Z</time>
</trkpt>
<trkpt lat="45.7419490" lon="10.0237130">
	<ele>1047.20</ele>
	<time>2023-04-15T11:47:12.000Z</time>
</trkpt>
<trkpt lat="45.7419560" lon="10.0237210">
	<ele>1047.20</ele>
	<time>2023-04-15T11:47:17.000Z</time>
</trkpt>
<trkpt lat="45.7419610" lon="10.0237390">
	<ele>1047.20</ele>
	<time>2023-04-15T11:47:19.000Z</time>
</trkpt>
<trkpt lat="45.7419920" lon="10.0238270">
	<ele>1047.20</ele>
	<time>2023-04-15T11:47:25.000Z</time>
</trkpt>
<trkpt lat="45.7420180" lon="10.0238640">
	<ele>1047.20</ele>
	<time>2023-04-15T11:47:28.000Z</time>
</trkpt>
<trkpt lat="45.7420420" lon="10.0238850">
	<ele>1047.20</ele>
	<time>2023-04-15T11:47:32.000Z</time>
</trkpt>
<trkpt lat="45.7420530" lon="10.0238630">
	<ele>1047.20</ele>
	<time>2023-04-15T11:47:34.000Z</time>
</trkpt>
<trkpt lat="45.7420510" lon="10.0238380">
	<ele>1047.20</ele>
	<time>2023-04-15T11:47:36.000Z</time>
</trkpt>
<trkpt lat="45.7420540" lon="10.0238250">
	<ele>1047.20</ele>
	<time>2023-04-15T11:47:37.000Z</time>
</trkpt>
<trkpt lat="45.7420610" lon="10.0237810">
	<ele>1045.60</ele>
	<time>2023-04-15T11:47:40.000Z</time>
</trkpt>
<trkpt lat="45.7420670" lon="10.0237570">
	<ele>1044.00</ele>
	<time>2023-04-15T11:47:42.000Z</time>
</trkpt>
<trkpt lat="45.7420800" lon="10.0237210">
	<ele>1043.00</ele>
	<time>2023-04-15T11:47:45.000Z</time>
</trkpt>
<trkpt lat="45.7420870" lon="10.0237160">
	<ele>1042.80</ele>
	<time>2023-04-15T11:47:46.000Z</time>
</trkpt>
<trkpt lat="45.7421180" lon="10.0237170">
	<ele>1042.00</ele>
	<time>2023-04-15T11:47:49.000Z</time>
</trkpt>
<trkpt lat="45.7421640" lon="10.0237490">
	<ele>1040.80</ele>
	<time>2023-04-15T11:47:54.000Z</time>
</trkpt>
<trkpt lat="45.7421750" lon="10.0237580">
	<ele>1040.60</ele>
	<time>2023-04-15T11:47:55.000Z</time>
</trkpt>
<trkpt lat="45.7421960" lon="10.0237760">
	<ele>1039.80</ele>
	<time>2023-04-15T11:47:57.000Z</time>
</trkpt>
<trkpt lat="45.7422430" lon="10.0238110">
	<ele>1038.60</ele>
	<time>2023-04-15T11:48:01.000Z</time>
</trkpt>
<trkpt lat="45.7422740" lon="10.0238270">
	<ele>1037.20</ele>
	<time>2023-04-15T11:48:04.000Z</time>
</trkpt>
<trkpt lat="45.7422770" lon="10.0238340">
	<ele>1036.60</ele>
	<time>2023-04-15T11:48:06.000Z</time>
</trkpt>
<trkpt lat="45.7422760" lon="10.0238370">
	<ele>1036.60</ele>
	<time>2023-04-15T11:48:07.000Z</time>
</trkpt>
<trkpt lat="45.7422750" lon="10.0238370">
	<ele>1036.40</ele>
	<time>2023-04-15T11:48:11.000Z</time>
</trkpt>
<trkpt lat="45.7422800" lon="10.0238370">
	<ele>1036.20</ele>
	<time>2023-04-15T11:48:14.000Z</time>
</trkpt>
<trkpt lat="45.7422830" lon="10.0238410">
	<ele>1036.20</ele>
	<time>2023-04-15T11:48:15.000Z</time>
</trkpt>
<trkpt lat="45.7423040" lon="10.0238630">
	<ele>1035.00</ele>
	<time>2023-04-15T11:48:19.000Z</time>
</trkpt>
<trkpt lat="45.7423450" lon="10.0238830">
	<ele>1033.80</ele>
	<time>2023-04-15T11:48:23.000Z</time>
</trkpt>
<trkpt lat="45.7423800" lon="10.0239020">
	<ele>1032.80</ele>
	<time>2023-04-15T11:48:27.000Z</time>
</trkpt>
<trkpt lat="45.7424010" lon="10.0239280">
	<ele>1032.00</ele>
	<time>2023-04-15T11:48:30.000Z</time>
</trkpt>
<trkpt lat="45.7424250" lon="10.0239480">
	<ele>1031.40</ele>
	<time>2023-04-15T11:48:32.000Z</time>
</trkpt>
<trkpt lat="45.7424550" lon="10.0239570">
	<ele>1030.20</ele>
	<time>2023-04-15T11:48:36.000Z</time>
</trkpt>
<trkpt lat="45.7424680" lon="10.0239540">
	<ele>1030.00</ele>
	<time>2023-04-15T11:48:37.000Z</time>
</trkpt>
<trkpt lat="45.7424740" lon="10.0239580">
	<ele>1029.80</ele>
	<time>2023-04-15T11:48:38.000Z</time>
</trkpt>
<trkpt lat="45.7424940" lon="10.0239710">
	<ele>1029.20</ele>
	<time>2023-04-15T11:48:40.000Z</time>
</trkpt>
<trkpt lat="45.7425430" lon="10.0240060">
	<ele>1028.00</ele>
	<time>2023-04-15T11:48:44.000Z</time>
</trkpt>
<trkpt lat="45.7425890" lon="10.0240370">
	<ele>1026.80</ele>
	<time>2023-04-15T11:48:48.000Z</time>
</trkpt>
<trkpt lat="45.7425960" lon="10.0240440">
	<ele>1026.40</ele>
	<time>2023-04-15T11:48:49.000Z</time>
</trkpt>
<trkpt lat="45.7426160" lon="10.0240480">
	<ele>1025.80</ele>
	<time>2023-04-15T11:48:51.000Z</time>
</trkpt>
<trkpt lat="45.7426310" lon="10.0240460">
	<ele>1025.40</ele>
	<time>2023-04-15T11:48:52.000Z</time>
</trkpt>
<trkpt lat="45.7426600" lon="10.0240540">
	<ele>1024.60</ele>
	<time>2023-04-15T11:48:55.000Z</time>
</trkpt>
<trkpt lat="45.7427070" lon="10.0241030">
	<ele>1023.20</ele>
	<time>2023-04-15T11:48:59.000Z</time>
</trkpt>
<trkpt lat="45.7427250" lon="10.0241060">
	<ele>1022.60</ele>
	<time>2023-04-15T11:49:01.000Z</time>
</trkpt>
<trkpt lat="45.7427470" lon="10.0240950">
	<ele>1022.00</ele>
	<time>2023-04-15T11:49:03.000Z</time>
</trkpt>
<trkpt lat="45.7427720" lon="10.0240910">
	<ele>1021.60</ele>
	<time>2023-04-15T11:49:05.000Z</time>
</trkpt>
<trkpt lat="45.7427890" lon="10.0240880">
	<ele>1021.00</ele>
	<time>2023-04-15T11:49:07.000Z</time>
</trkpt>
<trkpt lat="45.7428120" lon="10.0241030">
	<ele>1020.60</ele>
	<time>2023-04-15T11:49:09.000Z</time>
</trkpt>
<trkpt lat="45.7428330" lon="10.0241140">
	<ele>1020.20</ele>
	<time>2023-04-15T11:49:11.000Z</time>
</trkpt>
<trkpt lat="45.7428490" lon="10.0241150">
	<ele>1019.80</ele>
	<time>2023-04-15T11:49:13.000Z</time>
</trkpt>
<trkpt lat="45.7428920" lon="10.0241140">
	<ele>1019.60</ele>
	<time>2023-04-15T11:49:15.000Z</time>
</trkpt>
<trkpt lat="45.7429130" lon="10.0241180">
	<ele>1019.60</ele>
	<time>2023-04-15T11:49:16.000Z</time>
</trkpt>
<trkpt lat="45.7429560" lon="10.0241210">
	<ele>1019.20</ele>
	<time>2023-04-15T11:49:20.000Z</time>
</trkpt>
<trkpt lat="45.7429620" lon="10.0241190">
	<ele>1018.80</ele>
	<time>2023-04-15T11:49:21.000Z</time>
</trkpt>
<trkpt lat="45.7429700" lon="10.0241240">
	<ele>1018.60</ele>
	<time>2023-04-15T11:49:22.000Z</time>
</trkpt>
<trkpt lat="45.7430110" lon="10.0241370">
	<ele>1018.20</ele>
	<time>2023-04-15T11:49:25.000Z</time>
</trkpt>
<trkpt lat="45.7430550" lon="10.0241800">
	<ele>1017.60</ele>
	<time>2023-04-15T11:49:28.000Z</time>
</trkpt>
<trkpt lat="45.7430730" lon="10.0241860">
	<ele>1017.60</ele>
	<time>2023-04-15T11:49:29.000Z</time>
</trkpt>
<trkpt lat="45.7431350" lon="10.0242410">
	<ele>1016.40</ele>
	<time>2023-04-15T11:49:33.000Z</time>
</trkpt>
<trkpt lat="45.7431550" lon="10.0242790">
	<ele>1015.80</ele>
	<time>2023-04-15T11:49:36.000Z</time>
</trkpt>
<trkpt lat="45.7431780" lon="10.0242790">
	<ele>1015.20</ele>
	<time>2023-04-15T11:49:38.000Z</time>
</trkpt>
<trkpt lat="45.7432300" lon="10.0242930">
	<ele>1014.40</ele>
	<time>2023-04-15T11:49:42.000Z</time>
</trkpt>
<trkpt lat="45.7432410" lon="10.0242970">
	<ele>1014.00</ele>
	<time>2023-04-15T11:49:43.000Z</time>
</trkpt>
<trkpt lat="45.7432490" lon="10.0243010">
	<ele>1013.60</ele>
	<time>2023-04-15T11:49:44.000Z</time>
</trkpt>
<trkpt lat="45.7432830" lon="10.0243130">
	<ele>1013.00</ele>
	<time>2023-04-15T11:49:47.000Z</time>
</trkpt>
<trkpt lat="45.7432990" lon="10.0243150">
	<ele>1012.60</ele>
	<time>2023-04-15T11:49:48.000Z</time>
</trkpt>
<trkpt lat="45.7433190" lon="10.0243210">
	<ele>1012.00</ele>
	<time>2023-04-15T11:49:50.000Z</time>
</trkpt>
<trkpt lat="45.7433290" lon="10.0243320">
	<ele>1011.60</ele>
	<time>2023-04-15T11:49:51.000Z</time>
</trkpt>
<trkpt lat="45.7433490" lon="10.0243600">
	<ele>1011.20</ele>
	<time>2023-04-15T11:49:53.000Z</time>
</trkpt>
<trkpt lat="45.7433750" lon="10.0243930">
	<ele>1010.60</ele>
	<time>2023-04-15T11:49:55.000Z</time>
</trkpt>
<trkpt lat="45.7434200" lon="10.0244140">
	<ele>1010.00</ele>
	<time>2023-04-15T11:49:57.000Z</time>
</trkpt>
<trkpt lat="45.7434410" lon="10.0244290">
	<ele>1009.60</ele>
	<time>2023-04-15T11:49:58.000Z</time>
</trkpt>
<trkpt lat="45.7434740" lon="10.0244420">
	<ele>1008.40</ele>
	<time>2023-04-15T11:50:00.000Z</time>
</trkpt>
<trkpt lat="45.7435060" lon="10.0244530">
	<ele>1007.40</ele>
	<time>2023-04-15T11:50:03.000Z</time>
</trkpt>
<trkpt lat="45.7435200" lon="10.0244640">
	<ele>1007.00</ele>
	<time>2023-04-15T11:50:04.000Z</time>
</trkpt>
<trkpt lat="45.7435480" lon="10.0244820">
	<ele>1006.20</ele>
	<time>2023-04-15T11:50:06.000Z</time>
</trkpt>
<trkpt lat="45.7436080" lon="10.0245020">
	<ele>1005.00</ele>
	<time>2023-04-15T11:50:10.000Z</time>
</trkpt>
<trkpt lat="45.7436170" lon="10.0245050">
	<ele>1004.80</ele>
	<time>2023-04-15T11:50:11.000Z</time>
</trkpt>
<trkpt lat="45.7436630" lon="10.0245270">
	<ele>1003.80</ele>
	<time>2023-04-15T11:50:14.000Z</time>
</trkpt>
<trkpt lat="45.7436960" lon="10.0245450">
	<ele>1002.60</ele>
	<time>2023-04-15T11:50:17.000Z</time>
</trkpt>
<trkpt lat="45.7437000" lon="10.0245570">
	<ele>1002.40</ele>
	<time>2023-04-15T11:50:18.000Z</time>
</trkpt>
<trkpt lat="45.7437250" lon="10.0245760">
	<ele>1001.60</ele>
	<time>2023-04-15T11:50:21.000Z</time>
</trkpt>
<trkpt lat="45.7437290" lon="10.0245780">
	<ele>1001.40</ele>
	<time>2023-04-15T11:50:22.000Z</time>
</trkpt>
<trkpt lat="45.7437320" lon="10.0245780">
	<ele>1001.20</ele>
	<time>2023-04-15T11:50:23.000Z</time>
</trkpt>
<trkpt lat="45.7437640" lon="10.0246180">
	<ele>1000.60</ele>
	<time>2023-04-15T11:50:25.000Z</time>
</trkpt>
<trkpt lat="45.7437740" lon="10.0246400">
	<ele>1000.40</ele>
	<time>2023-04-15T11:50:26.000Z</time>
</trkpt>
<trkpt lat="45.7437960" lon="10.0246700">
	<ele>999.60</ele>
	<time>2023-04-15T11:50:28.000Z</time>
</trkpt>
<trkpt lat="45.7438080" lon="10.0246820">
	<ele>999.20</ele>
	<time>2023-04-15T11:50:29.000Z</time>
</trkpt>
<trkpt lat="45.7438440" lon="10.0246940">
	<ele>998.20</ele>
	<time>2023-04-15T11:50:31.000Z</time>
</trkpt>
<trkpt lat="45.7439080" lon="10.0247370">
	<ele>997.00</ele>
	<time>2023-04-15T11:50:35.000Z</time>
</trkpt>
<trkpt lat="45.7439230" lon="10.0247360">
	<ele>996.60</ele>
	<time>2023-04-15T11:50:36.000Z</time>
</trkpt>
<trkpt lat="45.7439580" lon="10.0247240">
	<ele>995.80</ele>
	<time>2023-04-15T11:50:38.000Z</time>
</trkpt>
<trkpt lat="45.7439980" lon="10.0247340">
	<ele>995.00</ele>
	<time>2023-04-15T11:50:41.000Z</time>
</trkpt>
<trkpt lat="45.7440090" lon="10.0247360">
	<ele>994.80</ele>
	<time>2023-04-15T11:50:42.000Z</time>
</trkpt>
<trkpt lat="45.7440780" lon="10.0246890">
	<ele>993.40</ele>
	<time>2023-04-15T11:50:47.000Z</time>
</trkpt>
<trkpt lat="45.7440940" lon="10.0246940">
	<ele>993.20</ele>
	<time>2023-04-15T11:50:48.000Z</time>
</trkpt>
<trkpt lat="45.7441680" lon="10.0247610">
	<ele>992.20</ele>
	<time>2023-04-15T11:50:53.000Z</time>
</trkpt>
<trkpt lat="45.7442080" lon="10.0247760">
	<ele>991.20</ele>
	<time>2023-04-15T11:50:56.000Z</time>
</trkpt>
<trkpt lat="45.7442210" lon="10.0247850">
	<ele>991.00</ele>
	<time>2023-04-15T11:50:57.000Z</time>
</trkpt>
<trkpt lat="45.7442620" lon="10.0247880">
	<ele>990.00</ele>
	<time>2023-04-15T11:51:00.000Z</time>
</trkpt>
<trkpt lat="45.7442710" lon="10.0247960">
	<ele>989.60</ele>
	<time>2023-04-15T11:51:01.000Z</time>
</trkpt>
<trkpt lat="45.7442860" lon="10.0248280">
	<ele>988.80</ele>
	<time>2023-04-15T11:51:03.000Z</time>
</trkpt>
<trkpt lat="45.7443210" lon="10.0248580">
	<ele>987.80</ele>
	<time>2023-04-15T11:51:06.000Z</time>
</trkpt>
<trkpt lat="45.7443310" lon="10.0248690">
	<ele>987.40</ele>
	<time>2023-04-15T11:51:07.000Z</time>
</trkpt>
<trkpt lat="45.7443600" lon="10.0248770">
	<ele>986.40</ele>
	<time>2023-04-15T11:51:10.000Z</time>
</trkpt>
<trkpt lat="45.7444050" lon="10.0248990">
	<ele>985.40</ele>
	<time>2023-04-15T11:51:13.000Z</time>
</trkpt>
<trkpt lat="45.7444300" lon="10.0249080">
	<ele>985.00</ele>
	<time>2023-04-15T11:51:14.000Z</time>
</trkpt>
<trkpt lat="45.7444650" lon="10.0249600">
	<ele>984.20</ele>
	<time>2023-04-15T11:51:16.000Z</time>
</trkpt>
<trkpt lat="45.7445190" lon="10.0250110">
	<ele>983.40</ele>
	<time>2023-04-15T11:51:20.000Z</time>
</trkpt>
<trkpt lat="45.7445340" lon="10.0250430">
	<ele>983.20</ele>
	<time>2023-04-15T11:51:22.000Z</time>
</trkpt>
<trkpt lat="45.7445530" lon="10.0250510">
	<ele>983.00</ele>
	<time>2023-04-15T11:51:23.000Z</time>
</trkpt>
<trkpt lat="45.7445960" lon="10.0250600">
	<ele>982.00</ele>
	<time>2023-04-15T11:51:26.000Z</time>
</trkpt>
<trkpt lat="45.7446010" lon="10.0250480">
	<ele>981.60</ele>
	<time>2023-04-15T11:51:27.000Z</time>
</trkpt>
<trkpt lat="45.7446110" lon="10.0250350">
	<ele>981.20</ele>
	<time>2023-04-15T11:51:29.000Z</time>
</trkpt>
<trkpt lat="45.7446340" lon="10.0250430">
	<ele>980.80</ele>
	<time>2023-04-15T11:51:30.000Z</time>
</trkpt>
<trkpt lat="45.7446640" lon="10.0250720">
	<ele>980.20</ele>
	<time>2023-04-15T11:51:32.000Z</time>
</trkpt>
<trkpt lat="45.7446870" lon="10.0250820">
	<ele>979.60</ele>
	<time>2023-04-15T11:51:34.000Z</time>
</trkpt>
<trkpt lat="45.7446940" lon="10.0250830">
	<ele>979.20</ele>
	<time>2023-04-15T11:51:35.000Z</time>
</trkpt>
<trkpt lat="45.7447340" lon="10.0251280">
	<ele>978.00</ele>
	<time>2023-04-15T11:51:38.000Z</time>
</trkpt>
<trkpt lat="45.7447730" lon="10.0251560">
	<ele>977.00</ele>
	<time>2023-04-15T11:51:41.000Z</time>
</trkpt>
<trkpt lat="45.7447900" lon="10.0251610">
	<ele>976.60</ele>
	<time>2023-04-15T11:51:42.000Z</time>
</trkpt>
<trkpt lat="45.7448160" lon="10.0251560">
	<ele>975.80</ele>
	<time>2023-04-15T11:51:45.000Z</time>
</trkpt>
<trkpt lat="45.7448500" lon="10.0251570">
	<ele>974.60</ele>
	<time>2023-04-15T11:51:48.000Z</time>
</trkpt>
<trkpt lat="45.7448710" lon="10.0251530">
	<ele>974.00</ele>
	<time>2023-04-15T11:51:50.000Z</time>
</trkpt>
<trkpt lat="45.7448780" lon="10.0251560">
	<ele>973.60</ele>
	<time>2023-04-15T11:51:51.000Z</time>
</trkpt>
<trkpt lat="45.7448870" lon="10.0251670">
	<ele>973.00</ele>
	<time>2023-04-15T11:51:53.000Z</time>
</trkpt>
<trkpt lat="45.7448990" lon="10.0251740">
	<ele>972.80</ele>
	<time>2023-04-15T11:51:54.000Z</time>
</trkpt>
<trkpt lat="45.7449300" lon="10.0252110">
	<ele>972.40</ele>
	<time>2023-04-15T11:51:56.000Z</time>
</trkpt>
<trkpt lat="45.7449540" lon="10.0252360">
	<ele>971.40</ele>
	<time>2023-04-15T11:51:58.000Z</time>
</trkpt>
<trkpt lat="45.7449710" lon="10.0252430">
	<ele>970.60</ele>
	<time>2023-04-15T11:52:00.000Z</time>
</trkpt>
<trkpt lat="45.7449860" lon="10.0252560">
	<ele>970.40</ele>
	<time>2023-04-15T11:52:01.000Z</time>
</trkpt>
<trkpt lat="45.7449870" lon="10.0252590">
	<ele>970.20</ele>
	<time>2023-04-15T11:52:02.000Z</time>
</trkpt>
<trkpt lat="45.7449880" lon="10.0252610">
	<ele>970.20</ele>
	<time>2023-04-15T11:52:03.000Z</time>
</trkpt>
<trkpt lat="45.7449900" lon="10.0252610">
	<ele>970.00</ele>
	<time>2023-04-15T11:52:04.000Z</time>
</trkpt>
<trkpt lat="45.7450080" lon="10.0252720">
	<ele>969.80</ele>
	<time>2023-04-15T11:52:11.000Z</time>
</trkpt>
<trkpt lat="45.7450050" lon="10.0252720">
	<ele>969.20</ele>
	<time>2023-04-15T11:52:22.000Z</time>
</trkpt>
<trkpt lat="45.7450050" lon="10.0252720">
	<ele>969.00</ele>
	<time>2023-04-15T11:52:23.000Z</time>
</trkpt>
<trkpt lat="45.7450260" lon="10.0252790">
	<ele>968.00</ele>
	<time>2023-04-15T11:52:28.000Z</time>
</trkpt>
<trkpt lat="45.7450640" lon="10.0252800">
	<ele>967.20</ele>
	<time>2023-04-15T11:52:31.000Z</time>
</trkpt>
<trkpt lat="45.7450750" lon="10.0252830">
	<ele>966.80</ele>
	<time>2023-04-15T11:52:32.000Z</time>
</trkpt>
<trkpt lat="45.7450960" lon="10.0252890">
	<ele>966.20</ele>
	<time>2023-04-15T11:52:34.000Z</time>
</trkpt>
<trkpt lat="45.7451160" lon="10.0252890">
	<ele>965.20</ele>
	<time>2023-04-15T11:52:36.000Z</time>
</trkpt>
<trkpt lat="45.7451310" lon="10.0252770">
	<ele>964.60</ele>
	<time>2023-04-15T11:52:38.000Z</time>
</trkpt>
<trkpt lat="45.7451380" lon="10.0252710">
	<ele>964.40</ele>
	<time>2023-04-15T11:52:39.000Z</time>
</trkpt>
<trkpt lat="45.7451450" lon="10.0252650">
	<ele>964.20</ele>
	<time>2023-04-15T11:52:40.000Z</time>
</trkpt>
<trkpt lat="45.7451530" lon="10.0252570">
	<ele>963.60</ele>
	<time>2023-04-15T11:52:42.000Z</time>
</trkpt>
<trkpt lat="45.7451780" lon="10.0252500">
	<ele>963.00</ele>
	<time>2023-04-15T11:52:44.000Z</time>
</trkpt>
<trkpt lat="45.7452030" lon="10.0252590">
	<ele>962.60</ele>
	<time>2023-04-15T11:52:46.000Z</time>
</trkpt>
<trkpt lat="45.7452270" lon="10.0252730">
	<ele>962.00</ele>
	<time>2023-04-15T11:52:48.000Z</time>
</trkpt>
<trkpt lat="45.7452530" lon="10.0252560">
	<ele>961.20</ele>
	<time>2023-04-15T11:52:50.000Z</time>
</trkpt>
<trkpt lat="45.7452630" lon="10.0252430">
	<ele>961.00</ele>
	<time>2023-04-15T11:52:51.000Z</time>
</trkpt>
<trkpt lat="45.7452750" lon="10.0252400">
	<ele>960.60</ele>
	<time>2023-04-15T11:52:52.000Z</time>
</trkpt>
<trkpt lat="45.7453010" lon="10.0252280">
	<ele>960.00</ele>
	<time>2023-04-15T11:52:54.000Z</time>
</trkpt>
<trkpt lat="45.7453100" lon="10.0252240">
	<ele>959.60</ele>
	<time>2023-04-15T11:52:55.000Z</time>
</trkpt>
<trkpt lat="45.7453350" lon="10.0252280">
	<ele>959.00</ele>
	<time>2023-04-15T11:52:57.000Z</time>
</trkpt>
<trkpt lat="45.7453380" lon="10.0252260">
	<ele>958.60</ele>
	<time>2023-04-15T11:52:58.000Z</time>
</trkpt>
<trkpt lat="45.7453710" lon="10.0252290">
	<ele>957.80</ele>
	<time>2023-04-15T11:53:00.000Z</time>
</trkpt>
<trkpt lat="45.7453770" lon="10.0252220">
	<ele>957.60</ele>
	<time>2023-04-15T11:53:01.000Z</time>
</trkpt>
<trkpt lat="45.7453890" lon="10.0252140">
	<ele>957.40</ele>
	<time>2023-04-15T11:53:02.000Z</time>
</trkpt>
<trkpt lat="45.7454250" lon="10.0252040">
	<ele>956.20</ele>
	<time>2023-04-15T11:53:05.000Z</time>
</trkpt>
<trkpt lat="45.7454450" lon="10.0252080">
	<ele>956.00</ele>
	<time>2023-04-15T11:53:06.000Z</time>
</trkpt>
<trkpt lat="45.7454710" lon="10.0252080">
	<ele>955.80</ele>
	<time>2023-04-15T11:53:07.000Z</time>
</trkpt>
<trkpt lat="45.7455030" lon="10.0252220">
	<ele>955.20</ele>
	<time>2023-04-15T11:53:09.000Z</time>
</trkpt>
<trkpt lat="45.7455170" lon="10.0252170">
	<ele>954.60</ele>
	<time>2023-04-15T11:53:11.000Z</time>
</trkpt>
<trkpt lat="45.7455340" lon="10.0252110">
	<ele>954.00</ele>
	<time>2023-04-15T11:53:13.000Z</time>
</trkpt>
<trkpt lat="45.7455750" lon="10.0251970">
	<ele>953.20</ele>
	<time>2023-04-15T11:53:16.000Z</time>
</trkpt>
<trkpt lat="45.7455920" lon="10.0252210">
	<ele>952.80</ele>
	<time>2023-04-15T11:53:18.000Z</time>
</trkpt>
<trkpt lat="45.7456130" lon="10.0252520">
	<ele>951.60</ele>
	<time>2023-04-15T11:53:21.000Z</time>
</trkpt>
<trkpt lat="45.7456230" lon="10.0252500">
	<ele>951.40</ele>
	<time>2023-04-15T11:53:22.000Z</time>
</trkpt>
<trkpt lat="45.7456720" lon="10.0252240">
	<ele>950.60</ele>
	<time>2023-04-15T11:53:25.000Z</time>
</trkpt>
<trkpt lat="45.7456960" lon="10.0251960">
	<ele>949.60</ele>
	<time>2023-04-15T11:53:28.000Z</time>
</trkpt>
<trkpt lat="45.7457030" lon="10.0251940">
	<ele>949.20</ele>
	<time>2023-04-15T11:53:29.000Z</time>
</trkpt>
<trkpt lat="45.7457120" lon="10.0251880">
	<ele>948.80</ele>
	<time>2023-04-15T11:53:31.000Z</time>
</trkpt>
<trkpt lat="45.7457240" lon="10.0251830">
	<ele>948.00</ele>
	<time>2023-04-15T11:53:33.000Z</time>
</trkpt>
<trkpt lat="45.7457410" lon="10.0251880">
	<ele>947.40</ele>
	<time>2023-04-15T11:53:35.000Z</time>
</trkpt>
<trkpt lat="45.7457670" lon="10.0251780">
	<ele>947.00</ele>
	<time>2023-04-15T11:53:37.000Z</time>
</trkpt>
<trkpt lat="45.7458090" lon="10.0251490">
	<ele>945.80</ele>
	<time>2023-04-15T11:53:40.000Z</time>
</trkpt>
<trkpt lat="45.7458170" lon="10.0251480">
	<ele>945.40</ele>
	<time>2023-04-15T11:53:41.000Z</time>
</trkpt>
<trkpt lat="45.7458400" lon="10.0251470">
	<ele>944.80</ele>
	<time>2023-04-15T11:53:43.000Z</time>
</trkpt>
<trkpt lat="45.7458570" lon="10.0251470">
	<ele>944.60</ele>
	<time>2023-04-15T11:53:44.000Z</time>
</trkpt>
<trkpt lat="45.7459160" lon="10.0251360">
	<ele>943.80</ele>
	<time>2023-04-15T11:53:48.000Z</time>
</trkpt>
<trkpt lat="45.7459470" lon="10.0251350">
	<ele>942.40</ele>
	<time>2023-04-15T11:53:51.000Z</time>
</trkpt>
<trkpt lat="45.7459790" lon="10.0251100">
	<ele>941.40</ele>
	<time>2023-04-15T11:53:54.000Z</time>
</trkpt>
<trkpt lat="45.7459870" lon="10.0250970">
	<ele>941.00</ele>
	<time>2023-04-15T11:53:55.000Z</time>
</trkpt>
<trkpt lat="45.7460020" lon="10.0250970">
	<ele>940.00</ele>
	<time>2023-04-15T11:53:57.000Z</time>
</trkpt>
<trkpt lat="45.7460370" lon="10.0250510">
	<ele>939.00</ele>
	<time>2023-04-15T11:54:01.000Z</time>
</trkpt>
<trkpt lat="45.7460640" lon="10.0250350">
	<ele>938.00</ele>
	<time>2023-04-15T11:54:04.000Z</time>
</trkpt>
<trkpt lat="45.7460720" lon="10.0250360">
	<ele>937.80</ele>
	<time>2023-04-15T11:54:05.000Z</time>
</trkpt>
<trkpt lat="45.7461070" lon="10.0249930">
	<ele>936.60</ele>
	<time>2023-04-15T11:54:08.000Z</time>
</trkpt>
<trkpt lat="45.7461340" lon="10.0249790">
	<ele>936.00</ele>
	<time>2023-04-15T11:54:10.000Z</time>
</trkpt>
<trkpt lat="45.7461580" lon="10.0250000">
	<ele>935.40</ele>
	<time>2023-04-15T11:54:12.000Z</time>
</trkpt>
<trkpt lat="45.7461790" lon="10.0250010">
	<ele>934.80</ele>
	<time>2023-04-15T11:54:14.000Z</time>
</trkpt>
<trkpt lat="45.7462000" lon="10.0249890">
	<ele>934.40</ele>
	<time>2023-04-15T11:54:16.000Z</time>
</trkpt>
<trkpt lat="45.7462070" lon="10.0249840">
	<ele>934.20</ele>
	<time>2023-04-15T11:54:17.000Z</time>
</trkpt>
<trkpt lat="45.7462040" lon="10.0249680">
	<ele>933.80</ele>
	<time>2023-04-15T11:54:19.000Z</time>
</trkpt>
<trkpt lat="45.7462150" lon="10.0249500">
	<ele>933.00</ele>
	<time>2023-04-15T11:54:22.000Z</time>
</trkpt>
<trkpt lat="45.7462050" lon="10.0249310">
	<ele>932.60</ele>
	<time>2023-04-15T11:54:23.000Z</time>
</trkpt>
<trkpt lat="45.7462490" lon="10.0248730">
	<ele>931.80</ele>
	<time>2023-04-15T11:54:26.000Z</time>
</trkpt>
<trkpt lat="45.7462690" lon="10.0248610">
	<ele>931.80</ele>
	<time>2023-04-15T11:54:27.000Z</time>
</trkpt>
<trkpt lat="45.7462860" lon="10.0248520">
	<ele>931.40</ele>
	<time>2023-04-15T11:54:28.000Z</time>
</trkpt>
<trkpt lat="45.7463020" lon="10.0248400">
	<ele>931.00</ele>
	<time>2023-04-15T11:54:29.000Z</time>
</trkpt>
<trkpt lat="45.7463120" lon="10.0248280">
	<ele>930.60</ele>
	<time>2023-04-15T11:54:30.000Z</time>
</trkpt>
<trkpt lat="45.7463150" lon="10.0248150">
	<ele>930.40</ele>
	<time>2023-04-15T11:54:31.000Z</time>
</trkpt>
<trkpt lat="45.7463040" lon="10.0248130">
	<ele>930.00</ele>
	<time>2023-04-15T11:54:33.000Z</time>
</trkpt>
<trkpt lat="45.7463020" lon="10.0248130">
	<ele>929.60</ele>
	<time>2023-04-15T11:54:34.000Z</time>
</trkpt>
<trkpt lat="45.7463050" lon="10.0248170">
	<ele>929.60</ele>
	<time>2023-04-15T11:54:35.000Z</time>
</trkpt>
<trkpt lat="45.7463250" lon="10.0247730">
	<ele>928.40</ele>
	<time>2023-04-15T11:54:39.000Z</time>
</trkpt>
<trkpt lat="45.7463520" lon="10.0247760">
	<ele>927.80</ele>
	<time>2023-04-15T11:54:41.000Z</time>
</trkpt>
<trkpt lat="45.7463650" lon="10.0247640">
	<ele>927.40</ele>
	<time>2023-04-15T11:54:42.000Z</time>
</trkpt>
<trkpt lat="45.7463630" lon="10.0247710">
	<ele>927.20</ele>
	<time>2023-04-15T11:54:43.000Z</time>
</trkpt>
<trkpt lat="45.7463780" lon="10.0247320">
	<ele>926.20</ele>
	<time>2023-04-15T11:54:47.000Z</time>
</trkpt>
<trkpt lat="45.7463850" lon="10.0247310">
	<ele>925.80</ele>
	<time>2023-04-15T11:54:48.000Z</time>
</trkpt>
<trkpt lat="45.7463930" lon="10.0247280">
	<ele>925.60</ele>
	<time>2023-04-15T11:54:49.000Z</time>
</trkpt>
<trkpt lat="45.7464130" lon="10.0247110">
	<ele>924.80</ele>
	<time>2023-04-15T11:54:51.000Z</time>
</trkpt>
<trkpt lat="45.7464310" lon="10.0246970">
	<ele>924.20</ele>
	<time>2023-04-15T11:54:53.000Z</time>
</trkpt>
<trkpt lat="45.7464390" lon="10.0246890">
	<ele>923.80</ele>
	<time>2023-04-15T11:54:54.000Z</time>
</trkpt>
<trkpt lat="45.7464460" lon="10.0246720">
	<ele>923.00</ele>
	<time>2023-04-15T11:54:57.000Z</time>
</trkpt>
<trkpt lat="45.7464500" lon="10.0246660">
	<ele>922.60</ele>
	<time>2023-04-15T11:54:58.000Z</time>
</trkpt>
<trkpt lat="45.7464540" lon="10.0246600">
	<ele>922.40</ele>
	<time>2023-04-15T11:54:59.000Z</time>
</trkpt>
<trkpt lat="45.7464780" lon="10.0246400">
	<ele>921.60</ele>
	<time>2023-04-15T11:55:03.000Z</time>
</trkpt>
<trkpt lat="45.7464910" lon="10.0246260">
	<ele>920.80</ele>
	<time>2023-04-15T11:55:05.000Z</time>
</trkpt>
<trkpt lat="45.7465000" lon="10.0246250">
	<ele>920.60</ele>
	<time>2023-04-15T11:55:06.000Z</time>
</trkpt>
<trkpt lat="45.7465090" lon="10.0246210">
	<ele>920.20</ele>
	<time>2023-04-15T11:55:07.000Z</time>
</trkpt>
<trkpt lat="45.7465160" lon="10.0246120">
	<ele>920.00</ele>
	<time>2023-04-15T11:55:08.000Z</time>
</trkpt>
<trkpt lat="45.7465450" lon="10.0245740">
	<ele>919.00</ele>
	<time>2023-04-15T11:55:11.000Z</time>
</trkpt>
<trkpt lat="45.7465500" lon="10.0245720">
	<ele>918.80</ele>
	<time>2023-04-15T11:55:12.000Z</time>
</trkpt>
<trkpt lat="45.7465730" lon="10.0245130">
	<ele>917.80</ele>
	<time>2023-04-15T11:55:16.000Z</time>
</trkpt>
<trkpt lat="45.7465780" lon="10.0245060">
	<ele>917.60</ele>
	<time>2023-04-15T11:55:17.000Z</time>
</trkpt>
<trkpt lat="45.7465820" lon="10.0244800">
	<ele>917.40</ele>
	<time>2023-04-15T11:55:18.000Z</time>
</trkpt>
<trkpt lat="45.7466010" lon="10.0244610">
	<ele>916.60</ele>
	<time>2023-04-15T11:55:20.000Z</time>
</trkpt>
<trkpt lat="45.7466200" lon="10.0244440">
	<ele>916.00</ele>
	<time>2023-04-15T11:55:22.000Z</time>
</trkpt>
<trkpt lat="45.7466440" lon="10.0244160">
	<ele>915.40</ele>
	<time>2023-04-15T11:55:25.000Z</time>
</trkpt>
<trkpt lat="45.7466520" lon="10.0244080">
	<ele>915.00</ele>
	<time>2023-04-15T11:55:27.000Z</time>
</trkpt>
<trkpt lat="45.7466720" lon="10.0244130">
	<ele>914.40</ele>
	<time>2023-04-15T11:55:29.000Z</time>
</trkpt>
<trkpt lat="45.7466910" lon="10.0243980">
	<ele>914.20</ele>
	<time>2023-04-15T11:55:31.000Z</time>
</trkpt>
<trkpt lat="45.7467280" lon="10.0243790">
	<ele>913.40</ele>
	<time>2023-04-15T11:55:35.000Z</time>
</trkpt>
<trkpt lat="45.7467450" lon="10.0243720">
	<ele>912.80</ele>
	<time>2023-04-15T11:55:37.000Z</time>
</trkpt>
<trkpt lat="45.7467490" lon="10.0243680">
	<ele>912.60</ele>
	<time>2023-04-15T11:55:38.000Z</time>
</trkpt>
<trkpt lat="45.7467520" lon="10.0243680">
	<ele>912.20</ele>
	<time>2023-04-15T11:55:39.000Z</time>
</trkpt>
<trkpt lat="45.7467730" lon="10.0243520">
	<ele>911.60</ele>
	<time>2023-04-15T11:55:42.000Z</time>
</trkpt>
<trkpt lat="45.7467760" lon="10.0243440">
	<ele>911.20</ele>
	<time>2023-04-15T11:55:44.000Z</time>
</trkpt>
<trkpt lat="45.7467730" lon="10.0243370">
	<ele>910.80</ele>
	<time>2023-04-15T11:55:45.000Z</time>
</trkpt>
<trkpt lat="45.7467810" lon="10.0243120">
	<ele>910.60</ele>
	<time>2023-04-15T11:55:47.000Z</time>
</trkpt>
<trkpt lat="45.7467790" lon="10.0242970">
	<ele>910.00</ele>
	<time>2023-04-15T11:55:49.000Z</time>
</trkpt>
<trkpt lat="45.7467820" lon="10.0242940">
	<ele>909.60</ele>
	<time>2023-04-15T11:55:50.000Z</time>
</trkpt>
<trkpt lat="45.7467850" lon="10.0242840">
	<ele>909.40</ele>
	<time>2023-04-15T11:55:51.000Z</time>
</trkpt>
<trkpt lat="45.7467970" lon="10.0242400">
	<ele>908.80</ele>
	<time>2023-04-15T11:55:54.000Z</time>
</trkpt>
<trkpt lat="45.7467950" lon="10.0242230">
	<ele>908.40</ele>
	<time>2023-04-15T11:55:55.000Z</time>
</trkpt>
<trkpt lat="45.7467990" lon="10.0242080">
	<ele>908.20</ele>
	<time>2023-04-15T11:55:56.000Z</time>
</trkpt>
<trkpt lat="45.7468070" lon="10.0241980">
	<ele>907.60</ele>
	<time>2023-04-15T11:55:58.000Z</time>
</trkpt>
<trkpt lat="45.7468160" lon="10.0241900">
	<ele>907.20</ele>
	<time>2023-04-15T11:55:59.000Z</time>
</trkpt>
<trkpt lat="45.7468330" lon="10.0241650">
	<ele>906.40</ele>
	<time>2023-04-15T11:56:01.000Z</time>
</trkpt>
<trkpt lat="45.7468390" lon="10.0241530">
	<ele>906.00</ele>
	<time>2023-04-15T11:56:02.000Z</time>
</trkpt>
<trkpt lat="45.7468590" lon="10.0241090">
	<ele>905.20</ele>
	<time>2023-04-15T11:56:05.000Z</time>
</trkpt>
<trkpt lat="45.7468640" lon="10.0240910">
	<ele>904.80</ele>
	<time>2023-04-15T11:56:06.000Z</time>
</trkpt>
<trkpt lat="45.7468680" lon="10.0240840">
	<ele>904.40</ele>
	<time>2023-04-15T11:56:07.000Z</time>
</trkpt>
<trkpt lat="45.7468810" lon="10.0240750">
	<ele>904.40</ele>
	<time>2023-04-15T11:56:08.000Z</time>
</trkpt>
<trkpt lat="45.7468860" lon="10.0240730">
	<ele>904.00</ele>
	<time>2023-04-15T11:56:09.000Z</time>
</trkpt>
<trkpt lat="45.7468930" lon="10.0240610">
	<ele>903.40</ele>
	<time>2023-04-15T11:56:11.000Z</time>
</trkpt>
<trkpt lat="45.7469220" lon="10.0240590">
	<ele>902.80</ele>
	<time>2023-04-15T11:56:14.000Z</time>
</trkpt>
<trkpt lat="45.7469310" lon="10.0240500">
	<ele>902.40</ele>
	<time>2023-04-15T11:56:16.000Z</time>
</trkpt>
<trkpt lat="45.7469310" lon="10.0240480">
	<ele>902.20</ele>
	<time>2023-04-15T11:56:17.000Z</time>
</trkpt>
<trkpt lat="45.7469440" lon="10.0240320">
	<ele>901.40</ele>
	<time>2023-04-15T11:56:23.000Z</time>
</trkpt>
<trkpt lat="45.7469470" lon="10.0240260">
	<ele>901.20</ele>
	<time>2023-04-15T11:56:25.000Z</time>
</trkpt>
<trkpt lat="45.7469490" lon="10.0240260">
	<ele>901.20</ele>
	<time>2023-04-15T11:56:29.000Z</time>
</trkpt>
<trkpt lat="45.7469420" lon="10.0240260">
	<ele>900.80</ele>
	<time>2023-04-15T11:56:50.000Z</time>
</trkpt>
<trkpt lat="45.7469390" lon="10.0240140">
	<ele>901.00</ele>
	<time>2023-04-15T11:56:57.000Z</time>
</trkpt>
<trkpt lat="45.7469800" lon="10.0239480">
	<ele>900.40</ele>
	<time>2023-04-15T11:57:13.000Z</time>
</trkpt>
<trkpt lat="45.7469970" lon="10.0239270">
	<ele>900.20</ele>
	<time>2023-04-15T11:57:14.000Z</time>
</trkpt>
<trkpt lat="45.7470410" lon="10.0238690">
	<ele>899.00</ele>
	<time>2023-04-15T11:57:17.000Z</time>
</trkpt>
<trkpt lat="45.7470680" lon="10.0238570">
	<ele>898.60</ele>
	<time>2023-04-15T11:57:19.000Z</time>
</trkpt>
<trkpt lat="45.7471180" lon="10.0238400">
	<ele>898.00</ele>
	<time>2023-04-15T11:57:23.000Z</time>
</trkpt>
<trkpt lat="45.7471680" lon="10.0238200">
	<ele>896.80</ele>
	<time>2023-04-15T11:57:27.000Z</time>
</trkpt>
<trkpt lat="45.7472340" lon="10.0238030">
	<ele>895.80</ele>
	<time>2023-04-15T11:57:32.000Z</time>
</trkpt>
<trkpt lat="45.7472720" lon="10.0237830">
	<ele>894.80</ele>
	<time>2023-04-15T11:57:35.000Z</time>
</trkpt>
<trkpt lat="45.7472850" lon="10.0237760">
	<ele>894.40</ele>
	<time>2023-04-15T11:57:36.000Z</time>
</trkpt>
<trkpt lat="45.7473530" lon="10.0237270">
	<ele>893.20</ele>
	<time>2023-04-15T11:57:42.000Z</time>
</trkpt>
<trkpt lat="45.7473760" lon="10.0237130">
	<ele>893.00</ele>
	<time>2023-04-15T11:57:44.000Z</time>
</trkpt>
<trkpt lat="45.7474290" lon="10.0236800">
	<ele>892.20</ele>
	<time>2023-04-15T11:57:48.000Z</time>
</trkpt>
<trkpt lat="45.7475010" lon="10.0236210">
	<ele>890.80</ele>
	<time>2023-04-15T11:57:54.000Z</time>
</trkpt>
<trkpt lat="45.7475130" lon="10.0236140">
	<ele>890.40</ele>
	<time>2023-04-15T11:57:55.000Z</time>
</trkpt>
<trkpt lat="45.7475630" lon="10.0235880">
	<ele>889.80</ele>
	<time>2023-04-15T11:57:59.000Z</time>
</trkpt>
<trkpt lat="45.7476420" lon="10.0235270">
	<ele>888.80</ele>
	<time>2023-04-15T11:58:05.000Z</time>
</trkpt>
<trkpt lat="45.7476550" lon="10.0235120">
	<ele>888.40</ele>
	<time>2023-04-15T11:58:06.000Z</time>
</trkpt>
<trkpt lat="45.7476940" lon="10.0234650">
	<ele>887.40</ele>
	<time>2023-04-15T11:58:10.000Z</time>
</trkpt>
<trkpt lat="45.7477240" lon="10.0234220">
	<ele>886.60</ele>
	<time>2023-04-15T11:58:14.000Z</time>
</trkpt>
<trkpt lat="45.7477310" lon="10.0233900">
	<ele>886.20</ele>
	<time>2023-04-15T11:58:17.000Z</time>
</trkpt>
<trkpt lat="45.7477310" lon="10.0233750">
	<ele>886.40</ele>
	<time>2023-04-15T11:58:18.000Z</time>
</trkpt>
<trkpt lat="45.7477450" lon="10.0233470">
	<ele>885.80</ele>
	<time>2023-04-15T11:58:20.000Z</time>
</trkpt>
<trkpt lat="45.7477560" lon="10.0233190">
	<ele>885.00</ele>
	<time>2023-04-15T11:58:22.000Z</time>
</trkpt>
<trkpt lat="45.7477810" lon="10.0232570">
	<ele>883.80</ele>
	<time>2023-04-15T11:58:26.000Z</time>
</trkpt>
<trkpt lat="45.7477870" lon="10.0232340">
	<ele>883.40</ele>
	<time>2023-04-15T11:58:28.000Z</time>
</trkpt>
<trkpt lat="45.7478000" lon="10.0231840">
	<ele>882.60</ele>
	<time>2023-04-15T11:58:31.000Z</time>
</trkpt>
<trkpt lat="45.7478140" lon="10.0230880">
	<ele>881.60</ele>
	<time>2023-04-15T11:58:36.000Z</time>
</trkpt>
<trkpt lat="45.7478140" lon="10.0230790">
	<ele>881.40</ele>
	<time>2023-04-15T11:58:37.000Z</time>
</trkpt>
<trkpt lat="45.7478330" lon="10.0230210">
	<ele>880.20</ele>
	<time>2023-04-15T11:58:41.000Z</time>
</trkpt>
<trkpt lat="45.7478390" lon="10.0229730">
	<ele>879.60</ele>
	<time>2023-04-15T11:58:44.000Z</time>
</trkpt>
<trkpt lat="45.7478420" lon="10.0229500">
	<ele>879.20</ele>
	<time>2023-04-15T11:58:46.000Z</time>
</trkpt>
<trkpt lat="45.7478470" lon="10.0229310">
	<ele>878.80</ele>
	<time>2023-04-15T11:58:48.000Z</time>
</trkpt>
<trkpt lat="45.7478520" lon="10.0228910">
	<ele>878.00</ele>
	<time>2023-04-15T11:58:51.000Z</time>
</trkpt>
<trkpt lat="45.7478620" lon="10.0228100">
	<ele>877.00</ele>
	<time>2023-04-15T11:58:57.000Z</time>
</trkpt>
<trkpt lat="45.7478610" lon="10.0227870">
	<ele>876.60</ele>
	<time>2023-04-15T11:59:00.000Z</time>
</trkpt>
<trkpt lat="45.7478610" lon="10.0227860">
	<ele>876.40</ele>
	<time>2023-04-15T11:59:01.000Z</time>
</trkpt>
<trkpt lat="45.7478620" lon="10.0227830">
	<ele>876.20</ele>
	<time>2023-04-15T11:59:03.000Z</time>
</trkpt>
<trkpt lat="45.7478550" lon="10.0227680">
	<ele>875.80</ele>
	<time>2023-04-15T11:59:05.000Z</time>
</trkpt>
<trkpt lat="45.7478370" lon="10.0227370">
	<ele>874.80</ele>
	<time>2023-04-15T11:59:09.000Z</time>
</trkpt>
<trkpt lat="45.7478110" lon="10.0226980">
	<ele>873.60</ele>
	<time>2023-04-15T11:59:14.000Z</time>
</trkpt>
<trkpt lat="45.7477940" lon="10.0226810">
	<ele>873.20</ele>
	<time>2023-04-15T11:59:17.000Z</time>
</trkpt>
<trkpt lat="45.7477590" lon="10.0226760">
	<ele>872.60</ele>
	<time>2023-04-15T11:59:20.000Z</time>
</trkpt>
<trkpt lat="45.7477330" lon="10.0226640">
	<ele>871.80</ele>
	<time>2023-04-15T11:59:23.000Z</time>
</trkpt>
<trkpt lat="45.7477260" lon="10.0226690">
	<ele>871.80</ele>
	<time>2023-04-15T11:59:29.000Z</time>
</trkpt>
<trkpt lat="45.7477260" lon="10.0226730">
	<ele>871.60</ele>
	<time>2023-04-15T11:59:39.000Z</time>
</trkpt>
<trkpt lat="45.7476870" lon="10.0226630">
	<ele>870.40</ele>
	<time>2023-04-15T11:59:45.000Z</time>
</trkpt>
<trkpt lat="45.7476610" lon="10.0226560">
	<ele>869.40</ele>
	<time>2023-04-15T11:59:48.000Z</time>
</trkpt>
<trkpt lat="45.7476240" lon="10.0226530">
	<ele>869.00</ele>
	<time>2023-04-15T11:59:50.000Z</time>
</trkpt>
<trkpt lat="45.7475850" lon="10.0226390">
	<ele>868.20</ele>
	<time>2023-04-15T11:59:53.000Z</time>
</trkpt>
<trkpt lat="45.7475450" lon="10.0226350">
	<ele>867.00</ele>
	<time>2023-04-15T11:59:58.000Z</time>
</trkpt>
<trkpt lat="45.7475090" lon="10.0226510">
	<ele>866.20</ele>
	<time>2023-04-15T12:00:01.000Z</time>
</trkpt>
<trkpt lat="45.7475020" lon="10.0226540">
	<ele>865.80</ele>
	<time>2023-04-15T12:00:02.000Z</time>
</trkpt>
<trkpt lat="45.7474760" lon="10.0226620">
	<ele>864.80</ele>
	<time>2023-04-15T12:00:05.000Z</time>
</trkpt>
<trkpt lat="45.7474620" lon="10.0226680">
	<ele>864.60</ele>
	<time>2023-04-15T12:00:06.000Z</time>
</trkpt>
<trkpt lat="45.7474510" lon="10.0226840">
	<ele>864.20</ele>
	<time>2023-04-15T12:00:08.000Z</time>
</trkpt>
<trkpt lat="45.7474500" lon="10.0226760">
	<ele>863.60</ele>
	<time>2023-04-15T12:00:10.000Z</time>
</trkpt>
<trkpt lat="45.7474470" lon="10.0226580">
	<ele>863.20</ele>
	<time>2023-04-15T12:00:12.000Z</time>
</trkpt>
<trkpt lat="45.7474190" lon="10.0226650">
	<ele>862.60</ele>
	<time>2023-04-15T12:00:15.000Z</time>
</trkpt>
<trkpt lat="45.7473940" lon="10.0226730">
	<ele>862.40</ele>
	<time>2023-04-15T12:00:17.000Z</time>
</trkpt>
<trkpt lat="45.7473790" lon="10.0226840">
	<ele>861.80</ele>
	<time>2023-04-15T12:00:21.000Z</time>
</trkpt>
<trkpt lat="45.7473710" lon="10.0226900">
	<ele>861.60</ele>
	<time>2023-04-15T12:00:23.000Z</time>
</trkpt>
<trkpt lat="45.7473670" lon="10.0226920">
	<ele>861.40</ele>
	<time>2023-04-15T12:00:24.000Z</time>
</trkpt>
<trkpt lat="45.7473670" lon="10.0226920">
	<ele>861.40</ele>
	<time>2023-04-15T12:00:25.000Z</time>
</trkpt>
<trkpt lat="45.7473630" lon="10.0226860">
	<ele>861.00</ele>
	<time>2023-04-15T12:00:27.000Z</time>
</trkpt>
<trkpt lat="45.7473590" lon="10.0226910">
	<ele>860.40</ele>
	<time>2023-04-15T12:00:29.000Z</time>
</trkpt>
<trkpt lat="45.7473510" lon="10.0227000">
	<ele>859.80</ele>
	<time>2023-04-15T12:00:31.000Z</time>
</trkpt>
<trkpt lat="45.7473470" lon="10.0227120">
	<ele>859.20</ele>
	<time>2023-04-15T12:00:34.000Z</time>
</trkpt>
<trkpt lat="45.7473460" lon="10.0227160">
	<ele>859.20</ele>
	<time>2023-04-15T12:00:35.000Z</time>
</trkpt>
<trkpt lat="45.7473280" lon="10.0227210">
	<ele>858.40</ele>
	<time>2023-04-15T12:00:38.000Z</time>
</trkpt>
<trkpt lat="45.7473220" lon="10.0227260">
	<ele>858.20</ele>
	<time>2023-04-15T12:00:39.000Z</time>
</trkpt>
<trkpt lat="45.7473140" lon="10.0227320">
	<ele>858.20</ele>
	<time>2023-04-15T12:00:40.000Z</time>
</trkpt>
<trkpt lat="45.7472780" lon="10.0227030">
	<ele>857.00</ele>
	<time>2023-04-15T12:00:44.000Z</time>
</trkpt>
<trkpt lat="45.7472780" lon="10.0226790">
	<ele>856.40</ele>
	<time>2023-04-15T12:00:46.000Z</time>
</trkpt>
<trkpt lat="45.7472560" lon="10.0226620">
	<ele>855.80</ele>
	<time>2023-04-15T12:00:48.000Z</time>
</trkpt>
<trkpt lat="45.7472530" lon="10.0226420">
	<ele>855.00</ele>
	<time>2023-04-15T12:00:51.000Z</time>
</trkpt>
<trkpt lat="45.7472500" lon="10.0226290">
	<ele>854.60</ele>
	<time>2023-04-15T12:00:52.000Z</time>
</trkpt>
<trkpt lat="45.7472480" lon="10.0226170">
	<ele>854.40</ele>
	<time>2023-04-15T12:00:53.000Z</time>
</trkpt>
<trkpt lat="45.7472470" lon="10.0225670">
	<ele>853.80</ele>
	<time>2023-04-15T12:00:56.000Z</time>
</trkpt>
<trkpt lat="45.7472390" lon="10.0225730">
	<ele>853.60</ele>
	<time>2023-04-15T12:00:57.000Z</time>
</trkpt>
<trkpt lat="45.7472130" lon="10.0225970">
	<ele>852.60</ele>
	<time>2023-04-15T12:01:01.000Z</time>
</trkpt>
<trkpt lat="45.7471930" lon="10.0226230">
	<ele>851.60</ele>
	<time>2023-04-15T12:01:04.000Z</time>
</trkpt>
<trkpt lat="45.7471840" lon="10.0226350">
	<ele>850.40</ele>
	<time>2023-04-15T12:01:08.000Z</time>
</trkpt>
<trkpt lat="45.7471810" lon="10.0226410">
	<ele>850.20</ele>
	<time>2023-04-15T12:01:09.000Z</time>
</trkpt>
<trkpt lat="45.7471540" lon="10.0226590">
	<ele>849.20</ele>
	<time>2023-04-15T12:01:12.000Z</time>
</trkpt>
<trkpt lat="45.7471310" lon="10.0226940">
	<ele>847.80</ele>
	<time>2023-04-15T12:01:17.000Z</time>
</trkpt>
<trkpt lat="45.7471060" lon="10.0227100">
	<ele>847.40</ele>
	<time>2023-04-15T12:01:19.000Z</time>
</trkpt>
<trkpt lat="45.7470580" lon="10.0227070">
	<ele>847.00</ele>
	<time>2023-04-15T12:01:23.000Z</time>
</trkpt>
<trkpt lat="45.7470550" lon="10.0227080">
	<ele>846.60</ele>
	<time>2023-04-15T12:01:24.000Z</time>
</trkpt>
<trkpt lat="45.7470540" lon="10.0226830">
	<ele>846.40</ele>
	<time>2023-04-15T12:01:25.000Z</time>
</trkpt>
<trkpt lat="45.7470560" lon="10.0226410">
	<ele>845.40</ele>
	<time>2023-04-15T12:01:28.000Z</time>
</trkpt>
<trkpt lat="45.7470580" lon="10.0226200">
	<ele>845.20</ele>
	<time>2023-04-15T12:01:29.000Z</time>
</trkpt>
<trkpt lat="45.7470460" lon="10.0225860">
	<ele>844.00</ele>
	<time>2023-04-15T12:01:31.000Z</time>
</trkpt>
<trkpt lat="45.7470270" lon="10.0225650">
	<ele>843.40</ele>
	<time>2023-04-15T12:01:33.000Z</time>
</trkpt>
<trkpt lat="45.7470240" lon="10.0225410">
	<ele>843.00</ele>
	<time>2023-04-15T12:01:34.000Z</time>
</trkpt>
<trkpt lat="45.7470280" lon="10.0225110">
	<ele>842.80</ele>
	<time>2023-04-15T12:01:35.000Z</time>
</trkpt>
<trkpt lat="45.7470480" lon="10.0224520">
	<ele>841.40</ele>
	<time>2023-04-15T12:01:39.000Z</time>
</trkpt>
<trkpt lat="45.7470510" lon="10.0224400">
	<ele>841.00</ele>
	<time>2023-04-15T12:01:41.000Z</time>
</trkpt>
<trkpt lat="45.7470360" lon="10.0224060">
	<ele>840.20</ele>
	<time>2023-04-15T12:01:44.000Z</time>
</trkpt>
<trkpt lat="45.7470440" lon="10.0223760">
	<ele>840.00</ele>
	<time>2023-04-15T12:01:46.000Z</time>
</trkpt>
<trkpt lat="45.7470470" lon="10.0223600">
	<ele>839.60</ele>
	<time>2023-04-15T12:01:47.000Z</time>
</trkpt>
<trkpt lat="45.7470480" lon="10.0223520">
	<ele>839.20</ele>
	<time>2023-04-15T12:01:48.000Z</time>
</trkpt>
<trkpt lat="45.7470280" lon="10.0223240">
	<ele>838.60</ele>
	<time>2023-04-15T12:01:50.000Z</time>
</trkpt>
<trkpt lat="45.7470050" lon="10.0222950">
	<ele>837.80</ele>
	<time>2023-04-15T12:01:52.000Z</time>
</trkpt>
<trkpt lat="45.7470070" lon="10.0222800">
	<ele>837.20</ele>
	<time>2023-04-15T12:01:53.000Z</time>
</trkpt>
<trkpt lat="45.7470130" lon="10.0222540">
	<ele>836.40</ele>
	<time>2023-04-15T12:01:55.000Z</time>
</trkpt>
<trkpt lat="45.7470040" lon="10.0222470">
	<ele>835.40</ele>
	<time>2023-04-15T12:01:58.000Z</time>
</trkpt>
<trkpt lat="45.7469900" lon="10.0222630">
	<ele>834.20</ele>
	<time>2023-04-15T12:02:01.000Z</time>
</trkpt>
<trkpt lat="45.7469650" lon="10.0222670">
	<ele>833.40</ele>
	<time>2023-04-15T12:02:04.000Z</time>
</trkpt>
<trkpt lat="45.7469600" lon="10.0222690">
	<ele>833.00</ele>
	<time>2023-04-15T12:02:05.000Z</time>
</trkpt>
<trkpt lat="45.7469560" lon="10.0222700">
	<ele>832.80</ele>
	<time>2023-04-15T12:02:06.000Z</time>
</trkpt>
<trkpt lat="45.7469250" lon="10.0222770">
	<ele>832.00</ele>
	<time>2023-04-15T12:02:10.000Z</time>
</trkpt>
<trkpt lat="45.7469220" lon="10.0222790">
	<ele>831.60</ele>
	<time>2023-04-15T12:02:11.000Z</time>
</trkpt>
<trkpt lat="45.7469170" lon="10.0222830">
	<ele>831.20</ele>
	<time>2023-04-15T12:02:12.000Z</time>
</trkpt>
<trkpt lat="45.7469020" lon="10.0222960">
	<ele>830.80</ele>
	<time>2023-04-15T12:02:14.000Z</time>
</trkpt>
<trkpt lat="45.7468610" lon="10.0222980">
	<ele>829.40</ele>
	<time>2023-04-15T12:02:20.000Z</time>
</trkpt>
<trkpt lat="45.7468270" lon="10.0222970">
	<ele>828.20</ele>
	<time>2023-04-15T12:02:23.000Z</time>
</trkpt>
<trkpt lat="45.7468060" lon="10.0223030">
	<ele>827.20</ele>
	<time>2023-04-15T12:02:26.000Z</time>
</trkpt>
<trkpt lat="45.7468030" lon="10.0223060">
	<ele>827.00</ele>
	<time>2023-04-15T12:02:27.000Z</time>
</trkpt>
<trkpt lat="45.7467800" lon="10.0223470">
	<ele>826.20</ele>
	<time>2023-04-15T12:02:30.000Z</time>
</trkpt>
<trkpt lat="45.7467480" lon="10.0223340">
	<ele>825.20</ele>
	<time>2023-04-15T12:02:33.000Z</time>
</trkpt>
<trkpt lat="45.7467360" lon="10.0223110">
	<ele>824.20</ele>
	<time>2023-04-15T12:02:36.000Z</time>
</trkpt>
<trkpt lat="45.7467350" lon="10.0222470">
	<ele>823.20</ele>
	<time>2023-04-15T12:02:40.000Z</time>
</trkpt>
<trkpt lat="45.7467390" lon="10.0221250">
	<ele>822.00</ele>
	<time>2023-04-15T12:02:46.000Z</time>
</trkpt>
<trkpt lat="45.7467330" lon="10.0220910">
	<ele>821.60</ele>
	<time>2023-04-15T12:02:48.000Z</time>
</trkpt>
<trkpt lat="45.7467300" lon="10.0220510">
	<ele>820.80</ele>
	<time>2023-04-15T12:02:50.000Z</time>
</trkpt>
<trkpt lat="45.7467550" lon="10.0219720">
	<ele>819.60</ele>
	<time>2023-04-15T12:02:54.000Z</time>
</trkpt>
<trkpt lat="45.7467870" lon="10.0219010">
	<ele>818.80</ele>
	<time>2023-04-15T12:02:58.000Z</time>
</trkpt>
<trkpt lat="45.7467950" lon="10.0218820">
	<ele>818.40</ele>
	<time>2023-04-15T12:02:59.000Z</time>
</trkpt>
<trkpt lat="45.7468050" lon="10.0218540">
	<ele>818.20</ele>
	<time>2023-04-15T12:03:01.000Z</time>
</trkpt>
<trkpt lat="45.7468090" lon="10.0218340">
	<ele>817.80</ele>
	<time>2023-04-15T12:03:02.000Z</time>
</trkpt>
<trkpt lat="45.7468140" lon="10.0218160">
	<ele>817.40</ele>
	<time>2023-04-15T12:03:03.000Z</time>
</trkpt>
<trkpt lat="45.7468190" lon="10.0217980">
	<ele>817.00</ele>
	<time>2023-04-15T12:03:05.000Z</time>
</trkpt>
<trkpt lat="45.7468220" lon="10.0217730">
	<ele>816.40</ele>
	<time>2023-04-15T12:03:07.000Z</time>
</trkpt>
<trkpt lat="45.7468240" lon="10.0217100">
	<ele>815.20</ele>
	<time>2023-04-15T12:03:10.000Z</time>
</trkpt>
<trkpt lat="45.7468620" lon="10.0216750">
	<ele>814.20</ele>
	<time>2023-04-15T12:03:14.000Z</time>
</trkpt>
<trkpt lat="45.7469050" lon="10.0215850">
	<ele>813.20</ele>
	<time>2023-04-15T12:03:18.000Z</time>
</trkpt>
<trkpt lat="45.7469210" lon="10.0215460">
	<ele>812.60</ele>
	<time>2023-04-15T12:03:21.000Z</time>
</trkpt>
<trkpt lat="45.7469390" lon="10.0215410">
	<ele>812.00</ele>
	<time>2023-04-15T12:03:23.000Z</time>
</trkpt>
<trkpt lat="45.7469660" lon="10.0215280">
	<ele>811.20</ele>
	<time>2023-04-15T12:03:27.000Z</time>
</trkpt>
<trkpt lat="45.7469940" lon="10.0214950">
	<ele>811.00</ele>
	<time>2023-04-15T12:03:30.000Z</time>
</trkpt>
<trkpt lat="45.7470280" lon="10.0214240">
	<ele>811.00</ele>
	<time>2023-04-15T12:03:34.000Z</time>
</trkpt>
<trkpt lat="45.7470470" lon="10.0213750">
	<ele>810.60</ele>
	<time>2023-04-15T12:03:37.000Z</time>
</trkpt>
<trkpt lat="45.7470590" lon="10.0213340">
	<ele>810.00</ele>
	<time>2023-04-15T12:03:39.000Z</time>
</trkpt>
<trkpt lat="45.7470670" lon="10.0213210">
	<ele>809.60</ele>
	<time>2023-04-15T12:03:40.000Z</time>
</trkpt>
<trkpt lat="45.7470950" lon="10.0212670">
	<ele>809.00</ele>
	<time>2023-04-15T12:03:43.000Z</time>
</trkpt>
<trkpt lat="45.7471040" lon="10.0212560">
	<ele>808.80</ele>
	<time>2023-04-15T12:03:44.000Z</time>
</trkpt>
<trkpt lat="45.7471340" lon="10.0212060">
	<ele>808.40</ele>
	<time>2023-04-15T12:03:48.000Z</time>
</trkpt>
<trkpt lat="45.7471500" lon="10.0211660">
	<ele>807.80</ele>
	<time>2023-04-15T12:03:50.000Z</time>
</trkpt>
<trkpt lat="45.7471740" lon="10.0211350">
	<ele>807.60</ele>
	<time>2023-04-15T12:03:52.000Z</time>
</trkpt>
<trkpt lat="45.7471880" lon="10.0211200">
	<ele>806.80</ele>
	<time>2023-04-15T12:03:54.000Z</time>
</trkpt>
<trkpt lat="45.7471990" lon="10.0211110">
	<ele>806.40</ele>
	<time>2023-04-15T12:03:55.000Z</time>
</trkpt>
<trkpt lat="45.7472220" lon="10.0210800">
	<ele>805.80</ele>
	<time>2023-04-15T12:03:58.000Z</time>
</trkpt>
<trkpt lat="45.7472390" lon="10.0210140">
	<ele>804.80</ele>
	<time>2023-04-15T12:04:01.000Z</time>
</trkpt>
<trkpt lat="45.7472340" lon="10.0209920">
	<ele>804.60</ele>
	<time>2023-04-15T12:04:02.000Z</time>
</trkpt>
<trkpt lat="45.7472330" lon="10.0209010">
	<ele>803.60</ele>
	<time>2023-04-15T12:04:07.000Z</time>
</trkpt>
<trkpt lat="45.7472350" lon="10.0208900">
	<ele>803.40</ele>
	<time>2023-04-15T12:04:08.000Z</time>
</trkpt>
<trkpt lat="45.7472090" lon="10.0208690">
	<ele>802.40</ele>
	<time>2023-04-15T12:04:12.000Z</time>
</trkpt>
<trkpt lat="45.7471890" lon="10.0208530">
	<ele>801.60</ele>
	<time>2023-04-15T12:04:14.000Z</time>
</trkpt>
<trkpt lat="45.7471880" lon="10.0208350">
	<ele>801.20</ele>
	<time>2023-04-15T12:04:16.000Z</time>
</trkpt>
<trkpt lat="45.7471850" lon="10.0208310">
	<ele>801.00</ele>
	<time>2023-04-15T12:04:17.000Z</time>
</trkpt>
<trkpt lat="45.7471870" lon="10.0208130">
	<ele>800.80</ele>
	<time>2023-04-15T12:04:20.000Z</time>
</trkpt>
<trkpt lat="45.7472000" lon="10.0207910">
	<ele>800.40</ele>
	<time>2023-04-15T12:04:23.000Z</time>
</trkpt>
<trkpt lat="45.7472080" lon="10.0207770">
	<ele>800.20</ele>
	<time>2023-04-15T12:04:26.000Z</time>
</trkpt>
<trkpt lat="45.7472060" lon="10.0207740">
	<ele>800.20</ele>
	<time>2023-04-15T12:04:27.000Z</time>
</trkpt>
<trkpt lat="45.7471980" lon="10.0207450">
	<ele>799.40</ele>
	<time>2023-04-15T12:04:33.000Z</time>
</trkpt>
<trkpt lat="45.7471930" lon="10.0207350">
	<ele>799.20</ele>
	<time>2023-04-15T12:04:35.000Z</time>
</trkpt>
<trkpt lat="45.7471870" lon="10.0207320">
	<ele>799.00</ele>
	<time>2023-04-15T12:04:36.000Z</time>
</trkpt>
<trkpt lat="45.7471830" lon="10.0207120">
	<ele>798.60</ele>
	<time>2023-04-15T12:04:39.000Z</time>
</trkpt>
<trkpt lat="45.7471780" lon="10.0206920">
	<ele>798.00</ele>
	<time>2023-04-15T12:04:42.000Z</time>
</trkpt>
<trkpt lat="45.7471780" lon="10.0206870">
	<ele>797.80</ele>
	<time>2023-04-15T12:04:43.000Z</time>
</trkpt>
<trkpt lat="45.7471840" lon="10.0206700">
	<ele>796.80</ele>
	<time>2023-04-15T12:04:48.000Z</time>
</trkpt>
<trkpt lat="45.7471870" lon="10.0206470">
	<ele>796.20</ele>
	<time>2023-04-15T12:04:50.000Z</time>
</trkpt>
<trkpt lat="45.7471750" lon="10.0206150">
	<ele>795.60</ele>
	<time>2023-04-15T12:04:54.000Z</time>
</trkpt>
<trkpt lat="45.7471670" lon="10.0206010">
	<ele>794.80</ele>
	<time>2023-04-15T12:04:57.000Z</time>
</trkpt>
<trkpt lat="45.7471580" lon="10.0205750">
	<ele>794.40</ele>
	<time>2023-04-15T12:04:59.000Z</time>
</trkpt>
<trkpt lat="45.7471550" lon="10.0205080">
	<ele>793.20</ele>
	<time>2023-04-15T12:05:03.000Z</time>
</trkpt>
<trkpt lat="45.7471520" lon="10.0204620">
	<ele>792.00</ele>
	<time>2023-04-15T12:05:08.000Z</time>
</trkpt>
<trkpt lat="45.7471300" lon="10.0204400">
	<ele>791.60</ele>
	<time>2023-04-15T12:05:10.000Z</time>
</trkpt>
<trkpt lat="45.7471250" lon="10.0204160">
	<ele>791.00</ele>
	<time>2023-04-15T12:05:12.000Z</time>
</trkpt>
<trkpt lat="45.7470740" lon="10.0203550">
	<ele>789.80</ele>
	<time>2023-04-15T12:05:16.000Z</time>
</trkpt>
<trkpt lat="45.7470640" lon="10.0203470">
	<ele>789.60</ele>
	<time>2023-04-15T12:05:17.000Z</time>
</trkpt>
<trkpt lat="45.7470490" lon="10.0203070">
	<ele>788.80</ele>
	<time>2023-04-15T12:05:21.000Z</time>
</trkpt>
<trkpt lat="45.7470300" lon="10.0202610">
	<ele>787.60</ele>
	<time>2023-04-15T12:05:25.000Z</time>
</trkpt>
<trkpt lat="45.7470280" lon="10.0202380">
	<ele>787.20</ele>
	<time>2023-04-15T12:05:27.000Z</time>
</trkpt>
<trkpt lat="45.7470130" lon="10.0202180">
	<ele>786.60</ele>
	<time>2023-04-15T12:05:30.000Z</time>
</trkpt>
<trkpt lat="45.7470080" lon="10.0202130">
	<ele>786.40</ele>
	<time>2023-04-15T12:05:31.000Z</time>
</trkpt>
<trkpt lat="45.7470020" lon="10.0201690">
	<ele>785.40</ele>
	<time>2023-04-15T12:05:35.000Z</time>
</trkpt>
<trkpt lat="45.7470000" lon="10.0201300">
	<ele>784.60</ele>
	<time>2023-04-15T12:05:37.000Z</time>
</trkpt>
<trkpt lat="45.7469980" lon="10.0201140">
	<ele>784.20</ele>
	<time>2023-04-15T12:05:38.000Z</time>
</trkpt>
<trkpt lat="45.7470130" lon="10.0200400">
	<ele>783.00</ele>
	<time>2023-04-15T12:05:43.000Z</time>
</trkpt>
<trkpt lat="45.7470060" lon="10.0200300">
	<ele>782.80</ele>
	<time>2023-04-15T12:05:44.000Z</time>
</trkpt>
<trkpt lat="45.7470040" lon="10.0200060">
	<ele>781.80</ele>
	<time>2023-04-15T12:05:47.000Z</time>
</trkpt>
<trkpt lat="45.7469960" lon="10.0199710">
	<ele>781.00</ele>
	<time>2023-04-15T12:05:50.000Z</time>
</trkpt>
<trkpt lat="45.7469980" lon="10.0199590">
	<ele>780.80</ele>
	<time>2023-04-15T12:05:51.000Z</time>
</trkpt>
<trkpt lat="45.7469990" lon="10.0199200">
	<ele>779.60</ele>
	<time>2023-04-15T12:05:55.000Z</time>
</trkpt>
<trkpt lat="45.7469870" lon="10.0198920">
	<ele>778.60</ele>
	<time>2023-04-15T12:05:58.000Z</time>
</trkpt>
<trkpt lat="45.7469850" lon="10.0198860">
	<ele>778.40</ele>
	<time>2023-04-15T12:05:59.000Z</time>
</trkpt>
<trkpt lat="45.7469880" lon="10.0198510">
	<ele>777.20</ele>
	<time>2023-04-15T12:06:03.000Z</time>
</trkpt>
<trkpt lat="45.7469810" lon="10.0198480">
	<ele>776.80</ele>
	<time>2023-04-15T12:06:04.000Z</time>
</trkpt>
<trkpt lat="45.7469600" lon="10.0197860">
	<ele>775.80</ele>
	<time>2023-04-15T12:06:08.000Z</time>
</trkpt>
<trkpt lat="45.7469470" lon="10.0197630">
	<ele>775.40</ele>
	<time>2023-04-15T12:06:10.000Z</time>
</trkpt>
<trkpt lat="45.7469370" lon="10.0197330">
	<ele>774.80</ele>
	<time>2023-04-15T12:06:13.000Z</time>
</trkpt>
<trkpt lat="45.7469190" lon="10.0197150">
	<ele>773.80</ele>
	<time>2023-04-15T12:06:17.000Z</time>
</trkpt>
<trkpt lat="45.7469090" lon="10.0197080">
	<ele>773.60</ele>
	<time>2023-04-15T12:06:18.000Z</time>
</trkpt>
<trkpt lat="45.7469000" lon="10.0196870">
	<ele>773.40</ele>
	<time>2023-04-15T12:06:19.000Z</time>
</trkpt>
<trkpt lat="45.7468940" lon="10.0196370">
	<ele>772.60</ele>
	<time>2023-04-15T12:06:21.000Z</time>
</trkpt>
<trkpt lat="45.7468780" lon="10.0195600">
	<ele>771.60</ele>
	<time>2023-04-15T12:06:26.000Z</time>
</trkpt>
<trkpt lat="45.7468750" lon="10.0195540">
	<ele>771.20</ele>
	<time>2023-04-15T12:06:27.000Z</time>
</trkpt>
<trkpt lat="45.7468670" lon="10.0195260">
	<ele>770.60</ele>
	<time>2023-04-15T12:06:29.000Z</time>
</trkpt>
<trkpt lat="45.7468620" lon="10.0195270">
	<ele>770.40</ele>
	<time>2023-04-15T12:06:31.000Z</time>
</trkpt>
<trkpt lat="45.7468730" lon="10.0195150">
	<ele>770.20</ele>
	<time>2023-04-15T12:06:33.000Z</time>
</trkpt>
<trkpt lat="45.7468750" lon="10.0195160">
	<ele>770.00</ele>
	<time>2023-04-15T12:06:34.000Z</time>
</trkpt>
<trkpt lat="45.7468740" lon="10.0195110">
	<ele>769.60</ele>
	<time>2023-04-15T12:06:40.000Z</time>
</trkpt>
<trkpt lat="45.7468740" lon="10.0195110">
	<ele>769.60</ele>
	<time>2023-04-15T12:06:42.000Z</time>
</trkpt>
<trkpt lat="45.7468740" lon="10.0195110">
	<ele>769.60</ele>
	<time>2023-04-15T12:06:46.000Z</time>
</trkpt>
<trkpt lat="45.7468740" lon="10.0195150">
	<ele>769.60</ele>
	<time>2023-04-15T12:06:59.000Z</time>
</trkpt>
<trkpt lat="45.7468700" lon="10.0195150">
	<ele>770.60</ele>
	<time>2023-04-15T12:07:09.000Z</time>
</trkpt>
<trkpt lat="45.7468570" lon="10.0194700">
	<ele>769.20</ele>
	<time>2023-04-15T12:07:23.000Z</time>
</trkpt>
<trkpt lat="45.7468440" lon="10.0194310">
	<ele>768.80</ele>
	<time>2023-04-15T12:07:25.000Z</time>
</trkpt>
<trkpt lat="45.7468190" lon="10.0193760">
	<ele>768.00</ele>
	<time>2023-04-15T12:07:28.000Z</time>
</trkpt>
<trkpt lat="45.7467960" lon="10.0193210">
	<ele>767.20</ele>
	<time>2023-04-15T12:07:31.000Z</time>
</trkpt>
<trkpt lat="45.7467860" lon="10.0193150">
	<ele>767.00</ele>
	<time>2023-04-15T12:07:32.000Z</time>
</trkpt>
<trkpt lat="45.7467560" lon="10.0192710">
	<ele>765.80</ele>
	<time>2023-04-15T12:07:36.000Z</time>
</trkpt>
<trkpt lat="45.7467210" lon="10.0192050">
	<ele>764.60</ele>
	<time>2023-04-15T12:07:41.000Z</time>
</trkpt>
<trkpt lat="45.7467070" lon="10.0191450">
	<ele>763.60</ele>
	<time>2023-04-15T12:07:45.000Z</time>
</trkpt>
<trkpt lat="45.7466820" lon="10.0190950">
	<ele>762.60</ele>
	<time>2023-04-15T12:07:49.000Z</time>
</trkpt>
<trkpt lat="45.7466790" lon="10.0190680">
	<ele>762.40</ele>
	<time>2023-04-15T12:07:51.000Z</time>
</trkpt>
<trkpt lat="45.7466670" lon="10.0189670">
	<ele>761.40</ele>
	<time>2023-04-15T12:07:57.000Z</time>
</trkpt>
<trkpt lat="45.7466700" lon="10.0189220">
	<ele>760.40</ele>
	<time>2023-04-15T12:08:00.000Z</time>
</trkpt>
<trkpt lat="45.7466740" lon="10.0188880">
	<ele>760.00</ele>
	<time>2023-04-15T12:08:02.000Z</time>
</trkpt>
<trkpt lat="45.7466720" lon="10.0188490">
	<ele>759.40</ele>
	<time>2023-04-15T12:08:04.000Z</time>
</trkpt>
<trkpt lat="45.7466760" lon="10.0187460">
	<ele>758.60</ele>
	<time>2023-04-15T12:08:09.000Z</time>
</trkpt>
<trkpt lat="45.7466790" lon="10.0187060">
	<ele>758.40</ele>
	<time>2023-04-15T12:08:11.000Z</time>
</trkpt>
<trkpt lat="45.7466850" lon="10.0186880">
	<ele>758.20</ele>
	<time>2023-04-15T12:08:12.000Z</time>
</trkpt>
<trkpt lat="45.7466870" lon="10.0185830">
	<ele>757.20</ele>
	<time>2023-04-15T12:08:17.000Z</time>
</trkpt>
<trkpt lat="45.7466830" lon="10.0185220">
	<ele>756.60</ele>
	<time>2023-04-15T12:08:21.000Z</time>
</trkpt>
<trkpt lat="45.7466800" lon="10.0184420">
	<ele>756.20</ele>
	<time>2023-04-15T12:08:26.000Z</time>
</trkpt>
<trkpt lat="45.7466920" lon="10.0183490">
	<ele>755.60</ele>
	<time>2023-04-15T12:08:31.000Z</time>
</trkpt>
<trkpt lat="45.7466860" lon="10.0183240">
	<ele>755.00</ele>
	<time>2023-04-15T12:08:33.000Z</time>
</trkpt>
<trkpt lat="45.7466970" lon="10.0182040">
	<ele>754.60</ele>
	<time>2023-04-15T12:08:39.000Z</time>
</trkpt>
<trkpt lat="45.7467620" lon="10.0180860">
	<ele>754.60</ele>
	<time>2023-04-15T12:08:47.000Z</time>
</trkpt>
<trkpt lat="45.7467850" lon="10.0180650">
	<ele>754.40</ele>
	<time>2023-04-15T12:08:49.000Z</time>
</trkpt>
<trkpt lat="45.7468120" lon="10.0180280">
	<ele>754.20</ele>
	<time>2023-04-15T12:08:53.000Z</time>
</trkpt>
<trkpt lat="45.7468110" lon="10.0180270">
	<ele>754.20</ele>
	<time>2023-04-15T12:08:54.000Z</time>
</trkpt>
<trkpt lat="45.7468060" lon="10.0180180">
	<ele>754.00</ele>
	<time>2023-04-15T12:08:55.000Z</time>
</trkpt>
<trkpt lat="45.7468040" lon="10.0179850">
	<ele>753.80</ele>
	<time>2023-04-15T12:08:57.000Z</time>
</trkpt>
<trkpt lat="45.7468090" lon="10.0179640">
	<ele>753.40</ele>
	<time>2023-04-15T12:08:58.000Z</time>
</trkpt>
<trkpt lat="45.7468210" lon="10.0179370">
	<ele>753.00</ele>
	<time>2023-04-15T12:09:00.000Z</time>
</trkpt>
<trkpt lat="45.7468400" lon="10.0179110">
	<ele>752.60</ele>
	<time>2023-04-15T12:09:03.000Z</time>
</trkpt>
<trkpt lat="45.7468700" lon="10.0178680">
	<ele>751.80</ele>
	<time>2023-04-15T12:09:06.000Z</time>
</trkpt>
<trkpt lat="45.7469080" lon="10.0178120">
	<ele>750.60</ele>
	<time>2023-04-15T12:09:10.000Z</time>
</trkpt>
<trkpt lat="45.7469180" lon="10.0177830">
	<ele>750.40</ele>
	<time>2023-04-15T12:09:12.000Z</time>
</trkpt>
<trkpt lat="45.7469490" lon="10.0177260">
	<ele>749.60</ele>
	<time>2023-04-15T12:09:17.000Z</time>
</trkpt>
<trkpt lat="45.7469650" lon="10.0176940">
	<ele>748.40</ele>
	<time>2023-04-15T12:09:20.000Z</time>
</trkpt>
<trkpt lat="45.7469720" lon="10.0176760">
	<ele>748.00</ele>
	<time>2023-04-15T12:09:22.000Z</time>
</trkpt>
<trkpt lat="45.7469810" lon="10.0176640">
	<ele>747.80</ele>
	<time>2023-04-15T12:09:23.000Z</time>
</trkpt>
<trkpt lat="45.7469940" lon="10.0176510">
	<ele>747.40</ele>
	<time>2023-04-15T12:09:25.000Z</time>
</trkpt>
<trkpt lat="45.7470020" lon="10.0176430">
	<ele>747.40</ele>
	<time>2023-04-15T12:09:26.000Z</time>
</trkpt>
<trkpt lat="45.7470360" lon="10.0175980">
	<ele>746.60</ele>
	<time>2023-04-15T12:09:31.000Z</time>
</trkpt>
<trkpt lat="45.7470390" lon="10.0175930">
	<ele>746.40</ele>
	<time>2023-04-15T12:09:32.000Z</time>
</trkpt>
<trkpt lat="45.7470480" lon="10.0175820">
	<ele>746.00</ele>
	<time>2023-04-15T12:09:34.000Z</time>
</trkpt>
<trkpt lat="45.7470590" lon="10.0175660">
	<ele>745.60</ele>
	<time>2023-04-15T12:09:36.000Z</time>
</trkpt>
<trkpt lat="45.7470700" lon="10.0175460">
	<ele>745.40</ele>
	<time>2023-04-15T12:09:38.000Z</time>
</trkpt>
<trkpt lat="45.7470780" lon="10.0175330">
	<ele>745.20</ele>
	<time>2023-04-15T12:09:39.000Z</time>
</trkpt>
<trkpt lat="45.7471260" lon="10.0174700">
	<ele>744.60</ele>
	<time>2023-04-15T12:09:44.000Z</time>
</trkpt>
<trkpt lat="45.7471390" lon="10.0174550">
	<ele>744.40</ele>
	<time>2023-04-15T12:09:45.000Z</time>
</trkpt>
<trkpt lat="45.7471610" lon="10.0174280">
	<ele>744.00</ele>
	<time>2023-04-15T12:09:47.000Z</time>
</trkpt>
<trkpt lat="45.7472030" lon="10.0173620">
	<ele>743.00</ele>
	<time>2023-04-15T12:09:52.000Z</time>
</trkpt>
<trkpt lat="45.7472200" lon="10.0173310">
	<ele>742.60</ele>
	<time>2023-04-15T12:09:54.000Z</time>
</trkpt>
<trkpt lat="45.7472450" lon="10.0172710">
	<ele>742.20</ele>
	<time>2023-04-15T12:09:58.000Z</time>
</trkpt>
<trkpt lat="45.7472520" lon="10.0172580">
	<ele>741.80</ele>
	<time>2023-04-15T12:09:59.000Z</time>
</trkpt>
<trkpt lat="45.7472760" lon="10.0172090">
	<ele>740.60</ele>
	<time>2023-04-15T12:10:02.000Z</time>
</trkpt>
<trkpt lat="45.7472820" lon="10.0171910">
	<ele>740.40</ele>
	<time>2023-04-15T12:10:03.000Z</time>
</trkpt>
<trkpt lat="45.7472890" lon="10.0171460">
	<ele>739.80</ele>
	<time>2023-04-15T12:10:06.000Z</time>
</trkpt>
<trkpt lat="45.7472960" lon="10.0171350">
	<ele>739.40</ele>
	<time>2023-04-15T12:10:07.000Z</time>
</trkpt>
<trkpt lat="45.7473060" lon="10.0171320">
	<ele>739.00</ele>
	<time>2023-04-15T12:10:08.000Z</time>
</trkpt>
<trkpt lat="45.7473160" lon="10.0171160">
	<ele>739.00</ele>
	<time>2023-04-15T12:10:09.000Z</time>
</trkpt>
<trkpt lat="45.7473330" lon="10.0170340">
	<ele>738.40</ele>
	<time>2023-04-15T12:10:14.000Z</time>
</trkpt>
<trkpt lat="45.7473410" lon="10.0169950">
	<ele>738.00</ele>
	<time>2023-04-15T12:10:16.000Z</time>
</trkpt>
<trkpt lat="45.7473500" lon="10.0169680">
	<ele>737.40</ele>
	<time>2023-04-15T12:10:18.000Z</time>
</trkpt>
<trkpt lat="45.7473660" lon="10.0169280">
	<ele>736.40</ele>
	<time>2023-04-15T12:10:20.000Z</time>
</trkpt>
<trkpt lat="45.7473830" lon="10.0168730">
	<ele>735.20</ele>
	<time>2023-04-15T12:10:23.000Z</time>
</trkpt>
<trkpt lat="45.7474050" lon="10.0168380">
	<ele>734.40</ele>
	<time>2023-04-15T12:10:26.000Z</time>
</trkpt>
<trkpt lat="45.7474120" lon="10.0168300">
	<ele>734.20</ele>
	<time>2023-04-15T12:10:27.000Z</time>
</trkpt>
<trkpt lat="45.7474290" lon="10.0168080">
	<ele>733.20</ele>
	<time>2023-04-15T12:10:29.000Z</time>
</trkpt>
<trkpt lat="45.7474390" lon="10.0167950">
	<ele>733.00</ele>
	<time>2023-04-15T12:10:30.000Z</time>
</trkpt>
<trkpt lat="45.7474990" lon="10.0167500">
	<ele>731.80</ele>
	<time>2023-04-15T12:10:35.000Z</time>
</trkpt>
<trkpt lat="45.7475080" lon="10.0167490">
	<ele>731.60</ele>
	<time>2023-04-15T12:10:36.000Z</time>
</trkpt>
<trkpt lat="45.7475260" lon="10.0167510">
	<ele>730.80</ele>
	<time>2023-04-15T12:10:38.000Z</time>
</trkpt>
<trkpt lat="45.7475580" lon="10.0167610">
	<ele>729.40</ele>
	<time>2023-04-15T12:10:43.000Z</time>
</trkpt>
<trkpt lat="45.7475810" lon="10.0167590">
	<ele>728.80</ele>
	<time>2023-04-15T12:10:46.000Z</time>
</trkpt>
<trkpt lat="45.7476040" lon="10.0167580">
	<ele>728.40</ele>
	<time>2023-04-15T12:10:48.000Z</time>
</trkpt>
<trkpt lat="45.7476160" lon="10.0167530">
	<ele>728.20</ele>
	<time>2023-04-15T12:10:49.000Z</time>
</trkpt>
<trkpt lat="45.7476410" lon="10.0167450">
	<ele>727.80</ele>
	<time>2023-04-15T12:10:51.000Z</time>
</trkpt>
<trkpt lat="45.7476570" lon="10.0167650">
	<ele>727.40</ele>
	<time>2023-04-15T12:10:53.000Z</time>
</trkpt>
<trkpt lat="45.7476820" lon="10.0167720">
	<ele>727.20</ele>
	<time>2023-04-15T12:10:55.000Z</time>
</trkpt>
<trkpt lat="45.7477020" lon="10.0167840">
	<ele>726.80</ele>
	<time>2023-04-15T12:10:57.000Z</time>
</trkpt>
<trkpt lat="45.7477250" lon="10.0167930">
	<ele>726.60</ele>
	<time>2023-04-15T12:10:59.000Z</time>
</trkpt>
<trkpt lat="45.7477440" lon="10.0167980">
	<ele>726.40</ele>
	<time>2023-04-15T12:11:01.000Z</time>
</trkpt>
<trkpt lat="45.7477560" lon="10.0167990">
	<ele>726.20</ele>
	<time>2023-04-15T12:11:02.000Z</time>
</trkpt>
<trkpt lat="45.7477720" lon="10.0168070">
	<ele>725.80</ele>
	<time>2023-04-15T12:11:04.000Z</time>
</trkpt>
<trkpt lat="45.7477990" lon="10.0168120">
	<ele>725.80</ele>
	<time>2023-04-15T12:11:06.000Z</time>
</trkpt>
<trkpt lat="45.7478380" lon="10.0168570">
	<ele>725.40</ele>
	<time>2023-04-15T12:11:11.000Z</time>
</trkpt>
<trkpt lat="45.7478350" lon="10.0168590">
	<ele>725.40</ele>
	<time>2023-04-15T12:11:13.000Z</time>
</trkpt>
<trkpt lat="45.7478280" lon="10.0168590">
	<ele>725.40</ele>
	<time>2023-04-15T12:11:18.000Z</time>
</trkpt>
<trkpt lat="45.7478290" lon="10.0168610">
	<ele>725.60</ele>
	<time>2023-04-15T12:11:23.000Z</time>
</trkpt>
<trkpt lat="45.7478290" lon="10.0168610">
	<ele>725.20</ele>
	<time>2023-04-15T12:11:28.000Z</time>
</trkpt>
<trkpt lat="45.7478320" lon="10.0168570">
	<ele>725.80</ele>
	<time>2023-04-15T12:11:37.000Z</time>
</trkpt>
<trkpt lat="45.7478340" lon="10.0168570">
	<ele>725.80</ele>
	<time>2023-04-15T12:11:38.000Z</time>
</trkpt>
<trkpt lat="45.7478360" lon="10.0168570">
	<ele>726.40</ele>
	<time>2023-04-15T12:11:40.000Z</time>
</trkpt>
<trkpt lat="45.7478390" lon="10.0168390">
	<ele>727.40</ele>
	<time>2023-04-15T12:11:45.000Z</time>
</trkpt>
<trkpt lat="45.7478400" lon="10.0168230">
	<ele>727.60</ele>
	<time>2023-04-15T12:11:48.000Z</time>
</trkpt>
<trkpt lat="45.7478520" lon="10.0168150">
	<ele>727.00</ele>
	<time>2023-04-15T12:12:03.000Z</time>
</trkpt>
<trkpt lat="45.7478520" lon="10.0168150">
	<ele>727.00</ele>
	<time>2023-04-15T12:12:05.000Z</time>
</trkpt>
<trkpt lat="45.7478520" lon="10.0168150">
	<ele>727.00</ele>
	<time>2023-04-15T12:12:10.000Z</time>
</trkpt>
<trkpt lat="45.7478500" lon="10.0168160">
	<ele>727.00</ele>
	<time>2023-04-15T12:12:14.000Z</time>
</trkpt>
<trkpt lat="45.7478500" lon="10.0168170">
	<ele>727.00</ele>
	<time>2023-04-15T12:12:17.000Z</time>
</trkpt>
<trkpt lat="45.7478500" lon="10.0168170">
	<ele>727.20</ele>
	<time>2023-04-15T12:12:22.000Z</time>
</trkpt>
<trkpt lat="45.7478500" lon="10.0168170">
	<ele>727.20</ele>
	<time>2023-04-15T12:12:23.000Z</time>
</trkpt>
<trkpt lat="45.7478520" lon="10.0168130">
	<ele>727.20</ele>
	<time>2023-04-15T12:12:30.000Z</time>
</trkpt>
<trkpt lat="45.7479000" lon="10.0167620">
	<ele>726.20</ele>
	<time>2023-04-15T12:12:47.000Z</time>
</trkpt>
<trkpt lat="45.7478980" lon="10.0167810">
	<ele>726.00</ele>
	<time>2023-04-15T12:12:49.000Z</time>
</trkpt>
<trkpt lat="45.7479270" lon="10.0168220">
	<ele>725.00</ele>
	<time>2023-04-15T12:12:53.000Z</time>
</trkpt>
<trkpt lat="45.7479500" lon="10.0168430">
	<ele>724.40</ele>
	<time>2023-04-15T12:12:55.000Z</time>
</trkpt>
<trkpt lat="45.7479830" lon="10.0168470">
	<ele>723.80</ele>
	<time>2023-04-15T12:12:58.000Z</time>
</trkpt>
<trkpt lat="45.7480110" lon="10.0168610">
	<ele>722.80</ele>
	<time>2023-04-15T12:13:02.000Z</time>
</trkpt>
<trkpt lat="45.7480120" lon="10.0168630">
	<ele>722.60</ele>
	<time>2023-04-15T12:13:03.000Z</time>
</trkpt>
<trkpt lat="45.7480250" lon="10.0168720">
	<ele>722.20</ele>
	<time>2023-04-15T12:13:07.000Z</time>
</trkpt>
<trkpt lat="45.7480600" lon="10.0168400">
	<ele>721.40</ele>
	<time>2023-04-15T12:13:11.000Z</time>
</trkpt>
<trkpt lat="45.7480760" lon="10.0168310">
	<ele>720.80</ele>
	<time>2023-04-15T12:13:13.000Z</time>
</trkpt>
<trkpt lat="45.7480880" lon="10.0168180">
	<ele>720.40</ele>
	<time>2023-04-15T12:13:15.000Z</time>
</trkpt>
<trkpt lat="45.7481000" lon="10.0168090">
	<ele>719.60</ele>
	<time>2023-04-15T12:13:17.000Z</time>
</trkpt>
<trkpt lat="45.7481060" lon="10.0168090">
	<ele>719.40</ele>
	<time>2023-04-15T12:13:18.000Z</time>
</trkpt>
<trkpt lat="45.7481100" lon="10.0168060">
	<ele>719.00</ele>
	<time>2023-04-15T12:13:19.000Z</time>
</trkpt>
<trkpt lat="45.7481210" lon="10.0168030">
	<ele>718.20</ele>
	<time>2023-04-15T12:13:21.000Z</time>
</trkpt>
<trkpt lat="45.7481330" lon="10.0167970">
	<ele>718.00</ele>
	<time>2023-04-15T12:13:22.000Z</time>
</trkpt>
<trkpt lat="45.7481410" lon="10.0167910">
	<ele>717.60</ele>
	<time>2023-04-15T12:13:24.000Z</time>
</trkpt>
<trkpt lat="45.7481460" lon="10.0167870">
	<ele>717.40</ele>
	<time>2023-04-15T12:13:25.000Z</time>
</trkpt>
<trkpt lat="45.7481530" lon="10.0167840">
	<ele>716.80</ele>
	<time>2023-04-15T12:13:26.000Z</time>
</trkpt>
<trkpt lat="45.7481830" lon="10.0167690">
	<ele>715.80</ele>
	<time>2023-04-15T12:13:29.000Z</time>
</trkpt>
<trkpt lat="45.7481950" lon="10.0167710">
	<ele>715.40</ele>
	<time>2023-04-15T12:13:30.000Z</time>
</trkpt>
<trkpt lat="45.7482050" lon="10.0167710">
	<ele>715.20</ele>
	<time>2023-04-15T12:13:31.000Z</time>
</trkpt>
<trkpt lat="45.7482240" lon="10.0167640">
	<ele>714.40</ele>
	<time>2023-04-15T12:13:33.000Z</time>
</trkpt>
<trkpt lat="45.7482720" lon="10.0167460">
	<ele>713.20</ele>
	<time>2023-04-15T12:13:37.000Z</time>
</trkpt>
<trkpt lat="45.7483130" lon="10.0167640">
	<ele>712.20</ele>
	<time>2023-04-15T12:13:41.000Z</time>
</trkpt>
<trkpt lat="45.7483650" lon="10.0167770">
	<ele>711.60</ele>
	<time>2023-04-15T12:13:43.000Z</time>
</trkpt>
<trkpt lat="45.7484800" lon="10.0167720">
	<ele>711.00</ele>
	<time>2023-04-15T12:13:47.000Z</time>
</trkpt>
<trkpt lat="45.7485020" lon="10.0167700">
	<ele>710.80</ele>
	<time>2023-04-15T12:13:48.000Z</time>
</trkpt>
<trkpt lat="45.7485520" lon="10.0167650">
	<ele>710.00</ele>
	<time>2023-04-15T12:13:51.000Z</time>
</trkpt>
<trkpt lat="45.7486320" lon="10.0167830">
	<ele>709.60</ele>
	<time>2023-04-15T12:13:56.000Z</time>
</trkpt>
<trkpt lat="45.7486860" lon="10.0168630">
	<ele>708.80</ele>
	<time>2023-04-15T12:14:03.000Z</time>
</trkpt>
<trkpt lat="45.7486960" lon="10.0168710">
	<ele>708.80</ele>
	<time>2023-04-15T12:14:04.000Z</time>
</trkpt>
<trkpt lat="45.7487040" lon="10.0168880">
	<ele>708.80</ele>
	<time>2023-04-15T12:14:05.000Z</time>
</trkpt>
<trkpt lat="45.7487380" lon="10.0169050">
	<ele>708.80</ele>
	<time>2023-04-15T12:14:08.000Z</time>
</trkpt>
<trkpt lat="45.7487570" lon="10.0169080">
	<ele>709.00</ele>
	<time>2023-04-15T12:14:09.000Z</time>
</trkpt>
<trkpt lat="45.7487910" lon="10.0169160">
	<ele>709.00</ele>
	<time>2023-04-15T12:14:11.000Z</time>
</trkpt>
<trkpt lat="45.7488270" lon="10.0169260">
	<ele>708.60</ele>
	<time>2023-04-15T12:14:13.000Z</time>
</trkpt>
<trkpt lat="45.7488840" lon="10.0169120">
	<ele>708.00</ele>
	<time>2023-04-15T12:14:16.000Z</time>
</trkpt>
<trkpt lat="45.7489310" lon="10.0168820">
	<ele>707.80</ele>
	<time>2023-04-15T12:14:18.000Z</time>
</trkpt>
<trkpt lat="45.7489800" lon="10.0168780">
	<ele>707.40</ele>
	<time>2023-04-15T12:14:20.000Z</time>
</trkpt>
<trkpt lat="45.7490070" lon="10.0169190">
	<ele>706.80</ele>
	<time>2023-04-15T12:14:24.000Z</time>
</trkpt>
<trkpt lat="45.7490100" lon="10.0169300">
	<ele>706.80</ele>
	<time>2023-04-15T12:14:25.000Z</time>
</trkpt>
<trkpt lat="45.7490690" lon="10.0169440">
	<ele>706.40</ele>
	<time>2023-04-15T12:14:31.000Z</time>
</trkpt>
<trkpt lat="45.7491530" lon="10.0169520">
	<ele>706.40</ele>
	<time>2023-04-15T12:14:39.000Z</time>
</trkpt>
<trkpt lat="45.7491880" lon="10.0169640">
	<ele>705.60</ele>
	<time>2023-04-15T12:14:43.000Z</time>
</trkpt>
<trkpt lat="45.7492030" lon="10.0169820">
	<ele>705.40</ele>
	<time>2023-04-15T12:14:45.000Z</time>
</trkpt>
<trkpt lat="45.7492360" lon="10.0169980">
	<ele>704.60</ele>
	<time>2023-04-15T12:14:48.000Z</time>
</trkpt>
<trkpt lat="45.7492700" lon="10.0170200">
	<ele>704.20</ele>
	<time>2023-04-15T12:14:50.000Z</time>
</trkpt>
<trkpt lat="45.7493100" lon="10.0170430">
	<ele>703.40</ele>
	<time>2023-04-15T12:14:54.000Z</time>
</trkpt>
<trkpt lat="45.7493220" lon="10.0170510">
	<ele>703.00</ele>
	<time>2023-04-15T12:14:56.000Z</time>
</trkpt>
<trkpt lat="45.7493410" lon="10.0170630">
	<ele>702.20</ele>
	<time>2023-04-15T12:14:58.000Z</time>
</trkpt>
<trkpt lat="45.7493560" lon="10.0170710">
	<ele>701.20</ele>
	<time>2023-04-15T12:15:01.000Z</time>
</trkpt>
<trkpt lat="45.7493650" lon="10.0170750">
	<ele>700.80</ele>
	<time>2023-04-15T12:15:02.000Z</time>
</trkpt>
<trkpt lat="45.7493970" lon="10.0170770">
	<ele>700.20</ele>
	<time>2023-04-15T12:15:05.000Z</time>
</trkpt>
<trkpt lat="45.7494120" lon="10.0171010">
	<ele>699.80</ele>
	<time>2023-04-15T12:15:07.000Z</time>
</trkpt>
<trkpt lat="45.7494560" lon="10.0171200">
	<ele>699.00</ele>
	<time>2023-04-15T12:15:10.000Z</time>
</trkpt>
<trkpt lat="45.7495060" lon="10.0171350">
	<ele>698.20</ele>
	<time>2023-04-15T12:15:14.000Z</time>
</trkpt>
<trkpt lat="45.7495100" lon="10.0171350">
	<ele>698.00</ele>
	<time>2023-04-15T12:15:15.000Z</time>
</trkpt>
<trkpt lat="45.7495230" lon="10.0171280">
	<ele>697.40</ele>
	<time>2023-04-15T12:15:16.000Z</time>
</trkpt>
<trkpt lat="45.7495580" lon="10.0171520">
	<ele>696.40</ele>
	<time>2023-04-15T12:15:19.000Z</time>
</trkpt>
<trkpt lat="45.7495800" lon="10.0171590">
	<ele>696.00</ele>
	<time>2023-04-15T12:15:20.000Z</time>
</trkpt>
<trkpt lat="45.7496310" lon="10.0171830">
	<ele>695.20</ele>
	<time>2023-04-15T12:15:23.000Z</time>
</trkpt>
<trkpt lat="45.7496550" lon="10.0172030">
	<ele>694.40</ele>
	<time>2023-04-15T12:15:26.000Z</time>
</trkpt>
<trkpt lat="45.7496660" lon="10.0172090">
	<ele>694.20</ele>
	<time>2023-04-15T12:15:27.000Z</time>
</trkpt>
<trkpt lat="45.7496740" lon="10.0172180">
	<ele>693.80</ele>
	<time>2023-04-15T12:15:28.000Z</time>
</trkpt>
<trkpt lat="45.7497040" lon="10.0172240">
	<ele>693.20</ele>
	<time>2023-04-15T12:15:31.000Z</time>
</trkpt>
<trkpt lat="45.7497180" lon="10.0172320">
	<ele>692.80</ele>
	<time>2023-04-15T12:15:32.000Z</time>
</trkpt>
<trkpt lat="45.7497600" lon="10.0172410">
	<ele>691.60</ele>
	<time>2023-04-15T12:15:35.000Z</time>
</trkpt>
<trkpt lat="45.7498220" lon="10.0172370">
	<ele>690.60</ele>
	<time>2023-04-15T12:15:41.000Z</time>
</trkpt>
<trkpt lat="45.7498280" lon="10.0172410">
	<ele>690.20</ele>
	<time>2023-04-15T12:15:42.000Z</time>
</trkpt>
<trkpt lat="45.7498720" lon="10.0172600">
	<ele>689.40</ele>
	<time>2023-04-15T12:15:46.000Z</time>
</trkpt>
<trkpt lat="45.7498850" lon="10.0172830">
	<ele>688.20</ele>
	<time>2023-04-15T12:15:49.000Z</time>
</trkpt>
<trkpt lat="45.7499280" lon="10.0173060">
	<ele>687.00</ele>
	<time>2023-04-15T12:15:53.000Z</time>
</trkpt>
<trkpt lat="45.7499490" lon="10.0173180">
	<ele>685.80</ele>
	<time>2023-04-15T12:15:56.000Z</time>
</trkpt>
<trkpt lat="45.7499610" lon="10.0173270">
	<ele>685.20</ele>
	<time>2023-04-15T12:15:58.000Z</time>
</trkpt>
<trkpt lat="45.7499700" lon="10.0173360">
	<ele>684.60</ele>
	<time>2023-04-15T12:16:00.000Z</time>
</trkpt>
<trkpt lat="45.7499870" lon="10.0173530">
	<ele>683.60</ele>
	<time>2023-04-15T12:16:03.000Z</time>
</trkpt>
<trkpt lat="45.7500050" lon="10.0173630">
	<ele>682.80</ele>
	<time>2023-04-15T12:16:05.000Z</time>
</trkpt>
<trkpt lat="45.7500170" lon="10.0173650">
	<ele>682.40</ele>
	<time>2023-04-15T12:16:06.000Z</time>
</trkpt>
<trkpt lat="45.7500440" lon="10.0173850">
	<ele>681.00</ele>
	<time>2023-04-15T12:16:10.000Z</time>
</trkpt>
<trkpt lat="45.7500460" lon="10.0173960">
	<ele>680.60</ele>
	<time>2023-04-15T12:16:11.000Z</time>
</trkpt>
<trkpt lat="45.7500550" lon="10.0174060">
	<ele>680.20</ele>
	<time>2023-04-15T12:16:13.000Z</time>
</trkpt>
<trkpt lat="45.7500620" lon="10.0174130">
	<ele>679.80</ele>
	<time>2023-04-15T12:16:14.000Z</time>
</trkpt>
<trkpt lat="45.7500710" lon="10.0174210">
	<ele>679.40</ele>
	<time>2023-04-15T12:16:15.000Z</time>
</trkpt>
<trkpt lat="45.7500970" lon="10.0174290">
	<ele>678.60</ele>
	<time>2023-04-15T12:16:17.000Z</time>
</trkpt>
<trkpt lat="45.7501400" lon="10.0174260">
	<ele>677.20</ele>
	<time>2023-04-15T12:16:20.000Z</time>
</trkpt>
<trkpt lat="45.7501690" lon="10.0174300">
	<ele>676.60</ele>
	<time>2023-04-15T12:16:22.000Z</time>
</trkpt>
<trkpt lat="45.7501910" lon="10.0174420">
	<ele>676.00</ele>
	<time>2023-04-15T12:16:24.000Z</time>
</trkpt>
<trkpt lat="45.7501950" lon="10.0174660">
	<ele>675.80</ele>
	<time>2023-04-15T12:16:25.000Z</time>
</trkpt>
<trkpt lat="45.7502120" lon="10.0174910">
	<ele>675.40</ele>
	<time>2023-04-15T12:16:27.000Z</time>
</trkpt>
<trkpt lat="45.7502270" lon="10.0175060">
	<ele>674.80</ele>
	<time>2023-04-15T12:16:29.000Z</time>
</trkpt>
<trkpt lat="45.7502770" lon="10.0175270">
	<ele>673.60</ele>
	<time>2023-04-15T12:16:33.000Z</time>
</trkpt>
<trkpt lat="45.7502930" lon="10.0175350">
	<ele>673.20</ele>
	<time>2023-04-15T12:16:34.000Z</time>
</trkpt>
<trkpt lat="45.7503690" lon="10.0175630">
	<ele>672.40</ele>
	<time>2023-04-15T12:16:38.000Z</time>
</trkpt>
<trkpt lat="45.7504010" lon="10.0175570">
	<ele>672.00</ele>
	<time>2023-04-15T12:16:40.000Z</time>
</trkpt>
<trkpt lat="45.7504270" lon="10.0175710">
	<ele>671.40</ele>
	<time>2023-04-15T12:16:43.000Z</time>
</trkpt>
<trkpt lat="45.7505050" lon="10.0175730">
	<ele>670.20</ele>
	<time>2023-04-15T12:16:48.000Z</time>
</trkpt>
<trkpt lat="45.7505180" lon="10.0175680">
	<ele>670.00</ele>
	<time>2023-04-15T12:16:49.000Z</time>
</trkpt>
<trkpt lat="45.7505730" lon="10.0175610">
	<ele>669.20</ele>
	<time>2023-04-15T12:16:53.000Z</time>
</trkpt>
<trkpt lat="45.7506650" lon="10.0175700">
	<ele>667.80</ele>
	<time>2023-04-15T12:16:58.000Z</time>
</trkpt>
<trkpt lat="45.7506810" lon="10.0175870">
	<ele>667.40</ele>
	<time>2023-04-15T12:17:00.000Z</time>
</trkpt>
<trkpt lat="45.7506960" lon="10.0176050">
	<ele>666.60</ele>
	<time>2023-04-15T12:17:02.000Z</time>
</trkpt>
<trkpt lat="45.7507010" lon="10.0176190">
	<ele>666.40</ele>
	<time>2023-04-15T12:17:03.000Z</time>
</trkpt>
<trkpt lat="45.7507250" lon="10.0176550">
	<ele>665.60</ele>
	<time>2023-04-15T12:17:06.000Z</time>
</trkpt>
<trkpt lat="45.7507550" lon="10.0176540">
	<ele>665.20</ele>
	<time>2023-04-15T12:17:08.000Z</time>
</trkpt>
<trkpt lat="45.7507600" lon="10.0176590">
	<ele>664.40</ele>
	<time>2023-04-15T12:17:11.000Z</time>
</trkpt>
<trkpt lat="45.7507700" lon="10.0176600">
	<ele>664.20</ele>
	<time>2023-04-15T12:17:12.000Z</time>
</trkpt>
<trkpt lat="45.7508210" lon="10.0176550">
	<ele>663.40</ele>
	<time>2023-04-15T12:17:15.000Z</time>
</trkpt>
<trkpt lat="45.7508660" lon="10.0176750">
	<ele>662.60</ele>
	<time>2023-04-15T12:17:18.000Z</time>
</trkpt>
<trkpt lat="45.7508860" lon="10.0177090">
	<ele>662.20</ele>
	<time>2023-04-15T12:17:20.000Z</time>
</trkpt>
<trkpt lat="45.7509120" lon="10.0177010">
	<ele>661.80</ele>
	<time>2023-04-15T12:17:21.000Z</time>
</trkpt>
<trkpt lat="45.7509500" lon="10.0177090">
	<ele>661.40</ele>
	<time>2023-04-15T12:17:23.000Z</time>
</trkpt>
<trkpt lat="45.7509670" lon="10.0177110">
	<ele>661.20</ele>
	<time>2023-04-15T12:17:25.000Z</time>
</trkpt>
<trkpt lat="45.7510130" lon="10.0176900">
	<ele>660.40</ele>
	<time>2023-04-15T12:17:28.000Z</time>
</trkpt>
<trkpt lat="45.7510190" lon="10.0176890">
	<ele>660.20</ele>
	<time>2023-04-15T12:17:29.000Z</time>
</trkpt>
<trkpt lat="45.7510770" lon="10.0176760">
	<ele>658.80</ele>
	<time>2023-04-15T12:17:34.000Z</time>
</trkpt>
<trkpt lat="45.7510830" lon="10.0176800">
	<ele>658.60</ele>
	<time>2023-04-15T12:17:35.000Z</time>
</trkpt>
<trkpt lat="45.7511110" lon="10.0176670">
	<ele>657.80</ele>
	<time>2023-04-15T12:17:40.000Z</time>
</trkpt>
<trkpt lat="45.7511220" lon="10.0176780">
	<ele>657.60</ele>
	<time>2023-04-15T12:17:41.000Z</time>
</trkpt>
<trkpt lat="45.7511970" lon="10.0176510">
	<ele>656.60</ele>
	<time>2023-04-15T12:17:46.000Z</time>
</trkpt>
<trkpt lat="45.7512230" lon="10.0176430">
	<ele>656.00</ele>
	<time>2023-04-15T12:17:48.000Z</time>
</trkpt>
<trkpt lat="45.7512340" lon="10.0176410">
	<ele>655.80</ele>
	<time>2023-04-15T12:17:49.000Z</time>
</trkpt>
<trkpt lat="45.7512590" lon="10.0176420">
	<ele>655.60</ele>
	<time>2023-04-15T12:17:51.000Z</time>
</trkpt>
<trkpt lat="45.7512850" lon="10.0176320">
	<ele>655.60</ele>
	<time>2023-04-15T12:17:54.000Z</time>
</trkpt>
<trkpt lat="45.7513170" lon="10.0176240">
	<ele>655.00</ele>
	<time>2023-04-15T12:17:57.000Z</time>
</trkpt>
<trkpt lat="45.7513260" lon="10.0176160">
	<ele>654.80</ele>
	<time>2023-04-15T12:17:58.000Z</time>
</trkpt>
<trkpt lat="45.7513460" lon="10.0176000">
	<ele>654.60</ele>
	<time>2023-04-15T12:17:59.000Z</time>
</trkpt>
<trkpt lat="45.7513520" lon="10.0175950">
	<ele>654.40</ele>
	<time>2023-04-15T12:18:00.000Z</time>
</trkpt>
<trkpt lat="45.7513830" lon="10.0176020">
	<ele>654.00</ele>
	<time>2023-04-15T12:18:02.000Z</time>
</trkpt>
<trkpt lat="45.7514390" lon="10.0175760">
	<ele>653.40</ele>
	<time>2023-04-15T12:18:05.000Z</time>
</trkpt>
<trkpt lat="45.7514540" lon="10.0175580">
	<ele>653.20</ele>
	<time>2023-04-15T12:18:06.000Z</time>
</trkpt>
<trkpt lat="45.7514930" lon="10.0175180">
	<ele>653.00</ele>
	<time>2023-04-15T12:18:08.000Z</time>
</trkpt>
<trkpt lat="45.7515610" lon="10.0174800">
	<ele>652.20</ele>
	<time>2023-04-15T12:18:13.000Z</time>
</trkpt>
<trkpt lat="45.7516820" lon="10.0174100">
	<ele>651.20</ele>
	<time>2023-04-15T12:18:20.000Z</time>
</trkpt>
<trkpt lat="45.7516950" lon="10.0173760">
	<ele>651.20</ele>
	<time>2023-04-15T12:18:21.000Z</time>
</trkpt>
<trkpt lat="45.7517520" lon="10.0173350">
	<ele>650.80</ele>
	<time>2023-04-15T12:18:26.000Z</time>
</trkpt>
<trkpt lat="45.7517590" lon="10.0173050">
	<ele>650.60</ele>
	<time>2023-04-15T12:18:28.000Z</time>
</trkpt>
<trkpt lat="45.7517670" lon="10.0172790">
	<ele>650.00</ele>
	<time>2023-04-15T12:18:30.000Z</time>
</trkpt>
<trkpt lat="45.7518220" lon="10.0171950">
	<ele>649.20</ele>
	<time>2023-04-15T12:18:34.000Z</time>
</trkpt>
<trkpt lat="45.7518200" lon="10.0171770">
	<ele>649.20</ele>
	<time>2023-04-15T12:18:35.000Z</time>
</trkpt>
<trkpt lat="45.7518420" lon="10.0171410">
	<ele>649.20</ele>
	<time>2023-04-15T12:18:37.000Z</time>
</trkpt>
<trkpt lat="45.7518400" lon="10.0171200">
	<ele>649.00</ele>
	<time>2023-04-15T12:18:38.000Z</time>
</trkpt>
<trkpt lat="45.7518270" lon="10.0170980">
	<ele>648.80</ele>
	<time>2023-04-15T12:18:39.000Z</time>
</trkpt>
<trkpt lat="45.7518150" lon="10.0170710">
	<ele>648.60</ele>
	<time>2023-04-15T12:18:41.000Z</time>
</trkpt>
<trkpt lat="45.7518280" lon="10.0170520">
	<ele>648.40</ele>
	<time>2023-04-15T12:18:43.000Z</time>
</trkpt>
<trkpt lat="45.7518290" lon="10.0170370">
	<ele>648.00</ele>
	<time>2023-04-15T12:18:44.000Z</time>
</trkpt>
<trkpt lat="45.7518310" lon="10.0170170">
	<ele>647.60</ele>
	<time>2023-04-15T12:18:45.000Z</time>
</trkpt>
<trkpt lat="45.7518280" lon="10.0169950">
	<ele>647.40</ele>
	<time>2023-04-15T12:18:46.000Z</time>
</trkpt>
<trkpt lat="45.7518500" lon="10.0169330">
	<ele>647.00</ele>
	<time>2023-04-15T12:18:50.000Z</time>
</trkpt>
<trkpt lat="45.7518780" lon="10.0168770">
	<ele>646.60</ele>
	<time>2023-04-15T12:18:55.000Z</time>
</trkpt>
<trkpt lat="45.7518800" lon="10.0167370">
	<ele>645.80</ele>
	<time>2023-04-15T12:19:00.000Z</time>
</trkpt>
<trkpt lat="45.7518630" lon="10.0167370">
	<ele>645.60</ele>
	<time>2023-04-15T12:19:01.000Z</time>
</trkpt>
<trkpt lat="45.7518500" lon="10.0167280">
	<ele>645.40</ele>
	<time>2023-04-15T12:19:02.000Z</time>
</trkpt>
<trkpt lat="45.7518740" lon="10.0166940">
	<ele>645.00</ele>
	<time>2023-04-15T12:19:05.000Z</time>
</trkpt>
<trkpt lat="45.7518970" lon="10.0166880">
	<ele>644.80</ele>
	<time>2023-04-15T12:19:06.000Z</time>
</trkpt>
<trkpt lat="45.7519170" lon="10.0166600">
	<ele>644.20</ele>
	<time>2023-04-15T12:19:08.000Z</time>
</trkpt>
<trkpt lat="45.7519250" lon="10.0166330">
	<ele>643.60</ele>
	<time>2023-04-15T12:19:10.000Z</time>
</trkpt>
<trkpt lat="45.7519400" lon="10.0166110">
	<ele>643.20</ele>
	<time>2023-04-15T12:19:12.000Z</time>
</trkpt>
<trkpt lat="45.7519460" lon="10.0166080">
	<ele>643.00</ele>
	<time>2023-04-15T12:19:13.000Z</time>
</trkpt>
<trkpt lat="45.7519920" lon="10.0165780">
	<ele>642.20</ele>
	<time>2023-04-15T12:19:17.000Z</time>
</trkpt>
<trkpt lat="45.7520000" lon="10.0165680">
	<ele>642.00</ele>
	<time>2023-04-15T12:19:18.000Z</time>
</trkpt>
<trkpt lat="45.7520140" lon="10.0165410">
	<ele>641.60</ele>
	<time>2023-04-15T12:19:20.000Z</time>
</trkpt>
<trkpt lat="45.7520220" lon="10.0165280">
	<ele>641.20</ele>
	<time>2023-04-15T12:19:21.000Z</time>
</trkpt>
<trkpt lat="45.7520370" lon="10.0164990">
	<ele>641.00</ele>
	<time>2023-04-15T12:19:23.000Z</time>
</trkpt>
<trkpt lat="45.7520470" lon="10.0164650">
	<ele>640.60</ele>
	<time>2023-04-15T12:19:25.000Z</time>
</trkpt>
<trkpt lat="45.7520560" lon="10.0164430">
	<ele>640.20</ele>
	<time>2023-04-15T12:19:26.000Z</time>
</trkpt>
<trkpt lat="45.7520580" lon="10.0164210">
	<ele>639.80</ele>
	<time>2023-04-15T12:19:27.000Z</time>
</trkpt>
<trkpt lat="45.7520610" lon="10.0163870">
	<ele>639.40</ele>
	<time>2023-04-15T12:19:29.000Z</time>
</trkpt>
<trkpt lat="45.7520870" lon="10.0163630">
	<ele>638.80</ele>
	<time>2023-04-15T12:19:31.000Z</time>
</trkpt>
<trkpt lat="45.7520990" lon="10.0163550">
	<ele>638.60</ele>
	<time>2023-04-15T12:19:32.000Z</time>
</trkpt>
<trkpt lat="45.7521360" lon="10.0163010">
	<ele>637.80</ele>
	<time>2023-04-15T12:19:36.000Z</time>
</trkpt>
<trkpt lat="45.7521120" lon="10.0162550">
	<ele>636.80</ele>
	<time>2023-04-15T12:19:40.000Z</time>
</trkpt>
<trkpt lat="45.7521190" lon="10.0162380">
	<ele>636.60</ele>
	<time>2023-04-15T12:19:41.000Z</time>
</trkpt>
<trkpt lat="45.7521360" lon="10.0162310">
	<ele>636.40</ele>
	<time>2023-04-15T12:19:42.000Z</time>
</trkpt>
<trkpt lat="45.7521650" lon="10.0162130">
	<ele>635.40</ele>
	<time>2023-04-15T12:19:45.000Z</time>
</trkpt>
<trkpt lat="45.7521740" lon="10.0161980">
	<ele>635.20</ele>
	<time>2023-04-15T12:19:46.000Z</time>
</trkpt>
<trkpt lat="45.7521740" lon="10.0161840">
	<ele>635.00</ele>
	<time>2023-04-15T12:19:47.000Z</time>
</trkpt>
<trkpt lat="45.7521770" lon="10.0161620">
	<ele>634.60</ele>
	<time>2023-04-15T12:19:49.000Z</time>
</trkpt>
<trkpt lat="45.7521710" lon="10.0161510">
	<ele>634.20</ele>
	<time>2023-04-15T12:19:50.000Z</time>
</trkpt>
<trkpt lat="45.7521630" lon="10.0161340">
	<ele>634.00</ele>
	<time>2023-04-15T12:19:51.000Z</time>
</trkpt>
<trkpt lat="45.7521670" lon="10.0160630">
	<ele>633.00</ele>
	<time>2023-04-15T12:19:56.000Z</time>
</trkpt>
<trkpt lat="45.7521560" lon="10.0160270">
	<ele>632.60</ele>
	<time>2023-04-15T12:19:58.000Z</time>
</trkpt>
<trkpt lat="45.7521620" lon="10.0159830">
	<ele>632.20</ele>
	<time>2023-04-15T12:20:00.000Z</time>
</trkpt>
<trkpt lat="45.7521650" lon="10.0159770">
	<ele>632.00</ele>
	<time>2023-04-15T12:20:01.000Z</time>
</trkpt>
<trkpt lat="45.7521750" lon="10.0159310">
	<ele>631.00</ele>
	<time>2023-04-15T12:20:05.000Z</time>
</trkpt>
<trkpt lat="45.7521870" lon="10.0159170">
	<ele>630.40</ele>
	<time>2023-04-15T12:20:07.000Z</time>
</trkpt>
<trkpt lat="45.7522070" lon="10.0158900">
	<ele>629.80</ele>
	<time>2023-04-15T12:20:10.000Z</time>
</trkpt>
<trkpt lat="45.7522070" lon="10.0158210">
	<ele>629.00</ele>
	<time>2023-04-15T12:20:13.000Z</time>
</trkpt>
<trkpt lat="45.7522140" lon="10.0158050">
	<ele>628.80</ele>
	<time>2023-04-15T12:20:14.000Z</time>
</trkpt>
<trkpt lat="45.7522420" lon="10.0157350">
	<ele>627.60</ele>
	<time>2023-04-15T12:20:19.000Z</time>
</trkpt>
<trkpt lat="45.7522560" lon="10.0157270">
	<ele>627.20</ele>
	<time>2023-04-15T12:20:20.000Z</time>
</trkpt>
<trkpt lat="45.7522870" lon="10.0156930">
	<ele>626.60</ele>
	<time>2023-04-15T12:20:23.000Z</time>
</trkpt>
<trkpt lat="45.7522860" lon="10.0156680">
	<ele>626.20</ele>
	<time>2023-04-15T12:20:25.000Z</time>
</trkpt>
<trkpt lat="45.7522870" lon="10.0156510">
	<ele>625.80</ele>
	<time>2023-04-15T12:20:26.000Z</time>
</trkpt>
<trkpt lat="45.7522910" lon="10.0156360">
	<ele>625.80</ele>
	<time>2023-04-15T12:20:27.000Z</time>
</trkpt>
<trkpt lat="45.7522890" lon="10.0156110">
	<ele>625.40</ele>
	<time>2023-04-15T12:20:29.000Z</time>
</trkpt>
<trkpt lat="45.7522750" lon="10.0155940">
	<ele>625.00</ele>
	<time>2023-04-15T12:20:30.000Z</time>
</trkpt>
<trkpt lat="45.7522720" lon="10.0155890">
	<ele>624.60</ele>
	<time>2023-04-15T12:20:31.000Z</time>
</trkpt>
<trkpt lat="45.7522780" lon="10.0155820">
	<ele>624.40</ele>
	<time>2023-04-15T12:20:32.000Z</time>
</trkpt>
<trkpt lat="45.7522810" lon="10.0155730">
	<ele>624.20</ele>
	<time>2023-04-15T12:20:33.000Z</time>
</trkpt>
<trkpt lat="45.7522950" lon="10.0155660">
	<ele>624.00</ele>
	<time>2023-04-15T12:20:34.000Z</time>
</trkpt>
<trkpt lat="45.7523120" lon="10.0155220">
	<ele>623.60</ele>
	<time>2023-04-15T12:20:36.000Z</time>
</trkpt>
<trkpt lat="45.7523200" lon="10.0154970">
	<ele>623.00</ele>
	<time>2023-04-15T12:20:38.000Z</time>
</trkpt>
<trkpt lat="45.7523290" lon="10.0154790">
	<ele>622.80</ele>
	<time>2023-04-15T12:20:39.000Z</time>
</trkpt>
<trkpt lat="45.7523360" lon="10.0154410">
	<ele>622.40</ele>
	<time>2023-04-15T12:20:41.000Z</time>
</trkpt>
<trkpt lat="45.7523300" lon="10.0154200">
	<ele>621.80</ele>
	<time>2023-04-15T12:20:43.000Z</time>
</trkpt>
<trkpt lat="45.7523270" lon="10.0154070">
	<ele>621.20</ele>
	<time>2023-04-15T12:20:45.000Z</time>
</trkpt>
<trkpt lat="45.7523120" lon="10.0153900">
	<ele>620.80</ele>
	<time>2023-04-15T12:20:48.000Z</time>
</trkpt>
<trkpt lat="45.7523140" lon="10.0153460">
	<ele>619.60</ele>
	<time>2023-04-15T12:20:51.000Z</time>
</trkpt>
<trkpt lat="45.7523170" lon="10.0153200">
	<ele>619.40</ele>
	<time>2023-04-15T12:20:52.000Z</time>
</trkpt>
<trkpt lat="45.7523060" lon="10.0152540">
	<ele>618.20</ele>
	<time>2023-04-15T12:20:55.000Z</time>
</trkpt>
<trkpt lat="45.7523110" lon="10.0151830">
	<ele>617.20</ele>
	<time>2023-04-15T12:20:58.000Z</time>
</trkpt>
<trkpt lat="45.7523090" lon="10.0151720">
	<ele>617.00</ele>
	<time>2023-04-15T12:20:59.000Z</time>
</trkpt>
<trkpt lat="45.7523180" lon="10.0151350">
	<ele>616.00</ele>
	<time>2023-04-15T12:21:02.000Z</time>
</trkpt>
<trkpt lat="45.7523390" lon="10.0151040">
	<ele>615.40</ele>
	<time>2023-04-15T12:21:04.000Z</time>
</trkpt>
<trkpt lat="45.7523690" lon="10.0150540">
	<ele>615.00</ele>
	<time>2023-04-15T12:21:06.000Z</time>
</trkpt>
<trkpt lat="45.7523780" lon="10.0149880">
	<ele>614.00</ele>
	<time>2023-04-15T12:21:11.000Z</time>
</trkpt>
<trkpt lat="45.7523550" lon="10.0149840">
	<ele>613.80</ele>
	<time>2023-04-15T12:21:12.000Z</time>
</trkpt>
<trkpt lat="45.7523820" lon="10.0149730">
	<ele>613.40</ele>
	<time>2023-04-15T12:21:15.000Z</time>
</trkpt>
<trkpt lat="45.7524020" lon="10.0149650">
	<ele>613.20</ele>
	<time>2023-04-15T12:21:16.000Z</time>
</trkpt>
<trkpt lat="45.7524430" lon="10.0149630">
	<ele>612.80</ele>
	<time>2023-04-15T12:21:18.000Z</time>
</trkpt>
<trkpt lat="45.7524790" lon="10.0149630">
	<ele>612.20</ele>
	<time>2023-04-15T12:21:23.000Z</time>
</trkpt>
<trkpt lat="45.7525260" lon="10.0149510">
	<ele>611.80</ele>
	<time>2023-04-15T12:21:28.000Z</time>
</trkpt>
<trkpt lat="45.7525540" lon="10.0149290">
	<ele>611.80</ele>
	<time>2023-04-15T12:21:29.000Z</time>
</trkpt>
<trkpt lat="45.7525990" lon="10.0149150">
	<ele>611.60</ele>
	<time>2023-04-15T12:21:31.000Z</time>
</trkpt>
<trkpt lat="45.7526860" lon="10.0148880">
	<ele>610.60</ele>
	<time>2023-04-15T12:21:37.000Z</time>
</trkpt>
<trkpt lat="45.7527020" lon="10.0148790">
	<ele>610.40</ele>
	<time>2023-04-15T12:21:38.000Z</time>
</trkpt>
<trkpt lat="45.7527210" lon="10.0148460">
	<ele>610.00</ele>
	<time>2023-04-15T12:21:40.000Z</time>
</trkpt>
<trkpt lat="45.7527450" lon="10.0148000">
	<ele>609.80</ele>
	<time>2023-04-15T12:21:43.000Z</time>
</trkpt>
<trkpt lat="45.7527500" lon="10.0147770">
	<ele>609.20</ele>
	<time>2023-04-15T12:21:44.000Z</time>
</trkpt>
<trkpt lat="45.7527450" lon="10.0147040">
	<ele>608.40</ele>
	<time>2023-04-15T12:21:48.000Z</time>
</trkpt>
<trkpt lat="45.7527400" lon="10.0146980">
	<ele>608.20</ele>
	<time>2023-04-15T12:21:49.000Z</time>
</trkpt>
<trkpt lat="45.7527320" lon="10.0146330">
	<ele>607.00</ele>
	<time>2023-04-15T12:21:54.000Z</time>
</trkpt>
<trkpt lat="45.7527180" lon="10.0145540">
	<ele>606.00</ele>
	<time>2023-04-15T12:21:58.000Z</time>
</trkpt>
<trkpt lat="45.7527230" lon="10.0145280">
	<ele>606.00</ele>
	<time>2023-04-15T12:21:59.000Z</time>
</trkpt>
<trkpt lat="45.7527220" lon="10.0145190">
	<ele>605.80</ele>
	<time>2023-04-15T12:22:00.000Z</time>
</trkpt>
<trkpt lat="45.7527390" lon="10.0144750">
	<ele>604.80</ele>
	<time>2023-04-15T12:22:04.000Z</time>
</trkpt>
<trkpt lat="45.7527500" lon="10.0144530">
	<ele>604.80</ele>
	<time>2023-04-15T12:22:05.000Z</time>
</trkpt>
<trkpt lat="45.7527500" lon="10.0143730">
	<ele>604.00</ele>
	<time>2023-04-15T12:22:09.000Z</time>
</trkpt>
<trkpt lat="45.7527540" lon="10.0143620">
	<ele>603.80</ele>
	<time>2023-04-15T12:22:11.000Z</time>
</trkpt>
<trkpt lat="45.7527670" lon="10.0143540">
	<ele>603.60</ele>
	<time>2023-04-15T12:22:12.000Z</time>
</trkpt>
<trkpt lat="45.7527650" lon="10.0143050">
	<ele>603.20</ele>
	<time>2023-04-15T12:22:15.000Z</time>
</trkpt>
<trkpt lat="45.7527780" lon="10.0142860">
	<ele>602.60</ele>
	<time>2023-04-15T12:22:16.000Z</time>
</trkpt>
<trkpt lat="45.7527870" lon="10.0142530">
	<ele>602.20</ele>
	<time>2023-04-15T12:22:18.000Z</time>
</trkpt>
<trkpt lat="45.7527930" lon="10.0141950">
	<ele>601.60</ele>
	<time>2023-04-15T12:22:21.000Z</time>
</trkpt>
<trkpt lat="45.7527910" lon="10.0141730">
	<ele>601.20</ele>
	<time>2023-04-15T12:22:22.000Z</time>
</trkpt>
<trkpt lat="45.7528030" lon="10.0141020">
	<ele>600.60</ele>
	<time>2023-04-15T12:22:25.000Z</time>
</trkpt>
<trkpt lat="45.7527650" lon="10.0140050">
	<ele>599.80</ele>
	<time>2023-04-15T12:22:30.000Z</time>
</trkpt>
<trkpt lat="45.7527630" lon="10.0139840">
	<ele>599.60</ele>
	<time>2023-04-15T12:22:31.000Z</time>
</trkpt>
<trkpt lat="45.7527510" lon="10.0139670">
	<ele>599.20</ele>
	<time>2023-04-15T12:22:32.000Z</time>
</trkpt>
<trkpt lat="45.7527230" lon="10.0138910">
	<ele>598.60</ele>
	<time>2023-04-15T12:22:35.000Z</time>
</trkpt>
<trkpt lat="45.7527310" lon="10.0138690">
	<ele>598.40</ele>
	<time>2023-04-15T12:22:36.000Z</time>
</trkpt>
<trkpt lat="45.7527360" lon="10.0138480">
	<ele>598.20</ele>
	<time>2023-04-15T12:22:37.000Z</time>
</trkpt>
<trkpt lat="45.7527550" lon="10.0137830">
	<ele>597.60</ele>
	<time>2023-04-15T12:22:40.000Z</time>
</trkpt>
<trkpt lat="45.7527800" lon="10.0137750">
	<ele>597.40</ele>
	<time>2023-04-15T12:22:41.000Z</time>
</trkpt>
<trkpt lat="45.7527970" lon="10.0137430">
	<ele>596.60</ele>
	<time>2023-04-15T12:22:45.000Z</time>
</trkpt>
<trkpt lat="45.7528170" lon="10.0137260">
	<ele>596.20</ele>
	<time>2023-04-15T12:22:47.000Z</time>
</trkpt>
<trkpt lat="45.7528630" lon="10.0137110">
	<ele>595.00</ele>
	<time>2023-04-15T12:22:50.000Z</time>
</trkpt>
<trkpt lat="45.7528660" lon="10.0136990">
	<ele>594.80</ele>
	<time>2023-04-15T12:22:51.000Z</time>
</trkpt>
<trkpt lat="45.7528820" lon="10.0136740">
	<ele>593.80</ele>
	<time>2023-04-15T12:22:53.000Z</time>
</trkpt>
<trkpt lat="45.7529380" lon="10.0136310">
	<ele>592.80</ele>
	<time>2023-04-15T12:22:58.000Z</time>
</trkpt>
<trkpt lat="45.7529790" lon="10.0136040">
	<ele>591.60</ele>
	<time>2023-04-15T12:23:01.000Z</time>
</trkpt>
<trkpt lat="45.7530200" lon="10.0135780">
	<ele>590.60</ele>
	<time>2023-04-15T12:23:06.000Z</time>
</trkpt>
<trkpt lat="45.7530330" lon="10.0135720">
	<ele>590.20</ele>
	<time>2023-04-15T12:23:08.000Z</time>
</trkpt>
<trkpt lat="45.7530570" lon="10.0135490">
	<ele>589.80</ele>
	<time>2023-04-15T12:23:11.000Z</time>
</trkpt>
<trkpt lat="45.7530670" lon="10.0135340">
	<ele>589.60</ele>
	<time>2023-04-15T12:23:13.000Z</time>
</trkpt>
<trkpt lat="45.7530830" lon="10.0135180">
	<ele>589.40</ele>
	<time>2023-04-15T12:23:14.000Z</time>
</trkpt>
<trkpt lat="45.7530980" lon="10.0135020">
	<ele>589.20</ele>
	<time>2023-04-15T12:23:15.000Z</time>
</trkpt>
<trkpt lat="45.7531060" lon="10.0134760">
	<ele>589.20</ele>
	<time>2023-04-15T12:23:17.000Z</time>
</trkpt>
<trkpt lat="45.7531220" lon="10.0134470">
	<ele>589.00</ele>
	<time>2023-04-15T12:23:19.000Z</time>
</trkpt>
<trkpt lat="45.7531780" lon="10.0133880">
	<ele>589.20</ele>
	<time>2023-04-15T12:23:23.000Z</time>
</trkpt>
<trkpt lat="45.7531930" lon="10.0133080">
	<ele>589.20</ele>
	<time>2023-04-15T12:23:25.000Z</time>
</trkpt>
<trkpt lat="45.7531740" lon="10.0132620">
	<ele>589.00</ele>
	<time>2023-04-15T12:23:27.000Z</time>
</trkpt>
<trkpt lat="45.7531670" lon="10.0132510">
	<ele>589.00</ele>
	<time>2023-04-15T12:23:28.000Z</time>
</trkpt>
<trkpt lat="45.7531580" lon="10.0132330">
	<ele>588.80</ele>
	<time>2023-04-15T12:23:29.000Z</time>
</trkpt>
<trkpt lat="45.7531470" lon="10.0131750">
	<ele>588.40</ele>
	<time>2023-04-15T12:23:32.000Z</time>
</trkpt>
<trkpt lat="45.7531440" lon="10.0131440">
	<ele>588.20</ele>
	<time>2023-04-15T12:23:34.000Z</time>
</trkpt>
<trkpt lat="45.7531340" lon="10.0131040">
	<ele>588.00</ele>
	<time>2023-04-15T12:23:36.000Z</time>
</trkpt>
<trkpt lat="45.7531480" lon="10.0130720">
	<ele>587.80</ele>
	<time>2023-04-15T12:23:38.000Z</time>
</trkpt>
<trkpt lat="45.7531610" lon="10.0130580">
	<ele>587.80</ele>
	<time>2023-04-15T12:23:39.000Z</time>
</trkpt>
<trkpt lat="45.7531650" lon="10.0130320">
	<ele>587.60</ele>
	<time>2023-04-15T12:23:40.000Z</time>
</trkpt>
<trkpt lat="45.7531570" lon="10.0129810">
	<ele>587.20</ele>
	<time>2023-04-15T12:23:42.000Z</time>
</trkpt>
<trkpt lat="45.7531860" lon="10.0129130">
	<ele>586.00</ele>
	<time>2023-04-15T12:23:46.000Z</time>
</trkpt>
<trkpt lat="45.7531750" lon="10.0128690">
	<ele>585.20</ele>
	<time>2023-04-15T12:23:50.000Z</time>
</trkpt>
<trkpt lat="45.7531810" lon="10.0128400">
	<ele>584.80</ele>
	<time>2023-04-15T12:23:52.000Z</time>
</trkpt>
<trkpt lat="45.7532070" lon="10.0127380">
	<ele>583.80</ele>
	<time>2023-04-15T12:23:56.000Z</time>
</trkpt>
<trkpt lat="45.7531780" lon="10.0127220">
	<ele>583.80</ele>
	<time>2023-04-15T12:23:57.000Z</time>
</trkpt>
<trkpt lat="45.7531650" lon="10.0126090">
	<ele>583.00</ele>
	<time>2023-04-15T12:24:04.000Z</time>
</trkpt>
<trkpt lat="45.7531690" lon="10.0126000">
	<ele>582.80</ele>
	<time>2023-04-15T12:24:05.000Z</time>
</trkpt>
<trkpt lat="45.7531580" lon="10.0125510">
	<ele>582.40</ele>
	<time>2023-04-15T12:24:08.000Z</time>
</trkpt>
<trkpt lat="45.7531650" lon="10.0125140">
	<ele>582.00</ele>
	<time>2023-04-15T12:24:10.000Z</time>
</trkpt>
<trkpt lat="45.7531630" lon="10.0124660">
	<ele>581.60</ele>
	<time>2023-04-15T12:24:12.000Z</time>
</trkpt>
<trkpt lat="45.7532250" lon="10.0123830">
	<ele>581.00</ele>
	<time>2023-04-15T12:24:16.000Z</time>
</trkpt>
<trkpt lat="45.7532010" lon="10.0123000">
	<ele>580.80</ele>
	<time>2023-04-15T12:24:21.000Z</time>
</trkpt>
<trkpt lat="45.7532090" lon="10.0122880">
	<ele>580.60</ele>
	<time>2023-04-15T12:24:22.000Z</time>
</trkpt>
<trkpt lat="45.7532200" lon="10.0122530">
	<ele>580.00</ele>
	<time>2023-04-15T12:24:26.000Z</time>
</trkpt>
<trkpt lat="45.7532330" lon="10.0122410">
	<ele>579.80</ele>
	<time>2023-04-15T12:24:27.000Z</time>
</trkpt>
<trkpt lat="45.7532650" lon="10.0122270">
	<ele>579.60</ele>
	<time>2023-04-15T12:24:32.000Z</time>
</trkpt>
<trkpt lat="45.7532950" lon="10.0122270">
	<ele>579.60</ele>
	<time>2023-04-15T12:24:37.000Z</time>
</trkpt>
<trkpt lat="45.7533060" lon="10.0122350">
	<ele>579.60</ele>
	<time>2023-04-15T12:24:40.000Z</time>
</trkpt>
<trkpt lat="45.7532910" lon="10.0122610">
	<ele>579.80</ele>
	<time>2023-04-15T12:24:43.000Z</time>
</trkpt>
<trkpt lat="45.7532910" lon="10.0122620">
	<ele>579.80</ele>
	<time>2023-04-15T12:24:45.000Z</time>
</trkpt>
<trkpt lat="45.7533060" lon="10.0122710">
	<ele>579.80</ele>
	<time>2023-04-15T12:24:48.000Z</time>
</trkpt>
<trkpt lat="45.7533350" lon="10.0122820">
	<ele>580.00</ele>
	<time>2023-04-15T12:24:52.000Z</time>
</trkpt>
<trkpt lat="45.7533410" lon="10.0122900">
	<ele>580.00</ele>
	<time>2023-04-15T12:24:53.000Z</time>
</trkpt>
<trkpt lat="45.7533470" lon="10.0123170">
	<ele>580.00</ele>
	<time>2023-04-15T12:24:55.000Z</time>
</trkpt>
<trkpt lat="45.7533410" lon="10.0123380">
	<ele>580.20</ele>
	<time>2023-04-15T12:24:57.000Z</time>
</trkpt>
<trkpt lat="45.7533430" lon="10.0123600">
	<ele>580.40</ele>
	<time>2023-04-15T12:24:59.000Z</time>
</trkpt>
<trkpt lat="45.7533520" lon="10.0123860">
	<ele>580.60</ele>
	<time>2023-04-15T12:25:01.000Z</time>
</trkpt>
<trkpt lat="45.7533480" lon="10.0124100">
	<ele>580.80</ele>
	<time>2023-04-15T12:25:02.000Z</time>
</trkpt>
<trkpt lat="45.7533410" lon="10.0124510">
	<ele>581.40</ele>
	<time>2023-04-15T12:25:04.000Z</time>
</trkpt>
<trkpt lat="45.7533410" lon="10.0124720">
	<ele>581.60</ele>
	<time>2023-04-15T12:25:06.000Z</time>
</trkpt>
<trkpt lat="45.7533430" lon="10.0124980">
	<ele>581.60</ele>
	<time>2023-04-15T12:25:08.000Z</time>
</trkpt>
<trkpt lat="45.7533440" lon="10.0125020">
	<ele>582.00</ele>
	<time>2023-04-15T12:25:09.000Z</time>
</trkpt>
<trkpt lat="45.7533440" lon="10.0125470">
	<ele>582.40</ele>
	<time>2023-04-15T12:25:13.000Z</time>
</trkpt>
<trkpt lat="45.7533370" lon="10.0125560">
	<ele>582.40</ele>
	<time>2023-04-15T12:25:14.000Z</time>
</trkpt>
<trkpt lat="45.7533040" lon="10.0125870">
	<ele>582.60</ele>
	<time>2023-04-15T12:25:17.000Z</time>
</trkpt>
<trkpt lat="45.7532750" lon="10.0126260">
	<ele>582.80</ele>
	<time>2023-04-15T12:25:22.000Z</time>
</trkpt>
<trkpt lat="45.7532430" lon="10.0126560">
	<ele>582.80</ele>
	<time>2023-04-15T12:25:24.000Z</time>
</trkpt>
<trkpt lat="45.7532380" lon="10.0126350">
	<ele>582.60</ele>
	<time>2023-04-15T12:25:28.000Z</time>
</trkpt>
<trkpt lat="45.7532330" lon="10.0126380">
	<ele>582.60</ele>
	<time>2023-04-15T12:25:29.000Z</time>
</trkpt>
<trkpt lat="45.7532240" lon="10.0126460">
	<ele>582.60</ele>
	<time>2023-04-15T12:25:30.000Z</time>
</trkpt>
<trkpt lat="45.7532300" lon="10.0126770">
	<ele>582.60</ele>
	<time>2023-04-15T12:25:33.000Z</time>
</trkpt>
<trkpt lat="45.7532340" lon="10.0126960">
	<ele>582.80</ele>
	<time>2023-04-15T12:25:35.000Z</time>
</trkpt>
<trkpt lat="45.7532330" lon="10.0127040">
	<ele>583.00</ele>
	<time>2023-04-15T12:25:36.000Z</time>
</trkpt>
<trkpt lat="45.7532360" lon="10.0127110">
	<ele>583.20</ele>
	<time>2023-04-15T12:25:37.000Z</time>
</trkpt>
<trkpt lat="45.7532390" lon="10.0127190">
	<ele>583.40</ele>
	<time>2023-04-15T12:25:38.000Z</time>
</trkpt>
<trkpt lat="45.7532500" lon="10.0127330">
	<ele>584.00</ele>
	<time>2023-04-15T12:25:40.000Z</time>
</trkpt>
<trkpt lat="45.7532700" lon="10.0127360">
	<ele>584.20</ele>
	<time>2023-04-15T12:25:42.000Z</time>
</trkpt>
<trkpt lat="45.7532940" lon="10.0127630">
	<ele>584.80</ele>
	<time>2023-04-15T12:25:45.000Z</time>
</trkpt>
<trkpt lat="45.7533010" lon="10.0127830">
	<ele>585.20</ele>
	<time>2023-04-15T12:25:46.000Z</time>
</trkpt>
<trkpt lat="45.7533080" lon="10.0127990">
	<ele>585.40</ele>
	<time>2023-04-15T12:25:47.000Z</time>
</trkpt>
<trkpt lat="45.7533150" lon="10.0128270">
	<ele>585.80</ele>
	<time>2023-04-15T12:25:49.000Z</time>
</trkpt>
<trkpt lat="45.7533150" lon="10.0128520">
	<ele>586.20</ele>
	<time>2023-04-15T12:25:51.000Z</time>
</trkpt>
<trkpt lat="45.7533270" lon="10.0128870">
	<ele>586.40</ele>
	<time>2023-04-15T12:25:53.000Z</time>
</trkpt>
<trkpt lat="45.7533560" lon="10.0129150">
	<ele>587.00</ele>
	<time>2023-04-15T12:25:56.000Z</time>
</trkpt>
<trkpt lat="45.7533770" lon="10.0129220">
	<ele>587.20</ele>
	<time>2023-04-15T12:25:58.000Z</time>
</trkpt>
<trkpt lat="45.7533890" lon="10.0129770">
	<ele>588.00</ele>
	<time>2023-04-15T12:26:01.000Z</time>
</trkpt>
<trkpt lat="45.7533890" lon="10.0130050">
	<ele>588.20</ele>
	<time>2023-04-15T12:26:02.000Z</time>
</trkpt>
<trkpt lat="45.7533980" lon="10.0130180">
	<ele>588.40</ele>
	<time>2023-04-15T12:26:03.000Z</time>
</trkpt>
<trkpt lat="45.7534250" lon="10.0130300">
	<ele>589.20</ele>
	<time>2023-04-15T12:26:05.000Z</time>
</trkpt>
<trkpt lat="45.7534380" lon="10.0130290">
	<ele>589.40</ele>
	<time>2023-04-15T12:26:06.000Z</time>
</trkpt>
<trkpt lat="45.7534450" lon="10.0130300">
	<ele>589.60</ele>
	<time>2023-04-15T12:26:07.000Z</time>
</trkpt>
<trkpt lat="45.7534560" lon="10.0130500">
	<ele>589.80</ele>
	<time>2023-04-15T12:26:10.000Z</time>
</trkpt>
<trkpt lat="45.7534780" lon="10.0130630">
	<ele>590.20</ele>
	<time>2023-04-15T12:26:12.000Z</time>
</trkpt>
<trkpt lat="45.7534740" lon="10.0130960">
	<ele>590.60</ele>
	<time>2023-04-15T12:26:14.000Z</time>
</trkpt>
<trkpt lat="45.7534670" lon="10.0131110">
	<ele>590.80</ele>
	<time>2023-04-15T12:26:15.000Z</time>
</trkpt>
<trkpt lat="45.7534680" lon="10.0131370">
	<ele>591.00</ele>
	<time>2023-04-15T12:26:17.000Z</time>
</trkpt>
<trkpt lat="45.7535140" lon="10.0131980">
	<ele>591.60</ele>
	<time>2023-04-15T12:26:22.000Z</time>
</trkpt>
<trkpt lat="45.7535140" lon="10.0132110">
	<ele>591.60</ele>
	<time>2023-04-15T12:26:23.000Z</time>
</trkpt>
<trkpt lat="45.7535450" lon="10.0132320">
	<ele>592.20</ele>
	<time>2023-04-15T12:26:26.000Z</time>
</trkpt>
<trkpt lat="45.7535630" lon="10.0132390">
	<ele>592.60</ele>
	<time>2023-04-15T12:26:28.000Z</time>
</trkpt>
<trkpt lat="45.7535710" lon="10.0132490">
	<ele>592.80</ele>
	<time>2023-04-15T12:26:29.000Z</time>
</trkpt>
<trkpt lat="45.7535940" lon="10.0132780">
	<ele>593.40</ele>
	<time>2023-04-15T12:26:33.000Z</time>
</trkpt>
<trkpt lat="45.7536160" lon="10.0132770">
	<ele>593.80</ele>
	<time>2023-04-15T12:26:35.000Z</time>
</trkpt>
<trkpt lat="45.7536550" lon="10.0133500">
	<ele>594.60</ele>
	<time>2023-04-15T12:26:42.000Z</time>
</trkpt>
<trkpt lat="45.7536660" lon="10.0133720">
	<ele>594.80</ele>
	<time>2023-04-15T12:26:44.000Z</time>
</trkpt>
<trkpt lat="45.7537020" lon="10.0133820">
	<ele>595.40</ele>
	<time>2023-04-15T12:26:47.000Z</time>
</trkpt>
<trkpt lat="45.7537190" lon="10.0133760">
	<ele>595.60</ele>
	<time>2023-04-15T12:26:48.000Z</time>
</trkpt>
<trkpt lat="45.7537520" lon="10.0133900">
	<ele>595.80</ele>
	<time>2023-04-15T12:26:50.000Z</time>
</trkpt>
<trkpt lat="45.7537810" lon="10.0134060">
	<ele>596.20</ele>
	<time>2023-04-15T12:26:52.000Z</time>
</trkpt>
<trkpt lat="45.7537890" lon="10.0134100">
	<ele>596.40</ele>
	<time>2023-04-15T12:26:53.000Z</time>
</trkpt>
<trkpt lat="45.7538240" lon="10.0134260">
	<ele>597.00</ele>
	<time>2023-04-15T12:26:57.000Z</time>
</trkpt>
<trkpt lat="45.7538300" lon="10.0134520">
	<ele>597.60</ele>
	<time>2023-04-15T12:26:59.000Z</time>
</trkpt>
<trkpt lat="45.7538340" lon="10.0134660">
	<ele>597.80</ele>
	<time>2023-04-15T12:27:00.000Z</time>
</trkpt>
<trkpt lat="45.7538360" lon="10.0134810">
	<ele>598.00</ele>
	<time>2023-04-15T12:27:01.000Z</time>
</trkpt>
<trkpt lat="45.7538450" lon="10.0134950">
	<ele>598.20</ele>
	<time>2023-04-15T12:27:02.000Z</time>
</trkpt>
<trkpt lat="45.7538430" lon="10.0135140">
	<ele>598.20</ele>
	<time>2023-04-15T12:27:03.000Z</time>
</trkpt>
<trkpt lat="45.7538530" lon="10.0135210">
	<ele>598.40</ele>
	<time>2023-04-15T12:27:04.000Z</time>
</trkpt>
<trkpt lat="45.7538700" lon="10.0135450">
	<ele>598.40</ele>
	<time>2023-04-15T12:27:06.000Z</time>
</trkpt>
<trkpt lat="45.7538830" lon="10.0135570">
	<ele>598.60</ele>
	<time>2023-04-15T12:27:07.000Z</time>
</trkpt>
<trkpt lat="45.7538900" lon="10.0135770">
	<ele>598.80</ele>
	<time>2023-04-15T12:27:08.000Z</time>
</trkpt>
<trkpt lat="45.7539140" lon="10.0136380">
	<ele>599.00</ele>
	<time>2023-04-15T12:27:11.000Z</time>
</trkpt>
<trkpt lat="45.7539540" lon="10.0136450">
	<ele>599.20</ele>
	<time>2023-04-15T12:27:13.000Z</time>
</trkpt>
<trkpt lat="45.7539710" lon="10.0136970">
	<ele>599.40</ele>
	<time>2023-04-15T12:27:16.000Z</time>
</trkpt>
<trkpt lat="45.7539760" lon="10.0137220">
	<ele>599.60</ele>
	<time>2023-04-15T12:27:18.000Z</time>
</trkpt>
<trkpt lat="45.7540350" lon="10.0137850">
	<ele>600.20</ele>
	<time>2023-04-15T12:27:24.000Z</time>
</trkpt>
<trkpt lat="45.7540300" lon="10.0138160">
	<ele>600.20</ele>
	<time>2023-04-15T12:27:26.000Z</time>
</trkpt>
<trkpt lat="45.7540440" lon="10.0138700">
	<ele>601.00</ele>
	<time>2023-04-15T12:27:30.000Z</time>
</trkpt>
<trkpt lat="45.7540470" lon="10.0138800">
	<ele>601.20</ele>
	<time>2023-04-15T12:27:31.000Z</time>
</trkpt>
<trkpt lat="45.7541040" lon="10.0139680">
	<ele>602.40</ele>
	<time>2023-04-15T12:27:39.000Z</time>
</trkpt>
<trkpt lat="45.7541320" lon="10.0140110">
	<ele>603.20</ele>
	<time>2023-04-15T12:27:44.000Z</time>
</trkpt>
<trkpt lat="45.7541480" lon="10.0140320">
	<ele>603.60</ele>
	<time>2023-04-15T12:27:46.000Z</time>
</trkpt>
<trkpt lat="45.7541790" lon="10.0140930">
	<ele>604.60</ele>
	<time>2023-04-15T12:27:52.000Z</time>
</trkpt>
<trkpt lat="45.7541910" lon="10.0141300">
	<ele>605.00</ele>
	<time>2023-04-15T12:27:55.000Z</time>
</trkpt>
<trkpt lat="45.7542090" lon="10.0141620">
	<ele>605.60</ele>
	<time>2023-04-15T12:27:58.000Z</time>
</trkpt>
<trkpt lat="45.7542460" lon="10.0141900">
	<ele>606.20</ele>
	<time>2023-04-15T12:28:02.000Z</time>
</trkpt>
<trkpt lat="45.7542620" lon="10.0142170">
	<ele>606.80</ele>
	<time>2023-04-15T12:28:05.000Z</time>
</trkpt>
<trkpt lat="45.7542770" lon="10.0142350">
	<ele>607.20</ele>
	<time>2023-04-15T12:28:07.000Z</time>
</trkpt>
<trkpt lat="45.7542890" lon="10.0142610">
	<ele>607.80</ele>
	<time>2023-04-15T12:28:09.000Z</time>
</trkpt>
<trkpt lat="45.7543150" lon="10.0142940">
	<ele>608.80</ele>
	<time>2023-04-15T12:28:13.000Z</time>
</trkpt>
<trkpt lat="45.7543190" lon="10.0143070">
	<ele>609.00</ele>
	<time>2023-04-15T12:28:14.000Z</time>
</trkpt>
<trkpt lat="45.7543280" lon="10.0143290">
	<ele>609.40</ele>
	<time>2023-04-15T12:28:16.000Z</time>
</trkpt>
<trkpt lat="45.7543380" lon="10.0143510">
	<ele>610.00</ele>
	<time>2023-04-15T12:28:18.000Z</time>
</trkpt>
<trkpt lat="45.7543510" lon="10.0143590">
	<ele>610.20</ele>
	<time>2023-04-15T12:28:19.000Z</time>
</trkpt>
<trkpt lat="45.7543640" lon="10.0143690">
	<ele>610.60</ele>
	<time>2023-04-15T12:28:20.000Z</time>
</trkpt>
<trkpt lat="45.7543980" lon="10.0143730">
	<ele>611.00</ele>
	<time>2023-04-15T12:28:22.000Z</time>
</trkpt>
<trkpt lat="45.7544570" lon="10.0144100">
	<ele>612.00</ele>
	<time>2023-04-15T12:28:27.000Z</time>
</trkpt>
<trkpt lat="45.7544630" lon="10.0144160">
	<ele>612.40</ele>
	<time>2023-04-15T12:28:28.000Z</time>
</trkpt>
<trkpt lat="45.7544940" lon="10.0144690">
	<ele>613.20</ele>
	<time>2023-04-15T12:28:33.000Z</time>
</trkpt>
<trkpt lat="45.7545140" lon="10.0145210">
	<ele>614.20</ele>
	<time>2023-04-15T12:28:37.000Z</time>
</trkpt>
<trkpt lat="45.7545180" lon="10.0145280">
	<ele>614.40</ele>
	<time>2023-04-15T12:28:38.000Z</time>
</trkpt>
<trkpt lat="45.7545490" lon="10.0145560">
	<ele>615.40</ele>
	<time>2023-04-15T12:28:43.000Z</time>
</trkpt>
<trkpt lat="45.7545650" lon="10.0145710">
	<ele>616.00</ele>
	<time>2023-04-15T12:28:45.000Z</time>
</trkpt>
<trkpt lat="45.7545790" lon="10.0145950">
	<ele>616.80</ele>
	<time>2023-04-15T12:28:47.000Z</time>
</trkpt>
<trkpt lat="45.7546050" lon="10.0146290">
	<ele>617.80</ele>
	<time>2023-04-15T12:28:52.000Z</time>
</trkpt>
<trkpt lat="45.7546160" lon="10.0146310">
	<ele>618.20</ele>
	<time>2023-04-15T12:28:54.000Z</time>
</trkpt>
<trkpt lat="45.7546410" lon="10.0147190">
	<ele>619.00</ele>
	<time>2023-04-15T12:28:59.000Z</time>
</trkpt>
<trkpt lat="45.7546460" lon="10.0147230">
	<ele>619.20</ele>
	<time>2023-04-15T12:29:00.000Z</time>
</trkpt>
<trkpt lat="45.7546560" lon="10.0147980">
	<ele>620.40</ele>
	<time>2023-04-15T12:29:06.000Z</time>
</trkpt>
<trkpt lat="45.7546660" lon="10.0148200">
	<ele>621.00</ele>
	<time>2023-04-15T12:29:08.000Z</time>
</trkpt>
<trkpt lat="45.7546850" lon="10.0148480">
	<ele>621.40</ele>
	<time>2023-04-15T12:29:11.000Z</time>
</trkpt>
<trkpt lat="45.7546890" lon="10.0148600">
	<ele>621.40</ele>
	<time>2023-04-15T12:29:12.000Z</time>
</trkpt>
<trkpt lat="45.7546990" lon="10.0149000">
	<ele>621.80</ele>
	<time>2023-04-15T12:29:16.000Z</time>
</trkpt>
<trkpt lat="45.7547270" lon="10.0149440">
	<ele>622.40</ele>
	<time>2023-04-15T12:29:20.000Z</time>
</trkpt>
<trkpt lat="45.7547400" lon="10.0149660">
	<ele>622.40</ele>
	<time>2023-04-15T12:29:22.000Z</time>
</trkpt>
<trkpt lat="45.7547530" lon="10.0149780">
	<ele>622.60</ele>
	<time>2023-04-15T12:29:24.000Z</time>
</trkpt>
<trkpt lat="45.7547830" lon="10.0150000">
	<ele>623.20</ele>
	<time>2023-04-15T12:29:28.000Z</time>
</trkpt>
<trkpt lat="45.7547970" lon="10.0150200">
	<ele>623.20</ele>
	<time>2023-04-15T12:29:30.000Z</time>
</trkpt>
<trkpt lat="45.7548060" lon="10.0150280">
	<ele>623.60</ele>
	<time>2023-04-15T12:29:31.000Z</time>
</trkpt>
<trkpt lat="45.7548360" lon="10.0150370">
	<ele>624.20</ele>
	<time>2023-04-15T12:29:36.000Z</time>
</trkpt>
<trkpt lat="45.7548680" lon="10.0150540">
	<ele>624.60</ele>
	<time>2023-04-15T12:29:42.000Z</time>
</trkpt>
<trkpt lat="45.7548700" lon="10.0150560">
	<ele>624.60</ele>
	<time>2023-04-15T12:29:43.000Z</time>
</trkpt>
<trkpt lat="45.7548700" lon="10.0150580">
	<ele>624.60</ele>
	<time>2023-04-15T12:29:44.000Z</time>
</trkpt>
<trkpt lat="45.7548750" lon="10.0150550">
	<ele>624.40</ele>
	<time>2023-04-15T12:29:52.000Z</time>
</trkpt>
<trkpt lat="45.7548770" lon="10.0150560">
	<ele>624.60</ele>
	<time>2023-04-15T12:29:53.000Z</time>
</trkpt>
<trkpt lat="45.7548780" lon="10.0150560">
	<ele>625.00</ele>
	<time>2023-04-15T12:29:59.000Z</time>
</trkpt>
<trkpt lat="45.7548750" lon="10.0150630">
	<ele>625.20</ele>
	<time>2023-04-15T12:30:09.000Z</time>
</trkpt>
<trkpt lat="45.7548750" lon="10.0150660">
	<ele>625.00</ele>
	<time>2023-04-15T12:30:17.000Z</time>
</trkpt>
<trkpt lat="45.7548750" lon="10.0150660">
	<ele>624.80</ele>
	<time>2023-04-15T12:30:21.000Z</time>
</trkpt>
<trkpt lat="45.7548760" lon="10.0150660">
	<ele>624.80</ele>
	<time>2023-04-15T12:30:27.000Z</time>
</trkpt>
<trkpt lat="45.7549530" lon="10.0151240">
	<ele>624.60</ele>
	<time>2023-04-15T12:30:34.000Z</time>
</trkpt>
<trkpt lat="45.7549970" lon="10.0151520">
	<ele>624.40</ele>
	<time>2023-04-15T12:30:37.000Z</time>
</trkpt>
<trkpt lat="45.7550110" lon="10.0151640">
	<ele>624.40</ele>
	<time>2023-04-15T12:30:38.000Z</time>
</trkpt>
<trkpt lat="45.7550340" lon="10.0152140">
	<ele>624.20</ele>
	<time>2023-04-15T12:30:41.000Z</time>
</trkpt>
<trkpt lat="45.7550440" lon="10.0152280">
	<ele>624.20</ele>
	<time>2023-04-15T12:30:42.000Z</time>
</trkpt>
<trkpt lat="45.7550830" lon="10.0152900">
	<ele>624.20</ele>
	<time>2023-04-15T12:30:47.000Z</time>
</trkpt>
<trkpt lat="45.7550850" lon="10.0153490">
	<ele>624.00</ele>
	<time>2023-04-15T12:30:50.000Z</time>
</trkpt>
<trkpt lat="45.7550810" lon="10.0154290">
	<ele>623.60</ele>
	<time>2023-04-15T12:30:54.000Z</time>
</trkpt>
<trkpt lat="45.7550930" lon="10.0154430">
	<ele>623.40</ele>
	<time>2023-04-15T12:30:55.000Z</time>
</trkpt>
<trkpt lat="45.7551170" lon="10.0155340">
	<ele>623.20</ele>
	<time>2023-04-15T12:31:00.000Z</time>
</trkpt>
<trkpt lat="45.7551270" lon="10.0155930">
	<ele>623.00</ele>
	<time>2023-04-15T12:31:03.000Z</time>
</trkpt>
<trkpt lat="45.7551460" lon="10.0156310">
	<ele>622.80</ele>
	<time>2023-04-15T12:31:06.000Z</time>
</trkpt>
<trkpt lat="45.7551960" lon="10.0156500">
	<ele>622.40</ele>
	<time>2023-04-15T12:31:09.000Z</time>
</trkpt>
<trkpt lat="45.7552740" lon="10.0157120">
	<ele>621.20</ele>
	<time>2023-04-15T12:31:17.000Z</time>
</trkpt>
<trkpt lat="45.7553300" lon="10.0157300">
	<ele>620.80</ele>
	<time>2023-04-15T12:31:21.000Z</time>
</trkpt>
<trkpt lat="45.7553610" lon="10.0157560">
	<ele>620.40</ele>
	<time>2023-04-15T12:31:24.000Z</time>
</trkpt>
<trkpt lat="45.7553720" lon="10.0157600">
	<ele>620.20</ele>
	<time>2023-04-15T12:31:25.000Z</time>
</trkpt>
<trkpt lat="45.7554220" lon="10.0158340">
	<ele>619.20</ele>
	<time>2023-04-15T12:31:31.000Z</time>
</trkpt>
<trkpt lat="45.7554610" lon="10.0159250">
	<ele>618.00</ele>
	<time>2023-04-15T12:31:38.000Z</time>
</trkpt>
<trkpt lat="45.7554830" lon="10.0159450">
	<ele>617.40</ele>
	<time>2023-04-15T12:31:40.000Z</time>
</trkpt>
<trkpt lat="45.7555040" lon="10.0159770">
	<ele>617.00</ele>
	<time>2023-04-15T12:31:42.000Z</time>
</trkpt>
<trkpt lat="45.7555370" lon="10.0160200">
	<ele>616.80</ele>
	<time>2023-04-15T12:31:46.000Z</time>
</trkpt>
<trkpt lat="45.7555880" lon="10.0161030">
	<ele>616.00</ele>
	<time>2023-04-15T12:31:52.000Z</time>
</trkpt>
<trkpt lat="45.7556050" lon="10.0161550">
	<ele>615.60</ele>
	<time>2023-04-15T12:31:55.000Z</time>
</trkpt>
<trkpt lat="45.7556610" lon="10.0162260">
	<ele>615.00</ele>
	<time>2023-04-15T12:32:01.000Z</time>
</trkpt>
<trkpt lat="45.7556800" lon="10.0162550">
	<ele>614.80</ele>
	<time>2023-04-15T12:32:03.000Z</time>
</trkpt>
<trkpt lat="45.7557690" lon="10.0163720">
	<ele>614.20</ele>
	<time>2023-04-15T12:32:13.000Z</time>
</trkpt>
<trkpt lat="45.7558390" lon="10.0164710">
	<ele>614.20</ele>
	<time>2023-04-15T12:32:21.000Z</time>
</trkpt>
<trkpt lat="45.7559180" lon="10.0165760">
	<ele>614.00</ele>
	<time>2023-04-15T12:32:30.000Z</time>
</trkpt>
<trkpt lat="45.7559760" lon="10.0166650">
	<ele>614.20</ele>
	<time>2023-04-15T12:32:37.000Z</time>
</trkpt>
<trkpt lat="45.7559960" lon="10.0166920">
	<ele>614.20</ele>
	<time>2023-04-15T12:32:39.000Z</time>
</trkpt>
<trkpt lat="45.7560320" lon="10.0168170">
	<ele>614.20</ele>
	<time>2023-04-15T12:32:47.000Z</time>
</trkpt>
<trkpt lat="45.7560370" lon="10.0168500">
	<ele>614.00</ele>
	<time>2023-04-15T12:32:49.000Z</time>
</trkpt>
<trkpt lat="45.7560440" lon="10.0169700">
	<ele>613.00</ele>
	<time>2023-04-15T12:32:56.000Z</time>
</trkpt>
<trkpt lat="45.7560570" lon="10.0170130">
	<ele>612.80</ele>
	<time>2023-04-15T12:32:58.000Z</time>
</trkpt>
<trkpt lat="45.7560870" lon="10.0171090">
	<ele>611.80</ele>
	<time>2023-04-15T12:33:04.000Z</time>
</trkpt>
<trkpt lat="45.7560900" lon="10.0171270">
	<ele>611.80</ele>
	<time>2023-04-15T12:33:05.000Z</time>
</trkpt>
<trkpt lat="45.7561270" lon="10.0171950">
	<ele>611.00</ele>
	<time>2023-04-15T12:33:11.000Z</time>
</trkpt>
<trkpt lat="45.7561360" lon="10.0172090">
	<ele>610.60</ele>
	<time>2023-04-15T12:33:12.000Z</time>
</trkpt>
<trkpt lat="45.7562010" lon="10.0172840">
	<ele>610.00</ele>
	<time>2023-04-15T12:33:19.000Z</time>
</trkpt>
<trkpt lat="45.7562440" lon="10.0173580">
	<ele>610.20</ele>
	<time>2023-04-15T12:33:26.000Z</time>
</trkpt>
<trkpt lat="45.7562810" lon="10.0174780">
	<ele>610.40</ele>
	<time>2023-04-15T12:33:34.000Z</time>
</trkpt>
<trkpt lat="45.7563250" lon="10.0176110">
	<ele>610.40</ele>
	<time>2023-04-15T12:33:42.000Z</time>
</trkpt>
<trkpt lat="45.7563530" lon="10.0177320">
	<ele>610.20</ele>
	<time>2023-04-15T12:33:49.000Z</time>
</trkpt>
<trkpt lat="45.7563530" lon="10.0178940">
	<ele>610.00</ele>
	<time>2023-04-15T12:33:59.000Z</time>
</trkpt>
<trkpt lat="45.7563770" lon="10.0180270">
	<ele>610.00</ele>
	<time>2023-04-15T12:34:07.000Z</time>
</trkpt>
<trkpt lat="45.7563820" lon="10.0180610">
	<ele>609.80</ele>
	<time>2023-04-15T12:34:09.000Z</time>
</trkpt>
<trkpt lat="45.7563850" lon="10.0180750">
	<ele>609.60</ele>
	<time>2023-04-15T12:34:10.000Z</time>
</trkpt>
<trkpt lat="45.7563970" lon="10.0180990">
	<ele>609.20</ele>
	<time>2023-04-15T12:34:12.000Z</time>
</trkpt>
<trkpt lat="45.7564080" lon="10.0181130">
	<ele>609.00</ele>
	<time>2023-04-15T12:34:13.000Z</time>
</trkpt>
<trkpt lat="45.7564480" lon="10.0182020">
	<ele>608.80</ele>
	<time>2023-04-15T12:34:19.000Z</time>
</trkpt>
<trkpt lat="45.7564700" lon="10.0182130">
	<ele>608.60</ele>
	<time>2023-04-15T12:34:21.000Z</time>
</trkpt>
<trkpt lat="45.7565080" lon="10.0182560">
	<ele>608.00</ele>
	<time>2023-04-15T12:34:25.000Z</time>
</trkpt>
<trkpt lat="45.7565340" lon="10.0182830">
	<ele>607.60</ele>
	<time>2023-04-15T12:34:28.000Z</time>
</trkpt>
<trkpt lat="45.7565410" lon="10.0182860">
	<ele>607.40</ele>
	<time>2023-04-15T12:34:29.000Z</time>
</trkpt>
<trkpt lat="45.7565710" lon="10.0183640">
	<ele>606.40</ele>
	<time>2023-04-15T12:34:35.000Z</time>
</trkpt>
<trkpt lat="45.7565850" lon="10.0184010">
	<ele>606.00</ele>
	<time>2023-04-15T12:34:38.000Z</time>
</trkpt>
<trkpt lat="45.7566510" lon="10.0184480">
	<ele>605.40</ele>
	<time>2023-04-15T12:34:43.000Z</time>
</trkpt>
<trkpt lat="45.7566730" lon="10.0184640">
	<ele>605.20</ele>
	<time>2023-04-15T12:34:45.000Z</time>
</trkpt>
<trkpt lat="45.7566750" lon="10.0184740">
	<ele>605.00</ele>
	<time>2023-04-15T12:34:46.000Z</time>
</trkpt>
<trkpt lat="45.7566980" lon="10.0185130">
	<ele>604.20</ele>
	<time>2023-04-15T12:34:51.000Z</time>
</trkpt>
<trkpt lat="45.7567200" lon="10.0185220">
	<ele>603.80</ele>
	<time>2023-04-15T12:34:54.000Z</time>
</trkpt>
<trkpt lat="45.7567410" lon="10.0185270">
	<ele>603.80</ele>
	<time>2023-04-15T12:34:56.000Z</time>
</trkpt>
<trkpt lat="45.7567430" lon="10.0185370">
	<ele>603.80</ele>
	<time>2023-04-15T12:35:00.000Z</time>
</trkpt>
<trkpt lat="45.7567320" lon="10.0185370">
	<ele>603.60</ele>
	<time>2023-04-15T12:35:01.000Z</time>
</trkpt>
<trkpt lat="45.7567250" lon="10.0185440">
	<ele>603.40</ele>
	<time>2023-04-15T12:35:04.000Z</time>
</trkpt>
<trkpt lat="45.7567260" lon="10.0185440">
	<ele>603.20</ele>
	<time>2023-04-15T12:35:06.000Z</time>
</trkpt>
<trkpt lat="45.7567290" lon="10.0185380">
	<ele>603.20</ele>
	<time>2023-04-15T12:35:08.000Z</time>
</trkpt>
<trkpt lat="45.7567230" lon="10.0185290">
	<ele>603.80</ele>
	<time>2023-04-15T12:35:15.000Z</time>
</trkpt>
<trkpt lat="45.7567230" lon="10.0185260">
	<ele>603.20</ele>
	<time>2023-04-15T12:35:21.000Z</time>
</trkpt>
<trkpt lat="45.7567380" lon="10.0186060">
	<ele>603.00</ele>
	<time>2023-04-15T12:35:59.000Z</time>
</trkpt>
<trkpt lat="45.7568220" lon="10.0187180">
	<ele>602.40</ele>
	<time>2023-04-15T12:36:07.000Z</time>
</trkpt>
<trkpt lat="45.7568250" lon="10.0187230">
	<ele>602.20</ele>
	<time>2023-04-15T12:36:08.000Z</time>
</trkpt>
<trkpt lat="45.7568310" lon="10.0187270">
	<ele>602.20</ele>
	<time>2023-04-15T12:36:15.000Z</time>
</trkpt>
<trkpt lat="45.7568470" lon="10.0187700">
	<ele>601.80</ele>
	<time>2023-04-15T12:36:20.000Z</time>
</trkpt>
<trkpt lat="45.7568640" lon="10.0188160">
	<ele>601.20</ele>
	<time>2023-04-15T12:36:25.000Z</time>
</trkpt>
<trkpt lat="45.7568840" lon="10.0188450">
	<ele>600.80</ele>
	<time>2023-04-15T12:36:29.000Z</time>
</trkpt>
<trkpt lat="45.7569160" lon="10.0188790">
	<ele>600.20</ele>
	<time>2023-04-15T12:36:33.000Z</time>
</trkpt>
<trkpt lat="45.7569350" lon="10.0188840">
	<ele>599.80</ele>
	<time>2023-04-15T12:36:35.000Z</time>
</trkpt>
<trkpt lat="45.7569560" lon="10.0189040">
	<ele>599.20</ele>
	<time>2023-04-15T12:36:40.000Z</time>
</trkpt>
<trkpt lat="45.7569670" lon="10.0189140">
	<ele>599.00</ele>
	<time>2023-04-15T12:36:41.000Z</time>
</trkpt>
<trkpt lat="45.7569800" lon="10.0189170">
	<ele>599.00</ele>
	<time>2023-04-15T12:36:42.000Z</time>
</trkpt>
<trkpt lat="45.7570440" lon="10.0189420">
	<ele>598.80</ele>
	<time>2023-04-15T12:36:45.000Z</time>
</trkpt>
<trkpt lat="45.7570950" lon="10.0189850">
	<ele>598.80</ele>
	<time>2023-04-15T12:36:48.000Z</time>
</trkpt>
<trkpt lat="45.7571140" lon="10.0190280">
	<ele>598.80</ele>
	<time>2023-04-15T12:36:50.000Z</time>
</trkpt>
<trkpt lat="45.7571490" lon="10.0191320">
	<ele>598.80</ele>
	<time>2023-04-15T12:36:56.000Z</time>
</trkpt>
<trkpt lat="45.7571640" lon="10.0191540">
	<ele>598.60</ele>
	<time>2023-04-15T12:36:58.000Z</time>
</trkpt>
<trkpt lat="45.7571770" lon="10.0191590">
	<ele>598.60</ele>
	<time>2023-04-15T12:36:59.000Z</time>
</trkpt>
<trkpt lat="45.7571900" lon="10.0191660">
	<ele>598.60</ele>
	<time>2023-04-15T12:37:00.000Z</time>
</trkpt>
<trkpt lat="45.7571970" lon="10.0191760">
	<ele>598.60</ele>
	<time>2023-04-15T12:37:01.000Z</time>
</trkpt>
<trkpt lat="45.7572510" lon="10.0191710">
	<ele>598.80</ele>
	<time>2023-04-15T12:37:04.000Z</time>
</trkpt>
<trkpt lat="45.7572450" lon="10.0192460">
	<ele>598.60</ele>
	<time>2023-04-15T12:37:07.000Z</time>
</trkpt>
<trkpt lat="45.7572550" lon="10.0192850">
	<ele>598.40</ele>
	<time>2023-04-15T12:37:09.000Z</time>
</trkpt>
<trkpt lat="45.7572690" lon="10.0192940">
	<ele>598.20</ele>
	<time>2023-04-15T12:37:11.000Z</time>
</trkpt>
<trkpt lat="45.7572670" lon="10.0193100">
	<ele>598.00</ele>
	<time>2023-04-15T12:37:12.000Z</time>
</trkpt>
<trkpt lat="45.7572980" lon="10.0193490">
	<ele>598.00</ele>
	<time>2023-04-15T12:37:15.000Z</time>
</trkpt>
<trkpt lat="45.7573270" lon="10.0193520">
	<ele>598.00</ele>
	<time>2023-04-15T12:37:17.000Z</time>
</trkpt>
<trkpt lat="45.7573490" lon="10.0193430">
	<ele>598.00</ele>
	<time>2023-04-15T12:37:19.000Z</time>
</trkpt>
<trkpt lat="45.7573660" lon="10.0193360">
	<ele>598.20</ele>
	<time>2023-04-15T12:37:21.000Z</time>
</trkpt>
<trkpt lat="45.7574290" lon="10.0193520">
	<ele>598.60</ele>
	<time>2023-04-15T12:37:26.000Z</time>
</trkpt>
<trkpt lat="45.7574500" lon="10.0193850">
	<ele>599.20</ele>
	<time>2023-04-15T12:37:30.000Z</time>
</trkpt>
<trkpt lat="45.7574660" lon="10.0194010">
	<ele>599.40</ele>
	<time>2023-04-15T12:37:32.000Z</time>
</trkpt>
<trkpt lat="45.7574710" lon="10.0194040">
	<ele>599.60</ele>
	<time>2023-04-15T12:37:33.000Z</time>
</trkpt>
<trkpt lat="45.7574830" lon="10.0194070">
	<ele>600.00</ele>
	<time>2023-04-15T12:37:35.000Z</time>
</trkpt>
<trkpt lat="45.7575130" lon="10.0194270">
	<ele>600.20</ele>
	<time>2023-04-15T12:37:37.000Z</time>
</trkpt>
<trkpt lat="45.7575160" lon="10.0194350">
	<ele>600.20</ele>
	<time>2023-04-15T12:37:38.000Z</time>
</trkpt>
<trkpt lat="45.7575340" lon="10.0194520">
	<ele>600.40</ele>
	<time>2023-04-15T12:37:40.000Z</time>
</trkpt>
<trkpt lat="45.7575520" lon="10.0195140">
	<ele>601.00</ele>
	<time>2023-04-15T12:37:44.000Z</time>
</trkpt>
<trkpt lat="45.7575620" lon="10.0195050">
	<ele>601.00</ele>
	<time>2023-04-15T12:37:45.000Z</time>
</trkpt>
<trkpt lat="45.7575730" lon="10.0195590">
	<ele>601.40</ele>
	<time>2023-04-15T12:37:48.000Z</time>
</trkpt>
<trkpt lat="45.7575790" lon="10.0195770">
	<ele>601.60</ele>
	<time>2023-04-15T12:37:50.000Z</time>
</trkpt>
<trkpt lat="45.7576040" lon="10.0195940">
	<ele>601.80</ele>
	<time>2023-04-15T12:37:52.000Z</time>
</trkpt>
<trkpt lat="45.7576190" lon="10.0195950">
	<ele>601.80</ele>
	<time>2023-04-15T12:37:53.000Z</time>
</trkpt>
<trkpt lat="45.7576350" lon="10.0195970">
	<ele>602.00</ele>
	<time>2023-04-15T12:37:55.000Z</time>
</trkpt>
<trkpt lat="45.7576440" lon="10.0195990">
	<ele>602.20</ele>
	<time>2023-04-15T12:37:56.000Z</time>
</trkpt>
<trkpt lat="45.7576520" lon="10.0196050">
	<ele>602.40</ele>
	<time>2023-04-15T12:37:58.000Z</time>
</trkpt>
<trkpt lat="45.7576650" lon="10.0196050">
	<ele>602.60</ele>
	<time>2023-04-15T12:38:00.000Z</time>
</trkpt>
<trkpt lat="45.7576730" lon="10.0196090">
	<ele>602.80</ele>
	<time>2023-04-15T12:38:01.000Z</time>
</trkpt>
<trkpt lat="45.7577110" lon="10.0196050">
	<ele>603.00</ele>
	<time>2023-04-15T12:38:05.000Z</time>
</trkpt>
<trkpt lat="45.7577330" lon="10.0195960">
	<ele>603.20</ele>
	<time>2023-04-15T12:38:10.000Z</time>
</trkpt>
<trkpt lat="45.7577550" lon="10.0195980">
	<ele>603.40</ele>
	<time>2023-04-15T12:38:12.000Z</time>
</trkpt>
<trkpt lat="45.7577890" lon="10.0195970">
	<ele>604.20</ele>
	<time>2023-04-15T12:38:15.000Z</time>
</trkpt>
<trkpt lat="45.7578020" lon="10.0195960">
	<ele>604.20</ele>
	<time>2023-04-15T12:38:16.000Z</time>
</trkpt>
<trkpt lat="45.7578210" lon="10.0195940">
	<ele>604.40</ele>
	<time>2023-04-15T12:38:17.000Z</time>
</trkpt>
<trkpt lat="45.7578980" lon="10.0195920">
	<ele>604.40</ele>
	<time>2023-04-15T12:38:20.000Z</time>
</trkpt>
<trkpt lat="45.7579700" lon="10.0196190">
	<ele>604.60</ele>
	<time>2023-04-15T12:38:25.000Z</time>
</trkpt>
<trkpt lat="45.7579880" lon="10.0196240">
	<ele>604.60</ele>
	<time>2023-04-15T12:38:26.000Z</time>
</trkpt>
<trkpt lat="45.7580670" lon="10.0197320">
	<ele>604.00</ele>
	<time>2023-04-15T12:38:34.000Z</time>
</trkpt>
<trkpt lat="45.7580690" lon="10.0197530">
	<ele>604.00</ele>
	<time>2023-04-15T12:38:35.000Z</time>
</trkpt>
<trkpt lat="45.7581160" lon="10.0197700">
	<ele>603.80</ele>
	<time>2023-04-15T12:38:40.000Z</time>
</trkpt>
<trkpt lat="45.7581270" lon="10.0198070">
	<ele>603.40</ele>
	<time>2023-04-15T12:38:44.000Z</time>
</trkpt>
<trkpt lat="45.7581310" lon="10.0198310">
	<ele>603.40</ele>
	<time>2023-04-15T12:38:46.000Z</time>
</trkpt>
<trkpt lat="45.7581370" lon="10.0198350">
	<ele>603.20</ele>
	<time>2023-04-15T12:38:47.000Z</time>
</trkpt>
<trkpt lat="45.7581430" lon="10.0198390">
	<ele>603.00</ele>
	<time>2023-04-15T12:38:49.000Z</time>
</trkpt>
<trkpt lat="45.7581510" lon="10.0198440">
	<ele>603.00</ele>
	<time>2023-04-15T12:38:51.000Z</time>
</trkpt>
<trkpt lat="45.7581520" lon="10.0198440">
	<ele>603.00</ele>
	<time>2023-04-15T12:38:52.000Z</time>
</trkpt>
<trkpt lat="45.7581540" lon="10.0198490">
	<ele>603.00</ele>
	<time>2023-04-15T12:38:54.000Z</time>
</trkpt>
<trkpt lat="45.7581550" lon="10.0198170">
	<ele>603.40</ele>
	<time>2023-04-15T12:39:00.000Z</time>
</trkpt>
<trkpt lat="45.7581530" lon="10.0198170">
	<ele>603.40</ele>
	<time>2023-04-15T12:39:03.000Z</time>
</trkpt>
<trkpt lat="45.7581510" lon="10.0198170">
	<ele>603.40</ele>
	<time>2023-04-15T12:39:05.000Z</time>
</trkpt>
<trkpt lat="45.7581250" lon="10.0197860">
	<ele>603.00</ele>
	<time>2023-04-15T12:39:10.000Z</time>
</trkpt>
<trkpt lat="45.7580420" lon="10.0198050">
	<ele>603.00</ele>
	<time>2023-04-15T12:39:17.000Z</time>
</trkpt>
<trkpt lat="45.7580470" lon="10.0198900">
	<ele>603.00</ele>
	<time>2023-04-15T12:39:24.000Z</time>
</trkpt>
<trkpt lat="45.7580430" lon="10.0199310">
	<ele>603.00</ele>
	<time>2023-04-15T12:39:32.000Z</time>
</trkpt>
<trkpt lat="45.7580890" lon="10.0200280">
	<ele>603.00</ele>
	<time>2023-04-15T12:39:38.000Z</time>
</trkpt>
<trkpt lat="45.7580700" lon="10.0200140">
	<ele>603.00</ele>
	<time>2023-04-15T12:39:47.000Z</time>
</trkpt>
<trkpt lat="45.7580110" lon="10.0199820">
	<ele>603.00</ele>
	<time>2023-04-15T12:39:51.000Z</time>
</trkpt>
<trkpt lat="45.7579620" lon="10.0199410">
	<ele>603.00</ele>
	<time>2023-04-15T12:39:53.000Z</time>
</trkpt>
<trkpt lat="45.7580020" lon="10.0198040">
	<ele>603.00</ele>
	<time>2023-04-15T12:40:02.000Z</time>
</trkpt>
<trkpt lat="45.7580550" lon="10.0198840">
	<ele>603.00</ele>
	<time>2023-04-15T12:40:10.000Z</time>
</trkpt>
<trkpt lat="45.7581690" lon="10.0199260">
	<ele>603.00</ele>
	<time>2023-04-15T12:40:25.000Z</time>
</trkpt>
<trkpt lat="45.7580750" lon="10.0199820">
	<ele>603.00</ele>
	<time>2023-04-15T12:40:48.000Z</time>
</trkpt>
<trkpt lat="45.7582790" lon="10.0197090">
	<ele>603.00</ele>
	<time>2023-04-15T12:43:55.000Z</time>
</trkpt>
<trkpt lat="45.7582990" lon="10.0198330">
	<ele>603.00</ele>
	<time>2023-04-15T12:44:01.000Z</time>
</trkpt>
<trkpt lat="45.7583150" lon="10.0198450">
	<ele>603.00</ele>
	<time>2023-04-15T12:44:04.000Z</time>
</trkpt>
<trkpt lat="45.7583280" lon="10.0199090">
	<ele>603.00</ele>
	<time>2023-04-15T12:44:10.000Z</time>
</trkpt>
<trkpt lat="45.7583140" lon="10.0199910">
	<ele>603.00</ele>
	<time>2023-04-15T12:44:20.000Z</time>
</trkpt>
<trkpt lat="45.7582770" lon="10.0199880">
	<ele>603.00</ele>
	<time>2023-04-15T12:44:25.000Z</time>
</trkpt>
<trkpt lat="45.7582430" lon="10.0199830">
	<ele>603.00</ele>
	<time>2023-04-15T12:44:31.000Z</time>
</trkpt>
<trkpt lat="45.7582460" lon="10.0199980">
	<ele>603.00</ele>
	<time>2023-04-15T12:44:39.000Z</time>
</trkpt>
<trkpt lat="45.7582540" lon="10.0200120">
	<ele>603.00</ele>
	<time>2023-04-15T12:44:41.000Z</time>
</trkpt>
<trkpt lat="45.7582540" lon="10.0200110">
	<ele>603.00</ele>
	<time>2023-04-15T12:44:52.000Z</time>
</trkpt>
<trkpt lat="45.7582830" lon="10.0200140">
	<ele>603.00</ele>
	<time>2023-04-15T12:45:13.000Z</time>
</trkpt>
<trkpt lat="45.7583200" lon="10.0200850">
	<ele>603.00</ele>
	<time>2023-04-15T12:45:42.000Z</time>
</trkpt>
<trkpt lat="45.7583410" lon="10.0201160">
	<ele>603.00</ele>
	<time>2023-04-15T12:45:46.000Z</time>
</trkpt>
<trkpt lat="45.7583450" lon="10.0201760">
	<ele>603.00</ele>
	<time>2023-04-15T12:45:50.000Z</time>
</trkpt>
<trkpt lat="45.7583220" lon="10.0202160">
	<ele>603.00</ele>
	<time>2023-04-15T12:45:54.000Z</time>
</trkpt>
<trkpt lat="45.7583280" lon="10.0202150">
	<ele>599.40</ele>
	<time>2023-04-15T12:45:56.000Z</time>
</trkpt>
<trkpt lat="45.7583310" lon="10.0202220">
	<ele>597.40</ele>
	<time>2023-04-15T12:45:57.000Z</time>
</trkpt>
<trkpt lat="45.7583380" lon="10.0202350">
	<ele>596.40</ele>
	<time>2023-04-15T12:45:58.000Z</time>
</trkpt>
<trkpt lat="45.7583370" lon="10.0202680">
	<ele>594.80</ele>
	<time>2023-04-15T12:46:00.000Z</time>
</trkpt>
<trkpt lat="45.7583280" lon="10.0203340">
	<ele>594.20</ele>
	<time>2023-04-15T12:46:04.000Z</time>
</trkpt>
<trkpt lat="45.7583230" lon="10.0203560">
	<ele>594.00</ele>
	<time>2023-04-15T12:46:05.000Z</time>
</trkpt>
<trkpt lat="45.7583190" lon="10.0203600">
	<ele>593.80</ele>
	<time>2023-04-15T12:46:06.000Z</time>
</trkpt>
<trkpt lat="45.7583180" lon="10.0203740">
	<ele>593.60</ele>
	<time>2023-04-15T12:46:07.000Z</time>
</trkpt>
<trkpt lat="45.7583200" lon="10.0203780">
	<ele>593.40</ele>
	<time>2023-04-15T12:46:08.000Z</time>
</trkpt>
<trkpt lat="45.7583240" lon="10.0204100">
	<ele>593.00</ele>
	<time>2023-04-15T12:46:10.000Z</time>
</trkpt>
<trkpt lat="45.7583070" lon="10.0204300">
	<ele>592.60</ele>
	<time>2023-04-15T12:46:12.000Z</time>
</trkpt>
<trkpt lat="45.7582960" lon="10.0204500">
	<ele>592.20</ele>
	<time>2023-04-15T12:46:14.000Z</time>
</trkpt>
<trkpt lat="45.7582800" lon="10.0205120">
	<ele>591.60</ele>
	<time>2023-04-15T12:46:18.000Z</time>
</trkpt>
<trkpt lat="45.7582630" lon="10.0205090">
	<ele>591.40</ele>
	<time>2023-04-15T12:46:19.000Z</time>
</trkpt>
<trkpt lat="45.7582190" lon="10.0204980">
	<ele>590.80</ele>
	<time>2023-04-15T12:46:22.000Z</time>
</trkpt>
<trkpt lat="45.7582130" lon="10.0205000">
	<ele>590.40</ele>
	<time>2023-04-15T12:46:23.000Z</time>
</trkpt>
<trkpt lat="45.7582130" lon="10.0205020">
	<ele>590.40</ele>
	<time>2023-04-15T12:46:24.000Z</time>
</trkpt>
<trkpt lat="45.7582150" lon="10.0204980">
	<ele>590.20</ele>
	<time>2023-04-15T12:46:25.000Z</time>
</trkpt>
<trkpt lat="45.7582120" lon="10.0204910">
	<ele>590.20</ele>
	<time>2023-04-15T12:46:27.000Z</time>
</trkpt>
<trkpt lat="45.7582180" lon="10.0204830">
	<ele>590.00</ele>
	<time>2023-04-15T12:46:29.000Z</time>
</trkpt>
<trkpt lat="45.7582160" lon="10.0205210">
	<ele>589.80</ele>
	<time>2023-04-15T12:46:32.000Z</time>
</trkpt>
<trkpt lat="45.7582140" lon="10.0205370">
	<ele>589.60</ele>
	<time>2023-04-15T12:46:33.000Z</time>
</trkpt>
<trkpt lat="45.7582320" lon="10.0205660">
	<ele>589.40</ele>
	<time>2023-04-15T12:46:34.000Z</time>
</trkpt>
<trkpt lat="45.7582460" lon="10.0206630">
	<ele>589.20</ele>
	<time>2023-04-15T12:46:36.000Z</time>
</trkpt>
<trkpt lat="45.7582580" lon="10.0207390">
	<ele>589.00</ele>
	<time>2023-04-15T12:46:39.000Z</time>
</trkpt>
<trkpt lat="45.7582450" lon="10.0207660">
	<ele>588.00</ele>
	<time>2023-04-15T12:46:42.000Z</time>
</trkpt>
<trkpt lat="45.7582390" lon="10.0207680">
	<ele>587.60</ele>
	<time>2023-04-15T12:46:43.000Z</time>
</trkpt>
<trkpt lat="45.7582330" lon="10.0207670">
	<ele>587.40</ele>
	<time>2023-04-15T12:46:44.000Z</time>
</trkpt>
<trkpt lat="45.7582170" lon="10.0207770">
	<ele>587.20</ele>
	<time>2023-04-15T12:46:46.000Z</time>
</trkpt>
<trkpt lat="45.7582130" lon="10.0207840">
	<ele>587.00</ele>
	<time>2023-04-15T12:46:47.000Z</time>
</trkpt>
<trkpt lat="45.7582100" lon="10.0207920">
	<ele>586.60</ele>
	<time>2023-04-15T12:46:49.000Z</time>
</trkpt>
<trkpt lat="45.7582090" lon="10.0208100">
	<ele>586.00</ele>
	<time>2023-04-15T12:46:52.000Z</time>
</trkpt>
<trkpt lat="45.7582090" lon="10.0208090">
	<ele>585.80</ele>
	<time>2023-04-15T12:46:54.000Z</time>
</trkpt>
<trkpt lat="45.7582120" lon="10.0208070">
	<ele>585.80</ele>
	<time>2023-04-15T12:46:55.000Z</time>
</trkpt>
<trkpt lat="45.7582070" lon="10.0208250">
	<ele>585.60</ele>
	<time>2023-04-15T12:46:57.000Z</time>
</trkpt>
<trkpt lat="45.7582110" lon="10.0208550">
	<ele>584.80</ele>
	<time>2023-04-15T12:47:01.000Z</time>
</trkpt>
<trkpt lat="45.7582120" lon="10.0208710">
	<ele>584.40</ele>
	<time>2023-04-15T12:47:03.000Z</time>
</trkpt>
<trkpt lat="45.7582230" lon="10.0209070">
	<ele>583.60</ele>
	<time>2023-04-15T12:47:07.000Z</time>
</trkpt>
<trkpt lat="45.7582180" lon="10.0209240">
	<ele>583.00</ele>
	<time>2023-04-15T12:47:10.000Z</time>
</trkpt>
<trkpt lat="45.7581990" lon="10.0209010">
	<ele>582.60</ele>
	<time>2023-04-15T12:47:13.000Z</time>
</trkpt>
<trkpt lat="45.7581920" lon="10.0208860">
	<ele>582.40</ele>
	<time>2023-04-15T12:47:14.000Z</time>
</trkpt>
<trkpt lat="45.7581840" lon="10.0208750">
	<ele>582.20</ele>
	<time>2023-04-15T12:47:15.000Z</time>
</trkpt>
<trkpt lat="45.7581300" lon="10.0207750">
	<ele>582.20</ele>
	<time>2023-04-15T12:47:23.000Z</time>
</trkpt>
<trkpt lat="45.7581150" lon="10.0207680">
	<ele>582.20</ele>
	<time>2023-04-15T12:47:25.000Z</time>
</trkpt>
<trkpt lat="45.7580900" lon="10.0207560">
	<ele>582.00</ele>
	<time>2023-04-15T12:47:28.000Z</time>
</trkpt>
<trkpt lat="45.7580860" lon="10.0207450">
	<ele>582.00</ele>
	<time>2023-04-15T12:47:29.000Z</time>
</trkpt>
<trkpt lat="45.7580570" lon="10.0207060">
	<ele>581.80</ele>
	<time>2023-04-15T12:47:33.000Z</time>
</trkpt>
<trkpt lat="45.7580340" lon="10.0206870">
	<ele>581.60</ele>
	<time>2023-04-15T12:47:36.000Z</time>
</trkpt>
<trkpt lat="45.7580040" lon="10.0206780">
	<ele>581.80</ele>
	<time>2023-04-15T12:47:39.000Z</time>
</trkpt>
</trkseg>
</trk>
</gpx>
